<?xml version="1.0" encoding="UTF-8" standalone="no" ?>
<gpx xmlns="http://www.topografix.com/GPX/1/1" xmlns:xsi="http://www.w3.org/2001/XMLSchema-instance" xsi:schemaLocation="http://www.topografix.com/GPX/1/1 http://www.topografix.com/GPX/1/1/gpx.xsd" version="1.1" creator="VisuGPX - https://www.visugpx.com">
  <metadata>
    <name>Beuil Boucles ROCKY</name>
    <desc><![CDATA[2 Boucles ROCKY avec arrêt à Beuil à midi pour déjeuner et recharger 1 peu car il faut mini 750w/h pour enchainer les 2 boucles.]]></desc>
  </metadata>
  <trk>
    <name><![CDATA[Beuil Cyclisme]]></name>
    <extensions>
      <line xmlns="http://www.topografix.com/GPX/gpx_style/0/2">
        <color>0000FF</color>
        <width>4</width>
      </line>
    </extensions>
    <trkseg>
      <trkpt lat="44.09656" lon="6.98641">
        <ele>1453.5999755859</ele>
        <time>2022-07-21T07:22:19.000Z</time>
      </trkpt>
      <trkpt lat="44.09657" lon="6.98641">
        <ele>1453.4000244141</ele>
        <time>2022-07-21T07:22:26.000Z</time>
      </trkpt>
      <trkpt lat="44.09657" lon="6.9864">
        <ele>1453.4000244141</ele>
        <time>2022-07-21T07:22:38.000Z</time>
      </trkpt>
      <trkpt lat="44.09657" lon="6.98639">
        <ele>1453.1999511719</ele>
        <time>2022-07-21T07:22:51.000Z</time>
      </trkpt>
      <trkpt lat="44.09657" lon="6.98639">
        <ele>1453.1999511719</ele>
        <time>2022-07-21T07:23:01.000Z</time>
      </trkpt>
      <trkpt lat="44.09657" lon="6.98639">
        <ele>1453.1999511719</ele>
        <time>2022-07-21T07:23:08.000Z</time>
      </trkpt>
      <trkpt lat="44.09657" lon="6.98635">
        <ele>1453.1999511719</ele>
        <time>2022-07-21T07:23:14.000Z</time>
      </trkpt>
      <trkpt lat="44.09657" lon="6.98634">
        <ele>1452.8000488281</ele>
        <time>2022-07-21T07:23:21.000Z</time>
      </trkpt>
      <trkpt lat="44.09657" lon="6.98634">
        <ele>1453.4000244141</ele>
        <time>2022-07-21T07:23:30.000Z</time>
      </trkpt>
      <trkpt lat="44.09657" lon="6.98634">
        <ele>1452.5999755859</ele>
        <time>2022-07-21T07:23:35.000Z</time>
      </trkpt>
      <trkpt lat="44.09655" lon="6.98635">
        <ele>1452.5999755859</ele>
        <time>2022-07-21T07:23:38.000Z</time>
      </trkpt>
      <trkpt lat="44.09654" lon="6.98632">
        <ele>1452.5999755859</ele>
        <time>2022-07-21T07:23:45.000Z</time>
      </trkpt>
      <trkpt lat="44.09654" lon="6.98631">
        <ele>1452.4000244141</ele>
        <time>2022-07-21T07:23:55.000Z</time>
      </trkpt>
      <trkpt lat="44.09653" lon="6.98626">
        <ele>1452.8000488281</ele>
        <time>2022-07-21T07:24:05.000Z</time>
      </trkpt>
      <trkpt lat="44.09654" lon="6.98624">
        <ele>1452.5999755859</ele>
        <time>2022-07-21T07:24:10.000Z</time>
      </trkpt>
      <trkpt lat="44.09653" lon="6.98624">
        <ele>1452.8000488281</ele>
        <time>2022-07-21T07:24:19.000Z</time>
      </trkpt>
      <trkpt lat="44.09652" lon="6.98624">
        <ele>1452.5999755859</ele>
        <time>2022-07-21T07:24:26.000Z</time>
      </trkpt>
      <trkpt lat="44.09646" lon="6.98626">
        <ele>1452.4000244141</ele>
        <time>2022-07-21T07:24:34.000Z</time>
      </trkpt>
      <trkpt lat="44.09633" lon="6.98635">
        <ele>1452.1999511719</ele>
        <time>2022-07-21T07:24:40.000Z</time>
      </trkpt>
      <trkpt lat="44.0962" lon="6.98632">
        <ele>1452.5999755859</ele>
        <time>2022-07-21T07:24:47.000Z</time>
      </trkpt>
      <trkpt lat="44.09607" lon="6.98626">
        <ele>1453.1999511719</ele>
        <time>2022-07-21T07:24:54.000Z</time>
      </trkpt>
      <trkpt lat="44.09596" lon="6.98619">
        <ele>1453</ele>
        <time>2022-07-21T07:25:00.000Z</time>
      </trkpt>
      <trkpt lat="44.09595" lon="6.98616">
        <ele>1453</ele>
        <time>2022-07-21T07:25:01.000Z</time>
      </trkpt>
      <trkpt lat="44.09599" lon="6.98606">
        <ele>1453</ele>
        <time>2022-07-21T07:25:04.000Z</time>
      </trkpt>
      <trkpt lat="44.09607" lon="6.98601">
        <ele>1452.5999755859</ele>
        <time>2022-07-21T07:25:07.000Z</time>
      </trkpt>
      <trkpt lat="44.09612" lon="6.98596">
        <ele>1452.4000244141</ele>
        <time>2022-07-21T07:25:09.000Z</time>
      </trkpt>
      <trkpt lat="44.0962" lon="6.98576">
        <ele>1451.8000488281</ele>
        <time>2022-07-21T07:25:14.000Z</time>
      </trkpt>
      <trkpt lat="44.09619" lon="6.98566">
        <ele>1451.4000244141</ele>
        <time>2022-07-21T07:25:16.000Z</time>
      </trkpt>
      <trkpt lat="44.09618" lon="6.98554">
        <ele>1451</ele>
        <time>2022-07-21T07:25:18.000Z</time>
      </trkpt>
      <trkpt lat="44.09611" lon="6.98524">
        <ele>1450.1999511719</ele>
        <time>2022-07-21T07:25:22.000Z</time>
      </trkpt>
      <trkpt lat="44.0961" lon="6.98515">
        <ele>1450</ele>
        <time>2022-07-21T07:25:23.000Z</time>
      </trkpt>
      <trkpt lat="44.09607" lon="6.98495">
        <ele>1449</ele>
        <time>2022-07-21T07:25:25.000Z</time>
      </trkpt>
      <trkpt lat="44.09606" lon="6.98474">
        <ele>1447.8000488281</ele>
        <time>2022-07-21T07:25:27.000Z</time>
      </trkpt>
      <trkpt lat="44.09605" lon="6.98463">
        <ele>1447</ele>
        <time>2022-07-21T07:25:28.000Z</time>
      </trkpt>
      <trkpt lat="44.09604" lon="6.98453">
        <ele>1446</ele>
        <time>2022-07-21T07:25:29.000Z</time>
      </trkpt>
      <trkpt lat="44.09603" lon="6.98431">
        <ele>1444.8000488281</ele>
        <time>2022-07-21T07:25:31.000Z</time>
      </trkpt>
      <trkpt lat="44.09602" lon="6.98411">
        <ele>1443.8000488281</ele>
        <time>2022-07-21T07:25:33.000Z</time>
      </trkpt>
      <trkpt lat="44.09602" lon="6.98404">
        <ele>1443.8000488281</ele>
        <time>2022-07-21T07:25:34.000Z</time>
      </trkpt>
      <trkpt lat="44.096" lon="6.98373">
        <ele>1445</ele>
        <time>2022-07-21T07:25:39.000Z</time>
      </trkpt>
      <trkpt lat="44.09597" lon="6.98356">
        <ele>1445.4000244141</ele>
        <time>2022-07-21T07:25:42.000Z</time>
      </trkpt>
      <trkpt lat="44.09593" lon="6.9834">
        <ele>1445.1999511719</ele>
        <time>2022-07-21T07:25:45.000Z</time>
      </trkpt>
      <trkpt lat="44.09585" lon="6.98314">
        <ele>1445.4000244141</ele>
        <time>2022-07-21T07:25:51.000Z</time>
      </trkpt>
      <trkpt lat="44.09577" lon="6.98293">
        <ele>1446.1999511719</ele>
        <time>2022-07-21T07:25:57.000Z</time>
      </trkpt>
      <trkpt lat="44.09575" lon="6.9829">
        <ele>1446.1999511719</ele>
        <time>2022-07-21T07:25:58.000Z</time>
      </trkpt>
      <trkpt lat="44.09569" lon="6.98267">
        <ele>1446.8000488281</ele>
        <time>2022-07-21T07:26:05.000Z</time>
      </trkpt>
      <trkpt lat="44.09566" lon="6.98245">
        <ele>1447</ele>
        <time>2022-07-21T07:26:12.000Z</time>
      </trkpt>
      <trkpt lat="44.09564" lon="6.98229">
        <ele>1447.1999511719</ele>
        <time>2022-07-21T07:26:18.000Z</time>
      </trkpt>
      <trkpt lat="44.09564" lon="6.98225">
        <ele>1447.4000244141</ele>
        <time>2022-07-21T07:26:19.000Z</time>
      </trkpt>
      <trkpt lat="44.0956" lon="6.98197">
        <ele>1448.1999511719</ele>
        <time>2022-07-21T07:26:27.000Z</time>
      </trkpt>
      <trkpt lat="44.09557" lon="6.98186">
        <ele>1448.5999755859</ele>
        <time>2022-07-21T07:26:30.000Z</time>
      </trkpt>
      <trkpt lat="44.09555" lon="6.98176">
        <ele>1449.4000244141</ele>
        <time>2022-07-21T07:26:33.000Z</time>
      </trkpt>
      <trkpt lat="44.09552" lon="6.98164">
        <ele>1450.5999755859</ele>
        <time>2022-07-21T07:26:37.000Z</time>
      </trkpt>
      <trkpt lat="44.09551" lon="6.98161">
        <ele>1451</ele>
        <time>2022-07-21T07:26:38.000Z</time>
      </trkpt>
      <trkpt lat="44.09551" lon="6.98152">
        <ele>1451.5999755859</ele>
        <time>2022-07-21T07:26:41.000Z</time>
      </trkpt>
      <trkpt lat="44.09551" lon="6.98139">
        <ele>1452.8000488281</ele>
        <time>2022-07-21T07:26:45.000Z</time>
      </trkpt>
      <trkpt lat="44.09553" lon="6.98126">
        <ele>1453.8000488281</ele>
        <time>2022-07-21T07:26:50.000Z</time>
      </trkpt>
      <trkpt lat="44.09554" lon="6.98119">
        <ele>1454.1999511719</ele>
        <time>2022-07-21T07:26:52.000Z</time>
      </trkpt>
      <trkpt lat="44.09556" lon="6.98092">
        <ele>1455</ele>
        <time>2022-07-21T07:27:00.000Z</time>
      </trkpt>
      <trkpt lat="44.09556" lon="6.98076">
        <ele>1456.1999511719</ele>
        <time>2022-07-21T07:27:05.000Z</time>
      </trkpt>
      <trkpt lat="44.09555" lon="6.98073">
        <ele>1456.1999511719</ele>
        <time>2022-07-21T07:27:06.000Z</time>
      </trkpt>
      <trkpt lat="44.09554" lon="6.9805">
        <ele>1457</ele>
        <time>2022-07-21T07:27:13.000Z</time>
      </trkpt>
      <trkpt lat="44.09553" lon="6.98046">
        <ele>1457.1999511719</ele>
        <time>2022-07-21T07:27:14.000Z</time>
      </trkpt>
      <trkpt lat="44.09548" lon="6.98025">
        <ele>1457.4000244141</ele>
        <time>2022-07-21T07:27:19.000Z</time>
      </trkpt>
      <trkpt lat="44.09534" lon="6.97988">
        <ele>1456.8000488281</ele>
        <time>2022-07-21T07:27:27.000Z</time>
      </trkpt>
      <trkpt lat="44.09528" lon="6.97966">
        <ele>1457</ele>
        <time>2022-07-21T07:27:32.000Z</time>
      </trkpt>
      <trkpt lat="44.09524" lon="6.97941">
        <ele>1458.1999511719</ele>
        <time>2022-07-21T07:27:38.000Z</time>
      </trkpt>
      <trkpt lat="44.09523" lon="6.97936">
        <ele>1458.5999755859</ele>
        <time>2022-07-21T07:27:40.000Z</time>
      </trkpt>
      <trkpt lat="44.09521" lon="6.97926">
        <ele>1459.4000244141</ele>
        <time>2022-07-21T07:27:43.000Z</time>
      </trkpt>
      <trkpt lat="44.09519" lon="6.97913">
        <ele>1460</ele>
        <time>2022-07-21T07:27:47.000Z</time>
      </trkpt>
      <trkpt lat="44.09517" lon="6.97906">
        <ele>1460.4000244141</ele>
        <time>2022-07-21T07:27:49.000Z</time>
      </trkpt>
      <trkpt lat="44.09512" lon="6.97888">
        <ele>1461.4000244141</ele>
        <time>2022-07-21T07:27:55.000Z</time>
      </trkpt>
      <trkpt lat="44.0951" lon="6.97879">
        <ele>1462.4000244141</ele>
        <time>2022-07-21T07:27:59.000Z</time>
      </trkpt>
      <trkpt lat="44.09506" lon="6.97868">
        <ele>1463.4000244141</ele>
        <time>2022-07-21T07:28:03.000Z</time>
      </trkpt>
      <trkpt lat="44.09497" lon="6.97849">
        <ele>1464.5999755859</ele>
        <time>2022-07-21T07:28:10.000Z</time>
      </trkpt>
      <trkpt lat="44.09493" lon="6.97838">
        <ele>1465.8000488281</ele>
        <time>2022-07-21T07:28:14.000Z</time>
      </trkpt>
      <trkpt lat="44.0949" lon="6.97829">
        <ele>1466.4000244141</ele>
        <time>2022-07-21T07:28:17.000Z</time>
      </trkpt>
      <trkpt lat="44.09488" lon="6.97824">
        <ele>1467</ele>
        <time>2022-07-21T07:28:19.000Z</time>
      </trkpt>
      <trkpt lat="44.09482" lon="6.97809">
        <ele>1468</ele>
        <time>2022-07-21T07:28:24.000Z</time>
      </trkpt>
      <trkpt lat="44.09473" lon="6.97787">
        <ele>1469</ele>
        <time>2022-07-21T07:28:32.000Z</time>
      </trkpt>
      <trkpt lat="44.09472" lon="6.97784">
        <ele>1469</ele>
        <time>2022-07-21T07:28:33.000Z</time>
      </trkpt>
      <trkpt lat="44.09462" lon="6.97763">
        <ele>1469.1999511719</ele>
        <time>2022-07-21T07:28:40.000Z</time>
      </trkpt>
      <trkpt lat="44.09453" lon="6.97743">
        <ele>1469.1999511719</ele>
        <time>2022-07-21T07:28:47.000Z</time>
      </trkpt>
      <trkpt lat="44.09444" lon="6.97724">
        <ele>1469.4000244141</ele>
        <time>2022-07-21T07:28:53.000Z</time>
      </trkpt>
      <trkpt lat="44.09433" lon="6.97701">
        <ele>1469.5999755859</ele>
        <time>2022-07-21T07:29:00.000Z</time>
      </trkpt>
      <trkpt lat="44.09428" lon="6.9769">
        <ele>1470.1999511719</ele>
        <time>2022-07-21T07:29:04.000Z</time>
      </trkpt>
      <trkpt lat="44.09423" lon="6.97677">
        <ele>1471</ele>
        <time>2022-07-21T07:29:08.000Z</time>
      </trkpt>
      <trkpt lat="44.09421" lon="6.97669">
        <ele>1471.4000244141</ele>
        <time>2022-07-21T07:29:11.000Z</time>
      </trkpt>
      <trkpt lat="44.09418" lon="6.97659">
        <ele>1471.8000488281</ele>
        <time>2022-07-21T07:29:15.000Z</time>
      </trkpt>
      <trkpt lat="44.09415" lon="6.97652">
        <ele>1472.4000244141</ele>
        <time>2022-07-21T07:29:18.000Z</time>
      </trkpt>
      <trkpt lat="44.09413" lon="6.97644">
        <ele>1473</ele>
        <time>2022-07-21T07:29:21.000Z</time>
      </trkpt>
      <trkpt lat="44.09411" lon="6.97639">
        <ele>1473.5999755859</ele>
        <time>2022-07-21T07:29:23.000Z</time>
      </trkpt>
      <trkpt lat="44.09407" lon="6.97632">
        <ele>1474.5999755859</ele>
        <time>2022-07-21T07:29:26.000Z</time>
      </trkpt>
      <trkpt lat="44.09404" lon="6.97624">
        <ele>1475.5999755859</ele>
        <time>2022-07-21T07:29:29.000Z</time>
      </trkpt>
      <trkpt lat="44.09403" lon="6.97621">
        <ele>1475.8000488281</ele>
        <time>2022-07-21T07:29:30.000Z</time>
      </trkpt>
      <trkpt lat="44.09398" lon="6.9761">
        <ele>1477</ele>
        <time>2022-07-21T07:29:35.000Z</time>
      </trkpt>
      <trkpt lat="44.09396" lon="6.97605">
        <ele>1477.5999755859</ele>
        <time>2022-07-21T07:29:37.000Z</time>
      </trkpt>
      <trkpt lat="44.09393" lon="6.97601">
        <ele>1478.1999511719</ele>
        <time>2022-07-21T07:29:39.000Z</time>
      </trkpt>
      <trkpt lat="44.0939" lon="6.97591">
        <ele>1479.4000244141</ele>
        <time>2022-07-21T07:29:43.000Z</time>
      </trkpt>
      <trkpt lat="44.0939" lon="6.97588">
        <ele>1479.5999755859</ele>
        <time>2022-07-21T07:29:44.000Z</time>
      </trkpt>
      <trkpt lat="44.09388" lon="6.9758">
        <ele>1480.5999755859</ele>
        <time>2022-07-21T07:29:47.000Z</time>
      </trkpt>
      <trkpt lat="44.09386" lon="6.97572">
        <ele>1481.8000488281</ele>
        <time>2022-07-21T07:29:50.000Z</time>
      </trkpt>
      <trkpt lat="44.09383" lon="6.97562">
        <ele>1483.1999511719</ele>
        <time>2022-07-21T07:29:54.000Z</time>
      </trkpt>
      <trkpt lat="44.0938" lon="6.97552">
        <ele>1484.5999755859</ele>
        <time>2022-07-21T07:29:58.000Z</time>
      </trkpt>
      <trkpt lat="44.09378" lon="6.97545">
        <ele>1486</ele>
        <time>2022-07-21T07:30:01.000Z</time>
      </trkpt>
      <trkpt lat="44.09377" lon="6.97543">
        <ele>1486.4000244141</ele>
        <time>2022-07-21T07:30:02.000Z</time>
      </trkpt>
      <trkpt lat="44.09376" lon="6.9754">
        <ele>1487</ele>
        <time>2022-07-21T07:30:03.000Z</time>
      </trkpt>
      <trkpt lat="44.09376" lon="6.97538">
        <ele>1487.4000244141</ele>
        <time>2022-07-21T07:30:04.000Z</time>
      </trkpt>
      <trkpt lat="44.09374" lon="6.97533">
        <ele>1488.4000244141</ele>
        <time>2022-07-21T07:30:06.000Z</time>
      </trkpt>
      <trkpt lat="44.09372" lon="6.97527">
        <ele>1489.5999755859</ele>
        <time>2022-07-21T07:30:09.000Z</time>
      </trkpt>
      <trkpt lat="44.09369" lon="6.97522">
        <ele>1490</ele>
        <time>2022-07-21T07:30:11.000Z</time>
      </trkpt>
      <trkpt lat="44.09366" lon="6.97516">
        <ele>1490.8000488281</ele>
        <time>2022-07-21T07:30:14.000Z</time>
      </trkpt>
      <trkpt lat="44.0936" lon="6.97509">
        <ele>1491.5999755859</ele>
        <time>2022-07-21T07:30:18.000Z</time>
      </trkpt>
      <trkpt lat="44.09359" lon="6.97508">
        <ele>1492</ele>
        <time>2022-07-21T07:30:19.000Z</time>
      </trkpt>
      <trkpt lat="44.09351" lon="6.97502">
        <ele>1493</ele>
        <time>2022-07-21T07:30:25.000Z</time>
      </trkpt>
      <trkpt lat="44.0934" lon="6.97498">
        <ele>1494.4000244141</ele>
        <time>2022-07-21T07:30:31.000Z</time>
      </trkpt>
      <trkpt lat="44.09338" lon="6.97498">
        <ele>1494.8000488281</ele>
        <time>2022-07-21T07:30:32.000Z</time>
      </trkpt>
      <trkpt lat="44.09334" lon="6.97497">
        <ele>1495.5999755859</ele>
        <time>2022-07-21T07:30:34.000Z</time>
      </trkpt>
      <trkpt lat="44.09329" lon="6.97495">
        <ele>1497</ele>
        <time>2022-07-21T07:30:37.000Z</time>
      </trkpt>
      <trkpt lat="44.09325" lon="6.97492">
        <ele>1497.5999755859</ele>
        <time>2022-07-21T07:30:39.000Z</time>
      </trkpt>
      <trkpt lat="44.09324" lon="6.97492">
        <ele>1498</ele>
        <time>2022-07-21T07:30:40.000Z</time>
      </trkpt>
      <trkpt lat="44.09319" lon="6.97489">
        <ele>1499.1999511719</ele>
        <time>2022-07-21T07:30:43.000Z</time>
      </trkpt>
      <trkpt lat="44.09315" lon="6.97486">
        <ele>1499.8000488281</ele>
        <time>2022-07-21T07:30:46.000Z</time>
      </trkpt>
      <trkpt lat="44.09309" lon="6.97481">
        <ele>1500.4000244141</ele>
        <time>2022-07-21T07:30:50.000Z</time>
      </trkpt>
      <trkpt lat="44.09302" lon="6.97473">
        <ele>1501.4000244141</ele>
        <time>2022-07-21T07:30:54.000Z</time>
      </trkpt>
      <trkpt lat="44.09299" lon="6.97467">
        <ele>1502.5999755859</ele>
        <time>2022-07-21T07:30:57.000Z</time>
      </trkpt>
      <trkpt lat="44.09294" lon="6.97461">
        <ele>1503.1999511719</ele>
        <time>2022-07-21T07:31:00.000Z</time>
      </trkpt>
      <trkpt lat="44.0929" lon="6.97449">
        <ele>1503.5999755859</ele>
        <time>2022-07-21T07:31:05.000Z</time>
      </trkpt>
      <trkpt lat="44.09288" lon="6.97444">
        <ele>1503.8000488281</ele>
        <time>2022-07-21T07:31:07.000Z</time>
      </trkpt>
      <trkpt lat="44.09276" lon="6.97423">
        <ele>1504.5999755859</ele>
        <time>2022-07-21T07:31:15.000Z</time>
      </trkpt>
      <trkpt lat="44.09274" lon="6.9742">
        <ele>1504.5999755859</ele>
        <time>2022-07-21T07:31:16.000Z</time>
      </trkpt>
      <trkpt lat="44.09265" lon="6.97403">
        <ele>1505.1999511719</ele>
        <time>2022-07-21T07:31:22.000Z</time>
      </trkpt>
      <trkpt lat="44.09259" lon="6.97392">
        <ele>1505.8000488281</ele>
        <time>2022-07-21T07:31:26.000Z</time>
      </trkpt>
      <trkpt lat="44.09253" lon="6.97386">
        <ele>1506.5999755859</ele>
        <time>2022-07-21T07:31:29.000Z</time>
      </trkpt>
      <trkpt lat="44.09251" lon="6.97384">
        <ele>1507</ele>
        <time>2022-07-21T07:31:30.000Z</time>
      </trkpt>
      <trkpt lat="44.09242" lon="6.97371">
        <ele>1508</ele>
        <time>2022-07-21T07:31:35.000Z</time>
      </trkpt>
      <trkpt lat="44.09239" lon="6.97368">
        <ele>1508.1999511719</ele>
        <time>2022-07-21T07:31:36.000Z</time>
      </trkpt>
      <trkpt lat="44.09233" lon="6.97359">
        <ele>1509.4000244141</ele>
        <time>2022-07-21T07:31:40.000Z</time>
      </trkpt>
      <trkpt lat="44.0923" lon="6.97353">
        <ele>1510</ele>
        <time>2022-07-21T07:31:42.000Z</time>
      </trkpt>
      <trkpt lat="44.09228" lon="6.9735">
        <ele>1510.4000244141</ele>
        <time>2022-07-21T07:31:43.000Z</time>
      </trkpt>
      <trkpt lat="44.09224" lon="6.97344">
        <ele>1511.5999755859</ele>
        <time>2022-07-21T07:31:45.000Z</time>
      </trkpt>
      <trkpt lat="44.09221" lon="6.97339">
        <ele>1512.5999755859</ele>
        <time>2022-07-21T07:31:47.000Z</time>
      </trkpt>
      <trkpt lat="44.09219" lon="6.97335">
        <ele>1513</ele>
        <time>2022-07-21T07:31:48.000Z</time>
      </trkpt>
      <trkpt lat="44.09218" lon="6.97325">
        <ele>1514.8000488281</ele>
        <time>2022-07-21T07:31:51.000Z</time>
      </trkpt>
      <trkpt lat="44.09217" lon="6.97323">
        <ele>1516</ele>
        <time>2022-07-21T07:31:53.000Z</time>
      </trkpt>
      <trkpt lat="44.09216" lon="6.97322">
        <ele>1516.4000244141</ele>
        <time>2022-07-21T07:31:54.000Z</time>
      </trkpt>
      <trkpt lat="44.09216" lon="6.97321">
        <ele>1517</ele>
        <time>2022-07-21T07:31:56.000Z</time>
      </trkpt>
      <trkpt lat="44.09216" lon="6.97322">
        <ele>1517.5999755859</ele>
        <time>2022-07-21T07:31:58.000Z</time>
      </trkpt>
      <trkpt lat="44.09216" lon="6.9732">
        <ele>1517.8000488281</ele>
        <time>2022-07-21T07:32:00.000Z</time>
      </trkpt>
      <trkpt lat="44.09216" lon="6.97317">
        <ele>1518</ele>
        <time>2022-07-21T07:32:02.000Z</time>
      </trkpt>
      <trkpt lat="44.09214" lon="6.97316">
        <ele>1518</ele>
        <time>2022-07-21T07:32:03.000Z</time>
      </trkpt>
      <trkpt lat="44.09212" lon="6.97313">
        <ele>1518.5999755859</ele>
        <time>2022-07-21T07:32:06.000Z</time>
      </trkpt>
      <trkpt lat="44.0921" lon="6.9731">
        <ele>1519.1999511719</ele>
        <time>2022-07-21T07:32:08.000Z</time>
      </trkpt>
      <trkpt lat="44.09207" lon="6.97303">
        <ele>1519.5999755859</ele>
        <time>2022-07-21T07:32:11.000Z</time>
      </trkpt>
      <trkpt lat="44.09202" lon="6.97298">
        <ele>1520.4000244141</ele>
        <time>2022-07-21T07:32:14.000Z</time>
      </trkpt>
      <trkpt lat="44.09198" lon="6.97295">
        <ele>1521.4000244141</ele>
        <time>2022-07-21T07:32:16.000Z</time>
      </trkpt>
      <trkpt lat="44.09195" lon="6.97292">
        <ele>1522</ele>
        <time>2022-07-21T07:32:18.000Z</time>
      </trkpt>
      <trkpt lat="44.09193" lon="6.9729">
        <ele>1522.5999755859</ele>
        <time>2022-07-21T07:32:19.000Z</time>
      </trkpt>
      <trkpt lat="44.09185" lon="6.97286">
        <ele>1523.8000488281</ele>
        <time>2022-07-21T07:32:23.000Z</time>
      </trkpt>
      <trkpt lat="44.09179" lon="6.97281">
        <ele>1524.8000488281</ele>
        <time>2022-07-21T07:32:26.000Z</time>
      </trkpt>
      <trkpt lat="44.09174" lon="6.97276">
        <ele>1526.1999511719</ele>
        <time>2022-07-21T07:32:29.000Z</time>
      </trkpt>
      <trkpt lat="44.09169" lon="6.97267">
        <ele>1527.5999755859</ele>
        <time>2022-07-21T07:32:33.000Z</time>
      </trkpt>
      <trkpt lat="44.09165" lon="6.9726">
        <ele>1528.8000488281</ele>
        <time>2022-07-21T07:32:36.000Z</time>
      </trkpt>
      <trkpt lat="44.0916" lon="6.97253">
        <ele>1529.8000488281</ele>
        <time>2022-07-21T07:32:39.000Z</time>
      </trkpt>
      <trkpt lat="44.09158" lon="6.97247">
        <ele>1531</ele>
        <time>2022-07-21T07:32:41.000Z</time>
      </trkpt>
      <trkpt lat="44.09156" lon="6.9724">
        <ele>1532.1999511719</ele>
        <time>2022-07-21T07:32:43.000Z</time>
      </trkpt>
      <trkpt lat="44.09156" lon="6.97234">
        <ele>1533.4000244141</ele>
        <time>2022-07-21T07:32:45.000Z</time>
      </trkpt>
      <trkpt lat="44.09155" lon="6.97231">
        <ele>1534</ele>
        <time>2022-07-21T07:32:46.000Z</time>
      </trkpt>
      <trkpt lat="44.09153" lon="6.97229">
        <ele>1534.5999755859</ele>
        <time>2022-07-21T07:32:47.000Z</time>
      </trkpt>
      <trkpt lat="44.0915" lon="6.97224">
        <ele>1535.8000488281</ele>
        <time>2022-07-21T07:32:49.000Z</time>
      </trkpt>
      <trkpt lat="44.09146" lon="6.97217">
        <ele>1537.4000244141</ele>
        <time>2022-07-21T07:32:52.000Z</time>
      </trkpt>
      <trkpt lat="44.09144" lon="6.97215">
        <ele>1537.8000488281</ele>
        <time>2022-07-21T07:32:53.000Z</time>
      </trkpt>
      <trkpt lat="44.09141" lon="6.9721">
        <ele>1538.8000488281</ele>
        <time>2022-07-21T07:32:55.000Z</time>
      </trkpt>
      <trkpt lat="44.09138" lon="6.97205">
        <ele>1540</ele>
        <time>2022-07-21T07:32:57.000Z</time>
      </trkpt>
      <trkpt lat="44.09136" lon="6.972">
        <ele>1541</ele>
        <time>2022-07-21T07:32:59.000Z</time>
      </trkpt>
      <trkpt lat="44.09135" lon="6.97197">
        <ele>1541.5999755859</ele>
        <time>2022-07-21T07:33:00.000Z</time>
      </trkpt>
      <trkpt lat="44.09133" lon="6.97194">
        <ele>1542.1999511719</ele>
        <time>2022-07-21T07:33:01.000Z</time>
      </trkpt>
      <trkpt lat="44.09131" lon="6.97189">
        <ele>1543.1999511719</ele>
        <time>2022-07-21T07:33:03.000Z</time>
      </trkpt>
      <trkpt lat="44.09126" lon="6.97181">
        <ele>1544.5999755859</ele>
        <time>2022-07-21T07:33:06.000Z</time>
      </trkpt>
      <trkpt lat="44.09124" lon="6.97176">
        <ele>1545.5999755859</ele>
        <time>2022-07-21T07:33:08.000Z</time>
      </trkpt>
      <trkpt lat="44.09121" lon="6.97171">
        <ele>1546.8000488281</ele>
        <time>2022-07-21T07:33:10.000Z</time>
      </trkpt>
      <trkpt lat="44.09119" lon="6.97166">
        <ele>1547.8000488281</ele>
        <time>2022-07-21T07:33:12.000Z</time>
      </trkpt>
      <trkpt lat="44.09117" lon="6.97161">
        <ele>1549</ele>
        <time>2022-07-21T07:33:14.000Z</time>
      </trkpt>
      <trkpt lat="44.09117" lon="6.97156">
        <ele>1550.1999511719</ele>
        <time>2022-07-21T07:33:16.000Z</time>
      </trkpt>
      <trkpt lat="44.09116" lon="6.97153">
        <ele>1551.1999511719</ele>
        <time>2022-07-21T07:33:18.000Z</time>
      </trkpt>
      <trkpt lat="44.09115" lon="6.97151">
        <ele>1551.5999755859</ele>
        <time>2022-07-21T07:33:19.000Z</time>
      </trkpt>
      <trkpt lat="44.0911" lon="6.97137">
        <ele>1552.4000244141</ele>
        <time>2022-07-21T07:33:27.000Z</time>
      </trkpt>
      <trkpt lat="44.09107" lon="6.9713">
        <ele>1552.5999755859</ele>
        <time>2022-07-21T07:33:31.000Z</time>
      </trkpt>
      <trkpt lat="44.09106" lon="6.97126">
        <ele>1552.8000488281</ele>
        <time>2022-07-21T07:33:33.000Z</time>
      </trkpt>
      <trkpt lat="44.09107" lon="6.97125">
        <ele>1552.8000488281</ele>
        <time>2022-07-21T07:33:34.000Z</time>
      </trkpt>
      <trkpt lat="44.09111" lon="6.97129">
        <ele>1553</ele>
        <time>2022-07-21T07:33:37.000Z</time>
      </trkpt>
      <trkpt lat="44.09113" lon="6.97136">
        <ele>1552.8000488281</ele>
        <time>2022-07-21T07:33:39.000Z</time>
      </trkpt>
      <trkpt lat="44.09118" lon="6.97148">
        <ele>1552.1999511719</ele>
        <time>2022-07-21T07:33:42.000Z</time>
      </trkpt>
      <trkpt lat="44.09124" lon="6.97157">
        <ele>1551.4000244141</ele>
        <time>2022-07-21T07:33:44.000Z</time>
      </trkpt>
      <trkpt lat="44.09134" lon="6.97171">
        <ele>1550.4000244141</ele>
        <time>2022-07-21T07:33:47.000Z</time>
      </trkpt>
      <trkpt lat="44.09137" lon="6.97175">
        <ele>1550</ele>
        <time>2022-07-21T07:33:48.000Z</time>
      </trkpt>
      <trkpt lat="44.09144" lon="6.97182">
        <ele>1549.1999511719</ele>
        <time>2022-07-21T07:33:50.000Z</time>
      </trkpt>
      <trkpt lat="44.09156" lon="6.97195">
        <ele>1548</ele>
        <time>2022-07-21T07:33:53.000Z</time>
      </trkpt>
      <trkpt lat="44.0916" lon="6.97201">
        <ele>1547.5999755859</ele>
        <time>2022-07-21T07:33:54.000Z</time>
      </trkpt>
      <trkpt lat="44.09168" lon="6.97211">
        <ele>1547</ele>
        <time>2022-07-21T07:33:56.000Z</time>
      </trkpt>
      <trkpt lat="44.09186" lon="6.97233">
        <ele>1545.8000488281</ele>
        <time>2022-07-21T07:34:00.000Z</time>
      </trkpt>
      <trkpt lat="44.09192" lon="6.97239">
        <ele>1545.4000244141</ele>
        <time>2022-07-21T07:34:01.000Z</time>
      </trkpt>
      <trkpt lat="44.09198" lon="6.97244">
        <ele>1544.8000488281</ele>
        <time>2022-07-21T07:34:02.000Z</time>
      </trkpt>
      <trkpt lat="44.09204" lon="6.97249">
        <ele>1544.5999755859</ele>
        <time>2022-07-21T07:34:03.000Z</time>
      </trkpt>
      <trkpt lat="44.09218" lon="6.97257">
        <ele>1543.5999755859</ele>
        <time>2022-07-21T07:34:05.000Z</time>
      </trkpt>
      <trkpt lat="44.09231" lon="6.97263">
        <ele>1542.4000244141</ele>
        <time>2022-07-21T07:34:07.000Z</time>
      </trkpt>
      <trkpt lat="44.0924" lon="6.97267">
        <ele>1541.1999511719</ele>
        <time>2022-07-21T07:34:09.000Z</time>
      </trkpt>
      <trkpt lat="44.0925" lon="6.97272">
        <ele>1540.1999511719</ele>
        <time>2022-07-21T07:34:12.000Z</time>
      </trkpt>
      <trkpt lat="44.09252" lon="6.97272">
        <ele>1540</ele>
        <time>2022-07-21T07:34:13.000Z</time>
      </trkpt>
      <trkpt lat="44.09254" lon="6.97271">
        <ele>1539.8000488281</ele>
        <time>2022-07-21T07:34:14.000Z</time>
      </trkpt>
      <trkpt lat="44.09261" lon="6.9727">
        <ele>1539.5999755859</ele>
        <time>2022-07-21T07:34:17.000Z</time>
      </trkpt>
      <trkpt lat="44.09262" lon="6.9727">
        <ele>1539.4000244141</ele>
        <time>2022-07-21T07:34:18.000Z</time>
      </trkpt>
      <trkpt lat="44.09263" lon="6.9727">
        <ele>1539.5999755859</ele>
        <time>2022-07-21T07:34:20.000Z</time>
      </trkpt>
      <trkpt lat="44.09263" lon="6.9727">
        <ele>1540.5999755859</ele>
        <time>2022-07-21T07:34:25.000Z</time>
      </trkpt>
      <trkpt lat="44.09266" lon="6.97271">
        <ele>1541.1999511719</ele>
        <time>2022-07-21T07:34:28.000Z</time>
      </trkpt>
      <trkpt lat="44.09271" lon="6.97272">
        <ele>1542.1999511719</ele>
        <time>2022-07-21T07:34:33.000Z</time>
      </trkpt>
      <trkpt lat="44.09273" lon="6.97272">
        <ele>1543.4000244141</ele>
        <time>2022-07-21T07:34:38.000Z</time>
      </trkpt>
      <trkpt lat="44.09275" lon="6.97274">
        <ele>1543.4000244141</ele>
        <time>2022-07-21T07:34:39.000Z</time>
      </trkpt>
      <trkpt lat="44.09286" lon="6.97279">
        <ele>1544</ele>
        <time>2022-07-21T07:34:44.000Z</time>
      </trkpt>
      <trkpt lat="44.09302" lon="6.97287">
        <ele>1544.4000244141</ele>
        <time>2022-07-21T07:34:49.000Z</time>
      </trkpt>
      <trkpt lat="44.09313" lon="6.97293">
        <ele>1545.5999755859</ele>
        <time>2022-07-21T07:34:53.000Z</time>
      </trkpt>
      <trkpt lat="44.09315" lon="6.97293">
        <ele>1546</ele>
        <time>2022-07-21T07:34:54.000Z</time>
      </trkpt>
      <trkpt lat="44.0932" lon="6.97293">
        <ele>1546.8000488281</ele>
        <time>2022-07-21T07:34:56.000Z</time>
      </trkpt>
      <trkpt lat="44.09324" lon="6.97296">
        <ele>1547.4000244141</ele>
        <time>2022-07-21T07:34:58.000Z</time>
      </trkpt>
      <trkpt lat="44.09326" lon="6.97298">
        <ele>1547.8000488281</ele>
        <time>2022-07-21T07:34:59.000Z</time>
      </trkpt>
      <trkpt lat="44.09331" lon="6.973">
        <ele>1549.1999511719</ele>
        <time>2022-07-21T07:35:01.000Z</time>
      </trkpt>
      <trkpt lat="44.09334" lon="6.97305">
        <ele>1550.4000244141</ele>
        <time>2022-07-21T07:35:03.000Z</time>
      </trkpt>
      <trkpt lat="44.09335" lon="6.97307">
        <ele>1550.5999755859</ele>
        <time>2022-07-21T07:35:04.000Z</time>
      </trkpt>
      <trkpt lat="44.09345" lon="6.97317">
        <ele>1550.5999755859</ele>
        <time>2022-07-21T07:35:09.000Z</time>
      </trkpt>
      <trkpt lat="44.09359" lon="6.97325">
        <ele>1550</ele>
        <time>2022-07-21T07:35:14.000Z</time>
      </trkpt>
      <trkpt lat="44.09365" lon="6.97331">
        <ele>1549.4000244141</ele>
        <time>2022-07-21T07:35:17.000Z</time>
      </trkpt>
      <trkpt lat="44.09369" lon="6.97331">
        <ele>1549</ele>
        <time>2022-07-21T07:35:18.000Z</time>
      </trkpt>
      <trkpt lat="44.09379" lon="6.97335">
        <ele>1548.5999755859</ele>
        <time>2022-07-21T07:35:22.000Z</time>
      </trkpt>
      <trkpt lat="44.09385" lon="6.97334">
        <ele>1548</ele>
        <time>2022-07-21T07:35:24.000Z</time>
      </trkpt>
      <trkpt lat="44.09392" lon="6.9733">
        <ele>1547.5999755859</ele>
        <time>2022-07-21T07:35:26.000Z</time>
      </trkpt>
      <trkpt lat="44.09405" lon="6.97322">
        <ele>1547.1999511719</ele>
        <time>2022-07-21T07:35:30.000Z</time>
      </trkpt>
      <trkpt lat="44.09422" lon="6.97318">
        <ele>1547.4000244141</ele>
        <time>2022-07-21T07:35:35.000Z</time>
      </trkpt>
      <trkpt lat="44.09439" lon="6.97316">
        <ele>1547.1999511719</ele>
        <time>2022-07-21T07:35:39.000Z</time>
      </trkpt>
      <trkpt lat="44.09442" lon="6.97314">
        <ele>1547</ele>
        <time>2022-07-21T07:35:40.000Z</time>
      </trkpt>
      <trkpt lat="44.09451" lon="6.97302">
        <ele>1546.1999511719</ele>
        <time>2022-07-21T07:35:43.000Z</time>
      </trkpt>
      <trkpt lat="44.09454" lon="6.97297">
        <ele>1546</ele>
        <time>2022-07-21T07:35:44.000Z</time>
      </trkpt>
      <trkpt lat="44.09458" lon="6.97293">
        <ele>1546</ele>
        <time>2022-07-21T07:35:45.000Z</time>
      </trkpt>
      <trkpt lat="44.09466" lon="6.97285">
        <ele>1545.5999755859</ele>
        <time>2022-07-21T07:35:47.000Z</time>
      </trkpt>
      <trkpt lat="44.09471" lon="6.97282">
        <ele>1545.4000244141</ele>
        <time>2022-07-21T07:35:48.000Z</time>
      </trkpt>
      <trkpt lat="44.09488" lon="6.97273">
        <ele>1544.8000488281</ele>
        <time>2022-07-21T07:35:52.000Z</time>
      </trkpt>
      <trkpt lat="44.09499" lon="6.97264">
        <ele>1545.8000488281</ele>
        <time>2022-07-21T07:35:56.000Z</time>
      </trkpt>
      <trkpt lat="44.09504" lon="6.97264">
        <ele>1546.8000488281</ele>
        <time>2022-07-21T07:35:58.000Z</time>
      </trkpt>
      <trkpt lat="44.09508" lon="6.97269">
        <ele>1547.5999755859</ele>
        <time>2022-07-21T07:36:00.000Z</time>
      </trkpt>
      <trkpt lat="44.09509" lon="6.97273">
        <ele>1548</ele>
        <time>2022-07-21T07:36:01.000Z</time>
      </trkpt>
      <trkpt lat="44.09509" lon="6.97275">
        <ele>1548.4000244141</ele>
        <time>2022-07-21T07:36:02.000Z</time>
      </trkpt>
      <trkpt lat="44.0951" lon="6.97275">
        <ele>1548.8000488281</ele>
        <time>2022-07-21T07:36:03.000Z</time>
      </trkpt>
      <trkpt lat="44.09511" lon="6.97275">
        <ele>1549.1999511719</ele>
        <time>2022-07-21T07:36:04.000Z</time>
      </trkpt>
      <trkpt lat="44.09512" lon="6.97273">
        <ele>1549.4000244141</ele>
        <time>2022-07-21T07:36:05.000Z</time>
      </trkpt>
      <trkpt lat="44.09514" lon="6.97271">
        <ele>1550.1999511719</ele>
        <time>2022-07-21T07:36:08.000Z</time>
      </trkpt>
      <trkpt lat="44.09515" lon="6.9727">
        <ele>1551.4000244141</ele>
        <time>2022-07-21T07:36:12.000Z</time>
      </trkpt>
      <trkpt lat="44.09516" lon="6.97268">
        <ele>1551.4000244141</ele>
        <time>2022-07-21T07:36:14.000Z</time>
      </trkpt>
      <trkpt lat="44.09517" lon="6.97262">
        <ele>1552.5999755859</ele>
        <time>2022-07-21T07:36:20.000Z</time>
      </trkpt>
      <trkpt lat="44.09518" lon="6.97259">
        <ele>1553.1999511719</ele>
        <time>2022-07-21T07:36:22.000Z</time>
      </trkpt>
      <trkpt lat="44.09519" lon="6.97256">
        <ele>1553.8000488281</ele>
        <time>2022-07-21T07:36:26.000Z</time>
      </trkpt>
      <trkpt lat="44.09519" lon="6.97256">
        <ele>1554.4000244141</ele>
        <time>2022-07-21T07:36:28.000Z</time>
      </trkpt>
      <trkpt lat="44.09519" lon="6.97256">
        <ele>1554.8000488281</ele>
        <time>2022-07-21T07:36:32.000Z</time>
      </trkpt>
      <trkpt lat="44.09519" lon="6.97253">
        <ele>1554.5999755859</ele>
        <time>2022-07-21T07:36:36.000Z</time>
      </trkpt>
      <trkpt lat="44.09519" lon="6.97251">
        <ele>1554.8000488281</ele>
        <time>2022-07-21T07:36:41.000Z</time>
      </trkpt>
      <trkpt lat="44.09522" lon="6.97234">
        <ele>1555.5999755859</ele>
        <time>2022-07-21T07:36:46.000Z</time>
      </trkpt>
      <trkpt lat="44.09522" lon="6.97231">
        <ele>1555.8000488281</ele>
        <time>2022-07-21T07:36:47.000Z</time>
      </trkpt>
      <trkpt lat="44.09521" lon="6.97222">
        <ele>1557</ele>
        <time>2022-07-21T07:36:50.000Z</time>
      </trkpt>
      <trkpt lat="44.09521" lon="6.97215">
        <ele>1558</ele>
        <time>2022-07-21T07:36:52.000Z</time>
      </trkpt>
      <trkpt lat="44.0952" lon="6.97213">
        <ele>1558.4000244141</ele>
        <time>2022-07-21T07:36:53.000Z</time>
      </trkpt>
      <trkpt lat="44.0952" lon="6.97209">
        <ele>1558.8000488281</ele>
        <time>2022-07-21T07:36:54.000Z</time>
      </trkpt>
      <trkpt lat="44.0952" lon="6.97206">
        <ele>1559.5999755859</ele>
        <time>2022-07-21T07:36:56.000Z</time>
      </trkpt>
      <trkpt lat="44.09521" lon="6.972">
        <ele>1561</ele>
        <time>2022-07-21T07:36:59.000Z</time>
      </trkpt>
      <trkpt lat="44.09521" lon="6.97194">
        <ele>1562</ele>
        <time>2022-07-21T07:37:01.000Z</time>
      </trkpt>
      <trkpt lat="44.09522" lon="6.97191">
        <ele>1562.1999511719</ele>
        <time>2022-07-21T07:37:02.000Z</time>
      </trkpt>
      <trkpt lat="44.09522" lon="6.97186">
        <ele>1563.4000244141</ele>
        <time>2022-07-21T07:37:05.000Z</time>
      </trkpt>
      <trkpt lat="44.09524" lon="6.97185">
        <ele>1563.8000488281</ele>
        <time>2022-07-21T07:37:06.000Z</time>
      </trkpt>
      <trkpt lat="44.09526" lon="6.97189">
        <ele>1564.8000488281</ele>
        <time>2022-07-21T07:37:08.000Z</time>
      </trkpt>
      <trkpt lat="44.09526" lon="6.97191">
        <ele>1565.1999511719</ele>
        <time>2022-07-21T07:37:09.000Z</time>
      </trkpt>
      <trkpt lat="44.09527" lon="6.97196">
        <ele>1565.8000488281</ele>
        <time>2022-07-21T07:37:11.000Z</time>
      </trkpt>
      <trkpt lat="44.0953" lon="6.97201">
        <ele>1566.1999511719</ele>
        <time>2022-07-21T07:37:13.000Z</time>
      </trkpt>
      <trkpt lat="44.09531" lon="6.97203">
        <ele>1566.4000244141</ele>
        <time>2022-07-21T07:37:14.000Z</time>
      </trkpt>
      <trkpt lat="44.09532" lon="6.97206">
        <ele>1566.8000488281</ele>
        <time>2022-07-21T07:37:16.000Z</time>
      </trkpt>
      <trkpt lat="44.09533" lon="6.97205">
        <ele>1567.4000244141</ele>
        <time>2022-07-21T07:37:18.000Z</time>
      </trkpt>
      <trkpt lat="44.09533" lon="6.97202">
        <ele>1568</ele>
        <time>2022-07-21T07:37:19.000Z</time>
      </trkpt>
      <trkpt lat="44.09535" lon="6.97196">
        <ele>1568.5999755859</ele>
        <time>2022-07-21T07:37:22.000Z</time>
      </trkpt>
      <trkpt lat="44.09535" lon="6.97196">
        <ele>1569</ele>
        <time>2022-07-21T07:37:24.000Z</time>
      </trkpt>
      <trkpt lat="44.09535" lon="6.97196">
        <ele>1570</ele>
        <time>2022-07-21T07:37:28.000Z</time>
      </trkpt>
      <trkpt lat="44.09536" lon="6.9719">
        <ele>1570.4000244141</ele>
        <time>2022-07-21T07:37:33.000Z</time>
      </trkpt>
      <trkpt lat="44.09537" lon="6.97185">
        <ele>1570.4000244141</ele>
        <time>2022-07-21T07:37:35.000Z</time>
      </trkpt>
      <trkpt lat="44.0954" lon="6.97185">
        <ele>1571</ele>
        <time>2022-07-21T07:37:37.000Z</time>
      </trkpt>
      <trkpt lat="44.0954" lon="6.97184">
        <ele>1571.4000244141</ele>
        <time>2022-07-21T07:37:38.000Z</time>
      </trkpt>
      <trkpt lat="44.0954" lon="6.97186">
        <ele>1572.4000244141</ele>
        <time>2022-07-21T07:37:41.000Z</time>
      </trkpt>
      <trkpt lat="44.0954" lon="6.97186">
        <ele>1572.4000244141</ele>
        <time>2022-07-21T07:37:42.000Z</time>
      </trkpt>
      <trkpt lat="44.09542" lon="6.97194">
        <ele>1572.8000488281</ele>
        <time>2022-07-21T07:37:47.000Z</time>
      </trkpt>
      <trkpt lat="44.09545" lon="6.97202">
        <ele>1573.5999755859</ele>
        <time>2022-07-21T07:37:50.000Z</time>
      </trkpt>
      <trkpt lat="44.09545" lon="6.97202">
        <ele>1574.4000244141</ele>
        <time>2022-07-21T07:37:52.000Z</time>
      </trkpt>
      <trkpt lat="44.09546" lon="6.97202">
        <ele>1574.5999755859</ele>
        <time>2022-07-21T07:37:53.000Z</time>
      </trkpt>
      <trkpt lat="44.09546" lon="6.97201">
        <ele>1575.1999511719</ele>
        <time>2022-07-21T07:37:58.000Z</time>
      </trkpt>
      <trkpt lat="44.09546" lon="6.97197">
        <ele>1575.4000244141</ele>
        <time>2022-07-21T07:38:05.000Z</time>
      </trkpt>
      <trkpt lat="44.09546" lon="6.97195">
        <ele>1575.8000488281</ele>
        <time>2022-07-21T07:38:08.000Z</time>
      </trkpt>
      <trkpt lat="44.09547" lon="6.97192">
        <ele>1575.8000488281</ele>
        <time>2022-07-21T07:38:11.000Z</time>
      </trkpt>
      <trkpt lat="44.09547" lon="6.97192">
        <ele>1576.5999755859</ele>
        <time>2022-07-21T07:38:18.000Z</time>
      </trkpt>
      <trkpt lat="44.09548" lon="6.97187">
        <ele>1576.5999755859</ele>
        <time>2022-07-21T07:38:27.000Z</time>
      </trkpt>
      <trkpt lat="44.09548" lon="6.97186">
        <ele>1576.8000488281</ele>
        <time>2022-07-21T07:38:29.000Z</time>
      </trkpt>
      <trkpt lat="44.09548" lon="6.97186">
        <ele>1577.1999511719</ele>
        <time>2022-07-21T07:38:32.000Z</time>
      </trkpt>
      <trkpt lat="44.09549" lon="6.97182">
        <ele>1577.4000244141</ele>
        <time>2022-07-21T07:38:37.000Z</time>
      </trkpt>
      <trkpt lat="44.09551" lon="6.9717">
        <ele>1578</ele>
        <time>2022-07-21T07:38:41.000Z</time>
      </trkpt>
      <trkpt lat="44.09555" lon="6.97161">
        <ele>1579.4000244141</ele>
        <time>2022-07-21T07:38:45.000Z</time>
      </trkpt>
      <trkpt lat="44.09556" lon="6.97162">
        <ele>1579.8000488281</ele>
        <time>2022-07-21T07:38:46.000Z</time>
      </trkpt>
      <trkpt lat="44.09556" lon="6.97162">
        <ele>1580.5999755859</ele>
        <time>2022-07-21T07:38:48.000Z</time>
      </trkpt>
      <trkpt lat="44.09557" lon="6.97163">
        <ele>1581</ele>
        <time>2022-07-21T07:38:50.000Z</time>
      </trkpt>
      <trkpt lat="44.09557" lon="6.97169">
        <ele>1581.1999511719</ele>
        <time>2022-07-21T07:38:56.000Z</time>
      </trkpt>
      <trkpt lat="44.09558" lon="6.97178">
        <ele>1581.8000488281</ele>
        <time>2022-07-21T07:39:00.000Z</time>
      </trkpt>
      <trkpt lat="44.09558" lon="6.9718">
        <ele>1582.1999511719</ele>
        <time>2022-07-21T07:39:01.000Z</time>
      </trkpt>
      <trkpt lat="44.09559" lon="6.97185">
        <ele>1583.1999511719</ele>
        <time>2022-07-21T07:39:03.000Z</time>
      </trkpt>
      <trkpt lat="44.09561" lon="6.97192">
        <ele>1583.5999755859</ele>
        <time>2022-07-21T07:39:05.000Z</time>
      </trkpt>
      <trkpt lat="44.09561" lon="6.97201">
        <ele>1584.1999511719</ele>
        <time>2022-07-21T07:39:08.000Z</time>
      </trkpt>
      <trkpt lat="44.09562" lon="6.97204">
        <ele>1584.4000244141</ele>
        <time>2022-07-21T07:39:09.000Z</time>
      </trkpt>
      <trkpt lat="44.09563" lon="6.97211">
        <ele>1585.1999511719</ele>
        <time>2022-07-21T07:39:11.000Z</time>
      </trkpt>
      <trkpt lat="44.09566" lon="6.97225">
        <ele>1586.4000244141</ele>
        <time>2022-07-21T07:39:15.000Z</time>
      </trkpt>
      <trkpt lat="44.09569" lon="6.97238">
        <ele>1587.4000244141</ele>
        <time>2022-07-21T07:39:19.000Z</time>
      </trkpt>
      <trkpt lat="44.09571" lon="6.97245">
        <ele>1587.8000488281</ele>
        <time>2022-07-21T07:39:21.000Z</time>
      </trkpt>
      <trkpt lat="44.09572" lon="6.97251">
        <ele>1588.5999755859</ele>
        <time>2022-07-21T07:39:23.000Z</time>
      </trkpt>
      <trkpt lat="44.09575" lon="6.97261">
        <ele>1589.8000488281</ele>
        <time>2022-07-21T07:39:26.000Z</time>
      </trkpt>
      <trkpt lat="44.09578" lon="6.97269">
        <ele>1590.8000488281</ele>
        <time>2022-07-21T07:39:29.000Z</time>
      </trkpt>
      <trkpt lat="44.09579" lon="6.97275">
        <ele>1591.5999755859</ele>
        <time>2022-07-21T07:39:31.000Z</time>
      </trkpt>
      <trkpt lat="44.0958" lon="6.97278">
        <ele>1592</ele>
        <time>2022-07-21T07:39:32.000Z</time>
      </trkpt>
      <trkpt lat="44.09583" lon="6.97294">
        <ele>1593</ele>
        <time>2022-07-21T07:39:37.000Z</time>
      </trkpt>
      <trkpt lat="44.09584" lon="6.97298">
        <ele>1593.1999511719</ele>
        <time>2022-07-21T07:39:38.000Z</time>
      </trkpt>
      <trkpt lat="44.09592" lon="6.97308">
        <ele>1594.4000244141</ele>
        <time>2022-07-21T07:39:42.000Z</time>
      </trkpt>
      <trkpt lat="44.09593" lon="6.97311">
        <ele>1595.4000244141</ele>
        <time>2022-07-21T07:39:44.000Z</time>
      </trkpt>
      <trkpt lat="44.09595" lon="6.97316">
        <ele>1596.4000244141</ele>
        <time>2022-07-21T07:39:46.000Z</time>
      </trkpt>
      <trkpt lat="44.09596" lon="6.9732">
        <ele>1596.5999755859</ele>
        <time>2022-07-21T07:39:47.000Z</time>
      </trkpt>
      <trkpt lat="44.09603" lon="6.97331">
        <ele>1596.8000488281</ele>
        <time>2022-07-21T07:39:51.000Z</time>
      </trkpt>
      <trkpt lat="44.09608" lon="6.9734">
        <ele>1598</ele>
        <time>2022-07-21T07:39:55.000Z</time>
      </trkpt>
      <trkpt lat="44.0961" lon="6.97343">
        <ele>1598</ele>
        <time>2022-07-21T07:39:56.000Z</time>
      </trkpt>
      <trkpt lat="44.09625" lon="6.97361">
        <ele>1599.1999511719</ele>
        <time>2022-07-21T07:40:04.000Z</time>
      </trkpt>
      <trkpt lat="44.09637" lon="6.97369">
        <ele>1600.4000244141</ele>
        <time>2022-07-21T07:40:09.000Z</time>
      </trkpt>
      <trkpt lat="44.0964" lon="6.97373">
        <ele>1601.1999511719</ele>
        <time>2022-07-21T07:40:11.000Z</time>
      </trkpt>
      <trkpt lat="44.09641" lon="6.97376">
        <ele>1601.8000488281</ele>
        <time>2022-07-21T07:40:12.000Z</time>
      </trkpt>
      <trkpt lat="44.09643" lon="6.97381">
        <ele>1603.4000244141</ele>
        <time>2022-07-21T07:40:14.000Z</time>
      </trkpt>
      <trkpt lat="44.09644" lon="6.97387">
        <ele>1604.4000244141</ele>
        <time>2022-07-21T07:40:16.000Z</time>
      </trkpt>
      <trkpt lat="44.09645" lon="6.97398">
        <ele>1605.5999755859</ele>
        <time>2022-07-21T07:40:19.000Z</time>
      </trkpt>
      <trkpt lat="44.09645" lon="6.97405">
        <ele>1606</ele>
        <time>2022-07-21T07:40:21.000Z</time>
      </trkpt>
      <trkpt lat="44.09643" lon="6.97429">
        <ele>1605.8000488281</ele>
        <time>2022-07-21T07:40:27.000Z</time>
      </trkpt>
      <trkpt lat="44.09643" lon="6.97451">
        <ele>1605.8000488281</ele>
        <time>2022-07-21T07:40:32.000Z</time>
      </trkpt>
      <trkpt lat="44.09645" lon="6.97471">
        <ele>1606</ele>
        <time>2022-07-21T07:40:37.000Z</time>
      </trkpt>
      <trkpt lat="44.09648" lon="6.97491">
        <ele>1606</ele>
        <time>2022-07-21T07:40:42.000Z</time>
      </trkpt>
      <trkpt lat="44.09647" lon="6.97509">
        <ele>1605.8000488281</ele>
        <time>2022-07-21T07:40:46.000Z</time>
      </trkpt>
      <trkpt lat="44.09647" lon="6.97536">
        <ele>1605.8000488281</ele>
        <time>2022-07-21T07:40:52.000Z</time>
      </trkpt>
      <trkpt lat="44.0965" lon="6.97555">
        <ele>1604.8000488281</ele>
        <time>2022-07-21T07:40:56.000Z</time>
      </trkpt>
      <trkpt lat="44.0965" lon="6.9756">
        <ele>1604.5999755859</ele>
        <time>2022-07-21T07:40:57.000Z</time>
      </trkpt>
      <trkpt lat="44.09654" lon="6.97594">
        <ele>1603.4000244141</ele>
        <time>2022-07-21T07:41:04.000Z</time>
      </trkpt>
      <trkpt lat="44.09658" lon="6.97604">
        <ele>1602.4000244141</ele>
        <time>2022-07-21T07:41:06.000Z</time>
      </trkpt>
      <trkpt lat="44.09663" lon="6.97615">
        <ele>1602</ele>
        <time>2022-07-21T07:41:09.000Z</time>
      </trkpt>
      <trkpt lat="44.09678" lon="6.97636">
        <ele>1602.4000244141</ele>
        <time>2022-07-21T07:41:15.000Z</time>
      </trkpt>
      <trkpt lat="44.09692" lon="6.97649">
        <ele>1603</ele>
        <time>2022-07-21T07:41:20.000Z</time>
      </trkpt>
      <trkpt lat="44.09698" lon="6.97653">
        <ele>1603.5999755859</ele>
        <time>2022-07-21T07:41:22.000Z</time>
      </trkpt>
      <trkpt lat="44.0971" lon="6.97663">
        <ele>1603.8000488281</ele>
        <time>2022-07-21T07:41:26.000Z</time>
      </trkpt>
      <trkpt lat="44.09717" lon="6.97669">
        <ele>1603.8000488281</ele>
        <time>2022-07-21T07:41:28.000Z</time>
      </trkpt>
      <trkpt lat="44.09733" lon="6.97679">
        <ele>1602.8000488281</ele>
        <time>2022-07-21T07:41:32.000Z</time>
      </trkpt>
      <trkpt lat="44.09736" lon="6.97681">
        <ele>1602.4000244141</ele>
        <time>2022-07-21T07:41:33.000Z</time>
      </trkpt>
      <trkpt lat="44.09741" lon="6.97687">
        <ele>1601.8000488281</ele>
        <time>2022-07-21T07:41:36.000Z</time>
      </trkpt>
      <trkpt lat="44.09745" lon="6.97691">
        <ele>1601.4000244141</ele>
        <time>2022-07-21T07:41:41.000Z</time>
      </trkpt>
      <trkpt lat="44.09747" lon="6.97689">
        <ele>1600.8000488281</ele>
        <time>2022-07-21T07:41:45.000Z</time>
      </trkpt>
      <trkpt lat="44.09748" lon="6.97686">
        <ele>1601.5999755859</ele>
        <time>2022-07-21T07:41:51.000Z</time>
      </trkpt>
      <trkpt lat="44.09748" lon="6.97684">
        <ele>1602.1999511719</ele>
        <time>2022-07-21T07:42:04.000Z</time>
      </trkpt>
      <trkpt lat="44.09747" lon="6.97682">
        <ele>1602.4000244141</ele>
        <time>2022-07-21T07:42:12.000Z</time>
      </trkpt>
      <trkpt lat="44.09746" lon="6.97682">
        <ele>1602.4000244141</ele>
        <time>2022-07-21T07:42:14.000Z</time>
      </trkpt>
      <trkpt lat="44.09746" lon="6.97683">
        <ele>1602.5999755859</ele>
        <time>2022-07-21T07:42:20.000Z</time>
      </trkpt>
      <trkpt lat="44.09746" lon="6.97686">
        <ele>1602.4000244141</ele>
        <time>2022-07-21T07:42:26.000Z</time>
      </trkpt>
      <trkpt lat="44.09747" lon="6.97687">
        <ele>1602.1999511719</ele>
        <time>2022-07-21T07:42:35.000Z</time>
      </trkpt>
      <trkpt lat="44.09748" lon="6.97688">
        <ele>1602.8000488281</ele>
        <time>2022-07-21T07:42:50.000Z</time>
      </trkpt>
      <trkpt lat="44.09748" lon="6.97689">
        <ele>1602.5999755859</ele>
        <time>2022-07-21T07:43:01.000Z</time>
      </trkpt>
      <trkpt lat="44.09748" lon="6.97689">
        <ele>1602.5999755859</ele>
        <time>2022-07-21T07:43:22.000Z</time>
      </trkpt>
      <trkpt lat="44.09748" lon="6.97689">
        <ele>1602.5999755859</ele>
        <time>2022-07-21T07:43:35.000Z</time>
      </trkpt>
      <trkpt lat="44.09748" lon="6.97689">
        <ele>1602.5999755859</ele>
        <time>2022-07-21T07:43:47.000Z</time>
      </trkpt>
      <trkpt lat="44.09748" lon="6.9769">
        <ele>1602.5999755859</ele>
        <time>2022-07-21T07:44:04.000Z</time>
      </trkpt>
      <trkpt lat="44.09749" lon="6.97692">
        <ele>1602</ele>
        <time>2022-07-21T07:44:10.000Z</time>
      </trkpt>
      <trkpt lat="44.09749" lon="6.97692">
        <ele>1601.8000488281</ele>
        <time>2022-07-21T07:44:15.000Z</time>
      </trkpt>
      <trkpt lat="44.09751" lon="6.97693">
        <ele>1601.5999755859</ele>
        <time>2022-07-21T07:44:23.000Z</time>
      </trkpt>
      <trkpt lat="44.09752" lon="6.97694">
        <ele>1601.5999755859</ele>
        <time>2022-07-21T07:44:27.000Z</time>
      </trkpt>
      <trkpt lat="44.09755" lon="6.97697">
        <ele>1601.5999755859</ele>
        <time>2022-07-21T07:44:29.000Z</time>
      </trkpt>
      <trkpt lat="44.09761" lon="6.97703">
        <ele>1601.1999511719</ele>
        <time>2022-07-21T07:44:33.000Z</time>
      </trkpt>
      <trkpt lat="44.09765" lon="6.97706">
        <ele>1601.1999511719</ele>
        <time>2022-07-21T07:44:35.000Z</time>
      </trkpt>
      <trkpt lat="44.0978" lon="6.97715">
        <ele>1601</ele>
        <time>2022-07-21T07:44:41.000Z</time>
      </trkpt>
      <trkpt lat="44.09794" lon="6.97725">
        <ele>1600.4000244141</ele>
        <time>2022-07-21T07:44:47.000Z</time>
      </trkpt>
      <trkpt lat="44.0981" lon="6.97735">
        <ele>1600.5999755859</ele>
        <time>2022-07-21T07:44:53.000Z</time>
      </trkpt>
      <trkpt lat="44.09828" lon="6.97749">
        <ele>1601.4000244141</ele>
        <time>2022-07-21T07:45:01.000Z</time>
      </trkpt>
      <trkpt lat="44.09836" lon="6.97754">
        <ele>1602.4000244141</ele>
        <time>2022-07-21T07:45:05.000Z</time>
      </trkpt>
      <trkpt lat="44.09842" lon="6.97756">
        <ele>1602.4000244141</ele>
        <time>2022-07-21T07:45:08.000Z</time>
      </trkpt>
      <trkpt lat="44.09853" lon="6.97758">
        <ele>1602.5999755859</ele>
        <time>2022-07-21T07:45:14.000Z</time>
      </trkpt>
      <trkpt lat="44.09868" lon="6.97755">
        <ele>1603</ele>
        <time>2022-07-21T07:45:21.000Z</time>
      </trkpt>
      <trkpt lat="44.09877" lon="6.97753">
        <ele>1603.4000244141</ele>
        <time>2022-07-21T07:45:24.000Z</time>
      </trkpt>
      <trkpt lat="44.0989" lon="6.97751">
        <ele>1604</ele>
        <time>2022-07-21T07:45:29.000Z</time>
      </trkpt>
      <trkpt lat="44.09902" lon="6.9775">
        <ele>1604.4000244141</ele>
        <time>2022-07-21T07:45:34.000Z</time>
      </trkpt>
      <trkpt lat="44.09904" lon="6.9775">
        <ele>1604.4000244141</ele>
        <time>2022-07-21T07:45:35.000Z</time>
      </trkpt>
      <trkpt lat="44.09928" lon="6.97749">
        <ele>1604.4000244141</ele>
        <time>2022-07-21T07:45:43.000Z</time>
      </trkpt>
      <trkpt lat="44.0995" lon="6.97749">
        <ele>1605</ele>
        <time>2022-07-21T07:45:51.000Z</time>
      </trkpt>
      <trkpt lat="44.0997" lon="6.97749">
        <ele>1605.5999755859</ele>
        <time>2022-07-21T07:45:58.000Z</time>
      </trkpt>
      <trkpt lat="44.09992" lon="6.97753">
        <ele>1606.1999511719</ele>
        <time>2022-07-21T07:46:06.000Z</time>
      </trkpt>
      <trkpt lat="44.10003" lon="6.97747">
        <ele>1606.8000488281</ele>
        <time>2022-07-21T07:46:10.000Z</time>
      </trkpt>
      <trkpt lat="44.10005" lon="6.97745">
        <ele>1607</ele>
        <time>2022-07-21T07:46:11.000Z</time>
      </trkpt>
      <trkpt lat="44.10009" lon="6.97738">
        <ele>1607.8000488281</ele>
        <time>2022-07-21T07:46:13.000Z</time>
      </trkpt>
      <trkpt lat="44.10012" lon="6.97729">
        <ele>1609.1999511719</ele>
        <time>2022-07-21T07:46:16.000Z</time>
      </trkpt>
      <trkpt lat="44.10017" lon="6.97721">
        <ele>1610.5999755859</ele>
        <time>2022-07-21T07:46:19.000Z</time>
      </trkpt>
      <trkpt lat="44.10021" lon="6.97716">
        <ele>1611.8000488281</ele>
        <time>2022-07-21T07:46:22.000Z</time>
      </trkpt>
      <trkpt lat="44.10023" lon="6.97714">
        <ele>1612</ele>
        <time>2022-07-21T07:46:23.000Z</time>
      </trkpt>
      <trkpt lat="44.10028" lon="6.97705">
        <ele>1613</ele>
        <time>2022-07-21T07:46:27.000Z</time>
      </trkpt>
      <trkpt lat="44.1003" lon="6.977">
        <ele>1613.4000244141</ele>
        <time>2022-07-21T07:46:29.000Z</time>
      </trkpt>
      <trkpt lat="44.10032" lon="6.97695">
        <ele>1614.1999511719</ele>
        <time>2022-07-21T07:46:31.000Z</time>
      </trkpt>
      <trkpt lat="44.10035" lon="6.97685">
        <ele>1615.1999511719</ele>
        <time>2022-07-21T07:46:35.000Z</time>
      </trkpt>
      <trkpt lat="44.10037" lon="6.9768">
        <ele>1615.5999755859</ele>
        <time>2022-07-21T07:46:37.000Z</time>
      </trkpt>
      <trkpt lat="44.1004" lon="6.97672">
        <ele>1616.4000244141</ele>
        <time>2022-07-21T07:46:40.000Z</time>
      </trkpt>
      <trkpt lat="44.10044" lon="6.97662">
        <ele>1617.4000244141</ele>
        <time>2022-07-21T07:46:44.000Z</time>
      </trkpt>
      <trkpt lat="44.10046" lon="6.97655">
        <ele>1618.8000488281</ele>
        <time>2022-07-21T07:46:47.000Z</time>
      </trkpt>
      <trkpt lat="44.10047" lon="6.9765">
        <ele>1619.5999755859</ele>
        <time>2022-07-21T07:46:49.000Z</time>
      </trkpt>
      <trkpt lat="44.10047" lon="6.97647">
        <ele>1620</ele>
        <time>2022-07-21T07:46:50.000Z</time>
      </trkpt>
      <trkpt lat="44.1005" lon="6.97638">
        <ele>1621.4000244141</ele>
        <time>2022-07-21T07:46:54.000Z</time>
      </trkpt>
      <trkpt lat="44.10051" lon="6.97628">
        <ele>1622.5999755859</ele>
        <time>2022-07-21T07:46:58.000Z</time>
      </trkpt>
      <trkpt lat="44.10053" lon="6.97623">
        <ele>1623</ele>
        <time>2022-07-21T07:47:00.000Z</time>
      </trkpt>
      <trkpt lat="44.10055" lon="6.97616">
        <ele>1623.8000488281</ele>
        <time>2022-07-21T07:47:03.000Z</time>
      </trkpt>
      <trkpt lat="44.10057" lon="6.97609">
        <ele>1625.1999511719</ele>
        <time>2022-07-21T07:47:06.000Z</time>
      </trkpt>
      <trkpt lat="44.10059" lon="6.97605">
        <ele>1626.1999511719</ele>
        <time>2022-07-21T07:47:08.000Z</time>
      </trkpt>
      <trkpt lat="44.1006" lon="6.97602">
        <ele>1626.4000244141</ele>
        <time>2022-07-21T07:47:09.000Z</time>
      </trkpt>
      <trkpt lat="44.10063" lon="6.97593">
        <ele>1627.5999755859</ele>
        <time>2022-07-21T07:47:13.000Z</time>
      </trkpt>
      <trkpt lat="44.10064" lon="6.97588">
        <ele>1628.1999511719</ele>
        <time>2022-07-21T07:47:15.000Z</time>
      </trkpt>
      <trkpt lat="44.10066" lon="6.9758">
        <ele>1628.8000488281</ele>
        <time>2022-07-21T07:47:18.000Z</time>
      </trkpt>
      <trkpt lat="44.10067" lon="6.97567">
        <ele>1629.8000488281</ele>
        <time>2022-07-21T07:47:22.000Z</time>
      </trkpt>
      <trkpt lat="44.10067" lon="6.97566">
        <ele>1630</ele>
        <time>2022-07-21T07:47:23.000Z</time>
      </trkpt>
      <trkpt lat="44.10069" lon="6.97542">
        <ele>1631</ele>
        <time>2022-07-21T07:47:30.000Z</time>
      </trkpt>
      <trkpt lat="44.1007" lon="6.97537">
        <ele>1631.4000244141</ele>
        <time>2022-07-21T07:47:32.000Z</time>
      </trkpt>
      <trkpt lat="44.10072" lon="6.97528">
        <ele>1631.8000488281</ele>
        <time>2022-07-21T07:47:35.000Z</time>
      </trkpt>
      <trkpt lat="44.10073" lon="6.97522">
        <ele>1632.1999511719</ele>
        <time>2022-07-21T07:47:37.000Z</time>
      </trkpt>
      <trkpt lat="44.10075" lon="6.9751">
        <ele>1633</ele>
        <time>2022-07-21T07:47:41.000Z</time>
      </trkpt>
      <trkpt lat="44.10076" lon="6.97504">
        <ele>1633.1999511719</ele>
        <time>2022-07-21T07:47:43.000Z</time>
      </trkpt>
      <trkpt lat="44.10079" lon="6.97495">
        <ele>1633.8000488281</ele>
        <time>2022-07-21T07:47:46.000Z</time>
      </trkpt>
      <trkpt lat="44.10081" lon="6.97483">
        <ele>1634.4000244141</ele>
        <time>2022-07-21T07:47:50.000Z</time>
      </trkpt>
      <trkpt lat="44.10081" lon="6.97477">
        <ele>1634.8000488281</ele>
        <time>2022-07-21T07:47:52.000Z</time>
      </trkpt>
      <trkpt lat="44.10083" lon="6.97469">
        <ele>1635.4000244141</ele>
        <time>2022-07-21T07:47:55.000Z</time>
      </trkpt>
      <trkpt lat="44.10084" lon="6.97461">
        <ele>1636.1999511719</ele>
        <time>2022-07-21T07:47:58.000Z</time>
      </trkpt>
      <trkpt lat="44.10085" lon="6.97458">
        <ele>1636.5999755859</ele>
        <time>2022-07-21T07:47:59.000Z</time>
      </trkpt>
      <trkpt lat="44.10087" lon="6.97446">
        <ele>1637.5999755859</ele>
        <time>2022-07-21T07:48:03.000Z</time>
      </trkpt>
      <trkpt lat="44.10087" lon="6.97444">
        <ele>1637.8000488281</ele>
        <time>2022-07-21T07:48:04.000Z</time>
      </trkpt>
      <trkpt lat="44.10089" lon="6.97428">
        <ele>1638.8000488281</ele>
        <time>2022-07-21T07:48:09.000Z</time>
      </trkpt>
      <trkpt lat="44.10089" lon="6.97426">
        <ele>1639</ele>
        <time>2022-07-21T07:48:10.000Z</time>
      </trkpt>
      <trkpt lat="44.10091" lon="6.9742">
        <ele>1639.4000244141</ele>
        <time>2022-07-21T07:48:12.000Z</time>
      </trkpt>
      <trkpt lat="44.10093" lon="6.97411">
        <ele>1639.8000488281</ele>
        <time>2022-07-21T07:48:15.000Z</time>
      </trkpt>
      <trkpt lat="44.10096" lon="6.974">
        <ele>1640.8000488281</ele>
        <time>2022-07-21T07:48:19.000Z</time>
      </trkpt>
      <trkpt lat="44.10098" lon="6.97395">
        <ele>1641.4000244141</ele>
        <time>2022-07-21T07:48:21.000Z</time>
      </trkpt>
      <trkpt lat="44.10101" lon="6.97384">
        <ele>1642</ele>
        <time>2022-07-21T07:48:25.000Z</time>
      </trkpt>
      <trkpt lat="44.10102" lon="6.97378">
        <ele>1642.1999511719</ele>
        <time>2022-07-21T07:48:27.000Z</time>
      </trkpt>
      <trkpt lat="44.10105" lon="6.97367">
        <ele>1643.1999511719</ele>
        <time>2022-07-21T07:48:31.000Z</time>
      </trkpt>
      <trkpt lat="44.10104" lon="6.97362">
        <ele>1643.5999755859</ele>
        <time>2022-07-21T07:48:33.000Z</time>
      </trkpt>
      <trkpt lat="44.10103" lon="6.9735">
        <ele>1644.4000244141</ele>
        <time>2022-07-21T07:48:37.000Z</time>
      </trkpt>
      <trkpt lat="44.10103" lon="6.97345">
        <ele>1645</ele>
        <time>2022-07-21T07:48:39.000Z</time>
      </trkpt>
      <trkpt lat="44.10103" lon="6.9734">
        <ele>1645.4000244141</ele>
        <time>2022-07-21T07:48:41.000Z</time>
      </trkpt>
      <trkpt lat="44.10103" lon="6.9733">
        <ele>1646.4000244141</ele>
        <time>2022-07-21T07:48:45.000Z</time>
      </trkpt>
      <trkpt lat="44.10105" lon="6.97329">
        <ele>1646.8000488281</ele>
        <time>2022-07-21T07:48:46.000Z</time>
      </trkpt>
      <trkpt lat="44.10111" lon="6.97331">
        <ele>1647</ele>
        <time>2022-07-21T07:48:49.000Z</time>
      </trkpt>
      <trkpt lat="44.10115" lon="6.9734">
        <ele>1647.1999511719</ele>
        <time>2022-07-21T07:48:52.000Z</time>
      </trkpt>
      <trkpt lat="44.10119" lon="6.97348">
        <ele>1647.1999511719</ele>
        <time>2022-07-21T07:48:55.000Z</time>
      </trkpt>
      <trkpt lat="44.10127" lon="6.97364">
        <ele>1647.5999755859</ele>
        <time>2022-07-21T07:49:01.000Z</time>
      </trkpt>
      <trkpt lat="44.10133" lon="6.97372">
        <ele>1648.8000488281</ele>
        <time>2022-07-21T07:49:05.000Z</time>
      </trkpt>
      <trkpt lat="44.10136" lon="6.97377">
        <ele>1649.5999755859</ele>
        <time>2022-07-21T07:49:07.000Z</time>
      </trkpt>
      <trkpt lat="44.10137" lon="6.9738">
        <ele>1650</ele>
        <time>2022-07-21T07:49:08.000Z</time>
      </trkpt>
      <trkpt lat="44.1014" lon="6.97388">
        <ele>1651.5999755859</ele>
        <time>2022-07-21T07:49:11.000Z</time>
      </trkpt>
      <trkpt lat="44.10142" lon="6.97393">
        <ele>1652.4000244141</ele>
        <time>2022-07-21T07:49:13.000Z</time>
      </trkpt>
      <trkpt lat="44.10143" lon="6.97396">
        <ele>1652.5999755859</ele>
        <time>2022-07-21T07:49:14.000Z</time>
      </trkpt>
      <trkpt lat="44.10145" lon="6.97404">
        <ele>1653.5999755859</ele>
        <time>2022-07-21T07:49:17.000Z</time>
      </trkpt>
      <trkpt lat="44.10147" lon="6.97411">
        <ele>1654.5999755859</ele>
        <time>2022-07-21T07:49:20.000Z</time>
      </trkpt>
      <trkpt lat="44.10148" lon="6.97414">
        <ele>1654.5999755859</ele>
        <time>2022-07-21T07:49:21.000Z</time>
      </trkpt>
      <trkpt lat="44.10153" lon="6.97427">
        <ele>1655.8000488281</ele>
        <time>2022-07-21T07:49:26.000Z</time>
      </trkpt>
      <trkpt lat="44.10157" lon="6.97431">
        <ele>1657</ele>
        <time>2022-07-21T07:49:29.000Z</time>
      </trkpt>
      <trkpt lat="44.10161" lon="6.97428">
        <ele>1658.1999511719</ele>
        <time>2022-07-21T07:49:31.000Z</time>
      </trkpt>
      <trkpt lat="44.10165" lon="6.97425">
        <ele>1658.8000488281</ele>
        <time>2022-07-21T07:49:33.000Z</time>
      </trkpt>
      <trkpt lat="44.10167" lon="6.97425">
        <ele>1658.8000488281</ele>
        <time>2022-07-21T07:49:34.000Z</time>
      </trkpt>
      <trkpt lat="44.10168" lon="6.97422">
        <ele>1659</ele>
        <time>2022-07-21T07:49:35.000Z</time>
      </trkpt>
      <trkpt lat="44.10172" lon="6.97415">
        <ele>1659.1999511719</ele>
        <time>2022-07-21T07:49:38.000Z</time>
      </trkpt>
      <trkpt lat="44.10174" lon="6.97413">
        <ele>1659.1999511719</ele>
        <time>2022-07-21T07:49:39.000Z</time>
      </trkpt>
      <trkpt lat="44.10183" lon="6.974">
        <ele>1659.8000488281</ele>
        <time>2022-07-21T07:49:45.000Z</time>
      </trkpt>
      <trkpt lat="44.1019" lon="6.97385">
        <ele>1659.4000244141</ele>
        <time>2022-07-21T07:49:51.000Z</time>
      </trkpt>
      <trkpt lat="44.10207" lon="6.97362">
        <ele>1660</ele>
        <time>2022-07-21T07:50:01.000Z</time>
      </trkpt>
      <trkpt lat="44.10214" lon="6.97355">
        <ele>1660.1999511719</ele>
        <time>2022-07-21T07:50:05.000Z</time>
      </trkpt>
      <trkpt lat="44.10223" lon="6.9734">
        <ele>1659.8000488281</ele>
        <time>2022-07-21T07:50:11.000Z</time>
      </trkpt>
      <trkpt lat="44.1023" lon="6.97326">
        <ele>1660.1999511719</ele>
        <time>2022-07-21T07:50:16.000Z</time>
      </trkpt>
      <trkpt lat="44.10232" lon="6.9732">
        <ele>1660.4000244141</ele>
        <time>2022-07-21T07:50:18.000Z</time>
      </trkpt>
      <trkpt lat="44.10239" lon="6.973">
        <ele>1661</ele>
        <time>2022-07-21T07:50:25.000Z</time>
      </trkpt>
      <trkpt lat="44.10245" lon="6.97284">
        <ele>1661.1999511719</ele>
        <time>2022-07-21T07:50:30.000Z</time>
      </trkpt>
      <trkpt lat="44.10248" lon="6.97277">
        <ele>1661.1999511719</ele>
        <time>2022-07-21T07:50:32.000Z</time>
      </trkpt>
      <trkpt lat="44.1025" lon="6.97267">
        <ele>1661.4000244141</ele>
        <time>2022-07-21T07:50:35.000Z</time>
      </trkpt>
      <trkpt lat="44.1025" lon="6.9726">
        <ele>1661.4000244141</ele>
        <time>2022-07-21T07:50:37.000Z</time>
      </trkpt>
      <trkpt lat="44.10253" lon="6.97251">
        <ele>1661.1999511719</ele>
        <time>2022-07-21T07:50:40.000Z</time>
      </trkpt>
      <trkpt lat="44.10258" lon="6.97236">
        <ele>1661.8000488281</ele>
        <time>2022-07-21T07:50:45.000Z</time>
      </trkpt>
      <trkpt lat="44.1026" lon="6.9723">
        <ele>1662</ele>
        <time>2022-07-21T07:50:47.000Z</time>
      </trkpt>
      <trkpt lat="44.10264" lon="6.97223">
        <ele>1662</ele>
        <time>2022-07-21T07:50:49.000Z</time>
      </trkpt>
      <trkpt lat="44.10265" lon="6.97212">
        <ele>1661.8000488281</ele>
        <time>2022-07-21T07:50:53.000Z</time>
      </trkpt>
      <trkpt lat="44.10268" lon="6.97199">
        <ele>1662.4000244141</ele>
        <time>2022-07-21T07:50:57.000Z</time>
      </trkpt>
      <trkpt lat="44.10269" lon="6.97193">
        <ele>1662.1999511719</ele>
        <time>2022-07-21T07:50:59.000Z</time>
      </trkpt>
      <trkpt lat="44.10272" lon="6.97188">
        <ele>1662.1999511719</ele>
        <time>2022-07-21T07:51:01.000Z</time>
      </trkpt>
      <trkpt lat="44.10275" lon="6.97183">
        <ele>1662.1999511719</ele>
        <time>2022-07-21T07:51:03.000Z</time>
      </trkpt>
      <trkpt lat="44.1028" lon="6.97161">
        <ele>1662.4000244141</ele>
        <time>2022-07-21T07:51:10.000Z</time>
      </trkpt>
      <trkpt lat="44.10281" lon="6.97158">
        <ele>1662.5999755859</ele>
        <time>2022-07-21T07:51:11.000Z</time>
      </trkpt>
      <trkpt lat="44.10283" lon="6.97149">
        <ele>1662.8000488281</ele>
        <time>2022-07-21T07:51:14.000Z</time>
      </trkpt>
      <trkpt lat="44.10286" lon="6.97141">
        <ele>1662.8000488281</ele>
        <time>2022-07-21T07:51:17.000Z</time>
      </trkpt>
      <trkpt lat="44.10289" lon="6.97134">
        <ele>1663.4000244141</ele>
        <time>2022-07-21T07:51:20.000Z</time>
      </trkpt>
      <trkpt lat="44.10292" lon="6.97128">
        <ele>1663.4000244141</ele>
        <time>2022-07-21T07:51:22.000Z</time>
      </trkpt>
      <trkpt lat="44.10292" lon="6.97124">
        <ele>1663.4000244141</ele>
        <time>2022-07-21T07:51:23.000Z</time>
      </trkpt>
      <trkpt lat="44.10295" lon="6.97116">
        <ele>1663.5999755859</ele>
        <time>2022-07-21T07:51:26.000Z</time>
      </trkpt>
      <trkpt lat="44.10305" lon="6.97101">
        <ele>1663.8000488281</ele>
        <time>2022-07-21T07:51:32.000Z</time>
      </trkpt>
      <trkpt lat="44.10315" lon="6.97088">
        <ele>1663.8000488281</ele>
        <time>2022-07-21T07:51:38.000Z</time>
      </trkpt>
      <trkpt lat="44.10323" lon="6.97073">
        <ele>1662.8000488281</ele>
        <time>2022-07-21T07:51:43.000Z</time>
      </trkpt>
      <trkpt lat="44.10329" lon="6.97052">
        <ele>1664.5999755859</ele>
        <time>2022-07-21T07:51:50.000Z</time>
      </trkpt>
      <trkpt lat="44.1033" lon="6.97031">
        <ele>1665.8000488281</ele>
        <time>2022-07-21T07:51:57.000Z</time>
      </trkpt>
      <trkpt lat="44.10332" lon="6.97026">
        <ele>1666.1999511719</ele>
        <time>2022-07-21T07:51:59.000Z</time>
      </trkpt>
      <trkpt lat="44.10336" lon="6.97023">
        <ele>1666.5999755859</ele>
        <time>2022-07-21T07:52:01.000Z</time>
      </trkpt>
      <trkpt lat="44.10339" lon="6.97023">
        <ele>1667</ele>
        <time>2022-07-21T07:52:02.000Z</time>
      </trkpt>
      <trkpt lat="44.10342" lon="6.97029">
        <ele>1667.4000244141</ele>
        <time>2022-07-21T07:52:04.000Z</time>
      </trkpt>
      <trkpt lat="44.10344" lon="6.97034">
        <ele>1668.8000488281</ele>
        <time>2022-07-21T07:52:06.000Z</time>
      </trkpt>
      <trkpt lat="44.10345" lon="6.97038">
        <ele>1670</ele>
        <time>2022-07-21T07:52:08.000Z</time>
      </trkpt>
      <trkpt lat="44.10346" lon="6.97039">
        <ele>1670.4000244141</ele>
        <time>2022-07-21T07:52:09.000Z</time>
      </trkpt>
      <trkpt lat="44.10347" lon="6.97043">
        <ele>1671.1999511719</ele>
        <time>2022-07-21T07:52:11.000Z</time>
      </trkpt>
      <trkpt lat="44.1035" lon="6.97048">
        <ele>1671.8000488281</ele>
        <time>2022-07-21T07:52:13.000Z</time>
      </trkpt>
      <trkpt lat="44.10353" lon="6.97054">
        <ele>1672.4000244141</ele>
        <time>2022-07-21T07:52:15.000Z</time>
      </trkpt>
      <trkpt lat="44.10356" lon="6.97062">
        <ele>1673.5999755859</ele>
        <time>2022-07-21T07:52:18.000Z</time>
      </trkpt>
      <trkpt lat="44.10361" lon="6.97068">
        <ele>1674.8000488281</ele>
        <time>2022-07-21T07:52:21.000Z</time>
      </trkpt>
      <trkpt lat="44.10363" lon="6.97071">
        <ele>1675.4000244141</ele>
        <time>2022-07-21T07:52:23.000Z</time>
      </trkpt>
      <trkpt lat="44.10367" lon="6.97073">
        <ele>1676.1999511719</ele>
        <time>2022-07-21T07:52:25.000Z</time>
      </trkpt>
      <trkpt lat="44.10369" lon="6.97078">
        <ele>1677</ele>
        <time>2022-07-21T07:52:27.000Z</time>
      </trkpt>
      <trkpt lat="44.10371" lon="6.9708">
        <ele>1677.4000244141</ele>
        <time>2022-07-21T07:52:28.000Z</time>
      </trkpt>
      <trkpt lat="44.10374" lon="6.97086">
        <ele>1678.5999755859</ele>
        <time>2022-07-21T07:52:31.000Z</time>
      </trkpt>
      <trkpt lat="44.10378" lon="6.97087">
        <ele>1679.4000244141</ele>
        <time>2022-07-21T07:52:34.000Z</time>
      </trkpt>
      <trkpt lat="44.1038" lon="6.97089">
        <ele>1679.5999755859</ele>
        <time>2022-07-21T07:52:35.000Z</time>
      </trkpt>
      <trkpt lat="44.10381" lon="6.97091">
        <ele>1679.8000488281</ele>
        <time>2022-07-21T07:52:36.000Z</time>
      </trkpt>
      <trkpt lat="44.10385" lon="6.97093">
        <ele>1680.5999755859</ele>
        <time>2022-07-21T07:52:38.000Z</time>
      </trkpt>
      <trkpt lat="44.10388" lon="6.97094">
        <ele>1681.5999755859</ele>
        <time>2022-07-21T07:52:40.000Z</time>
      </trkpt>
      <trkpt lat="44.10391" lon="6.97096">
        <ele>1683</ele>
        <time>2022-07-21T07:52:42.000Z</time>
      </trkpt>
      <trkpt lat="44.10396" lon="6.971">
        <ele>1683.4000244141</ele>
        <time>2022-07-21T07:52:45.000Z</time>
      </trkpt>
      <trkpt lat="44.104" lon="6.971">
        <ele>1683.1999511719</ele>
        <time>2022-07-21T07:52:47.000Z</time>
      </trkpt>
      <trkpt lat="44.10406" lon="6.971">
        <ele>1683</ele>
        <time>2022-07-21T07:52:50.000Z</time>
      </trkpt>
      <trkpt lat="44.10414" lon="6.97097">
        <ele>1684.1999511719</ele>
        <time>2022-07-21T07:52:55.000Z</time>
      </trkpt>
      <trkpt lat="44.10417" lon="6.97095">
        <ele>1684.5999755859</ele>
        <time>2022-07-21T07:52:57.000Z</time>
      </trkpt>
      <trkpt lat="44.10424" lon="6.97089">
        <ele>1685.1999511719</ele>
        <time>2022-07-21T07:53:01.000Z</time>
      </trkpt>
      <trkpt lat="44.10429" lon="6.97086">
        <ele>1685.5999755859</ele>
        <time>2022-07-21T07:53:04.000Z</time>
      </trkpt>
      <trkpt lat="44.10436" lon="6.97087">
        <ele>1685.8000488281</ele>
        <time>2022-07-21T07:53:08.000Z</time>
      </trkpt>
      <trkpt lat="44.10445" lon="6.97094">
        <ele>1686.4000244141</ele>
        <time>2022-07-21T07:53:13.000Z</time>
      </trkpt>
      <trkpt lat="44.10447" lon="6.97095">
        <ele>1686.4000244141</ele>
        <time>2022-07-21T07:53:14.000Z</time>
      </trkpt>
      <trkpt lat="44.10459" lon="6.971">
        <ele>1687.1999511719</ele>
        <time>2022-07-21T07:53:20.000Z</time>
      </trkpt>
      <trkpt lat="44.1046" lon="6.971">
        <ele>1687.4000244141</ele>
        <time>2022-07-21T07:53:21.000Z</time>
      </trkpt>
      <trkpt lat="44.10462" lon="6.97098">
        <ele>1687.4000244141</ele>
        <time>2022-07-21T07:53:22.000Z</time>
      </trkpt>
      <trkpt lat="44.10463" lon="6.97095">
        <ele>1687.4000244141</ele>
        <time>2022-07-21T07:53:23.000Z</time>
      </trkpt>
      <trkpt lat="44.1047" lon="6.97086">
        <ele>1687.8000488281</ele>
        <time>2022-07-21T07:53:27.000Z</time>
      </trkpt>
      <trkpt lat="44.10474" lon="6.97088">
        <ele>1688</ele>
        <time>2022-07-21T07:53:29.000Z</time>
      </trkpt>
      <trkpt lat="44.10479" lon="6.97094">
        <ele>1688.4000244141</ele>
        <time>2022-07-21T07:53:31.000Z</time>
      </trkpt>
      <trkpt lat="44.10481" lon="6.97097">
        <ele>1688.5999755859</ele>
        <time>2022-07-21T07:53:32.000Z</time>
      </trkpt>
      <trkpt lat="44.10486" lon="6.97101">
        <ele>1688.5999755859</ele>
        <time>2022-07-21T07:53:34.000Z</time>
      </trkpt>
      <trkpt lat="44.10492" lon="6.97102">
        <ele>1688.4000244141</ele>
        <time>2022-07-21T07:53:36.000Z</time>
      </trkpt>
      <trkpt lat="44.10501" lon="6.97107">
        <ele>1689.5999755859</ele>
        <time>2022-07-21T07:53:41.000Z</time>
      </trkpt>
      <trkpt lat="44.10503" lon="6.97107">
        <ele>1689.5999755859</ele>
        <time>2022-07-21T07:53:42.000Z</time>
      </trkpt>
      <trkpt lat="44.10514" lon="6.97108">
        <ele>1690.5999755859</ele>
        <time>2022-07-21T07:53:47.000Z</time>
      </trkpt>
      <trkpt lat="44.10516" lon="6.97109">
        <ele>1690.8000488281</ele>
        <time>2022-07-21T07:53:48.000Z</time>
      </trkpt>
      <trkpt lat="44.10533" lon="6.97116">
        <ele>1691.4000244141</ele>
        <time>2022-07-21T07:53:55.000Z</time>
      </trkpt>
      <trkpt lat="44.10542" lon="6.97119">
        <ele>1691.5999755859</ele>
        <time>2022-07-21T07:53:59.000Z</time>
      </trkpt>
      <trkpt lat="44.10544" lon="6.97121">
        <ele>1691.5999755859</ele>
        <time>2022-07-21T07:54:00.000Z</time>
      </trkpt>
      <trkpt lat="44.10548" lon="6.97124">
        <ele>1692</ele>
        <time>2022-07-21T07:54:02.000Z</time>
      </trkpt>
      <trkpt lat="44.10554" lon="6.97125">
        <ele>1692.1999511719</ele>
        <time>2022-07-21T07:54:05.000Z</time>
      </trkpt>
      <trkpt lat="44.10565" lon="6.97127">
        <ele>1692.8000488281</ele>
        <time>2022-07-21T07:54:09.000Z</time>
      </trkpt>
      <trkpt lat="44.1057" lon="6.97127">
        <ele>1693.1999511719</ele>
        <time>2022-07-21T07:54:11.000Z</time>
      </trkpt>
      <trkpt lat="44.10578" lon="6.97127">
        <ele>1693.8000488281</ele>
        <time>2022-07-21T07:54:14.000Z</time>
      </trkpt>
      <trkpt lat="44.10587" lon="6.97121">
        <ele>1694.4000244141</ele>
        <time>2022-07-21T07:54:18.000Z</time>
      </trkpt>
      <trkpt lat="44.10592" lon="6.97121">
        <ele>1694.5999755859</ele>
        <time>2022-07-21T07:54:20.000Z</time>
      </trkpt>
      <trkpt lat="44.10596" lon="6.97125">
        <ele>1694.5999755859</ele>
        <time>2022-07-21T07:54:22.000Z</time>
      </trkpt>
      <trkpt lat="44.10603" lon="6.97126">
        <ele>1695</ele>
        <time>2022-07-21T07:54:25.000Z</time>
      </trkpt>
      <trkpt lat="44.10607" lon="6.97124">
        <ele>1695.4000244141</ele>
        <time>2022-07-21T07:54:27.000Z</time>
      </trkpt>
      <trkpt lat="44.10624" lon="6.97122">
        <ele>1696</ele>
        <time>2022-07-21T07:54:33.000Z</time>
      </trkpt>
      <trkpt lat="44.10639" lon="6.9712">
        <ele>1697.1999511719</ele>
        <time>2022-07-21T07:54:39.000Z</time>
      </trkpt>
      <trkpt lat="44.10641" lon="6.9712">
        <ele>1697.4000244141</ele>
        <time>2022-07-21T07:54:40.000Z</time>
      </trkpt>
      <trkpt lat="44.10653" lon="6.97114">
        <ele>1698.1999511719</ele>
        <time>2022-07-21T07:54:46.000Z</time>
      </trkpt>
      <trkpt lat="44.10663" lon="6.97111">
        <ele>1698.5999755859</ele>
        <time>2022-07-21T07:54:50.000Z</time>
      </trkpt>
      <trkpt lat="44.10669" lon="6.97108">
        <ele>1699</ele>
        <time>2022-07-21T07:54:53.000Z</time>
      </trkpt>
      <trkpt lat="44.1067" lon="6.97106">
        <ele>1699.1999511719</ele>
        <time>2022-07-21T07:54:54.000Z</time>
      </trkpt>
      <trkpt lat="44.10672" lon="6.97103">
        <ele>1699.1999511719</ele>
        <time>2022-07-21T07:54:55.000Z</time>
      </trkpt>
      <trkpt lat="44.10672" lon="6.971">
        <ele>1699.4000244141</ele>
        <time>2022-07-21T07:54:56.000Z</time>
      </trkpt>
      <trkpt lat="44.10676" lon="6.97091">
        <ele>1700</ele>
        <time>2022-07-21T07:55:00.000Z</time>
      </trkpt>
      <trkpt lat="44.10679" lon="6.97092">
        <ele>1700</ele>
        <time>2022-07-21T07:55:01.000Z</time>
      </trkpt>
      <trkpt lat="44.10683" lon="6.97096">
        <ele>1700.1999511719</ele>
        <time>2022-07-21T07:55:03.000Z</time>
      </trkpt>
      <trkpt lat="44.10685" lon="6.97095">
        <ele>1700</ele>
        <time>2022-07-21T07:55:04.000Z</time>
      </trkpt>
      <trkpt lat="44.10689" lon="6.97094">
        <ele>1700</ele>
        <time>2022-07-21T07:55:06.000Z</time>
      </trkpt>
      <trkpt lat="44.10694" lon="6.97096">
        <ele>1700.4000244141</ele>
        <time>2022-07-21T07:55:08.000Z</time>
      </trkpt>
      <trkpt lat="44.10701" lon="6.97096">
        <ele>1701</ele>
        <time>2022-07-21T07:55:11.000Z</time>
      </trkpt>
      <trkpt lat="44.10712" lon="6.97095">
        <ele>1701.4000244141</ele>
        <time>2022-07-21T07:55:15.000Z</time>
      </trkpt>
      <trkpt lat="44.10713" lon="6.97094">
        <ele>1701.5999755859</ele>
        <time>2022-07-21T07:55:16.000Z</time>
      </trkpt>
      <trkpt lat="44.10721" lon="6.97089">
        <ele>1702.1999511719</ele>
        <time>2022-07-21T07:55:20.000Z</time>
      </trkpt>
      <trkpt lat="44.10724" lon="6.97091">
        <ele>1702.4000244141</ele>
        <time>2022-07-21T07:55:21.000Z</time>
      </trkpt>
      <trkpt lat="44.10737" lon="6.97102">
        <ele>1703.1999511719</ele>
        <time>2022-07-21T07:55:27.000Z</time>
      </trkpt>
      <trkpt lat="44.10748" lon="6.97103">
        <ele>1703.4000244141</ele>
        <time>2022-07-21T07:55:31.000Z</time>
      </trkpt>
      <trkpt lat="44.10764" lon="6.97102">
        <ele>1704.1999511719</ele>
        <time>2022-07-21T07:55:37.000Z</time>
      </trkpt>
      <trkpt lat="44.10773" lon="6.97101">
        <ele>1704.5999755859</ele>
        <time>2022-07-21T07:55:40.000Z</time>
      </trkpt>
      <trkpt lat="44.1078" lon="6.97099">
        <ele>1704.8000488281</ele>
        <time>2022-07-21T07:55:43.000Z</time>
      </trkpt>
      <trkpt lat="44.10782" lon="6.97096">
        <ele>1705</ele>
        <time>2022-07-21T07:55:44.000Z</time>
      </trkpt>
      <trkpt lat="44.10786" lon="6.97086">
        <ele>1705.4000244141</ele>
        <time>2022-07-21T07:55:47.000Z</time>
      </trkpt>
      <trkpt lat="44.10789" lon="6.97078">
        <ele>1705.4000244141</ele>
        <time>2022-07-21T07:55:50.000Z</time>
      </trkpt>
      <trkpt lat="44.10791" lon="6.97072">
        <ele>1705.5999755859</ele>
        <time>2022-07-21T07:55:52.000Z</time>
      </trkpt>
      <trkpt lat="44.10797" lon="6.97074">
        <ele>1706.4000244141</ele>
        <time>2022-07-21T07:55:55.000Z</time>
      </trkpt>
      <trkpt lat="44.10799" lon="6.97076">
        <ele>1706.8000488281</ele>
        <time>2022-07-21T07:55:56.000Z</time>
      </trkpt>
      <trkpt lat="44.10803" lon="6.97087">
        <ele>1707.4000244141</ele>
        <time>2022-07-21T07:55:59.000Z</time>
      </trkpt>
      <trkpt lat="44.10803" lon="6.97086">
        <ele>1707.4000244141</ele>
        <time>2022-07-21T07:56:00.000Z</time>
      </trkpt>
      <trkpt lat="44.10806" lon="6.97089">
        <ele>1707.8000488281</ele>
        <time>2022-07-21T07:56:01.000Z</time>
      </trkpt>
      <trkpt lat="44.1081" lon="6.97093">
        <ele>1708.5999755859</ele>
        <time>2022-07-21T07:56:04.000Z</time>
      </trkpt>
      <trkpt lat="44.10811" lon="6.97093">
        <ele>1709</ele>
        <time>2022-07-21T07:56:05.000Z</time>
      </trkpt>
      <trkpt lat="44.10813" lon="6.97094">
        <ele>1710.1999511719</ele>
        <time>2022-07-21T07:56:07.000Z</time>
      </trkpt>
      <trkpt lat="44.10814" lon="6.97096">
        <ele>1710.5999755859</ele>
        <time>2022-07-21T07:56:08.000Z</time>
      </trkpt>
      <trkpt lat="44.10816" lon="6.97098">
        <ele>1711</ele>
        <time>2022-07-21T07:56:09.000Z</time>
      </trkpt>
      <trkpt lat="44.10823" lon="6.97104">
        <ele>1711.1999511719</ele>
        <time>2022-07-21T07:56:12.000Z</time>
      </trkpt>
      <trkpt lat="44.10826" lon="6.97107">
        <ele>1711.4000244141</ele>
        <time>2022-07-21T07:56:13.000Z</time>
      </trkpt>
      <trkpt lat="44.1083" lon="6.97112">
        <ele>1711.5999755859</ele>
        <time>2022-07-21T07:56:15.000Z</time>
      </trkpt>
      <trkpt lat="44.10839" lon="6.97121">
        <ele>1712.4000244141</ele>
        <time>2022-07-21T07:56:19.000Z</time>
      </trkpt>
      <trkpt lat="44.10841" lon="6.97124">
        <ele>1712.5999755859</ele>
        <time>2022-07-21T07:56:20.000Z</time>
      </trkpt>
      <trkpt lat="44.10852" lon="6.97133">
        <ele>1713.4000244141</ele>
        <time>2022-07-21T07:56:25.000Z</time>
      </trkpt>
      <trkpt lat="44.10855" lon="6.97136">
        <ele>1713.5999755859</ele>
        <time>2022-07-21T07:56:26.000Z</time>
      </trkpt>
      <trkpt lat="44.10862" lon="6.97146">
        <ele>1713.8000488281</ele>
        <time>2022-07-21T07:56:30.000Z</time>
      </trkpt>
      <trkpt lat="44.10865" lon="6.97153">
        <ele>1713.8000488281</ele>
        <time>2022-07-21T07:56:32.000Z</time>
      </trkpt>
      <trkpt lat="44.10876" lon="6.97177">
        <ele>1713.1999511719</ele>
        <time>2022-07-21T07:56:39.000Z</time>
      </trkpt>
      <trkpt lat="44.10883" lon="6.9719">
        <ele>1712.5999755859</ele>
        <time>2022-07-21T07:56:45.000Z</time>
      </trkpt>
      <trkpt lat="44.10885" lon="6.97194">
        <ele>1712.4000244141</ele>
        <time>2022-07-21T07:56:46.000Z</time>
      </trkpt>
      <trkpt lat="44.10893" lon="6.97202">
        <ele>1712.1999511719</ele>
        <time>2022-07-21T07:56:50.000Z</time>
      </trkpt>
      <trkpt lat="44.10905" lon="6.97211">
        <ele>1712.8000488281</ele>
        <time>2022-07-21T07:56:56.000Z</time>
      </trkpt>
      <trkpt lat="44.10915" lon="6.97222">
        <ele>1713.1999511719</ele>
        <time>2022-07-21T07:57:02.000Z</time>
      </trkpt>
      <trkpt lat="44.10928" lon="6.97229">
        <ele>1713.4000244141</ele>
        <time>2022-07-21T07:57:08.000Z</time>
      </trkpt>
      <trkpt lat="44.10932" lon="6.97231">
        <ele>1713.5999755859</ele>
        <time>2022-07-21T07:57:10.000Z</time>
      </trkpt>
      <trkpt lat="44.10938" lon="6.97237">
        <ele>1714</ele>
        <time>2022-07-21T07:57:13.000Z</time>
      </trkpt>
      <trkpt lat="44.1095" lon="6.97244">
        <ele>1714</ele>
        <time>2022-07-21T07:57:19.000Z</time>
      </trkpt>
      <trkpt lat="44.10965" lon="6.97251">
        <ele>1714</ele>
        <time>2022-07-21T07:57:26.000Z</time>
      </trkpt>
      <trkpt lat="44.10967" lon="6.9725">
        <ele>1714</ele>
        <time>2022-07-21T07:57:27.000Z</time>
      </trkpt>
      <trkpt lat="44.10971" lon="6.97244">
        <ele>1713.8000488281</ele>
        <time>2022-07-21T07:57:30.000Z</time>
      </trkpt>
      <trkpt lat="44.10976" lon="6.97231">
        <ele>1714.8000488281</ele>
        <time>2022-07-21T07:57:34.000Z</time>
      </trkpt>
      <trkpt lat="44.10978" lon="6.97228">
        <ele>1715.1999511719</ele>
        <time>2022-07-21T07:57:35.000Z</time>
      </trkpt>
      <trkpt lat="44.1098" lon="6.97222">
        <ele>1716.1999511719</ele>
        <time>2022-07-21T07:57:37.000Z</time>
      </trkpt>
      <trkpt lat="44.10981" lon="6.97216">
        <ele>1717.1999511719</ele>
        <time>2022-07-21T07:57:40.000Z</time>
      </trkpt>
      <trkpt lat="44.1098" lon="6.97214">
        <ele>1717.5999755859</ele>
        <time>2022-07-21T07:57:41.000Z</time>
      </trkpt>
      <trkpt lat="44.10974" lon="6.9721">
        <ele>1718.4000244141</ele>
        <time>2022-07-21T07:57:44.000Z</time>
      </trkpt>
      <trkpt lat="44.10972" lon="6.97209">
        <ele>1718.4000244141</ele>
        <time>2022-07-21T07:57:45.000Z</time>
      </trkpt>
      <trkpt lat="44.10962" lon="6.97199">
        <ele>1718.8000488281</ele>
        <time>2022-07-21T07:57:51.000Z</time>
      </trkpt>
      <trkpt lat="44.10954" lon="6.97187">
        <ele>1719.1999511719</ele>
        <time>2022-07-21T07:57:57.000Z</time>
      </trkpt>
      <trkpt lat="44.10952" lon="6.97184">
        <ele>1719.4000244141</ele>
        <time>2022-07-21T07:57:59.000Z</time>
      </trkpt>
      <trkpt lat="44.10949" lon="6.97173">
        <ele>1720</ele>
        <time>2022-07-21T07:58:03.000Z</time>
      </trkpt>
      <trkpt lat="44.10947" lon="6.97167">
        <ele>1720.8000488281</ele>
        <time>2022-07-21T07:58:06.000Z</time>
      </trkpt>
      <trkpt lat="44.10945" lon="6.97162">
        <ele>1721.1999511719</ele>
        <time>2022-07-21T07:58:08.000Z</time>
      </trkpt>
      <trkpt lat="44.10943" lon="6.97156">
        <ele>1721.8000488281</ele>
        <time>2022-07-21T07:58:10.000Z</time>
      </trkpt>
      <trkpt lat="44.1094" lon="6.9715">
        <ele>1722.8000488281</ele>
        <time>2022-07-21T07:58:13.000Z</time>
      </trkpt>
      <trkpt lat="44.10933" lon="6.97142">
        <ele>1724</ele>
        <time>2022-07-21T07:58:17.000Z</time>
      </trkpt>
      <trkpt lat="44.10931" lon="6.97137">
        <ele>1724</ele>
        <time>2022-07-21T07:58:19.000Z</time>
      </trkpt>
      <trkpt lat="44.10923" lon="6.97126">
        <ele>1725</ele>
        <time>2022-07-21T07:58:24.000Z</time>
      </trkpt>
      <trkpt lat="44.10922" lon="6.97125">
        <ele>1725.1999511719</ele>
        <time>2022-07-21T07:58:25.000Z</time>
      </trkpt>
      <trkpt lat="44.10916" lon="6.97118">
        <ele>1726.1999511719</ele>
        <time>2022-07-21T07:58:29.000Z</time>
      </trkpt>
      <trkpt lat="44.10914" lon="6.97115">
        <ele>1726.4000244141</ele>
        <time>2022-07-21T07:58:30.000Z</time>
      </trkpt>
      <trkpt lat="44.10909" lon="6.97106">
        <ele>1727.1999511719</ele>
        <time>2022-07-21T07:58:34.000Z</time>
      </trkpt>
      <trkpt lat="44.10908" lon="6.97105">
        <ele>1727.5999755859</ele>
        <time>2022-07-21T07:58:35.000Z</time>
      </trkpt>
      <trkpt lat="44.10904" lon="6.97097">
        <ele>1728.5999755859</ele>
        <time>2022-07-21T07:58:39.000Z</time>
      </trkpt>
      <trkpt lat="44.10898" lon="6.97088">
        <ele>1729.5999755859</ele>
        <time>2022-07-21T07:58:44.000Z</time>
      </trkpt>
      <trkpt lat="44.10894" lon="6.97077">
        <ele>1730.5999755859</ele>
        <time>2022-07-21T07:58:48.000Z</time>
      </trkpt>
      <trkpt lat="44.10892" lon="6.97075">
        <ele>1731</ele>
        <time>2022-07-21T07:58:49.000Z</time>
      </trkpt>
      <trkpt lat="44.10889" lon="6.97071">
        <ele>1731.8000488281</ele>
        <time>2022-07-21T07:58:51.000Z</time>
      </trkpt>
      <trkpt lat="44.10881" lon="6.97061">
        <ele>1733</ele>
        <time>2022-07-21T07:58:56.000Z</time>
      </trkpt>
      <trkpt lat="44.10874" lon="6.97054">
        <ele>1734.1999511719</ele>
        <time>2022-07-21T07:59:00.000Z</time>
      </trkpt>
      <trkpt lat="44.10873" lon="6.97053">
        <ele>1734.5999755859</ele>
        <time>2022-07-21T07:59:01.000Z</time>
      </trkpt>
      <trkpt lat="44.10865" lon="6.97042">
        <ele>1735.1999511719</ele>
        <time>2022-07-21T07:59:06.000Z</time>
      </trkpt>
      <trkpt lat="44.10858" lon="6.97032">
        <ele>1736</ele>
        <time>2022-07-21T07:59:11.000Z</time>
      </trkpt>
      <trkpt lat="44.10855" lon="6.97029">
        <ele>1736.4000244141</ele>
        <time>2022-07-21T07:59:13.000Z</time>
      </trkpt>
      <trkpt lat="44.10847" lon="6.97024">
        <ele>1737</ele>
        <time>2022-07-21T07:59:17.000Z</time>
      </trkpt>
      <trkpt lat="44.10841" lon="6.97014">
        <ele>1737.4000244141</ele>
        <time>2022-07-21T07:59:21.000Z</time>
      </trkpt>
      <trkpt lat="44.1084" lon="6.97012">
        <ele>1737.4000244141</ele>
        <time>2022-07-21T07:59:22.000Z</time>
      </trkpt>
      <trkpt lat="44.1083" lon="6.97001">
        <ele>1737.1999511719</ele>
        <time>2022-07-21T07:59:27.000Z</time>
      </trkpt>
      <trkpt lat="44.10821" lon="6.96992">
        <ele>1737.4000244141</ele>
        <time>2022-07-21T07:59:33.000Z</time>
      </trkpt>
      <trkpt lat="44.1082" lon="6.96989">
        <ele>1737.4000244141</ele>
        <time>2022-07-21T07:59:34.000Z</time>
      </trkpt>
      <trkpt lat="44.10817" lon="6.96984">
        <ele>1737.4000244141</ele>
        <time>2022-07-21T07:59:37.000Z</time>
      </trkpt>
      <trkpt lat="44.10806" lon="6.96982">
        <ele>1737</ele>
        <time>2022-07-21T07:59:41.000Z</time>
      </trkpt>
      <trkpt lat="44.10794" lon="6.96986">
        <ele>1737</ele>
        <time>2022-07-21T07:59:45.000Z</time>
      </trkpt>
      <trkpt lat="44.10782" lon="6.96986">
        <ele>1736.1999511719</ele>
        <time>2022-07-21T07:59:49.000Z</time>
      </trkpt>
      <trkpt lat="44.10781" lon="6.96988">
        <ele>1736</ele>
        <time>2022-07-21T07:59:50.000Z</time>
      </trkpt>
      <trkpt lat="44.1077" lon="6.96994">
        <ele>1735.4000244141</ele>
        <time>2022-07-21T07:59:55.000Z</time>
      </trkpt>
      <trkpt lat="44.10766" lon="6.96995">
        <ele>1735.4000244141</ele>
        <time>2022-07-21T07:59:56.000Z</time>
      </trkpt>
      <trkpt lat="44.10763" lon="6.96995">
        <ele>1735.1999511719</ele>
        <time>2022-07-21T07:59:57.000Z</time>
      </trkpt>
      <trkpt lat="44.10753" lon="6.96998">
        <ele>1734.8000488281</ele>
        <time>2022-07-21T08:00:00.000Z</time>
      </trkpt>
      <trkpt lat="44.10738" lon="6.96998">
        <ele>1734.1999511719</ele>
        <time>2022-07-21T08:00:05.000Z</time>
      </trkpt>
      <trkpt lat="44.10734" lon="6.96998">
        <ele>1734</ele>
        <time>2022-07-21T08:00:06.000Z</time>
      </trkpt>
      <trkpt lat="44.10725" lon="6.96997">
        <ele>1732.8000488281</ele>
        <time>2022-07-21T08:00:09.000Z</time>
      </trkpt>
      <trkpt lat="44.10718" lon="6.96997">
        <ele>1732.5999755859</ele>
        <time>2022-07-21T08:00:12.000Z</time>
      </trkpt>
      <trkpt lat="44.10707" lon="6.96991">
        <ele>1732.1999511719</ele>
        <time>2022-07-21T08:00:17.000Z</time>
      </trkpt>
      <trkpt lat="44.107" lon="6.96983">
        <ele>1731.8000488281</ele>
        <time>2022-07-21T08:00:21.000Z</time>
      </trkpt>
      <trkpt lat="44.10698" lon="6.96982">
        <ele>1731.8000488281</ele>
        <time>2022-07-21T08:00:22.000Z</time>
      </trkpt>
      <trkpt lat="44.10695" lon="6.96982">
        <ele>1731.4000244141</ele>
        <time>2022-07-21T08:00:24.000Z</time>
      </trkpt>
      <trkpt lat="44.1069" lon="6.96987">
        <ele>1731.4000244141</ele>
        <time>2022-07-21T08:00:26.000Z</time>
      </trkpt>
      <trkpt lat="44.10681" lon="6.96982">
        <ele>1731.8000488281</ele>
        <time>2022-07-21T08:00:29.000Z</time>
      </trkpt>
      <trkpt lat="44.10675" lon="6.9698">
        <ele>1731.8000488281</ele>
        <time>2022-07-21T08:00:31.000Z</time>
      </trkpt>
      <trkpt lat="44.10666" lon="6.9698">
        <ele>1731</ele>
        <time>2022-07-21T08:00:34.000Z</time>
      </trkpt>
      <trkpt lat="44.10663" lon="6.9698">
        <ele>1730.8000488281</ele>
        <time>2022-07-21T08:00:35.000Z</time>
      </trkpt>
      <trkpt lat="44.10659" lon="6.96981">
        <ele>1729.4000244141</ele>
        <time>2022-07-21T08:00:38.000Z</time>
      </trkpt>
      <trkpt lat="44.10649" lon="6.96978">
        <ele>1728.5999755859</ele>
        <time>2022-07-21T08:00:43.000Z</time>
      </trkpt>
      <trkpt lat="44.1064" lon="6.96981">
        <ele>1729</ele>
        <time>2022-07-21T08:00:48.000Z</time>
      </trkpt>
      <trkpt lat="44.10629" lon="6.9698">
        <ele>1730.4000244141</ele>
        <time>2022-07-21T08:00:52.000Z</time>
      </trkpt>
      <trkpt lat="44.10627" lon="6.9698">
        <ele>1730.5999755859</ele>
        <time>2022-07-21T08:00:53.000Z</time>
      </trkpt>
      <trkpt lat="44.1062" lon="6.96981">
        <ele>1730.4000244141</ele>
        <time>2022-07-21T08:00:55.000Z</time>
      </trkpt>
      <trkpt lat="44.10618" lon="6.96982">
        <ele>1730.4000244141</ele>
        <time>2022-07-21T08:00:56.000Z</time>
      </trkpt>
      <trkpt lat="44.10604" lon="6.96984">
        <ele>1730.5999755859</ele>
        <time>2022-07-21T08:01:01.000Z</time>
      </trkpt>
      <trkpt lat="44.10595" lon="6.96984">
        <ele>1730.1999511719</ele>
        <time>2022-07-21T08:01:05.000Z</time>
      </trkpt>
      <trkpt lat="44.10591" lon="6.9698">
        <ele>1729.1999511719</ele>
        <time>2022-07-21T08:01:08.000Z</time>
      </trkpt>
      <trkpt lat="44.10589" lon="6.96983">
        <ele>1729.1999511719</ele>
        <time>2022-07-21T08:01:09.000Z</time>
      </trkpt>
      <trkpt lat="44.10575" lon="6.96991">
        <ele>1729</ele>
        <time>2022-07-21T08:01:14.000Z</time>
      </trkpt>
      <trkpt lat="44.10564" lon="6.96999">
        <ele>1728.4000244141</ele>
        <time>2022-07-21T08:01:19.000Z</time>
      </trkpt>
      <trkpt lat="44.10563" lon="6.96999">
        <ele>1728.1999511719</ele>
        <time>2022-07-21T08:01:20.000Z</time>
      </trkpt>
      <trkpt lat="44.10561" lon="6.96999">
        <ele>1727.8000488281</ele>
        <time>2022-07-21T08:01:24.000Z</time>
      </trkpt>
      <trkpt lat="44.10559" lon="6.97">
        <ele>1728</ele>
        <time>2022-07-21T08:01:39.000Z</time>
      </trkpt>
      <trkpt lat="44.1055" lon="6.97002">
        <ele>1728</ele>
        <time>2022-07-21T08:01:44.000Z</time>
      </trkpt>
      <trkpt lat="44.10546" lon="6.97004">
        <ele>1727.8000488281</ele>
        <time>2022-07-21T08:01:46.000Z</time>
      </trkpt>
      <trkpt lat="44.10537" lon="6.97008">
        <ele>1727.5999755859</ele>
        <time>2022-07-21T08:01:49.000Z</time>
      </trkpt>
      <trkpt lat="44.10526" lon="6.97005">
        <ele>1727.1999511719</ele>
        <time>2022-07-21T08:01:52.000Z</time>
      </trkpt>
      <trkpt lat="44.10513" lon="6.97002">
        <ele>1726.4000244141</ele>
        <time>2022-07-21T08:01:56.000Z</time>
      </trkpt>
      <trkpt lat="44.10504" lon="6.96998">
        <ele>1726</ele>
        <time>2022-07-21T08:01:59.000Z</time>
      </trkpt>
      <trkpt lat="44.105" lon="6.96996">
        <ele>1725.5999755859</ele>
        <time>2022-07-21T08:02:01.000Z</time>
      </trkpt>
      <trkpt lat="44.1049" lon="6.96994">
        <ele>1725.4000244141</ele>
        <time>2022-07-21T08:02:04.000Z</time>
      </trkpt>
      <trkpt lat="44.10489" lon="6.96993">
        <ele>1725.4000244141</ele>
        <time>2022-07-21T08:02:05.000Z</time>
      </trkpt>
      <trkpt lat="44.10483" lon="6.96984">
        <ele>1725</ele>
        <time>2022-07-21T08:02:07.000Z</time>
      </trkpt>
      <trkpt lat="44.10483" lon="6.96982">
        <ele>1724.5999755859</ele>
        <time>2022-07-21T08:02:08.000Z</time>
      </trkpt>
      <trkpt lat="44.10477" lon="6.96984">
        <ele>1723.1999511719</ele>
        <time>2022-07-21T08:02:11.000Z</time>
      </trkpt>
      <trkpt lat="44.10469" lon="6.96985">
        <ele>1722.5999755859</ele>
        <time>2022-07-21T08:02:13.000Z</time>
      </trkpt>
      <trkpt lat="44.10463" lon="6.96983">
        <ele>1721.8000488281</ele>
        <time>2022-07-21T08:02:15.000Z</time>
      </trkpt>
      <trkpt lat="44.10451" lon="6.96974">
        <ele>1721.5999755859</ele>
        <time>2022-07-21T08:02:19.000Z</time>
      </trkpt>
      <trkpt lat="44.10443" lon="6.96968">
        <ele>1721.8000488281</ele>
        <time>2022-07-21T08:02:21.000Z</time>
      </trkpt>
      <trkpt lat="44.10436" lon="6.96964">
        <ele>1720.8000488281</ele>
        <time>2022-07-21T08:02:23.000Z</time>
      </trkpt>
      <trkpt lat="44.10432" lon="6.96964">
        <ele>1720.5999755859</ele>
        <time>2022-07-21T08:02:24.000Z</time>
      </trkpt>
      <trkpt lat="44.10424" lon="6.9696">
        <ele>1719.5999755859</ele>
        <time>2022-07-21T08:02:26.000Z</time>
      </trkpt>
      <trkpt lat="44.10421" lon="6.96958">
        <ele>1719.4000244141</ele>
        <time>2022-07-21T08:02:27.000Z</time>
      </trkpt>
      <trkpt lat="44.10416" lon="6.96954">
        <ele>1719</ele>
        <time>2022-07-21T08:02:28.000Z</time>
      </trkpt>
      <trkpt lat="44.10413" lon="6.9695">
        <ele>1718.5999755859</ele>
        <time>2022-07-21T08:02:29.000Z</time>
      </trkpt>
      <trkpt lat="44.1041" lon="6.96941">
        <ele>1718.4000244141</ele>
        <time>2022-07-21T08:02:31.000Z</time>
      </trkpt>
      <trkpt lat="44.10394" lon="6.96929">
        <ele>1716.8000488281</ele>
        <time>2022-07-21T08:02:35.000Z</time>
      </trkpt>
      <trkpt lat="44.1039" lon="6.96924">
        <ele>1715.8000488281</ele>
        <time>2022-07-21T08:02:36.000Z</time>
      </trkpt>
      <trkpt lat="44.10386" lon="6.96921">
        <ele>1714.8000488281</ele>
        <time>2022-07-21T08:02:38.000Z</time>
      </trkpt>
      <trkpt lat="44.10385" lon="6.96915">
        <ele>1713.8000488281</ele>
        <time>2022-07-21T08:02:40.000Z</time>
      </trkpt>
      <trkpt lat="44.1038" lon="6.96908">
        <ele>1713.1999511719</ele>
        <time>2022-07-21T08:02:42.000Z</time>
      </trkpt>
      <trkpt lat="44.1038" lon="6.96906">
        <ele>1713.5999755859</ele>
        <time>2022-07-21T08:02:45.000Z</time>
      </trkpt>
      <trkpt lat="44.1038" lon="6.96905">
        <ele>1714.4000244141</ele>
        <time>2022-07-21T08:02:51.000Z</time>
      </trkpt>
      <trkpt lat="44.10379" lon="6.96904">
        <ele>1714.8000488281</ele>
        <time>2022-07-21T08:02:53.000Z</time>
      </trkpt>
      <trkpt lat="44.10378" lon="6.96902">
        <ele>1715.4000244141</ele>
        <time>2022-07-21T08:02:57.000Z</time>
      </trkpt>
      <trkpt lat="44.10375" lon="6.969">
        <ele>1715.1999511719</ele>
        <time>2022-07-21T08:03:02.000Z</time>
      </trkpt>
      <trkpt lat="44.10372" lon="6.96899">
        <ele>1715.1999511719</ele>
        <time>2022-07-21T08:03:03.000Z</time>
      </trkpt>
      <trkpt lat="44.10361" lon="6.96888">
        <ele>1713.8000488281</ele>
        <time>2022-07-21T08:03:07.000Z</time>
      </trkpt>
      <trkpt lat="44.10354" lon="6.96877">
        <ele>1712.5999755859</ele>
        <time>2022-07-21T08:03:10.000Z</time>
      </trkpt>
      <trkpt lat="44.10344" lon="6.96862">
        <ele>1711.8000488281</ele>
        <time>2022-07-21T08:03:13.000Z</time>
      </trkpt>
      <trkpt lat="44.10342" lon="6.96856">
        <ele>1711.4000244141</ele>
        <time>2022-07-21T08:03:14.000Z</time>
      </trkpt>
      <trkpt lat="44.10337" lon="6.96843">
        <ele>1710.4000244141</ele>
        <time>2022-07-21T08:03:16.000Z</time>
      </trkpt>
      <trkpt lat="44.10334" lon="6.9684">
        <ele>1709.8000488281</ele>
        <time>2022-07-21T08:03:17.000Z</time>
      </trkpt>
      <trkpt lat="44.10332" lon="6.9684">
        <ele>1709.1999511719</ele>
        <time>2022-07-21T08:03:18.000Z</time>
      </trkpt>
      <trkpt lat="44.10329" lon="6.96837">
        <ele>1708.4000244141</ele>
        <time>2022-07-21T08:03:20.000Z</time>
      </trkpt>
      <trkpt lat="44.10326" lon="6.96841">
        <ele>1708</ele>
        <time>2022-07-21T08:03:22.000Z</time>
      </trkpt>
      <trkpt lat="44.10326" lon="6.96843">
        <ele>1708</ele>
        <time>2022-07-21T08:03:23.000Z</time>
      </trkpt>
      <trkpt lat="44.10326" lon="6.96847">
        <ele>1708.1999511719</ele>
        <time>2022-07-21T08:03:24.000Z</time>
      </trkpt>
      <trkpt lat="44.10325" lon="6.96846">
        <ele>1708.4000244141</ele>
        <time>2022-07-21T08:03:27.000Z</time>
      </trkpt>
      <trkpt lat="44.10321" lon="6.96854">
        <ele>1708.8000488281</ele>
        <time>2022-07-21T08:03:40.000Z</time>
      </trkpt>
      <trkpt lat="44.10316" lon="6.96861">
        <ele>1709</ele>
        <time>2022-07-21T08:03:42.000Z</time>
      </trkpt>
      <trkpt lat="44.10312" lon="6.96865">
        <ele>1709.4000244141</ele>
        <time>2022-07-21T08:03:44.000Z</time>
      </trkpt>
      <trkpt lat="44.10311" lon="6.96867">
        <ele>1709.8000488281</ele>
        <time>2022-07-21T08:03:45.000Z</time>
      </trkpt>
      <trkpt lat="44.10309" lon="6.9687">
        <ele>1710</ele>
        <time>2022-07-21T08:03:46.000Z</time>
      </trkpt>
      <trkpt lat="44.10307" lon="6.96871">
        <ele>1710.5999755859</ele>
        <time>2022-07-21T08:03:47.000Z</time>
      </trkpt>
      <trkpt lat="44.10304" lon="6.96873">
        <ele>1711.1999511719</ele>
        <time>2022-07-21T08:03:48.000Z</time>
      </trkpt>
      <trkpt lat="44.103" lon="6.96877">
        <ele>1712.5999755859</ele>
        <time>2022-07-21T08:03:50.000Z</time>
      </trkpt>
      <trkpt lat="44.10297" lon="6.96881">
        <ele>1714</ele>
        <time>2022-07-21T08:03:52.000Z</time>
      </trkpt>
      <trkpt lat="44.10295" lon="6.96883">
        <ele>1714.5999755859</ele>
        <time>2022-07-21T08:03:53.000Z</time>
      </trkpt>
      <trkpt lat="44.10294" lon="6.96884">
        <ele>1715.1999511719</ele>
        <time>2022-07-21T08:03:54.000Z</time>
      </trkpt>
      <trkpt lat="44.10289" lon="6.96889">
        <ele>1716.5999755859</ele>
        <time>2022-07-21T08:03:57.000Z</time>
      </trkpt>
      <trkpt lat="44.10284" lon="6.96893">
        <ele>1717.1999511719</ele>
        <time>2022-07-21T08:04:00.000Z</time>
      </trkpt>
      <trkpt lat="44.10281" lon="6.96894">
        <ele>1717.5999755859</ele>
        <time>2022-07-21T08:04:01.000Z</time>
      </trkpt>
      <trkpt lat="44.10277" lon="6.96896">
        <ele>1719</ele>
        <time>2022-07-21T08:04:04.000Z</time>
      </trkpt>
      <trkpt lat="44.10274" lon="6.96897">
        <ele>1719.8000488281</ele>
        <time>2022-07-21T08:04:06.000Z</time>
      </trkpt>
      <trkpt lat="44.10271" lon="6.96898">
        <ele>1720</ele>
        <time>2022-07-21T08:04:07.000Z</time>
      </trkpt>
      <trkpt lat="44.10264" lon="6.96908">
        <ele>1720</ele>
        <time>2022-07-21T08:04:11.000Z</time>
      </trkpt>
      <trkpt lat="44.10257" lon="6.96924">
        <ele>1720.4000244141</ele>
        <time>2022-07-21T08:04:17.000Z</time>
      </trkpt>
      <trkpt lat="44.10256" lon="6.96926">
        <ele>1721.1999511719</ele>
        <time>2022-07-21T08:04:21.000Z</time>
      </trkpt>
      <trkpt lat="44.1025" lon="6.96937">
        <ele>1721.5999755859</ele>
        <time>2022-07-21T08:04:26.000Z</time>
      </trkpt>
      <trkpt lat="44.10242" lon="6.96947">
        <ele>1721.8000488281</ele>
        <time>2022-07-21T08:04:30.000Z</time>
      </trkpt>
      <trkpt lat="44.10235" lon="6.96954">
        <ele>1722.4000244141</ele>
        <time>2022-07-21T08:04:33.000Z</time>
      </trkpt>
      <trkpt lat="44.1023" lon="6.96958">
        <ele>1722.4000244141</ele>
        <time>2022-07-21T08:04:35.000Z</time>
      </trkpt>
      <trkpt lat="44.10222" lon="6.96968">
        <ele>1722.5999755859</ele>
        <time>2022-07-21T08:04:40.000Z</time>
      </trkpt>
      <trkpt lat="44.10212" lon="6.96976">
        <ele>1722.8000488281</ele>
        <time>2022-07-21T08:04:45.000Z</time>
      </trkpt>
      <trkpt lat="44.10205" lon="6.96984">
        <ele>1723.4000244141</ele>
        <time>2022-07-21T08:04:49.000Z</time>
      </trkpt>
      <trkpt lat="44.10203" lon="6.96986">
        <ele>1723.5999755859</ele>
        <time>2022-07-21T08:04:50.000Z</time>
      </trkpt>
      <trkpt lat="44.10186" lon="6.97">
        <ele>1723.4000244141</ele>
        <time>2022-07-21T08:04:56.000Z</time>
      </trkpt>
      <trkpt lat="44.10171" lon="6.96999">
        <ele>1723</ele>
        <time>2022-07-21T08:05:01.000Z</time>
      </trkpt>
      <trkpt lat="44.10157" lon="6.96997">
        <ele>1722.4000244141</ele>
        <time>2022-07-21T08:05:06.000Z</time>
      </trkpt>
      <trkpt lat="44.10153" lon="6.96996">
        <ele>1722.4000244141</ele>
        <time>2022-07-21T08:05:07.000Z</time>
      </trkpt>
      <trkpt lat="44.10139" lon="6.96995">
        <ele>1722.1999511719</ele>
        <time>2022-07-21T08:05:11.000Z</time>
      </trkpt>
      <trkpt lat="44.1011" lon="6.96998">
        <ele>1720.8000488281</ele>
        <time>2022-07-21T08:05:17.000Z</time>
      </trkpt>
      <trkpt lat="44.10084" lon="6.97002">
        <ele>1720</ele>
        <time>2022-07-21T08:05:22.000Z</time>
      </trkpt>
      <trkpt lat="44.10073" lon="6.97004">
        <ele>1719.5999755859</ele>
        <time>2022-07-21T08:05:24.000Z</time>
      </trkpt>
      <trkpt lat="44.10057" lon="6.9701">
        <ele>1718.5999755859</ele>
        <time>2022-07-21T08:05:27.000Z</time>
      </trkpt>
      <trkpt lat="44.10034" lon="6.97017">
        <ele>1717.5999755859</ele>
        <time>2022-07-21T08:05:31.000Z</time>
      </trkpt>
      <trkpt lat="44.10028" lon="6.97017">
        <ele>1717</ele>
        <time>2022-07-21T08:05:32.000Z</time>
      </trkpt>
      <trkpt lat="44.10022" lon="6.97016">
        <ele>1717.1999511719</ele>
        <time>2022-07-21T08:05:33.000Z</time>
      </trkpt>
      <trkpt lat="44.10004" lon="6.97012">
        <ele>1715.5999755859</ele>
        <time>2022-07-21T08:05:36.000Z</time>
      </trkpt>
      <trkpt lat="44.09998" lon="6.9701">
        <ele>1715.1999511719</ele>
        <time>2022-07-21T08:05:37.000Z</time>
      </trkpt>
      <trkpt lat="44.09993" lon="6.97008">
        <ele>1714</ele>
        <time>2022-07-21T08:05:38.000Z</time>
      </trkpt>
      <trkpt lat="44.09988" lon="6.97005">
        <ele>1713.4000244141</ele>
        <time>2022-07-21T08:05:39.000Z</time>
      </trkpt>
      <trkpt lat="44.09982" lon="6.97004">
        <ele>1713</ele>
        <time>2022-07-21T08:05:40.000Z</time>
      </trkpt>
      <trkpt lat="44.0997" lon="6.97">
        <ele>1712.5999755859</ele>
        <time>2022-07-21T08:05:42.000Z</time>
      </trkpt>
      <trkpt lat="44.09964" lon="6.96998">
        <ele>1712.8000488281</ele>
        <time>2022-07-21T08:05:43.000Z</time>
      </trkpt>
      <trkpt lat="44.09945" lon="6.96988">
        <ele>1712</ele>
        <time>2022-07-21T08:05:47.000Z</time>
      </trkpt>
      <trkpt lat="44.09941" lon="6.96985">
        <ele>1711.4000244141</ele>
        <time>2022-07-21T08:05:48.000Z</time>
      </trkpt>
      <trkpt lat="44.09935" lon="6.96977">
        <ele>1710.5999755859</ele>
        <time>2022-07-21T08:05:50.000Z</time>
      </trkpt>
      <trkpt lat="44.09927" lon="6.9697">
        <ele>1709.4000244141</ele>
        <time>2022-07-21T08:05:52.000Z</time>
      </trkpt>
      <trkpt lat="44.09919" lon="6.96962">
        <ele>1708.4000244141</ele>
        <time>2022-07-21T08:05:54.000Z</time>
      </trkpt>
      <trkpt lat="44.09915" lon="6.96961">
        <ele>1707.5999755859</ele>
        <time>2022-07-21T08:05:55.000Z</time>
      </trkpt>
      <trkpt lat="44.09909" lon="6.9696">
        <ele>1706.5999755859</ele>
        <time>2022-07-21T08:05:56.000Z</time>
      </trkpt>
      <trkpt lat="44.09904" lon="6.96957">
        <ele>1705.5999755859</ele>
        <time>2022-07-21T08:05:57.000Z</time>
      </trkpt>
      <trkpt lat="44.09898" lon="6.96953">
        <ele>1704.1999511719</ele>
        <time>2022-07-21T08:05:58.000Z</time>
      </trkpt>
      <trkpt lat="44.09893" lon="6.96948">
        <ele>1703</ele>
        <time>2022-07-21T08:05:59.000Z</time>
      </trkpt>
      <trkpt lat="44.09887" lon="6.96943">
        <ele>1701.4000244141</ele>
        <time>2022-07-21T08:06:00.000Z</time>
      </trkpt>
      <trkpt lat="44.09881" lon="6.96939">
        <ele>1700.1999511719</ele>
        <time>2022-07-21T08:06:01.000Z</time>
      </trkpt>
      <trkpt lat="44.09873" lon="6.96932">
        <ele>1698.5999755859</ele>
        <time>2022-07-21T08:06:03.000Z</time>
      </trkpt>
      <trkpt lat="44.09871" lon="6.96926">
        <ele>1697.5999755859</ele>
        <time>2022-07-21T08:06:04.000Z</time>
      </trkpt>
      <trkpt lat="44.09868" lon="6.96922">
        <ele>1697.1999511719</ele>
        <time>2022-07-21T08:06:05.000Z</time>
      </trkpt>
      <trkpt lat="44.09866" lon="6.96916">
        <ele>1697</ele>
        <time>2022-07-21T08:06:06.000Z</time>
      </trkpt>
      <trkpt lat="44.09863" lon="6.96914">
        <ele>1695.8000488281</ele>
        <time>2022-07-21T08:06:07.000Z</time>
      </trkpt>
      <trkpt lat="44.0986" lon="6.96914">
        <ele>1695.8000488281</ele>
        <time>2022-07-21T08:06:08.000Z</time>
      </trkpt>
      <trkpt lat="44.09853" lon="6.9691">
        <ele>1696</ele>
        <time>2022-07-21T08:06:10.000Z</time>
      </trkpt>
      <trkpt lat="44.0984" lon="6.969">
        <ele>1695.4000244141</ele>
        <time>2022-07-21T08:06:13.000Z</time>
      </trkpt>
      <trkpt lat="44.09835" lon="6.96897">
        <ele>1694.5999755859</ele>
        <time>2022-07-21T08:06:14.000Z</time>
      </trkpt>
      <trkpt lat="44.0982" lon="6.96889">
        <ele>1693.1999511719</ele>
        <time>2022-07-21T08:06:17.000Z</time>
      </trkpt>
      <trkpt lat="44.09809" lon="6.96884">
        <ele>1691.4000244141</ele>
        <time>2022-07-21T08:06:19.000Z</time>
      </trkpt>
      <trkpt lat="44.09805" lon="6.9688">
        <ele>1691</ele>
        <time>2022-07-21T08:06:20.000Z</time>
      </trkpt>
      <trkpt lat="44.09801" lon="6.96878">
        <ele>1690.1999511719</ele>
        <time>2022-07-21T08:06:21.000Z</time>
      </trkpt>
      <trkpt lat="44.09798" lon="6.96877">
        <ele>1690</ele>
        <time>2022-07-21T08:06:22.000Z</time>
      </trkpt>
      <trkpt lat="44.09793" lon="6.96874">
        <ele>1689.5999755859</ele>
        <time>2022-07-21T08:06:24.000Z</time>
      </trkpt>
      <trkpt lat="44.09785" lon="6.96876">
        <ele>1689.5999755859</ele>
        <time>2022-07-21T08:06:26.000Z</time>
      </trkpt>
      <trkpt lat="44.09773" lon="6.96874">
        <ele>1689.4000244141</ele>
        <time>2022-07-21T08:06:28.000Z</time>
      </trkpt>
      <trkpt lat="44.09769" lon="6.96871">
        <ele>1689</ele>
        <time>2022-07-21T08:06:29.000Z</time>
      </trkpt>
      <trkpt lat="44.09755" lon="6.96864">
        <ele>1687.8000488281</ele>
        <time>2022-07-21T08:06:32.000Z</time>
      </trkpt>
      <trkpt lat="44.09746" lon="6.96859">
        <ele>1687.1999511719</ele>
        <time>2022-07-21T08:06:34.000Z</time>
      </trkpt>
      <trkpt lat="44.09733" lon="6.96849">
        <ele>1687.4000244141</ele>
        <time>2022-07-21T08:06:39.000Z</time>
      </trkpt>
      <trkpt lat="44.09732" lon="6.96849">
        <ele>1687.5999755859</ele>
        <time>2022-07-21T08:06:40.000Z</time>
      </trkpt>
      <trkpt lat="44.09728" lon="6.96848">
        <ele>1686.5999755859</ele>
        <time>2022-07-21T08:06:41.000Z</time>
      </trkpt>
      <trkpt lat="44.09722" lon="6.96844">
        <ele>1686.5999755859</ele>
        <time>2022-07-21T08:06:43.000Z</time>
      </trkpt>
      <trkpt lat="44.09712" lon="6.96837">
        <ele>1686.4000244141</ele>
        <time>2022-07-21T08:06:48.000Z</time>
      </trkpt>
      <trkpt lat="44.09703" lon="6.96829">
        <ele>1686.5999755859</ele>
        <time>2022-07-21T08:06:53.000Z</time>
      </trkpt>
      <trkpt lat="44.09699" lon="6.9682">
        <ele>1687.4000244141</ele>
        <time>2022-07-21T08:06:57.000Z</time>
      </trkpt>
      <trkpt lat="44.09697" lon="6.9682">
        <ele>1688</ele>
        <time>2022-07-21T08:06:58.000Z</time>
      </trkpt>
      <trkpt lat="44.09693" lon="6.96819">
        <ele>1689</ele>
        <time>2022-07-21T08:07:01.000Z</time>
      </trkpt>
      <trkpt lat="44.0969" lon="6.96818">
        <ele>1689.1999511719</ele>
        <time>2022-07-21T08:07:02.000Z</time>
      </trkpt>
      <trkpt lat="44.09686" lon="6.96815">
        <ele>1688.8000488281</ele>
        <time>2022-07-21T08:07:07.000Z</time>
      </trkpt>
      <trkpt lat="44.09686" lon="6.96816">
        <ele>1689</ele>
        <time>2022-07-21T08:07:20.000Z</time>
      </trkpt>
      <trkpt lat="44.09689" lon="6.96817">
        <ele>1689.1999511719</ele>
        <time>2022-07-21T08:07:49.000Z</time>
      </trkpt>
      <trkpt lat="44.09684" lon="6.96816">
        <ele>1689.1999511719</ele>
        <time>2022-07-21T08:07:54.000Z</time>
      </trkpt>
      <trkpt lat="44.09671" lon="6.9681">
        <ele>1689.1999511719</ele>
        <time>2022-07-21T08:07:59.000Z</time>
      </trkpt>
      <trkpt lat="44.09669" lon="6.9681">
        <ele>1689.1999511719</ele>
        <time>2022-07-21T08:08:00.000Z</time>
      </trkpt>
      <trkpt lat="44.09661" lon="6.96809">
        <ele>1689.4000244141</ele>
        <time>2022-07-21T08:08:02.000Z</time>
      </trkpt>
      <trkpt lat="44.09641" lon="6.96805">
        <ele>1689</ele>
        <time>2022-07-21T08:08:06.000Z</time>
      </trkpt>
      <trkpt lat="44.09631" lon="6.96805">
        <ele>1687.4000244141</ele>
        <time>2022-07-21T08:08:08.000Z</time>
      </trkpt>
      <trkpt lat="44.09622" lon="6.96804">
        <ele>1686.1999511719</ele>
        <time>2022-07-21T08:08:10.000Z</time>
      </trkpt>
      <trkpt lat="44.09611" lon="6.968">
        <ele>1685.1999511719</ele>
        <time>2022-07-21T08:08:13.000Z</time>
      </trkpt>
      <trkpt lat="44.09594" lon="6.96795">
        <ele>1685.8000488281</ele>
        <time>2022-07-21T08:08:19.000Z</time>
      </trkpt>
      <trkpt lat="44.09571" lon="6.96792">
        <ele>1685.1999511719</ele>
        <time>2022-07-21T08:08:24.000Z</time>
      </trkpt>
      <trkpt lat="44.09566" lon="6.96791">
        <ele>1684.4000244141</ele>
        <time>2022-07-21T08:08:25.000Z</time>
      </trkpt>
      <trkpt lat="44.09561" lon="6.96789">
        <ele>1684.4000244141</ele>
        <time>2022-07-21T08:08:26.000Z</time>
      </trkpt>
      <trkpt lat="44.09554" lon="6.96779">
        <ele>1684</ele>
        <time>2022-07-21T08:08:28.000Z</time>
      </trkpt>
      <trkpt lat="44.09549" lon="6.96768">
        <ele>1683</ele>
        <time>2022-07-21T08:08:30.000Z</time>
      </trkpt>
      <trkpt lat="44.09547" lon="6.96762">
        <ele>1682.5999755859</ele>
        <time>2022-07-21T08:08:31.000Z</time>
      </trkpt>
      <trkpt lat="44.09545" lon="6.96757">
        <ele>1681.8000488281</ele>
        <time>2022-07-21T08:08:32.000Z</time>
      </trkpt>
      <trkpt lat="44.09543" lon="6.96743">
        <ele>1679.4000244141</ele>
        <time>2022-07-21T08:08:34.000Z</time>
      </trkpt>
      <trkpt lat="44.09543" lon="6.96735">
        <ele>1678.4000244141</ele>
        <time>2022-07-21T08:08:35.000Z</time>
      </trkpt>
      <trkpt lat="44.09544" lon="6.96725">
        <ele>1677.1999511719</ele>
        <time>2022-07-21T08:08:36.000Z</time>
      </trkpt>
      <trkpt lat="44.09549" lon="6.96708">
        <ele>1675</ele>
        <time>2022-07-21T08:08:38.000Z</time>
      </trkpt>
      <trkpt lat="44.09551" lon="6.967">
        <ele>1674.5999755859</ele>
        <time>2022-07-21T08:08:39.000Z</time>
      </trkpt>
      <trkpt lat="44.09552" lon="6.96693">
        <ele>1674.4000244141</ele>
        <time>2022-07-21T08:08:40.000Z</time>
      </trkpt>
      <trkpt lat="44.09552" lon="6.96685">
        <ele>1673.5999755859</ele>
        <time>2022-07-21T08:08:41.000Z</time>
      </trkpt>
      <trkpt lat="44.09549" lon="6.96672">
        <ele>1672.8000488281</ele>
        <time>2022-07-21T08:08:43.000Z</time>
      </trkpt>
      <trkpt lat="44.09546" lon="6.96669">
        <ele>1672.8000488281</ele>
        <time>2022-07-21T08:08:44.000Z</time>
      </trkpt>
      <trkpt lat="44.09542" lon="6.96666">
        <ele>1672.4000244141</ele>
        <time>2022-07-21T08:08:45.000Z</time>
      </trkpt>
      <trkpt lat="44.09538" lon="6.96663">
        <ele>1672.4000244141</ele>
        <time>2022-07-21T08:08:46.000Z</time>
      </trkpt>
      <trkpt lat="44.09525" lon="6.96658">
        <ele>1673</ele>
        <time>2022-07-21T08:08:50.000Z</time>
      </trkpt>
      <trkpt lat="44.09523" lon="6.96657">
        <ele>1673.4000244141</ele>
        <time>2022-07-21T08:08:51.000Z</time>
      </trkpt>
      <trkpt lat="44.09519" lon="6.96656">
        <ele>1674.4000244141</ele>
        <time>2022-07-21T08:08:54.000Z</time>
      </trkpt>
      <trkpt lat="44.09517" lon="6.96654">
        <ele>1675.1999511719</ele>
        <time>2022-07-21T08:08:56.000Z</time>
      </trkpt>
      <trkpt lat="44.09515" lon="6.96652">
        <ele>1675.5999755859</ele>
        <time>2022-07-21T08:08:58.000Z</time>
      </trkpt>
      <trkpt lat="44.09508" lon="6.96651">
        <ele>1676.5999755859</ele>
        <time>2022-07-21T08:09:03.000Z</time>
      </trkpt>
      <trkpt lat="44.09507" lon="6.9665">
        <ele>1676.8000488281</ele>
        <time>2022-07-21T08:09:04.000Z</time>
      </trkpt>
      <trkpt lat="44.09503" lon="6.96649">
        <ele>1676.5999755859</ele>
        <time>2022-07-21T08:09:07.000Z</time>
      </trkpt>
      <trkpt lat="44.09501" lon="6.96643">
        <ele>1676.5999755859</ele>
        <time>2022-07-21T08:09:11.000Z</time>
      </trkpt>
      <trkpt lat="44.09502" lon="6.9664">
        <ele>1677.1999511719</ele>
        <time>2022-07-21T08:09:16.000Z</time>
      </trkpt>
      <trkpt lat="44.09501" lon="6.9664">
        <ele>1677.5999755859</ele>
        <time>2022-07-21T08:09:28.000Z</time>
      </trkpt>
      <trkpt lat="44.095" lon="6.9664">
        <ele>1677.8000488281</ele>
        <time>2022-07-21T08:09:38.000Z</time>
      </trkpt>
      <trkpt lat="44.09501" lon="6.96638">
        <ele>1678</ele>
        <time>2022-07-21T08:09:50.000Z</time>
      </trkpt>
      <trkpt lat="44.09503" lon="6.96633">
        <ele>1677.8000488281</ele>
        <time>2022-07-21T08:09:53.000Z</time>
      </trkpt>
      <trkpt lat="44.09508" lon="6.96614">
        <ele>1679</ele>
        <time>2022-07-21T08:10:00.000Z</time>
      </trkpt>
      <trkpt lat="44.09509" lon="6.9661">
        <ele>1679</ele>
        <time>2022-07-21T08:10:01.000Z</time>
      </trkpt>
      <trkpt lat="44.09513" lon="6.96592">
        <ele>1680</ele>
        <time>2022-07-21T08:10:06.000Z</time>
      </trkpt>
      <trkpt lat="44.09515" lon="6.96581">
        <ele>1681</ele>
        <time>2022-07-21T08:10:09.000Z</time>
      </trkpt>
      <trkpt lat="44.09522" lon="6.96556">
        <ele>1682.1999511719</ele>
        <time>2022-07-21T08:10:16.000Z</time>
      </trkpt>
      <trkpt lat="44.09523" lon="6.96553">
        <ele>1682.1999511719</ele>
        <time>2022-07-21T08:10:17.000Z</time>
      </trkpt>
      <trkpt lat="44.09534" lon="6.96526">
        <ele>1682.8000488281</ele>
        <time>2022-07-21T08:10:26.000Z</time>
      </trkpt>
      <trkpt lat="44.09537" lon="6.9652">
        <ele>1683.1999511719</ele>
        <time>2022-07-21T08:10:28.000Z</time>
      </trkpt>
      <trkpt lat="44.09543" lon="6.96505">
        <ele>1684.1999511719</ele>
        <time>2022-07-21T08:10:33.000Z</time>
      </trkpt>
      <trkpt lat="44.09547" lon="6.96493">
        <ele>1685.1999511719</ele>
        <time>2022-07-21T08:10:38.000Z</time>
      </trkpt>
      <trkpt lat="44.09549" lon="6.96488">
        <ele>1685.8000488281</ele>
        <time>2022-07-21T08:10:40.000Z</time>
      </trkpt>
      <trkpt lat="44.09551" lon="6.96482">
        <ele>1686.4000244141</ele>
        <time>2022-07-21T08:10:42.000Z</time>
      </trkpt>
      <trkpt lat="44.09557" lon="6.96471">
        <ele>1687.4000244141</ele>
        <time>2022-07-21T08:10:47.000Z</time>
      </trkpt>
      <trkpt lat="44.09558" lon="6.9647">
        <ele>1687.8000488281</ele>
        <time>2022-07-21T08:10:48.000Z</time>
      </trkpt>
      <trkpt lat="44.09563" lon="6.96463">
        <ele>1688.5999755859</ele>
        <time>2022-07-21T08:10:51.000Z</time>
      </trkpt>
      <trkpt lat="44.09571" lon="6.96456">
        <ele>1689.8000488281</ele>
        <time>2022-07-21T08:10:56.000Z</time>
      </trkpt>
      <trkpt lat="44.09578" lon="6.96451">
        <ele>1691</ele>
        <time>2022-07-21T08:11:00.000Z</time>
      </trkpt>
      <trkpt lat="44.09582" lon="6.96449">
        <ele>1691.8000488281</ele>
        <time>2022-07-21T08:11:03.000Z</time>
      </trkpt>
      <trkpt lat="44.09584" lon="6.96448">
        <ele>1692.1999511719</ele>
        <time>2022-07-21T08:11:04.000Z</time>
      </trkpt>
      <trkpt lat="44.0959" lon="6.96445">
        <ele>1693</ele>
        <time>2022-07-21T08:11:09.000Z</time>
      </trkpt>
      <trkpt lat="44.09591" lon="6.96445">
        <ele>1693.1999511719</ele>
        <time>2022-07-21T08:11:10.000Z</time>
      </trkpt>
      <trkpt lat="44.09599" lon="6.96446">
        <ele>1694</ele>
        <time>2022-07-21T08:11:15.000Z</time>
      </trkpt>
      <trkpt lat="44.09601" lon="6.96447">
        <ele>1694.1999511719</ele>
        <time>2022-07-21T08:11:17.000Z</time>
      </trkpt>
      <trkpt lat="44.09602" lon="6.96448">
        <ele>1694.4000244141</ele>
        <time>2022-07-21T08:11:18.000Z</time>
      </trkpt>
      <trkpt lat="44.09602" lon="6.96447">
        <ele>1694.5999755859</ele>
        <time>2022-07-21T08:11:20.000Z</time>
      </trkpt>
      <trkpt lat="44.09601" lon="6.96446">
        <ele>1694.1999511719</ele>
        <time>2022-07-21T08:11:27.000Z</time>
      </trkpt>
      <trkpt lat="44.09599" lon="6.96446">
        <ele>1694.1999511719</ele>
        <time>2022-07-21T08:11:28.000Z</time>
      </trkpt>
      <trkpt lat="44.09595" lon="6.96446">
        <ele>1694.4000244141</ele>
        <time>2022-07-21T08:11:32.000Z</time>
      </trkpt>
      <trkpt lat="44.09594" lon="6.96446">
        <ele>1694.4000244141</ele>
        <time>2022-07-21T08:11:33.000Z</time>
      </trkpt>
      <trkpt lat="44.09592" lon="6.96447">
        <ele>1694.1999511719</ele>
        <time>2022-07-21T08:11:35.000Z</time>
      </trkpt>
      <trkpt lat="44.09588" lon="6.96449">
        <ele>1694</ele>
        <time>2022-07-21T08:11:40.000Z</time>
      </trkpt>
      <trkpt lat="44.09588" lon="6.96448">
        <ele>1693.5999755859</ele>
        <time>2022-07-21T08:11:46.000Z</time>
      </trkpt>
      <trkpt lat="44.09588" lon="6.96449">
        <ele>1693.4000244141</ele>
        <time>2022-07-21T08:11:53.000Z</time>
      </trkpt>
      <trkpt lat="44.09588" lon="6.96449">
        <ele>1694</ele>
        <time>2022-07-21T08:12:04.000Z</time>
      </trkpt>
      <trkpt lat="44.0959" lon="6.96449">
        <ele>1693.8000488281</ele>
        <time>2022-07-21T08:12:07.000Z</time>
      </trkpt>
      <trkpt lat="44.09591" lon="6.96447">
        <ele>1693.4000244141</ele>
        <time>2022-07-21T08:12:10.000Z</time>
      </trkpt>
      <trkpt lat="44.09592" lon="6.96447">
        <ele>1693.4000244141</ele>
        <time>2022-07-21T08:12:11.000Z</time>
      </trkpt>
      <trkpt lat="44.09593" lon="6.96447">
        <ele>1693.5999755859</ele>
        <time>2022-07-21T08:12:15.000Z</time>
      </trkpt>
      <trkpt lat="44.09598" lon="6.96447">
        <ele>1693.8000488281</ele>
        <time>2022-07-21T08:12:21.000Z</time>
      </trkpt>
      <trkpt lat="44.09601" lon="6.96447">
        <ele>1693.5999755859</ele>
        <time>2022-07-21T08:12:25.000Z</time>
      </trkpt>
      <trkpt lat="44.09601" lon="6.96446">
        <ele>1693.5999755859</ele>
        <time>2022-07-21T08:12:26.000Z</time>
      </trkpt>
      <trkpt lat="44.09601" lon="6.96448">
        <ele>1694</ele>
        <time>2022-07-21T08:12:32.000Z</time>
      </trkpt>
      <trkpt lat="44.09603" lon="6.96447">
        <ele>1694.5999755859</ele>
        <time>2022-07-21T08:12:36.000Z</time>
      </trkpt>
      <trkpt lat="44.09605" lon="6.96447">
        <ele>1694.8000488281</ele>
        <time>2022-07-21T08:12:37.000Z</time>
      </trkpt>
      <trkpt lat="44.09614" lon="6.96446">
        <ele>1695.1999511719</ele>
        <time>2022-07-21T08:12:41.000Z</time>
      </trkpt>
      <trkpt lat="44.09617" lon="6.96445">
        <ele>1695.4000244141</ele>
        <time>2022-07-21T08:12:42.000Z</time>
      </trkpt>
      <trkpt lat="44.09635" lon="6.96445">
        <ele>1696.8000488281</ele>
        <time>2022-07-21T08:12:49.000Z</time>
      </trkpt>
      <trkpt lat="44.09638" lon="6.96445">
        <ele>1697</ele>
        <time>2022-07-21T08:12:50.000Z</time>
      </trkpt>
      <trkpt lat="44.09649" lon="6.96447">
        <ele>1697.8000488281</ele>
        <time>2022-07-21T08:12:54.000Z</time>
      </trkpt>
      <trkpt lat="44.09662" lon="6.96449">
        <ele>1697.4000244141</ele>
        <time>2022-07-21T08:12:58.000Z</time>
      </trkpt>
      <trkpt lat="44.09674" lon="6.96446">
        <ele>1696.5999755859</ele>
        <time>2022-07-21T08:13:02.000Z</time>
      </trkpt>
      <trkpt lat="44.09681" lon="6.96443">
        <ele>1696</ele>
        <time>2022-07-21T08:13:05.000Z</time>
      </trkpt>
      <trkpt lat="44.09682" lon="6.96443">
        <ele>1696</ele>
        <time>2022-07-21T08:13:09.000Z</time>
      </trkpt>
      <trkpt lat="44.09682" lon="6.96443">
        <ele>1697</ele>
        <time>2022-07-21T08:13:28.000Z</time>
      </trkpt>
      <trkpt lat="44.09682" lon="6.96443">
        <ele>1697.4000244141</ele>
        <time>2022-07-21T08:13:57.000Z</time>
      </trkpt>
      <trkpt lat="44.09687" lon="6.96439">
        <ele>1697.4000244141</ele>
        <time>2022-07-21T08:14:01.000Z</time>
      </trkpt>
      <trkpt lat="44.09703" lon="6.96429">
        <ele>1697.4000244141</ele>
        <time>2022-07-21T08:14:08.000Z</time>
      </trkpt>
      <trkpt lat="44.09714" lon="6.9642">
        <ele>1697.4000244141</ele>
        <time>2022-07-21T08:14:13.000Z</time>
      </trkpt>
      <trkpt lat="44.09727" lon="6.96411">
        <ele>1697.5999755859</ele>
        <time>2022-07-21T08:14:18.000Z</time>
      </trkpt>
      <trkpt lat="44.09731" lon="6.96409">
        <ele>1697.5999755859</ele>
        <time>2022-07-21T08:14:20.000Z</time>
      </trkpt>
      <trkpt lat="44.09739" lon="6.96407">
        <ele>1698</ele>
        <time>2022-07-21T08:14:24.000Z</time>
      </trkpt>
      <trkpt lat="44.09749" lon="6.96403">
        <ele>1698.1999511719</ele>
        <time>2022-07-21T08:14:30.000Z</time>
      </trkpt>
      <trkpt lat="44.09762" lon="6.964">
        <ele>1697.5999755859</ele>
        <time>2022-07-21T08:14:35.000Z</time>
      </trkpt>
      <trkpt lat="44.09778" lon="6.96398">
        <ele>1696.5999755859</ele>
        <time>2022-07-21T08:14:41.000Z</time>
      </trkpt>
      <trkpt lat="44.09781" lon="6.96398">
        <ele>1696.5999755859</ele>
        <time>2022-07-21T08:14:42.000Z</time>
      </trkpt>
      <trkpt lat="44.098" lon="6.96396">
        <ele>1695.5999755859</ele>
        <time>2022-07-21T08:14:49.000Z</time>
      </trkpt>
      <trkpt lat="44.0981" lon="6.96398">
        <ele>1694.5999755859</ele>
        <time>2022-07-21T08:14:53.000Z</time>
      </trkpt>
      <trkpt lat="44.09812" lon="6.96397">
        <ele>1694.5999755859</ele>
        <time>2022-07-21T08:14:54.000Z</time>
      </trkpt>
      <trkpt lat="44.09823" lon="6.96395">
        <ele>1694.1999511719</ele>
        <time>2022-07-21T08:14:57.000Z</time>
      </trkpt>
      <trkpt lat="44.0983" lon="6.96391">
        <ele>1693.4000244141</ele>
        <time>2022-07-21T08:15:00.000Z</time>
      </trkpt>
      <trkpt lat="44.09833" lon="6.96389">
        <ele>1693.4000244141</ele>
        <time>2022-07-21T08:15:01.000Z</time>
      </trkpt>
      <trkpt lat="44.0985" lon="6.9638">
        <ele>1693.1999511719</ele>
        <time>2022-07-21T08:15:06.000Z</time>
      </trkpt>
      <trkpt lat="44.09871" lon="6.96372">
        <ele>1693.1999511719</ele>
        <time>2022-07-21T08:15:13.000Z</time>
      </trkpt>
      <trkpt lat="44.09888" lon="6.9636">
        <ele>1693.1999511719</ele>
        <time>2022-07-21T08:15:18.000Z</time>
      </trkpt>
      <trkpt lat="44.09906" lon="6.96353">
        <ele>1692.4000244141</ele>
        <time>2022-07-21T08:15:23.000Z</time>
      </trkpt>
      <trkpt lat="44.09918" lon="6.96352">
        <ele>1692.4000244141</ele>
        <time>2022-07-21T08:15:26.000Z</time>
      </trkpt>
      <trkpt lat="44.09923" lon="6.96353">
        <ele>1692</ele>
        <time>2022-07-21T08:15:27.000Z</time>
      </trkpt>
      <trkpt lat="44.09937" lon="6.96353">
        <ele>1690.8000488281</ele>
        <time>2022-07-21T08:15:30.000Z</time>
      </trkpt>
      <trkpt lat="44.09942" lon="6.96354">
        <ele>1690.4000244141</ele>
        <time>2022-07-21T08:15:32.000Z</time>
      </trkpt>
      <trkpt lat="44.09951" lon="6.96354">
        <ele>1692</ele>
        <time>2022-07-21T08:15:37.000Z</time>
      </trkpt>
      <trkpt lat="44.09953" lon="6.96354">
        <ele>1692.1999511719</ele>
        <time>2022-07-21T08:15:38.000Z</time>
      </trkpt>
      <trkpt lat="44.09968" lon="6.96355">
        <ele>1692.4000244141</ele>
        <time>2022-07-21T08:15:43.000Z</time>
      </trkpt>
      <trkpt lat="44.09978" lon="6.96352">
        <ele>1692</ele>
        <time>2022-07-21T08:15:48.000Z</time>
      </trkpt>
      <trkpt lat="44.09986" lon="6.96349">
        <ele>1693.1999511719</ele>
        <time>2022-07-21T08:15:52.000Z</time>
      </trkpt>
      <trkpt lat="44.09987" lon="6.96348">
        <ele>1693.4000244141</ele>
        <time>2022-07-21T08:15:53.000Z</time>
      </trkpt>
      <trkpt lat="44.09991" lon="6.96343">
        <ele>1694.4000244141</ele>
        <time>2022-07-21T08:15:57.000Z</time>
      </trkpt>
      <trkpt lat="44.09989" lon="6.96341">
        <ele>1694.8000488281</ele>
        <time>2022-07-21T08:15:59.000Z</time>
      </trkpt>
      <trkpt lat="44.09981" lon="6.96337">
        <ele>1695.1999511719</ele>
        <time>2022-07-21T08:16:03.000Z</time>
      </trkpt>
      <trkpt lat="44.09979" lon="6.96335">
        <ele>1695.8000488281</ele>
        <time>2022-07-21T08:16:04.000Z</time>
      </trkpt>
      <trkpt lat="44.09974" lon="6.9633">
        <ele>1697.1999511719</ele>
        <time>2022-07-21T08:16:06.000Z</time>
      </trkpt>
      <trkpt lat="44.0997" lon="6.96324">
        <ele>1698.4000244141</ele>
        <time>2022-07-21T08:16:08.000Z</time>
      </trkpt>
      <trkpt lat="44.09969" lon="6.96321">
        <ele>1698.5999755859</ele>
        <time>2022-07-21T08:16:09.000Z</time>
      </trkpt>
      <trkpt lat="44.09963" lon="6.96306">
        <ele>1699.4000244141</ele>
        <time>2022-07-21T08:16:14.000Z</time>
      </trkpt>
      <trkpt lat="44.09961" lon="6.96305">
        <ele>1699.4000244141</ele>
        <time>2022-07-21T08:16:15.000Z</time>
      </trkpt>
      <trkpt lat="44.09955" lon="6.96303">
        <ele>1700.5999755859</ele>
        <time>2022-07-21T08:16:18.000Z</time>
      </trkpt>
      <trkpt lat="44.09951" lon="6.963">
        <ele>1701.8000488281</ele>
        <time>2022-07-21T08:16:20.000Z</time>
      </trkpt>
      <trkpt lat="44.0995" lon="6.96295">
        <ele>1703</ele>
        <time>2022-07-21T08:16:22.000Z</time>
      </trkpt>
      <trkpt lat="44.09948" lon="6.96285">
        <ele>1704.1999511719</ele>
        <time>2022-07-21T08:16:25.000Z</time>
      </trkpt>
      <trkpt lat="44.09947" lon="6.96282">
        <ele>1704.4000244141</ele>
        <time>2022-07-21T08:16:26.000Z</time>
      </trkpt>
      <trkpt lat="44.09945" lon="6.96271">
        <ele>1705.1999511719</ele>
        <time>2022-07-21T08:16:29.000Z</time>
      </trkpt>
      <trkpt lat="44.09944" lon="6.96249">
        <ele>1706.1999511719</ele>
        <time>2022-07-21T08:16:35.000Z</time>
      </trkpt>
      <trkpt lat="44.09949" lon="6.9624">
        <ele>1706.4000244141</ele>
        <time>2022-07-21T08:16:38.000Z</time>
      </trkpt>
      <trkpt lat="44.09954" lon="6.96228">
        <ele>1707.1999511719</ele>
        <time>2022-07-21T08:16:42.000Z</time>
      </trkpt>
      <trkpt lat="44.09957" lon="6.96222">
        <ele>1707.5999755859</ele>
        <time>2022-07-21T08:16:44.000Z</time>
      </trkpt>
      <trkpt lat="44.0996" lon="6.96215">
        <ele>1708.4000244141</ele>
        <time>2022-07-21T08:16:47.000Z</time>
      </trkpt>
      <trkpt lat="44.09961" lon="6.96213">
        <ele>1708.5999755859</ele>
        <time>2022-07-21T08:16:48.000Z</time>
      </trkpt>
      <trkpt lat="44.09961" lon="6.9621">
        <ele>1708.8000488281</ele>
        <time>2022-07-21T08:16:49.000Z</time>
      </trkpt>
      <trkpt lat="44.09967" lon="6.96196">
        <ele>1709.4000244141</ele>
        <time>2022-07-21T08:16:55.000Z</time>
      </trkpt>
      <trkpt lat="44.09971" lon="6.96187">
        <ele>1709.8000488281</ele>
        <time>2022-07-21T08:16:59.000Z</time>
      </trkpt>
      <trkpt lat="44.09978" lon="6.96181">
        <ele>1710.1999511719</ele>
        <time>2022-07-21T08:17:03.000Z</time>
      </trkpt>
      <trkpt lat="44.09985" lon="6.96173">
        <ele>1711</ele>
        <time>2022-07-21T08:17:08.000Z</time>
      </trkpt>
      <trkpt lat="44.09997" lon="6.96155">
        <ele>1711.1999511719</ele>
        <time>2022-07-21T08:17:15.000Z</time>
      </trkpt>
      <trkpt lat="44.1" lon="6.96141">
        <ele>1712</ele>
        <time>2022-07-21T08:17:19.000Z</time>
      </trkpt>
      <trkpt lat="44.10002" lon="6.96129">
        <ele>1713</ele>
        <time>2022-07-21T08:17:23.000Z</time>
      </trkpt>
      <trkpt lat="44.10007" lon="6.96122">
        <ele>1714.1999511719</ele>
        <time>2022-07-21T08:17:27.000Z</time>
      </trkpt>
      <trkpt lat="44.10007" lon="6.96119">
        <ele>1714.5999755859</ele>
        <time>2022-07-21T08:17:28.000Z</time>
      </trkpt>
      <trkpt lat="44.10009" lon="6.96103">
        <ele>1715.1999511719</ele>
        <time>2022-07-21T08:17:33.000Z</time>
      </trkpt>
      <trkpt lat="44.10008" lon="6.96093">
        <ele>1716.5999755859</ele>
        <time>2022-07-21T08:17:36.000Z</time>
      </trkpt>
      <trkpt lat="44.1001" lon="6.96086">
        <ele>1717.5999755859</ele>
        <time>2022-07-21T08:17:38.000Z</time>
      </trkpt>
      <trkpt lat="44.1001" lon="6.96083">
        <ele>1718</ele>
        <time>2022-07-21T08:17:39.000Z</time>
      </trkpt>
      <trkpt lat="44.10011" lon="6.96076">
        <ele>1719</ele>
        <time>2022-07-21T08:17:41.000Z</time>
      </trkpt>
      <trkpt lat="44.10011" lon="6.96071">
        <ele>1719.4000244141</ele>
        <time>2022-07-21T08:17:42.000Z</time>
      </trkpt>
      <trkpt lat="44.10011" lon="6.96056">
        <ele>1719.5999755859</ele>
        <time>2022-07-21T08:17:46.000Z</time>
      </trkpt>
      <trkpt lat="44.1001" lon="6.96043">
        <ele>1719.8000488281</ele>
        <time>2022-07-21T08:17:50.000Z</time>
      </trkpt>
      <trkpt lat="44.10002" lon="6.96032">
        <ele>1720</ele>
        <time>2022-07-21T08:17:54.000Z</time>
      </trkpt>
      <trkpt lat="44.1" lon="6.9603">
        <ele>1720.4000244141</ele>
        <time>2022-07-21T08:17:55.000Z</time>
      </trkpt>
      <trkpt lat="44.09995" lon="6.96026">
        <ele>1721.5999755859</ele>
        <time>2022-07-21T08:17:57.000Z</time>
      </trkpt>
      <trkpt lat="44.09993" lon="6.9602">
        <ele>1723.1999511719</ele>
        <time>2022-07-21T08:17:59.000Z</time>
      </trkpt>
      <trkpt lat="44.09992" lon="6.9601">
        <ele>1724.5999755859</ele>
        <time>2022-07-21T08:18:02.000Z</time>
      </trkpt>
      <trkpt lat="44.09993" lon="6.96004">
        <ele>1725</ele>
        <time>2022-07-21T08:18:04.000Z</time>
      </trkpt>
      <trkpt lat="44.09994" lon="6.95997">
        <ele>1725.8000488281</ele>
        <time>2022-07-21T08:18:06.000Z</time>
      </trkpt>
      <trkpt lat="44.09998" lon="6.95988">
        <ele>1727</ele>
        <time>2022-07-21T08:18:09.000Z</time>
      </trkpt>
      <trkpt lat="44.1" lon="6.95975">
        <ele>1728.1999511719</ele>
        <time>2022-07-21T08:18:13.000Z</time>
      </trkpt>
      <trkpt lat="44.10004" lon="6.9597">
        <ele>1728.8000488281</ele>
        <time>2022-07-21T08:18:15.000Z</time>
      </trkpt>
      <trkpt lat="44.10005" lon="6.95967">
        <ele>1729.4000244141</ele>
        <time>2022-07-21T08:18:16.000Z</time>
      </trkpt>
      <trkpt lat="44.10006" lon="6.95964">
        <ele>1729.5999755859</ele>
        <time>2022-07-21T08:18:17.000Z</time>
      </trkpt>
      <trkpt lat="44.10006" lon="6.95957">
        <ele>1730.4000244141</ele>
        <time>2022-07-21T08:18:19.000Z</time>
      </trkpt>
      <trkpt lat="44.10006" lon="6.9595">
        <ele>1731.5999755859</ele>
        <time>2022-07-21T08:18:22.000Z</time>
      </trkpt>
      <trkpt lat="44.10007" lon="6.95949">
        <ele>1731.8000488281</ele>
        <time>2022-07-21T08:18:23.000Z</time>
      </trkpt>
      <trkpt lat="44.10009" lon="6.95945">
        <ele>1732.1999511719</ele>
        <time>2022-07-21T08:18:25.000Z</time>
      </trkpt>
      <trkpt lat="44.10012" lon="6.9594">
        <ele>1732.5999755859</ele>
        <time>2022-07-21T08:18:27.000Z</time>
      </trkpt>
      <trkpt lat="44.10013" lon="6.95937">
        <ele>1732.8000488281</ele>
        <time>2022-07-21T08:18:28.000Z</time>
      </trkpt>
      <trkpt lat="44.10017" lon="6.95923">
        <ele>1733.5999755859</ele>
        <time>2022-07-21T08:18:33.000Z</time>
      </trkpt>
      <trkpt lat="44.10018" lon="6.9592">
        <ele>1733.8000488281</ele>
        <time>2022-07-21T08:18:34.000Z</time>
      </trkpt>
      <trkpt lat="44.10023" lon="6.95908">
        <ele>1734.5999755859</ele>
        <time>2022-07-21T08:18:38.000Z</time>
      </trkpt>
      <trkpt lat="44.10023" lon="6.95905">
        <ele>1735</ele>
        <time>2022-07-21T08:18:39.000Z</time>
      </trkpt>
      <trkpt lat="44.10028" lon="6.95895">
        <ele>1735.4000244141</ele>
        <time>2022-07-21T08:18:42.000Z</time>
      </trkpt>
      <trkpt lat="44.10031" lon="6.95886">
        <ele>1736</ele>
        <time>2022-07-21T08:18:45.000Z</time>
      </trkpt>
      <trkpt lat="44.10032" lon="6.95884">
        <ele>1736.4000244141</ele>
        <time>2022-07-21T08:18:46.000Z</time>
      </trkpt>
      <trkpt lat="44.10034" lon="6.95881">
        <ele>1736.8000488281</ele>
        <time>2022-07-21T08:18:47.000Z</time>
      </trkpt>
      <trkpt lat="44.10036" lon="6.95879">
        <ele>1737</ele>
        <time>2022-07-21T08:18:48.000Z</time>
      </trkpt>
      <trkpt lat="44.10042" lon="6.95868">
        <ele>1738</ele>
        <time>2022-07-21T08:18:52.000Z</time>
      </trkpt>
      <trkpt lat="44.10053" lon="6.95854">
        <ele>1739</ele>
        <time>2022-07-21T08:18:58.000Z</time>
      </trkpt>
      <trkpt lat="44.10054" lon="6.95852">
        <ele>1739.1999511719</ele>
        <time>2022-07-21T08:18:59.000Z</time>
      </trkpt>
      <trkpt lat="44.10057" lon="6.95845">
        <ele>1740.5999755859</ele>
        <time>2022-07-21T08:19:02.000Z</time>
      </trkpt>
      <trkpt lat="44.10059" lon="6.95843">
        <ele>1741</ele>
        <time>2022-07-21T08:19:03.000Z</time>
      </trkpt>
      <trkpt lat="44.10068" lon="6.95826">
        <ele>1741.1999511719</ele>
        <time>2022-07-21T08:19:08.000Z</time>
      </trkpt>
      <trkpt lat="44.10077" lon="6.95808">
        <ele>1741.1999511719</ele>
        <time>2022-07-21T08:19:13.000Z</time>
      </trkpt>
      <trkpt lat="44.10078" lon="6.95805">
        <ele>1741.1999511719</ele>
        <time>2022-07-21T08:19:14.000Z</time>
      </trkpt>
      <trkpt lat="44.10078" lon="6.958">
        <ele>1741</ele>
        <time>2022-07-21T08:19:16.000Z</time>
      </trkpt>
      <trkpt lat="44.1008" lon="6.95789">
        <ele>1741</ele>
        <time>2022-07-21T08:19:19.000Z</time>
      </trkpt>
      <trkpt lat="44.10081" lon="6.95786">
        <ele>1741</ele>
        <time>2022-07-21T08:19:20.000Z</time>
      </trkpt>
      <trkpt lat="44.10083" lon="6.95772">
        <ele>1741.1999511719</ele>
        <time>2022-07-21T08:19:25.000Z</time>
      </trkpt>
      <trkpt lat="44.10083" lon="6.95769">
        <ele>1741.4000244141</ele>
        <time>2022-07-21T08:19:26.000Z</time>
      </trkpt>
      <trkpt lat="44.10081" lon="6.95764">
        <ele>1741.8000488281</ele>
        <time>2022-07-21T08:19:28.000Z</time>
      </trkpt>
      <trkpt lat="44.10082" lon="6.95755">
        <ele>1742.1999511719</ele>
        <time>2022-07-21T08:19:30.000Z</time>
      </trkpt>
      <trkpt lat="44.10084" lon="6.95736">
        <ele>1741.4000244141</ele>
        <time>2022-07-21T08:19:35.000Z</time>
      </trkpt>
      <trkpt lat="44.10086" lon="6.95729">
        <ele>1741.1999511719</ele>
        <time>2022-07-21T08:19:39.000Z</time>
      </trkpt>
      <trkpt lat="44.10086" lon="6.95726">
        <ele>1741.1999511719</ele>
        <time>2022-07-21T08:19:40.000Z</time>
      </trkpt>
      <trkpt lat="44.10085" lon="6.95715">
        <ele>1741</ele>
        <time>2022-07-21T08:19:44.000Z</time>
      </trkpt>
      <trkpt lat="44.10081" lon="6.95711">
        <ele>1741.1999511719</ele>
        <time>2022-07-21T08:19:48.000Z</time>
      </trkpt>
      <trkpt lat="44.10081" lon="6.95709">
        <ele>1741.5999755859</ele>
        <time>2022-07-21T08:19:56.000Z</time>
      </trkpt>
      <trkpt lat="44.10081" lon="6.95708">
        <ele>1741.8000488281</ele>
        <time>2022-07-21T08:20:11.000Z</time>
      </trkpt>
      <trkpt lat="44.10081" lon="6.95706">
        <ele>1742.1999511719</ele>
        <time>2022-07-21T08:20:22.000Z</time>
      </trkpt>
      <trkpt lat="44.10079" lon="6.95703">
        <ele>1742.1999511719</ele>
        <time>2022-07-21T08:20:33.000Z</time>
      </trkpt>
      <trkpt lat="44.10078" lon="6.95703">
        <ele>1742.1999511719</ele>
        <time>2022-07-21T08:20:34.000Z</time>
      </trkpt>
      <trkpt lat="44.10067" lon="6.95699">
        <ele>1742.8000488281</ele>
        <time>2022-07-21T08:20:39.000Z</time>
      </trkpt>
      <trkpt lat="44.10064" lon="6.95696">
        <ele>1743</ele>
        <time>2022-07-21T08:20:40.000Z</time>
      </trkpt>
      <trkpt lat="44.10059" lon="6.95694">
        <ele>1744.1999511719</ele>
        <time>2022-07-21T08:20:43.000Z</time>
      </trkpt>
      <trkpt lat="44.10052" lon="6.95692">
        <ele>1745.4000244141</ele>
        <time>2022-07-21T08:20:46.000Z</time>
      </trkpt>
      <trkpt lat="44.10047" lon="6.95689">
        <ele>1746.1999511719</ele>
        <time>2022-07-21T08:20:48.000Z</time>
      </trkpt>
      <trkpt lat="44.10045" lon="6.95688">
        <ele>1746.4000244141</ele>
        <time>2022-07-21T08:20:49.000Z</time>
      </trkpt>
      <trkpt lat="44.10038" lon="6.95681">
        <ele>1747.4000244141</ele>
        <time>2022-07-21T08:20:52.000Z</time>
      </trkpt>
      <trkpt lat="44.10037" lon="6.95677">
        <ele>1747.8000488281</ele>
        <time>2022-07-21T08:20:53.000Z</time>
      </trkpt>
      <trkpt lat="44.10034" lon="6.95672">
        <ele>1748.5999755859</ele>
        <time>2022-07-21T08:20:55.000Z</time>
      </trkpt>
      <trkpt lat="44.10032" lon="6.95662">
        <ele>1749.5999755859</ele>
        <time>2022-07-21T08:20:58.000Z</time>
      </trkpt>
      <trkpt lat="44.10031" lon="6.95654">
        <ele>1750.4000244141</ele>
        <time>2022-07-21T08:21:00.000Z</time>
      </trkpt>
      <trkpt lat="44.10031" lon="6.95651">
        <ele>1751</ele>
        <time>2022-07-21T08:21:01.000Z</time>
      </trkpt>
      <trkpt lat="44.1003" lon="6.95642">
        <ele>1752.1999511719</ele>
        <time>2022-07-21T08:21:04.000Z</time>
      </trkpt>
      <trkpt lat="44.10029" lon="6.95631">
        <ele>1753.1999511719</ele>
        <time>2022-07-21T08:21:07.000Z</time>
      </trkpt>
      <trkpt lat="44.10028" lon="6.95628">
        <ele>1753.4000244141</ele>
        <time>2022-07-21T08:21:08.000Z</time>
      </trkpt>
      <trkpt lat="44.10028" lon="6.95601">
        <ele>1753.1999511719</ele>
        <time>2022-07-21T08:21:15.000Z</time>
      </trkpt>
      <trkpt lat="44.1003" lon="6.95577">
        <ele>1752.8000488281</ele>
        <time>2022-07-21T08:21:21.000Z</time>
      </trkpt>
      <trkpt lat="44.10035" lon="6.9555">
        <ele>1752.4000244141</ele>
        <time>2022-07-21T08:21:28.000Z</time>
      </trkpt>
      <trkpt lat="44.10035" lon="6.95548">
        <ele>1752.1999511719</ele>
        <time>2022-07-21T08:21:29.000Z</time>
      </trkpt>
      <trkpt lat="44.10034" lon="6.95538">
        <ele>1752</ele>
        <time>2022-07-21T08:21:32.000Z</time>
      </trkpt>
      <trkpt lat="44.10029" lon="6.95523">
        <ele>1752.1999511719</ele>
        <time>2022-07-21T08:21:36.000Z</time>
      </trkpt>
      <trkpt lat="44.10018" lon="6.95502">
        <ele>1751</ele>
        <time>2022-07-21T08:21:40.000Z</time>
      </trkpt>
      <trkpt lat="44.10015" lon="6.95494">
        <ele>1750.5999755859</ele>
        <time>2022-07-21T08:21:41.000Z</time>
      </trkpt>
      <trkpt lat="44.10013" lon="6.95486">
        <ele>1749.8000488281</ele>
        <time>2022-07-21T08:21:42.000Z</time>
      </trkpt>
      <trkpt lat="44.10009" lon="6.9547">
        <ele>1748.4000244141</ele>
        <time>2022-07-21T08:21:44.000Z</time>
      </trkpt>
      <trkpt lat="44.10006" lon="6.95462">
        <ele>1747.5999755859</ele>
        <time>2022-07-21T08:21:45.000Z</time>
      </trkpt>
      <trkpt lat="44.10003" lon="6.95454">
        <ele>1746.5999755859</ele>
        <time>2022-07-21T08:21:46.000Z</time>
      </trkpt>
      <trkpt lat="44.1" lon="6.95432">
        <ele>1745.4000244141</ele>
        <time>2022-07-21T08:21:49.000Z</time>
      </trkpt>
      <trkpt lat="44.1" lon="6.95423">
        <ele>1744</ele>
        <time>2022-07-21T08:21:50.000Z</time>
      </trkpt>
      <trkpt lat="44.09999" lon="6.95405">
        <ele>1742</ele>
        <time>2022-07-21T08:21:52.000Z</time>
      </trkpt>
      <trkpt lat="44.09997" lon="6.95396">
        <ele>1741</ele>
        <time>2022-07-21T08:21:53.000Z</time>
      </trkpt>
      <trkpt lat="44.09988" lon="6.9538">
        <ele>1740</ele>
        <time>2022-07-21T08:21:55.000Z</time>
      </trkpt>
      <trkpt lat="44.09986" lon="6.95371">
        <ele>1738.8000488281</ele>
        <time>2022-07-21T08:21:56.000Z</time>
      </trkpt>
      <trkpt lat="44.09986" lon="6.95363">
        <ele>1737.4000244141</ele>
        <time>2022-07-21T08:21:57.000Z</time>
      </trkpt>
      <trkpt lat="44.09989" lon="6.95348">
        <ele>1735.4000244141</ele>
        <time>2022-07-21T08:21:59.000Z</time>
      </trkpt>
      <trkpt lat="44.0999" lon="6.95337">
        <ele>1734.4000244141</ele>
        <time>2022-07-21T08:22:00.000Z</time>
      </trkpt>
      <trkpt lat="44.09993" lon="6.95329">
        <ele>1733.5999755859</ele>
        <time>2022-07-21T08:22:01.000Z</time>
      </trkpt>
      <trkpt lat="44.09997" lon="6.95321">
        <ele>1732.8000488281</ele>
        <time>2022-07-21T08:22:02.000Z</time>
      </trkpt>
      <trkpt lat="44.1" lon="6.95313">
        <ele>1731.5999755859</ele>
        <time>2022-07-21T08:22:03.000Z</time>
      </trkpt>
      <trkpt lat="44.10003" lon="6.95306">
        <ele>1730.4000244141</ele>
        <time>2022-07-21T08:22:04.000Z</time>
      </trkpt>
      <trkpt lat="44.10007" lon="6.95298">
        <ele>1729.5999755859</ele>
        <time>2022-07-21T08:22:05.000Z</time>
      </trkpt>
      <trkpt lat="44.1001" lon="6.95291">
        <ele>1728.8000488281</ele>
        <time>2022-07-21T08:22:06.000Z</time>
      </trkpt>
      <trkpt lat="44.10012" lon="6.95283">
        <ele>1727.4000244141</ele>
        <time>2022-07-21T08:22:07.000Z</time>
      </trkpt>
      <trkpt lat="44.10013" lon="6.95275">
        <ele>1726.4000244141</ele>
        <time>2022-07-21T08:22:08.000Z</time>
      </trkpt>
      <trkpt lat="44.10013" lon="6.95268">
        <ele>1725.8000488281</ele>
        <time>2022-07-21T08:22:09.000Z</time>
      </trkpt>
      <trkpt lat="44.10013" lon="6.95259">
        <ele>1725.4000244141</ele>
        <time>2022-07-21T08:22:10.000Z</time>
      </trkpt>
      <trkpt lat="44.1001" lon="6.95251">
        <ele>1725</ele>
        <time>2022-07-21T08:22:11.000Z</time>
      </trkpt>
      <trkpt lat="44.10007" lon="6.95236">
        <ele>1723.5999755859</ele>
        <time>2022-07-21T08:22:13.000Z</time>
      </trkpt>
      <trkpt lat="44.10007" lon="6.95228">
        <ele>1723</ele>
        <time>2022-07-21T08:22:14.000Z</time>
      </trkpt>
      <trkpt lat="44.10006" lon="6.95219">
        <ele>1722.1999511719</ele>
        <time>2022-07-21T08:22:15.000Z</time>
      </trkpt>
      <trkpt lat="44.10007" lon="6.95201">
        <ele>1721</ele>
        <time>2022-07-21T08:22:17.000Z</time>
      </trkpt>
      <trkpt lat="44.10008" lon="6.95191">
        <ele>1720.8000488281</ele>
        <time>2022-07-21T08:22:18.000Z</time>
      </trkpt>
      <trkpt lat="44.10008" lon="6.95184">
        <ele>1720</ele>
        <time>2022-07-21T08:22:19.000Z</time>
      </trkpt>
      <trkpt lat="44.10005" lon="6.95173">
        <ele>1719</ele>
        <time>2022-07-21T08:22:21.000Z</time>
      </trkpt>
      <trkpt lat="44.10004" lon="6.95171">
        <ele>1718.8000488281</ele>
        <time>2022-07-21T08:22:22.000Z</time>
      </trkpt>
      <trkpt lat="44.09999" lon="6.95164">
        <ele>1718.4000244141</ele>
        <time>2022-07-21T08:22:25.000Z</time>
      </trkpt>
      <trkpt lat="44.09999" lon="6.9516">
        <ele>1717.5999755859</ele>
        <time>2022-07-21T08:22:28.000Z</time>
      </trkpt>
      <trkpt lat="44.09999" lon="6.95159">
        <ele>1716.5999755859</ele>
        <time>2022-07-21T08:22:31.000Z</time>
      </trkpt>
      <trkpt lat="44.09999" lon="6.95154">
        <ele>1716.4000244141</ele>
        <time>2022-07-21T08:22:34.000Z</time>
      </trkpt>
      <trkpt lat="44.1" lon="6.95148">
        <ele>1716</ele>
        <time>2022-07-21T08:22:36.000Z</time>
      </trkpt>
      <trkpt lat="44.10002" lon="6.95144">
        <ele>1715.5999755859</ele>
        <time>2022-07-21T08:22:38.000Z</time>
      </trkpt>
      <trkpt lat="44.10004" lon="6.95138">
        <ele>1714.1999511719</ele>
        <time>2022-07-21T08:22:41.000Z</time>
      </trkpt>
      <trkpt lat="44.10005" lon="6.95134">
        <ele>1713.5999755859</ele>
        <time>2022-07-21T08:22:42.000Z</time>
      </trkpt>
      <trkpt lat="44.10009" lon="6.95128">
        <ele>1713</ele>
        <time>2022-07-21T08:22:44.000Z</time>
      </trkpt>
      <trkpt lat="44.10009" lon="6.95126">
        <ele>1712.4000244141</ele>
        <time>2022-07-21T08:22:45.000Z</time>
      </trkpt>
      <trkpt lat="44.10008" lon="6.95125">
        <ele>1711.8000488281</ele>
        <time>2022-07-21T08:22:46.000Z</time>
      </trkpt>
      <trkpt lat="44.10003" lon="6.95123">
        <ele>1710.1999511719</ele>
        <time>2022-07-21T08:22:48.000Z</time>
      </trkpt>
      <trkpt lat="44.09996" lon="6.95121">
        <ele>1709</ele>
        <time>2022-07-21T08:22:50.000Z</time>
      </trkpt>
      <trkpt lat="44.09996" lon="6.95116">
        <ele>1707.1999511719</ele>
        <time>2022-07-21T08:22:52.000Z</time>
      </trkpt>
      <trkpt lat="44.09997" lon="6.95111">
        <ele>1706.1999511719</ele>
        <time>2022-07-21T08:22:53.000Z</time>
      </trkpt>
      <trkpt lat="44.10002" lon="6.95102">
        <ele>1704.4000244141</ele>
        <time>2022-07-21T08:22:55.000Z</time>
      </trkpt>
      <trkpt lat="44.10004" lon="6.95097">
        <ele>1703.8000488281</ele>
        <time>2022-07-21T08:22:56.000Z</time>
      </trkpt>
      <trkpt lat="44.10007" lon="6.95091">
        <ele>1703.1999511719</ele>
        <time>2022-07-21T08:22:57.000Z</time>
      </trkpt>
      <trkpt lat="44.10009" lon="6.95087">
        <ele>1702</ele>
        <time>2022-07-21T08:22:58.000Z</time>
      </trkpt>
      <trkpt lat="44.10012" lon="6.95082">
        <ele>1700.8000488281</ele>
        <time>2022-07-21T08:22:59.000Z</time>
      </trkpt>
      <trkpt lat="44.10014" lon="6.95075">
        <ele>1699.5999755859</ele>
        <time>2022-07-21T08:23:00.000Z</time>
      </trkpt>
      <trkpt lat="44.10017" lon="6.9507">
        <ele>1698</ele>
        <time>2022-07-21T08:23:01.000Z</time>
      </trkpt>
      <trkpt lat="44.10021" lon="6.95065">
        <ele>1696.8000488281</ele>
        <time>2022-07-21T08:23:02.000Z</time>
      </trkpt>
      <trkpt lat="44.10023" lon="6.95061">
        <ele>1695.5999755859</ele>
        <time>2022-07-21T08:23:03.000Z</time>
      </trkpt>
      <trkpt lat="44.10025" lon="6.95059">
        <ele>1694.4000244141</ele>
        <time>2022-07-21T08:23:04.000Z</time>
      </trkpt>
      <trkpt lat="44.10026" lon="6.95056">
        <ele>1693.1999511719</ele>
        <time>2022-07-21T08:23:05.000Z</time>
      </trkpt>
      <trkpt lat="44.10023" lon="6.95053">
        <ele>1691.8000488281</ele>
        <time>2022-07-21T08:23:07.000Z</time>
      </trkpt>
      <trkpt lat="44.10017" lon="6.9505">
        <ele>1690</ele>
        <time>2022-07-21T08:23:09.000Z</time>
      </trkpt>
      <trkpt lat="44.10017" lon="6.95046">
        <ele>1688.5999755859</ele>
        <time>2022-07-21T08:23:11.000Z</time>
      </trkpt>
      <trkpt lat="44.10018" lon="6.95044">
        <ele>1688.1999511719</ele>
        <time>2022-07-21T08:23:12.000Z</time>
      </trkpt>
      <trkpt lat="44.10021" lon="6.95041">
        <ele>1687.5999755859</ele>
        <time>2022-07-21T08:23:13.000Z</time>
      </trkpt>
      <trkpt lat="44.10028" lon="6.95036">
        <ele>1686.4000244141</ele>
        <time>2022-07-21T08:23:15.000Z</time>
      </trkpt>
      <trkpt lat="44.10031" lon="6.95033">
        <ele>1685.8000488281</ele>
        <time>2022-07-21T08:23:16.000Z</time>
      </trkpt>
      <trkpt lat="44.10035" lon="6.95031">
        <ele>1685</ele>
        <time>2022-07-21T08:23:17.000Z</time>
      </trkpt>
      <trkpt lat="44.10038" lon="6.95028">
        <ele>1684</ele>
        <time>2022-07-21T08:23:18.000Z</time>
      </trkpt>
      <trkpt lat="44.10046" lon="6.95021">
        <ele>1682.5999755859</ele>
        <time>2022-07-21T08:23:20.000Z</time>
      </trkpt>
      <trkpt lat="44.1005" lon="6.95016">
        <ele>1681.5999755859</ele>
        <time>2022-07-21T08:23:21.000Z</time>
      </trkpt>
      <trkpt lat="44.10054" lon="6.95012">
        <ele>1680.5999755859</ele>
        <time>2022-07-21T08:23:22.000Z</time>
      </trkpt>
      <trkpt lat="44.10058" lon="6.95007">
        <ele>1679.4000244141</ele>
        <time>2022-07-21T08:23:23.000Z</time>
      </trkpt>
      <trkpt lat="44.10062" lon="6.95003">
        <ele>1678</ele>
        <time>2022-07-21T08:23:24.000Z</time>
      </trkpt>
      <trkpt lat="44.10066" lon="6.95">
        <ele>1676.5999755859</ele>
        <time>2022-07-21T08:23:25.000Z</time>
      </trkpt>
      <trkpt lat="44.1007" lon="6.94996">
        <ele>1675</ele>
        <time>2022-07-21T08:23:26.000Z</time>
      </trkpt>
      <trkpt lat="44.10072" lon="6.94993">
        <ele>1673.5999755859</ele>
        <time>2022-07-21T08:23:27.000Z</time>
      </trkpt>
      <trkpt lat="44.10073" lon="6.94989">
        <ele>1672.4000244141</ele>
        <time>2022-07-21T08:23:28.000Z</time>
      </trkpt>
      <trkpt lat="44.10074" lon="6.94985">
        <ele>1671</ele>
        <time>2022-07-21T08:23:29.000Z</time>
      </trkpt>
      <trkpt lat="44.10076" lon="6.9498">
        <ele>1669.5999755859</ele>
        <time>2022-07-21T08:23:30.000Z</time>
      </trkpt>
      <trkpt lat="44.10082" lon="6.94972">
        <ele>1667.8000488281</ele>
        <time>2022-07-21T08:23:32.000Z</time>
      </trkpt>
      <trkpt lat="44.10085" lon="6.94967">
        <ele>1667</ele>
        <time>2022-07-21T08:23:33.000Z</time>
      </trkpt>
      <trkpt lat="44.10088" lon="6.94963">
        <ele>1665.8000488281</ele>
        <time>2022-07-21T08:23:34.000Z</time>
      </trkpt>
      <trkpt lat="44.10092" lon="6.94957">
        <ele>1665</ele>
        <time>2022-07-21T08:23:35.000Z</time>
      </trkpt>
      <trkpt lat="44.10096" lon="6.94953">
        <ele>1663.1999511719</ele>
        <time>2022-07-21T08:23:36.000Z</time>
      </trkpt>
      <trkpt lat="44.10098" lon="6.94948">
        <ele>1661.8000488281</ele>
        <time>2022-07-21T08:23:37.000Z</time>
      </trkpt>
      <trkpt lat="44.10101" lon="6.94943">
        <ele>1660</ele>
        <time>2022-07-21T08:23:38.000Z</time>
      </trkpt>
      <trkpt lat="44.10106" lon="6.94936">
        <ele>1658.4000244141</ele>
        <time>2022-07-21T08:23:40.000Z</time>
      </trkpt>
      <trkpt lat="44.10111" lon="6.94927">
        <ele>1657.1999511719</ele>
        <time>2022-07-21T08:23:42.000Z</time>
      </trkpt>
      <trkpt lat="44.10113" lon="6.94925">
        <ele>1656</ele>
        <time>2022-07-21T08:23:43.000Z</time>
      </trkpt>
      <trkpt lat="44.10114" lon="6.94923">
        <ele>1655.4000244141</ele>
        <time>2022-07-21T08:23:44.000Z</time>
      </trkpt>
      <trkpt lat="44.10116" lon="6.94921">
        <ele>1654.1999511719</ele>
        <time>2022-07-21T08:23:45.000Z</time>
      </trkpt>
      <trkpt lat="44.10117" lon="6.94919">
        <ele>1652.1999511719</ele>
        <time>2022-07-21T08:23:47.000Z</time>
      </trkpt>
      <trkpt lat="44.10117" lon="6.9492">
        <ele>1651.8000488281</ele>
        <time>2022-07-21T08:23:48.000Z</time>
      </trkpt>
      <trkpt lat="44.10117" lon="6.94919">
        <ele>1651.1999511719</ele>
        <time>2022-07-21T08:23:49.000Z</time>
      </trkpt>
      <trkpt lat="44.10117" lon="6.94919">
        <ele>1650.5999755859</ele>
        <time>2022-07-21T08:24:03.000Z</time>
      </trkpt>
      <trkpt lat="44.10117" lon="6.94919">
        <ele>1650.5999755859</ele>
        <time>2022-07-21T08:24:09.000Z</time>
      </trkpt>
      <trkpt lat="44.10118" lon="6.94918">
        <ele>1650.5999755859</ele>
        <time>2022-07-21T08:24:12.000Z</time>
      </trkpt>
      <trkpt lat="44.10119" lon="6.94916">
        <ele>1650.4000244141</ele>
        <time>2022-07-21T08:24:25.000Z</time>
      </trkpt>
      <trkpt lat="44.1012" lon="6.94914">
        <ele>1650</ele>
        <time>2022-07-21T08:24:27.000Z</time>
      </trkpt>
      <trkpt lat="44.10121" lon="6.94914">
        <ele>1649.5999755859</ele>
        <time>2022-07-21T08:24:30.000Z</time>
      </trkpt>
      <trkpt lat="44.1012" lon="6.94914">
        <ele>1649.4000244141</ele>
        <time>2022-07-21T08:24:39.000Z</time>
      </trkpt>
      <trkpt lat="44.1012" lon="6.94914">
        <ele>1649.4000244141</ele>
        <time>2022-07-21T08:24:46.000Z</time>
      </trkpt>
      <trkpt lat="44.10118" lon="6.94913">
        <ele>1649.5999755859</ele>
        <time>2022-07-21T08:25:01.000Z</time>
      </trkpt>
      <trkpt lat="44.10116" lon="6.94915">
        <ele>1649.4000244141</ele>
        <time>2022-07-21T08:25:08.000Z</time>
      </trkpt>
      <trkpt lat="44.10114" lon="6.94917">
        <ele>1649.5999755859</ele>
        <time>2022-07-21T08:25:14.000Z</time>
      </trkpt>
      <trkpt lat="44.10108" lon="6.94921">
        <ele>1649.5999755859</ele>
        <time>2022-07-21T08:25:19.000Z</time>
      </trkpt>
      <trkpt lat="44.10096" lon="6.94932">
        <ele>1650.4000244141</ele>
        <time>2022-07-21T08:25:25.000Z</time>
      </trkpt>
      <trkpt lat="44.10091" lon="6.94935">
        <ele>1651.1999511719</ele>
        <time>2022-07-21T08:25:27.000Z</time>
      </trkpt>
      <trkpt lat="44.10084" lon="6.9494">
        <ele>1651.8000488281</ele>
        <time>2022-07-21T08:25:30.000Z</time>
      </trkpt>
      <trkpt lat="44.10071" lon="6.94951">
        <ele>1652.4000244141</ele>
        <time>2022-07-21T08:25:35.000Z</time>
      </trkpt>
      <trkpt lat="44.10064" lon="6.94957">
        <ele>1653.1999511719</ele>
        <time>2022-07-21T08:25:38.000Z</time>
      </trkpt>
      <trkpt lat="44.10062" lon="6.94959">
        <ele>1653.4000244141</ele>
        <time>2022-07-21T08:25:39.000Z</time>
      </trkpt>
      <trkpt lat="44.10053" lon="6.94965">
        <ele>1654.5999755859</ele>
        <time>2022-07-21T08:25:42.000Z</time>
      </trkpt>
      <trkpt lat="44.10043" lon="6.94971">
        <ele>1656</ele>
        <time>2022-07-21T08:25:45.000Z</time>
      </trkpt>
      <trkpt lat="44.10035" lon="6.94976">
        <ele>1657</ele>
        <time>2022-07-21T08:25:48.000Z</time>
      </trkpt>
      <trkpt lat="44.10026" lon="6.94981">
        <ele>1658.1999511719</ele>
        <time>2022-07-21T08:25:51.000Z</time>
      </trkpt>
      <trkpt lat="44.10021" lon="6.94982">
        <ele>1659.4000244141</ele>
        <time>2022-07-21T08:25:53.000Z</time>
      </trkpt>
      <trkpt lat="44.10016" lon="6.94983">
        <ele>1660.5999755859</ele>
        <time>2022-07-21T08:25:55.000Z</time>
      </trkpt>
      <trkpt lat="44.10004" lon="6.94984">
        <ele>1661.1999511719</ele>
        <time>2022-07-21T08:26:00.000Z</time>
      </trkpt>
      <trkpt lat="44.09991" lon="6.94986">
        <ele>1661.5999755859</ele>
        <time>2022-07-21T08:26:05.000Z</time>
      </trkpt>
      <trkpt lat="44.09988" lon="6.94986">
        <ele>1662</ele>
        <time>2022-07-21T08:26:06.000Z</time>
      </trkpt>
      <trkpt lat="44.09977" lon="6.9499">
        <ele>1662.5999755859</ele>
        <time>2022-07-21T08:26:12.000Z</time>
      </trkpt>
      <trkpt lat="44.09975" lon="6.94991">
        <ele>1662.8000488281</ele>
        <time>2022-07-21T08:26:13.000Z</time>
      </trkpt>
      <trkpt lat="44.09966" lon="6.94994">
        <ele>1663.4000244141</ele>
        <time>2022-07-21T08:26:18.000Z</time>
      </trkpt>
      <trkpt lat="44.09963" lon="6.94997">
        <ele>1664</ele>
        <time>2022-07-21T08:26:23.000Z</time>
      </trkpt>
      <trkpt lat="44.09957" lon="6.95002">
        <ele>1664.1999511719</ele>
        <time>2022-07-21T08:26:27.000Z</time>
      </trkpt>
      <trkpt lat="44.09946" lon="6.95016">
        <ele>1664.4000244141</ele>
        <time>2022-07-21T08:26:33.000Z</time>
      </trkpt>
      <trkpt lat="44.09935" lon="6.95028">
        <ele>1664.8000488281</ele>
        <time>2022-07-21T08:26:38.000Z</time>
      </trkpt>
      <trkpt lat="44.09921" lon="6.95047">
        <ele>1664</ele>
        <time>2022-07-21T08:26:44.000Z</time>
      </trkpt>
      <trkpt lat="44.09912" lon="6.95066">
        <ele>1665</ele>
        <time>2022-07-21T08:26:49.000Z</time>
      </trkpt>
      <trkpt lat="44.0991" lon="6.95074">
        <ele>1665.5999755859</ele>
        <time>2022-07-21T08:26:51.000Z</time>
      </trkpt>
      <trkpt lat="44.09907" lon="6.95084">
        <ele>1666</ele>
        <time>2022-07-21T08:26:54.000Z</time>
      </trkpt>
      <trkpt lat="44.09904" lon="6.95095">
        <ele>1667</ele>
        <time>2022-07-21T08:26:57.000Z</time>
      </trkpt>
      <trkpt lat="44.09902" lon="6.95098">
        <ele>1667.1999511719</ele>
        <time>2022-07-21T08:26:58.000Z</time>
      </trkpt>
      <trkpt lat="44.09896" lon="6.95113">
        <ele>1667.8000488281</ele>
        <time>2022-07-21T08:27:02.000Z</time>
      </trkpt>
      <trkpt lat="44.09893" lon="6.95131">
        <ele>1668</ele>
        <time>2022-07-21T08:27:07.000Z</time>
      </trkpt>
      <trkpt lat="44.09884" lon="6.9515">
        <ele>1668.1999511719</ele>
        <time>2022-07-21T08:27:12.000Z</time>
      </trkpt>
      <trkpt lat="44.09876" lon="6.95159">
        <ele>1667.8000488281</ele>
        <time>2022-07-21T08:27:16.000Z</time>
      </trkpt>
      <trkpt lat="44.09859" lon="6.95172">
        <ele>1667.5999755859</ele>
        <time>2022-07-21T08:27:23.000Z</time>
      </trkpt>
      <trkpt lat="44.09847" lon="6.95189">
        <ele>1667</ele>
        <time>2022-07-21T08:27:28.000Z</time>
      </trkpt>
      <trkpt lat="44.09842" lon="6.95199">
        <ele>1666.8000488281</ele>
        <time>2022-07-21T08:27:32.000Z</time>
      </trkpt>
      <trkpt lat="44.0984" lon="6.95202">
        <ele>1666.1999511719</ele>
        <time>2022-07-21T08:27:35.000Z</time>
      </trkpt>
      <trkpt lat="44.0984" lon="6.95202">
        <ele>1665.8000488281</ele>
        <time>2022-07-21T08:27:36.000Z</time>
      </trkpt>
      <trkpt lat="44.09837" lon="6.95204">
        <ele>1665.4000244141</ele>
        <time>2022-07-21T08:27:41.000Z</time>
      </trkpt>
      <trkpt lat="44.09835" lon="6.95204">
        <ele>1665.4000244141</ele>
        <time>2022-07-21T08:27:42.000Z</time>
      </trkpt>
      <trkpt lat="44.09834" lon="6.95204">
        <ele>1665</ele>
        <time>2022-07-21T08:27:44.000Z</time>
      </trkpt>
      <trkpt lat="44.09832" lon="6.95204">
        <ele>1663.8000488281</ele>
        <time>2022-07-21T08:27:47.000Z</time>
      </trkpt>
      <trkpt lat="44.09827" lon="6.95205">
        <ele>1663</ele>
        <time>2022-07-21T08:27:51.000Z</time>
      </trkpt>
      <trkpt lat="44.09825" lon="6.95205">
        <ele>1662.5999755859</ele>
        <time>2022-07-21T08:27:53.000Z</time>
      </trkpt>
      <trkpt lat="44.09819" lon="6.95205">
        <ele>1662.4000244141</ele>
        <time>2022-07-21T08:27:56.000Z</time>
      </trkpt>
      <trkpt lat="44.09808" lon="6.95209">
        <ele>1663</ele>
        <time>2022-07-21T08:28:01.000Z</time>
      </trkpt>
      <trkpt lat="44.09804" lon="6.95213">
        <ele>1663.4000244141</ele>
        <time>2022-07-21T08:28:05.000Z</time>
      </trkpt>
      <trkpt lat="44.09803" lon="6.95213">
        <ele>1663.8000488281</ele>
        <time>2022-07-21T08:28:06.000Z</time>
      </trkpt>
      <trkpt lat="44.09804" lon="6.95214">
        <ele>1664.8000488281</ele>
        <time>2022-07-21T08:28:12.000Z</time>
      </trkpt>
      <trkpt lat="44.09805" lon="6.95217">
        <ele>1664.1999511719</ele>
        <time>2022-07-21T08:28:25.000Z</time>
      </trkpt>
      <trkpt lat="44.09805" lon="6.95218">
        <ele>1664.8000488281</ele>
        <time>2022-07-21T08:28:32.000Z</time>
      </trkpt>
      <trkpt lat="44.09804" lon="6.95222">
        <ele>1664.5999755859</ele>
        <time>2022-07-21T08:28:43.000Z</time>
      </trkpt>
      <trkpt lat="44.09804" lon="6.95221">
        <ele>1665</ele>
        <time>2022-07-21T08:28:52.000Z</time>
      </trkpt>
      <trkpt lat="44.09805" lon="6.9522">
        <ele>1664.8000488281</ele>
        <time>2022-07-21T08:29:04.000Z</time>
      </trkpt>
      <trkpt lat="44.09803" lon="6.95221">
        <ele>1664.8000488281</ele>
        <time>2022-07-21T08:29:15.000Z</time>
      </trkpt>
      <trkpt lat="44.09803" lon="6.95223">
        <ele>1664.8000488281</ele>
        <time>2022-07-21T08:29:27.000Z</time>
      </trkpt>
      <trkpt lat="44.09802" lon="6.95225">
        <ele>1664.8000488281</ele>
        <time>2022-07-21T08:29:35.000Z</time>
      </trkpt>
      <trkpt lat="44.098" lon="6.95226">
        <ele>1664.8000488281</ele>
        <time>2022-07-21T08:29:53.000Z</time>
      </trkpt>
      <trkpt lat="44.098" lon="6.95224">
        <ele>1664.5999755859</ele>
        <time>2022-07-21T08:30:06.000Z</time>
      </trkpt>
      <trkpt lat="44.09796" lon="6.95225">
        <ele>1665</ele>
        <time>2022-07-21T08:30:11.000Z</time>
      </trkpt>
      <trkpt lat="44.09785" lon="6.9523">
        <ele>1665.4000244141</ele>
        <time>2022-07-21T08:30:16.000Z</time>
      </trkpt>
      <trkpt lat="44.09778" lon="6.95237">
        <ele>1666.1999511719</ele>
        <time>2022-07-21T08:30:19.000Z</time>
      </trkpt>
      <trkpt lat="44.09774" lon="6.95241">
        <ele>1667</ele>
        <time>2022-07-21T08:30:21.000Z</time>
      </trkpt>
      <trkpt lat="44.09772" lon="6.95243">
        <ele>1667.4000244141</ele>
        <time>2022-07-21T08:30:22.000Z</time>
      </trkpt>
      <trkpt lat="44.09767" lon="6.95252">
        <ele>1668.4000244141</ele>
        <time>2022-07-21T08:30:25.000Z</time>
      </trkpt>
      <trkpt lat="44.09765" lon="6.95256">
        <ele>1669</ele>
        <time>2022-07-21T08:30:26.000Z</time>
      </trkpt>
      <trkpt lat="44.09763" lon="6.95261">
        <ele>1669.5999755859</ele>
        <time>2022-07-21T08:30:28.000Z</time>
      </trkpt>
      <trkpt lat="44.09762" lon="6.95266">
        <ele>1670.8000488281</ele>
        <time>2022-07-21T08:30:30.000Z</time>
      </trkpt>
      <trkpt lat="44.0976" lon="6.95268">
        <ele>1671.1999511719</ele>
        <time>2022-07-21T08:30:31.000Z</time>
      </trkpt>
      <trkpt lat="44.09758" lon="6.95269">
        <ele>1671.8000488281</ele>
        <time>2022-07-21T08:30:32.000Z</time>
      </trkpt>
      <trkpt lat="44.09751" lon="6.95276">
        <ele>1673.1999511719</ele>
        <time>2022-07-21T08:30:36.000Z</time>
      </trkpt>
      <trkpt lat="44.09749" lon="6.95278">
        <ele>1673.1999511719</ele>
        <time>2022-07-21T08:30:37.000Z</time>
      </trkpt>
      <trkpt lat="44.09742" lon="6.9529">
        <ele>1674.1999511719</ele>
        <time>2022-07-21T08:30:42.000Z</time>
      </trkpt>
      <trkpt lat="44.09741" lon="6.95293">
        <ele>1674.4000244141</ele>
        <time>2022-07-21T08:30:43.000Z</time>
      </trkpt>
      <trkpt lat="44.0974" lon="6.95299">
        <ele>1675.5999755859</ele>
        <time>2022-07-21T08:30:46.000Z</time>
      </trkpt>
      <trkpt lat="44.09739" lon="6.95304">
        <ele>1676.1999511719</ele>
        <time>2022-07-21T08:30:49.000Z</time>
      </trkpt>
      <trkpt lat="44.09735" lon="6.95322">
        <ele>1675.8000488281</ele>
        <time>2022-07-21T08:30:55.000Z</time>
      </trkpt>
      <trkpt lat="44.09731" lon="6.95337">
        <ele>1675.4000244141</ele>
        <time>2022-07-21T08:30:59.000Z</time>
      </trkpt>
      <trkpt lat="44.09729" lon="6.9536">
        <ele>1674.1999511719</ele>
        <time>2022-07-21T08:31:04.000Z</time>
      </trkpt>
      <trkpt lat="44.09728" lon="6.95365">
        <ele>1673.8000488281</ele>
        <time>2022-07-21T08:31:05.000Z</time>
      </trkpt>
      <trkpt lat="44.09727" lon="6.95381">
        <ele>1673</ele>
        <time>2022-07-21T08:31:08.000Z</time>
      </trkpt>
      <trkpt lat="44.09726" lon="6.95393">
        <ele>1672.4000244141</ele>
        <time>2022-07-21T08:31:10.000Z</time>
      </trkpt>
      <trkpt lat="44.09726" lon="6.95407">
        <ele>1671.5999755859</ele>
        <time>2022-07-21T08:31:12.000Z</time>
      </trkpt>
      <trkpt lat="44.09725" lon="6.9542">
        <ele>1670.4000244141</ele>
        <time>2022-07-21T08:31:14.000Z</time>
      </trkpt>
      <trkpt lat="44.09724" lon="6.95428">
        <ele>1670</ele>
        <time>2022-07-21T08:31:15.000Z</time>
      </trkpt>
      <trkpt lat="44.09723" lon="6.95444">
        <ele>1668.8000488281</ele>
        <time>2022-07-21T08:31:17.000Z</time>
      </trkpt>
      <trkpt lat="44.0972" lon="6.95458">
        <ele>1667.1999511719</ele>
        <time>2022-07-21T08:31:19.000Z</time>
      </trkpt>
      <trkpt lat="44.09717" lon="6.95477">
        <ele>1665.4000244141</ele>
        <time>2022-07-21T08:31:21.000Z</time>
      </trkpt>
      <trkpt lat="44.09715" lon="6.95491">
        <ele>1663.5999755859</ele>
        <time>2022-07-21T08:31:23.000Z</time>
      </trkpt>
      <trkpt lat="44.09713" lon="6.955">
        <ele>1661.5999755859</ele>
        <time>2022-07-21T08:31:25.000Z</time>
      </trkpt>
      <trkpt lat="44.09711" lon="6.95508">
        <ele>1660.1999511719</ele>
        <time>2022-07-21T08:31:27.000Z</time>
      </trkpt>
      <trkpt lat="44.09709" lon="6.95513">
        <ele>1660.4000244141</ele>
        <time>2022-07-21T08:31:28.000Z</time>
      </trkpt>
      <trkpt lat="44.09704" lon="6.95527">
        <ele>1659</ele>
        <time>2022-07-21T08:31:31.000Z</time>
      </trkpt>
      <trkpt lat="44.09702" lon="6.95531">
        <ele>1658.1999511719</ele>
        <time>2022-07-21T08:31:32.000Z</time>
      </trkpt>
      <trkpt lat="44.09699" lon="6.95535">
        <ele>1656.8000488281</ele>
        <time>2022-07-21T08:31:33.000Z</time>
      </trkpt>
      <trkpt lat="44.09693" lon="6.95546">
        <ele>1655</ele>
        <time>2022-07-21T08:31:35.000Z</time>
      </trkpt>
      <trkpt lat="44.09689" lon="6.95551">
        <ele>1654</ele>
        <time>2022-07-21T08:31:36.000Z</time>
      </trkpt>
      <trkpt lat="44.09686" lon="6.95557">
        <ele>1652.4000244141</ele>
        <time>2022-07-21T08:31:37.000Z</time>
      </trkpt>
      <trkpt lat="44.09682" lon="6.95563">
        <ele>1650.8000488281</ele>
        <time>2022-07-21T08:31:38.000Z</time>
      </trkpt>
      <trkpt lat="44.0968" lon="6.9557">
        <ele>1649.5999755859</ele>
        <time>2022-07-21T08:31:39.000Z</time>
      </trkpt>
      <trkpt lat="44.09678" lon="6.95576">
        <ele>1647.8000488281</ele>
        <time>2022-07-21T08:31:40.000Z</time>
      </trkpt>
      <trkpt lat="44.09677" lon="6.95582">
        <ele>1646.1999511719</ele>
        <time>2022-07-21T08:31:41.000Z</time>
      </trkpt>
      <trkpt lat="44.09676" lon="6.95588">
        <ele>1645.1999511719</ele>
        <time>2022-07-21T08:31:42.000Z</time>
      </trkpt>
      <trkpt lat="44.09677" lon="6.95592">
        <ele>1644.5999755859</ele>
        <time>2022-07-21T08:31:43.000Z</time>
      </trkpt>
      <trkpt lat="44.09677" lon="6.95596">
        <ele>1643.1999511719</ele>
        <time>2022-07-21T08:31:44.000Z</time>
      </trkpt>
      <trkpt lat="44.09675" lon="6.95618">
        <ele>1643.4000244141</ele>
        <time>2022-07-21T08:31:49.000Z</time>
      </trkpt>
      <trkpt lat="44.09671" lon="6.95641">
        <ele>1643.4000244141</ele>
        <time>2022-07-21T08:31:55.000Z</time>
      </trkpt>
      <trkpt lat="44.09667" lon="6.95667">
        <ele>1643.4000244141</ele>
        <time>2022-07-21T08:32:01.000Z</time>
      </trkpt>
      <trkpt lat="44.09657" lon="6.95705">
        <ele>1642.4000244141</ele>
        <time>2022-07-21T08:32:09.000Z</time>
      </trkpt>
      <trkpt lat="44.09657" lon="6.9571">
        <ele>1642.1999511719</ele>
        <time>2022-07-21T08:32:10.000Z</time>
      </trkpt>
      <trkpt lat="44.09653" lon="6.95737">
        <ele>1641.1999511719</ele>
        <time>2022-07-21T08:32:15.000Z</time>
      </trkpt>
      <trkpt lat="44.09652" lon="6.95749">
        <ele>1641.1999511719</ele>
        <time>2022-07-21T08:32:17.000Z</time>
      </trkpt>
      <trkpt lat="44.09651" lon="6.9576">
        <ele>1641</ele>
        <time>2022-07-21T08:32:19.000Z</time>
      </trkpt>
      <trkpt lat="44.09648" lon="6.95778">
        <ele>1640.5999755859</ele>
        <time>2022-07-21T08:32:22.000Z</time>
      </trkpt>
      <trkpt lat="44.09647" lon="6.95785">
        <ele>1640.4000244141</ele>
        <time>2022-07-21T08:32:23.000Z</time>
      </trkpt>
      <trkpt lat="44.09647" lon="6.95799">
        <ele>1640</ele>
        <time>2022-07-21T08:32:25.000Z</time>
      </trkpt>
      <trkpt lat="44.09649" lon="6.95821">
        <ele>1639</ele>
        <time>2022-07-21T08:32:28.000Z</time>
      </trkpt>
      <trkpt lat="44.0965" lon="6.95829">
        <ele>1638.5999755859</ele>
        <time>2022-07-21T08:32:29.000Z</time>
      </trkpt>
      <trkpt lat="44.09651" lon="6.95843">
        <ele>1637.5999755859</ele>
        <time>2022-07-21T08:32:31.000Z</time>
      </trkpt>
      <trkpt lat="44.09651" lon="6.95849">
        <ele>1637.1999511719</ele>
        <time>2022-07-21T08:32:32.000Z</time>
      </trkpt>
      <trkpt lat="44.09652" lon="6.95853">
        <ele>1637</ele>
        <time>2022-07-21T08:32:33.000Z</time>
      </trkpt>
      <trkpt lat="44.09653" lon="6.95855">
        <ele>1636.5999755859</ele>
        <time>2022-07-21T08:32:34.000Z</time>
      </trkpt>
      <trkpt lat="44.09653" lon="6.95857">
        <ele>1636.4000244141</ele>
        <time>2022-07-21T08:32:35.000Z</time>
      </trkpt>
      <trkpt lat="44.09652" lon="6.95862">
        <ele>1635.8000488281</ele>
        <time>2022-07-21T08:32:38.000Z</time>
      </trkpt>
      <trkpt lat="44.0965" lon="6.95865">
        <ele>1635.5999755859</ele>
        <time>2022-07-21T08:32:40.000Z</time>
      </trkpt>
      <trkpt lat="44.09651" lon="6.95874">
        <ele>1634.4000244141</ele>
        <time>2022-07-21T08:32:43.000Z</time>
      </trkpt>
      <trkpt lat="44.09649" lon="6.95886">
        <ele>1633.1999511719</ele>
        <time>2022-07-21T08:32:46.000Z</time>
      </trkpt>
      <trkpt lat="44.09648" lon="6.95889">
        <ele>1632.8000488281</ele>
        <time>2022-07-21T08:32:47.000Z</time>
      </trkpt>
      <trkpt lat="44.09646" lon="6.95897">
        <ele>1632.4000244141</ele>
        <time>2022-07-21T08:32:49.000Z</time>
      </trkpt>
      <trkpt lat="44.09647" lon="6.95906">
        <ele>1632.1999511719</ele>
        <time>2022-07-21T08:32:51.000Z</time>
      </trkpt>
      <trkpt lat="44.09648" lon="6.95913">
        <ele>1632.1999511719</ele>
        <time>2022-07-21T08:32:53.000Z</time>
      </trkpt>
      <trkpt lat="44.09647" lon="6.95915">
        <ele>1631.8000488281</ele>
        <time>2022-07-21T08:32:54.000Z</time>
      </trkpt>
      <trkpt lat="44.09645" lon="6.95915">
        <ele>1631.1999511719</ele>
        <time>2022-07-21T08:32:55.000Z</time>
      </trkpt>
      <trkpt lat="44.09638" lon="6.95909">
        <ele>1631</ele>
        <time>2022-07-21T08:32:58.000Z</time>
      </trkpt>
      <trkpt lat="44.0963" lon="6.95904">
        <ele>1631.8000488281</ele>
        <time>2022-07-21T08:33:00.000Z</time>
      </trkpt>
      <trkpt lat="44.09623" lon="6.95901">
        <ele>1631.8000488281</ele>
        <time>2022-07-21T08:33:02.000Z</time>
      </trkpt>
      <trkpt lat="44.0962" lon="6.95901">
        <ele>1632.1999511719</ele>
        <time>2022-07-21T08:33:03.000Z</time>
      </trkpt>
      <trkpt lat="44.09608" lon="6.959">
        <ele>1633.4000244141</ele>
        <time>2022-07-21T08:33:07.000Z</time>
      </trkpt>
      <trkpt lat="44.09605" lon="6.959">
        <ele>1633.5999755859</ele>
        <time>2022-07-21T08:33:08.000Z</time>
      </trkpt>
      <trkpt lat="44.09602" lon="6.959">
        <ele>1634.4000244141</ele>
        <time>2022-07-21T08:33:10.000Z</time>
      </trkpt>
      <trkpt lat="44.09599" lon="6.959">
        <ele>1635.4000244141</ele>
        <time>2022-07-21T08:33:12.000Z</time>
      </trkpt>
      <trkpt lat="44.09598" lon="6.95899">
        <ele>1635.8000488281</ele>
        <time>2022-07-21T08:33:13.000Z</time>
      </trkpt>
      <trkpt lat="44.0959" lon="6.95903">
        <ele>1636.4000244141</ele>
        <time>2022-07-21T08:33:19.000Z</time>
      </trkpt>
      <trkpt lat="44.09588" lon="6.95907">
        <ele>1637</ele>
        <time>2022-07-21T08:33:23.000Z</time>
      </trkpt>
      <trkpt lat="44.09586" lon="6.95908">
        <ele>1637.1999511719</ele>
        <time>2022-07-21T08:33:25.000Z</time>
      </trkpt>
      <trkpt lat="44.09587" lon="6.95908">
        <ele>1637.5999755859</ele>
        <time>2022-07-21T08:33:31.000Z</time>
      </trkpt>
      <trkpt lat="44.09586" lon="6.95908">
        <ele>1638</ele>
        <time>2022-07-21T08:33:38.000Z</time>
      </trkpt>
      <trkpt lat="44.09586" lon="6.95908">
        <ele>1638.1999511719</ele>
        <time>2022-07-21T08:33:43.000Z</time>
      </trkpt>
      <trkpt lat="44.09583" lon="6.9591">
        <ele>1638.1999511719</ele>
        <time>2022-07-21T08:33:51.000Z</time>
      </trkpt>
      <trkpt lat="44.09576" lon="6.95923">
        <ele>1638</ele>
        <time>2022-07-21T08:33:55.000Z</time>
      </trkpt>
      <trkpt lat="44.0957" lon="6.95931">
        <ele>1638</ele>
        <time>2022-07-21T08:33:57.000Z</time>
      </trkpt>
      <trkpt lat="44.09563" lon="6.95937">
        <ele>1637.8000488281</ele>
        <time>2022-07-21T08:33:59.000Z</time>
      </trkpt>
      <trkpt lat="44.09555" lon="6.95948">
        <ele>1637</ele>
        <time>2022-07-21T08:34:02.000Z</time>
      </trkpt>
      <trkpt lat="44.09552" lon="6.95953">
        <ele>1636.8000488281</ele>
        <time>2022-07-21T08:34:03.000Z</time>
      </trkpt>
      <trkpt lat="44.09542" lon="6.9597">
        <ele>1636</ele>
        <time>2022-07-21T08:34:06.000Z</time>
      </trkpt>
      <trkpt lat="44.09539" lon="6.95978">
        <ele>1635.5999755859</ele>
        <time>2022-07-21T08:34:07.000Z</time>
      </trkpt>
      <trkpt lat="44.09535" lon="6.95991">
        <ele>1634.5999755859</ele>
        <time>2022-07-21T08:34:09.000Z</time>
      </trkpt>
      <trkpt lat="44.09535" lon="6.95995">
        <ele>1633.8000488281</ele>
        <time>2022-07-21T08:34:10.000Z</time>
      </trkpt>
      <trkpt lat="44.09534" lon="6.95999">
        <ele>1633.4000244141</ele>
        <time>2022-07-21T08:34:11.000Z</time>
      </trkpt>
      <trkpt lat="44.09533" lon="6.96004">
        <ele>1633</ele>
        <time>2022-07-21T08:34:12.000Z</time>
      </trkpt>
      <trkpt lat="44.09531" lon="6.9601">
        <ele>1632.5999755859</ele>
        <time>2022-07-21T08:34:13.000Z</time>
      </trkpt>
      <trkpt lat="44.09522" lon="6.96032">
        <ele>1632</ele>
        <time>2022-07-21T08:34:16.000Z</time>
      </trkpt>
      <trkpt lat="44.09515" lon="6.96048">
        <ele>1630.5999755859</ele>
        <time>2022-07-21T08:34:18.000Z</time>
      </trkpt>
      <trkpt lat="44.09508" lon="6.96065">
        <ele>1629.4000244141</ele>
        <time>2022-07-21T08:34:20.000Z</time>
      </trkpt>
      <trkpt lat="44.09502" lon="6.96077">
        <ele>1628.1999511719</ele>
        <time>2022-07-21T08:34:22.000Z</time>
      </trkpt>
      <trkpt lat="44.09496" lon="6.9609">
        <ele>1627</ele>
        <time>2022-07-21T08:34:25.000Z</time>
      </trkpt>
      <trkpt lat="44.09494" lon="6.96096">
        <ele>1626.4000244141</ele>
        <time>2022-07-21T08:34:27.000Z</time>
      </trkpt>
      <trkpt lat="44.09494" lon="6.961">
        <ele>1625.8000488281</ele>
        <time>2022-07-21T08:34:28.000Z</time>
      </trkpt>
      <trkpt lat="44.09493" lon="6.96118">
        <ele>1625</ele>
        <time>2022-07-21T08:34:31.000Z</time>
      </trkpt>
      <trkpt lat="44.09493" lon="6.96124">
        <ele>1624.4000244141</ele>
        <time>2022-07-21T08:34:32.000Z</time>
      </trkpt>
      <trkpt lat="44.09492" lon="6.96129">
        <ele>1624</ele>
        <time>2022-07-21T08:34:33.000Z</time>
      </trkpt>
      <trkpt lat="44.09489" lon="6.96132">
        <ele>1623.8000488281</ele>
        <time>2022-07-21T08:34:34.000Z</time>
      </trkpt>
      <trkpt lat="44.09484" lon="6.96133">
        <ele>1623.1999511719</ele>
        <time>2022-07-21T08:34:35.000Z</time>
      </trkpt>
      <trkpt lat="44.09474" lon="6.96138">
        <ele>1623</ele>
        <time>2022-07-21T08:34:37.000Z</time>
      </trkpt>
      <trkpt lat="44.09469" lon="6.96141">
        <ele>1622.5999755859</ele>
        <time>2022-07-21T08:34:38.000Z</time>
      </trkpt>
      <trkpt lat="44.09465" lon="6.96145">
        <ele>1622.1999511719</ele>
        <time>2022-07-21T08:34:39.000Z</time>
      </trkpt>
      <trkpt lat="44.09455" lon="6.96156">
        <ele>1621</ele>
        <time>2022-07-21T08:34:42.000Z</time>
      </trkpt>
      <trkpt lat="44.09447" lon="6.96166">
        <ele>1620.5999755859</ele>
        <time>2022-07-21T08:34:47.000Z</time>
      </trkpt>
      <trkpt lat="44.09446" lon="6.96166">
        <ele>1619.8000488281</ele>
        <time>2022-07-21T08:34:50.000Z</time>
      </trkpt>
      <trkpt lat="44.09443" lon="6.96169">
        <ele>1619.5999755859</ele>
        <time>2022-07-21T08:34:56.000Z</time>
      </trkpt>
      <trkpt lat="44.09434" lon="6.96185">
        <ele>1618.4000244141</ele>
        <time>2022-07-21T08:35:01.000Z</time>
      </trkpt>
      <trkpt lat="44.09431" lon="6.96193">
        <ele>1617.1999511719</ele>
        <time>2022-07-21T08:35:04.000Z</time>
      </trkpt>
      <trkpt lat="44.09428" lon="6.96197">
        <ele>1617</ele>
        <time>2022-07-21T08:35:05.000Z</time>
      </trkpt>
      <trkpt lat="44.0942" lon="6.96207">
        <ele>1615.8000488281</ele>
        <time>2022-07-21T08:35:08.000Z</time>
      </trkpt>
      <trkpt lat="44.09417" lon="6.96212">
        <ele>1615.4000244141</ele>
        <time>2022-07-21T08:35:09.000Z</time>
      </trkpt>
      <trkpt lat="44.09415" lon="6.96219">
        <ele>1614.8000488281</ele>
        <time>2022-07-21T08:35:10.000Z</time>
      </trkpt>
      <trkpt lat="44.09413" lon="6.96227">
        <ele>1613.5999755859</ele>
        <time>2022-07-21T08:35:11.000Z</time>
      </trkpt>
      <trkpt lat="44.09411" lon="6.96233">
        <ele>1612.5999755859</ele>
        <time>2022-07-21T08:35:12.000Z</time>
      </trkpt>
      <trkpt lat="44.09409" lon="6.9624">
        <ele>1612</ele>
        <time>2022-07-21T08:35:13.000Z</time>
      </trkpt>
      <trkpt lat="44.09407" lon="6.96246">
        <ele>1611</ele>
        <time>2022-07-21T08:35:14.000Z</time>
      </trkpt>
      <trkpt lat="44.09403" lon="6.96254">
        <ele>1609.5999755859</ele>
        <time>2022-07-21T08:35:16.000Z</time>
      </trkpt>
      <trkpt lat="44.09395" lon="6.96259">
        <ele>1608.4000244141</ele>
        <time>2022-07-21T08:35:19.000Z</time>
      </trkpt>
      <trkpt lat="44.09391" lon="6.96262">
        <ele>1607.8000488281</ele>
        <time>2022-07-21T08:35:20.000Z</time>
      </trkpt>
      <trkpt lat="44.09381" lon="6.96271">
        <ele>1607</ele>
        <time>2022-07-21T08:35:22.000Z</time>
      </trkpt>
      <trkpt lat="44.09371" lon="6.9628">
        <ele>1605.1999511719</ele>
        <time>2022-07-21T08:35:24.000Z</time>
      </trkpt>
      <trkpt lat="44.09364" lon="6.96288">
        <ele>1603.5999755859</ele>
        <time>2022-07-21T08:35:26.000Z</time>
      </trkpt>
      <trkpt lat="44.0936" lon="6.96292">
        <ele>1602.4000244141</ele>
        <time>2022-07-21T08:35:27.000Z</time>
      </trkpt>
      <trkpt lat="44.09355" lon="6.96298">
        <ele>1601.4000244141</ele>
        <time>2022-07-21T08:35:28.000Z</time>
      </trkpt>
      <trkpt lat="44.09349" lon="6.96304">
        <ele>1600</ele>
        <time>2022-07-21T08:35:29.000Z</time>
      </trkpt>
      <trkpt lat="44.09343" lon="6.96311">
        <ele>1599</ele>
        <time>2022-07-21T08:35:30.000Z</time>
      </trkpt>
      <trkpt lat="44.09337" lon="6.96315">
        <ele>1598</ele>
        <time>2022-07-21T08:35:31.000Z</time>
      </trkpt>
      <trkpt lat="44.09331" lon="6.96321">
        <ele>1596.8000488281</ele>
        <time>2022-07-21T08:35:32.000Z</time>
      </trkpt>
      <trkpt lat="44.09323" lon="6.96328">
        <ele>1595.4000244141</ele>
        <time>2022-07-21T08:35:34.000Z</time>
      </trkpt>
      <trkpt lat="44.09315" lon="6.96332">
        <ele>1594</ele>
        <time>2022-07-21T08:35:36.000Z</time>
      </trkpt>
      <trkpt lat="44.0931" lon="6.96335">
        <ele>1592.5999755859</ele>
        <time>2022-07-21T08:35:37.000Z</time>
      </trkpt>
      <trkpt lat="44.09306" lon="6.96339">
        <ele>1592.1999511719</ele>
        <time>2022-07-21T08:35:38.000Z</time>
      </trkpt>
      <trkpt lat="44.09298" lon="6.96348">
        <ele>1591.1999511719</ele>
        <time>2022-07-21T08:35:40.000Z</time>
      </trkpt>
      <trkpt lat="44.09297" lon="6.96356">
        <ele>1590.5999755859</ele>
        <time>2022-07-21T08:35:41.000Z</time>
      </trkpt>
      <trkpt lat="44.09293" lon="6.96369">
        <ele>1589.4000244141</ele>
        <time>2022-07-21T08:35:43.000Z</time>
      </trkpt>
      <trkpt lat="44.09289" lon="6.96372">
        <ele>1588.1999511719</ele>
        <time>2022-07-21T08:35:44.000Z</time>
      </trkpt>
      <trkpt lat="44.0928" lon="6.9637">
        <ele>1586.5999755859</ele>
        <time>2022-07-21T08:35:46.000Z</time>
      </trkpt>
      <trkpt lat="44.09271" lon="6.96372">
        <ele>1585.5999755859</ele>
        <time>2022-07-21T08:35:48.000Z</time>
      </trkpt>
      <trkpt lat="44.09261" lon="6.96375">
        <ele>1584.8000488281</ele>
        <time>2022-07-21T08:35:50.000Z</time>
      </trkpt>
      <trkpt lat="44.09256" lon="6.96375">
        <ele>1584.4000244141</ele>
        <time>2022-07-21T08:35:51.000Z</time>
      </trkpt>
      <trkpt lat="44.09239" lon="6.96373">
        <ele>1583.4000244141</ele>
        <time>2022-07-21T08:35:54.000Z</time>
      </trkpt>
      <trkpt lat="44.09231" lon="6.96372">
        <ele>1583.4000244141</ele>
        <time>2022-07-21T08:35:56.000Z</time>
      </trkpt>
      <trkpt lat="44.09225" lon="6.96371">
        <ele>1582.8000488281</ele>
        <time>2022-07-21T08:35:58.000Z</time>
      </trkpt>
      <trkpt lat="44.0921" lon="6.96368">
        <ele>1583.5999755859</ele>
        <time>2022-07-21T08:36:03.000Z</time>
      </trkpt>
      <trkpt lat="44.09193" lon="6.96371">
        <ele>1583.5999755859</ele>
        <time>2022-07-21T08:36:08.000Z</time>
      </trkpt>
      <trkpt lat="44.09187" lon="6.96373">
        <ele>1584.4000244141</ele>
        <time>2022-07-21T08:36:10.000Z</time>
      </trkpt>
      <trkpt lat="44.09183" lon="6.96375">
        <ele>1585.4000244141</ele>
        <time>2022-07-21T08:36:12.000Z</time>
      </trkpt>
      <trkpt lat="44.0918" lon="6.96377">
        <ele>1585.5999755859</ele>
        <time>2022-07-21T08:36:13.000Z</time>
      </trkpt>
      <trkpt lat="44.09174" lon="6.96382">
        <ele>1586.8000488281</ele>
        <time>2022-07-21T08:36:17.000Z</time>
      </trkpt>
      <trkpt lat="44.09171" lon="6.96384">
        <ele>1587.1999511719</ele>
        <time>2022-07-21T08:36:19.000Z</time>
      </trkpt>
      <trkpt lat="44.09169" lon="6.96387">
        <ele>1587.8000488281</ele>
        <time>2022-07-21T08:36:22.000Z</time>
      </trkpt>
      <trkpt lat="44.09166" lon="6.96389">
        <ele>1588.1999511719</ele>
        <time>2022-07-21T08:36:25.000Z</time>
      </trkpt>
      <trkpt lat="44.09163" lon="6.96391">
        <ele>1588.8000488281</ele>
        <time>2022-07-21T08:36:30.000Z</time>
      </trkpt>
      <trkpt lat="44.09163" lon="6.96391">
        <ele>1589</ele>
        <time>2022-07-21T08:36:31.000Z</time>
      </trkpt>
      <trkpt lat="44.0916" lon="6.96392">
        <ele>1589.1999511719</ele>
        <time>2022-07-21T08:36:39.000Z</time>
      </trkpt>
      <trkpt lat="44.0916" lon="6.96392">
        <ele>1589</ele>
        <time>2022-07-21T08:36:45.000Z</time>
      </trkpt>
      <trkpt lat="44.09159" lon="6.96392">
        <ele>1589.5999755859</ele>
        <time>2022-07-21T08:37:02.000Z</time>
      </trkpt>
      <trkpt lat="44.0916" lon="6.96392">
        <ele>1589.4000244141</ele>
        <time>2022-07-21T08:37:17.000Z</time>
      </trkpt>
      <trkpt lat="44.0916" lon="6.96393">
        <ele>1589.8000488281</ele>
        <time>2022-07-21T08:37:40.000Z</time>
      </trkpt>
      <trkpt lat="44.09159" lon="6.96394">
        <ele>1589.8000488281</ele>
        <time>2022-07-21T08:37:52.000Z</time>
      </trkpt>
      <trkpt lat="44.09159" lon="6.96394">
        <ele>1589.8000488281</ele>
        <time>2022-07-21T08:37:57.000Z</time>
      </trkpt>
      <trkpt lat="44.09159" lon="6.96394">
        <ele>1589.8000488281</ele>
        <time>2022-07-21T08:38:17.000Z</time>
      </trkpt>
      <trkpt lat="44.0916" lon="6.96394">
        <ele>1589.5999755859</ele>
        <time>2022-07-21T08:38:44.000Z</time>
      </trkpt>
      <trkpt lat="44.09159" lon="6.96395">
        <ele>1589.4000244141</ele>
        <time>2022-07-21T08:39:00.000Z</time>
      </trkpt>
      <trkpt lat="44.09159" lon="6.96395">
        <ele>1589</ele>
        <time>2022-07-21T08:39:06.000Z</time>
      </trkpt>
      <trkpt lat="44.09157" lon="6.96397">
        <ele>1589.1999511719</ele>
        <time>2022-07-21T08:39:36.000Z</time>
      </trkpt>
      <trkpt lat="44.09147" lon="6.96403">
        <ele>1589</ele>
        <time>2022-07-21T08:39:41.000Z</time>
      </trkpt>
      <trkpt lat="44.09143" lon="6.96408">
        <ele>1588.8000488281</ele>
        <time>2022-07-21T08:39:43.000Z</time>
      </trkpt>
      <trkpt lat="44.09139" lon="6.9641">
        <ele>1588.8000488281</ele>
        <time>2022-07-21T08:39:45.000Z</time>
      </trkpt>
      <trkpt lat="44.09128" lon="6.96413">
        <ele>1589.8000488281</ele>
        <time>2022-07-21T08:39:49.000Z</time>
      </trkpt>
      <trkpt lat="44.09126" lon="6.96414">
        <ele>1589.8000488281</ele>
        <time>2022-07-21T08:39:50.000Z</time>
      </trkpt>
      <trkpt lat="44.09123" lon="6.96415">
        <ele>1589.5999755859</ele>
        <time>2022-07-21T08:39:51.000Z</time>
      </trkpt>
      <trkpt lat="44.09116" lon="6.96421">
        <ele>1589.5999755859</ele>
        <time>2022-07-21T08:39:54.000Z</time>
      </trkpt>
      <trkpt lat="44.09114" lon="6.96423">
        <ele>1589.8000488281</ele>
        <time>2022-07-21T08:39:55.000Z</time>
      </trkpt>
      <trkpt lat="44.09107" lon="6.9643">
        <ele>1589.8000488281</ele>
        <time>2022-07-21T08:40:00.000Z</time>
      </trkpt>
      <trkpt lat="44.09098" lon="6.96436">
        <ele>1590.1999511719</ele>
        <time>2022-07-21T08:40:05.000Z</time>
      </trkpt>
      <trkpt lat="44.09089" lon="6.96447">
        <ele>1590.1999511719</ele>
        <time>2022-07-21T08:40:11.000Z</time>
      </trkpt>
      <trkpt lat="44.09076" lon="6.96455">
        <ele>1589.5999755859</ele>
        <time>2022-07-21T08:40:16.000Z</time>
      </trkpt>
      <trkpt lat="44.0907" lon="6.96467">
        <ele>1588.4000244141</ele>
        <time>2022-07-21T08:40:19.000Z</time>
      </trkpt>
      <trkpt lat="44.09069" lon="6.96472">
        <ele>1588.1999511719</ele>
        <time>2022-07-21T08:40:20.000Z</time>
      </trkpt>
      <trkpt lat="44.09068" lon="6.96483">
        <ele>1587.4000244141</ele>
        <time>2022-07-21T08:40:22.000Z</time>
      </trkpt>
      <trkpt lat="44.09068" lon="6.965">
        <ele>1586</ele>
        <time>2022-07-21T08:40:25.000Z</time>
      </trkpt>
      <trkpt lat="44.09068" lon="6.96507">
        <ele>1585.5999755859</ele>
        <time>2022-07-21T08:40:26.000Z</time>
      </trkpt>
      <trkpt lat="44.09068" lon="6.96514">
        <ele>1585</ele>
        <time>2022-07-21T08:40:27.000Z</time>
      </trkpt>
      <trkpt lat="44.09068" lon="6.96527">
        <ele>1583.8000488281</ele>
        <time>2022-07-21T08:40:29.000Z</time>
      </trkpt>
      <trkpt lat="44.09068" lon="6.96541">
        <ele>1582.1999511719</ele>
        <time>2022-07-21T08:40:31.000Z</time>
      </trkpt>
      <trkpt lat="44.09068" lon="6.96555">
        <ele>1581</ele>
        <time>2022-07-21T08:40:33.000Z</time>
      </trkpt>
      <trkpt lat="44.09067" lon="6.9657">
        <ele>1579.5999755859</ele>
        <time>2022-07-21T08:40:35.000Z</time>
      </trkpt>
      <trkpt lat="44.09068" lon="6.96588">
        <ele>1578.1999511719</ele>
        <time>2022-07-21T08:40:37.000Z</time>
      </trkpt>
      <trkpt lat="44.09069" lon="6.96605">
        <ele>1576.5999755859</ele>
        <time>2022-07-21T08:40:39.000Z</time>
      </trkpt>
      <trkpt lat="44.09072" lon="6.96623">
        <ele>1574.4000244141</ele>
        <time>2022-07-21T08:40:41.000Z</time>
      </trkpt>
      <trkpt lat="44.09075" lon="6.96632">
        <ele>1573.5999755859</ele>
        <time>2022-07-21T08:40:42.000Z</time>
      </trkpt>
      <trkpt lat="44.09077" lon="6.96641">
        <ele>1572.8000488281</ele>
        <time>2022-07-21T08:40:43.000Z</time>
      </trkpt>
      <trkpt lat="44.09083" lon="6.96659">
        <ele>1571.4000244141</ele>
        <time>2022-07-21T08:40:45.000Z</time>
      </trkpt>
      <trkpt lat="44.09087" lon="6.96667">
        <ele>1570.8000488281</ele>
        <time>2022-07-21T08:40:46.000Z</time>
      </trkpt>
      <trkpt lat="44.09091" lon="6.96675">
        <ele>1570.1999511719</ele>
        <time>2022-07-21T08:40:47.000Z</time>
      </trkpt>
      <trkpt lat="44.09106" lon="6.96699">
        <ele>1569</ele>
        <time>2022-07-21T08:40:50.000Z</time>
      </trkpt>
      <trkpt lat="44.09109" lon="6.96709">
        <ele>1568.5999755859</ele>
        <time>2022-07-21T08:40:51.000Z</time>
      </trkpt>
      <trkpt lat="44.09115" lon="6.96739">
        <ele>1568</ele>
        <time>2022-07-21T08:40:54.000Z</time>
      </trkpt>
      <trkpt lat="44.09116" lon="6.96749">
        <ele>1567.5999755859</ele>
        <time>2022-07-21T08:40:55.000Z</time>
      </trkpt>
      <trkpt lat="44.09119" lon="6.96772">
        <ele>1566.8000488281</ele>
        <time>2022-07-21T08:40:57.000Z</time>
      </trkpt>
      <trkpt lat="44.09121" lon="6.96792">
        <ele>1565.4000244141</ele>
        <time>2022-07-21T08:40:59.000Z</time>
      </trkpt>
      <trkpt lat="44.09123" lon="6.96814">
        <ele>1564.4000244141</ele>
        <time>2022-07-21T08:41:01.000Z</time>
      </trkpt>
      <trkpt lat="44.09124" lon="6.96823">
        <ele>1563.8000488281</ele>
        <time>2022-07-21T08:41:02.000Z</time>
      </trkpt>
      <trkpt lat="44.09125" lon="6.96838">
        <ele>1563</ele>
        <time>2022-07-21T08:41:04.000Z</time>
      </trkpt>
      <trkpt lat="44.09125" lon="6.96845">
        <ele>1562.4000244141</ele>
        <time>2022-07-21T08:41:06.000Z</time>
      </trkpt>
      <trkpt lat="44.09125" lon="6.96845">
        <ele>1561.8000488281</ele>
        <time>2022-07-21T08:41:08.000Z</time>
      </trkpt>
      <trkpt lat="44.09125" lon="6.96847">
        <ele>1561.8000488281</ele>
        <time>2022-07-21T08:41:10.000Z</time>
      </trkpt>
      <trkpt lat="44.09124" lon="6.96855">
        <ele>1561.5999755859</ele>
        <time>2022-07-21T08:41:20.000Z</time>
      </trkpt>
      <trkpt lat="44.09121" lon="6.96881">
        <ele>1561.1999511719</ele>
        <time>2022-07-21T08:41:25.000Z</time>
      </trkpt>
      <trkpt lat="44.09119" lon="6.96891">
        <ele>1560.8000488281</ele>
        <time>2022-07-21T08:41:27.000Z</time>
      </trkpt>
      <trkpt lat="44.09116" lon="6.96913">
        <ele>1559.5999755859</ele>
        <time>2022-07-21T08:41:31.000Z</time>
      </trkpt>
      <trkpt lat="44.09115" lon="6.9692">
        <ele>1559.4000244141</ele>
        <time>2022-07-21T08:41:32.000Z</time>
      </trkpt>
      <trkpt lat="44.09116" lon="6.96948">
        <ele>1558.4000244141</ele>
        <time>2022-07-21T08:41:36.000Z</time>
      </trkpt>
      <trkpt lat="44.09115" lon="6.96958">
        <ele>1558</ele>
        <time>2022-07-21T08:41:38.000Z</time>
      </trkpt>
      <trkpt lat="44.09113" lon="6.96962">
        <ele>1557.8000488281</ele>
        <time>2022-07-21T08:41:39.000Z</time>
      </trkpt>
      <trkpt lat="44.09107" lon="6.96964">
        <ele>1557.4000244141</ele>
        <time>2022-07-21T08:41:41.000Z</time>
      </trkpt>
      <trkpt lat="44.09103" lon="6.96963">
        <ele>1557.4000244141</ele>
        <time>2022-07-21T08:41:42.000Z</time>
      </trkpt>
      <trkpt lat="44.09099" lon="6.96962">
        <ele>1557.1999511719</ele>
        <time>2022-07-21T08:41:43.000Z</time>
      </trkpt>
      <trkpt lat="44.09093" lon="6.96963">
        <ele>1556.1999511719</ele>
        <time>2022-07-21T08:41:45.000Z</time>
      </trkpt>
      <trkpt lat="44.09087" lon="6.96967">
        <ele>1555.1999511719</ele>
        <time>2022-07-21T08:41:47.000Z</time>
      </trkpt>
      <trkpt lat="44.09081" lon="6.96975">
        <ele>1554.8000488281</ele>
        <time>2022-07-21T08:41:50.000Z</time>
      </trkpt>
      <trkpt lat="44.09074" lon="6.96992">
        <ele>1555.1999511719</ele>
        <time>2022-07-21T08:41:55.000Z</time>
      </trkpt>
      <trkpt lat="44.09076" lon="6.97017">
        <ele>1555.4000244141</ele>
        <time>2022-07-21T08:42:01.000Z</time>
      </trkpt>
      <trkpt lat="44.09077" lon="6.97051">
        <ele>1555.8000488281</ele>
        <time>2022-07-21T08:42:09.000Z</time>
      </trkpt>
      <trkpt lat="44.09068" lon="6.97051">
        <ele>1556</ele>
        <time>2022-07-21T08:42:11.000Z</time>
      </trkpt>
      <trkpt lat="44.09061" lon="6.97039">
        <ele>1555.5999755859</ele>
        <time>2022-07-21T08:42:13.000Z</time>
      </trkpt>
      <trkpt lat="44.09058" lon="6.97031">
        <ele>1554.1999511719</ele>
        <time>2022-07-21T08:42:16.000Z</time>
      </trkpt>
      <trkpt lat="44.09057" lon="6.9703">
        <ele>1553.8000488281</ele>
        <time>2022-07-21T08:42:17.000Z</time>
      </trkpt>
      <trkpt lat="44.09057" lon="6.97027">
        <ele>1553</ele>
        <time>2022-07-21T08:42:21.000Z</time>
      </trkpt>
      <trkpt lat="44.09057" lon="6.97026">
        <ele>1553</ele>
        <time>2022-07-21T08:42:29.000Z</time>
      </trkpt>
      <trkpt lat="44.09057" lon="6.97025">
        <ele>1552.8000488281</ele>
        <time>2022-07-21T08:42:34.000Z</time>
      </trkpt>
      <trkpt lat="44.09057" lon="6.97026">
        <ele>1552.8000488281</ele>
        <time>2022-07-21T08:42:41.000Z</time>
      </trkpt>
      <trkpt lat="44.09058" lon="6.97025">
        <ele>1553</ele>
        <time>2022-07-21T08:42:54.000Z</time>
      </trkpt>
      <trkpt lat="44.09058" lon="6.97024">
        <ele>1553.1999511719</ele>
        <time>2022-07-21T08:43:10.000Z</time>
      </trkpt>
      <trkpt lat="44.09056" lon="6.97022">
        <ele>1553.1999511719</ele>
        <time>2022-07-21T08:43:20.000Z</time>
      </trkpt>
      <trkpt lat="44.09051" lon="6.97011">
        <ele>1553</ele>
        <time>2022-07-21T08:43:25.000Z</time>
      </trkpt>
      <trkpt lat="44.09042" lon="6.96987">
        <ele>1552.1999511719</ele>
        <time>2022-07-21T08:43:30.000Z</time>
      </trkpt>
      <trkpt lat="44.09037" lon="6.96975">
        <ele>1551.5999755859</ele>
        <time>2022-07-21T08:43:32.000Z</time>
      </trkpt>
      <trkpt lat="44.09029" lon="6.96955">
        <ele>1550.4000244141</ele>
        <time>2022-07-21T08:43:35.000Z</time>
      </trkpt>
      <trkpt lat="44.09026" lon="6.96947">
        <ele>1550.1999511719</ele>
        <time>2022-07-21T08:43:36.000Z</time>
      </trkpt>
      <trkpt lat="44.09019" lon="6.96931">
        <ele>1549.4000244141</ele>
        <time>2022-07-21T08:43:38.000Z</time>
      </trkpt>
      <trkpt lat="44.09013" lon="6.96917">
        <ele>1548.1999511719</ele>
        <time>2022-07-21T08:43:40.000Z</time>
      </trkpt>
      <trkpt lat="44.09004" lon="6.96895">
        <ele>1546.8000488281</ele>
        <time>2022-07-21T08:43:43.000Z</time>
      </trkpt>
      <trkpt lat="44.08994" lon="6.96874">
        <ele>1546.4000244141</ele>
        <time>2022-07-21T08:43:46.000Z</time>
      </trkpt>
      <trkpt lat="44.08979" lon="6.96849">
        <ele>1546.4000244141</ele>
        <time>2022-07-21T08:43:50.000Z</time>
      </trkpt>
      <trkpt lat="44.08976" lon="6.96842">
        <ele>1546.4000244141</ele>
        <time>2022-07-21T08:43:51.000Z</time>
      </trkpt>
      <trkpt lat="44.08966" lon="6.96824">
        <ele>1545.5999755859</ele>
        <time>2022-07-21T08:43:54.000Z</time>
      </trkpt>
      <trkpt lat="44.08963" lon="6.9682">
        <ele>1545.4000244141</ele>
        <time>2022-07-21T08:43:55.000Z</time>
      </trkpt>
      <trkpt lat="44.08954" lon="6.9682">
        <ele>1544.5999755859</ele>
        <time>2022-07-21T08:43:57.000Z</time>
      </trkpt>
      <trkpt lat="44.0895" lon="6.96824">
        <ele>1544.4000244141</ele>
        <time>2022-07-21T08:43:58.000Z</time>
      </trkpt>
      <trkpt lat="44.08944" lon="6.96831">
        <ele>1544.1999511719</ele>
        <time>2022-07-21T08:44:00.000Z</time>
      </trkpt>
      <trkpt lat="44.0893" lon="6.96847">
        <ele>1543.8000488281</ele>
        <time>2022-07-21T08:44:04.000Z</time>
      </trkpt>
      <trkpt lat="44.08921" lon="6.96855">
        <ele>1543.5999755859</ele>
        <time>2022-07-21T08:44:06.000Z</time>
      </trkpt>
      <trkpt lat="44.08908" lon="6.96859">
        <ele>1543.5999755859</ele>
        <time>2022-07-21T08:44:09.000Z</time>
      </trkpt>
      <trkpt lat="44.08894" lon="6.96864">
        <ele>1543</ele>
        <time>2022-07-21T08:44:12.000Z</time>
      </trkpt>
      <trkpt lat="44.08886" lon="6.96866">
        <ele>1542.5999755859</ele>
        <time>2022-07-21T08:44:14.000Z</time>
      </trkpt>
      <trkpt lat="44.08866" lon="6.96871">
        <ele>1542.8000488281</ele>
        <time>2022-07-21T08:44:19.000Z</time>
      </trkpt>
      <trkpt lat="44.08858" lon="6.9687">
        <ele>1543.1999511719</ele>
        <time>2022-07-21T08:44:21.000Z</time>
      </trkpt>
      <trkpt lat="44.08849" lon="6.96871">
        <ele>1543.1999511719</ele>
        <time>2022-07-21T08:44:23.000Z</time>
      </trkpt>
      <trkpt lat="44.08836" lon="6.9687">
        <ele>1542.8000488281</ele>
        <time>2022-07-21T08:44:26.000Z</time>
      </trkpt>
      <trkpt lat="44.08832" lon="6.96869">
        <ele>1543</ele>
        <time>2022-07-21T08:44:27.000Z</time>
      </trkpt>
      <trkpt lat="44.08806" lon="6.96869">
        <ele>1543.4000244141</ele>
        <time>2022-07-21T08:44:33.000Z</time>
      </trkpt>
      <trkpt lat="44.08801" lon="6.9687">
        <ele>1543.5999755859</ele>
        <time>2022-07-21T08:44:34.000Z</time>
      </trkpt>
      <trkpt lat="44.08793" lon="6.96872">
        <ele>1543.8000488281</ele>
        <time>2022-07-21T08:44:36.000Z</time>
      </trkpt>
      <trkpt lat="44.08785" lon="6.96873">
        <ele>1544.1999511719</ele>
        <time>2022-07-21T08:44:38.000Z</time>
      </trkpt>
      <trkpt lat="44.08781" lon="6.96874">
        <ele>1544.5999755859</ele>
        <time>2022-07-21T08:44:39.000Z</time>
      </trkpt>
      <trkpt lat="44.08774" lon="6.96876">
        <ele>1545.1999511719</ele>
        <time>2022-07-21T08:44:41.000Z</time>
      </trkpt>
      <trkpt lat="44.08769" lon="6.96879">
        <ele>1545.8000488281</ele>
        <time>2022-07-21T08:44:42.000Z</time>
      </trkpt>
      <trkpt lat="44.08762" lon="6.96881">
        <ele>1546.1999511719</ele>
        <time>2022-07-21T08:44:44.000Z</time>
      </trkpt>
      <trkpt lat="44.08755" lon="6.96883">
        <ele>1547</ele>
        <time>2022-07-21T08:44:46.000Z</time>
      </trkpt>
      <trkpt lat="44.08739" lon="6.96884">
        <ele>1548</ele>
        <time>2022-07-21T08:44:50.000Z</time>
      </trkpt>
      <trkpt lat="44.08734" lon="6.96883">
        <ele>1548.1999511719</ele>
        <time>2022-07-21T08:44:51.000Z</time>
      </trkpt>
      <trkpt lat="44.08711" lon="6.96879">
        <ele>1548.8000488281</ele>
        <time>2022-07-21T08:44:57.000Z</time>
      </trkpt>
      <trkpt lat="44.08704" lon="6.96875">
        <ele>1549.5999755859</ele>
        <time>2022-07-21T08:44:59.000Z</time>
      </trkpt>
      <trkpt lat="44.08696" lon="6.96867">
        <ele>1549.5999755859</ele>
        <time>2022-07-21T08:45:01.000Z</time>
      </trkpt>
      <trkpt lat="44.08692" lon="6.96861">
        <ele>1549.4000244141</ele>
        <time>2022-07-21T08:45:02.000Z</time>
      </trkpt>
      <trkpt lat="44.08688" lon="6.9684">
        <ele>1548.4000244141</ele>
        <time>2022-07-21T08:45:05.000Z</time>
      </trkpt>
      <trkpt lat="44.08687" lon="6.96832">
        <ele>1548</ele>
        <time>2022-07-21T08:45:06.000Z</time>
      </trkpt>
      <trkpt lat="44.08686" lon="6.96817">
        <ele>1547.1999511719</ele>
        <time>2022-07-21T08:45:08.000Z</time>
      </trkpt>
      <trkpt lat="44.08682" lon="6.9678">
        <ele>1546.5999755859</ele>
        <time>2022-07-21T08:45:13.000Z</time>
      </trkpt>
      <trkpt lat="44.08679" lon="6.96766">
        <ele>1546.1999511719</ele>
        <time>2022-07-21T08:45:15.000Z</time>
      </trkpt>
      <trkpt lat="44.08673" lon="6.96734">
        <ele>1546.4000244141</ele>
        <time>2022-07-21T08:45:20.000Z</time>
      </trkpt>
      <trkpt lat="44.08657" lon="6.96665">
        <ele>1546.5999755859</ele>
        <time>2022-07-21T08:45:31.000Z</time>
      </trkpt>
      <trkpt lat="44.08645" lon="6.96621">
        <ele>1546</ele>
        <time>2022-07-21T08:45:37.000Z</time>
      </trkpt>
      <trkpt lat="44.08644" lon="6.96612">
        <ele>1545.5999755859</ele>
        <time>2022-07-21T08:45:38.000Z</time>
      </trkpt>
      <trkpt lat="44.08643" lon="6.96592">
        <ele>1544.8000488281</ele>
        <time>2022-07-21T08:45:40.000Z</time>
      </trkpt>
      <trkpt lat="44.08643" lon="6.96582">
        <ele>1544.4000244141</ele>
        <time>2022-07-21T08:45:41.000Z</time>
      </trkpt>
      <trkpt lat="44.08641" lon="6.96572">
        <ele>1543.5999755859</ele>
        <time>2022-07-21T08:45:42.000Z</time>
      </trkpt>
      <trkpt lat="44.0864" lon="6.96554">
        <ele>1542.5999755859</ele>
        <time>2022-07-21T08:45:44.000Z</time>
      </trkpt>
      <trkpt lat="44.0864" lon="6.96545">
        <ele>1541.5999755859</ele>
        <time>2022-07-21T08:45:45.000Z</time>
      </trkpt>
      <trkpt lat="44.08638" lon="6.9653">
        <ele>1540</ele>
        <time>2022-07-21T08:45:47.000Z</time>
      </trkpt>
      <trkpt lat="44.08638" lon="6.96514">
        <ele>1538.8000488281</ele>
        <time>2022-07-21T08:45:49.000Z</time>
      </trkpt>
      <trkpt lat="44.08637" lon="6.96505">
        <ele>1539</ele>
        <time>2022-07-21T08:45:50.000Z</time>
      </trkpt>
      <trkpt lat="44.08638" lon="6.96461">
        <ele>1538.8000488281</ele>
        <time>2022-07-21T08:45:56.000Z</time>
      </trkpt>
      <trkpt lat="44.08637" lon="6.96456">
        <ele>1538.5999755859</ele>
        <time>2022-07-21T08:45:57.000Z</time>
      </trkpt>
      <trkpt lat="44.08634" lon="6.96436">
        <ele>1539</ele>
        <time>2022-07-21T08:46:00.000Z</time>
      </trkpt>
      <trkpt lat="44.0863" lon="6.96407">
        <ele>1539.1999511719</ele>
        <time>2022-07-21T08:46:04.000Z</time>
      </trkpt>
      <trkpt lat="44.08628" lon="6.96394">
        <ele>1539</ele>
        <time>2022-07-21T08:46:06.000Z</time>
      </trkpt>
      <trkpt lat="44.08626" lon="6.96382">
        <ele>1539.1999511719</ele>
        <time>2022-07-21T08:46:08.000Z</time>
      </trkpt>
      <trkpt lat="44.08626" lon="6.96367">
        <ele>1539.5999755859</ele>
        <time>2022-07-21T08:46:11.000Z</time>
      </trkpt>
      <trkpt lat="44.08626" lon="6.96362">
        <ele>1540</ele>
        <time>2022-07-21T08:46:12.000Z</time>
      </trkpt>
      <trkpt lat="44.08618" lon="6.96344">
        <ele>1541.1999511719</ele>
        <time>2022-07-21T08:46:16.000Z</time>
      </trkpt>
      <trkpt lat="44.08602" lon="6.96311">
        <ele>1540</ele>
        <time>2022-07-21T08:46:22.000Z</time>
      </trkpt>
      <trkpt lat="44.08596" lon="6.96295">
        <ele>1540</ele>
        <time>2022-07-21T08:46:27.000Z</time>
      </trkpt>
      <trkpt lat="44.08596" lon="6.96295">
        <ele>1539.5999755859</ele>
        <time>2022-07-21T08:46:31.000Z</time>
      </trkpt>
      <trkpt lat="44.08596" lon="6.96294">
        <ele>1539.5999755859</ele>
        <time>2022-07-21T08:46:44.000Z</time>
      </trkpt>
      <trkpt lat="44.08594" lon="6.96293">
        <ele>1539.8000488281</ele>
        <time>2022-07-21T08:47:00.000Z</time>
      </trkpt>
      <trkpt lat="44.08593" lon="6.96289">
        <ele>1539.8000488281</ele>
        <time>2022-07-21T08:47:14.000Z</time>
      </trkpt>
      <trkpt lat="44.08589" lon="6.96266">
        <ele>1540.4000244141</ele>
        <time>2022-07-21T08:47:19.000Z</time>
      </trkpt>
      <trkpt lat="44.08586" lon="6.96248">
        <ele>1540</ele>
        <time>2022-07-21T08:47:22.000Z</time>
      </trkpt>
      <trkpt lat="44.08585" lon="6.96235">
        <ele>1539.5999755859</ele>
        <time>2022-07-21T08:47:24.000Z</time>
      </trkpt>
      <trkpt lat="44.08585" lon="6.96228">
        <ele>1539.5999755859</ele>
        <time>2022-07-21T08:47:25.000Z</time>
      </trkpt>
      <trkpt lat="44.08585" lon="6.96208">
        <ele>1539</ele>
        <time>2022-07-21T08:47:28.000Z</time>
      </trkpt>
      <trkpt lat="44.08586" lon="6.96204">
        <ele>1538.5999755859</ele>
        <time>2022-07-21T08:47:29.000Z</time>
      </trkpt>
      <trkpt lat="44.0859" lon="6.96177">
        <ele>1540</ele>
        <time>2022-07-21T08:47:35.000Z</time>
      </trkpt>
      <trkpt lat="44.08589" lon="6.96172">
        <ele>1540.1999511719</ele>
        <time>2022-07-21T08:47:36.000Z</time>
      </trkpt>
      <trkpt lat="44.08588" lon="6.96151">
        <ele>1540.4000244141</ele>
        <time>2022-07-21T08:47:40.000Z</time>
      </trkpt>
      <trkpt lat="44.08585" lon="6.96115">
        <ele>1540.4000244141</ele>
        <time>2022-07-21T08:47:46.000Z</time>
      </trkpt>
      <trkpt lat="44.08582" lon="6.96097">
        <ele>1540.4000244141</ele>
        <time>2022-07-21T08:47:49.000Z</time>
      </trkpt>
      <trkpt lat="44.08577" lon="6.96079">
        <ele>1539.8000488281</ele>
        <time>2022-07-21T08:47:53.000Z</time>
      </trkpt>
      <trkpt lat="44.08569" lon="6.96053">
        <ele>1539.5999755859</ele>
        <time>2022-07-21T08:47:58.000Z</time>
      </trkpt>
      <trkpt lat="44.08566" lon="6.9604">
        <ele>1539.1999511719</ele>
        <time>2022-07-21T08:48:00.000Z</time>
      </trkpt>
      <trkpt lat="44.08561" lon="6.9601">
        <ele>1538</ele>
        <time>2022-07-21T08:48:04.000Z</time>
      </trkpt>
      <trkpt lat="44.08559" lon="6.95997">
        <ele>1537</ele>
        <time>2022-07-21T08:48:06.000Z</time>
      </trkpt>
      <trkpt lat="44.08555" lon="6.95975">
        <ele>1536.1999511719</ele>
        <time>2022-07-21T08:48:09.000Z</time>
      </trkpt>
      <trkpt lat="44.08547" lon="6.95926">
        <ele>1535.4000244141</ele>
        <time>2022-07-21T08:48:15.000Z</time>
      </trkpt>
      <trkpt lat="44.08544" lon="6.95908">
        <ele>1534.1999511719</ele>
        <time>2022-07-21T08:48:17.000Z</time>
      </trkpt>
      <trkpt lat="44.08542" lon="6.95889">
        <ele>1533</ele>
        <time>2022-07-21T08:48:19.000Z</time>
      </trkpt>
      <trkpt lat="44.08541" lon="6.95879">
        <ele>1532.5999755859</ele>
        <time>2022-07-21T08:48:20.000Z</time>
      </trkpt>
      <trkpt lat="44.0854" lon="6.95859">
        <ele>1531.5999755859</ele>
        <time>2022-07-21T08:48:22.000Z</time>
      </trkpt>
      <trkpt lat="44.08538" lon="6.95838">
        <ele>1530.4000244141</ele>
        <time>2022-07-21T08:48:24.000Z</time>
      </trkpt>
      <trkpt lat="44.08536" lon="6.95806">
        <ele>1529.4000244141</ele>
        <time>2022-07-21T08:48:27.000Z</time>
      </trkpt>
      <trkpt lat="44.08531" lon="6.95773">
        <ele>1528.4000244141</ele>
        <time>2022-07-21T08:48:30.000Z</time>
      </trkpt>
      <trkpt lat="44.08526" lon="6.95738">
        <ele>1527.1999511719</ele>
        <time>2022-07-21T08:48:33.000Z</time>
      </trkpt>
      <trkpt lat="44.08519" lon="6.95704">
        <ele>1526</ele>
        <time>2022-07-21T08:48:36.000Z</time>
      </trkpt>
      <trkpt lat="44.08516" lon="6.95697">
        <ele>1525.5999755859</ele>
        <time>2022-07-21T08:48:37.000Z</time>
      </trkpt>
      <trkpt lat="44.08513" lon="6.95691">
        <ele>1525.1999511719</ele>
        <time>2022-07-21T08:48:38.000Z</time>
      </trkpt>
      <trkpt lat="44.08511" lon="6.95685">
        <ele>1524.5999755859</ele>
        <time>2022-07-21T08:48:39.000Z</time>
      </trkpt>
      <trkpt lat="44.0851" lon="6.95663">
        <ele>1524</ele>
        <time>2022-07-21T08:48:42.000Z</time>
      </trkpt>
      <trkpt lat="44.08512" lon="6.95648">
        <ele>1523.5999755859</ele>
        <time>2022-07-21T08:48:44.000Z</time>
      </trkpt>
      <trkpt lat="44.08519" lon="6.95631">
        <ele>1522.8000488281</ele>
        <time>2022-07-21T08:48:47.000Z</time>
      </trkpt>
      <trkpt lat="44.08518" lon="6.9562">
        <ele>1523.4000244141</ele>
        <time>2022-07-21T08:48:50.000Z</time>
      </trkpt>
      <trkpt lat="44.08519" lon="6.95617">
        <ele>1523.5999755859</ele>
        <time>2022-07-21T08:48:51.000Z</time>
      </trkpt>
      <trkpt lat="44.08521" lon="6.95606">
        <ele>1523.4000244141</ele>
        <time>2022-07-21T08:48:54.000Z</time>
      </trkpt>
      <trkpt lat="44.08514" lon="6.95596">
        <ele>1524.1999511719</ele>
        <time>2022-07-21T08:48:58.000Z</time>
      </trkpt>
      <trkpt lat="44.08512" lon="6.95593">
        <ele>1524.5999755859</ele>
        <time>2022-07-21T08:48:59.000Z</time>
      </trkpt>
      <trkpt lat="44.08507" lon="6.95588">
        <ele>1525.8000488281</ele>
        <time>2022-07-21T08:49:01.000Z</time>
      </trkpt>
      <trkpt lat="44.085" lon="6.95581">
        <ele>1527</ele>
        <time>2022-07-21T08:49:04.000Z</time>
      </trkpt>
      <trkpt lat="44.08498" lon="6.95578">
        <ele>1527.5999755859</ele>
        <time>2022-07-21T08:49:05.000Z</time>
      </trkpt>
      <trkpt lat="44.08494" lon="6.95575">
        <ele>1528.4000244141</ele>
        <time>2022-07-21T08:49:07.000Z</time>
      </trkpt>
      <trkpt lat="44.08492" lon="6.95576">
        <ele>1528.8000488281</ele>
        <time>2022-07-21T08:49:08.000Z</time>
      </trkpt>
      <trkpt lat="44.08492" lon="6.95575">
        <ele>1529.1999511719</ele>
        <time>2022-07-21T08:49:09.000Z</time>
      </trkpt>
      <trkpt lat="44.08491" lon="6.95575">
        <ele>1529.5999755859</ele>
        <time>2022-07-21T08:49:11.000Z</time>
      </trkpt>
      <trkpt lat="44.08491" lon="6.95575">
        <ele>1530.4000244141</ele>
        <time>2022-07-21T08:49:15.000Z</time>
      </trkpt>
      <trkpt lat="44.08484" lon="6.95575">
        <ele>1530.8000488281</ele>
        <time>2022-07-21T08:49:20.000Z</time>
      </trkpt>
      <trkpt lat="44.08476" lon="6.95571">
        <ele>1532</ele>
        <time>2022-07-21T08:49:24.000Z</time>
      </trkpt>
      <trkpt lat="44.08473" lon="6.95563">
        <ele>1533.1999511719</ele>
        <time>2022-07-21T08:49:27.000Z</time>
      </trkpt>
      <trkpt lat="44.08471" lon="6.95561">
        <ele>1534</ele>
        <time>2022-07-21T08:49:28.000Z</time>
      </trkpt>
      <trkpt lat="44.08469" lon="6.95559">
        <ele>1534.4000244141</ele>
        <time>2022-07-21T08:49:29.000Z</time>
      </trkpt>
      <trkpt lat="44.08463" lon="6.95552">
        <ele>1535.8000488281</ele>
        <time>2022-07-21T08:49:32.000Z</time>
      </trkpt>
      <trkpt lat="44.08462" lon="6.95549">
        <ele>1536.4000244141</ele>
        <time>2022-07-21T08:49:33.000Z</time>
      </trkpt>
      <trkpt lat="44.08461" lon="6.95546">
        <ele>1537.1999511719</ele>
        <time>2022-07-21T08:49:34.000Z</time>
      </trkpt>
      <trkpt lat="44.08459" lon="6.9554">
        <ele>1538.5999755859</ele>
        <time>2022-07-21T08:49:36.000Z</time>
      </trkpt>
      <trkpt lat="44.08457" lon="6.95538">
        <ele>1539</ele>
        <time>2022-07-21T08:49:37.000Z</time>
      </trkpt>
      <trkpt lat="44.08455" lon="6.95535">
        <ele>1539.5999755859</ele>
        <time>2022-07-21T08:49:38.000Z</time>
      </trkpt>
      <trkpt lat="44.08453" lon="6.95533">
        <ele>1539.8000488281</ele>
        <time>2022-07-21T08:49:39.000Z</time>
      </trkpt>
      <trkpt lat="44.08447" lon="6.95525">
        <ele>1541</ele>
        <time>2022-07-21T08:49:42.000Z</time>
      </trkpt>
      <trkpt lat="44.08441" lon="6.95518">
        <ele>1542.1999511719</ele>
        <time>2022-07-21T08:49:45.000Z</time>
      </trkpt>
      <trkpt lat="44.08438" lon="6.95514">
        <ele>1542.8000488281</ele>
        <time>2022-07-21T08:49:47.000Z</time>
      </trkpt>
      <trkpt lat="44.08436" lon="6.95512">
        <ele>1543.1999511719</ele>
        <time>2022-07-21T08:49:48.000Z</time>
      </trkpt>
      <trkpt lat="44.0843" lon="6.95506">
        <ele>1544.4000244141</ele>
        <time>2022-07-21T08:49:51.000Z</time>
      </trkpt>
      <trkpt lat="44.08424" lon="6.95498">
        <ele>1545.4000244141</ele>
        <time>2022-07-21T08:49:54.000Z</time>
      </trkpt>
      <trkpt lat="44.08423" lon="6.95495">
        <ele>1545.4000244141</ele>
        <time>2022-07-21T08:49:55.000Z</time>
      </trkpt>
      <trkpt lat="44.0841" lon="6.95471">
        <ele>1545.5999755859</ele>
        <time>2022-07-21T08:50:01.000Z</time>
      </trkpt>
      <trkpt lat="44.08388" lon="6.95435">
        <ele>1545.8000488281</ele>
        <time>2022-07-21T08:50:10.000Z</time>
      </trkpt>
      <trkpt lat="44.08386" lon="6.9543">
        <ele>1545.5999755859</ele>
        <time>2022-07-21T08:50:11.000Z</time>
      </trkpt>
      <trkpt lat="44.08384" lon="6.95414">
        <ele>1546</ele>
        <time>2022-07-21T08:50:14.000Z</time>
      </trkpt>
      <trkpt lat="44.08385" lon="6.95402">
        <ele>1546.5999755859</ele>
        <time>2022-07-21T08:50:16.000Z</time>
      </trkpt>
      <trkpt lat="44.08386" lon="6.95376">
        <ele>1547.5999755859</ele>
        <time>2022-07-21T08:50:21.000Z</time>
      </trkpt>
      <trkpt lat="44.08378" lon="6.9535">
        <ele>1548.8000488281</ele>
        <time>2022-07-21T08:50:26.000Z</time>
      </trkpt>
      <trkpt lat="44.08368" lon="6.95334">
        <ele>1550</ele>
        <time>2022-07-21T08:50:30.000Z</time>
      </trkpt>
      <trkpt lat="44.08362" lon="6.95328">
        <ele>1550.5999755859</ele>
        <time>2022-07-21T08:50:32.000Z</time>
      </trkpt>
      <trkpt lat="44.08355" lon="6.95326">
        <ele>1551.1999511719</ele>
        <time>2022-07-21T08:50:34.000Z</time>
      </trkpt>
      <trkpt lat="44.08346" lon="6.95321">
        <ele>1552.4000244141</ele>
        <time>2022-07-21T08:50:37.000Z</time>
      </trkpt>
      <trkpt lat="44.08338" lon="6.95316">
        <ele>1553.5999755859</ele>
        <time>2022-07-21T08:50:40.000Z</time>
      </trkpt>
      <trkpt lat="44.08332" lon="6.95313">
        <ele>1554.4000244141</ele>
        <time>2022-07-21T08:50:42.000Z</time>
      </trkpt>
      <trkpt lat="44.0833" lon="6.95311">
        <ele>1554.5999755859</ele>
        <time>2022-07-21T08:50:43.000Z</time>
      </trkpt>
      <trkpt lat="44.08322" lon="6.95309">
        <ele>1556.1999511719</ele>
        <time>2022-07-21T08:50:46.000Z</time>
      </trkpt>
      <trkpt lat="44.08318" lon="6.95308">
        <ele>1557.1999511719</ele>
        <time>2022-07-21T08:50:48.000Z</time>
      </trkpt>
      <trkpt lat="44.08311" lon="6.9531">
        <ele>1558.4000244141</ele>
        <time>2022-07-21T08:50:51.000Z</time>
      </trkpt>
      <trkpt lat="44.08305" lon="6.95314">
        <ele>1559.5999755859</ele>
        <time>2022-07-21T08:50:54.000Z</time>
      </trkpt>
      <trkpt lat="44.08302" lon="6.95315">
        <ele>1560.1999511719</ele>
        <time>2022-07-21T08:50:55.000Z</time>
      </trkpt>
      <trkpt lat="44.08298" lon="6.95318">
        <ele>1561</ele>
        <time>2022-07-21T08:50:57.000Z</time>
      </trkpt>
      <trkpt lat="44.08293" lon="6.95321">
        <ele>1562.1999511719</ele>
        <time>2022-07-21T08:51:00.000Z</time>
      </trkpt>
      <trkpt lat="44.08291" lon="6.95322">
        <ele>1562.5999755859</ele>
        <time>2022-07-21T08:51:01.000Z</time>
      </trkpt>
      <trkpt lat="44.08287" lon="6.95324">
        <ele>1563.5999755859</ele>
        <time>2022-07-21T08:51:03.000Z</time>
      </trkpt>
      <trkpt lat="44.08282" lon="6.95329">
        <ele>1564.8000488281</ele>
        <time>2022-07-21T08:51:06.000Z</time>
      </trkpt>
      <trkpt lat="44.08278" lon="6.95332">
        <ele>1565.5999755859</ele>
        <time>2022-07-21T08:51:08.000Z</time>
      </trkpt>
      <trkpt lat="44.08277" lon="6.95334">
        <ele>1566</ele>
        <time>2022-07-21T08:51:09.000Z</time>
      </trkpt>
      <trkpt lat="44.08272" lon="6.95339">
        <ele>1567.1999511719</ele>
        <time>2022-07-21T08:51:12.000Z</time>
      </trkpt>
      <trkpt lat="44.08267" lon="6.95345">
        <ele>1568.1999511719</ele>
        <time>2022-07-21T08:51:15.000Z</time>
      </trkpt>
      <trkpt lat="44.08262" lon="6.9535">
        <ele>1569.1999511719</ele>
        <time>2022-07-21T08:51:18.000Z</time>
      </trkpt>
      <trkpt lat="44.08258" lon="6.9535">
        <ele>1569.8000488281</ele>
        <time>2022-07-21T08:51:20.000Z</time>
      </trkpt>
      <trkpt lat="44.08257" lon="6.9535">
        <ele>1570.1999511719</ele>
        <time>2022-07-21T08:51:21.000Z</time>
      </trkpt>
      <trkpt lat="44.08257" lon="6.95341">
        <ele>1571.4000244141</ele>
        <time>2022-07-21T08:51:24.000Z</time>
      </trkpt>
      <trkpt lat="44.08255" lon="6.95333">
        <ele>1572.8000488281</ele>
        <time>2022-07-21T08:51:27.000Z</time>
      </trkpt>
      <trkpt lat="44.08254" lon="6.95328">
        <ele>1573.4000244141</ele>
        <time>2022-07-21T08:51:29.000Z</time>
      </trkpt>
      <trkpt lat="44.08254" lon="6.95326">
        <ele>1573.8000488281</ele>
        <time>2022-07-21T08:51:30.000Z</time>
      </trkpt>
      <trkpt lat="44.08252" lon="6.95319">
        <ele>1575</ele>
        <time>2022-07-21T08:51:33.000Z</time>
      </trkpt>
      <trkpt lat="44.08251" lon="6.95317">
        <ele>1575.1999511719</ele>
        <time>2022-07-21T08:51:34.000Z</time>
      </trkpt>
      <trkpt lat="44.08247" lon="6.9531">
        <ele>1576.1999511719</ele>
        <time>2022-07-21T08:51:37.000Z</time>
      </trkpt>
      <trkpt lat="44.08244" lon="6.95304">
        <ele>1577.4000244141</ele>
        <time>2022-07-21T08:51:40.000Z</time>
      </trkpt>
      <trkpt lat="44.0824" lon="6.95297">
        <ele>1578.4000244141</ele>
        <time>2022-07-21T08:51:43.000Z</time>
      </trkpt>
      <trkpt lat="44.08237" lon="6.95291">
        <ele>1579.4000244141</ele>
        <time>2022-07-21T08:51:46.000Z</time>
      </trkpt>
      <trkpt lat="44.08236" lon="6.95289">
        <ele>1579.8000488281</ele>
        <time>2022-07-21T08:51:47.000Z</time>
      </trkpt>
      <trkpt lat="44.08231" lon="6.95279">
        <ele>1580.8000488281</ele>
        <time>2022-07-21T08:51:51.000Z</time>
      </trkpt>
      <trkpt lat="44.0823" lon="6.95277">
        <ele>1581.1999511719</ele>
        <time>2022-07-21T08:51:52.000Z</time>
      </trkpt>
      <trkpt lat="44.08225" lon="6.95268">
        <ele>1582</ele>
        <time>2022-07-21T08:51:56.000Z</time>
      </trkpt>
      <trkpt lat="44.08224" lon="6.95262">
        <ele>1582.5999755859</ele>
        <time>2022-07-21T08:51:58.000Z</time>
      </trkpt>
      <trkpt lat="44.08224" lon="6.95258">
        <ele>1583.4000244141</ele>
        <time>2022-07-21T08:52:00.000Z</time>
      </trkpt>
      <trkpt lat="44.08224" lon="6.9525">
        <ele>1584.4000244141</ele>
        <time>2022-07-21T08:52:03.000Z</time>
      </trkpt>
      <trkpt lat="44.08225" lon="6.95248">
        <ele>1584.5999755859</ele>
        <time>2022-07-21T08:52:04.000Z</time>
      </trkpt>
      <trkpt lat="44.08228" lon="6.95239">
        <ele>1585.8000488281</ele>
        <time>2022-07-21T08:52:08.000Z</time>
      </trkpt>
      <trkpt lat="44.08228" lon="6.95237">
        <ele>1586.4000244141</ele>
        <time>2022-07-21T08:52:09.000Z</time>
      </trkpt>
      <trkpt lat="44.08231" lon="6.95232">
        <ele>1586.8000488281</ele>
        <time>2022-07-21T08:52:11.000Z</time>
      </trkpt>
      <trkpt lat="44.08234" lon="6.95224">
        <ele>1588</ele>
        <time>2022-07-21T08:52:14.000Z</time>
      </trkpt>
      <trkpt lat="44.08238" lon="6.95216">
        <ele>1589.4000244141</ele>
        <time>2022-07-21T08:52:18.000Z</time>
      </trkpt>
      <trkpt lat="44.0824" lon="6.95209">
        <ele>1590.5999755859</ele>
        <time>2022-07-21T08:52:21.000Z</time>
      </trkpt>
      <trkpt lat="44.08241" lon="6.95207">
        <ele>1590.8000488281</ele>
        <time>2022-07-21T08:52:22.000Z</time>
      </trkpt>
      <trkpt lat="44.08244" lon="6.95199">
        <ele>1591.8000488281</ele>
        <time>2022-07-21T08:52:25.000Z</time>
      </trkpt>
      <trkpt lat="44.08248" lon="6.95192">
        <ele>1593</ele>
        <time>2022-07-21T08:52:28.000Z</time>
      </trkpt>
      <trkpt lat="44.08249" lon="6.9519">
        <ele>1593.4000244141</ele>
        <time>2022-07-21T08:52:29.000Z</time>
      </trkpt>
      <trkpt lat="44.08252" lon="6.95185">
        <ele>1594.1999511719</ele>
        <time>2022-07-21T08:52:31.000Z</time>
      </trkpt>
      <trkpt lat="44.08255" lon="6.95179">
        <ele>1595.1999511719</ele>
        <time>2022-07-21T08:52:34.000Z</time>
      </trkpt>
      <trkpt lat="44.08256" lon="6.95177">
        <ele>1595.5999755859</ele>
        <time>2022-07-21T08:52:35.000Z</time>
      </trkpt>
      <trkpt lat="44.0826" lon="6.95171">
        <ele>1596.4000244141</ele>
        <time>2022-07-21T08:52:38.000Z</time>
      </trkpt>
      <trkpt lat="44.08267" lon="6.95166">
        <ele>1597.5999755859</ele>
        <time>2022-07-21T08:52:42.000Z</time>
      </trkpt>
      <trkpt lat="44.08273" lon="6.9516">
        <ele>1598.8000488281</ele>
        <time>2022-07-21T08:52:46.000Z</time>
      </trkpt>
      <trkpt lat="44.08276" lon="6.95154">
        <ele>1599.4000244141</ele>
        <time>2022-07-21T08:52:48.000Z</time>
      </trkpt>
      <trkpt lat="44.08279" lon="6.95149">
        <ele>1600</ele>
        <time>2022-07-21T08:52:50.000Z</time>
      </trkpt>
      <trkpt lat="44.08285" lon="6.95143">
        <ele>1601.4000244141</ele>
        <time>2022-07-21T08:52:53.000Z</time>
      </trkpt>
      <trkpt lat="44.08288" lon="6.95139">
        <ele>1602.5999755859</ele>
        <time>2022-07-21T08:52:55.000Z</time>
      </trkpt>
      <trkpt lat="44.08291" lon="6.95132">
        <ele>1604</ele>
        <time>2022-07-21T08:52:58.000Z</time>
      </trkpt>
      <trkpt lat="44.08292" lon="6.95125">
        <ele>1605.1999511719</ele>
        <time>2022-07-21T08:53:01.000Z</time>
      </trkpt>
      <trkpt lat="44.08292" lon="6.95117">
        <ele>1606.4000244141</ele>
        <time>2022-07-21T08:53:04.000Z</time>
      </trkpt>
      <trkpt lat="44.08291" lon="6.95106">
        <ele>1607.8000488281</ele>
        <time>2022-07-21T08:53:08.000Z</time>
      </trkpt>
      <trkpt lat="44.0829" lon="6.95102">
        <ele>1608.8000488281</ele>
        <time>2022-07-21T08:53:10.000Z</time>
      </trkpt>
      <trkpt lat="44.0829" lon="6.95099">
        <ele>1609</ele>
        <time>2022-07-21T08:53:11.000Z</time>
      </trkpt>
      <trkpt lat="44.08286" lon="6.95087">
        <ele>1610.4000244141</ele>
        <time>2022-07-21T08:53:16.000Z</time>
      </trkpt>
      <trkpt lat="44.08285" lon="6.95082">
        <ele>1611</ele>
        <time>2022-07-21T08:53:18.000Z</time>
      </trkpt>
      <trkpt lat="44.08283" lon="6.95078">
        <ele>1611.4000244141</ele>
        <time>2022-07-21T08:53:20.000Z</time>
      </trkpt>
      <trkpt lat="44.0828" lon="6.95068">
        <ele>1612.4000244141</ele>
        <time>2022-07-21T08:53:24.000Z</time>
      </trkpt>
      <trkpt lat="44.08279" lon="6.95067">
        <ele>1612.5999755859</ele>
        <time>2022-07-21T08:53:25.000Z</time>
      </trkpt>
      <trkpt lat="44.08274" lon="6.95059">
        <ele>1613.5999755859</ele>
        <time>2022-07-21T08:53:29.000Z</time>
      </trkpt>
      <trkpt lat="44.08273" lon="6.95057">
        <ele>1614</ele>
        <time>2022-07-21T08:53:30.000Z</time>
      </trkpt>
      <trkpt lat="44.0827" lon="6.95053">
        <ele>1614.5999755859</ele>
        <time>2022-07-21T08:53:32.000Z</time>
      </trkpt>
      <trkpt lat="44.08265" lon="6.95046">
        <ele>1615.8000488281</ele>
        <time>2022-07-21T08:53:36.000Z</time>
      </trkpt>
      <trkpt lat="44.08262" lon="6.9504">
        <ele>1616.8000488281</ele>
        <time>2022-07-21T08:53:39.000Z</time>
      </trkpt>
      <trkpt lat="44.08261" lon="6.95031">
        <ele>1618.1999511719</ele>
        <time>2022-07-21T08:53:42.000Z</time>
      </trkpt>
      <trkpt lat="44.08263" lon="6.95028">
        <ele>1619.4000244141</ele>
        <time>2022-07-21T08:53:44.000Z</time>
      </trkpt>
      <trkpt lat="44.08263" lon="6.95026">
        <ele>1620.4000244141</ele>
        <time>2022-07-21T08:53:46.000Z</time>
      </trkpt>
      <trkpt lat="44.08263" lon="6.95023">
        <ele>1620.8000488281</ele>
        <time>2022-07-21T08:53:47.000Z</time>
      </trkpt>
      <trkpt lat="44.08269" lon="6.95019">
        <ele>1622</ele>
        <time>2022-07-21T08:53:50.000Z</time>
      </trkpt>
      <trkpt lat="44.08272" lon="6.95017">
        <ele>1622.8000488281</ele>
        <time>2022-07-21T08:53:52.000Z</time>
      </trkpt>
      <trkpt lat="44.08273" lon="6.95016">
        <ele>1623.1999511719</ele>
        <time>2022-07-21T08:53:53.000Z</time>
      </trkpt>
      <trkpt lat="44.08283" lon="6.9501">
        <ele>1624</ele>
        <time>2022-07-21T08:53:58.000Z</time>
      </trkpt>
      <trkpt lat="44.08285" lon="6.95008">
        <ele>1624.1999511719</ele>
        <time>2022-07-21T08:53:59.000Z</time>
      </trkpt>
      <trkpt lat="44.08292" lon="6.95">
        <ele>1625.5999755859</ele>
        <time>2022-07-21T08:54:03.000Z</time>
      </trkpt>
      <trkpt lat="44.08296" lon="6.94997">
        <ele>1626.5999755859</ele>
        <time>2022-07-21T08:54:05.000Z</time>
      </trkpt>
      <trkpt lat="44.083" lon="6.94993">
        <ele>1627.8000488281</ele>
        <time>2022-07-21T08:54:07.000Z</time>
      </trkpt>
      <trkpt lat="44.08301" lon="6.94991">
        <ele>1628.1999511719</ele>
        <time>2022-07-21T08:54:08.000Z</time>
      </trkpt>
      <trkpt lat="44.08305" lon="6.94987">
        <ele>1629</ele>
        <time>2022-07-21T08:54:10.000Z</time>
      </trkpt>
      <trkpt lat="44.0831" lon="6.94977">
        <ele>1630.1999511719</ele>
        <time>2022-07-21T08:54:14.000Z</time>
      </trkpt>
      <trkpt lat="44.08318" lon="6.94965">
        <ele>1631.1999511719</ele>
        <time>2022-07-21T08:54:18.000Z</time>
      </trkpt>
      <trkpt lat="44.0832" lon="6.94964">
        <ele>1631.4000244141</ele>
        <time>2022-07-21T08:54:19.000Z</time>
      </trkpt>
      <trkpt lat="44.08325" lon="6.9496">
        <ele>1632.4000244141</ele>
        <time>2022-07-21T08:54:22.000Z</time>
      </trkpt>
      <trkpt lat="44.08329" lon="6.94956">
        <ele>1634</ele>
        <time>2022-07-21T08:54:25.000Z</time>
      </trkpt>
      <trkpt lat="44.08333" lon="6.9495">
        <ele>1635</ele>
        <time>2022-07-21T08:54:28.000Z</time>
      </trkpt>
      <trkpt lat="44.08335" lon="6.94943">
        <ele>1636.1999511719</ele>
        <time>2022-07-21T08:54:31.000Z</time>
      </trkpt>
      <trkpt lat="44.08339" lon="6.94934">
        <ele>1637.1999511719</ele>
        <time>2022-07-21T08:54:35.000Z</time>
      </trkpt>
      <trkpt lat="44.08342" lon="6.94931">
        <ele>1637.8000488281</ele>
        <time>2022-07-21T08:54:37.000Z</time>
      </trkpt>
      <trkpt lat="44.08345" lon="6.94927">
        <ele>1638.5999755859</ele>
        <time>2022-07-21T08:54:39.000Z</time>
      </trkpt>
      <trkpt lat="44.08347" lon="6.94921">
        <ele>1639.5999755859</ele>
        <time>2022-07-21T08:54:42.000Z</time>
      </trkpt>
      <trkpt lat="44.08349" lon="6.94917">
        <ele>1640.4000244141</ele>
        <time>2022-07-21T08:54:44.000Z</time>
      </trkpt>
      <trkpt lat="44.08349" lon="6.94913">
        <ele>1640.5999755859</ele>
        <time>2022-07-21T08:54:45.000Z</time>
      </trkpt>
      <trkpt lat="44.08351" lon="6.94906">
        <ele>1641.5999755859</ele>
        <time>2022-07-21T08:54:48.000Z</time>
      </trkpt>
      <trkpt lat="44.0835" lon="6.94903">
        <ele>1642.1999511719</ele>
        <time>2022-07-21T08:54:49.000Z</time>
      </trkpt>
      <trkpt lat="44.08349" lon="6.94901">
        <ele>1643</ele>
        <time>2022-07-21T08:54:50.000Z</time>
      </trkpt>
      <trkpt lat="44.08349" lon="6.94897">
        <ele>1644.4000244141</ele>
        <time>2022-07-21T08:54:52.000Z</time>
      </trkpt>
      <trkpt lat="44.08348" lon="6.94893">
        <ele>1645.1999511719</ele>
        <time>2022-07-21T08:54:54.000Z</time>
      </trkpt>
      <trkpt lat="44.08349" lon="6.9489">
        <ele>1645.4000244141</ele>
        <time>2022-07-21T08:54:55.000Z</time>
      </trkpt>
      <trkpt lat="44.08352" lon="6.94883">
        <ele>1646.4000244141</ele>
        <time>2022-07-21T08:54:58.000Z</time>
      </trkpt>
      <trkpt lat="44.08354" lon="6.94881">
        <ele>1647</ele>
        <time>2022-07-21T08:54:59.000Z</time>
      </trkpt>
      <trkpt lat="44.08357" lon="6.94878">
        <ele>1648</ele>
        <time>2022-07-21T08:55:01.000Z</time>
      </trkpt>
      <trkpt lat="44.0836" lon="6.94875">
        <ele>1649</ele>
        <time>2022-07-21T08:55:03.000Z</time>
      </trkpt>
      <trkpt lat="44.08362" lon="6.94874">
        <ele>1649.5999755859</ele>
        <time>2022-07-21T08:55:04.000Z</time>
      </trkpt>
      <trkpt lat="44.08364" lon="6.94871">
        <ele>1650.5999755859</ele>
        <time>2022-07-21T08:55:06.000Z</time>
      </trkpt>
      <trkpt lat="44.08367" lon="6.94869">
        <ele>1651.5999755859</ele>
        <time>2022-07-21T08:55:08.000Z</time>
      </trkpt>
      <trkpt lat="44.0837" lon="6.94867">
        <ele>1652.1999511719</ele>
        <time>2022-07-21T08:55:10.000Z</time>
      </trkpt>
      <trkpt lat="44.08372" lon="6.94867">
        <ele>1652.5999755859</ele>
        <time>2022-07-21T08:55:11.000Z</time>
      </trkpt>
      <trkpt lat="44.08374" lon="6.94864">
        <ele>1653.1999511719</ele>
        <time>2022-07-21T08:55:13.000Z</time>
      </trkpt>
      <trkpt lat="44.08375" lon="6.9486">
        <ele>1653.8000488281</ele>
        <time>2022-07-21T08:55:15.000Z</time>
      </trkpt>
      <trkpt lat="44.08376" lon="6.94859">
        <ele>1654.4000244141</ele>
        <time>2022-07-21T08:55:16.000Z</time>
      </trkpt>
      <trkpt lat="44.08379" lon="6.94856">
        <ele>1655.1999511719</ele>
        <time>2022-07-21T08:55:18.000Z</time>
      </trkpt>
      <trkpt lat="44.08381" lon="6.94851">
        <ele>1656.5999755859</ele>
        <time>2022-07-21T08:55:21.000Z</time>
      </trkpt>
      <trkpt lat="44.08385" lon="6.94844">
        <ele>1657.4000244141</ele>
        <time>2022-07-21T08:55:25.000Z</time>
      </trkpt>
      <trkpt lat="44.08386" lon="6.94842">
        <ele>1657.5999755859</ele>
        <time>2022-07-21T08:55:26.000Z</time>
      </trkpt>
      <trkpt lat="44.08388" lon="6.94833">
        <ele>1658.5999755859</ele>
        <time>2022-07-21T08:55:31.000Z</time>
      </trkpt>
      <trkpt lat="44.08389" lon="6.94831">
        <ele>1659.1999511719</ele>
        <time>2022-07-21T08:55:33.000Z</time>
      </trkpt>
      <trkpt lat="44.08389" lon="6.9483">
        <ele>1659.8000488281</ele>
        <time>2022-07-21T08:55:36.000Z</time>
      </trkpt>
      <trkpt lat="44.08389" lon="6.9483">
        <ele>1660</ele>
        <time>2022-07-21T08:55:39.000Z</time>
      </trkpt>
      <trkpt lat="44.08389" lon="6.94829">
        <ele>1660.4000244141</ele>
        <time>2022-07-21T08:56:03.000Z</time>
      </trkpt>
      <trkpt lat="44.08389" lon="6.94828">
        <ele>1660.4000244141</ele>
        <time>2022-07-21T08:56:25.000Z</time>
      </trkpt>
      <trkpt lat="44.08389" lon="6.94827">
        <ele>1660.4000244141</ele>
        <time>2022-07-21T08:56:45.000Z</time>
      </trkpt>
      <trkpt lat="44.0839" lon="6.94827">
        <ele>1660.5999755859</ele>
        <time>2022-07-21T08:57:08.000Z</time>
      </trkpt>
      <trkpt lat="44.08392" lon="6.94822">
        <ele>1660.8000488281</ele>
        <time>2022-07-21T08:57:20.000Z</time>
      </trkpt>
      <trkpt lat="44.08392" lon="6.9482">
        <ele>1660.8000488281</ele>
        <time>2022-07-21T08:57:21.000Z</time>
      </trkpt>
      <trkpt lat="44.08401" lon="6.94807">
        <ele>1660.5999755859</ele>
        <time>2022-07-21T08:57:25.000Z</time>
      </trkpt>
      <trkpt lat="44.08408" lon="6.94799">
        <ele>1659.8000488281</ele>
        <time>2022-07-21T08:57:27.000Z</time>
      </trkpt>
      <trkpt lat="44.08415" lon="6.94788">
        <ele>1658.4000244141</ele>
        <time>2022-07-21T08:57:30.000Z</time>
      </trkpt>
      <trkpt lat="44.08417" lon="6.94785">
        <ele>1658.1999511719</ele>
        <time>2022-07-21T08:57:31.000Z</time>
      </trkpt>
      <trkpt lat="44.08429" lon="6.94762">
        <ele>1658.5999755859</ele>
        <time>2022-07-21T08:57:38.000Z</time>
      </trkpt>
      <trkpt lat="44.08435" lon="6.94754">
        <ele>1659.5999755859</ele>
        <time>2022-07-21T08:57:41.000Z</time>
      </trkpt>
      <trkpt lat="44.08439" lon="6.94739">
        <ele>1660.5999755859</ele>
        <time>2022-07-21T08:57:45.000Z</time>
      </trkpt>
      <trkpt lat="44.0844" lon="6.94727">
        <ele>1662</ele>
        <time>2022-07-21T08:57:48.000Z</time>
      </trkpt>
      <trkpt lat="44.08443" lon="6.94717">
        <ele>1662.8000488281</ele>
        <time>2022-07-21T08:57:51.000Z</time>
      </trkpt>
      <trkpt lat="44.08445" lon="6.94714">
        <ele>1663.1999511719</ele>
        <time>2022-07-21T08:57:52.000Z</time>
      </trkpt>
      <trkpt lat="44.08447" lon="6.94709">
        <ele>1664.8000488281</ele>
        <time>2022-07-21T08:57:54.000Z</time>
      </trkpt>
      <trkpt lat="44.08448" lon="6.94703">
        <ele>1666.5999755859</ele>
        <time>2022-07-21T08:57:56.000Z</time>
      </trkpt>
      <trkpt lat="44.08448" lon="6.94699">
        <ele>1667.1999511719</ele>
        <time>2022-07-21T08:57:57.000Z</time>
      </trkpt>
      <trkpt lat="44.08448" lon="6.94696">
        <ele>1668</ele>
        <time>2022-07-21T08:57:58.000Z</time>
      </trkpt>
      <trkpt lat="44.08447" lon="6.9469">
        <ele>1669.1999511719</ele>
        <time>2022-07-21T08:58:00.000Z</time>
      </trkpt>
      <trkpt lat="44.08445" lon="6.94681">
        <ele>1670.1999511719</ele>
        <time>2022-07-21T08:58:03.000Z</time>
      </trkpt>
      <trkpt lat="44.08444" lon="6.94666">
        <ele>1671.4000244141</ele>
        <time>2022-07-21T08:58:08.000Z</time>
      </trkpt>
      <trkpt lat="44.08443" lon="6.94657">
        <ele>1671.8000488281</ele>
        <time>2022-07-21T08:58:11.000Z</time>
      </trkpt>
      <trkpt lat="44.08443" lon="6.9465">
        <ele>1672.4000244141</ele>
        <time>2022-07-21T08:58:13.000Z</time>
      </trkpt>
      <trkpt lat="44.08446" lon="6.94635">
        <ele>1673</ele>
        <time>2022-07-21T08:58:17.000Z</time>
      </trkpt>
      <trkpt lat="44.08447" lon="6.94633">
        <ele>1673.4000244141</ele>
        <time>2022-07-21T08:58:21.000Z</time>
      </trkpt>
      <trkpt lat="44.08447" lon="6.94632">
        <ele>1673.4000244141</ele>
        <time>2022-07-21T08:58:31.000Z</time>
      </trkpt>
      <trkpt lat="44.08446" lon="6.94632">
        <ele>1673.4000244141</ele>
        <time>2022-07-21T08:58:46.000Z</time>
      </trkpt>
      <trkpt lat="44.08447" lon="6.94632">
        <ele>1673.8000488281</ele>
        <time>2022-07-21T08:59:09.000Z</time>
      </trkpt>
      <trkpt lat="44.08447" lon="6.94631">
        <ele>1673.8000488281</ele>
        <time>2022-07-21T08:59:21.000Z</time>
      </trkpt>
      <trkpt lat="44.08447" lon="6.94631">
        <ele>1673.8000488281</ele>
        <time>2022-07-21T08:59:43.000Z</time>
      </trkpt>
      <trkpt lat="44.08448" lon="6.94631">
        <ele>1673.5999755859</ele>
        <time>2022-07-21T09:00:05.000Z</time>
      </trkpt>
      <trkpt lat="44.08449" lon="6.9463">
        <ele>1673.4000244141</ele>
        <time>2022-07-21T09:00:29.000Z</time>
      </trkpt>
      <trkpt lat="44.08452" lon="6.94628">
        <ele>1673.5999755859</ele>
        <time>2022-07-21T09:00:34.000Z</time>
      </trkpt>
      <trkpt lat="44.08453" lon="6.94628">
        <ele>1674</ele>
        <time>2022-07-21T09:00:43.000Z</time>
      </trkpt>
      <trkpt lat="44.08455" lon="6.94628">
        <ele>1674</ele>
        <time>2022-07-21T09:00:45.000Z</time>
      </trkpt>
      <trkpt lat="44.08462" lon="6.94625">
        <ele>1674.1999511719</ele>
        <time>2022-07-21T09:00:48.000Z</time>
      </trkpt>
      <trkpt lat="44.08464" lon="6.94619">
        <ele>1674.1999511719</ele>
        <time>2022-07-21T09:00:50.000Z</time>
      </trkpt>
      <trkpt lat="44.08468" lon="6.94611">
        <ele>1674.1999511719</ele>
        <time>2022-07-21T09:00:52.000Z</time>
      </trkpt>
      <trkpt lat="44.08476" lon="6.94596">
        <ele>1673.5999755859</ele>
        <time>2022-07-21T09:00:57.000Z</time>
      </trkpt>
      <trkpt lat="44.08477" lon="6.94594">
        <ele>1673.1999511719</ele>
        <time>2022-07-21T09:01:01.000Z</time>
      </trkpt>
      <trkpt lat="44.08478" lon="6.94592">
        <ele>1673.5999755859</ele>
        <time>2022-07-21T09:01:05.000Z</time>
      </trkpt>
      <trkpt lat="44.0848" lon="6.94589">
        <ele>1673.5999755859</ele>
        <time>2022-07-21T09:01:07.000Z</time>
      </trkpt>
      <trkpt lat="44.0848" lon="6.94587">
        <ele>1673.4000244141</ele>
        <time>2022-07-21T09:01:08.000Z</time>
      </trkpt>
      <trkpt lat="44.08481" lon="6.94571">
        <ele>1673.1999511719</ele>
        <time>2022-07-21T09:01:11.000Z</time>
      </trkpt>
      <trkpt lat="44.08481" lon="6.94563">
        <ele>1672.8000488281</ele>
        <time>2022-07-21T09:01:12.000Z</time>
      </trkpt>
      <trkpt lat="44.08481" lon="6.94556">
        <ele>1672.1999511719</ele>
        <time>2022-07-21T09:01:13.000Z</time>
      </trkpt>
      <trkpt lat="44.08481" lon="6.94542">
        <ele>1670.8000488281</ele>
        <time>2022-07-21T09:01:15.000Z</time>
      </trkpt>
      <trkpt lat="44.08483" lon="6.94534">
        <ele>1669.8000488281</ele>
        <time>2022-07-21T09:01:17.000Z</time>
      </trkpt>
      <trkpt lat="44.08487" lon="6.9452">
        <ele>1670.8000488281</ele>
        <time>2022-07-21T09:01:21.000Z</time>
      </trkpt>
      <trkpt lat="44.08495" lon="6.94497">
        <ele>1671.1999511719</ele>
        <time>2022-07-21T09:01:26.000Z</time>
      </trkpt>
      <trkpt lat="44.08505" lon="6.94467">
        <ele>1671.1999511719</ele>
        <time>2022-07-21T09:01:33.000Z</time>
      </trkpt>
      <trkpt lat="44.08509" lon="6.94436">
        <ele>1671.4000244141</ele>
        <time>2022-07-21T09:01:39.000Z</time>
      </trkpt>
      <trkpt lat="44.08511" lon="6.94406">
        <ele>1670.1999511719</ele>
        <time>2022-07-21T09:01:45.000Z</time>
      </trkpt>
      <trkpt lat="44.08517" lon="6.94389">
        <ele>1672.1999511719</ele>
        <time>2022-07-21T09:01:50.000Z</time>
      </trkpt>
      <trkpt lat="44.08521" lon="6.94379">
        <ele>1673.4000244141</ele>
        <time>2022-07-21T09:01:53.000Z</time>
      </trkpt>
      <trkpt lat="44.08523" lon="6.94371">
        <ele>1673.8000488281</ele>
        <time>2022-07-21T09:01:55.000Z</time>
      </trkpt>
      <trkpt lat="44.08529" lon="6.94343">
        <ele>1673.4000244141</ele>
        <time>2022-07-21T09:02:00.000Z</time>
      </trkpt>
      <trkpt lat="44.08533" lon="6.94324">
        <ele>1673.1999511719</ele>
        <time>2022-07-21T09:02:03.000Z</time>
      </trkpt>
      <trkpt lat="44.08535" lon="6.94306">
        <ele>1672.1999511719</ele>
        <time>2022-07-21T09:02:06.000Z</time>
      </trkpt>
      <trkpt lat="44.08536" lon="6.943">
        <ele>1671.8000488281</ele>
        <time>2022-07-21T09:02:07.000Z</time>
      </trkpt>
      <trkpt lat="44.08537" lon="6.94282">
        <ele>1671.8000488281</ele>
        <time>2022-07-21T09:02:11.000Z</time>
      </trkpt>
      <trkpt lat="44.08537" lon="6.94275">
        <ele>1672</ele>
        <time>2022-07-21T09:02:16.000Z</time>
      </trkpt>
      <trkpt lat="44.08537" lon="6.94266">
        <ele>1671.8000488281</ele>
        <time>2022-07-21T09:02:21.000Z</time>
      </trkpt>
      <trkpt lat="44.08537" lon="6.94251">
        <ele>1671.5999755859</ele>
        <time>2022-07-21T09:02:25.000Z</time>
      </trkpt>
      <trkpt lat="44.08536" lon="6.94237">
        <ele>1672.1999511719</ele>
        <time>2022-07-21T09:02:30.000Z</time>
      </trkpt>
      <trkpt lat="44.08533" lon="6.94226">
        <ele>1672.4000244141</ele>
        <time>2022-07-21T09:02:34.000Z</time>
      </trkpt>
      <trkpt lat="44.08534" lon="6.94222">
        <ele>1672.1999511719</ele>
        <time>2022-07-21T09:02:35.000Z</time>
      </trkpt>
      <trkpt lat="44.08533" lon="6.94198">
        <ele>1671</ele>
        <time>2022-07-21T09:02:41.000Z</time>
      </trkpt>
      <trkpt lat="44.08524" lon="6.94185">
        <ele>1670.1999511719</ele>
        <time>2022-07-21T09:02:44.000Z</time>
      </trkpt>
      <trkpt lat="44.08522" lon="6.9418">
        <ele>1669.8000488281</ele>
        <time>2022-07-21T09:02:45.000Z</time>
      </trkpt>
      <trkpt lat="44.08509" lon="6.9415">
        <ele>1669.1999511719</ele>
        <time>2022-07-21T09:02:50.000Z</time>
      </trkpt>
      <trkpt lat="44.08506" lon="6.94146">
        <ele>1669</ele>
        <time>2022-07-21T09:02:51.000Z</time>
      </trkpt>
      <trkpt lat="44.08504" lon="6.94142">
        <ele>1668.8000488281</ele>
        <time>2022-07-21T09:02:52.000Z</time>
      </trkpt>
      <trkpt lat="44.08493" lon="6.94134">
        <ele>1668.8000488281</ele>
        <time>2022-07-21T09:02:56.000Z</time>
      </trkpt>
      <trkpt lat="44.08485" lon="6.94131">
        <ele>1670.1999511719</ele>
        <time>2022-07-21T09:02:59.000Z</time>
      </trkpt>
      <trkpt lat="44.08473" lon="6.94127">
        <ele>1671</ele>
        <time>2022-07-21T09:03:03.000Z</time>
      </trkpt>
      <trkpt lat="44.08455" lon="6.94122">
        <ele>1670.8000488281</ele>
        <time>2022-07-21T09:03:10.000Z</time>
      </trkpt>
      <trkpt lat="44.08444" lon="6.94118">
        <ele>1671</ele>
        <time>2022-07-21T09:03:15.000Z</time>
      </trkpt>
      <trkpt lat="44.0843" lon="6.94111">
        <ele>1671.1999511719</ele>
        <time>2022-07-21T09:03:21.000Z</time>
      </trkpt>
      <trkpt lat="44.08408" lon="6.941">
        <ele>1671.1999511719</ele>
        <time>2022-07-21T09:03:28.000Z</time>
      </trkpt>
      <trkpt lat="44.08389" lon="6.94092">
        <ele>1671.8000488281</ele>
        <time>2022-07-21T09:03:34.000Z</time>
      </trkpt>
      <trkpt lat="44.08368" lon="6.9409">
        <ele>1671.8000488281</ele>
        <time>2022-07-21T09:03:40.000Z</time>
      </trkpt>
      <trkpt lat="44.08352" lon="6.94086">
        <ele>1672.1999511719</ele>
        <time>2022-07-21T09:03:45.000Z</time>
      </trkpt>
      <trkpt lat="44.08336" lon="6.94074">
        <ele>1672</ele>
        <time>2022-07-21T09:03:50.000Z</time>
      </trkpt>
      <trkpt lat="44.08321" lon="6.94048">
        <ele>1670.8000488281</ele>
        <time>2022-07-21T09:03:57.000Z</time>
      </trkpt>
      <trkpt lat="44.08306" lon="6.94022">
        <ele>1671.1999511719</ele>
        <time>2022-07-21T09:04:04.000Z</time>
      </trkpt>
      <trkpt lat="44.08297" lon="6.9401">
        <ele>1671</ele>
        <time>2022-07-21T09:04:07.000Z</time>
      </trkpt>
      <trkpt lat="44.08289" lon="6.94008">
        <ele>1670.8000488281</ele>
        <time>2022-07-21T09:04:09.000Z</time>
      </trkpt>
      <trkpt lat="44.08281" lon="6.94007">
        <ele>1670.8000488281</ele>
        <time>2022-07-21T09:04:11.000Z</time>
      </trkpt>
      <trkpt lat="44.08272" lon="6.94018">
        <ele>1670.4000244141</ele>
        <time>2022-07-21T09:04:14.000Z</time>
      </trkpt>
      <trkpt lat="44.08261" lon="6.94038">
        <ele>1670.8000488281</ele>
        <time>2022-07-21T09:04:18.000Z</time>
      </trkpt>
      <trkpt lat="44.08253" lon="6.94051">
        <ele>1672.1999511719</ele>
        <time>2022-07-21T09:04:21.000Z</time>
      </trkpt>
      <trkpt lat="44.0825" lon="6.94055">
        <ele>1672.5999755859</ele>
        <time>2022-07-21T09:04:22.000Z</time>
      </trkpt>
      <trkpt lat="44.08247" lon="6.94059">
        <ele>1673</ele>
        <time>2022-07-21T09:04:23.000Z</time>
      </trkpt>
      <trkpt lat="44.08243" lon="6.94061">
        <ele>1673.4000244141</ele>
        <time>2022-07-21T09:04:24.000Z</time>
      </trkpt>
      <trkpt lat="44.08239" lon="6.94063">
        <ele>1673.5999755859</ele>
        <time>2022-07-21T09:04:25.000Z</time>
      </trkpt>
      <trkpt lat="44.08233" lon="6.94066">
        <ele>1674.8000488281</ele>
        <time>2022-07-21T09:04:27.000Z</time>
      </trkpt>
      <trkpt lat="44.08227" lon="6.9407">
        <ele>1676</ele>
        <time>2022-07-21T09:04:29.000Z</time>
      </trkpt>
      <trkpt lat="44.08221" lon="6.94072">
        <ele>1677</ele>
        <time>2022-07-21T09:04:31.000Z</time>
      </trkpt>
      <trkpt lat="44.08215" lon="6.94076">
        <ele>1678.1999511719</ele>
        <time>2022-07-21T09:04:33.000Z</time>
      </trkpt>
      <trkpt lat="44.08211" lon="6.94077">
        <ele>1679</ele>
        <time>2022-07-21T09:04:34.000Z</time>
      </trkpt>
      <trkpt lat="44.08208" lon="6.94077">
        <ele>1679.5999755859</ele>
        <time>2022-07-21T09:04:35.000Z</time>
      </trkpt>
      <trkpt lat="44.08197" lon="6.94078">
        <ele>1680.5999755859</ele>
        <time>2022-07-21T09:04:38.000Z</time>
      </trkpt>
      <trkpt lat="44.0819" lon="6.94077">
        <ele>1681</ele>
        <time>2022-07-21T09:04:40.000Z</time>
      </trkpt>
      <trkpt lat="44.08179" lon="6.94073">
        <ele>1681.8000488281</ele>
        <time>2022-07-21T09:04:43.000Z</time>
      </trkpt>
      <trkpt lat="44.08165" lon="6.9407">
        <ele>1681.8000488281</ele>
        <time>2022-07-21T09:04:46.000Z</time>
      </trkpt>
      <trkpt lat="44.08134" lon="6.94065">
        <ele>1681.4000244141</ele>
        <time>2022-07-21T09:04:53.000Z</time>
      </trkpt>
      <trkpt lat="44.08129" lon="6.94065">
        <ele>1681.4000244141</ele>
        <time>2022-07-21T09:04:54.000Z</time>
      </trkpt>
      <trkpt lat="44.08126" lon="6.94066">
        <ele>1681.5999755859</ele>
        <time>2022-07-21T09:04:55.000Z</time>
      </trkpt>
      <trkpt lat="44.08113" lon="6.9407">
        <ele>1682.1999511719</ele>
        <time>2022-07-21T09:04:58.000Z</time>
      </trkpt>
      <trkpt lat="44.08102" lon="6.94075">
        <ele>1682.8000488281</ele>
        <time>2022-07-21T09:05:01.000Z</time>
      </trkpt>
      <trkpt lat="44.08095" lon="6.94075">
        <ele>1683.5999755859</ele>
        <time>2022-07-21T09:05:03.000Z</time>
      </trkpt>
      <trkpt lat="44.08093" lon="6.94076">
        <ele>1684</ele>
        <time>2022-07-21T09:05:04.000Z</time>
      </trkpt>
      <trkpt lat="44.08089" lon="6.94079">
        <ele>1685.1999511719</ele>
        <time>2022-07-21T09:05:06.000Z</time>
      </trkpt>
      <trkpt lat="44.08084" lon="6.94082">
        <ele>1686.4000244141</ele>
        <time>2022-07-21T09:05:08.000Z</time>
      </trkpt>
      <trkpt lat="44.08077" lon="6.94086">
        <ele>1687.5999755859</ele>
        <time>2022-07-21T09:05:11.000Z</time>
      </trkpt>
      <trkpt lat="44.08072" lon="6.94089">
        <ele>1688.1999511719</ele>
        <time>2022-07-21T09:05:13.000Z</time>
      </trkpt>
      <trkpt lat="44.08066" lon="6.94091">
        <ele>1688.8000488281</ele>
        <time>2022-07-21T09:05:15.000Z</time>
      </trkpt>
      <trkpt lat="44.08058" lon="6.94094">
        <ele>1690.1999511719</ele>
        <time>2022-07-21T09:05:18.000Z</time>
      </trkpt>
      <trkpt lat="44.08052" lon="6.94092">
        <ele>1691.4000244141</ele>
        <time>2022-07-21T09:05:20.000Z</time>
      </trkpt>
      <trkpt lat="44.08048" lon="6.94089">
        <ele>1692.5999755859</ele>
        <time>2022-07-21T09:05:22.000Z</time>
      </trkpt>
      <trkpt lat="44.08043" lon="6.94087">
        <ele>1693.8000488281</ele>
        <time>2022-07-21T09:05:24.000Z</time>
      </trkpt>
      <trkpt lat="44.08037" lon="6.94085">
        <ele>1695</ele>
        <time>2022-07-21T09:05:26.000Z</time>
      </trkpt>
      <trkpt lat="44.08035" lon="6.94085">
        <ele>1695.5999755859</ele>
        <time>2022-07-21T09:05:27.000Z</time>
      </trkpt>
      <trkpt lat="44.08032" lon="6.94084">
        <ele>1696</ele>
        <time>2022-07-21T09:05:28.000Z</time>
      </trkpt>
      <trkpt lat="44.08028" lon="6.94082">
        <ele>1697.1999511719</ele>
        <time>2022-07-21T09:05:30.000Z</time>
      </trkpt>
      <trkpt lat="44.0802" lon="6.9408">
        <ele>1698</ele>
        <time>2022-07-21T09:05:33.000Z</time>
      </trkpt>
      <trkpt lat="44.08018" lon="6.94079">
        <ele>1698.5999755859</ele>
        <time>2022-07-21T09:05:34.000Z</time>
      </trkpt>
      <trkpt lat="44.08012" lon="6.94078">
        <ele>1699.8000488281</ele>
        <time>2022-07-21T09:05:37.000Z</time>
      </trkpt>
      <trkpt lat="44.08007" lon="6.94074">
        <ele>1701.1999511719</ele>
        <time>2022-07-21T09:05:40.000Z</time>
      </trkpt>
      <trkpt lat="44.08006" lon="6.94073">
        <ele>1701.4000244141</ele>
        <time>2022-07-21T09:05:41.000Z</time>
      </trkpt>
      <trkpt lat="44.08" lon="6.94065">
        <ele>1702.1999511719</ele>
        <time>2022-07-21T09:05:45.000Z</time>
      </trkpt>
      <trkpt lat="44.07998" lon="6.94059">
        <ele>1702.4000244141</ele>
        <time>2022-07-21T09:05:47.000Z</time>
      </trkpt>
      <trkpt lat="44.07993" lon="6.94045">
        <ele>1703.4000244141</ele>
        <time>2022-07-21T09:05:52.000Z</time>
      </trkpt>
      <trkpt lat="44.07992" lon="6.94042">
        <ele>1703.5999755859</ele>
        <time>2022-07-21T09:05:53.000Z</time>
      </trkpt>
      <trkpt lat="44.07986" lon="6.94025">
        <ele>1703.5999755859</ele>
        <time>2022-07-21T09:05:58.000Z</time>
      </trkpt>
      <trkpt lat="44.07981" lon="6.9401">
        <ele>1704.5999755859</ele>
        <time>2022-07-21T09:06:03.000Z</time>
      </trkpt>
      <trkpt lat="44.0798" lon="6.94003">
        <ele>1705.5999755859</ele>
        <time>2022-07-21T09:06:06.000Z</time>
      </trkpt>
      <trkpt lat="44.07975" lon="6.93993">
        <ele>1707</ele>
        <time>2022-07-21T09:06:10.000Z</time>
      </trkpt>
      <trkpt lat="44.07973" lon="6.9399">
        <ele>1708.1999511719</ele>
        <time>2022-07-21T09:06:12.000Z</time>
      </trkpt>
      <trkpt lat="44.07971" lon="6.93991">
        <ele>1709.4000244141</ele>
        <time>2022-07-21T09:06:14.000Z</time>
      </trkpt>
      <trkpt lat="44.07966" lon="6.93995">
        <ele>1710.4000244141</ele>
        <time>2022-07-21T09:06:18.000Z</time>
      </trkpt>
      <trkpt lat="44.07965" lon="6.93991">
        <ele>1711.4000244141</ele>
        <time>2022-07-21T09:06:22.000Z</time>
      </trkpt>
      <trkpt lat="44.07965" lon="6.93991">
        <ele>1711.4000244141</ele>
        <time>2022-07-21T09:06:23.000Z</time>
      </trkpt>
      <trkpt lat="44.07965" lon="6.93991">
        <ele>1711.8000488281</ele>
        <time>2022-07-21T09:06:32.000Z</time>
      </trkpt>
      <trkpt lat="44.07965" lon="6.93989">
        <ele>1711.8000488281</ele>
        <time>2022-07-21T09:06:40.000Z</time>
      </trkpt>
      <trkpt lat="44.07967" lon="6.93984">
        <ele>1711.8000488281</ele>
        <time>2022-07-21T09:06:42.000Z</time>
      </trkpt>
      <trkpt lat="44.07968" lon="6.93981">
        <ele>1711.8000488281</ele>
        <time>2022-07-21T09:06:44.000Z</time>
      </trkpt>
      <trkpt lat="44.07968" lon="6.93974">
        <ele>1711.4000244141</ele>
        <time>2022-07-21T09:06:46.000Z</time>
      </trkpt>
      <trkpt lat="44.07962" lon="6.93959">
        <ele>1711</ele>
        <time>2022-07-21T09:06:50.000Z</time>
      </trkpt>
      <trkpt lat="44.07955" lon="6.93947">
        <ele>1713.1999511719</ele>
        <time>2022-07-21T09:06:54.000Z</time>
      </trkpt>
      <trkpt lat="44.07954" lon="6.93943">
        <ele>1714</ele>
        <time>2022-07-21T09:06:55.000Z</time>
      </trkpt>
      <trkpt lat="44.07953" lon="6.93939">
        <ele>1714.5999755859</ele>
        <time>2022-07-21T09:06:56.000Z</time>
      </trkpt>
      <trkpt lat="44.07951" lon="6.93931">
        <ele>1715.5999755859</ele>
        <time>2022-07-21T09:06:58.000Z</time>
      </trkpt>
      <trkpt lat="44.07949" lon="6.93923">
        <ele>1716.1999511719</ele>
        <time>2022-07-21T09:07:00.000Z</time>
      </trkpt>
      <trkpt lat="44.07946" lon="6.9392">
        <ele>1716.5999755859</ele>
        <time>2022-07-21T09:07:01.000Z</time>
      </trkpt>
      <trkpt lat="44.07941" lon="6.9391">
        <ele>1718.1999511719</ele>
        <time>2022-07-21T09:07:04.000Z</time>
      </trkpt>
      <trkpt lat="44.07941" lon="6.93908">
        <ele>1719</ele>
        <time>2022-07-21T09:07:05.000Z</time>
      </trkpt>
      <trkpt lat="44.07941" lon="6.93905">
        <ele>1719.8000488281</ele>
        <time>2022-07-21T09:07:06.000Z</time>
      </trkpt>
      <trkpt lat="44.0794" lon="6.93899">
        <ele>1721</ele>
        <time>2022-07-21T09:07:08.000Z</time>
      </trkpt>
      <trkpt lat="44.07939" lon="6.93892">
        <ele>1722.1999511719</ele>
        <time>2022-07-21T09:07:11.000Z</time>
      </trkpt>
      <trkpt lat="44.07938" lon="6.93883">
        <ele>1723.5999755859</ele>
        <time>2022-07-21T09:07:14.000Z</time>
      </trkpt>
      <trkpt lat="44.07938" lon="6.93874">
        <ele>1724.4000244141</ele>
        <time>2022-07-21T09:07:18.000Z</time>
      </trkpt>
      <trkpt lat="44.07937" lon="6.93871">
        <ele>1724.5999755859</ele>
        <time>2022-07-21T09:07:19.000Z</time>
      </trkpt>
      <trkpt lat="44.07934" lon="6.93857">
        <ele>1725.8000488281</ele>
        <time>2022-07-21T09:07:24.000Z</time>
      </trkpt>
      <trkpt lat="44.07931" lon="6.93848">
        <ele>1727.1999511719</ele>
        <time>2022-07-21T09:07:27.000Z</time>
      </trkpt>
      <trkpt lat="44.07929" lon="6.93842">
        <ele>1728.1999511719</ele>
        <time>2022-07-21T09:07:29.000Z</time>
      </trkpt>
      <trkpt lat="44.07929" lon="6.93833">
        <ele>1729.1999511719</ele>
        <time>2022-07-21T09:07:31.000Z</time>
      </trkpt>
      <trkpt lat="44.07929" lon="6.93821">
        <ele>1730.4000244141</ele>
        <time>2022-07-21T09:07:34.000Z</time>
      </trkpt>
      <trkpt lat="44.07927" lon="6.93818">
        <ele>1730.5999755859</ele>
        <time>2022-07-21T09:07:35.000Z</time>
      </trkpt>
      <trkpt lat="44.07923" lon="6.93817">
        <ele>1731</ele>
        <time>2022-07-21T09:07:37.000Z</time>
      </trkpt>
      <trkpt lat="44.07919" lon="6.93825">
        <ele>1732</ele>
        <time>2022-07-21T09:07:39.000Z</time>
      </trkpt>
      <trkpt lat="44.07917" lon="6.93825">
        <ele>1732.5999755859</ele>
        <time>2022-07-21T09:07:40.000Z</time>
      </trkpt>
      <trkpt lat="44.07914" lon="6.93823">
        <ele>1733.4000244141</ele>
        <time>2022-07-21T09:07:41.000Z</time>
      </trkpt>
      <trkpt lat="44.07912" lon="6.93816">
        <ele>1735</ele>
        <time>2022-07-21T09:07:43.000Z</time>
      </trkpt>
      <trkpt lat="44.07913" lon="6.93807">
        <ele>1736.1999511719</ele>
        <time>2022-07-21T09:07:45.000Z</time>
      </trkpt>
      <trkpt lat="44.07915" lon="6.938">
        <ele>1736.8000488281</ele>
        <time>2022-07-21T09:07:47.000Z</time>
      </trkpt>
      <trkpt lat="44.07916" lon="6.93797">
        <ele>1737.1999511719</ele>
        <time>2022-07-21T09:07:48.000Z</time>
      </trkpt>
      <trkpt lat="44.07916" lon="6.93794">
        <ele>1737.5999755859</ele>
        <time>2022-07-21T09:07:49.000Z</time>
      </trkpt>
      <trkpt lat="44.07916" lon="6.93785">
        <ele>1738.5999755859</ele>
        <time>2022-07-21T09:07:52.000Z</time>
      </trkpt>
      <trkpt lat="44.07913" lon="6.93778">
        <ele>1740.1999511719</ele>
        <time>2022-07-21T09:07:56.000Z</time>
      </trkpt>
      <trkpt lat="44.0791" lon="6.93778">
        <ele>1740.5999755859</ele>
        <time>2022-07-21T09:07:57.000Z</time>
      </trkpt>
      <trkpt lat="44.07909" lon="6.93779">
        <ele>1741.1999511719</ele>
        <time>2022-07-21T09:07:58.000Z</time>
      </trkpt>
      <trkpt lat="44.07905" lon="6.93783">
        <ele>1742</ele>
        <time>2022-07-21T09:08:00.000Z</time>
      </trkpt>
      <trkpt lat="44.07904" lon="6.93785">
        <ele>1742.4000244141</ele>
        <time>2022-07-21T09:08:01.000Z</time>
      </trkpt>
      <trkpt lat="44.07898" lon="6.93792">
        <ele>1743.5999755859</ele>
        <time>2022-07-21T09:08:04.000Z</time>
      </trkpt>
      <trkpt lat="44.07893" lon="6.93792">
        <ele>1744</ele>
        <time>2022-07-21T09:08:06.000Z</time>
      </trkpt>
      <trkpt lat="44.07892" lon="6.93786">
        <ele>1745</ele>
        <time>2022-07-21T09:08:08.000Z</time>
      </trkpt>
      <trkpt lat="44.07892" lon="6.93782">
        <ele>1745.4000244141</ele>
        <time>2022-07-21T09:08:09.000Z</time>
      </trkpt>
      <trkpt lat="44.07894" lon="6.93777">
        <ele>1746.1999511719</ele>
        <time>2022-07-21T09:08:11.000Z</time>
      </trkpt>
      <trkpt lat="44.07897" lon="6.93767">
        <ele>1747.1999511719</ele>
        <time>2022-07-21T09:08:14.000Z</time>
      </trkpt>
      <trkpt lat="44.07898" lon="6.93764">
        <ele>1747.5999755859</ele>
        <time>2022-07-21T09:08:15.000Z</time>
      </trkpt>
      <trkpt lat="44.07902" lon="6.93755">
        <ele>1748.4000244141</ele>
        <time>2022-07-21T09:08:18.000Z</time>
      </trkpt>
      <trkpt lat="44.07905" lon="6.93748">
        <ele>1748.5999755859</ele>
        <time>2022-07-21T09:08:20.000Z</time>
      </trkpt>
      <trkpt lat="44.07907" lon="6.93738">
        <ele>1749.4000244141</ele>
        <time>2022-07-21T09:08:23.000Z</time>
      </trkpt>
      <trkpt lat="44.07908" lon="6.93731">
        <ele>1749.8000488281</ele>
        <time>2022-07-21T09:08:25.000Z</time>
      </trkpt>
      <trkpt lat="44.07908" lon="6.93727">
        <ele>1750.4000244141</ele>
        <time>2022-07-21T09:08:26.000Z</time>
      </trkpt>
      <trkpt lat="44.07906" lon="6.93717">
        <ele>1751.8000488281</ele>
        <time>2022-07-21T09:08:29.000Z</time>
      </trkpt>
      <trkpt lat="44.07906" lon="6.9371">
        <ele>1752.5999755859</ele>
        <time>2022-07-21T09:08:31.000Z</time>
      </trkpt>
      <trkpt lat="44.07905" lon="6.93706">
        <ele>1753.1999511719</ele>
        <time>2022-07-21T09:08:32.000Z</time>
      </trkpt>
      <trkpt lat="44.07905" lon="6.937">
        <ele>1754.1999511719</ele>
        <time>2022-07-21T09:08:34.000Z</time>
      </trkpt>
      <trkpt lat="44.07903" lon="6.93691">
        <ele>1755.5999755859</ele>
        <time>2022-07-21T09:08:37.000Z</time>
      </trkpt>
      <trkpt lat="44.07899" lon="6.93695">
        <ele>1757</ele>
        <time>2022-07-21T09:08:40.000Z</time>
      </trkpt>
      <trkpt lat="44.07898" lon="6.93699">
        <ele>1757.4000244141</ele>
        <time>2022-07-21T09:08:41.000Z</time>
      </trkpt>
      <trkpt lat="44.07894" lon="6.93703">
        <ele>1758</ele>
        <time>2022-07-21T09:08:43.000Z</time>
      </trkpt>
      <trkpt lat="44.07892" lon="6.93702">
        <ele>1758.4000244141</ele>
        <time>2022-07-21T09:08:44.000Z</time>
      </trkpt>
      <trkpt lat="44.0789" lon="6.93693">
        <ele>1759.8000488281</ele>
        <time>2022-07-21T09:08:47.000Z</time>
      </trkpt>
      <trkpt lat="44.0789" lon="6.93683">
        <ele>1760.8000488281</ele>
        <time>2022-07-21T09:08:50.000Z</time>
      </trkpt>
      <trkpt lat="44.07889" lon="6.93675">
        <ele>1761.8000488281</ele>
        <time>2022-07-21T09:08:53.000Z</time>
      </trkpt>
      <trkpt lat="44.07888" lon="6.93668">
        <ele>1763</ele>
        <time>2022-07-21T09:08:55.000Z</time>
      </trkpt>
      <trkpt lat="44.07887" lon="6.93651">
        <ele>1764.1999511719</ele>
        <time>2022-07-21T09:09:00.000Z</time>
      </trkpt>
      <trkpt lat="44.07886" lon="6.93648">
        <ele>1764.5999755859</ele>
        <time>2022-07-21T09:09:01.000Z</time>
      </trkpt>
      <trkpt lat="44.07886" lon="6.93641">
        <ele>1765.4000244141</ele>
        <time>2022-07-21T09:09:03.000Z</time>
      </trkpt>
      <trkpt lat="44.07888" lon="6.93627">
        <ele>1765.8000488281</ele>
        <time>2022-07-21T09:09:07.000Z</time>
      </trkpt>
      <trkpt lat="44.0789" lon="6.93617">
        <ele>1766.4000244141</ele>
        <time>2022-07-21T09:09:10.000Z</time>
      </trkpt>
      <trkpt lat="44.07888" lon="6.93613">
        <ele>1767.4000244141</ele>
        <time>2022-07-21T09:09:12.000Z</time>
      </trkpt>
      <trkpt lat="44.07884" lon="6.93612">
        <ele>1768.5999755859</ele>
        <time>2022-07-21T09:09:14.000Z</time>
      </trkpt>
      <trkpt lat="44.0788" lon="6.93615">
        <ele>1769.5999755859</ele>
        <time>2022-07-21T09:09:16.000Z</time>
      </trkpt>
      <trkpt lat="44.07872" lon="6.93625">
        <ele>1770.8000488281</ele>
        <time>2022-07-21T09:09:20.000Z</time>
      </trkpt>
      <trkpt lat="44.07871" lon="6.93627">
        <ele>1770.8000488281</ele>
        <time>2022-07-21T09:09:21.000Z</time>
      </trkpt>
      <trkpt lat="44.07869" lon="6.93635">
        <ele>1771</ele>
        <time>2022-07-21T09:09:23.000Z</time>
      </trkpt>
      <trkpt lat="44.07865" lon="6.9364">
        <ele>1771.1999511719</ele>
        <time>2022-07-21T09:09:25.000Z</time>
      </trkpt>
      <trkpt lat="44.07861" lon="6.93639">
        <ele>1771.8000488281</ele>
        <time>2022-07-21T09:09:27.000Z</time>
      </trkpt>
      <trkpt lat="44.07859" lon="6.93634">
        <ele>1773</ele>
        <time>2022-07-21T09:09:29.000Z</time>
      </trkpt>
      <trkpt lat="44.0786" lon="6.93625">
        <ele>1774.1999511719</ele>
        <time>2022-07-21T09:09:31.000Z</time>
      </trkpt>
      <trkpt lat="44.07861" lon="6.93621">
        <ele>1774.5999755859</ele>
        <time>2022-07-21T09:09:32.000Z</time>
      </trkpt>
      <trkpt lat="44.07863" lon="6.93609">
        <ele>1775</ele>
        <time>2022-07-21T09:09:35.000Z</time>
      </trkpt>
      <trkpt lat="44.07862" lon="6.93605">
        <ele>1774.8000488281</ele>
        <time>2022-07-21T09:09:36.000Z</time>
      </trkpt>
      <trkpt lat="44.07857" lon="6.93602">
        <ele>1775.4000244141</ele>
        <time>2022-07-21T09:09:39.000Z</time>
      </trkpt>
      <trkpt lat="44.07854" lon="6.93608">
        <ele>1776.8000488281</ele>
        <time>2022-07-21T09:09:41.000Z</time>
      </trkpt>
      <trkpt lat="44.07852" lon="6.93612">
        <ele>1777.4000244141</ele>
        <time>2022-07-21T09:09:42.000Z</time>
      </trkpt>
      <trkpt lat="44.07851" lon="6.93616">
        <ele>1778</ele>
        <time>2022-07-21T09:09:43.000Z</time>
      </trkpt>
      <trkpt lat="44.07848" lon="6.93618">
        <ele>1778.1999511719</ele>
        <time>2022-07-21T09:09:44.000Z</time>
      </trkpt>
      <trkpt lat="44.07844" lon="6.93616">
        <ele>1778.4000244141</ele>
        <time>2022-07-21T09:09:46.000Z</time>
      </trkpt>
      <trkpt lat="44.07843" lon="6.9361">
        <ele>1779</ele>
        <time>2022-07-21T09:09:48.000Z</time>
      </trkpt>
      <trkpt lat="44.07844" lon="6.93604">
        <ele>1780</ele>
        <time>2022-07-21T09:09:50.000Z</time>
      </trkpt>
      <trkpt lat="44.07846" lon="6.93592">
        <ele>1781.1999511719</ele>
        <time>2022-07-21T09:09:54.000Z</time>
      </trkpt>
      <trkpt lat="44.07842" lon="6.93582">
        <ele>1782.4000244141</ele>
        <time>2022-07-21T09:09:58.000Z</time>
      </trkpt>
      <trkpt lat="44.07837" lon="6.93583">
        <ele>1783.8000488281</ele>
        <time>2022-07-21T09:10:00.000Z</time>
      </trkpt>
      <trkpt lat="44.07833" lon="6.93588">
        <ele>1785</ele>
        <time>2022-07-21T09:10:02.000Z</time>
      </trkpt>
      <trkpt lat="44.07829" lon="6.93596">
        <ele>1785.5999755859</ele>
        <time>2022-07-21T09:10:04.000Z</time>
      </trkpt>
      <trkpt lat="44.07823" lon="6.93606">
        <ele>1785.4000244141</ele>
        <time>2022-07-21T09:10:07.000Z</time>
      </trkpt>
      <trkpt lat="44.07819" lon="6.93619">
        <ele>1786.1999511719</ele>
        <time>2022-07-21T09:10:11.000Z</time>
      </trkpt>
      <trkpt lat="44.07819" lon="6.93628">
        <ele>1786.8000488281</ele>
        <time>2022-07-21T09:10:13.000Z</time>
      </trkpt>
      <trkpt lat="44.07819" lon="6.93632">
        <ele>1787.1999511719</ele>
        <time>2022-07-21T09:10:14.000Z</time>
      </trkpt>
      <trkpt lat="44.07815" lon="6.9364">
        <ele>1788.4000244141</ele>
        <time>2022-07-21T09:10:17.000Z</time>
      </trkpt>
      <trkpt lat="44.07811" lon="6.93639">
        <ele>1789.5999755859</ele>
        <time>2022-07-21T09:10:19.000Z</time>
      </trkpt>
      <trkpt lat="44.0781" lon="6.93635">
        <ele>1790.4000244141</ele>
        <time>2022-07-21T09:10:20.000Z</time>
      </trkpt>
      <trkpt lat="44.07809" lon="6.93632">
        <ele>1791.1999511719</ele>
        <time>2022-07-21T09:10:21.000Z</time>
      </trkpt>
      <trkpt lat="44.07805" lon="6.93623">
        <ele>1792</ele>
        <time>2022-07-21T09:10:24.000Z</time>
      </trkpt>
      <trkpt lat="44.07801" lon="6.93617">
        <ele>1792.4000244141</ele>
        <time>2022-07-21T09:10:27.000Z</time>
      </trkpt>
      <trkpt lat="44.07797" lon="6.93607">
        <ele>1793.8000488281</ele>
        <time>2022-07-21T09:10:31.000Z</time>
      </trkpt>
      <trkpt lat="44.07794" lon="6.93603">
        <ele>1795</ele>
        <time>2022-07-21T09:10:33.000Z</time>
      </trkpt>
      <trkpt lat="44.0779" lon="6.93597">
        <ele>1796</ele>
        <time>2022-07-21T09:10:36.000Z</time>
      </trkpt>
      <trkpt lat="44.07788" lon="6.93593">
        <ele>1796.4000244141</ele>
        <time>2022-07-21T09:10:38.000Z</time>
      </trkpt>
      <trkpt lat="44.07785" lon="6.93592">
        <ele>1797</ele>
        <time>2022-07-21T09:10:40.000Z</time>
      </trkpt>
      <trkpt lat="44.07782" lon="6.93592">
        <ele>1797.5999755859</ele>
        <time>2022-07-21T09:10:42.000Z</time>
      </trkpt>
      <trkpt lat="44.07781" lon="6.93594">
        <ele>1797.8000488281</ele>
        <time>2022-07-21T09:10:43.000Z</time>
      </trkpt>
      <trkpt lat="44.07782" lon="6.93597">
        <ele>1798.1999511719</ele>
        <time>2022-07-21T09:10:45.000Z</time>
      </trkpt>
      <trkpt lat="44.07783" lon="6.93601">
        <ele>1798.4000244141</ele>
        <time>2022-07-21T09:10:47.000Z</time>
      </trkpt>
      <trkpt lat="44.07783" lon="6.93602">
        <ele>1798.4000244141</ele>
        <time>2022-07-21T09:10:48.000Z</time>
      </trkpt>
      <trkpt lat="44.07785" lon="6.93607">
        <ele>1799</ele>
        <time>2022-07-21T09:10:53.000Z</time>
      </trkpt>
      <trkpt lat="44.07784" lon="6.93608">
        <ele>1798.8000488281</ele>
        <time>2022-07-21T09:10:59.000Z</time>
      </trkpt>
      <trkpt lat="44.07783" lon="6.9361">
        <ele>1799.1999511719</ele>
        <time>2022-07-21T09:11:05.000Z</time>
      </trkpt>
      <trkpt lat="44.07783" lon="6.93609">
        <ele>1798.5999755859</ele>
        <time>2022-07-21T09:11:10.000Z</time>
      </trkpt>
      <trkpt lat="44.07784" lon="6.93608">
        <ele>1798</ele>
        <time>2022-07-21T09:11:15.000Z</time>
      </trkpt>
      <trkpt lat="44.07784" lon="6.93608">
        <ele>1798</ele>
        <time>2022-07-21T09:11:22.000Z</time>
      </trkpt>
      <trkpt lat="44.07784" lon="6.93607">
        <ele>1799</ele>
        <time>2022-07-21T09:11:29.000Z</time>
      </trkpt>
      <trkpt lat="44.07784" lon="6.93607">
        <ele>1799.1999511719</ele>
        <time>2022-07-21T09:11:37.000Z</time>
      </trkpt>
      <trkpt lat="44.07784" lon="6.93607">
        <ele>1799.1999511719</ele>
        <time>2022-07-21T09:11:45.000Z</time>
      </trkpt>
      <trkpt lat="44.07783" lon="6.93606">
        <ele>1799.1999511719</ele>
        <time>2022-07-21T09:11:54.000Z</time>
      </trkpt>
      <trkpt lat="44.07783" lon="6.93606">
        <ele>1799.5999755859</ele>
        <time>2022-07-21T09:12:06.000Z</time>
      </trkpt>
      <trkpt lat="44.07783" lon="6.93606">
        <ele>1799.4000244141</ele>
        <time>2022-07-21T09:12:18.000Z</time>
      </trkpt>
      <trkpt lat="44.07783" lon="6.93606">
        <ele>1798</ele>
        <time>2022-07-21T09:12:24.000Z</time>
      </trkpt>
      <trkpt lat="44.07783" lon="6.93606">
        <ele>1798.1999511719</ele>
        <time>2022-07-21T09:12:27.000Z</time>
      </trkpt>
      <trkpt lat="44.07783" lon="6.93606">
        <ele>1798.5999755859</ele>
        <time>2022-07-21T09:12:34.000Z</time>
      </trkpt>
      <trkpt lat="44.07784" lon="6.93606">
        <ele>1798.8000488281</ele>
        <time>2022-07-21T09:12:41.000Z</time>
      </trkpt>
      <trkpt lat="44.07784" lon="6.93611">
        <ele>1798.4000244141</ele>
        <time>2022-07-21T09:12:47.000Z</time>
      </trkpt>
      <trkpt lat="44.07786" lon="6.93614">
        <ele>1798.5999755859</ele>
        <time>2022-07-21T09:12:52.000Z</time>
      </trkpt>
      <trkpt lat="44.07786" lon="6.93615">
        <ele>1797.8000488281</ele>
        <time>2022-07-21T09:13:01.000Z</time>
      </trkpt>
      <trkpt lat="44.07785" lon="6.93617">
        <ele>1797.8000488281</ele>
        <time>2022-07-21T09:13:21.000Z</time>
      </trkpt>
      <trkpt lat="44.07785" lon="6.93619">
        <ele>1797.8000488281</ele>
        <time>2022-07-21T09:13:39.000Z</time>
      </trkpt>
      <trkpt lat="44.07783" lon="6.93623">
        <ele>1797.5999755859</ele>
        <time>2022-07-21T09:14:10.000Z</time>
      </trkpt>
      <trkpt lat="44.07782" lon="6.93623">
        <ele>1797.5999755859</ele>
        <time>2022-07-21T09:14:23.000Z</time>
      </trkpt>
      <trkpt lat="44.07782" lon="6.93623">
        <ele>1797</ele>
        <time>2022-07-21T09:14:30.000Z</time>
      </trkpt>
      <trkpt lat="44.07782" lon="6.93623">
        <ele>1796.8000488281</ele>
        <time>2022-07-21T09:14:35.000Z</time>
      </trkpt>
      <trkpt lat="44.07783" lon="6.9362">
        <ele>1797.1999511719</ele>
        <time>2022-07-21T09:14:50.000Z</time>
      </trkpt>
      <trkpt lat="44.07784" lon="6.93618">
        <ele>1797</ele>
        <time>2022-07-21T09:15:05.000Z</time>
      </trkpt>
      <trkpt lat="44.07784" lon="6.93616">
        <ele>1796.5999755859</ele>
        <time>2022-07-21T09:15:23.000Z</time>
      </trkpt>
      <trkpt lat="44.07786" lon="6.93615">
        <ele>1796.5999755859</ele>
        <time>2022-07-21T09:15:39.000Z</time>
      </trkpt>
      <trkpt lat="44.07786" lon="6.93614">
        <ele>1796.8000488281</ele>
        <time>2022-07-21T09:15:58.000Z</time>
      </trkpt>
      <trkpt lat="44.07788" lon="6.93613">
        <ele>1796.5999755859</ele>
        <time>2022-07-21T09:16:16.000Z</time>
      </trkpt>
      <trkpt lat="44.07787" lon="6.93611">
        <ele>1796.5999755859</ele>
        <time>2022-07-21T09:16:37.000Z</time>
      </trkpt>
      <trkpt lat="44.07787" lon="6.9361">
        <ele>1796.5999755859</ele>
        <time>2022-07-21T09:16:58.000Z</time>
      </trkpt>
      <trkpt lat="44.07787" lon="6.9361">
        <ele>1796.5999755859</ele>
        <time>2022-07-21T09:17:17.000Z</time>
      </trkpt>
      <trkpt lat="44.07786" lon="6.93611">
        <ele>1796.4000244141</ele>
        <time>2022-07-21T09:17:28.000Z</time>
      </trkpt>
      <trkpt lat="44.07789" lon="6.93611">
        <ele>1796.5999755859</ele>
        <time>2022-07-21T09:17:45.000Z</time>
      </trkpt>
      <trkpt lat="44.07789" lon="6.93611">
        <ele>1796.5999755859</ele>
        <time>2022-07-21T09:17:55.000Z</time>
      </trkpt>
      <trkpt lat="44.07787" lon="6.93609">
        <ele>1796.5999755859</ele>
        <time>2022-07-21T09:18:09.000Z</time>
      </trkpt>
      <trkpt lat="44.07788" lon="6.93609">
        <ele>1796.4000244141</ele>
        <time>2022-07-21T09:18:22.000Z</time>
      </trkpt>
      <trkpt lat="44.07789" lon="6.93609">
        <ele>1796.1999511719</ele>
        <time>2022-07-21T09:18:32.000Z</time>
      </trkpt>
      <trkpt lat="44.07789" lon="6.9361">
        <ele>1796.1999511719</ele>
        <time>2022-07-21T09:18:50.000Z</time>
      </trkpt>
      <trkpt lat="44.07788" lon="6.9361">
        <ele>1796.1999511719</ele>
        <time>2022-07-21T09:19:05.000Z</time>
      </trkpt>
      <trkpt lat="44.07788" lon="6.93611">
        <ele>1796.1999511719</ele>
        <time>2022-07-21T09:19:20.000Z</time>
      </trkpt>
      <trkpt lat="44.07788" lon="6.93612">
        <ele>1796.1999511719</ele>
        <time>2022-07-21T09:19:36.000Z</time>
      </trkpt>
      <trkpt lat="44.07788" lon="6.93612">
        <ele>1796.5999755859</ele>
        <time>2022-07-21T09:19:51.000Z</time>
      </trkpt>
      <trkpt lat="44.07788" lon="6.93612">
        <ele>1796.5999755859</ele>
        <time>2022-07-21T09:19:52.000Z</time>
      </trkpt>
      <trkpt lat="44.07788" lon="6.93614">
        <ele>1796.4000244141</ele>
        <time>2022-07-21T09:20:00.000Z</time>
      </trkpt>
      <trkpt lat="44.07787" lon="6.93615">
        <ele>1796.1999511719</ele>
        <time>2022-07-21T09:20:09.000Z</time>
      </trkpt>
      <trkpt lat="44.07785" lon="6.93616">
        <ele>1796.8000488281</ele>
        <time>2022-07-21T09:20:15.000Z</time>
      </trkpt>
      <trkpt lat="44.07784" lon="6.93617">
        <ele>1797</ele>
        <time>2022-07-21T09:20:26.000Z</time>
      </trkpt>
      <trkpt lat="44.07783" lon="6.93618">
        <ele>1797.1999511719</ele>
        <time>2022-07-21T09:20:38.000Z</time>
      </trkpt>
      <trkpt lat="44.07783" lon="6.93619">
        <ele>1797</ele>
        <time>2022-07-21T09:20:57.000Z</time>
      </trkpt>
      <trkpt lat="44.07782" lon="6.93621">
        <ele>1796.8000488281</ele>
        <time>2022-07-21T09:21:11.000Z</time>
      </trkpt>
      <trkpt lat="44.07781" lon="6.93621">
        <ele>1797.1999511719</ele>
        <time>2022-07-21T09:21:22.000Z</time>
      </trkpt>
      <trkpt lat="44.0778" lon="6.93621">
        <ele>1797.4000244141</ele>
        <time>2022-07-21T09:21:38.000Z</time>
      </trkpt>
      <trkpt lat="44.0778" lon="6.93621">
        <ele>1797.5999755859</ele>
        <time>2022-07-21T09:21:48.000Z</time>
      </trkpt>
      <trkpt lat="44.0778" lon="6.9362">
        <ele>1797.4000244141</ele>
        <time>2022-07-21T09:22:06.000Z</time>
      </trkpt>
      <trkpt lat="44.0778" lon="6.93617">
        <ele>1797.1999511719</ele>
        <time>2022-07-21T09:22:10.000Z</time>
      </trkpt>
      <trkpt lat="44.0778" lon="6.93614">
        <ele>1797.1999511719</ele>
        <time>2022-07-21T09:22:13.000Z</time>
      </trkpt>
      <trkpt lat="44.07779" lon="6.93612">
        <ele>1797.4000244141</ele>
        <time>2022-07-21T09:22:16.000Z</time>
      </trkpt>
      <trkpt lat="44.07778" lon="6.93611">
        <ele>1797.5999755859</ele>
        <time>2022-07-21T09:22:19.000Z</time>
      </trkpt>
      <trkpt lat="44.07779" lon="6.93609">
        <ele>1796.5999755859</ele>
        <time>2022-07-21T09:22:26.000Z</time>
      </trkpt>
      <trkpt lat="44.07779" lon="6.93612">
        <ele>1797</ele>
        <time>2022-07-21T09:22:30.000Z</time>
      </trkpt>
      <trkpt lat="44.07779" lon="6.93612">
        <ele>1797.1999511719</ele>
        <time>2022-07-21T09:22:31.000Z</time>
      </trkpt>
      <trkpt lat="44.07779" lon="6.93612">
        <ele>1797.4000244141</ele>
        <time>2022-07-21T09:22:32.000Z</time>
      </trkpt>
      <trkpt lat="44.07782" lon="6.93618">
        <ele>1797.5999755859</ele>
        <time>2022-07-21T09:22:36.000Z</time>
      </trkpt>
      <trkpt lat="44.07788" lon="6.93634">
        <ele>1797.1999511719</ele>
        <time>2022-07-21T09:22:40.000Z</time>
      </trkpt>
      <trkpt lat="44.0779" lon="6.93641">
        <ele>1796.8000488281</ele>
        <time>2022-07-21T09:22:41.000Z</time>
      </trkpt>
      <trkpt lat="44.07795" lon="6.93652">
        <ele>1795.4000244141</ele>
        <time>2022-07-21T09:22:43.000Z</time>
      </trkpt>
      <trkpt lat="44.07798" lon="6.93662">
        <ele>1794</ele>
        <time>2022-07-21T09:22:45.000Z</time>
      </trkpt>
      <trkpt lat="44.07797" lon="6.93674">
        <ele>1792.8000488281</ele>
        <time>2022-07-21T09:22:48.000Z</time>
      </trkpt>
      <trkpt lat="44.07797" lon="6.93681">
        <ele>1792.8000488281</ele>
        <time>2022-07-21T09:22:50.000Z</time>
      </trkpt>
      <trkpt lat="44.07795" lon="6.93691">
        <ele>1791.8000488281</ele>
        <time>2022-07-21T09:22:55.000Z</time>
      </trkpt>
      <trkpt lat="44.07795" lon="6.93694">
        <ele>1791.5999755859</ele>
        <time>2022-07-21T09:22:59.000Z</time>
      </trkpt>
      <trkpt lat="44.07795" lon="6.93698">
        <ele>1791.5999755859</ele>
        <time>2022-07-21T09:23:00.000Z</time>
      </trkpt>
      <trkpt lat="44.07793" lon="6.93706">
        <ele>1791.4000244141</ele>
        <time>2022-07-21T09:23:03.000Z</time>
      </trkpt>
      <trkpt lat="44.07792" lon="6.93709">
        <ele>1791.1999511719</ele>
        <time>2022-07-21T09:23:04.000Z</time>
      </trkpt>
      <trkpt lat="44.07789" lon="6.9373">
        <ele>1790.5999755859</ele>
        <time>2022-07-21T09:23:09.000Z</time>
      </trkpt>
      <trkpt lat="44.07785" lon="6.93758">
        <ele>1789.4000244141</ele>
        <time>2022-07-21T09:23:12.000Z</time>
      </trkpt>
      <trkpt lat="44.07784" lon="6.93775">
        <ele>1787.5999755859</ele>
        <time>2022-07-21T09:23:14.000Z</time>
      </trkpt>
      <trkpt lat="44.07782" lon="6.93784">
        <ele>1786.8000488281</ele>
        <time>2022-07-21T09:23:15.000Z</time>
      </trkpt>
      <trkpt lat="44.0778" lon="6.9379">
        <ele>1786</ele>
        <time>2022-07-21T09:23:16.000Z</time>
      </trkpt>
      <trkpt lat="44.07779" lon="6.93798">
        <ele>1785.5999755859</ele>
        <time>2022-07-21T09:23:17.000Z</time>
      </trkpt>
      <trkpt lat="44.07775" lon="6.93815">
        <ele>1785.8000488281</ele>
        <time>2022-07-21T09:23:21.000Z</time>
      </trkpt>
      <trkpt lat="44.07772" lon="6.93832">
        <ele>1785.8000488281</ele>
        <time>2022-07-21T09:23:28.000Z</time>
      </trkpt>
      <trkpt lat="44.07769" lon="6.93852">
        <ele>1785.4000244141</ele>
        <time>2022-07-21T09:23:32.000Z</time>
      </trkpt>
      <trkpt lat="44.07767" lon="6.93866">
        <ele>1784.8000488281</ele>
        <time>2022-07-21T09:23:34.000Z</time>
      </trkpt>
      <trkpt lat="44.07766" lon="6.93875">
        <ele>1784.1999511719</ele>
        <time>2022-07-21T09:23:35.000Z</time>
      </trkpt>
      <trkpt lat="44.07765" lon="6.93885">
        <ele>1783.4000244141</ele>
        <time>2022-07-21T09:23:36.000Z</time>
      </trkpt>
      <trkpt lat="44.07764" lon="6.93895">
        <ele>1782.1999511719</ele>
        <time>2022-07-21T09:23:37.000Z</time>
      </trkpt>
      <trkpt lat="44.07761" lon="6.93915">
        <ele>1780.4000244141</ele>
        <time>2022-07-21T09:23:39.000Z</time>
      </trkpt>
      <trkpt lat="44.07759" lon="6.93919">
        <ele>1779</ele>
        <time>2022-07-21T09:23:40.000Z</time>
      </trkpt>
      <trkpt lat="44.07758" lon="6.9392">
        <ele>1778.4000244141</ele>
        <time>2022-07-21T09:23:41.000Z</time>
      </trkpt>
      <trkpt lat="44.07757" lon="6.9392">
        <ele>1778</ele>
        <time>2022-07-21T09:23:43.000Z</time>
      </trkpt>
      <trkpt lat="44.07757" lon="6.9392">
        <ele>1778</ele>
        <time>2022-07-21T09:23:46.000Z</time>
      </trkpt>
      <trkpt lat="44.07758" lon="6.93919">
        <ele>1778.4000244141</ele>
        <time>2022-07-21T09:23:57.000Z</time>
      </trkpt>
      <trkpt lat="44.07757" lon="6.93919">
        <ele>1779</ele>
        <time>2022-07-21T09:24:15.000Z</time>
      </trkpt>
      <trkpt lat="44.07756" lon="6.93919">
        <ele>1779.4000244141</ele>
        <time>2022-07-21T09:24:29.000Z</time>
      </trkpt>
      <trkpt lat="44.07756" lon="6.93919">
        <ele>1779.4000244141</ele>
        <time>2022-07-21T09:24:39.000Z</time>
      </trkpt>
      <trkpt lat="44.07754" lon="6.93919">
        <ele>1779.5999755859</ele>
        <time>2022-07-21T09:24:50.000Z</time>
      </trkpt>
      <trkpt lat="44.07753" lon="6.93919">
        <ele>1779.8000488281</ele>
        <time>2022-07-21T09:25:05.000Z</time>
      </trkpt>
      <trkpt lat="44.07741" lon="6.93916">
        <ele>1779.8000488281</ele>
        <time>2022-07-21T09:25:09.000Z</time>
      </trkpt>
      <trkpt lat="44.07722" lon="6.93914">
        <ele>1778.1999511719</ele>
        <time>2022-07-21T09:25:12.000Z</time>
      </trkpt>
      <trkpt lat="44.07716" lon="6.93914">
        <ele>1777.1999511719</ele>
        <time>2022-07-21T09:25:13.000Z</time>
      </trkpt>
      <trkpt lat="44.07705" lon="6.93919">
        <ele>1775.5999755859</ele>
        <time>2022-07-21T09:25:15.000Z</time>
      </trkpt>
      <trkpt lat="44.07701" lon="6.93925">
        <ele>1775</ele>
        <time>2022-07-21T09:25:16.000Z</time>
      </trkpt>
      <trkpt lat="44.07698" lon="6.93932">
        <ele>1774.1999511719</ele>
        <time>2022-07-21T09:25:17.000Z</time>
      </trkpt>
      <trkpt lat="44.07699" lon="6.93938">
        <ele>1773.4000244141</ele>
        <time>2022-07-21T09:25:18.000Z</time>
      </trkpt>
      <trkpt lat="44.07699" lon="6.93941">
        <ele>1772.8000488281</ele>
        <time>2022-07-21T09:25:19.000Z</time>
      </trkpt>
      <trkpt lat="44.07699" lon="6.93942">
        <ele>1771.8000488281</ele>
        <time>2022-07-21T09:25:21.000Z</time>
      </trkpt>
      <trkpt lat="44.07699" lon="6.93942">
        <ele>1771</ele>
        <time>2022-07-21T09:25:24.000Z</time>
      </trkpt>
      <trkpt lat="44.07702" lon="6.93944">
        <ele>1771.1999511719</ele>
        <time>2022-07-21T09:25:44.000Z</time>
      </trkpt>
      <trkpt lat="44.07706" lon="6.93945">
        <ele>1771.4000244141</ele>
        <time>2022-07-21T09:26:04.000Z</time>
      </trkpt>
      <trkpt lat="44.07707" lon="6.93951">
        <ele>1771.4000244141</ele>
        <time>2022-07-21T09:26:13.000Z</time>
      </trkpt>
      <trkpt lat="44.07703" lon="6.93969">
        <ele>1771.1999511719</ele>
        <time>2022-07-21T09:26:18.000Z</time>
      </trkpt>
      <trkpt lat="44.07701" lon="6.93986">
        <ele>1771.1999511719</ele>
        <time>2022-07-21T09:26:24.000Z</time>
      </trkpt>
      <trkpt lat="44.07702" lon="6.93999">
        <ele>1770.8000488281</ele>
        <time>2022-07-21T09:26:27.000Z</time>
      </trkpt>
      <trkpt lat="44.07703" lon="6.94008">
        <ele>1770</ele>
        <time>2022-07-21T09:26:29.000Z</time>
      </trkpt>
      <trkpt lat="44.07703" lon="6.94015">
        <ele>1769.5999755859</ele>
        <time>2022-07-21T09:26:30.000Z</time>
      </trkpt>
      <trkpt lat="44.07703" lon="6.94029">
        <ele>1768.5999755859</ele>
        <time>2022-07-21T09:26:32.000Z</time>
      </trkpt>
      <trkpt lat="44.07703" lon="6.94034">
        <ele>1767.8000488281</ele>
        <time>2022-07-21T09:26:33.000Z</time>
      </trkpt>
      <trkpt lat="44.07704" lon="6.94038">
        <ele>1767.1999511719</ele>
        <time>2022-07-21T09:26:34.000Z</time>
      </trkpt>
      <trkpt lat="44.07708" lon="6.94039">
        <ele>1765.8000488281</ele>
        <time>2022-07-21T09:26:35.000Z</time>
      </trkpt>
      <trkpt lat="44.07712" lon="6.94044">
        <ele>1763.8000488281</ele>
        <time>2022-07-21T09:26:37.000Z</time>
      </trkpt>
      <trkpt lat="44.07713" lon="6.9405">
        <ele>1762.8000488281</ele>
        <time>2022-07-21T09:26:38.000Z</time>
      </trkpt>
      <trkpt lat="44.07712" lon="6.94055">
        <ele>1762.1999511719</ele>
        <time>2022-07-21T09:26:39.000Z</time>
      </trkpt>
      <trkpt lat="44.07713" lon="6.94066">
        <ele>1760.4000244141</ele>
        <time>2022-07-21T09:26:41.000Z</time>
      </trkpt>
      <trkpt lat="44.07715" lon="6.94073">
        <ele>1759.1999511719</ele>
        <time>2022-07-21T09:26:42.000Z</time>
      </trkpt>
      <trkpt lat="44.07716" lon="6.94088">
        <ele>1757.5999755859</ele>
        <time>2022-07-21T09:26:44.000Z</time>
      </trkpt>
      <trkpt lat="44.07716" lon="6.94098">
        <ele>1756.1999511719</ele>
        <time>2022-07-21T09:26:46.000Z</time>
      </trkpt>
      <trkpt lat="44.07718" lon="6.941">
        <ele>1755.4000244141</ele>
        <time>2022-07-21T09:26:47.000Z</time>
      </trkpt>
      <trkpt lat="44.07721" lon="6.941">
        <ele>1754.4000244141</ele>
        <time>2022-07-21T09:26:48.000Z</time>
      </trkpt>
      <trkpt lat="44.07722" lon="6.94102">
        <ele>1754</ele>
        <time>2022-07-21T09:26:49.000Z</time>
      </trkpt>
      <trkpt lat="44.07723" lon="6.94107">
        <ele>1753.1999511719</ele>
        <time>2022-07-21T09:26:50.000Z</time>
      </trkpt>
      <trkpt lat="44.07721" lon="6.94118">
        <ele>1751.5999755859</ele>
        <time>2022-07-21T09:26:52.000Z</time>
      </trkpt>
      <trkpt lat="44.0772" lon="6.94121">
        <ele>1750.8000488281</ele>
        <time>2022-07-21T09:26:53.000Z</time>
      </trkpt>
      <trkpt lat="44.07722" lon="6.94122">
        <ele>1750.4000244141</ele>
        <time>2022-07-21T09:26:54.000Z</time>
      </trkpt>
      <trkpt lat="44.07726" lon="6.94118">
        <ele>1749.8000488281</ele>
        <time>2022-07-21T09:26:56.000Z</time>
      </trkpt>
      <trkpt lat="44.07732" lon="6.9412">
        <ele>1749</ele>
        <time>2022-07-21T09:26:59.000Z</time>
      </trkpt>
      <trkpt lat="44.07733" lon="6.94127">
        <ele>1748</ele>
        <time>2022-07-21T09:27:00.000Z</time>
      </trkpt>
      <trkpt lat="44.07733" lon="6.94134">
        <ele>1746.5999755859</ele>
        <time>2022-07-21T09:27:01.000Z</time>
      </trkpt>
      <trkpt lat="44.07733" lon="6.94142">
        <ele>1745.4000244141</ele>
        <time>2022-07-21T09:27:02.000Z</time>
      </trkpt>
      <trkpt lat="44.07734" lon="6.94149">
        <ele>1744</ele>
        <time>2022-07-21T09:27:03.000Z</time>
      </trkpt>
      <trkpt lat="44.07738" lon="6.94161">
        <ele>1742</ele>
        <time>2022-07-21T09:27:05.000Z</time>
      </trkpt>
      <trkpt lat="44.07739" lon="6.94168">
        <ele>1740.5999755859</ele>
        <time>2022-07-21T09:27:06.000Z</time>
      </trkpt>
      <trkpt lat="44.07739" lon="6.94174">
        <ele>1739.4000244141</ele>
        <time>2022-07-21T09:27:07.000Z</time>
      </trkpt>
      <trkpt lat="44.0774" lon="6.94178">
        <ele>1738</ele>
        <time>2022-07-21T09:27:08.000Z</time>
      </trkpt>
      <trkpt lat="44.07741" lon="6.94178">
        <ele>1736.5999755859</ele>
        <time>2022-07-21T09:27:09.000Z</time>
      </trkpt>
      <trkpt lat="44.07745" lon="6.94179">
        <ele>1735.1999511719</ele>
        <time>2022-07-21T09:27:11.000Z</time>
      </trkpt>
      <trkpt lat="44.07748" lon="6.94189">
        <ele>1734.1999511719</ele>
        <time>2022-07-21T09:27:13.000Z</time>
      </trkpt>
      <trkpt lat="44.07749" lon="6.94196">
        <ele>1733.4000244141</ele>
        <time>2022-07-21T09:27:14.000Z</time>
      </trkpt>
      <trkpt lat="44.0775" lon="6.94203">
        <ele>1732.1999511719</ele>
        <time>2022-07-21T09:27:15.000Z</time>
      </trkpt>
      <trkpt lat="44.07752" lon="6.9421">
        <ele>1731</ele>
        <time>2022-07-21T09:27:16.000Z</time>
      </trkpt>
      <trkpt lat="44.07755" lon="6.94227">
        <ele>1729.1999511719</ele>
        <time>2022-07-21T09:27:18.000Z</time>
      </trkpt>
      <trkpt lat="44.07756" lon="6.94243">
        <ele>1727</ele>
        <time>2022-07-21T09:27:21.000Z</time>
      </trkpt>
      <trkpt lat="44.07756" lon="6.94247">
        <ele>1726.5999755859</ele>
        <time>2022-07-21T09:27:22.000Z</time>
      </trkpt>
      <trkpt lat="44.07758" lon="6.94242">
        <ele>1725.4000244141</ele>
        <time>2022-07-21T09:27:23.000Z</time>
      </trkpt>
      <trkpt lat="44.0776" lon="6.9424">
        <ele>1724.5999755859</ele>
        <time>2022-07-21T09:27:24.000Z</time>
      </trkpt>
      <trkpt lat="44.07763" lon="6.94241">
        <ele>1723.4000244141</ele>
        <time>2022-07-21T09:27:25.000Z</time>
      </trkpt>
      <trkpt lat="44.07765" lon="6.94246">
        <ele>1722.4000244141</ele>
        <time>2022-07-21T09:27:26.000Z</time>
      </trkpt>
      <trkpt lat="44.07767" lon="6.94253">
        <ele>1723</ele>
        <time>2022-07-21T09:27:27.000Z</time>
      </trkpt>
      <trkpt lat="44.0777" lon="6.9427">
        <ele>1721.5999755859</ele>
        <time>2022-07-21T09:27:29.000Z</time>
      </trkpt>
      <trkpt lat="44.07776" lon="6.9429">
        <ele>1719.4000244141</ele>
        <time>2022-07-21T09:27:31.000Z</time>
      </trkpt>
      <trkpt lat="44.07777" lon="6.943">
        <ele>1718.4000244141</ele>
        <time>2022-07-21T09:27:32.000Z</time>
      </trkpt>
      <trkpt lat="44.07779" lon="6.9431">
        <ele>1716.8000488281</ele>
        <time>2022-07-21T09:27:33.000Z</time>
      </trkpt>
      <trkpt lat="44.07779" lon="6.94332">
        <ele>1715.4000244141</ele>
        <time>2022-07-21T09:27:35.000Z</time>
      </trkpt>
      <trkpt lat="44.07776" lon="6.94348">
        <ele>1714.1999511719</ele>
        <time>2022-07-21T09:27:37.000Z</time>
      </trkpt>
      <trkpt lat="44.07777" lon="6.94356">
        <ele>1713.8000488281</ele>
        <time>2022-07-21T09:27:38.000Z</time>
      </trkpt>
      <trkpt lat="44.07778" lon="6.94371">
        <ele>1712.8000488281</ele>
        <time>2022-07-21T09:27:40.000Z</time>
      </trkpt>
      <trkpt lat="44.07778" lon="6.94378">
        <ele>1711.8000488281</ele>
        <time>2022-07-21T09:27:41.000Z</time>
      </trkpt>
      <trkpt lat="44.07778" lon="6.94392">
        <ele>1710.4000244141</ele>
        <time>2022-07-21T09:27:43.000Z</time>
      </trkpt>
      <trkpt lat="44.07778" lon="6.94399">
        <ele>1709.5999755859</ele>
        <time>2022-07-21T09:27:44.000Z</time>
      </trkpt>
      <trkpt lat="44.07779" lon="6.94406">
        <ele>1708.8000488281</ele>
        <time>2022-07-21T09:27:45.000Z</time>
      </trkpt>
      <trkpt lat="44.07779" lon="6.94412">
        <ele>1708.1999511719</ele>
        <time>2022-07-21T09:27:46.000Z</time>
      </trkpt>
      <trkpt lat="44.07779" lon="6.94417">
        <ele>1707.1999511719</ele>
        <time>2022-07-21T09:27:47.000Z</time>
      </trkpt>
      <trkpt lat="44.07779" lon="6.94422">
        <ele>1705.8000488281</ele>
        <time>2022-07-21T09:27:48.000Z</time>
      </trkpt>
      <trkpt lat="44.07781" lon="6.94426">
        <ele>1705</ele>
        <time>2022-07-21T09:27:49.000Z</time>
      </trkpt>
      <trkpt lat="44.07784" lon="6.94429">
        <ele>1704.1999511719</ele>
        <time>2022-07-21T09:27:50.000Z</time>
      </trkpt>
      <trkpt lat="44.07793" lon="6.94442">
        <ele>1703.1999511719</ele>
        <time>2022-07-21T09:27:53.000Z</time>
      </trkpt>
      <trkpt lat="44.07799" lon="6.94452">
        <ele>1703</ele>
        <time>2022-07-21T09:27:55.000Z</time>
      </trkpt>
      <trkpt lat="44.07801" lon="6.94454">
        <ele>1702.5999755859</ele>
        <time>2022-07-21T09:27:56.000Z</time>
      </trkpt>
      <trkpt lat="44.07804" lon="6.94449">
        <ele>1702</ele>
        <time>2022-07-21T09:27:58.000Z</time>
      </trkpt>
      <trkpt lat="44.07805" lon="6.94445">
        <ele>1701</ele>
        <time>2022-07-21T09:27:59.000Z</time>
      </trkpt>
      <trkpt lat="44.07808" lon="6.94443">
        <ele>1700.8000488281</ele>
        <time>2022-07-21T09:28:00.000Z</time>
      </trkpt>
      <trkpt lat="44.07811" lon="6.94444">
        <ele>1699.5999755859</ele>
        <time>2022-07-21T09:28:01.000Z</time>
      </trkpt>
      <trkpt lat="44.07814" lon="6.94448">
        <ele>1697</ele>
        <time>2022-07-21T09:28:02.000Z</time>
      </trkpt>
      <trkpt lat="44.07818" lon="6.94453">
        <ele>1695.1999511719</ele>
        <time>2022-07-21T09:28:03.000Z</time>
      </trkpt>
      <trkpt lat="44.07822" lon="6.94459">
        <ele>1694</ele>
        <time>2022-07-21T09:28:04.000Z</time>
      </trkpt>
      <trkpt lat="44.07825" lon="6.94467">
        <ele>1692</ele>
        <time>2022-07-21T09:28:05.000Z</time>
      </trkpt>
      <trkpt lat="44.07829" lon="6.94474">
        <ele>1690.5999755859</ele>
        <time>2022-07-21T09:28:06.000Z</time>
      </trkpt>
      <trkpt lat="44.07832" lon="6.94479">
        <ele>1689.4000244141</ele>
        <time>2022-07-21T09:28:07.000Z</time>
      </trkpt>
      <trkpt lat="44.07836" lon="6.94482">
        <ele>1688</ele>
        <time>2022-07-21T09:28:08.000Z</time>
      </trkpt>
      <trkpt lat="44.07839" lon="6.94485">
        <ele>1686.8000488281</ele>
        <time>2022-07-21T09:28:09.000Z</time>
      </trkpt>
      <trkpt lat="44.07843" lon="6.94489">
        <ele>1686</ele>
        <time>2022-07-21T09:28:10.000Z</time>
      </trkpt>
      <trkpt lat="44.07846" lon="6.94496">
        <ele>1684.5999755859</ele>
        <time>2022-07-21T09:28:11.000Z</time>
      </trkpt>
      <trkpt lat="44.07848" lon="6.94502">
        <ele>1682.1999511719</ele>
        <time>2022-07-21T09:28:12.000Z</time>
      </trkpt>
      <trkpt lat="44.0785" lon="6.9451">
        <ele>1680.5999755859</ele>
        <time>2022-07-21T09:28:13.000Z</time>
      </trkpt>
      <trkpt lat="44.07852" lon="6.94517">
        <ele>1680</ele>
        <time>2022-07-21T09:28:14.000Z</time>
      </trkpt>
      <trkpt lat="44.07854" lon="6.94525">
        <ele>1678.4000244141</ele>
        <time>2022-07-21T09:28:15.000Z</time>
      </trkpt>
      <trkpt lat="44.07857" lon="6.94543">
        <ele>1677</ele>
        <time>2022-07-21T09:28:17.000Z</time>
      </trkpt>
      <trkpt lat="44.07861" lon="6.9457">
        <ele>1675.5999755859</ele>
        <time>2022-07-21T09:28:20.000Z</time>
      </trkpt>
      <trkpt lat="44.07862" lon="6.94579">
        <ele>1674.5999755859</ele>
        <time>2022-07-21T09:28:21.000Z</time>
      </trkpt>
      <trkpt lat="44.07862" lon="6.94594">
        <ele>1672.8000488281</ele>
        <time>2022-07-21T09:28:23.000Z</time>
      </trkpt>
      <trkpt lat="44.07868" lon="6.94606">
        <ele>1670.5999755859</ele>
        <time>2022-07-21T09:28:25.000Z</time>
      </trkpt>
      <trkpt lat="44.0787" lon="6.94614">
        <ele>1669.4000244141</ele>
        <time>2022-07-21T09:28:26.000Z</time>
      </trkpt>
      <trkpt lat="44.07873" lon="6.94622">
        <ele>1668.8000488281</ele>
        <time>2022-07-21T09:28:27.000Z</time>
      </trkpt>
      <trkpt lat="44.07875" lon="6.9463">
        <ele>1667.8000488281</ele>
        <time>2022-07-21T09:28:28.000Z</time>
      </trkpt>
      <trkpt lat="44.07874" lon="6.94632">
        <ele>1667.4000244141</ele>
        <time>2022-07-21T09:28:29.000Z</time>
      </trkpt>
      <trkpt lat="44.07873" lon="6.94644">
        <ele>1666.5999755859</ele>
        <time>2022-07-21T09:28:30.000Z</time>
      </trkpt>
      <trkpt lat="44.07872" lon="6.94651">
        <ele>1666.4000244141</ele>
        <time>2022-07-21T09:28:31.000Z</time>
      </trkpt>
      <trkpt lat="44.07874" lon="6.94665">
        <ele>1666.4000244141</ele>
        <time>2022-07-21T09:28:33.000Z</time>
      </trkpt>
      <trkpt lat="44.07874" lon="6.9468">
        <ele>1666</ele>
        <time>2022-07-21T09:28:35.000Z</time>
      </trkpt>
      <trkpt lat="44.07874" lon="6.94685">
        <ele>1665.4000244141</ele>
        <time>2022-07-21T09:28:36.000Z</time>
      </trkpt>
      <trkpt lat="44.07876" lon="6.94685">
        <ele>1663.4000244141</ele>
        <time>2022-07-21T09:28:38.000Z</time>
      </trkpt>
      <trkpt lat="44.07878" lon="6.94683">
        <ele>1662.5999755859</ele>
        <time>2022-07-21T09:28:39.000Z</time>
      </trkpt>
      <trkpt lat="44.0788" lon="6.94676">
        <ele>1661.4000244141</ele>
        <time>2022-07-21T09:28:40.000Z</time>
      </trkpt>
      <trkpt lat="44.07881" lon="6.94672">
        <ele>1660.1999511719</ele>
        <time>2022-07-21T09:28:41.000Z</time>
      </trkpt>
      <trkpt lat="44.07883" lon="6.94672">
        <ele>1659</ele>
        <time>2022-07-21T09:28:42.000Z</time>
      </trkpt>
      <trkpt lat="44.07887" lon="6.94681">
        <ele>1657.8000488281</ele>
        <time>2022-07-21T09:28:44.000Z</time>
      </trkpt>
      <trkpt lat="44.0789" lon="6.94688">
        <ele>1656.1999511719</ele>
        <time>2022-07-21T09:28:45.000Z</time>
      </trkpt>
      <trkpt lat="44.07892" lon="6.94695">
        <ele>1654.8000488281</ele>
        <time>2022-07-21T09:28:46.000Z</time>
      </trkpt>
      <trkpt lat="44.07894" lon="6.94705">
        <ele>1653.4000244141</ele>
        <time>2022-07-21T09:28:47.000Z</time>
      </trkpt>
      <trkpt lat="44.07895" lon="6.94713">
        <ele>1651.5999755859</ele>
        <time>2022-07-21T09:28:48.000Z</time>
      </trkpt>
      <trkpt lat="44.07896" lon="6.94719">
        <ele>1650.5999755859</ele>
        <time>2022-07-21T09:28:49.000Z</time>
      </trkpt>
      <trkpt lat="44.07898" lon="6.94727">
        <ele>1649.5999755859</ele>
        <time>2022-07-21T09:28:50.000Z</time>
      </trkpt>
      <trkpt lat="44.079" lon="6.94734">
        <ele>1648.4000244141</ele>
        <time>2022-07-21T09:28:51.000Z</time>
      </trkpt>
      <trkpt lat="44.07901" lon="6.9474">
        <ele>1647.8000488281</ele>
        <time>2022-07-21T09:28:52.000Z</time>
      </trkpt>
      <trkpt lat="44.07902" lon="6.9475">
        <ele>1647.1999511719</ele>
        <time>2022-07-21T09:28:53.000Z</time>
      </trkpt>
      <trkpt lat="44.07901" lon="6.94761">
        <ele>1646</ele>
        <time>2022-07-21T09:28:55.000Z</time>
      </trkpt>
      <trkpt lat="44.07902" lon="6.94761">
        <ele>1644.5999755859</ele>
        <time>2022-07-21T09:28:56.000Z</time>
      </trkpt>
      <trkpt lat="44.07904" lon="6.94757">
        <ele>1643.1999511719</ele>
        <time>2022-07-21T09:28:57.000Z</time>
      </trkpt>
      <trkpt lat="44.0791" lon="6.94752">
        <ele>1640.4000244141</ele>
        <time>2022-07-21T09:28:59.000Z</time>
      </trkpt>
      <trkpt lat="44.07913" lon="6.94755">
        <ele>1639.5999755859</ele>
        <time>2022-07-21T09:29:00.000Z</time>
      </trkpt>
      <trkpt lat="44.07917" lon="6.94761">
        <ele>1638.5999755859</ele>
        <time>2022-07-21T09:29:01.000Z</time>
      </trkpt>
      <trkpt lat="44.0792" lon="6.94768">
        <ele>1637.5999755859</ele>
        <time>2022-07-21T09:29:02.000Z</time>
      </trkpt>
      <trkpt lat="44.07923" lon="6.94777">
        <ele>1636</ele>
        <time>2022-07-21T09:29:03.000Z</time>
      </trkpt>
      <trkpt lat="44.07929" lon="6.94795">
        <ele>1632.8000488281</ele>
        <time>2022-07-21T09:29:05.000Z</time>
      </trkpt>
      <trkpt lat="44.07932" lon="6.94804">
        <ele>1631.5999755859</ele>
        <time>2022-07-21T09:29:06.000Z</time>
      </trkpt>
      <trkpt lat="44.07935" lon="6.94813">
        <ele>1629.8000488281</ele>
        <time>2022-07-21T09:29:07.000Z</time>
      </trkpt>
      <trkpt lat="44.07939" lon="6.94822">
        <ele>1628.8000488281</ele>
        <time>2022-07-21T09:29:08.000Z</time>
      </trkpt>
      <trkpt lat="44.07942" lon="6.94831">
        <ele>1628.1999511719</ele>
        <time>2022-07-21T09:29:09.000Z</time>
      </trkpt>
      <trkpt lat="44.07945" lon="6.9484">
        <ele>1627.1999511719</ele>
        <time>2022-07-21T09:29:10.000Z</time>
      </trkpt>
      <trkpt lat="44.0795" lon="6.94862">
        <ele>1625.5999755859</ele>
        <time>2022-07-21T09:29:12.000Z</time>
      </trkpt>
      <trkpt lat="44.0795" lon="6.94882">
        <ele>1624</ele>
        <time>2022-07-21T09:29:14.000Z</time>
      </trkpt>
      <trkpt lat="44.07947" lon="6.94887">
        <ele>1623</ele>
        <time>2022-07-21T09:29:15.000Z</time>
      </trkpt>
      <trkpt lat="44.07945" lon="6.94895">
        <ele>1622.8000488281</ele>
        <time>2022-07-21T09:29:16.000Z</time>
      </trkpt>
      <trkpt lat="44.07935" lon="6.9494">
        <ele>1623.1999511719</ele>
        <time>2022-07-21T09:29:21.000Z</time>
      </trkpt>
      <trkpt lat="44.07929" lon="6.94964">
        <ele>1621.8000488281</ele>
        <time>2022-07-21T09:29:24.000Z</time>
      </trkpt>
      <trkpt lat="44.07929" lon="6.94971">
        <ele>1621.5999755859</ele>
        <time>2022-07-21T09:29:25.000Z</time>
      </trkpt>
      <trkpt lat="44.07932" lon="6.94993">
        <ele>1620.4000244141</ele>
        <time>2022-07-21T09:29:29.000Z</time>
      </trkpt>
      <trkpt lat="44.07931" lon="6.95003">
        <ele>1619.5999755859</ele>
        <time>2022-07-21T09:29:30.000Z</time>
      </trkpt>
      <trkpt lat="44.07929" lon="6.95013">
        <ele>1618.4000244141</ele>
        <time>2022-07-21T09:29:31.000Z</time>
      </trkpt>
      <trkpt lat="44.07928" lon="6.95019">
        <ele>1617.1999511719</ele>
        <time>2022-07-21T09:29:32.000Z</time>
      </trkpt>
      <trkpt lat="44.07928" lon="6.95023">
        <ele>1615</ele>
        <time>2022-07-21T09:29:33.000Z</time>
      </trkpt>
      <trkpt lat="44.07929" lon="6.95026">
        <ele>1613.8000488281</ele>
        <time>2022-07-21T09:29:34.000Z</time>
      </trkpt>
      <trkpt lat="44.07935" lon="6.95023">
        <ele>1611.8000488281</ele>
        <time>2022-07-21T09:29:35.000Z</time>
      </trkpt>
      <trkpt lat="44.07938" lon="6.95021">
        <ele>1610.8000488281</ele>
        <time>2022-07-21T09:29:36.000Z</time>
      </trkpt>
      <trkpt lat="44.07942" lon="6.95031">
        <ele>1608.8000488281</ele>
        <time>2022-07-21T09:29:38.000Z</time>
      </trkpt>
      <trkpt lat="44.07942" lon="6.95039">
        <ele>1608.1999511719</ele>
        <time>2022-07-21T09:29:39.000Z</time>
      </trkpt>
      <trkpt lat="44.07942" lon="6.95046">
        <ele>1607.5999755859</ele>
        <time>2022-07-21T09:29:40.000Z</time>
      </trkpt>
      <trkpt lat="44.07942" lon="6.95055">
        <ele>1606.1999511719</ele>
        <time>2022-07-21T09:29:41.000Z</time>
      </trkpt>
      <trkpt lat="44.07942" lon="6.9508">
        <ele>1605.4000244141</ele>
        <time>2022-07-21T09:29:44.000Z</time>
      </trkpt>
      <trkpt lat="44.0794" lon="6.95088">
        <ele>1604.1999511719</ele>
        <time>2022-07-21T09:29:45.000Z</time>
      </trkpt>
      <trkpt lat="44.0794" lon="6.95093">
        <ele>1602.4000244141</ele>
        <time>2022-07-21T09:29:46.000Z</time>
      </trkpt>
      <trkpt lat="44.07941" lon="6.95097">
        <ele>1601</ele>
        <time>2022-07-21T09:29:47.000Z</time>
      </trkpt>
      <trkpt lat="44.07946" lon="6.95102">
        <ele>1599.5999755859</ele>
        <time>2022-07-21T09:29:49.000Z</time>
      </trkpt>
      <trkpt lat="44.07949" lon="6.95102">
        <ele>1598.4000244141</ele>
        <time>2022-07-21T09:29:50.000Z</time>
      </trkpt>
      <trkpt lat="44.07952" lon="6.95106">
        <ele>1597.4000244141</ele>
        <time>2022-07-21T09:29:51.000Z</time>
      </trkpt>
      <trkpt lat="44.07954" lon="6.95111">
        <ele>1596.5999755859</ele>
        <time>2022-07-21T09:29:52.000Z</time>
      </trkpt>
      <trkpt lat="44.07954" lon="6.95117">
        <ele>1595.1999511719</ele>
        <time>2022-07-21T09:29:53.000Z</time>
      </trkpt>
      <trkpt lat="44.07955" lon="6.95129">
        <ele>1592.5999755859</ele>
        <time>2022-07-21T09:29:55.000Z</time>
      </trkpt>
      <trkpt lat="44.07954" lon="6.95136">
        <ele>1591.4000244141</ele>
        <time>2022-07-21T09:29:56.000Z</time>
      </trkpt>
      <trkpt lat="44.07953" lon="6.95141">
        <ele>1591</ele>
        <time>2022-07-21T09:29:57.000Z</time>
      </trkpt>
      <trkpt lat="44.07951" lon="6.95145">
        <ele>1589.4000244141</ele>
        <time>2022-07-21T09:29:58.000Z</time>
      </trkpt>
      <trkpt lat="44.0795" lon="6.95145">
        <ele>1588.1999511719</ele>
        <time>2022-07-21T09:30:01.000Z</time>
      </trkpt>
      <trkpt lat="44.0795" lon="6.95144">
        <ele>1587</ele>
        <time>2022-07-21T09:30:07.000Z</time>
      </trkpt>
      <trkpt lat="44.07949" lon="6.95146">
        <ele>1586.5999755859</ele>
        <time>2022-07-21T09:30:13.000Z</time>
      </trkpt>
      <trkpt lat="44.07945" lon="6.95156">
        <ele>1586.8000488281</ele>
        <time>2022-07-21T09:30:21.000Z</time>
      </trkpt>
      <trkpt lat="44.07941" lon="6.95168">
        <ele>1585.5999755859</ele>
        <time>2022-07-21T09:30:24.000Z</time>
      </trkpt>
      <trkpt lat="44.0794" lon="6.95173">
        <ele>1584</ele>
        <time>2022-07-21T09:30:26.000Z</time>
      </trkpt>
      <trkpt lat="44.07938" lon="6.95174">
        <ele>1583.8000488281</ele>
        <time>2022-07-21T09:30:27.000Z</time>
      </trkpt>
      <trkpt lat="44.07935" lon="6.95179">
        <ele>1584</ele>
        <time>2022-07-21T09:30:30.000Z</time>
      </trkpt>
      <trkpt lat="44.07932" lon="6.95185">
        <ele>1584.1999511719</ele>
        <time>2022-07-21T09:30:32.000Z</time>
      </trkpt>
      <trkpt lat="44.07928" lon="6.95187">
        <ele>1584.8000488281</ele>
        <time>2022-07-21T09:30:34.000Z</time>
      </trkpt>
      <trkpt lat="44.07927" lon="6.95185">
        <ele>1585.1999511719</ele>
        <time>2022-07-21T09:30:35.000Z</time>
      </trkpt>
      <trkpt lat="44.07925" lon="6.95183">
        <ele>1585.1999511719</ele>
        <time>2022-07-21T09:30:36.000Z</time>
      </trkpt>
      <trkpt lat="44.07919" lon="6.95181">
        <ele>1586.5999755859</ele>
        <time>2022-07-21T09:30:40.000Z</time>
      </trkpt>
      <trkpt lat="44.07918" lon="6.95185">
        <ele>1587.5999755859</ele>
        <time>2022-07-21T09:30:41.000Z</time>
      </trkpt>
      <trkpt lat="44.07918" lon="6.95188">
        <ele>1588.1999511719</ele>
        <time>2022-07-21T09:30:42.000Z</time>
      </trkpt>
      <trkpt lat="44.07916" lon="6.952">
        <ele>1589.4000244141</ele>
        <time>2022-07-21T09:30:45.000Z</time>
      </trkpt>
      <trkpt lat="44.07913" lon="6.95214">
        <ele>1590.8000488281</ele>
        <time>2022-07-21T09:30:49.000Z</time>
      </trkpt>
      <trkpt lat="44.07911" lon="6.95217">
        <ele>1591.1999511719</ele>
        <time>2022-07-21T09:30:50.000Z</time>
      </trkpt>
      <trkpt lat="44.07907" lon="6.95221">
        <ele>1592</ele>
        <time>2022-07-21T09:30:52.000Z</time>
      </trkpt>
      <trkpt lat="44.07905" lon="6.95221">
        <ele>1592.4000244141</ele>
        <time>2022-07-21T09:30:53.000Z</time>
      </trkpt>
      <trkpt lat="44.079" lon="6.95222">
        <ele>1593.1999511719</ele>
        <time>2022-07-21T09:30:55.000Z</time>
      </trkpt>
      <trkpt lat="44.07891" lon="6.95223">
        <ele>1594.4000244141</ele>
        <time>2022-07-21T09:30:58.000Z</time>
      </trkpt>
      <trkpt lat="44.07886" lon="6.95222">
        <ele>1595.1999511719</ele>
        <time>2022-07-21T09:31:00.000Z</time>
      </trkpt>
      <trkpt lat="44.07884" lon="6.95222">
        <ele>1595.8000488281</ele>
        <time>2022-07-21T09:31:01.000Z</time>
      </trkpt>
      <trkpt lat="44.07879" lon="6.95223">
        <ele>1596.8000488281</ele>
        <time>2022-07-21T09:31:03.000Z</time>
      </trkpt>
      <trkpt lat="44.07872" lon="6.95227">
        <ele>1598</ele>
        <time>2022-07-21T09:31:06.000Z</time>
      </trkpt>
      <trkpt lat="44.07866" lon="6.9523">
        <ele>1599.5999755859</ele>
        <time>2022-07-21T09:31:09.000Z</time>
      </trkpt>
      <trkpt lat="44.0786" lon="6.95231">
        <ele>1600.5999755859</ele>
        <time>2022-07-21T09:31:12.000Z</time>
      </trkpt>
      <trkpt lat="44.07852" lon="6.95229">
        <ele>1602</ele>
        <time>2022-07-21T09:31:16.000Z</time>
      </trkpt>
      <trkpt lat="44.07848" lon="6.95226">
        <ele>1603</ele>
        <time>2022-07-21T09:31:18.000Z</time>
      </trkpt>
      <trkpt lat="44.07846" lon="6.95226">
        <ele>1603.1999511719</ele>
        <time>2022-07-21T09:31:19.000Z</time>
      </trkpt>
      <trkpt lat="44.07842" lon="6.95225">
        <ele>1604</ele>
        <time>2022-07-21T09:31:21.000Z</time>
      </trkpt>
      <trkpt lat="44.07835" lon="6.95221">
        <ele>1605</ele>
        <time>2022-07-21T09:31:25.000Z</time>
      </trkpt>
      <trkpt lat="44.07829" lon="6.95214">
        <ele>1606</ele>
        <time>2022-07-21T09:31:29.000Z</time>
      </trkpt>
      <trkpt lat="44.07823" lon="6.95205">
        <ele>1607</ele>
        <time>2022-07-21T09:31:33.000Z</time>
      </trkpt>
      <trkpt lat="44.07821" lon="6.95204">
        <ele>1607.4000244141</ele>
        <time>2022-07-21T09:31:34.000Z</time>
      </trkpt>
      <trkpt lat="44.07816" lon="6.95201">
        <ele>1608.4000244141</ele>
        <time>2022-07-21T09:31:37.000Z</time>
      </trkpt>
      <trkpt lat="44.07812" lon="6.95197">
        <ele>1609</ele>
        <time>2022-07-21T09:31:39.000Z</time>
      </trkpt>
      <trkpt lat="44.07811" lon="6.95195">
        <ele>1609.5999755859</ele>
        <time>2022-07-21T09:31:40.000Z</time>
      </trkpt>
      <trkpt lat="44.07805" lon="6.95187">
        <ele>1610.5999755859</ele>
        <time>2022-07-21T09:31:44.000Z</time>
      </trkpt>
      <trkpt lat="44.07801" lon="6.95182">
        <ele>1611</ele>
        <time>2022-07-21T09:31:46.000Z</time>
      </trkpt>
      <trkpt lat="44.078" lon="6.95178">
        <ele>1611.4000244141</ele>
        <time>2022-07-21T09:31:47.000Z</time>
      </trkpt>
      <trkpt lat="44.07799" lon="6.95172">
        <ele>1611.5999755859</ele>
        <time>2022-07-21T09:31:49.000Z</time>
      </trkpt>
      <trkpt lat="44.07798" lon="6.95165">
        <ele>1612.4000244141</ele>
        <time>2022-07-21T09:31:51.000Z</time>
      </trkpt>
      <trkpt lat="44.07798" lon="6.95162">
        <ele>1613</ele>
        <time>2022-07-21T09:31:52.000Z</time>
      </trkpt>
      <trkpt lat="44.07797" lon="6.95155">
        <ele>1614.1999511719</ele>
        <time>2022-07-21T09:31:54.000Z</time>
      </trkpt>
      <trkpt lat="44.07795" lon="6.95148">
        <ele>1615.8000488281</ele>
        <time>2022-07-21T09:31:56.000Z</time>
      </trkpt>
      <trkpt lat="44.07791" lon="6.95139">
        <ele>1616.8000488281</ele>
        <time>2022-07-21T09:31:59.000Z</time>
      </trkpt>
      <trkpt lat="44.07788" lon="6.95133">
        <ele>1617.8000488281</ele>
        <time>2022-07-21T09:32:01.000Z</time>
      </trkpt>
      <trkpt lat="44.07786" lon="6.95129">
        <ele>1619</ele>
        <time>2022-07-21T09:32:03.000Z</time>
      </trkpt>
      <trkpt lat="44.07782" lon="6.95123">
        <ele>1620.5999755859</ele>
        <time>2022-07-21T09:32:06.000Z</time>
      </trkpt>
      <trkpt lat="44.07777" lon="6.95118">
        <ele>1621.5999755859</ele>
        <time>2022-07-21T09:32:09.000Z</time>
      </trkpt>
      <trkpt lat="44.07771" lon="6.95115">
        <ele>1622.5999755859</ele>
        <time>2022-07-21T09:32:12.000Z</time>
      </trkpt>
      <trkpt lat="44.07769" lon="6.95115">
        <ele>1622.8000488281</ele>
        <time>2022-07-21T09:32:13.000Z</time>
      </trkpt>
      <trkpt lat="44.07758" lon="6.95115">
        <ele>1624</ele>
        <time>2022-07-21T09:32:18.000Z</time>
      </trkpt>
      <trkpt lat="44.07753" lon="6.95116">
        <ele>1624.5999755859</ele>
        <time>2022-07-21T09:32:20.000Z</time>
      </trkpt>
      <trkpt lat="44.07744" lon="6.95117">
        <ele>1625</ele>
        <time>2022-07-21T09:32:24.000Z</time>
      </trkpt>
      <trkpt lat="44.07734" lon="6.95115">
        <ele>1626.1999511719</ele>
        <time>2022-07-21T09:32:29.000Z</time>
      </trkpt>
      <trkpt lat="44.07729" lon="6.95112">
        <ele>1627.1999511719</ele>
        <time>2022-07-21T09:32:32.000Z</time>
      </trkpt>
      <trkpt lat="44.07727" lon="6.95112">
        <ele>1627.8000488281</ele>
        <time>2022-07-21T09:32:34.000Z</time>
      </trkpt>
      <trkpt lat="44.07725" lon="6.95113">
        <ele>1628.1999511719</ele>
        <time>2022-07-21T09:32:36.000Z</time>
      </trkpt>
      <trkpt lat="44.07719" lon="6.95114">
        <ele>1628.4000244141</ele>
        <time>2022-07-21T09:32:40.000Z</time>
      </trkpt>
      <trkpt lat="44.07709" lon="6.95114">
        <ele>1629.1999511719</ele>
        <time>2022-07-21T09:32:46.000Z</time>
      </trkpt>
      <trkpt lat="44.07694" lon="6.95116">
        <ele>1627.4000244141</ele>
        <time>2022-07-21T09:32:50.000Z</time>
      </trkpt>
      <trkpt lat="44.07691" lon="6.95115">
        <ele>1626.1999511719</ele>
        <time>2022-07-21T09:32:51.000Z</time>
      </trkpt>
      <trkpt lat="44.07688" lon="6.95111">
        <ele>1624.5999755859</ele>
        <time>2022-07-21T09:32:53.000Z</time>
      </trkpt>
      <trkpt lat="44.07685" lon="6.95109">
        <ele>1624.4000244141</ele>
        <time>2022-07-21T09:32:59.000Z</time>
      </trkpt>
      <trkpt lat="44.07684" lon="6.95109">
        <ele>1624.8000488281</ele>
        <time>2022-07-21T09:33:20.000Z</time>
      </trkpt>
      <trkpt lat="44.07682" lon="6.9511">
        <ele>1625</ele>
        <time>2022-07-21T09:33:30.000Z</time>
      </trkpt>
      <trkpt lat="44.07672" lon="6.95113">
        <ele>1624.5999755859</ele>
        <time>2022-07-21T09:33:34.000Z</time>
      </trkpt>
      <trkpt lat="44.07663" lon="6.95114">
        <ele>1623.4000244141</ele>
        <time>2022-07-21T09:33:37.000Z</time>
      </trkpt>
      <trkpt lat="44.07658" lon="6.95112">
        <ele>1622.8000488281</ele>
        <time>2022-07-21T09:33:39.000Z</time>
      </trkpt>
      <trkpt lat="44.0764" lon="6.95107">
        <ele>1624</ele>
        <time>2022-07-21T09:33:46.000Z</time>
      </trkpt>
      <trkpt lat="44.07634" lon="6.95105">
        <ele>1624.5999755859</ele>
        <time>2022-07-21T09:33:48.000Z</time>
      </trkpt>
      <trkpt lat="44.0763" lon="6.95103">
        <ele>1626</ele>
        <time>2022-07-21T09:33:50.000Z</time>
      </trkpt>
      <trkpt lat="44.07623" lon="6.95101">
        <ele>1627</ele>
        <time>2022-07-21T09:33:52.000Z</time>
      </trkpt>
      <trkpt lat="44.07621" lon="6.951">
        <ele>1627.5999755859</ele>
        <time>2022-07-21T09:33:53.000Z</time>
      </trkpt>
      <trkpt lat="44.07618" lon="6.95099">
        <ele>1628.1999511719</ele>
        <time>2022-07-21T09:33:54.000Z</time>
      </trkpt>
      <trkpt lat="44.07613" lon="6.95099">
        <ele>1629.4000244141</ele>
        <time>2022-07-21T09:33:56.000Z</time>
      </trkpt>
      <trkpt lat="44.07608" lon="6.95099">
        <ele>1630.4000244141</ele>
        <time>2022-07-21T09:33:58.000Z</time>
      </trkpt>
      <trkpt lat="44.07603" lon="6.95098">
        <ele>1631.1999511719</ele>
        <time>2022-07-21T09:34:00.000Z</time>
      </trkpt>
      <trkpt lat="44.076" lon="6.95098">
        <ele>1631.8000488281</ele>
        <time>2022-07-21T09:34:01.000Z</time>
      </trkpt>
      <trkpt lat="44.07593" lon="6.951">
        <ele>1633</ele>
        <time>2022-07-21T09:34:04.000Z</time>
      </trkpt>
      <trkpt lat="44.07588" lon="6.951">
        <ele>1634</ele>
        <time>2022-07-21T09:34:06.000Z</time>
      </trkpt>
      <trkpt lat="44.07585" lon="6.95101">
        <ele>1634.5999755859</ele>
        <time>2022-07-21T09:34:07.000Z</time>
      </trkpt>
      <trkpt lat="44.0758" lon="6.95101">
        <ele>1635.5999755859</ele>
        <time>2022-07-21T09:34:09.000Z</time>
      </trkpt>
      <trkpt lat="44.07575" lon="6.95101">
        <ele>1636.5999755859</ele>
        <time>2022-07-21T09:34:11.000Z</time>
      </trkpt>
      <trkpt lat="44.07569" lon="6.95101">
        <ele>1637.8000488281</ele>
        <time>2022-07-21T09:34:13.000Z</time>
      </trkpt>
      <trkpt lat="44.07562" lon="6.951">
        <ele>1639.1999511719</ele>
        <time>2022-07-21T09:34:16.000Z</time>
      </trkpt>
      <trkpt lat="44.07555" lon="6.95099">
        <ele>1640.5999755859</ele>
        <time>2022-07-21T09:34:19.000Z</time>
      </trkpt>
      <trkpt lat="44.07549" lon="6.95098">
        <ele>1642</ele>
        <time>2022-07-21T09:34:21.000Z</time>
      </trkpt>
      <trkpt lat="44.07545" lon="6.95097">
        <ele>1643.1999511719</ele>
        <time>2022-07-21T09:34:23.000Z</time>
      </trkpt>
      <trkpt lat="44.07539" lon="6.95094">
        <ele>1644.8000488281</ele>
        <time>2022-07-21T09:34:26.000Z</time>
      </trkpt>
      <trkpt lat="44.07537" lon="6.95093">
        <ele>1645.4000244141</ele>
        <time>2022-07-21T09:34:27.000Z</time>
      </trkpt>
      <trkpt lat="44.07534" lon="6.95092">
        <ele>1646</ele>
        <time>2022-07-21T09:34:28.000Z</time>
      </trkpt>
      <trkpt lat="44.0753" lon="6.95089">
        <ele>1647.4000244141</ele>
        <time>2022-07-21T09:34:30.000Z</time>
      </trkpt>
      <trkpt lat="44.07526" lon="6.95087">
        <ele>1648.4000244141</ele>
        <time>2022-07-21T09:34:32.000Z</time>
      </trkpt>
      <trkpt lat="44.07521" lon="6.95083">
        <ele>1649.4000244141</ele>
        <time>2022-07-21T09:34:34.000Z</time>
      </trkpt>
      <trkpt lat="44.07515" lon="6.9508">
        <ele>1650.5999755859</ele>
        <time>2022-07-21T09:34:37.000Z</time>
      </trkpt>
      <trkpt lat="44.07509" lon="6.95077">
        <ele>1651.8000488281</ele>
        <time>2022-07-21T09:34:40.000Z</time>
      </trkpt>
      <trkpt lat="44.07507" lon="6.95075">
        <ele>1652.4000244141</ele>
        <time>2022-07-21T09:34:41.000Z</time>
      </trkpt>
      <trkpt lat="44.07502" lon="6.95073">
        <ele>1653.1999511719</ele>
        <time>2022-07-21T09:34:43.000Z</time>
      </trkpt>
      <trkpt lat="44.07495" lon="6.9507">
        <ele>1654.4000244141</ele>
        <time>2022-07-21T09:34:46.000Z</time>
      </trkpt>
      <trkpt lat="44.07494" lon="6.95069">
        <ele>1654.8000488281</ele>
        <time>2022-07-21T09:34:47.000Z</time>
      </trkpt>
      <trkpt lat="44.07489" lon="6.95068">
        <ele>1655.4000244141</ele>
        <time>2022-07-21T09:34:49.000Z</time>
      </trkpt>
      <trkpt lat="44.07483" lon="6.95065">
        <ele>1656.5999755859</ele>
        <time>2022-07-21T09:34:52.000Z</time>
      </trkpt>
      <trkpt lat="44.07481" lon="6.95065">
        <ele>1657</ele>
        <time>2022-07-21T09:34:53.000Z</time>
      </trkpt>
      <trkpt lat="44.07477" lon="6.95065">
        <ele>1657.8000488281</ele>
        <time>2022-07-21T09:34:55.000Z</time>
      </trkpt>
      <trkpt lat="44.0747" lon="6.95065">
        <ele>1659</ele>
        <time>2022-07-21T09:34:58.000Z</time>
      </trkpt>
      <trkpt lat="44.07467" lon="6.95066">
        <ele>1659.1999511719</ele>
        <time>2022-07-21T09:34:59.000Z</time>
      </trkpt>
      <trkpt lat="44.07461" lon="6.9507">
        <ele>1660.1999511719</ele>
        <time>2022-07-21T09:35:02.000Z</time>
      </trkpt>
      <trkpt lat="44.07457" lon="6.95074">
        <ele>1661.1999511719</ele>
        <time>2022-07-21T09:35:04.000Z</time>
      </trkpt>
      <trkpt lat="44.07455" lon="6.95075">
        <ele>1661.8000488281</ele>
        <time>2022-07-21T09:35:05.000Z</time>
      </trkpt>
      <trkpt lat="44.07453" lon="6.95077">
        <ele>1662.5999755859</ele>
        <time>2022-07-21T09:35:06.000Z</time>
      </trkpt>
      <trkpt lat="44.07448" lon="6.95078">
        <ele>1663.5999755859</ele>
        <time>2022-07-21T09:35:08.000Z</time>
      </trkpt>
      <trkpt lat="44.07444" lon="6.95079">
        <ele>1664.5999755859</ele>
        <time>2022-07-21T09:35:10.000Z</time>
      </trkpt>
      <trkpt lat="44.07437" lon="6.9508">
        <ele>1666</ele>
        <time>2022-07-21T09:35:13.000Z</time>
      </trkpt>
      <trkpt lat="44.07431" lon="6.95082">
        <ele>1667.4000244141</ele>
        <time>2022-07-21T09:35:16.000Z</time>
      </trkpt>
      <trkpt lat="44.07427" lon="6.95082">
        <ele>1668</ele>
        <time>2022-07-21T09:35:18.000Z</time>
      </trkpt>
      <trkpt lat="44.07422" lon="6.95082">
        <ele>1668.5999755859</ele>
        <time>2022-07-21T09:35:20.000Z</time>
      </trkpt>
      <trkpt lat="44.07412" lon="6.9508">
        <ele>1669.8000488281</ele>
        <time>2022-07-21T09:35:24.000Z</time>
      </trkpt>
      <trkpt lat="44.0741" lon="6.95078">
        <ele>1670.1999511719</ele>
        <time>2022-07-21T09:35:25.000Z</time>
      </trkpt>
      <trkpt lat="44.07405" lon="6.95076">
        <ele>1671</ele>
        <time>2022-07-21T09:35:27.000Z</time>
      </trkpt>
      <trkpt lat="44.07398" lon="6.9507">
        <ele>1672.1999511719</ele>
        <time>2022-07-21T09:35:31.000Z</time>
      </trkpt>
      <trkpt lat="44.07397" lon="6.95068">
        <ele>1672.4000244141</ele>
        <time>2022-07-21T09:35:32.000Z</time>
      </trkpt>
      <trkpt lat="44.07394" lon="6.95063">
        <ele>1673.1999511719</ele>
        <time>2022-07-21T09:35:35.000Z</time>
      </trkpt>
      <trkpt lat="44.07388" lon="6.95054">
        <ele>1674.4000244141</ele>
        <time>2022-07-21T09:35:39.000Z</time>
      </trkpt>
      <trkpt lat="44.07384" lon="6.95047">
        <ele>1675.8000488281</ele>
        <time>2022-07-21T09:35:43.000Z</time>
      </trkpt>
      <trkpt lat="44.07379" lon="6.95042">
        <ele>1676.8000488281</ele>
        <time>2022-07-21T09:35:47.000Z</time>
      </trkpt>
      <trkpt lat="44.07378" lon="6.9504">
        <ele>1677</ele>
        <time>2022-07-21T09:35:48.000Z</time>
      </trkpt>
      <trkpt lat="44.07376" lon="6.95036">
        <ele>1677.8000488281</ele>
        <time>2022-07-21T09:35:51.000Z</time>
      </trkpt>
      <trkpt lat="44.07375" lon="6.95036">
        <ele>1678.4000244141</ele>
        <time>2022-07-21T09:35:54.000Z</time>
      </trkpt>
      <trkpt lat="44.07375" lon="6.95037">
        <ele>1678.5999755859</ele>
        <time>2022-07-21T09:36:02.000Z</time>
      </trkpt>
      <trkpt lat="44.07375" lon="6.95037">
        <ele>1679</ele>
        <time>2022-07-21T09:36:07.000Z</time>
      </trkpt>
      <trkpt lat="44.07375" lon="6.95037">
        <ele>1679</ele>
        <time>2022-07-21T09:36:10.000Z</time>
      </trkpt>
      <trkpt lat="44.07375" lon="6.95037">
        <ele>1678.8000488281</ele>
        <time>2022-07-21T09:36:27.000Z</time>
      </trkpt>
      <trkpt lat="44.07374" lon="6.95037">
        <ele>1679</ele>
        <time>2022-07-21T09:36:48.000Z</time>
      </trkpt>
      <trkpt lat="44.07374" lon="6.95037">
        <ele>1678.5999755859</ele>
        <time>2022-07-21T09:36:58.000Z</time>
      </trkpt>
      <trkpt lat="44.07373" lon="6.95037">
        <ele>1678.8000488281</ele>
        <time>2022-07-21T09:37:22.000Z</time>
      </trkpt>
      <trkpt lat="44.07371" lon="6.95035">
        <ele>1678.8000488281</ele>
        <time>2022-07-21T09:37:45.000Z</time>
      </trkpt>
      <trkpt lat="44.07363" lon="6.95027">
        <ele>1679.1999511719</ele>
        <time>2022-07-21T09:37:50.000Z</time>
      </trkpt>
      <trkpt lat="44.07361" lon="6.95027">
        <ele>1679.1999511719</ele>
        <time>2022-07-21T09:37:51.000Z</time>
      </trkpt>
      <trkpt lat="44.07354" lon="6.95024">
        <ele>1679</ele>
        <time>2022-07-21T09:37:54.000Z</time>
      </trkpt>
      <trkpt lat="44.07338" lon="6.95016">
        <ele>1678.8000488281</ele>
        <time>2022-07-21T09:38:01.000Z</time>
      </trkpt>
      <trkpt lat="44.07323" lon="6.95008">
        <ele>1679.5999755859</ele>
        <time>2022-07-21T09:38:08.000Z</time>
      </trkpt>
      <trkpt lat="44.07318" lon="6.95007">
        <ele>1680.1999511719</ele>
        <time>2022-07-21T09:38:11.000Z</time>
      </trkpt>
      <trkpt lat="44.07311" lon="6.95007">
        <ele>1680.5999755859</ele>
        <time>2022-07-21T09:38:15.000Z</time>
      </trkpt>
      <trkpt lat="44.0731" lon="6.95018">
        <ele>1680.8000488281</ele>
        <time>2022-07-21T09:38:19.000Z</time>
      </trkpt>
      <trkpt lat="44.07303" lon="6.95036">
        <ele>1680</ele>
        <time>2022-07-21T09:38:25.000Z</time>
      </trkpt>
      <trkpt lat="44.073" lon="6.95044">
        <ele>1679</ele>
        <time>2022-07-21T09:38:28.000Z</time>
      </trkpt>
      <trkpt lat="44.07297" lon="6.95052">
        <ele>1678.1999511719</ele>
        <time>2022-07-21T09:38:31.000Z</time>
      </trkpt>
      <trkpt lat="44.07289" lon="6.95067">
        <ele>1679.1999511719</ele>
        <time>2022-07-21T09:38:37.000Z</time>
      </trkpt>
      <trkpt lat="44.07274" lon="6.95078">
        <ele>1678.1999511719</ele>
        <time>2022-07-21T09:38:43.000Z</time>
      </trkpt>
      <trkpt lat="44.07267" lon="6.95083">
        <ele>1678</ele>
        <time>2022-07-21T09:38:45.000Z</time>
      </trkpt>
      <trkpt lat="44.07259" lon="6.95085">
        <ele>1677.5999755859</ele>
        <time>2022-07-21T09:38:47.000Z</time>
      </trkpt>
      <trkpt lat="44.07249" lon="6.95082">
        <ele>1676.5999755859</ele>
        <time>2022-07-21T09:38:49.000Z</time>
      </trkpt>
      <trkpt lat="44.0724" lon="6.95077">
        <ele>1675.5999755859</ele>
        <time>2022-07-21T09:38:51.000Z</time>
      </trkpt>
      <trkpt lat="44.07236" lon="6.95074">
        <ele>1674.4000244141</ele>
        <time>2022-07-21T09:38:52.000Z</time>
      </trkpt>
      <trkpt lat="44.07226" lon="6.95068">
        <ele>1673.8000488281</ele>
        <time>2022-07-21T09:38:54.000Z</time>
      </trkpt>
      <trkpt lat="44.07222" lon="6.95067">
        <ele>1673.1999511719</ele>
        <time>2022-07-21T09:38:55.000Z</time>
      </trkpt>
      <trkpt lat="44.07214" lon="6.95061">
        <ele>1672.4000244141</ele>
        <time>2022-07-21T09:38:57.000Z</time>
      </trkpt>
      <trkpt lat="44.07211" lon="6.95058">
        <ele>1672.1999511719</ele>
        <time>2022-07-21T09:38:58.000Z</time>
      </trkpt>
      <trkpt lat="44.07191" lon="6.95046">
        <ele>1671.5999755859</ele>
        <time>2022-07-21T09:39:03.000Z</time>
      </trkpt>
      <trkpt lat="44.07182" lon="6.95041">
        <ele>1671</ele>
        <time>2022-07-21T09:39:05.000Z</time>
      </trkpt>
      <trkpt lat="44.07165" lon="6.95029">
        <ele>1669.8000488281</ele>
        <time>2022-07-21T09:39:08.000Z</time>
      </trkpt>
      <trkpt lat="44.07158" lon="6.95025">
        <ele>1669</ele>
        <time>2022-07-21T09:39:09.000Z</time>
      </trkpt>
      <trkpt lat="44.07151" lon="6.95021">
        <ele>1668.4000244141</ele>
        <time>2022-07-21T09:39:10.000Z</time>
      </trkpt>
      <trkpt lat="44.07134" lon="6.95023">
        <ele>1666.1999511719</ele>
        <time>2022-07-21T09:39:12.000Z</time>
      </trkpt>
      <trkpt lat="44.07125" lon="6.95024">
        <ele>1664.4000244141</ele>
        <time>2022-07-21T09:39:13.000Z</time>
      </trkpt>
      <trkpt lat="44.07117" lon="6.95024">
        <ele>1662.8000488281</ele>
        <time>2022-07-21T09:39:14.000Z</time>
      </trkpt>
      <trkpt lat="44.07111" lon="6.95023">
        <ele>1661.8000488281</ele>
        <time>2022-07-21T09:39:15.000Z</time>
      </trkpt>
      <trkpt lat="44.07104" lon="6.95019">
        <ele>1660.1999511719</ele>
        <time>2022-07-21T09:39:16.000Z</time>
      </trkpt>
      <trkpt lat="44.071" lon="6.95011">
        <ele>1658.5999755859</ele>
        <time>2022-07-21T09:39:17.000Z</time>
      </trkpt>
      <trkpt lat="44.07095" lon="6.95004">
        <ele>1657.5999755859</ele>
        <time>2022-07-21T09:39:18.000Z</time>
      </trkpt>
      <trkpt lat="44.07089" lon="6.95003">
        <ele>1656</ele>
        <time>2022-07-21T09:39:19.000Z</time>
      </trkpt>
      <trkpt lat="44.07084" lon="6.95003">
        <ele>1654.1999511719</ele>
        <time>2022-07-21T09:39:20.000Z</time>
      </trkpt>
      <trkpt lat="44.07078" lon="6.95004">
        <ele>1653.1999511719</ele>
        <time>2022-07-21T09:39:21.000Z</time>
      </trkpt>
      <trkpt lat="44.07067" lon="6.95004">
        <ele>1651.8000488281</ele>
        <time>2022-07-21T09:39:23.000Z</time>
      </trkpt>
      <trkpt lat="44.07057" lon="6.95004">
        <ele>1651.5999755859</ele>
        <time>2022-07-21T09:39:25.000Z</time>
      </trkpt>
      <trkpt lat="44.07031" lon="6.95007">
        <ele>1651</ele>
        <time>2022-07-21T09:39:30.000Z</time>
      </trkpt>
      <trkpt lat="44.07026" lon="6.95007">
        <ele>1651.1999511719</ele>
        <time>2022-07-21T09:39:31.000Z</time>
      </trkpt>
      <trkpt lat="44.0702" lon="6.95004">
        <ele>1650.8000488281</ele>
        <time>2022-07-21T09:39:33.000Z</time>
      </trkpt>
      <trkpt lat="44.07019" lon="6.95003">
        <ele>1650.8000488281</ele>
        <time>2022-07-21T09:39:34.000Z</time>
      </trkpt>
      <trkpt lat="44.07012" lon="6.95002">
        <ele>1649.5999755859</ele>
        <time>2022-07-21T09:39:37.000Z</time>
      </trkpt>
      <trkpt lat="44.0701" lon="6.95006">
        <ele>1648.5999755859</ele>
        <time>2022-07-21T09:39:39.000Z</time>
      </trkpt>
      <trkpt lat="44.0701" lon="6.95022">
        <ele>1649</ele>
        <time>2022-07-21T09:39:43.000Z</time>
      </trkpt>
      <trkpt lat="44.07002" lon="6.95037">
        <ele>1648.5999755859</ele>
        <time>2022-07-21T09:39:46.000Z</time>
      </trkpt>
      <trkpt lat="44.06998" lon="6.95048">
        <ele>1648</ele>
        <time>2022-07-21T09:39:48.000Z</time>
      </trkpt>
      <trkpt lat="44.06994" lon="6.95059">
        <ele>1647.4000244141</ele>
        <time>2022-07-21T09:39:51.000Z</time>
      </trkpt>
      <trkpt lat="44.06998" lon="6.95072">
        <ele>1648.5999755859</ele>
        <time>2022-07-21T09:39:55.000Z</time>
      </trkpt>
      <trkpt lat="44.07002" lon="6.95076">
        <ele>1649.8000488281</ele>
        <time>2022-07-21T09:39:57.000Z</time>
      </trkpt>
      <trkpt lat="44.07005" lon="6.95079">
        <ele>1650.8000488281</ele>
        <time>2022-07-21T09:39:59.000Z</time>
      </trkpt>
      <trkpt lat="44.07007" lon="6.95083">
        <ele>1651.4000244141</ele>
        <time>2022-07-21T09:40:00.000Z</time>
      </trkpt>
      <trkpt lat="44.07009" lon="6.95086">
        <ele>1651.5999755859</ele>
        <time>2022-07-21T09:40:01.000Z</time>
      </trkpt>
      <trkpt lat="44.07013" lon="6.95092">
        <ele>1652.5999755859</ele>
        <time>2022-07-21T09:40:03.000Z</time>
      </trkpt>
      <trkpt lat="44.07016" lon="6.95097">
        <ele>1653.4000244141</ele>
        <time>2022-07-21T09:40:05.000Z</time>
      </trkpt>
      <trkpt lat="44.07018" lon="6.951">
        <ele>1654</ele>
        <time>2022-07-21T09:40:06.000Z</time>
      </trkpt>
      <trkpt lat="44.07025" lon="6.95107">
        <ele>1655.1999511719</ele>
        <time>2022-07-21T09:40:09.000Z</time>
      </trkpt>
      <trkpt lat="44.07029" lon="6.95113">
        <ele>1655.5999755859</ele>
        <time>2022-07-21T09:40:11.000Z</time>
      </trkpt>
      <trkpt lat="44.07032" lon="6.95118">
        <ele>1656.1999511719</ele>
        <time>2022-07-21T09:40:13.000Z</time>
      </trkpt>
      <trkpt lat="44.07036" lon="6.95124">
        <ele>1657</ele>
        <time>2022-07-21T09:40:15.000Z</time>
      </trkpt>
      <trkpt lat="44.07047" lon="6.95148">
        <ele>1656.8000488281</ele>
        <time>2022-07-21T09:40:22.000Z</time>
      </trkpt>
      <trkpt lat="44.07054" lon="6.95169">
        <ele>1657.4000244141</ele>
        <time>2022-07-21T09:40:28.000Z</time>
      </trkpt>
      <trkpt lat="44.07059" lon="6.95185">
        <ele>1658.5999755859</ele>
        <time>2022-07-21T09:40:32.000Z</time>
      </trkpt>
      <trkpt lat="44.07061" lon="6.95189">
        <ele>1658.5999755859</ele>
        <time>2022-07-21T09:40:33.000Z</time>
      </trkpt>
      <trkpt lat="44.07065" lon="6.95199">
        <ele>1659.5999755859</ele>
        <time>2022-07-21T09:40:36.000Z</time>
      </trkpt>
      <trkpt lat="44.07066" lon="6.95209">
        <ele>1660.1999511719</ele>
        <time>2022-07-21T09:40:39.000Z</time>
      </trkpt>
      <trkpt lat="44.0707" lon="6.95217">
        <ele>1660.5999755859</ele>
        <time>2022-07-21T09:40:41.000Z</time>
      </trkpt>
      <trkpt lat="44.0707" lon="6.95226">
        <ele>1661</ele>
        <time>2022-07-21T09:40:43.000Z</time>
      </trkpt>
      <trkpt lat="44.07071" lon="6.95234">
        <ele>1661.4000244141</ele>
        <time>2022-07-21T09:40:45.000Z</time>
      </trkpt>
      <trkpt lat="44.07072" lon="6.95238">
        <ele>1661.5999755859</ele>
        <time>2022-07-21T09:40:46.000Z</time>
      </trkpt>
      <trkpt lat="44.07072" lon="6.95241">
        <ele>1662</ele>
        <time>2022-07-21T09:40:47.000Z</time>
      </trkpt>
      <trkpt lat="44.07073" lon="6.95248">
        <ele>1663</ele>
        <time>2022-07-21T09:40:49.000Z</time>
      </trkpt>
      <trkpt lat="44.07074" lon="6.9526">
        <ele>1664.4000244141</ele>
        <time>2022-07-21T09:40:52.000Z</time>
      </trkpt>
      <trkpt lat="44.07074" lon="6.95262">
        <ele>1664.8000488281</ele>
        <time>2022-07-21T09:40:53.000Z</time>
      </trkpt>
      <trkpt lat="44.07077" lon="6.95272">
        <ele>1665.8000488281</ele>
        <time>2022-07-21T09:40:56.000Z</time>
      </trkpt>
      <trkpt lat="44.07077" lon="6.95275">
        <ele>1666</ele>
        <time>2022-07-21T09:40:57.000Z</time>
      </trkpt>
      <trkpt lat="44.07078" lon="6.95277">
        <ele>1666.4000244141</ele>
        <time>2022-07-21T09:40:58.000Z</time>
      </trkpt>
      <trkpt lat="44.07079" lon="6.95284">
        <ele>1666.8000488281</ele>
        <time>2022-07-21T09:41:00.000Z</time>
      </trkpt>
      <trkpt lat="44.07079" lon="6.9529">
        <ele>1666.5999755859</ele>
        <time>2022-07-21T09:41:02.000Z</time>
      </trkpt>
      <trkpt lat="44.07075" lon="6.95302">
        <ele>1667.1999511719</ele>
        <time>2022-07-21T09:41:06.000Z</time>
      </trkpt>
      <trkpt lat="44.07074" lon="6.95311">
        <ele>1668</ele>
        <time>2022-07-21T09:41:09.000Z</time>
      </trkpt>
      <trkpt lat="44.07071" lon="6.95316">
        <ele>1668.4000244141</ele>
        <time>2022-07-21T09:41:11.000Z</time>
      </trkpt>
      <trkpt lat="44.07059" lon="6.95326">
        <ele>1668.5999755859</ele>
        <time>2022-07-21T09:41:16.000Z</time>
      </trkpt>
      <trkpt lat="44.07046" lon="6.95337">
        <ele>1669</ele>
        <time>2022-07-21T09:41:20.000Z</time>
      </trkpt>
      <trkpt lat="44.07043" lon="6.95339">
        <ele>1669.1999511719</ele>
        <time>2022-07-21T09:41:21.000Z</time>
      </trkpt>
      <trkpt lat="44.07039" lon="6.95342">
        <ele>1669.1999511719</ele>
        <time>2022-07-21T09:41:22.000Z</time>
      </trkpt>
      <trkpt lat="44.07026" lon="6.95355">
        <ele>1669.1999511719</ele>
        <time>2022-07-21T09:41:26.000Z</time>
      </trkpt>
      <trkpt lat="44.07008" lon="6.95373">
        <ele>1669.4000244141</ele>
        <time>2022-07-21T09:41:32.000Z</time>
      </trkpt>
      <trkpt lat="44.07" lon="6.95381">
        <ele>1670.4000244141</ele>
        <time>2022-07-21T09:41:35.000Z</time>
      </trkpt>
      <trkpt lat="44.06996" lon="6.95386">
        <ele>1670.8000488281</ele>
        <time>2022-07-21T09:41:36.000Z</time>
      </trkpt>
      <trkpt lat="44.06989" lon="6.95395">
        <ele>1671.5999755859</ele>
        <time>2022-07-21T09:41:38.000Z</time>
      </trkpt>
      <trkpt lat="44.06984" lon="6.954">
        <ele>1672.1999511719</ele>
        <time>2022-07-21T09:41:40.000Z</time>
      </trkpt>
      <trkpt lat="44.06979" lon="6.95409">
        <ele>1672.8000488281</ele>
        <time>2022-07-21T09:41:42.000Z</time>
      </trkpt>
      <trkpt lat="44.06975" lon="6.95419">
        <ele>1673.8000488281</ele>
        <time>2022-07-21T09:41:44.000Z</time>
      </trkpt>
      <trkpt lat="44.06973" lon="6.95423">
        <ele>1674.1999511719</ele>
        <time>2022-07-21T09:41:45.000Z</time>
      </trkpt>
      <trkpt lat="44.06969" lon="6.95432">
        <ele>1675.1999511719</ele>
        <time>2022-07-21T09:41:47.000Z</time>
      </trkpt>
      <trkpt lat="44.06964" lon="6.95446">
        <ele>1676.4000244141</ele>
        <time>2022-07-21T09:41:50.000Z</time>
      </trkpt>
      <trkpt lat="44.06962" lon="6.95451">
        <ele>1676.8000488281</ele>
        <time>2022-07-21T09:41:51.000Z</time>
      </trkpt>
      <trkpt lat="44.0696" lon="6.95458">
        <ele>1677.5999755859</ele>
        <time>2022-07-21T09:41:53.000Z</time>
      </trkpt>
      <trkpt lat="44.06958" lon="6.95467">
        <ele>1678</ele>
        <time>2022-07-21T09:41:55.000Z</time>
      </trkpt>
      <trkpt lat="44.06951" lon="6.95488">
        <ele>1677</ele>
        <time>2022-07-21T09:41:59.000Z</time>
      </trkpt>
      <trkpt lat="44.0695" lon="6.95494">
        <ele>1676.5999755859</ele>
        <time>2022-07-21T09:42:00.000Z</time>
      </trkpt>
      <trkpt lat="44.06948" lon="6.955">
        <ele>1676.4000244141</ele>
        <time>2022-07-21T09:42:01.000Z</time>
      </trkpt>
      <trkpt lat="44.06943" lon="6.95518">
        <ele>1675.8000488281</ele>
        <time>2022-07-21T09:42:04.000Z</time>
      </trkpt>
      <trkpt lat="44.06943" lon="6.95524">
        <ele>1675.8000488281</ele>
        <time>2022-07-21T09:42:05.000Z</time>
      </trkpt>
      <trkpt lat="44.06941" lon="6.9554">
        <ele>1674.8000488281</ele>
        <time>2022-07-21T09:42:07.000Z</time>
      </trkpt>
      <trkpt lat="44.06937" lon="6.9556">
        <ele>1673.1999511719</ele>
        <time>2022-07-21T09:42:10.000Z</time>
      </trkpt>
      <trkpt lat="44.06935" lon="6.95578">
        <ele>1672.1999511719</ele>
        <time>2022-07-21T09:42:12.000Z</time>
      </trkpt>
      <trkpt lat="44.06933" lon="6.95584">
        <ele>1671.5999755859</ele>
        <time>2022-07-21T09:42:13.000Z</time>
      </trkpt>
      <trkpt lat="44.06931" lon="6.9559">
        <ele>1671</ele>
        <time>2022-07-21T09:42:14.000Z</time>
      </trkpt>
      <trkpt lat="44.0693" lon="6.95604">
        <ele>1671.1999511719</ele>
        <time>2022-07-21T09:42:16.000Z</time>
      </trkpt>
      <trkpt lat="44.06928" lon="6.95617">
        <ele>1671.5999755859</ele>
        <time>2022-07-21T09:42:18.000Z</time>
      </trkpt>
      <trkpt lat="44.06927" lon="6.95629">
        <ele>1671.4000244141</ele>
        <time>2022-07-21T09:42:20.000Z</time>
      </trkpt>
      <trkpt lat="44.06925" lon="6.95647">
        <ele>1671.8000488281</ele>
        <time>2022-07-21T09:42:23.000Z</time>
      </trkpt>
      <trkpt lat="44.0692" lon="6.95655">
        <ele>1672.1999511719</ele>
        <time>2022-07-21T09:42:25.000Z</time>
      </trkpt>
      <trkpt lat="44.06912" lon="6.95661">
        <ele>1672.5999755859</ele>
        <time>2022-07-21T09:42:27.000Z</time>
      </trkpt>
      <trkpt lat="44.06905" lon="6.95674">
        <ele>1672.8000488281</ele>
        <time>2022-07-21T09:42:30.000Z</time>
      </trkpt>
      <trkpt lat="44.06903" lon="6.95678">
        <ele>1673</ele>
        <time>2022-07-21T09:42:31.000Z</time>
      </trkpt>
      <trkpt lat="44.06896" lon="6.95688">
        <ele>1673</ele>
        <time>2022-07-21T09:42:33.000Z</time>
      </trkpt>
      <trkpt lat="44.06891" lon="6.95695">
        <ele>1672.8000488281</ele>
        <time>2022-07-21T09:42:34.000Z</time>
      </trkpt>
      <trkpt lat="44.06881" lon="6.95704">
        <ele>1671.5999755859</ele>
        <time>2022-07-21T09:42:36.000Z</time>
      </trkpt>
      <trkpt lat="44.06877" lon="6.95707">
        <ele>1670.8000488281</ele>
        <time>2022-07-21T09:42:37.000Z</time>
      </trkpt>
      <trkpt lat="44.06872" lon="6.95712">
        <ele>1670.1999511719</ele>
        <time>2022-07-21T09:42:38.000Z</time>
      </trkpt>
      <trkpt lat="44.06864" lon="6.95719">
        <ele>1669.5999755859</ele>
        <time>2022-07-21T09:42:40.000Z</time>
      </trkpt>
      <trkpt lat="44.0686" lon="6.95724">
        <ele>1670</ele>
        <time>2022-07-21T09:42:41.000Z</time>
      </trkpt>
      <trkpt lat="44.06854" lon="6.95728">
        <ele>1670.4000244141</ele>
        <time>2022-07-21T09:42:42.000Z</time>
      </trkpt>
      <trkpt lat="44.06833" lon="6.95744">
        <ele>1669.1999511719</ele>
        <time>2022-07-21T09:42:46.000Z</time>
      </trkpt>
      <trkpt lat="44.06822" lon="6.95757">
        <ele>1667.5999755859</ele>
        <time>2022-07-21T09:42:48.000Z</time>
      </trkpt>
      <trkpt lat="44.06817" lon="6.95765">
        <ele>1666.4000244141</ele>
        <time>2022-07-21T09:42:49.000Z</time>
      </trkpt>
      <trkpt lat="44.06812" lon="6.9577">
        <ele>1665.1999511719</ele>
        <time>2022-07-21T09:42:50.000Z</time>
      </trkpt>
      <trkpt lat="44.06797" lon="6.9578">
        <ele>1663.8000488281</ele>
        <time>2022-07-21T09:42:52.000Z</time>
      </trkpt>
      <trkpt lat="44.06791" lon="6.95782">
        <ele>1663.1999511719</ele>
        <time>2022-07-21T09:42:53.000Z</time>
      </trkpt>
      <trkpt lat="44.06778" lon="6.95786">
        <ele>1663.1999511719</ele>
        <time>2022-07-21T09:42:55.000Z</time>
      </trkpt>
      <trkpt lat="44.06774" lon="6.95788">
        <ele>1662.8000488281</ele>
        <time>2022-07-21T09:42:56.000Z</time>
      </trkpt>
      <trkpt lat="44.0677" lon="6.95791">
        <ele>1662.4000244141</ele>
        <time>2022-07-21T09:42:57.000Z</time>
      </trkpt>
      <trkpt lat="44.06762" lon="6.95793">
        <ele>1662.5999755859</ele>
        <time>2022-07-21T09:42:59.000Z</time>
      </trkpt>
      <trkpt lat="44.06753" lon="6.95794">
        <ele>1663.8000488281</ele>
        <time>2022-07-21T09:43:02.000Z</time>
      </trkpt>
      <trkpt lat="44.06745" lon="6.95797">
        <ele>1665</ele>
        <time>2022-07-21T09:43:04.000Z</time>
      </trkpt>
      <trkpt lat="44.06736" lon="6.958">
        <ele>1665.5999755859</ele>
        <time>2022-07-21T09:43:06.000Z</time>
      </trkpt>
      <trkpt lat="44.06722" lon="6.95802">
        <ele>1666</ele>
        <time>2022-07-21T09:43:09.000Z</time>
      </trkpt>
      <trkpt lat="44.0672" lon="6.95801">
        <ele>1666.1999511719</ele>
        <time>2022-07-21T09:43:10.000Z</time>
      </trkpt>
      <trkpt lat="44.06705" lon="6.95808">
        <ele>1667.1999511719</ele>
        <time>2022-07-21T09:43:14.000Z</time>
      </trkpt>
      <trkpt lat="44.06696" lon="6.95816">
        <ele>1667.4000244141</ele>
        <time>2022-07-21T09:43:16.000Z</time>
      </trkpt>
      <trkpt lat="44.06692" lon="6.9582">
        <ele>1667.4000244141</ele>
        <time>2022-07-21T09:43:17.000Z</time>
      </trkpt>
      <trkpt lat="44.06682" lon="6.9583">
        <ele>1667</ele>
        <time>2022-07-21T09:43:19.000Z</time>
      </trkpt>
      <trkpt lat="44.06673" lon="6.95839">
        <ele>1666.4000244141</ele>
        <time>2022-07-21T09:43:21.000Z</time>
      </trkpt>
      <trkpt lat="44.06669" lon="6.95842">
        <ele>1666</ele>
        <time>2022-07-21T09:43:22.000Z</time>
      </trkpt>
      <trkpt lat="44.06665" lon="6.95848">
        <ele>1665.5999755859</ele>
        <time>2022-07-21T09:43:23.000Z</time>
      </trkpt>
      <trkpt lat="44.06657" lon="6.95858">
        <ele>1665.1999511719</ele>
        <time>2022-07-21T09:43:25.000Z</time>
      </trkpt>
      <trkpt lat="44.06653" lon="6.95863">
        <ele>1665.1999511719</ele>
        <time>2022-07-21T09:43:26.000Z</time>
      </trkpt>
      <trkpt lat="44.06648" lon="6.95867">
        <ele>1665</ele>
        <time>2022-07-21T09:43:27.000Z</time>
      </trkpt>
      <trkpt lat="44.06631" lon="6.95882">
        <ele>1664.4000244141</ele>
        <time>2022-07-21T09:43:31.000Z</time>
      </trkpt>
      <trkpt lat="44.06627" lon="6.95886">
        <ele>1664.4000244141</ele>
        <time>2022-07-21T09:43:32.000Z</time>
      </trkpt>
      <trkpt lat="44.06609" lon="6.95905">
        <ele>1664.1999511719</ele>
        <time>2022-07-21T09:43:36.000Z</time>
      </trkpt>
      <trkpt lat="44.06605" lon="6.9591">
        <ele>1664.1999511719</ele>
        <time>2022-07-21T09:43:37.000Z</time>
      </trkpt>
      <trkpt lat="44.06577" lon="6.95938">
        <ele>1663.5999755859</ele>
        <time>2022-07-21T09:43:43.000Z</time>
      </trkpt>
      <trkpt lat="44.06566" lon="6.95956">
        <ele>1663.5999755859</ele>
        <time>2022-07-21T09:43:46.000Z</time>
      </trkpt>
      <trkpt lat="44.06557" lon="6.95969">
        <ele>1663.5999755859</ele>
        <time>2022-07-21T09:43:48.000Z</time>
      </trkpt>
      <trkpt lat="44.06551" lon="6.95973">
        <ele>1663</ele>
        <time>2022-07-21T09:43:49.000Z</time>
      </trkpt>
      <trkpt lat="44.06539" lon="6.95981">
        <ele>1662.1999511719</ele>
        <time>2022-07-21T09:43:51.000Z</time>
      </trkpt>
      <trkpt lat="44.06534" lon="6.95985">
        <ele>1661.4000244141</ele>
        <time>2022-07-21T09:43:52.000Z</time>
      </trkpt>
      <trkpt lat="44.06532" lon="6.95987">
        <ele>1660.8000488281</ele>
        <time>2022-07-21T09:43:53.000Z</time>
      </trkpt>
      <trkpt lat="44.06532" lon="6.95987">
        <ele>1660.5999755859</ele>
        <time>2022-07-21T09:43:54.000Z</time>
      </trkpt>
      <trkpt lat="44.06532" lon="6.95987">
        <ele>1660.1999511719</ele>
        <time>2022-07-21T09:43:56.000Z</time>
      </trkpt>
      <trkpt lat="44.06532" lon="6.95987">
        <ele>1660.4000244141</ele>
        <time>2022-07-21T09:43:59.000Z</time>
      </trkpt>
      <trkpt lat="44.06529" lon="6.95987">
        <ele>1660.5999755859</ele>
        <time>2022-07-21T09:44:23.000Z</time>
      </trkpt>
      <trkpt lat="44.06528" lon="6.95986">
        <ele>1661</ele>
        <time>2022-07-21T09:44:53.000Z</time>
      </trkpt>
      <trkpt lat="44.06525" lon="6.9599">
        <ele>1661</ele>
        <time>2022-07-21T09:45:07.000Z</time>
      </trkpt>
      <trkpt lat="44.06519" lon="6.95998">
        <ele>1660.4000244141</ele>
        <time>2022-07-21T09:45:13.000Z</time>
      </trkpt>
      <trkpt lat="44.0652" lon="6.95999">
        <ele>1660.4000244141</ele>
        <time>2022-07-21T09:45:14.000Z</time>
      </trkpt>
      <trkpt lat="44.06521" lon="6.96">
        <ele>1660.1999511719</ele>
        <time>2022-07-21T09:45:17.000Z</time>
      </trkpt>
      <trkpt lat="44.06525" lon="6.95997">
        <ele>1659.8000488281</ele>
        <time>2022-07-21T09:45:20.000Z</time>
      </trkpt>
      <trkpt lat="44.06526" lon="6.96003">
        <ele>1660</ele>
        <time>2022-07-21T09:45:22.000Z</time>
      </trkpt>
      <trkpt lat="44.06525" lon="6.96014">
        <ele>1659.5999755859</ele>
        <time>2022-07-21T09:45:25.000Z</time>
      </trkpt>
      <trkpt lat="44.06524" lon="6.96017">
        <ele>1659</ele>
        <time>2022-07-21T09:45:26.000Z</time>
      </trkpt>
      <trkpt lat="44.06523" lon="6.9602">
        <ele>1657.1999511719</ele>
        <time>2022-07-21T09:45:28.000Z</time>
      </trkpt>
      <trkpt lat="44.0652" lon="6.96026">
        <ele>1655.5999755859</ele>
        <time>2022-07-21T09:45:30.000Z</time>
      </trkpt>
      <trkpt lat="44.06517" lon="6.9603">
        <ele>1654.4000244141</ele>
        <time>2022-07-21T09:45:33.000Z</time>
      </trkpt>
      <trkpt lat="44.06518" lon="6.96029">
        <ele>1654.1999511719</ele>
        <time>2022-07-21T09:45:34.000Z</time>
      </trkpt>
      <trkpt lat="44.06515" lon="6.96031">
        <ele>1653.5999755859</ele>
        <time>2022-07-21T09:45:50.000Z</time>
      </trkpt>
      <trkpt lat="44.06515" lon="6.96031">
        <ele>1654.4000244141</ele>
        <time>2022-07-21T09:45:54.000Z</time>
      </trkpt>
      <trkpt lat="44.06511" lon="6.96028">
        <ele>1655.1999511719</ele>
        <time>2022-07-21T09:45:59.000Z</time>
      </trkpt>
      <trkpt lat="44.0651" lon="6.96029">
        <ele>1655.1999511719</ele>
        <time>2022-07-21T09:46:00.000Z</time>
      </trkpt>
      <trkpt lat="44.06508" lon="6.9603">
        <ele>1655.5999755859</ele>
        <time>2022-07-21T09:46:01.000Z</time>
      </trkpt>
      <trkpt lat="44.06505" lon="6.96037">
        <ele>1655.8000488281</ele>
        <time>2022-07-21T09:46:03.000Z</time>
      </trkpt>
      <trkpt lat="44.06502" lon="6.96048">
        <ele>1655.1999511719</ele>
        <time>2022-07-21T09:46:06.000Z</time>
      </trkpt>
      <trkpt lat="44.065" lon="6.96049">
        <ele>1654.1999511719</ele>
        <time>2022-07-21T09:46:08.000Z</time>
      </trkpt>
      <trkpt lat="44.06497" lon="6.96053">
        <ele>1653.4000244141</ele>
        <time>2022-07-21T09:46:10.000Z</time>
      </trkpt>
      <trkpt lat="44.06495" lon="6.96057">
        <ele>1653</ele>
        <time>2022-07-21T09:46:11.000Z</time>
      </trkpt>
      <trkpt lat="44.06492" lon="6.96057">
        <ele>1652.4000244141</ele>
        <time>2022-07-21T09:46:12.000Z</time>
      </trkpt>
      <trkpt lat="44.06491" lon="6.96058">
        <ele>1652</ele>
        <time>2022-07-21T09:46:13.000Z</time>
      </trkpt>
      <trkpt lat="44.06488" lon="6.96061">
        <ele>1651.1999511719</ele>
        <time>2022-07-21T09:46:15.000Z</time>
      </trkpt>
      <trkpt lat="44.06488" lon="6.96063">
        <ele>1650.4000244141</ele>
        <time>2022-07-21T09:46:16.000Z</time>
      </trkpt>
      <trkpt lat="44.06491" lon="6.96068">
        <ele>1649.4000244141</ele>
        <time>2022-07-21T09:46:18.000Z</time>
      </trkpt>
      <trkpt lat="44.0649" lon="6.96072">
        <ele>1648.8000488281</ele>
        <time>2022-07-21T09:46:19.000Z</time>
      </trkpt>
      <trkpt lat="44.06487" lon="6.96079">
        <ele>1648</ele>
        <time>2022-07-21T09:46:21.000Z</time>
      </trkpt>
      <trkpt lat="44.06488" lon="6.96081">
        <ele>1647.8000488281</ele>
        <time>2022-07-21T09:46:22.000Z</time>
      </trkpt>
      <trkpt lat="44.06491" lon="6.96086">
        <ele>1646.8000488281</ele>
        <time>2022-07-21T09:46:24.000Z</time>
      </trkpt>
      <trkpt lat="44.06486" lon="6.96091">
        <ele>1645.4000244141</ele>
        <time>2022-07-21T09:46:26.000Z</time>
      </trkpt>
      <trkpt lat="44.06484" lon="6.96093">
        <ele>1644.8000488281</ele>
        <time>2022-07-21T09:46:27.000Z</time>
      </trkpt>
      <trkpt lat="44.06483" lon="6.96098">
        <ele>1644</ele>
        <time>2022-07-21T09:46:28.000Z</time>
      </trkpt>
      <trkpt lat="44.06481" lon="6.96104">
        <ele>1643</ele>
        <time>2022-07-21T09:46:30.000Z</time>
      </trkpt>
      <trkpt lat="44.0648" lon="6.96107">
        <ele>1642.4000244141</ele>
        <time>2022-07-21T09:46:31.000Z</time>
      </trkpt>
      <trkpt lat="44.06481" lon="6.96108">
        <ele>1642.1999511719</ele>
        <time>2022-07-21T09:46:32.000Z</time>
      </trkpt>
      <trkpt lat="44.06484" lon="6.96111">
        <ele>1641.1999511719</ele>
        <time>2022-07-21T09:46:34.000Z</time>
      </trkpt>
      <trkpt lat="44.06486" lon="6.96117">
        <ele>1640.5999755859</ele>
        <time>2022-07-21T09:46:36.000Z</time>
      </trkpt>
      <trkpt lat="44.06482" lon="6.96119">
        <ele>1639.5999755859</ele>
        <time>2022-07-21T09:46:37.000Z</time>
      </trkpt>
      <trkpt lat="44.06475" lon="6.96121">
        <ele>1637.8000488281</ele>
        <time>2022-07-21T09:46:39.000Z</time>
      </trkpt>
      <trkpt lat="44.06474" lon="6.96122">
        <ele>1636.8000488281</ele>
        <time>2022-07-21T09:46:41.000Z</time>
      </trkpt>
      <trkpt lat="44.06473" lon="6.96134">
        <ele>1637.5999755859</ele>
        <time>2022-07-21T09:46:45.000Z</time>
      </trkpt>
      <trkpt lat="44.06472" lon="6.96137">
        <ele>1636.5999755859</ele>
        <time>2022-07-21T09:46:48.000Z</time>
      </trkpt>
      <trkpt lat="44.06472" lon="6.96137">
        <ele>1636.1999511719</ele>
        <time>2022-07-21T09:46:49.000Z</time>
      </trkpt>
      <trkpt lat="44.06472" lon="6.96137">
        <ele>1635.4000244141</ele>
        <time>2022-07-21T09:46:51.000Z</time>
      </trkpt>
      <trkpt lat="44.06473" lon="6.96138">
        <ele>1635</ele>
        <time>2022-07-21T09:47:04.000Z</time>
      </trkpt>
      <trkpt lat="44.06469" lon="6.96145">
        <ele>1634.8000488281</ele>
        <time>2022-07-21T09:47:09.000Z</time>
      </trkpt>
      <trkpt lat="44.06467" lon="6.96146">
        <ele>1634.8000488281</ele>
        <time>2022-07-21T09:47:10.000Z</time>
      </trkpt>
      <trkpt lat="44.06464" lon="6.96145">
        <ele>1634.8000488281</ele>
        <time>2022-07-21T09:47:13.000Z</time>
      </trkpt>
      <trkpt lat="44.06458" lon="6.96145">
        <ele>1636.4000244141</ele>
        <time>2022-07-21T09:47:17.000Z</time>
      </trkpt>
      <trkpt lat="44.06452" lon="6.96151">
        <ele>1636</ele>
        <time>2022-07-21T09:47:21.000Z</time>
      </trkpt>
      <trkpt lat="44.0645" lon="6.96159">
        <ele>1635.4000244141</ele>
        <time>2022-07-21T09:47:23.000Z</time>
      </trkpt>
      <trkpt lat="44.06449" lon="6.96164">
        <ele>1635.1999511719</ele>
        <time>2022-07-21T09:47:24.000Z</time>
      </trkpt>
      <trkpt lat="44.06447" lon="6.96167">
        <ele>1634.8000488281</ele>
        <time>2022-07-21T09:47:26.000Z</time>
      </trkpt>
      <trkpt lat="44.06447" lon="6.96166">
        <ele>1633.8000488281</ele>
        <time>2022-07-21T09:47:28.000Z</time>
      </trkpt>
      <trkpt lat="44.06447" lon="6.96166">
        <ele>1633.4000244141</ele>
        <time>2022-07-21T09:47:31.000Z</time>
      </trkpt>
      <trkpt lat="44.06443" lon="6.96175">
        <ele>1633.4000244141</ele>
        <time>2022-07-21T09:47:39.000Z</time>
      </trkpt>
      <trkpt lat="44.06437" lon="6.96187">
        <ele>1632.8000488281</ele>
        <time>2022-07-21T09:47:43.000Z</time>
      </trkpt>
      <trkpt lat="44.06437" lon="6.96191">
        <ele>1632.4000244141</ele>
        <time>2022-07-21T09:47:44.000Z</time>
      </trkpt>
      <trkpt lat="44.06437" lon="6.96195">
        <ele>1631.5999755859</ele>
        <time>2022-07-21T09:47:46.000Z</time>
      </trkpt>
      <trkpt lat="44.06436" lon="6.96198">
        <ele>1631</ele>
        <time>2022-07-21T09:47:48.000Z</time>
      </trkpt>
      <trkpt lat="44.06434" lon="6.96202">
        <ele>1631</ele>
        <time>2022-07-21T09:47:52.000Z</time>
      </trkpt>
      <trkpt lat="44.06436" lon="6.96205">
        <ele>1630.4000244141</ele>
        <time>2022-07-21T09:47:53.000Z</time>
      </trkpt>
      <trkpt lat="44.06438" lon="6.96207">
        <ele>1628.5999755859</ele>
        <time>2022-07-21T09:47:55.000Z</time>
      </trkpt>
      <trkpt lat="44.06438" lon="6.96209">
        <ele>1627.5999755859</ele>
        <time>2022-07-21T09:47:57.000Z</time>
      </trkpt>
      <trkpt lat="44.06437" lon="6.96212">
        <ele>1627.1999511719</ele>
        <time>2022-07-21T09:47:58.000Z</time>
      </trkpt>
      <trkpt lat="44.06438" lon="6.96214">
        <ele>1627</ele>
        <time>2022-07-21T09:47:59.000Z</time>
      </trkpt>
      <trkpt lat="44.06443" lon="6.96219">
        <ele>1626.4000244141</ele>
        <time>2022-07-21T09:48:01.000Z</time>
      </trkpt>
      <trkpt lat="44.06445" lon="6.96224">
        <ele>1625</ele>
        <time>2022-07-21T09:48:03.000Z</time>
      </trkpt>
      <trkpt lat="44.06448" lon="6.96225">
        <ele>1624.1999511719</ele>
        <time>2022-07-21T09:48:04.000Z</time>
      </trkpt>
      <trkpt lat="44.0645" lon="6.9623">
        <ele>1623.5999755859</ele>
        <time>2022-07-21T09:48:05.000Z</time>
      </trkpt>
      <trkpt lat="44.06451" lon="6.96232">
        <ele>1623</ele>
        <time>2022-07-21T09:48:06.000Z</time>
      </trkpt>
      <trkpt lat="44.06452" lon="6.96236">
        <ele>1622.5999755859</ele>
        <time>2022-07-21T09:48:07.000Z</time>
      </trkpt>
      <trkpt lat="44.06454" lon="6.96241">
        <ele>1621</ele>
        <time>2022-07-21T09:48:09.000Z</time>
      </trkpt>
      <trkpt lat="44.06454" lon="6.96248">
        <ele>1619.4000244141</ele>
        <time>2022-07-21T09:48:11.000Z</time>
      </trkpt>
      <trkpt lat="44.06455" lon="6.96251">
        <ele>1618.4000244141</ele>
        <time>2022-07-21T09:48:12.000Z</time>
      </trkpt>
      <trkpt lat="44.06456" lon="6.96252">
        <ele>1617.8000488281</ele>
        <time>2022-07-21T09:48:13.000Z</time>
      </trkpt>
      <trkpt lat="44.06458" lon="6.96254">
        <ele>1617</ele>
        <time>2022-07-21T09:48:14.000Z</time>
      </trkpt>
      <trkpt lat="44.06459" lon="6.96258">
        <ele>1616.4000244141</ele>
        <time>2022-07-21T09:48:15.000Z</time>
      </trkpt>
      <trkpt lat="44.06465" lon="6.96261">
        <ele>1615</ele>
        <time>2022-07-21T09:48:17.000Z</time>
      </trkpt>
      <trkpt lat="44.06469" lon="6.96261">
        <ele>1614.1999511719</ele>
        <time>2022-07-21T09:48:18.000Z</time>
      </trkpt>
      <trkpt lat="44.06471" lon="6.9626">
        <ele>1613.1999511719</ele>
        <time>2022-07-21T09:48:19.000Z</time>
      </trkpt>
      <trkpt lat="44.06473" lon="6.96258">
        <ele>1612.5999755859</ele>
        <time>2022-07-21T09:48:20.000Z</time>
      </trkpt>
      <trkpt lat="44.06477" lon="6.96252">
        <ele>1611.4000244141</ele>
        <time>2022-07-21T09:48:21.000Z</time>
      </trkpt>
      <trkpt lat="44.06478" lon="6.96248">
        <ele>1610.1999511719</ele>
        <time>2022-07-21T09:48:22.000Z</time>
      </trkpt>
      <trkpt lat="44.06479" lon="6.96245">
        <ele>1609.1999511719</ele>
        <time>2022-07-21T09:48:23.000Z</time>
      </trkpt>
      <trkpt lat="44.06483" lon="6.96242">
        <ele>1608.5999755859</ele>
        <time>2022-07-21T09:48:24.000Z</time>
      </trkpt>
      <trkpt lat="44.06485" lon="6.96241">
        <ele>1608.1999511719</ele>
        <time>2022-07-21T09:48:25.000Z</time>
      </trkpt>
      <trkpt lat="44.06487" lon="6.96241">
        <ele>1607.8000488281</ele>
        <time>2022-07-21T09:48:26.000Z</time>
      </trkpt>
      <trkpt lat="44.06494" lon="6.96234">
        <ele>1607</ele>
        <time>2022-07-21T09:48:29.000Z</time>
      </trkpt>
      <trkpt lat="44.06496" lon="6.96232">
        <ele>1606.5999755859</ele>
        <time>2022-07-21T09:48:30.000Z</time>
      </trkpt>
      <trkpt lat="44.06501" lon="6.96229">
        <ele>1606</ele>
        <time>2022-07-21T09:48:32.000Z</time>
      </trkpt>
      <trkpt lat="44.06505" lon="6.96232">
        <ele>1605.5999755859</ele>
        <time>2022-07-21T09:48:34.000Z</time>
      </trkpt>
      <trkpt lat="44.0651" lon="6.96237">
        <ele>1604.8000488281</ele>
        <time>2022-07-21T09:48:36.000Z</time>
      </trkpt>
      <trkpt lat="44.06512" lon="6.96238">
        <ele>1604.1999511719</ele>
        <time>2022-07-21T09:48:37.000Z</time>
      </trkpt>
      <trkpt lat="44.06517" lon="6.96235">
        <ele>1603.4000244141</ele>
        <time>2022-07-21T09:48:38.000Z</time>
      </trkpt>
      <trkpt lat="44.0652" lon="6.96229">
        <ele>1602.5999755859</ele>
        <time>2022-07-21T09:48:39.000Z</time>
      </trkpt>
      <trkpt lat="44.06525" lon="6.96229">
        <ele>1601.8000488281</ele>
        <time>2022-07-21T09:48:40.000Z</time>
      </trkpt>
      <trkpt lat="44.06529" lon="6.96236">
        <ele>1600.8000488281</ele>
        <time>2022-07-21T09:48:41.000Z</time>
      </trkpt>
      <trkpt lat="44.06528" lon="6.96243">
        <ele>1599.5999755859</ele>
        <time>2022-07-21T09:48:42.000Z</time>
      </trkpt>
      <trkpt lat="44.06526" lon="6.96246">
        <ele>1598.5999755859</ele>
        <time>2022-07-21T09:48:43.000Z</time>
      </trkpt>
      <trkpt lat="44.06526" lon="6.96245">
        <ele>1596.8000488281</ele>
        <time>2022-07-21T09:48:45.000Z</time>
      </trkpt>
      <trkpt lat="44.06526" lon="6.96246">
        <ele>1596.1999511719</ele>
        <time>2022-07-21T09:48:46.000Z</time>
      </trkpt>
      <trkpt lat="44.06526" lon="6.96246">
        <ele>1595.5999755859</ele>
        <time>2022-07-21T09:48:48.000Z</time>
      </trkpt>
      <trkpt lat="44.06524" lon="6.96244">
        <ele>1595.8000488281</ele>
        <time>2022-07-21T09:48:58.000Z</time>
      </trkpt>
      <trkpt lat="44.06521" lon="6.96252">
        <ele>1595.8000488281</ele>
        <time>2022-07-21T09:49:03.000Z</time>
      </trkpt>
      <trkpt lat="44.0652" lon="6.96257">
        <ele>1595.4000244141</ele>
        <time>2022-07-21T09:49:06.000Z</time>
      </trkpt>
      <trkpt lat="44.06522" lon="6.96259">
        <ele>1595</ele>
        <time>2022-07-21T09:49:07.000Z</time>
      </trkpt>
      <trkpt lat="44.06523" lon="6.9626">
        <ele>1594.4000244141</ele>
        <time>2022-07-21T09:49:09.000Z</time>
      </trkpt>
      <trkpt lat="44.06525" lon="6.9626">
        <ele>1594</ele>
        <time>2022-07-21T09:49:10.000Z</time>
      </trkpt>
      <trkpt lat="44.06525" lon="6.96261">
        <ele>1593.5999755859</ele>
        <time>2022-07-21T09:49:11.000Z</time>
      </trkpt>
      <trkpt lat="44.06529" lon="6.9626">
        <ele>1593</ele>
        <time>2022-07-21T09:49:12.000Z</time>
      </trkpt>
      <trkpt lat="44.06532" lon="6.96255">
        <ele>1592.4000244141</ele>
        <time>2022-07-21T09:49:13.000Z</time>
      </trkpt>
      <trkpt lat="44.06535" lon="6.96253">
        <ele>1591.5999755859</ele>
        <time>2022-07-21T09:49:14.000Z</time>
      </trkpt>
      <trkpt lat="44.06538" lon="6.9625">
        <ele>1589.5999755859</ele>
        <time>2022-07-21T09:49:16.000Z</time>
      </trkpt>
      <trkpt lat="44.06541" lon="6.9625">
        <ele>1588.8000488281</ele>
        <time>2022-07-21T09:49:18.000Z</time>
      </trkpt>
      <trkpt lat="44.06542" lon="6.96251">
        <ele>1588.5999755859</ele>
        <time>2022-07-21T09:49:19.000Z</time>
      </trkpt>
      <trkpt lat="44.06542" lon="6.96257">
        <ele>1587.5999755859</ele>
        <time>2022-07-21T09:49:21.000Z</time>
      </trkpt>
      <trkpt lat="44.06541" lon="6.96258">
        <ele>1587</ele>
        <time>2022-07-21T09:49:22.000Z</time>
      </trkpt>
      <trkpt lat="44.06542" lon="6.96257">
        <ele>1585.8000488281</ele>
        <time>2022-07-21T09:49:24.000Z</time>
      </trkpt>
      <trkpt lat="44.06541" lon="6.96258">
        <ele>1585.1999511719</ele>
        <time>2022-07-21T09:49:25.000Z</time>
      </trkpt>
      <trkpt lat="44.06541" lon="6.96257">
        <ele>1584.8000488281</ele>
        <time>2022-07-21T09:49:28.000Z</time>
      </trkpt>
      <trkpt lat="44.0654" lon="6.9626">
        <ele>1584.8000488281</ele>
        <time>2022-07-21T09:49:32.000Z</time>
      </trkpt>
      <trkpt lat="44.0654" lon="6.96262">
        <ele>1585.1999511719</ele>
        <time>2022-07-21T09:49:36.000Z</time>
      </trkpt>
      <trkpt lat="44.0654" lon="6.96265">
        <ele>1585.4000244141</ele>
        <time>2022-07-21T09:49:38.000Z</time>
      </trkpt>
      <trkpt lat="44.06541" lon="6.96275">
        <ele>1584.8000488281</ele>
        <time>2022-07-21T09:49:41.000Z</time>
      </trkpt>
      <trkpt lat="44.06536" lon="6.96281">
        <ele>1583.5999755859</ele>
        <time>2022-07-21T09:49:43.000Z</time>
      </trkpt>
      <trkpt lat="44.06536" lon="6.96286">
        <ele>1583</ele>
        <time>2022-07-21T09:49:44.000Z</time>
      </trkpt>
      <trkpt lat="44.06535" lon="6.96291">
        <ele>1582.5999755859</ele>
        <time>2022-07-21T09:49:45.000Z</time>
      </trkpt>
      <trkpt lat="44.06535" lon="6.963">
        <ele>1581.1999511719</ele>
        <time>2022-07-21T09:49:47.000Z</time>
      </trkpt>
      <trkpt lat="44.06536" lon="6.96302">
        <ele>1580.5999755859</ele>
        <time>2022-07-21T09:49:48.000Z</time>
      </trkpt>
      <trkpt lat="44.06536" lon="6.96306">
        <ele>1580</ele>
        <time>2022-07-21T09:49:49.000Z</time>
      </trkpt>
      <trkpt lat="44.0654" lon="6.96311">
        <ele>1578.4000244141</ele>
        <time>2022-07-21T09:49:51.000Z</time>
      </trkpt>
      <trkpt lat="44.06543" lon="6.9631">
        <ele>1577.5999755859</ele>
        <time>2022-07-21T09:49:52.000Z</time>
      </trkpt>
      <trkpt lat="44.06547" lon="6.96309">
        <ele>1577</ele>
        <time>2022-07-21T09:49:53.000Z</time>
      </trkpt>
      <trkpt lat="44.06552" lon="6.96311">
        <ele>1576</ele>
        <time>2022-07-21T09:49:54.000Z</time>
      </trkpt>
      <trkpt lat="44.06554" lon="6.96315">
        <ele>1575</ele>
        <time>2022-07-21T09:49:55.000Z</time>
      </trkpt>
      <trkpt lat="44.06553" lon="6.9632">
        <ele>1574</ele>
        <time>2022-07-21T09:49:56.000Z</time>
      </trkpt>
      <trkpt lat="44.06552" lon="6.96323">
        <ele>1573</ele>
        <time>2022-07-21T09:49:57.000Z</time>
      </trkpt>
      <trkpt lat="44.06553" lon="6.96328">
        <ele>1572.1999511719</ele>
        <time>2022-07-21T09:49:58.000Z</time>
      </trkpt>
      <trkpt lat="44.06554" lon="6.96331">
        <ele>1571</ele>
        <time>2022-07-21T09:50:00.000Z</time>
      </trkpt>
      <trkpt lat="44.06553" lon="6.96331">
        <ele>1570.1999511719</ele>
        <time>2022-07-21T09:50:07.000Z</time>
      </trkpt>
      <trkpt lat="44.06553" lon="6.9633">
        <ele>1570.1999511719</ele>
        <time>2022-07-21T09:50:21.000Z</time>
      </trkpt>
      <trkpt lat="44.06554" lon="6.96329">
        <ele>1570.4000244141</ele>
        <time>2022-07-21T09:50:45.000Z</time>
      </trkpt>
      <trkpt lat="44.06555" lon="6.96328">
        <ele>1570.4000244141</ele>
        <time>2022-07-21T09:50:47.000Z</time>
      </trkpt>
      <trkpt lat="44.06559" lon="6.9633">
        <ele>1570.5999755859</ele>
        <time>2022-07-21T09:50:49.000Z</time>
      </trkpt>
      <trkpt lat="44.06561" lon="6.96331">
        <ele>1570</ele>
        <time>2022-07-21T09:50:51.000Z</time>
      </trkpt>
      <trkpt lat="44.06563" lon="6.96329">
        <ele>1569.5999755859</ele>
        <time>2022-07-21T09:50:52.000Z</time>
      </trkpt>
      <trkpt lat="44.06566" lon="6.96328">
        <ele>1569.1999511719</ele>
        <time>2022-07-21T09:50:53.000Z</time>
      </trkpt>
      <trkpt lat="44.06572" lon="6.96324">
        <ele>1568.1999511719</ele>
        <time>2022-07-21T09:50:55.000Z</time>
      </trkpt>
      <trkpt lat="44.0658" lon="6.96319">
        <ele>1567</ele>
        <time>2022-07-21T09:50:57.000Z</time>
      </trkpt>
      <trkpt lat="44.06583" lon="6.96317">
        <ele>1565.1999511719</ele>
        <time>2022-07-21T09:50:59.000Z</time>
      </trkpt>
      <trkpt lat="44.06582" lon="6.96318">
        <ele>1564.4000244141</ele>
        <time>2022-07-21T09:51:00.000Z</time>
      </trkpt>
      <trkpt lat="44.06583" lon="6.96317">
        <ele>1563.5999755859</ele>
        <time>2022-07-21T09:51:01.000Z</time>
      </trkpt>
      <trkpt lat="44.06583" lon="6.96317">
        <ele>1563</ele>
        <time>2022-07-21T09:51:07.000Z</time>
      </trkpt>
      <trkpt lat="44.06583" lon="6.96318">
        <ele>1562.8000488281</ele>
        <time>2022-07-21T09:51:26.000Z</time>
      </trkpt>
      <trkpt lat="44.06591" lon="6.96313">
        <ele>1562.8000488281</ele>
        <time>2022-07-21T09:51:30.000Z</time>
      </trkpt>
      <trkpt lat="44.06601" lon="6.96306">
        <ele>1562.5999755859</ele>
        <time>2022-07-21T09:51:33.000Z</time>
      </trkpt>
      <trkpt lat="44.06608" lon="6.96301">
        <ele>1561.8000488281</ele>
        <time>2022-07-21T09:51:35.000Z</time>
      </trkpt>
      <trkpt lat="44.0661" lon="6.963">
        <ele>1561.4000244141</ele>
        <time>2022-07-21T09:51:36.000Z</time>
      </trkpt>
      <trkpt lat="44.0662" lon="6.96298">
        <ele>1560.8000488281</ele>
        <time>2022-07-21T09:51:38.000Z</time>
      </trkpt>
      <trkpt lat="44.06624" lon="6.96296">
        <ele>1560.1999511719</ele>
        <time>2022-07-21T09:51:39.000Z</time>
      </trkpt>
      <trkpt lat="44.06627" lon="6.96293">
        <ele>1559</ele>
        <time>2022-07-21T09:51:41.000Z</time>
      </trkpt>
      <trkpt lat="44.0663" lon="6.96291">
        <ele>1557.8000488281</ele>
        <time>2022-07-21T09:51:43.000Z</time>
      </trkpt>
      <trkpt lat="44.06638" lon="6.96288">
        <ele>1556.8000488281</ele>
        <time>2022-07-21T09:51:45.000Z</time>
      </trkpt>
      <trkpt lat="44.0664" lon="6.96284">
        <ele>1556.4000244141</ele>
        <time>2022-07-21T09:51:46.000Z</time>
      </trkpt>
      <trkpt lat="44.06644" lon="6.96279">
        <ele>1555.4000244141</ele>
        <time>2022-07-21T09:51:48.000Z</time>
      </trkpt>
      <trkpt lat="44.06648" lon="6.9628">
        <ele>1555.4000244141</ele>
        <time>2022-07-21T09:51:49.000Z</time>
      </trkpt>
      <trkpt lat="44.06658" lon="6.96283">
        <ele>1555.4000244141</ele>
        <time>2022-07-21T09:51:51.000Z</time>
      </trkpt>
      <trkpt lat="44.06677" lon="6.96268">
        <ele>1554</ele>
        <time>2022-07-21T09:51:54.000Z</time>
      </trkpt>
      <trkpt lat="44.06682" lon="6.96262">
        <ele>1552.8000488281</ele>
        <time>2022-07-21T09:51:55.000Z</time>
      </trkpt>
      <trkpt lat="44.06687" lon="6.9625">
        <ele>1551</ele>
        <time>2022-07-21T09:51:57.000Z</time>
      </trkpt>
      <trkpt lat="44.06692" lon="6.96249">
        <ele>1550.5999755859</ele>
        <time>2022-07-21T09:51:58.000Z</time>
      </trkpt>
      <trkpt lat="44.06699" lon="6.9625">
        <ele>1550.4000244141</ele>
        <time>2022-07-21T09:51:59.000Z</time>
      </trkpt>
      <trkpt lat="44.06705" lon="6.9624">
        <ele>1548.8000488281</ele>
        <time>2022-07-21T09:52:01.000Z</time>
      </trkpt>
      <trkpt lat="44.06714" lon="6.96235">
        <ele>1547.1999511719</ele>
        <time>2022-07-21T09:52:03.000Z</time>
      </trkpt>
      <trkpt lat="44.06718" lon="6.96233">
        <ele>1546.1999511719</ele>
        <time>2022-07-21T09:52:04.000Z</time>
      </trkpt>
      <trkpt lat="44.0673" lon="6.96225">
        <ele>1545</ele>
        <time>2022-07-21T09:52:06.000Z</time>
      </trkpt>
      <trkpt lat="44.06736" lon="6.96223">
        <ele>1544.4000244141</ele>
        <time>2022-07-21T09:52:07.000Z</time>
      </trkpt>
      <trkpt lat="44.06742" lon="6.96222">
        <ele>1543.4000244141</ele>
        <time>2022-07-21T09:52:08.000Z</time>
      </trkpt>
      <trkpt lat="44.06753" lon="6.96219">
        <ele>1541.8000488281</ele>
        <time>2022-07-21T09:52:10.000Z</time>
      </trkpt>
      <trkpt lat="44.06763" lon="6.96218">
        <ele>1540.1999511719</ele>
        <time>2022-07-21T09:52:12.000Z</time>
      </trkpt>
      <trkpt lat="44.0677" lon="6.96217">
        <ele>1538.4000244141</ele>
        <time>2022-07-21T09:52:14.000Z</time>
      </trkpt>
      <trkpt lat="44.06771" lon="6.96221">
        <ele>1537.8000488281</ele>
        <time>2022-07-21T09:52:15.000Z</time>
      </trkpt>
      <trkpt lat="44.06775" lon="6.96225">
        <ele>1537.1999511719</ele>
        <time>2022-07-21T09:52:16.000Z</time>
      </trkpt>
      <trkpt lat="44.06777" lon="6.96226">
        <ele>1535.4000244141</ele>
        <time>2022-07-21T09:52:18.000Z</time>
      </trkpt>
      <trkpt lat="44.06777" lon="6.96226">
        <ele>1533.5999755859</ele>
        <time>2022-07-21T09:52:20.000Z</time>
      </trkpt>
      <trkpt lat="44.06776" lon="6.96226">
        <ele>1532.4000244141</ele>
        <time>2022-07-21T09:52:22.000Z</time>
      </trkpt>
      <trkpt lat="44.06776" lon="6.96225">
        <ele>1532.1999511719</ele>
        <time>2022-07-21T09:52:23.000Z</time>
      </trkpt>
      <trkpt lat="44.06775" lon="6.96226">
        <ele>1532.1999511719</ele>
        <time>2022-07-21T09:52:28.000Z</time>
      </trkpt>
      <trkpt lat="44.06775" lon="6.96224">
        <ele>1532</ele>
        <time>2022-07-21T09:52:33.000Z</time>
      </trkpt>
      <trkpt lat="44.06776" lon="6.96224">
        <ele>1532.5999755859</ele>
        <time>2022-07-21T09:52:41.000Z</time>
      </trkpt>
      <trkpt lat="44.06777" lon="6.96225">
        <ele>1532.5999755859</ele>
        <time>2022-07-21T09:52:48.000Z</time>
      </trkpt>
      <trkpt lat="44.06778" lon="6.96224">
        <ele>1533.1999511719</ele>
        <time>2022-07-21T09:52:53.000Z</time>
      </trkpt>
      <trkpt lat="44.06779" lon="6.96225">
        <ele>1532.8000488281</ele>
        <time>2022-07-21T09:52:57.000Z</time>
      </trkpt>
      <trkpt lat="44.0678" lon="6.96226">
        <ele>1532.8000488281</ele>
        <time>2022-07-21T09:53:07.000Z</time>
      </trkpt>
      <trkpt lat="44.0678" lon="6.96226">
        <ele>1532.5999755859</ele>
        <time>2022-07-21T09:53:12.000Z</time>
      </trkpt>
      <trkpt lat="44.0678" lon="6.96227">
        <ele>1533.4000244141</ele>
        <time>2022-07-21T09:53:17.000Z</time>
      </trkpt>
      <trkpt lat="44.06781" lon="6.96227">
        <ele>1533.5999755859</ele>
        <time>2022-07-21T09:53:19.000Z</time>
      </trkpt>
      <trkpt lat="44.06782" lon="6.96228">
        <ele>1533.1999511719</ele>
        <time>2022-07-21T09:53:27.000Z</time>
      </trkpt>
      <trkpt lat="44.06784" lon="6.96227">
        <ele>1533.4000244141</ele>
        <time>2022-07-21T09:53:31.000Z</time>
      </trkpt>
      <trkpt lat="44.06791" lon="6.96226">
        <ele>1533</ele>
        <time>2022-07-21T09:53:36.000Z</time>
      </trkpt>
      <trkpt lat="44.06805" lon="6.96221">
        <ele>1532.5999755859</ele>
        <time>2022-07-21T09:53:39.000Z</time>
      </trkpt>
      <trkpt lat="44.06811" lon="6.96219">
        <ele>1532</ele>
        <time>2022-07-21T09:53:40.000Z</time>
      </trkpt>
      <trkpt lat="44.06824" lon="6.96211">
        <ele>1530.4000244141</ele>
        <time>2022-07-21T09:53:42.000Z</time>
      </trkpt>
      <trkpt lat="44.06831" lon="6.96209">
        <ele>1529.1999511719</ele>
        <time>2022-07-21T09:53:43.000Z</time>
      </trkpt>
      <trkpt lat="44.06838" lon="6.96209">
        <ele>1527.5999755859</ele>
        <time>2022-07-21T09:53:44.000Z</time>
      </trkpt>
      <trkpt lat="44.06844" lon="6.96207">
        <ele>1526.5999755859</ele>
        <time>2022-07-21T09:53:45.000Z</time>
      </trkpt>
      <trkpt lat="44.06856" lon="6.96202">
        <ele>1524.5999755859</ele>
        <time>2022-07-21T09:53:47.000Z</time>
      </trkpt>
      <trkpt lat="44.06866" lon="6.96193">
        <ele>1522.5999755859</ele>
        <time>2022-07-21T09:53:49.000Z</time>
      </trkpt>
      <trkpt lat="44.0687" lon="6.96189">
        <ele>1521</ele>
        <time>2022-07-21T09:53:50.000Z</time>
      </trkpt>
      <trkpt lat="44.06871" lon="6.96184">
        <ele>1520</ele>
        <time>2022-07-21T09:53:51.000Z</time>
      </trkpt>
      <trkpt lat="44.06875" lon="6.96183">
        <ele>1519</ele>
        <time>2022-07-21T09:53:52.000Z</time>
      </trkpt>
      <trkpt lat="44.06878" lon="6.96179">
        <ele>1518.4000244141</ele>
        <time>2022-07-21T09:53:53.000Z</time>
      </trkpt>
      <trkpt lat="44.06885" lon="6.96174">
        <ele>1517.1999511719</ele>
        <time>2022-07-21T09:53:55.000Z</time>
      </trkpt>
      <trkpt lat="44.06891" lon="6.96174">
        <ele>1515.5999755859</ele>
        <time>2022-07-21T09:53:57.000Z</time>
      </trkpt>
      <trkpt lat="44.06893" lon="6.96175">
        <ele>1514.4000244141</ele>
        <time>2022-07-21T09:53:58.000Z</time>
      </trkpt>
      <trkpt lat="44.06892" lon="6.96175">
        <ele>1512.4000244141</ele>
        <time>2022-07-21T09:54:00.000Z</time>
      </trkpt>
      <trkpt lat="44.06892" lon="6.96174">
        <ele>1511.4000244141</ele>
        <time>2022-07-21T09:54:02.000Z</time>
      </trkpt>
      <trkpt lat="44.06891" lon="6.96173">
        <ele>1511.4000244141</ele>
        <time>2022-07-21T09:54:09.000Z</time>
      </trkpt>
      <trkpt lat="44.06888" lon="6.96175">
        <ele>1511.1999511719</ele>
        <time>2022-07-21T09:54:16.000Z</time>
      </trkpt>
      <trkpt lat="44.06887" lon="6.96174">
        <ele>1511.8000488281</ele>
        <time>2022-07-21T09:54:20.000Z</time>
      </trkpt>
      <trkpt lat="44.06884" lon="6.96173">
        <ele>1511.8000488281</ele>
        <time>2022-07-21T09:54:22.000Z</time>
      </trkpt>
      <trkpt lat="44.06877" lon="6.96175">
        <ele>1512.5999755859</ele>
        <time>2022-07-21T09:54:26.000Z</time>
      </trkpt>
      <trkpt lat="44.06876" lon="6.96176">
        <ele>1513</ele>
        <time>2022-07-21T09:54:27.000Z</time>
      </trkpt>
      <trkpt lat="44.06872" lon="6.9618">
        <ele>1514</ele>
        <time>2022-07-21T09:54:29.000Z</time>
      </trkpt>
      <trkpt lat="44.06868" lon="6.96182">
        <ele>1515.1999511719</ele>
        <time>2022-07-21T09:54:31.000Z</time>
      </trkpt>
      <trkpt lat="44.06866" lon="6.96183">
        <ele>1515.8000488281</ele>
        <time>2022-07-21T09:54:32.000Z</time>
      </trkpt>
      <trkpt lat="44.06864" lon="6.96185">
        <ele>1516.4000244141</ele>
        <time>2022-07-21T09:54:33.000Z</time>
      </trkpt>
      <trkpt lat="44.06858" lon="6.96192">
        <ele>1517.8000488281</ele>
        <time>2022-07-21T09:54:36.000Z</time>
      </trkpt>
      <trkpt lat="44.06855" lon="6.96195">
        <ele>1518</ele>
        <time>2022-07-21T09:54:37.000Z</time>
      </trkpt>
      <trkpt lat="44.0685" lon="6.96198">
        <ele>1519</ele>
        <time>2022-07-21T09:54:40.000Z</time>
      </trkpt>
      <trkpt lat="44.06848" lon="6.96198">
        <ele>1519.4000244141</ele>
        <time>2022-07-21T09:54:41.000Z</time>
      </trkpt>
      <trkpt lat="44.06844" lon="6.96201">
        <ele>1520.1999511719</ele>
        <time>2022-07-21T09:54:43.000Z</time>
      </trkpt>
      <trkpt lat="44.06842" lon="6.962">
        <ele>1520.5999755859</ele>
        <time>2022-07-21T09:54:44.000Z</time>
      </trkpt>
      <trkpt lat="44.06836" lon="6.96201">
        <ele>1521.5999755859</ele>
        <time>2022-07-21T09:54:46.000Z</time>
      </trkpt>
      <trkpt lat="44.06828" lon="6.96202">
        <ele>1523.1999511719</ele>
        <time>2022-07-21T09:54:49.000Z</time>
      </trkpt>
      <trkpt lat="44.06824" lon="6.96202">
        <ele>1524.4000244141</ele>
        <time>2022-07-21T09:54:52.000Z</time>
      </trkpt>
      <trkpt lat="44.06822" lon="6.96204">
        <ele>1524.5999755859</ele>
        <time>2022-07-21T09:54:53.000Z</time>
      </trkpt>
      <trkpt lat="44.06817" lon="6.96208">
        <ele>1525.5999755859</ele>
        <time>2022-07-21T09:54:55.000Z</time>
      </trkpt>
      <trkpt lat="44.06814" lon="6.96209">
        <ele>1525.8000488281</ele>
        <time>2022-07-21T09:54:56.000Z</time>
      </trkpt>
      <trkpt lat="44.06809" lon="6.96211">
        <ele>1526.5999755859</ele>
        <time>2022-07-21T09:54:58.000Z</time>
      </trkpt>
      <trkpt lat="44.06801" lon="6.96213">
        <ele>1527.5999755859</ele>
        <time>2022-07-21T09:55:01.000Z</time>
      </trkpt>
      <trkpt lat="44.06797" lon="6.96214">
        <ele>1528.5999755859</ele>
        <time>2022-07-21T09:55:03.000Z</time>
      </trkpt>
      <trkpt lat="44.06796" lon="6.96214">
        <ele>1529.1999511719</ele>
        <time>2022-07-21T09:55:04.000Z</time>
      </trkpt>
      <trkpt lat="44.06792" lon="6.96217">
        <ele>1530.1999511719</ele>
        <time>2022-07-21T09:55:07.000Z</time>
      </trkpt>
      <trkpt lat="44.0679" lon="6.96217">
        <ele>1530.5999755859</ele>
        <time>2022-07-21T09:55:08.000Z</time>
      </trkpt>
      <trkpt lat="44.06788" lon="6.96217">
        <ele>1531.1999511719</ele>
        <time>2022-07-21T09:55:10.000Z</time>
      </trkpt>
      <trkpt lat="44.06786" lon="6.96217">
        <ele>1532.1999511719</ele>
        <time>2022-07-21T09:55:13.000Z</time>
      </trkpt>
      <trkpt lat="44.06784" lon="6.9622">
        <ele>1532.4000244141</ele>
        <time>2022-07-21T09:55:24.000Z</time>
      </trkpt>
      <trkpt lat="44.06781" lon="6.96222">
        <ele>1532.4000244141</ele>
        <time>2022-07-21T09:55:27.000Z</time>
      </trkpt>
      <trkpt lat="44.0678" lon="6.96223">
        <ele>1532.5999755859</ele>
        <time>2022-07-21T09:55:28.000Z</time>
      </trkpt>
      <trkpt lat="44.06777" lon="6.96235">
        <ele>1533</ele>
        <time>2022-07-21T09:55:32.000Z</time>
      </trkpt>
      <trkpt lat="44.0678" lon="6.96244">
        <ele>1532.1999511719</ele>
        <time>2022-07-21T09:55:35.000Z</time>
      </trkpt>
      <trkpt lat="44.06782" lon="6.96249">
        <ele>1530.5999755859</ele>
        <time>2022-07-21T09:55:37.000Z</time>
      </trkpt>
      <trkpt lat="44.06781" lon="6.96251">
        <ele>1529.8000488281</ele>
        <time>2022-07-21T09:55:38.000Z</time>
      </trkpt>
      <trkpt lat="44.06781" lon="6.96254">
        <ele>1529</ele>
        <time>2022-07-21T09:55:39.000Z</time>
      </trkpt>
      <trkpt lat="44.06782" lon="6.96258">
        <ele>1528</ele>
        <time>2022-07-21T09:55:41.000Z</time>
      </trkpt>
      <trkpt lat="44.06784" lon="6.9626">
        <ele>1527.5999755859</ele>
        <time>2022-07-21T09:55:42.000Z</time>
      </trkpt>
      <trkpt lat="44.06786" lon="6.96264">
        <ele>1526.5999755859</ele>
        <time>2022-07-21T09:55:44.000Z</time>
      </trkpt>
      <trkpt lat="44.06784" lon="6.96269">
        <ele>1525</ele>
        <time>2022-07-21T09:55:46.000Z</time>
      </trkpt>
      <trkpt lat="44.06784" lon="6.96276">
        <ele>1523.4000244141</ele>
        <time>2022-07-21T09:55:48.000Z</time>
      </trkpt>
      <trkpt lat="44.06783" lon="6.96278">
        <ele>1522.8000488281</ele>
        <time>2022-07-21T09:55:49.000Z</time>
      </trkpt>
      <trkpt lat="44.06782" lon="6.96281">
        <ele>1522</ele>
        <time>2022-07-21T09:55:50.000Z</time>
      </trkpt>
      <trkpt lat="44.06782" lon="6.9629">
        <ele>1520.1999511719</ele>
        <time>2022-07-21T09:55:52.000Z</time>
      </trkpt>
      <trkpt lat="44.06779" lon="6.96293">
        <ele>1519</ele>
        <time>2022-07-21T09:55:53.000Z</time>
      </trkpt>
      <trkpt lat="44.06777" lon="6.96296">
        <ele>1517.8000488281</ele>
        <time>2022-07-21T09:55:54.000Z</time>
      </trkpt>
      <trkpt lat="44.06775" lon="6.96302">
        <ele>1516.8000488281</ele>
        <time>2022-07-21T09:55:55.000Z</time>
      </trkpt>
      <trkpt lat="44.06775" lon="6.96307">
        <ele>1515.8000488281</ele>
        <time>2022-07-21T09:55:56.000Z</time>
      </trkpt>
      <trkpt lat="44.06777" lon="6.96313">
        <ele>1515</ele>
        <time>2022-07-21T09:55:57.000Z</time>
      </trkpt>
      <trkpt lat="44.06782" lon="6.9632">
        <ele>1513.8000488281</ele>
        <time>2022-07-21T09:55:59.000Z</time>
      </trkpt>
      <trkpt lat="44.06785" lon="6.96324">
        <ele>1513</ele>
        <time>2022-07-21T09:56:00.000Z</time>
      </trkpt>
      <trkpt lat="44.0679" lon="6.96324">
        <ele>1512.4000244141</ele>
        <time>2022-07-21T09:56:01.000Z</time>
      </trkpt>
      <trkpt lat="44.06796" lon="6.96325">
        <ele>1510</ele>
        <time>2022-07-21T09:56:03.000Z</time>
      </trkpt>
      <trkpt lat="44.06801" lon="6.96326">
        <ele>1508.4000244141</ele>
        <time>2022-07-21T09:56:05.000Z</time>
      </trkpt>
      <trkpt lat="44.06803" lon="6.96329">
        <ele>1507.8000488281</ele>
        <time>2022-07-21T09:56:06.000Z</time>
      </trkpt>
      <trkpt lat="44.06807" lon="6.96332">
        <ele>1507.5999755859</ele>
        <time>2022-07-21T09:56:07.000Z</time>
      </trkpt>
      <trkpt lat="44.0681" lon="6.96336">
        <ele>1507.1999511719</ele>
        <time>2022-07-21T09:56:08.000Z</time>
      </trkpt>
      <trkpt lat="44.0681" lon="6.96339">
        <ele>1506.5999755859</ele>
        <time>2022-07-21T09:56:09.000Z</time>
      </trkpt>
      <trkpt lat="44.06812" lon="6.96341">
        <ele>1505.8000488281</ele>
        <time>2022-07-21T09:56:10.000Z</time>
      </trkpt>
      <trkpt lat="44.06814" lon="6.96343">
        <ele>1504.8000488281</ele>
        <time>2022-07-21T09:56:11.000Z</time>
      </trkpt>
      <trkpt lat="44.06818" lon="6.96345">
        <ele>1503.4000244141</ele>
        <time>2022-07-21T09:56:12.000Z</time>
      </trkpt>
      <trkpt lat="44.06827" lon="6.96349">
        <ele>1502</ele>
        <time>2022-07-21T09:56:14.000Z</time>
      </trkpt>
      <trkpt lat="44.06832" lon="6.9635">
        <ele>1501</ele>
        <time>2022-07-21T09:56:15.000Z</time>
      </trkpt>
      <trkpt lat="44.06837" lon="6.96352">
        <ele>1499.8000488281</ele>
        <time>2022-07-21T09:56:16.000Z</time>
      </trkpt>
      <trkpt lat="44.06842" lon="6.96354">
        <ele>1499</ele>
        <time>2022-07-21T09:56:17.000Z</time>
      </trkpt>
      <trkpt lat="44.06846" lon="6.96356">
        <ele>1498.4000244141</ele>
        <time>2022-07-21T09:56:18.000Z</time>
      </trkpt>
      <trkpt lat="44.06849" lon="6.96361">
        <ele>1497.4000244141</ele>
        <time>2022-07-21T09:56:19.000Z</time>
      </trkpt>
      <trkpt lat="44.06854" lon="6.96366">
        <ele>1496.1999511719</ele>
        <time>2022-07-21T09:56:20.000Z</time>
      </trkpt>
      <trkpt lat="44.06857" lon="6.96371">
        <ele>1494.8000488281</ele>
        <time>2022-07-21T09:56:21.000Z</time>
      </trkpt>
      <trkpt lat="44.0686" lon="6.96374">
        <ele>1493.1999511719</ele>
        <time>2022-07-21T09:56:22.000Z</time>
      </trkpt>
      <trkpt lat="44.06863" lon="6.96378">
        <ele>1491.8000488281</ele>
        <time>2022-07-21T09:56:23.000Z</time>
      </trkpt>
      <trkpt lat="44.06865" lon="6.96382">
        <ele>1490</ele>
        <time>2022-07-21T09:56:24.000Z</time>
      </trkpt>
      <trkpt lat="44.06866" lon="6.96386">
        <ele>1487.8000488281</ele>
        <time>2022-07-21T09:56:25.000Z</time>
      </trkpt>
      <trkpt lat="44.06867" lon="6.96389">
        <ele>1486.4000244141</ele>
        <time>2022-07-21T09:56:26.000Z</time>
      </trkpt>
      <trkpt lat="44.06868" lon="6.9639">
        <ele>1485</ele>
        <time>2022-07-21T09:56:27.000Z</time>
      </trkpt>
      <trkpt lat="44.06869" lon="6.9639">
        <ele>1484</ele>
        <time>2022-07-21T09:56:28.000Z</time>
      </trkpt>
      <trkpt lat="44.06871" lon="6.96391">
        <ele>1483.1999511719</ele>
        <time>2022-07-21T09:56:29.000Z</time>
      </trkpt>
      <trkpt lat="44.06871" lon="6.96396">
        <ele>1481.5999755859</ele>
        <time>2022-07-21T09:56:31.000Z</time>
      </trkpt>
      <trkpt lat="44.06871" lon="6.96399">
        <ele>1480</ele>
        <time>2022-07-21T09:56:33.000Z</time>
      </trkpt>
      <trkpt lat="44.06869" lon="6.96405">
        <ele>1478.4000244141</ele>
        <time>2022-07-21T09:56:35.000Z</time>
      </trkpt>
      <trkpt lat="44.06869" lon="6.96409">
        <ele>1478</ele>
        <time>2022-07-21T09:56:36.000Z</time>
      </trkpt>
      <trkpt lat="44.0687" lon="6.96413">
        <ele>1477.4000244141</ele>
        <time>2022-07-21T09:56:37.000Z</time>
      </trkpt>
      <trkpt lat="44.06871" lon="6.96419">
        <ele>1476.8000488281</ele>
        <time>2022-07-21T09:56:38.000Z</time>
      </trkpt>
      <trkpt lat="44.06873" lon="6.96422">
        <ele>1475.8000488281</ele>
        <time>2022-07-21T09:56:39.000Z</time>
      </trkpt>
      <trkpt lat="44.06873" lon="6.96425">
        <ele>1474.5999755859</ele>
        <time>2022-07-21T09:56:40.000Z</time>
      </trkpt>
      <trkpt lat="44.06872" lon="6.96427">
        <ele>1473.8000488281</ele>
        <time>2022-07-21T09:56:41.000Z</time>
      </trkpt>
      <trkpt lat="44.06871" lon="6.9643">
        <ele>1472.5999755859</ele>
        <time>2022-07-21T09:56:42.000Z</time>
      </trkpt>
      <trkpt lat="44.06871" lon="6.96434">
        <ele>1471.4000244141</ele>
        <time>2022-07-21T09:56:43.000Z</time>
      </trkpt>
      <trkpt lat="44.06872" lon="6.96436">
        <ele>1470.1999511719</ele>
        <time>2022-07-21T09:56:44.000Z</time>
      </trkpt>
      <trkpt lat="44.06873" lon="6.96439">
        <ele>1469</ele>
        <time>2022-07-21T09:56:45.000Z</time>
      </trkpt>
      <trkpt lat="44.06874" lon="6.96441">
        <ele>1467.5999755859</ele>
        <time>2022-07-21T09:56:46.000Z</time>
      </trkpt>
      <trkpt lat="44.06872" lon="6.96443">
        <ele>1465.8000488281</ele>
        <time>2022-07-21T09:56:48.000Z</time>
      </trkpt>
      <trkpt lat="44.06872" lon="6.96444">
        <ele>1464.8000488281</ele>
        <time>2022-07-21T09:56:49.000Z</time>
      </trkpt>
      <trkpt lat="44.06872" lon="6.96444">
        <ele>1464.1999511719</ele>
        <time>2022-07-21T09:56:50.000Z</time>
      </trkpt>
      <trkpt lat="44.06873" lon="6.96446">
        <ele>1463.5999755859</ele>
        <time>2022-07-21T09:56:51.000Z</time>
      </trkpt>
      <trkpt lat="44.06874" lon="6.96448">
        <ele>1463</ele>
        <time>2022-07-21T09:56:52.000Z</time>
      </trkpt>
      <trkpt lat="44.06876" lon="6.96451">
        <ele>1462.5999755859</ele>
        <time>2022-07-21T09:56:53.000Z</time>
      </trkpt>
      <trkpt lat="44.06877" lon="6.96456">
        <ele>1461.8000488281</ele>
        <time>2022-07-21T09:56:55.000Z</time>
      </trkpt>
      <trkpt lat="44.06874" lon="6.96458">
        <ele>1460.8000488281</ele>
        <time>2022-07-21T09:56:57.000Z</time>
      </trkpt>
      <trkpt lat="44.06872" lon="6.96458">
        <ele>1459.1999511719</ele>
        <time>2022-07-21T09:56:59.000Z</time>
      </trkpt>
      <trkpt lat="44.06872" lon="6.9646">
        <ele>1458.4000244141</ele>
        <time>2022-07-21T09:57:00.000Z</time>
      </trkpt>
      <trkpt lat="44.06871" lon="6.96462">
        <ele>1457.4000244141</ele>
        <time>2022-07-21T09:57:01.000Z</time>
      </trkpt>
      <trkpt lat="44.06871" lon="6.96464">
        <ele>1456.5999755859</ele>
        <time>2022-07-21T09:57:02.000Z</time>
      </trkpt>
      <trkpt lat="44.06871" lon="6.96464">
        <ele>1455.8000488281</ele>
        <time>2022-07-21T09:57:03.000Z</time>
      </trkpt>
      <trkpt lat="44.0687" lon="6.96464">
        <ele>1455</ele>
        <time>2022-07-21T09:57:04.000Z</time>
      </trkpt>
      <trkpt lat="44.06867" lon="6.96464">
        <ele>1454.4000244141</ele>
        <time>2022-07-21T09:57:05.000Z</time>
      </trkpt>
      <trkpt lat="44.06865" lon="6.96464">
        <ele>1453.8000488281</ele>
        <time>2022-07-21T09:57:06.000Z</time>
      </trkpt>
      <trkpt lat="44.06862" lon="6.96463">
        <ele>1453.1999511719</ele>
        <time>2022-07-21T09:57:07.000Z</time>
      </trkpt>
      <trkpt lat="44.06857" lon="6.9646">
        <ele>1451.8000488281</ele>
        <time>2022-07-21T09:57:09.000Z</time>
      </trkpt>
      <trkpt lat="44.06854" lon="6.96458">
        <ele>1451.1999511719</ele>
        <time>2022-07-21T09:57:10.000Z</time>
      </trkpt>
      <trkpt lat="44.06853" lon="6.96457">
        <ele>1450.5999755859</ele>
        <time>2022-07-21T09:57:11.000Z</time>
      </trkpt>
      <trkpt lat="44.06852" lon="6.96456">
        <ele>1449.5999755859</ele>
        <time>2022-07-21T09:57:13.000Z</time>
      </trkpt>
      <trkpt lat="44.06849" lon="6.96458">
        <ele>1449.8000488281</ele>
        <time>2022-07-21T09:57:17.000Z</time>
      </trkpt>
      <trkpt lat="44.06847" lon="6.96462">
        <ele>1448.5999755859</ele>
        <time>2022-07-21T09:57:24.000Z</time>
      </trkpt>
      <trkpt lat="44.06847" lon="6.96464">
        <ele>1448.8000488281</ele>
        <time>2022-07-21T09:57:33.000Z</time>
      </trkpt>
      <trkpt lat="44.06849" lon="6.96468">
        <ele>1449</ele>
        <time>2022-07-21T09:57:41.000Z</time>
      </trkpt>
      <trkpt lat="44.06847" lon="6.96472">
        <ele>1448.8000488281</ele>
        <time>2022-07-21T09:57:46.000Z</time>
      </trkpt>
      <trkpt lat="44.06844" lon="6.96473">
        <ele>1448.4000244141</ele>
        <time>2022-07-21T09:57:47.000Z</time>
      </trkpt>
      <trkpt lat="44.06843" lon="6.96474">
        <ele>1447.4000244141</ele>
        <time>2022-07-21T09:57:49.000Z</time>
      </trkpt>
      <trkpt lat="44.06843" lon="6.96475">
        <ele>1446</ele>
        <time>2022-07-21T09:57:50.000Z</time>
      </trkpt>
      <trkpt lat="44.06842" lon="6.96476">
        <ele>1444.5999755859</ele>
        <time>2022-07-21T09:57:52.000Z</time>
      </trkpt>
      <trkpt lat="44.0684" lon="6.96477">
        <ele>1443.8000488281</ele>
        <time>2022-07-21T09:57:53.000Z</time>
      </trkpt>
      <trkpt lat="44.06839" lon="6.96475">
        <ele>1443.1999511719</ele>
        <time>2022-07-21T09:57:54.000Z</time>
      </trkpt>
      <trkpt lat="44.06835" lon="6.96474">
        <ele>1442.1999511719</ele>
        <time>2022-07-21T09:57:56.000Z</time>
      </trkpt>
      <trkpt lat="44.06833" lon="6.96473">
        <ele>1441.8000488281</ele>
        <time>2022-07-21T09:57:57.000Z</time>
      </trkpt>
      <trkpt lat="44.06831" lon="6.96473">
        <ele>1441.4000244141</ele>
        <time>2022-07-21T09:57:59.000Z</time>
      </trkpt>
      <trkpt lat="44.06831" lon="6.96476">
        <ele>1441.1999511719</ele>
        <time>2022-07-21T09:58:02.000Z</time>
      </trkpt>
      <trkpt lat="44.06831" lon="6.96478">
        <ele>1440.8000488281</ele>
        <time>2022-07-21T09:58:03.000Z</time>
      </trkpt>
      <trkpt lat="44.0683" lon="6.9648">
        <ele>1440.5999755859</ele>
        <time>2022-07-21T09:58:04.000Z</time>
      </trkpt>
      <trkpt lat="44.0683" lon="6.96481">
        <ele>1439.4000244141</ele>
        <time>2022-07-21T09:58:06.000Z</time>
      </trkpt>
      <trkpt lat="44.06831" lon="6.96481">
        <ele>1438.1999511719</ele>
        <time>2022-07-21T09:58:08.000Z</time>
      </trkpt>
      <trkpt lat="44.0683" lon="6.96482">
        <ele>1437.8000488281</ele>
        <time>2022-07-21T09:58:13.000Z</time>
      </trkpt>
      <trkpt lat="44.06832" lon="6.96487">
        <ele>1437.8000488281</ele>
        <time>2022-07-21T09:58:20.000Z</time>
      </trkpt>
      <trkpt lat="44.06834" lon="6.96489">
        <ele>1437.5999755859</ele>
        <time>2022-07-21T09:58:21.000Z</time>
      </trkpt>
      <trkpt lat="44.06836" lon="6.96491">
        <ele>1437.4000244141</ele>
        <time>2022-07-21T09:58:23.000Z</time>
      </trkpt>
      <trkpt lat="44.06836" lon="6.96492">
        <ele>1437.4000244141</ele>
        <time>2022-07-21T09:58:24.000Z</time>
      </trkpt>
      <trkpt lat="44.06835" lon="6.96494">
        <ele>1437.1999511719</ele>
        <time>2022-07-21T09:58:26.000Z</time>
      </trkpt>
      <trkpt lat="44.06835" lon="6.96496">
        <ele>1436.8000488281</ele>
        <time>2022-07-21T09:58:27.000Z</time>
      </trkpt>
      <trkpt lat="44.06835" lon="6.96498">
        <ele>1436.4000244141</ele>
        <time>2022-07-21T09:58:28.000Z</time>
      </trkpt>
      <trkpt lat="44.06835" lon="6.96499">
        <ele>1435.8000488281</ele>
        <time>2022-07-21T09:58:29.000Z</time>
      </trkpt>
      <trkpt lat="44.06833" lon="6.965">
        <ele>1434.5999755859</ele>
        <time>2022-07-21T09:58:31.000Z</time>
      </trkpt>
      <trkpt lat="44.06829" lon="6.96501">
        <ele>1434.1999511719</ele>
        <time>2022-07-21T09:58:32.000Z</time>
      </trkpt>
      <trkpt lat="44.06826" lon="6.96501">
        <ele>1433.5999755859</ele>
        <time>2022-07-21T09:58:33.000Z</time>
      </trkpt>
      <trkpt lat="44.06821" lon="6.96501">
        <ele>1432.5999755859</ele>
        <time>2022-07-21T09:58:35.000Z</time>
      </trkpt>
      <trkpt lat="44.06818" lon="6.96498">
        <ele>1431.5999755859</ele>
        <time>2022-07-21T09:58:37.000Z</time>
      </trkpt>
      <trkpt lat="44.06817" lon="6.96497">
        <ele>1430.5999755859</ele>
        <time>2022-07-21T09:58:39.000Z</time>
      </trkpt>
      <trkpt lat="44.06815" lon="6.96499">
        <ele>1430</ele>
        <time>2022-07-21T09:58:46.000Z</time>
      </trkpt>
      <trkpt lat="44.06814" lon="6.96503">
        <ele>1430</ele>
        <time>2022-07-21T09:58:53.000Z</time>
      </trkpt>
      <trkpt lat="44.0681" lon="6.96503">
        <ele>1430.1999511719</ele>
        <time>2022-07-21T09:59:01.000Z</time>
      </trkpt>
      <trkpt lat="44.06809" lon="6.96502">
        <ele>1430.1999511719</ele>
        <time>2022-07-21T09:59:08.000Z</time>
      </trkpt>
      <trkpt lat="44.06807" lon="6.96503">
        <ele>1430</ele>
        <time>2022-07-21T09:59:17.000Z</time>
      </trkpt>
      <trkpt lat="44.06805" lon="6.96503">
        <ele>1430.1999511719</ele>
        <time>2022-07-21T09:59:26.000Z</time>
      </trkpt>
      <trkpt lat="44.06804" lon="6.96504">
        <ele>1430.1999511719</ele>
        <time>2022-07-21T09:59:27.000Z</time>
      </trkpt>
      <trkpt lat="44.06802" lon="6.96505">
        <ele>1430.1999511719</ele>
        <time>2022-07-21T09:59:31.000Z</time>
      </trkpt>
      <trkpt lat="44.06799" lon="6.96505">
        <ele>1430.1999511719</ele>
        <time>2022-07-21T09:59:34.000Z</time>
      </trkpt>
      <trkpt lat="44.06795" lon="6.96503">
        <ele>1430.4000244141</ele>
        <time>2022-07-21T09:59:36.000Z</time>
      </trkpt>
      <trkpt lat="44.06793" lon="6.96504">
        <ele>1430.4000244141</ele>
        <time>2022-07-21T09:59:37.000Z</time>
      </trkpt>
      <trkpt lat="44.06791" lon="6.96503">
        <ele>1430.1999511719</ele>
        <time>2022-07-21T09:59:39.000Z</time>
      </trkpt>
      <trkpt lat="44.06789" lon="6.96502">
        <ele>1430.1999511719</ele>
        <time>2022-07-21T09:59:41.000Z</time>
      </trkpt>
      <trkpt lat="44.0678" lon="6.96501">
        <ele>1430.8000488281</ele>
        <time>2022-07-21T09:59:45.000Z</time>
      </trkpt>
      <trkpt lat="44.06777" lon="6.96499">
        <ele>1430.8000488281</ele>
        <time>2022-07-21T09:59:46.000Z</time>
      </trkpt>
      <trkpt lat="44.0677" lon="6.96501">
        <ele>1430.4000244141</ele>
        <time>2022-07-21T09:59:48.000Z</time>
      </trkpt>
      <trkpt lat="44.06765" lon="6.96506">
        <ele>1429.1999511719</ele>
        <time>2022-07-21T09:59:51.000Z</time>
      </trkpt>
      <trkpt lat="44.06764" lon="6.96507">
        <ele>1429.1999511719</ele>
        <time>2022-07-21T09:59:52.000Z</time>
      </trkpt>
      <trkpt lat="44.06757" lon="6.96518">
        <ele>1429.5999755859</ele>
        <time>2022-07-21T09:59:55.000Z</time>
      </trkpt>
      <trkpt lat="44.06753" lon="6.96534">
        <ele>1429.4000244141</ele>
        <time>2022-07-21T09:59:59.000Z</time>
      </trkpt>
      <trkpt lat="44.06753" lon="6.96537">
        <ele>1429.5999755859</ele>
        <time>2022-07-21T10:00:00.000Z</time>
      </trkpt>
      <trkpt lat="44.06751" lon="6.96547">
        <ele>1430.5999755859</ele>
        <time>2022-07-21T10:00:04.000Z</time>
      </trkpt>
      <trkpt lat="44.06749" lon="6.9655">
        <ele>1430.8000488281</ele>
        <time>2022-07-21T10:00:05.000Z</time>
      </trkpt>
      <trkpt lat="44.06749" lon="6.96553">
        <ele>1431</ele>
        <time>2022-07-21T10:00:06.000Z</time>
      </trkpt>
      <trkpt lat="44.06747" lon="6.96556">
        <ele>1431.8000488281</ele>
        <time>2022-07-21T10:00:08.000Z</time>
      </trkpt>
      <trkpt lat="44.06745" lon="6.96559">
        <ele>1432.1999511719</ele>
        <time>2022-07-21T10:00:09.000Z</time>
      </trkpt>
      <trkpt lat="44.06741" lon="6.96563">
        <ele>1433.1999511719</ele>
        <time>2022-07-21T10:00:11.000Z</time>
      </trkpt>
      <trkpt lat="44.06735" lon="6.96568">
        <ele>1434.1999511719</ele>
        <time>2022-07-21T10:00:14.000Z</time>
      </trkpt>
      <trkpt lat="44.06728" lon="6.9658">
        <ele>1434</ele>
        <time>2022-07-21T10:00:19.000Z</time>
      </trkpt>
      <trkpt lat="44.06725" lon="6.9659">
        <ele>1434.4000244141</ele>
        <time>2022-07-21T10:00:22.000Z</time>
      </trkpt>
      <trkpt lat="44.0672" lon="6.96599">
        <ele>1435.4000244141</ele>
        <time>2022-07-21T10:00:25.000Z</time>
      </trkpt>
      <trkpt lat="44.06719" lon="6.96602">
        <ele>1435.5999755859</ele>
        <time>2022-07-21T10:00:26.000Z</time>
      </trkpt>
      <trkpt lat="44.06718" lon="6.96609">
        <ele>1436.5999755859</ele>
        <time>2022-07-21T10:00:29.000Z</time>
      </trkpt>
      <trkpt lat="44.06717" lon="6.96611">
        <ele>1437</ele>
        <time>2022-07-21T10:00:30.000Z</time>
      </trkpt>
      <trkpt lat="44.06716" lon="6.96615">
        <ele>1438</ele>
        <time>2022-07-21T10:00:32.000Z</time>
      </trkpt>
      <trkpt lat="44.06713" lon="6.96618">
        <ele>1438.5999755859</ele>
        <time>2022-07-21T10:00:34.000Z</time>
      </trkpt>
      <trkpt lat="44.06712" lon="6.96622">
        <ele>1439.1999511719</ele>
        <time>2022-07-21T10:00:36.000Z</time>
      </trkpt>
      <trkpt lat="44.06709" lon="6.96625">
        <ele>1439.8000488281</ele>
        <time>2022-07-21T10:00:39.000Z</time>
      </trkpt>
      <trkpt lat="44.06707" lon="6.96629">
        <ele>1440.1999511719</ele>
        <time>2022-07-21T10:00:41.000Z</time>
      </trkpt>
      <trkpt lat="44.06705" lon="6.96633">
        <ele>1440.4000244141</ele>
        <time>2022-07-21T10:00:43.000Z</time>
      </trkpt>
      <trkpt lat="44.06704" lon="6.96635">
        <ele>1440.5999755859</ele>
        <time>2022-07-21T10:00:44.000Z</time>
      </trkpt>
      <trkpt lat="44.06704" lon="6.96649">
        <ele>1442</ele>
        <time>2022-07-21T10:00:48.000Z</time>
      </trkpt>
      <trkpt lat="44.06703" lon="6.96652">
        <ele>1442.5999755859</ele>
        <time>2022-07-21T10:00:49.000Z</time>
      </trkpt>
      <trkpt lat="44.06703" lon="6.96654">
        <ele>1443.4000244141</ele>
        <time>2022-07-21T10:00:50.000Z</time>
      </trkpt>
      <trkpt lat="44.06702" lon="6.96659">
        <ele>1444.8000488281</ele>
        <time>2022-07-21T10:00:52.000Z</time>
      </trkpt>
      <trkpt lat="44.06701" lon="6.96663">
        <ele>1445.8000488281</ele>
        <time>2022-07-21T10:00:54.000Z</time>
      </trkpt>
      <trkpt lat="44.06701" lon="6.96665">
        <ele>1446.1999511719</ele>
        <time>2022-07-21T10:00:55.000Z</time>
      </trkpt>
      <trkpt lat="44.06701" lon="6.96667">
        <ele>1446.5999755859</ele>
        <time>2022-07-21T10:00:56.000Z</time>
      </trkpt>
      <trkpt lat="44.067" lon="6.96669">
        <ele>1447.1999511719</ele>
        <time>2022-07-21T10:00:57.000Z</time>
      </trkpt>
      <trkpt lat="44.06698" lon="6.96677">
        <ele>1448.4000244141</ele>
        <time>2022-07-21T10:01:00.000Z</time>
      </trkpt>
      <trkpt lat="44.06697" lon="6.96684">
        <ele>1449.8000488281</ele>
        <time>2022-07-21T10:01:03.000Z</time>
      </trkpt>
      <trkpt lat="44.06697" lon="6.96687">
        <ele>1450.1999511719</ele>
        <time>2022-07-21T10:01:04.000Z</time>
      </trkpt>
      <trkpt lat="44.06696" lon="6.96691">
        <ele>1451.4000244141</ele>
        <time>2022-07-21T10:01:06.000Z</time>
      </trkpt>
      <trkpt lat="44.06694" lon="6.96697">
        <ele>1452.4000244141</ele>
        <time>2022-07-21T10:01:09.000Z</time>
      </trkpt>
      <trkpt lat="44.06694" lon="6.967">
        <ele>1452.5999755859</ele>
        <time>2022-07-21T10:01:10.000Z</time>
      </trkpt>
      <trkpt lat="44.06693" lon="6.96708">
        <ele>1453.4000244141</ele>
        <time>2022-07-21T10:01:12.000Z</time>
      </trkpt>
      <trkpt lat="44.06693" lon="6.96711">
        <ele>1454</ele>
        <time>2022-07-21T10:01:13.000Z</time>
      </trkpt>
      <trkpt lat="44.06692" lon="6.96714">
        <ele>1454.5999755859</ele>
        <time>2022-07-21T10:01:14.000Z</time>
      </trkpt>
      <trkpt lat="44.0669" lon="6.9672">
        <ele>1455.5999755859</ele>
        <time>2022-07-21T10:01:16.000Z</time>
      </trkpt>
      <trkpt lat="44.06689" lon="6.96723">
        <ele>1456.1999511719</ele>
        <time>2022-07-21T10:01:18.000Z</time>
      </trkpt>
      <trkpt lat="44.06687" lon="6.96727">
        <ele>1456.8000488281</ele>
        <time>2022-07-21T10:01:20.000Z</time>
      </trkpt>
      <trkpt lat="44.06684" lon="6.96731">
        <ele>1457.1999511719</ele>
        <time>2022-07-21T10:01:22.000Z</time>
      </trkpt>
      <trkpt lat="44.06682" lon="6.96733">
        <ele>1457.5999755859</ele>
        <time>2022-07-21T10:01:23.000Z</time>
      </trkpt>
      <trkpt lat="44.06681" lon="6.96734">
        <ele>1458</ele>
        <time>2022-07-21T10:01:24.000Z</time>
      </trkpt>
      <trkpt lat="44.06675" lon="6.9674">
        <ele>1459.1999511719</ele>
        <time>2022-07-21T10:01:28.000Z</time>
      </trkpt>
      <trkpt lat="44.06674" lon="6.96741">
        <ele>1459.5999755859</ele>
        <time>2022-07-21T10:01:29.000Z</time>
      </trkpt>
      <trkpt lat="44.06672" lon="6.96743">
        <ele>1460.4000244141</ele>
        <time>2022-07-21T10:01:31.000Z</time>
      </trkpt>
      <trkpt lat="44.0667" lon="6.96746">
        <ele>1461.1999511719</ele>
        <time>2022-07-21T10:01:33.000Z</time>
      </trkpt>
      <trkpt lat="44.06669" lon="6.96749">
        <ele>1461.5999755859</ele>
        <time>2022-07-21T10:01:34.000Z</time>
      </trkpt>
      <trkpt lat="44.06665" lon="6.96757">
        <ele>1462.8000488281</ele>
        <time>2022-07-21T10:01:37.000Z</time>
      </trkpt>
      <trkpt lat="44.06663" lon="6.96763">
        <ele>1464</ele>
        <time>2022-07-21T10:01:39.000Z</time>
      </trkpt>
      <trkpt lat="44.06661" lon="6.96768">
        <ele>1465</ele>
        <time>2022-07-21T10:01:41.000Z</time>
      </trkpt>
      <trkpt lat="44.06659" lon="6.96774">
        <ele>1466.1999511719</ele>
        <time>2022-07-21T10:01:43.000Z</time>
      </trkpt>
      <trkpt lat="44.06659" lon="6.96775">
        <ele>1467.1999511719</ele>
        <time>2022-07-21T10:01:45.000Z</time>
      </trkpt>
      <trkpt lat="44.06658" lon="6.96776">
        <ele>1467.8000488281</ele>
        <time>2022-07-21T10:01:46.000Z</time>
      </trkpt>
      <trkpt lat="44.06658" lon="6.96779">
        <ele>1468.5999755859</ele>
        <time>2022-07-21T10:01:53.000Z</time>
      </trkpt>
      <trkpt lat="44.06657" lon="6.9678">
        <ele>1468.8000488281</ele>
        <time>2022-07-21T10:01:54.000Z</time>
      </trkpt>
      <trkpt lat="44.06655" lon="6.96786">
        <ele>1469.4000244141</ele>
        <time>2022-07-21T10:02:00.000Z</time>
      </trkpt>
      <trkpt lat="44.06654" lon="6.96788">
        <ele>1469.5999755859</ele>
        <time>2022-07-21T10:02:01.000Z</time>
      </trkpt>
      <trkpt lat="44.06654" lon="6.96788">
        <ele>1469.8000488281</ele>
        <time>2022-07-21T10:02:03.000Z</time>
      </trkpt>
      <trkpt lat="44.06652" lon="6.96792">
        <ele>1470.1999511719</ele>
        <time>2022-07-21T10:02:07.000Z</time>
      </trkpt>
      <trkpt lat="44.06651" lon="6.96797">
        <ele>1470.8000488281</ele>
        <time>2022-07-21T10:02:16.000Z</time>
      </trkpt>
      <trkpt lat="44.0665" lon="6.968">
        <ele>1470.8000488281</ele>
        <time>2022-07-21T10:02:21.000Z</time>
      </trkpt>
      <trkpt lat="44.06649" lon="6.96801">
        <ele>1470.8000488281</ele>
        <time>2022-07-21T10:02:22.000Z</time>
      </trkpt>
      <trkpt lat="44.06649" lon="6.96805">
        <ele>1471</ele>
        <time>2022-07-21T10:02:27.000Z</time>
      </trkpt>
      <trkpt lat="44.06648" lon="6.96808">
        <ele>1471.1999511719</ele>
        <time>2022-07-21T10:02:28.000Z</time>
      </trkpt>
      <trkpt lat="44.06647" lon="6.96811">
        <ele>1471.5999755859</ele>
        <time>2022-07-21T10:02:30.000Z</time>
      </trkpt>
      <trkpt lat="44.06645" lon="6.96815">
        <ele>1472</ele>
        <time>2022-07-21T10:02:32.000Z</time>
      </trkpt>
      <trkpt lat="44.0664" lon="6.9683">
        <ele>1473</ele>
        <time>2022-07-21T10:02:37.000Z</time>
      </trkpt>
      <trkpt lat="44.06637" lon="6.96835">
        <ele>1474.1999511719</ele>
        <time>2022-07-21T10:02:40.000Z</time>
      </trkpt>
      <trkpt lat="44.06634" lon="6.9684">
        <ele>1474.8000488281</ele>
        <time>2022-07-21T10:02:42.000Z</time>
      </trkpt>
      <trkpt lat="44.06631" lon="6.96841">
        <ele>1475.1999511719</ele>
        <time>2022-07-21T10:02:43.000Z</time>
      </trkpt>
      <trkpt lat="44.06627" lon="6.96847">
        <ele>1475.4000244141</ele>
        <time>2022-07-21T10:02:45.000Z</time>
      </trkpt>
      <trkpt lat="44.06625" lon="6.96853">
        <ele>1475.5999755859</ele>
        <time>2022-07-21T10:02:47.000Z</time>
      </trkpt>
      <trkpt lat="44.06623" lon="6.96858">
        <ele>1475.8000488281</ele>
        <time>2022-07-21T10:02:49.000Z</time>
      </trkpt>
      <trkpt lat="44.06621" lon="6.96864">
        <ele>1476</ele>
        <time>2022-07-21T10:02:51.000Z</time>
      </trkpt>
      <trkpt lat="44.06618" lon="6.9687">
        <ele>1476.1999511719</ele>
        <time>2022-07-21T10:02:53.000Z</time>
      </trkpt>
      <trkpt lat="44.06614" lon="6.96874">
        <ele>1476.4000244141</ele>
        <time>2022-07-21T10:02:55.000Z</time>
      </trkpt>
      <trkpt lat="44.06612" lon="6.96876">
        <ele>1476.4000244141</ele>
        <time>2022-07-21T10:02:56.000Z</time>
      </trkpt>
      <trkpt lat="44.0661" lon="6.96877">
        <ele>1476.5999755859</ele>
        <time>2022-07-21T10:02:57.000Z</time>
      </trkpt>
      <trkpt lat="44.06608" lon="6.96878">
        <ele>1476.8000488281</ele>
        <time>2022-07-21T10:02:58.000Z</time>
      </trkpt>
      <trkpt lat="44.06602" lon="6.96882">
        <ele>1477.5999755859</ele>
        <time>2022-07-21T10:03:01.000Z</time>
      </trkpt>
      <trkpt lat="44.066" lon="6.96882">
        <ele>1478</ele>
        <time>2022-07-21T10:03:02.000Z</time>
      </trkpt>
      <trkpt lat="44.06598" lon="6.96883">
        <ele>1478.4000244141</ele>
        <time>2022-07-21T10:03:03.000Z</time>
      </trkpt>
      <trkpt lat="44.06597" lon="6.96883">
        <ele>1479</ele>
        <time>2022-07-21T10:03:04.000Z</time>
      </trkpt>
      <trkpt lat="44.0659" lon="6.96885">
        <ele>1480.1999511719</ele>
        <time>2022-07-21T10:03:07.000Z</time>
      </trkpt>
      <trkpt lat="44.06583" lon="6.96889">
        <ele>1481.1999511719</ele>
        <time>2022-07-21T10:03:10.000Z</time>
      </trkpt>
      <trkpt lat="44.06581" lon="6.96889">
        <ele>1482</ele>
        <time>2022-07-21T10:03:11.000Z</time>
      </trkpt>
      <trkpt lat="44.06579" lon="6.9689">
        <ele>1482.5999755859</ele>
        <time>2022-07-21T10:03:12.000Z</time>
      </trkpt>
      <trkpt lat="44.06574" lon="6.9689">
        <ele>1484</ele>
        <time>2022-07-21T10:03:14.000Z</time>
      </trkpt>
      <trkpt lat="44.06569" lon="6.9689">
        <ele>1485.4000244141</ele>
        <time>2022-07-21T10:03:16.000Z</time>
      </trkpt>
      <trkpt lat="44.06565" lon="6.96891">
        <ele>1486.8000488281</ele>
        <time>2022-07-21T10:03:18.000Z</time>
      </trkpt>
      <trkpt lat="44.06561" lon="6.96892">
        <ele>1487.8000488281</ele>
        <time>2022-07-21T10:03:20.000Z</time>
      </trkpt>
      <trkpt lat="44.06556" lon="6.96893">
        <ele>1488.8000488281</ele>
        <time>2022-07-21T10:03:22.000Z</time>
      </trkpt>
      <trkpt lat="44.06554" lon="6.96893">
        <ele>1489.1999511719</ele>
        <time>2022-07-21T10:03:23.000Z</time>
      </trkpt>
      <trkpt lat="44.06549" lon="6.96893">
        <ele>1490.1999511719</ele>
        <time>2022-07-21T10:03:25.000Z</time>
      </trkpt>
      <trkpt lat="44.06544" lon="6.9689">
        <ele>1491</ele>
        <time>2022-07-21T10:03:27.000Z</time>
      </trkpt>
      <trkpt lat="44.0654" lon="6.96887">
        <ele>1491.1999511719</ele>
        <time>2022-07-21T10:03:29.000Z</time>
      </trkpt>
      <trkpt lat="44.06537" lon="6.96886">
        <ele>1491</ele>
        <time>2022-07-21T10:03:31.000Z</time>
      </trkpt>
      <trkpt lat="44.06534" lon="6.96885">
        <ele>1490.8000488281</ele>
        <time>2022-07-21T10:03:33.000Z</time>
      </trkpt>
      <trkpt lat="44.06529" lon="6.96885">
        <ele>1491</ele>
        <time>2022-07-21T10:03:35.000Z</time>
      </trkpt>
      <trkpt lat="44.06525" lon="6.96885">
        <ele>1491.4000244141</ele>
        <time>2022-07-21T10:03:37.000Z</time>
      </trkpt>
      <trkpt lat="44.06523" lon="6.96886">
        <ele>1491.5999755859</ele>
        <time>2022-07-21T10:03:38.000Z</time>
      </trkpt>
      <trkpt lat="44.0652" lon="6.96886">
        <ele>1492</ele>
        <time>2022-07-21T10:03:40.000Z</time>
      </trkpt>
      <trkpt lat="44.06519" lon="6.96887">
        <ele>1492.4000244141</ele>
        <time>2022-07-21T10:03:41.000Z</time>
      </trkpt>
      <trkpt lat="44.06518" lon="6.96887">
        <ele>1493.4000244141</ele>
        <time>2022-07-21T10:03:44.000Z</time>
      </trkpt>
      <trkpt lat="44.06517" lon="6.96888">
        <ele>1493.8000488281</ele>
        <time>2022-07-21T10:03:45.000Z</time>
      </trkpt>
      <trkpt lat="44.06516" lon="6.9689">
        <ele>1495</ele>
        <time>2022-07-21T10:03:49.000Z</time>
      </trkpt>
      <trkpt lat="44.0651" lon="6.96889">
        <ele>1495.5999755859</ele>
        <time>2022-07-21T10:04:00.000Z</time>
      </trkpt>
      <trkpt lat="44.06505" lon="6.96891">
        <ele>1496.4000244141</ele>
        <time>2022-07-21T10:04:04.000Z</time>
      </trkpt>
      <trkpt lat="44.06502" lon="6.96891">
        <ele>1496.8000488281</ele>
        <time>2022-07-21T10:04:05.000Z</time>
      </trkpt>
      <trkpt lat="44.06498" lon="6.96891">
        <ele>1497.8000488281</ele>
        <time>2022-07-21T10:04:07.000Z</time>
      </trkpt>
      <trkpt lat="44.06494" lon="6.96892">
        <ele>1498.8000488281</ele>
        <time>2022-07-21T10:04:09.000Z</time>
      </trkpt>
      <trkpt lat="44.0649" lon="6.96893">
        <ele>1500</ele>
        <time>2022-07-21T10:04:11.000Z</time>
      </trkpt>
      <trkpt lat="44.06486" lon="6.96895">
        <ele>1501.1999511719</ele>
        <time>2022-07-21T10:04:13.000Z</time>
      </trkpt>
      <trkpt lat="44.06486" lon="6.96896">
        <ele>1501.8000488281</ele>
        <time>2022-07-21T10:04:14.000Z</time>
      </trkpt>
      <trkpt lat="44.06485" lon="6.96899">
        <ele>1502.4000244141</ele>
        <time>2022-07-21T10:04:15.000Z</time>
      </trkpt>
      <trkpt lat="44.06485" lon="6.96907">
        <ele>1503.8000488281</ele>
        <time>2022-07-21T10:04:18.000Z</time>
      </trkpt>
      <trkpt lat="44.06485" lon="6.96909">
        <ele>1504</ele>
        <time>2022-07-21T10:04:19.000Z</time>
      </trkpt>
      <trkpt lat="44.06485" lon="6.96913">
        <ele>1504.5999755859</ele>
        <time>2022-07-21T10:04:20.000Z</time>
      </trkpt>
      <trkpt lat="44.06485" lon="6.96916">
        <ele>1505</ele>
        <time>2022-07-21T10:04:21.000Z</time>
      </trkpt>
      <trkpt lat="44.06483" lon="6.96921">
        <ele>1505.5999755859</ele>
        <time>2022-07-21T10:04:23.000Z</time>
      </trkpt>
      <trkpt lat="44.06482" lon="6.96922">
        <ele>1506</ele>
        <time>2022-07-21T10:04:24.000Z</time>
      </trkpt>
      <trkpt lat="44.06478" lon="6.96924">
        <ele>1507.1999511719</ele>
        <time>2022-07-21T10:04:27.000Z</time>
      </trkpt>
      <trkpt lat="44.06477" lon="6.96924">
        <ele>1507.4000244141</ele>
        <time>2022-07-21T10:04:30.000Z</time>
      </trkpt>
      <trkpt lat="44.06476" lon="6.96926">
        <ele>1507.1999511719</ele>
        <time>2022-07-21T10:04:50.000Z</time>
      </trkpt>
      <trkpt lat="44.06475" lon="6.96928">
        <ele>1507</ele>
        <time>2022-07-21T10:05:16.000Z</time>
      </trkpt>
      <trkpt lat="44.06474" lon="6.96929">
        <ele>1506.8000488281</ele>
        <time>2022-07-21T10:05:30.000Z</time>
      </trkpt>
      <trkpt lat="44.06474" lon="6.96932">
        <ele>1506.8000488281</ele>
        <time>2022-07-21T10:05:32.000Z</time>
      </trkpt>
      <trkpt lat="44.06475" lon="6.96938">
        <ele>1506.5999755859</ele>
        <time>2022-07-21T10:05:34.000Z</time>
      </trkpt>
      <trkpt lat="44.06477" lon="6.96944">
        <ele>1506</ele>
        <time>2022-07-21T10:05:36.000Z</time>
      </trkpt>
      <trkpt lat="44.06477" lon="6.96947">
        <ele>1505.5999755859</ele>
        <time>2022-07-21T10:05:37.000Z</time>
      </trkpt>
      <trkpt lat="44.06475" lon="6.9695">
        <ele>1504.8000488281</ele>
        <time>2022-07-21T10:05:39.000Z</time>
      </trkpt>
      <trkpt lat="44.06471" lon="6.96949">
        <ele>1503.5999755859</ele>
        <time>2022-07-21T10:05:41.000Z</time>
      </trkpt>
      <trkpt lat="44.06469" lon="6.9695">
        <ele>1502.4000244141</ele>
        <time>2022-07-21T10:05:44.000Z</time>
      </trkpt>
      <trkpt lat="44.06469" lon="6.96954">
        <ele>1502</ele>
        <time>2022-07-21T10:05:45.000Z</time>
      </trkpt>
      <trkpt lat="44.06471" lon="6.96965">
        <ele>1501.1999511719</ele>
        <time>2022-07-21T10:05:47.000Z</time>
      </trkpt>
      <trkpt lat="44.06471" lon="6.9697">
        <ele>1500.1999511719</ele>
        <time>2022-07-21T10:05:48.000Z</time>
      </trkpt>
      <trkpt lat="44.06473" lon="6.96975">
        <ele>1500</ele>
        <time>2022-07-21T10:05:49.000Z</time>
      </trkpt>
      <trkpt lat="44.06474" lon="6.96982">
        <ele>1498.5999755859</ele>
        <time>2022-07-21T10:05:50.000Z</time>
      </trkpt>
      <trkpt lat="44.06474" lon="6.96987">
        <ele>1496.4000244141</ele>
        <time>2022-07-21T10:05:51.000Z</time>
      </trkpt>
      <trkpt lat="44.06471" lon="6.96991">
        <ele>1495</ele>
        <time>2022-07-21T10:05:53.000Z</time>
      </trkpt>
      <trkpt lat="44.06469" lon="6.97002">
        <ele>1493.4000244141</ele>
        <time>2022-07-21T10:05:54.000Z</time>
      </trkpt>
      <trkpt lat="44.0647" lon="6.97008">
        <ele>1492.1999511719</ele>
        <time>2022-07-21T10:05:55.000Z</time>
      </trkpt>
      <trkpt lat="44.06469" lon="6.97022">
        <ele>1490.1999511719</ele>
        <time>2022-07-21T10:05:57.000Z</time>
      </trkpt>
      <trkpt lat="44.06468" lon="6.97029">
        <ele>1488.8000488281</ele>
        <time>2022-07-21T10:05:58.000Z</time>
      </trkpt>
      <trkpt lat="44.06466" lon="6.97036">
        <ele>1487.5999755859</ele>
        <time>2022-07-21T10:05:59.000Z</time>
      </trkpt>
      <trkpt lat="44.06465" lon="6.97041">
        <ele>1486.4000244141</ele>
        <time>2022-07-21T10:06:00.000Z</time>
      </trkpt>
      <trkpt lat="44.06463" lon="6.97046">
        <ele>1485.4000244141</ele>
        <time>2022-07-21T10:06:01.000Z</time>
      </trkpt>
      <trkpt lat="44.0646" lon="6.97056">
        <ele>1484</ele>
        <time>2022-07-21T10:06:03.000Z</time>
      </trkpt>
      <trkpt lat="44.06459" lon="6.97061">
        <ele>1483.1999511719</ele>
        <time>2022-07-21T10:06:04.000Z</time>
      </trkpt>
      <trkpt lat="44.06459" lon="6.97069">
        <ele>1482.5999755859</ele>
        <time>2022-07-21T10:06:05.000Z</time>
      </trkpt>
      <trkpt lat="44.06461" lon="6.97075">
        <ele>1482.8000488281</ele>
        <time>2022-07-21T10:06:07.000Z</time>
      </trkpt>
      <trkpt lat="44.0646" lon="6.97079">
        <ele>1482.4000244141</ele>
        <time>2022-07-21T10:06:08.000Z</time>
      </trkpt>
      <trkpt lat="44.06457" lon="6.97088">
        <ele>1482.4000244141</ele>
        <time>2022-07-21T10:06:10.000Z</time>
      </trkpt>
      <trkpt lat="44.06448" lon="6.97111">
        <ele>1481.4000244141</ele>
        <time>2022-07-21T10:06:13.000Z</time>
      </trkpt>
      <trkpt lat="44.06442" lon="6.97124">
        <ele>1480.5999755859</ele>
        <time>2022-07-21T10:06:15.000Z</time>
      </trkpt>
      <trkpt lat="44.06438" lon="6.97128">
        <ele>1479.8000488281</ele>
        <time>2022-07-21T10:06:16.000Z</time>
      </trkpt>
      <trkpt lat="44.06434" lon="6.9713">
        <ele>1479</ele>
        <time>2022-07-21T10:06:17.000Z</time>
      </trkpt>
      <trkpt lat="44.0643" lon="6.9713">
        <ele>1477.5999755859</ele>
        <time>2022-07-21T10:06:18.000Z</time>
      </trkpt>
      <trkpt lat="44.06424" lon="6.97131">
        <ele>1477</ele>
        <time>2022-07-21T10:06:20.000Z</time>
      </trkpt>
      <trkpt lat="44.06422" lon="6.97133">
        <ele>1476</ele>
        <time>2022-07-21T10:06:21.000Z</time>
      </trkpt>
      <trkpt lat="44.06417" lon="6.97136">
        <ele>1474.8000488281</ele>
        <time>2022-07-21T10:06:23.000Z</time>
      </trkpt>
      <trkpt lat="44.06413" lon="6.9714">
        <ele>1473.4000244141</ele>
        <time>2022-07-21T10:06:25.000Z</time>
      </trkpt>
      <trkpt lat="44.06411" lon="6.97139">
        <ele>1472.8000488281</ele>
        <time>2022-07-21T10:06:26.000Z</time>
      </trkpt>
      <trkpt lat="44.0641" lon="6.97138">
        <ele>1471.8000488281</ele>
        <time>2022-07-21T10:06:27.000Z</time>
      </trkpt>
      <trkpt lat="44.0641" lon="6.97136">
        <ele>1471.5999755859</ele>
        <time>2022-07-21T10:06:28.000Z</time>
      </trkpt>
      <trkpt lat="44.0641" lon="6.97133">
        <ele>1471</ele>
        <time>2022-07-21T10:06:30.000Z</time>
      </trkpt>
      <trkpt lat="44.06409" lon="6.97133">
        <ele>1470.4000244141</ele>
        <time>2022-07-21T10:06:31.000Z</time>
      </trkpt>
      <trkpt lat="44.06409" lon="6.97133">
        <ele>1469</ele>
        <time>2022-07-21T10:06:33.000Z</time>
      </trkpt>
      <trkpt lat="44.0641" lon="6.97133">
        <ele>1468</ele>
        <time>2022-07-21T10:06:36.000Z</time>
      </trkpt>
      <trkpt lat="44.06409" lon="6.97134">
        <ele>1466.8000488281</ele>
        <time>2022-07-21T10:06:41.000Z</time>
      </trkpt>
      <trkpt lat="44.06406" lon="6.9714">
        <ele>1466.4000244141</ele>
        <time>2022-07-21T10:06:43.000Z</time>
      </trkpt>
      <trkpt lat="44.06405" lon="6.97145">
        <ele>1465.8000488281</ele>
        <time>2022-07-21T10:06:44.000Z</time>
      </trkpt>
      <trkpt lat="44.06402" lon="6.9715">
        <ele>1464.5999755859</ele>
        <time>2022-07-21T10:06:45.000Z</time>
      </trkpt>
      <trkpt lat="44.06398" lon="6.97155">
        <ele>1464.4000244141</ele>
        <time>2022-07-21T10:06:46.000Z</time>
      </trkpt>
      <trkpt lat="44.06396" lon="6.97159">
        <ele>1463.5999755859</ele>
        <time>2022-07-21T10:06:47.000Z</time>
      </trkpt>
      <trkpt lat="44.06393" lon="6.97168">
        <ele>1461.8000488281</ele>
        <time>2022-07-21T10:06:49.000Z</time>
      </trkpt>
      <trkpt lat="44.06391" lon="6.97171">
        <ele>1460.8000488281</ele>
        <time>2022-07-21T10:06:50.000Z</time>
      </trkpt>
      <trkpt lat="44.06391" lon="6.97174">
        <ele>1460</ele>
        <time>2022-07-21T10:06:51.000Z</time>
      </trkpt>
      <trkpt lat="44.06388" lon="6.97181">
        <ele>1458.1999511719</ele>
        <time>2022-07-21T10:06:53.000Z</time>
      </trkpt>
      <trkpt lat="44.06387" lon="6.97185">
        <ele>1456.4000244141</ele>
        <time>2022-07-21T10:06:55.000Z</time>
      </trkpt>
      <trkpt lat="44.06386" lon="6.97186">
        <ele>1455.4000244141</ele>
        <time>2022-07-21T10:06:56.000Z</time>
      </trkpt>
      <trkpt lat="44.06384" lon="6.97191">
        <ele>1453.5999755859</ele>
        <time>2022-07-21T10:06:58.000Z</time>
      </trkpt>
      <trkpt lat="44.06382" lon="6.97196">
        <ele>1452.5999755859</ele>
        <time>2022-07-21T10:06:59.000Z</time>
      </trkpt>
      <trkpt lat="44.06379" lon="6.97205">
        <ele>1450.8000488281</ele>
        <time>2022-07-21T10:07:01.000Z</time>
      </trkpt>
      <trkpt lat="44.06377" lon="6.9721">
        <ele>1449.5999755859</ele>
        <time>2022-07-21T10:07:02.000Z</time>
      </trkpt>
      <trkpt lat="44.06373" lon="6.97213">
        <ele>1448.1999511719</ele>
        <time>2022-07-21T10:07:03.000Z</time>
      </trkpt>
      <trkpt lat="44.06367" lon="6.97222">
        <ele>1446</ele>
        <time>2022-07-21T10:07:05.000Z</time>
      </trkpt>
      <trkpt lat="44.06361" lon="6.97232">
        <ele>1444</ele>
        <time>2022-07-21T10:07:07.000Z</time>
      </trkpt>
      <trkpt lat="44.06359" lon="6.97235">
        <ele>1442.5999755859</ele>
        <time>2022-07-21T10:07:08.000Z</time>
      </trkpt>
      <trkpt lat="44.06357" lon="6.97236">
        <ele>1441.4000244141</ele>
        <time>2022-07-21T10:07:09.000Z</time>
      </trkpt>
      <trkpt lat="44.06356" lon="6.97235">
        <ele>1440.8000488281</ele>
        <time>2022-07-21T10:07:10.000Z</time>
      </trkpt>
      <trkpt lat="44.06356" lon="6.97233">
        <ele>1439.8000488281</ele>
        <time>2022-07-21T10:07:11.000Z</time>
      </trkpt>
      <trkpt lat="44.06356" lon="6.97232">
        <ele>1438.4000244141</ele>
        <time>2022-07-21T10:07:13.000Z</time>
      </trkpt>
      <trkpt lat="44.06357" lon="6.97232">
        <ele>1438</ele>
        <time>2022-07-21T10:07:14.000Z</time>
      </trkpt>
      <trkpt lat="44.06357" lon="6.97232">
        <ele>1437.4000244141</ele>
        <time>2022-07-21T10:07:15.000Z</time>
      </trkpt>
      <trkpt lat="44.06356" lon="6.97229">
        <ele>1437</ele>
        <time>2022-07-21T10:07:19.000Z</time>
      </trkpt>
      <trkpt lat="44.06351" lon="6.97229">
        <ele>1436.1999511719</ele>
        <time>2022-07-21T10:07:22.000Z</time>
      </trkpt>
      <trkpt lat="44.06349" lon="6.97229">
        <ele>1435.8000488281</ele>
        <time>2022-07-21T10:07:23.000Z</time>
      </trkpt>
      <trkpt lat="44.06346" lon="6.9723">
        <ele>1434.4000244141</ele>
        <time>2022-07-21T10:07:25.000Z</time>
      </trkpt>
      <trkpt lat="44.0634" lon="6.97231">
        <ele>1432.5999755859</ele>
        <time>2022-07-21T10:07:27.000Z</time>
      </trkpt>
      <trkpt lat="44.06338" lon="6.97232">
        <ele>1431.5999755859</ele>
        <time>2022-07-21T10:07:28.000Z</time>
      </trkpt>
      <trkpt lat="44.06333" lon="6.97237">
        <ele>1430</ele>
        <time>2022-07-21T10:07:30.000Z</time>
      </trkpt>
      <trkpt lat="44.06329" lon="6.97242">
        <ele>1428.1999511719</ele>
        <time>2022-07-21T10:07:32.000Z</time>
      </trkpt>
      <trkpt lat="44.06324" lon="6.97246">
        <ele>1426.8000488281</ele>
        <time>2022-07-21T10:07:34.000Z</time>
      </trkpt>
      <trkpt lat="44.06317" lon="6.97251">
        <ele>1425.5999755859</ele>
        <time>2022-07-21T10:07:36.000Z</time>
      </trkpt>
      <trkpt lat="44.06315" lon="6.97253">
        <ele>1424.4000244141</ele>
        <time>2022-07-21T10:07:37.000Z</time>
      </trkpt>
      <trkpt lat="44.06313" lon="6.97256">
        <ele>1423.8000488281</ele>
        <time>2022-07-21T10:07:38.000Z</time>
      </trkpt>
      <trkpt lat="44.06312" lon="6.97259">
        <ele>1423.1999511719</ele>
        <time>2022-07-21T10:07:39.000Z</time>
      </trkpt>
      <trkpt lat="44.06312" lon="6.97269">
        <ele>1421.1999511719</ele>
        <time>2022-07-21T10:07:41.000Z</time>
      </trkpt>
      <trkpt lat="44.06311" lon="6.97276">
        <ele>1420.5999755859</ele>
        <time>2022-07-21T10:07:42.000Z</time>
      </trkpt>
      <trkpt lat="44.06311" lon="6.97284">
        <ele>1420</ele>
        <time>2022-07-21T10:07:43.000Z</time>
      </trkpt>
      <trkpt lat="44.06309" lon="6.97291">
        <ele>1419.4000244141</ele>
        <time>2022-07-21T10:07:44.000Z</time>
      </trkpt>
      <trkpt lat="44.06308" lon="6.973">
        <ele>1418.5999755859</ele>
        <time>2022-07-21T10:07:45.000Z</time>
      </trkpt>
      <trkpt lat="44.06308" lon="6.97307">
        <ele>1417.8000488281</ele>
        <time>2022-07-21T10:07:46.000Z</time>
      </trkpt>
      <trkpt lat="44.0631" lon="6.97315">
        <ele>1417.1999511719</ele>
        <time>2022-07-21T10:07:47.000Z</time>
      </trkpt>
      <trkpt lat="44.06314" lon="6.97326">
        <ele>1415.8000488281</ele>
        <time>2022-07-21T10:07:49.000Z</time>
      </trkpt>
      <trkpt lat="44.06317" lon="6.97342">
        <ele>1415.1999511719</ele>
        <time>2022-07-21T10:07:52.000Z</time>
      </trkpt>
      <trkpt lat="44.06319" lon="6.97349">
        <ele>1415.4000244141</ele>
        <time>2022-07-21T10:07:53.000Z</time>
      </trkpt>
      <trkpt lat="44.0632" lon="6.9736">
        <ele>1415.4000244141</ele>
        <time>2022-07-21T10:07:55.000Z</time>
      </trkpt>
      <trkpt lat="44.06322" lon="6.97372">
        <ele>1414.4000244141</ele>
        <time>2022-07-21T10:07:57.000Z</time>
      </trkpt>
      <trkpt lat="44.06323" lon="6.97381">
        <ele>1413.1999511719</ele>
        <time>2022-07-21T10:07:59.000Z</time>
      </trkpt>
      <trkpt lat="44.06325" lon="6.97404">
        <ele>1413</ele>
        <time>2022-07-21T10:08:04.000Z</time>
      </trkpt>
      <trkpt lat="44.06324" lon="6.97409">
        <ele>1413.4000244141</ele>
        <time>2022-07-21T10:08:05.000Z</time>
      </trkpt>
      <trkpt lat="44.0632" lon="6.9742">
        <ele>1414.1999511719</ele>
        <time>2022-07-21T10:08:08.000Z</time>
      </trkpt>
      <trkpt lat="44.06318" lon="6.97424">
        <ele>1414.8000488281</ele>
        <time>2022-07-21T10:08:10.000Z</time>
      </trkpt>
      <trkpt lat="44.06318" lon="6.97427">
        <ele>1415.8000488281</ele>
        <time>2022-07-21T10:08:12.000Z</time>
      </trkpt>
      <trkpt lat="44.06318" lon="6.97427">
        <ele>1417.1999511719</ele>
        <time>2022-07-21T10:08:14.000Z</time>
      </trkpt>
      <trkpt lat="44.06318" lon="6.97428">
        <ele>1417.4000244141</ele>
        <time>2022-07-21T10:08:15.000Z</time>
      </trkpt>
      <trkpt lat="44.06317" lon="6.97429">
        <ele>1418</ele>
        <time>2022-07-21T10:08:24.000Z</time>
      </trkpt>
      <trkpt lat="44.06317" lon="6.97429">
        <ele>1418.1999511719</ele>
        <time>2022-07-21T10:08:25.000Z</time>
      </trkpt>
      <trkpt lat="44.06318" lon="6.97433">
        <ele>1418.5999755859</ele>
        <time>2022-07-21T10:08:30.000Z</time>
      </trkpt>
      <trkpt lat="44.06317" lon="6.97436">
        <ele>1419.4000244141</ele>
        <time>2022-07-21T10:08:34.000Z</time>
      </trkpt>
      <trkpt lat="44.06316" lon="6.97441">
        <ele>1420.5999755859</ele>
        <time>2022-07-21T10:08:39.000Z</time>
      </trkpt>
      <trkpt lat="44.06316" lon="6.97442">
        <ele>1420.8000488281</ele>
        <time>2022-07-21T10:08:40.000Z</time>
      </trkpt>
      <trkpt lat="44.06315" lon="6.97443">
        <ele>1421.5999755859</ele>
        <time>2022-07-21T10:08:43.000Z</time>
      </trkpt>
      <trkpt lat="44.06315" lon="6.97445">
        <ele>1422.4000244141</ele>
        <time>2022-07-21T10:08:47.000Z</time>
      </trkpt>
      <trkpt lat="44.06314" lon="6.97446">
        <ele>1422.8000488281</ele>
        <time>2022-07-21T10:08:49.000Z</time>
      </trkpt>
      <trkpt lat="44.06313" lon="6.97449">
        <ele>1423.1999511719</ele>
        <time>2022-07-21T10:08:55.000Z</time>
      </trkpt>
      <trkpt lat="44.06312" lon="6.97452">
        <ele>1423.8000488281</ele>
        <time>2022-07-21T10:08:59.000Z</time>
      </trkpt>
      <trkpt lat="44.06312" lon="6.97453">
        <ele>1424</ele>
        <time>2022-07-21T10:09:02.000Z</time>
      </trkpt>
      <trkpt lat="44.06312" lon="6.97454">
        <ele>1424</ele>
        <time>2022-07-21T10:09:04.000Z</time>
      </trkpt>
      <trkpt lat="44.06309" lon="6.97457">
        <ele>1424</ele>
        <time>2022-07-21T10:09:07.000Z</time>
      </trkpt>
      <trkpt lat="44.06308" lon="6.97461">
        <ele>1425</ele>
        <time>2022-07-21T10:09:11.000Z</time>
      </trkpt>
      <trkpt lat="44.06305" lon="6.97468">
        <ele>1426</ele>
        <time>2022-07-21T10:09:15.000Z</time>
      </trkpt>
      <trkpt lat="44.06305" lon="6.97469">
        <ele>1426.4000244141</ele>
        <time>2022-07-21T10:09:16.000Z</time>
      </trkpt>
      <trkpt lat="44.06305" lon="6.97469">
        <ele>1427</ele>
        <time>2022-07-21T10:09:18.000Z</time>
      </trkpt>
      <trkpt lat="44.06305" lon="6.97469">
        <ele>1427.8000488281</ele>
        <time>2022-07-21T10:09:22.000Z</time>
      </trkpt>
      <trkpt lat="44.06303" lon="6.97473">
        <ele>1427.5999755859</ele>
        <time>2022-07-21T10:09:33.000Z</time>
      </trkpt>
      <trkpt lat="44.06301" lon="6.97478">
        <ele>1428.1999511719</ele>
        <time>2022-07-21T10:09:36.000Z</time>
      </trkpt>
      <trkpt lat="44.063" lon="6.97483">
        <ele>1428.5999755859</ele>
        <time>2022-07-21T10:09:38.000Z</time>
      </trkpt>
      <trkpt lat="44.06299" lon="6.97484">
        <ele>1429</ele>
        <time>2022-07-21T10:09:39.000Z</time>
      </trkpt>
      <trkpt lat="44.06297" lon="6.97486">
        <ele>1429.4000244141</ele>
        <time>2022-07-21T10:09:40.000Z</time>
      </trkpt>
      <trkpt lat="44.06293" lon="6.97491">
        <ele>1430</ele>
        <time>2022-07-21T10:09:42.000Z</time>
      </trkpt>
      <trkpt lat="44.06292" lon="6.97494">
        <ele>1430.5999755859</ele>
        <time>2022-07-21T10:09:43.000Z</time>
      </trkpt>
      <trkpt lat="44.06292" lon="6.97497">
        <ele>1430.8000488281</ele>
        <time>2022-07-21T10:09:44.000Z</time>
      </trkpt>
      <trkpt lat="44.06289" lon="6.97502">
        <ele>1431.5999755859</ele>
        <time>2022-07-21T10:09:46.000Z</time>
      </trkpt>
      <trkpt lat="44.06288" lon="6.97504">
        <ele>1432</ele>
        <time>2022-07-21T10:09:47.000Z</time>
      </trkpt>
      <trkpt lat="44.06286" lon="6.97507">
        <ele>1432.5999755859</ele>
        <time>2022-07-21T10:09:48.000Z</time>
      </trkpt>
      <trkpt lat="44.06284" lon="6.97513">
        <ele>1433.5999755859</ele>
        <time>2022-07-21T10:09:50.000Z</time>
      </trkpt>
      <trkpt lat="44.06281" lon="6.97522">
        <ele>1435</ele>
        <time>2022-07-21T10:09:53.000Z</time>
      </trkpt>
      <trkpt lat="44.06273" lon="6.97539">
        <ele>1435.8000488281</ele>
        <time>2022-07-21T10:10:00.000Z</time>
      </trkpt>
      <trkpt lat="44.0627" lon="6.97555">
        <ele>1434.5999755859</ele>
        <time>2022-07-21T10:10:05.000Z</time>
      </trkpt>
      <trkpt lat="44.06266" lon="6.97566">
        <ele>1436.1999511719</ele>
        <time>2022-07-21T10:10:10.000Z</time>
      </trkpt>
      <trkpt lat="44.06264" lon="6.97569">
        <ele>1437.1999511719</ele>
        <time>2022-07-21T10:10:12.000Z</time>
      </trkpt>
      <trkpt lat="44.06261" lon="6.97572">
        <ele>1438.4000244141</ele>
        <time>2022-07-21T10:10:14.000Z</time>
      </trkpt>
      <trkpt lat="44.0626" lon="6.97573">
        <ele>1438.8000488281</ele>
        <time>2022-07-21T10:10:15.000Z</time>
      </trkpt>
      <trkpt lat="44.06258" lon="6.97575">
        <ele>1439.5999755859</ele>
        <time>2022-07-21T10:10:17.000Z</time>
      </trkpt>
      <trkpt lat="44.06255" lon="6.97576">
        <ele>1440.1999511719</ele>
        <time>2022-07-21T10:10:19.000Z</time>
      </trkpt>
      <trkpt lat="44.06249" lon="6.97579">
        <ele>1440.4000244141</ele>
        <time>2022-07-21T10:10:21.000Z</time>
      </trkpt>
      <trkpt lat="44.06234" lon="6.97595">
        <ele>1438.8000488281</ele>
        <time>2022-07-21T10:10:27.000Z</time>
      </trkpt>
      <trkpt lat="44.0622" lon="6.97606">
        <ele>1439.1999511719</ele>
        <time>2022-07-21T10:10:31.000Z</time>
      </trkpt>
      <trkpt lat="44.06215" lon="6.97613">
        <ele>1438.5999755859</ele>
        <time>2022-07-21T10:10:33.000Z</time>
      </trkpt>
      <trkpt lat="44.06213" lon="6.97615">
        <ele>1438.1999511719</ele>
        <time>2022-07-21T10:10:34.000Z</time>
      </trkpt>
      <trkpt lat="44.06208" lon="6.97616">
        <ele>1437.4000244141</ele>
        <time>2022-07-21T10:10:36.000Z</time>
      </trkpt>
      <trkpt lat="44.06206" lon="6.97618">
        <ele>1437.8000488281</ele>
        <time>2022-07-21T10:10:37.000Z</time>
      </trkpt>
      <trkpt lat="44.06197" lon="6.97623">
        <ele>1438.8000488281</ele>
        <time>2022-07-21T10:10:40.000Z</time>
      </trkpt>
      <trkpt lat="44.06194" lon="6.97626">
        <ele>1439.1999511719</ele>
        <time>2022-07-21T10:10:41.000Z</time>
      </trkpt>
      <trkpt lat="44.06191" lon="6.97628">
        <ele>1439.1999511719</ele>
        <time>2022-07-21T10:10:42.000Z</time>
      </trkpt>
      <trkpt lat="44.0618" lon="6.97632">
        <ele>1439.5999755859</ele>
        <time>2022-07-21T10:10:46.000Z</time>
      </trkpt>
      <trkpt lat="44.06173" lon="6.9764">
        <ele>1439</ele>
        <time>2022-07-21T10:10:49.000Z</time>
      </trkpt>
      <trkpt lat="44.06164" lon="6.97654">
        <ele>1440.1999511719</ele>
        <time>2022-07-21T10:10:54.000Z</time>
      </trkpt>
      <trkpt lat="44.06156" lon="6.97665">
        <ele>1441.1999511719</ele>
        <time>2022-07-21T10:10:58.000Z</time>
      </trkpt>
      <trkpt lat="44.06154" lon="6.97667">
        <ele>1441.4000244141</ele>
        <time>2022-07-21T10:10:59.000Z</time>
      </trkpt>
      <trkpt lat="44.06144" lon="6.97675">
        <ele>1442.5999755859</ele>
        <time>2022-07-21T10:11:03.000Z</time>
      </trkpt>
      <trkpt lat="44.06137" lon="6.97677">
        <ele>1444</ele>
        <time>2022-07-21T10:11:06.000Z</time>
      </trkpt>
      <trkpt lat="44.06135" lon="6.97678">
        <ele>1444.8000488281</ele>
        <time>2022-07-21T10:11:07.000Z</time>
      </trkpt>
      <trkpt lat="44.06133" lon="6.97678">
        <ele>1445.4000244141</ele>
        <time>2022-07-21T10:11:08.000Z</time>
      </trkpt>
      <trkpt lat="44.06132" lon="6.97679">
        <ele>1446</ele>
        <time>2022-07-21T10:11:09.000Z</time>
      </trkpt>
      <trkpt lat="44.0613" lon="6.9768">
        <ele>1446.8000488281</ele>
        <time>2022-07-21T10:11:10.000Z</time>
      </trkpt>
      <trkpt lat="44.06127" lon="6.97684">
        <ele>1447.8000488281</ele>
        <time>2022-07-21T10:11:12.000Z</time>
      </trkpt>
      <trkpt lat="44.06118" lon="6.97697">
        <ele>1448.5999755859</ele>
        <time>2022-07-21T10:11:15.000Z</time>
      </trkpt>
      <trkpt lat="44.06108" lon="6.97709">
        <ele>1447.4000244141</ele>
        <time>2022-07-21T10:11:19.000Z</time>
      </trkpt>
      <trkpt lat="44.06099" lon="6.97712">
        <ele>1447.8000488281</ele>
        <time>2022-07-21T10:11:23.000Z</time>
      </trkpt>
      <trkpt lat="44.06091" lon="6.97714">
        <ele>1447.5999755859</ele>
        <time>2022-07-21T10:11:27.000Z</time>
      </trkpt>
      <trkpt lat="44.06088" lon="6.97713">
        <ele>1447.4000244141</ele>
        <time>2022-07-21T10:11:28.000Z</time>
      </trkpt>
      <trkpt lat="44.06074" lon="6.97715">
        <ele>1447.5999755859</ele>
        <time>2022-07-21T10:11:32.000Z</time>
      </trkpt>
      <trkpt lat="44.06071" lon="6.97716">
        <ele>1447.8000488281</ele>
        <time>2022-07-21T10:11:33.000Z</time>
      </trkpt>
      <trkpt lat="44.06059" lon="6.97721">
        <ele>1448.1999511719</ele>
        <time>2022-07-21T10:11:37.000Z</time>
      </trkpt>
      <trkpt lat="44.06045" lon="6.97733">
        <ele>1448.1999511719</ele>
        <time>2022-07-21T10:11:41.000Z</time>
      </trkpt>
      <trkpt lat="44.06043" lon="6.97736">
        <ele>1448.4000244141</ele>
        <time>2022-07-21T10:11:44.000Z</time>
      </trkpt>
      <trkpt lat="44.06041" lon="6.97739">
        <ele>1449</ele>
        <time>2022-07-21T10:11:46.000Z</time>
      </trkpt>
      <trkpt lat="44.06037" lon="6.97742">
        <ele>1449.1999511719</ele>
        <time>2022-07-21T10:11:49.000Z</time>
      </trkpt>
      <trkpt lat="44.06033" lon="6.97746">
        <ele>1450.1999511719</ele>
        <time>2022-07-21T10:11:54.000Z</time>
      </trkpt>
      <trkpt lat="44.06033" lon="6.97746">
        <ele>1450.4000244141</ele>
        <time>2022-07-21T10:11:55.000Z</time>
      </trkpt>
      <trkpt lat="44.0603" lon="6.97747">
        <ele>1450.8000488281</ele>
        <time>2022-07-21T10:11:59.000Z</time>
      </trkpt>
      <trkpt lat="44.06026" lon="6.97747">
        <ele>1450.8000488281</ele>
        <time>2022-07-21T10:12:00.000Z</time>
      </trkpt>
      <trkpt lat="44.06015" lon="6.97748">
        <ele>1450.4000244141</ele>
        <time>2022-07-21T10:12:03.000Z</time>
      </trkpt>
      <trkpt lat="44.06014" lon="6.97748">
        <ele>1450.1999511719</ele>
        <time>2022-07-21T10:12:04.000Z</time>
      </trkpt>
      <trkpt lat="44.05999" lon="6.97752">
        <ele>1450.1999511719</ele>
        <time>2022-07-21T10:12:08.000Z</time>
      </trkpt>
      <trkpt lat="44.05988" lon="6.97755">
        <ele>1451.5999755859</ele>
        <time>2022-07-21T10:12:12.000Z</time>
      </trkpt>
      <trkpt lat="44.05986" lon="6.97756">
        <ele>1452.4000244141</ele>
        <time>2022-07-21T10:12:13.000Z</time>
      </trkpt>
      <trkpt lat="44.05985" lon="6.97757">
        <ele>1453.1999511719</ele>
        <time>2022-07-21T10:12:14.000Z</time>
      </trkpt>
      <trkpt lat="44.05984" lon="6.97757">
        <ele>1454.4000244141</ele>
        <time>2022-07-21T10:12:16.000Z</time>
      </trkpt>
      <trkpt lat="44.05984" lon="6.97757">
        <ele>1454.8000488281</ele>
        <time>2022-07-21T10:12:17.000Z</time>
      </trkpt>
      <trkpt lat="44.05982" lon="6.97758">
        <ele>1455</ele>
        <time>2022-07-21T10:12:26.000Z</time>
      </trkpt>
      <trkpt lat="44.05979" lon="6.9776">
        <ele>1455.1999511719</ele>
        <time>2022-07-21T10:12:31.000Z</time>
      </trkpt>
      <trkpt lat="44.05977" lon="6.97762">
        <ele>1455</ele>
        <time>2022-07-21T10:12:32.000Z</time>
      </trkpt>
      <trkpt lat="44.05971" lon="6.97772">
        <ele>1455.4000244141</ele>
        <time>2022-07-21T10:12:36.000Z</time>
      </trkpt>
      <trkpt lat="44.05969" lon="6.97773">
        <ele>1455.8000488281</ele>
        <time>2022-07-21T10:12:37.000Z</time>
      </trkpt>
      <trkpt lat="44.05965" lon="6.97778">
        <ele>1457</ele>
        <time>2022-07-21T10:12:41.000Z</time>
      </trkpt>
      <trkpt lat="44.05965" lon="6.97779">
        <ele>1457</ele>
        <time>2022-07-21T10:12:42.000Z</time>
      </trkpt>
      <trkpt lat="44.05964" lon="6.9778">
        <ele>1458</ele>
        <time>2022-07-21T10:12:48.000Z</time>
      </trkpt>
      <trkpt lat="44.05963" lon="6.97782">
        <ele>1458</ele>
        <time>2022-07-21T10:13:00.000Z</time>
      </trkpt>
      <trkpt lat="44.05964" lon="6.97786">
        <ele>1458.8000488281</ele>
        <time>2022-07-21T10:13:09.000Z</time>
      </trkpt>
      <trkpt lat="44.05964" lon="6.97787">
        <ele>1459</ele>
        <time>2022-07-21T10:13:10.000Z</time>
      </trkpt>
      <trkpt lat="44.05964" lon="6.97791">
        <ele>1460</ele>
        <time>2022-07-21T10:13:17.000Z</time>
      </trkpt>
      <trkpt lat="44.05964" lon="6.97791">
        <ele>1460.4000244141</ele>
        <time>2022-07-21T10:13:23.000Z</time>
      </trkpt>
      <trkpt lat="44.05965" lon="6.97792">
        <ele>1460.4000244141</ele>
        <time>2022-07-21T10:13:33.000Z</time>
      </trkpt>
      <trkpt lat="44.05967" lon="6.97793">
        <ele>1460.8000488281</ele>
        <time>2022-07-21T10:13:38.000Z</time>
      </trkpt>
      <trkpt lat="44.05967" lon="6.97793">
        <ele>1461</ele>
        <time>2022-07-21T10:13:39.000Z</time>
      </trkpt>
      <trkpt lat="44.05968" lon="6.97794">
        <ele>1461.4000244141</ele>
        <time>2022-07-21T10:13:45.000Z</time>
      </trkpt>
      <trkpt lat="44.0597" lon="6.97796">
        <ele>1462.1999511719</ele>
        <time>2022-07-21T10:13:50.000Z</time>
      </trkpt>
      <trkpt lat="44.05972" lon="6.97797">
        <ele>1463.1999511719</ele>
        <time>2022-07-21T10:13:54.000Z</time>
      </trkpt>
      <trkpt lat="44.05972" lon="6.97797">
        <ele>1463.4000244141</ele>
        <time>2022-07-21T10:13:55.000Z</time>
      </trkpt>
      <trkpt lat="44.05974" lon="6.97797">
        <ele>1464.5999755859</ele>
        <time>2022-07-21T10:14:01.000Z</time>
      </trkpt>
      <trkpt lat="44.05978" lon="6.97798">
        <ele>1464.5999755859</ele>
        <time>2022-07-21T10:14:07.000Z</time>
      </trkpt>
      <trkpt lat="44.05985" lon="6.97798">
        <ele>1465</ele>
        <time>2022-07-21T10:14:10.000Z</time>
      </trkpt>
      <trkpt lat="44.05987" lon="6.97798">
        <ele>1465.1999511719</ele>
        <time>2022-07-21T10:14:11.000Z</time>
      </trkpt>
      <trkpt lat="44.05989" lon="6.97798">
        <ele>1465.5999755859</ele>
        <time>2022-07-21T10:14:12.000Z</time>
      </trkpt>
      <trkpt lat="44.05993" lon="6.97799">
        <ele>1466.8000488281</ele>
        <time>2022-07-21T10:14:15.000Z</time>
      </trkpt>
      <trkpt lat="44.05997" lon="6.97801">
        <ele>1467.5999755859</ele>
        <time>2022-07-21T10:14:17.000Z</time>
      </trkpt>
      <trkpt lat="44.05998" lon="6.97802">
        <ele>1468</ele>
        <time>2022-07-21T10:14:18.000Z</time>
      </trkpt>
      <trkpt lat="44.06005" lon="6.97808">
        <ele>1468.8000488281</ele>
        <time>2022-07-21T10:14:22.000Z</time>
      </trkpt>
      <trkpt lat="44.06007" lon="6.97809">
        <ele>1469.1999511719</ele>
        <time>2022-07-21T10:14:23.000Z</time>
      </trkpt>
      <trkpt lat="44.06011" lon="6.97811">
        <ele>1470.4000244141</ele>
        <time>2022-07-21T10:14:26.000Z</time>
      </trkpt>
      <trkpt lat="44.06012" lon="6.9781">
        <ele>1471.5999755859</ele>
        <time>2022-07-21T10:14:30.000Z</time>
      </trkpt>
      <trkpt lat="44.06013" lon="6.97809">
        <ele>1472.5999755859</ele>
        <time>2022-07-21T10:14:35.000Z</time>
      </trkpt>
      <trkpt lat="44.06014" lon="6.97808">
        <ele>1473</ele>
        <time>2022-07-21T10:14:38.000Z</time>
      </trkpt>
      <trkpt lat="44.06015" lon="6.97808">
        <ele>1473.5999755859</ele>
        <time>2022-07-21T10:14:42.000Z</time>
      </trkpt>
      <trkpt lat="44.06016" lon="6.97808">
        <ele>1474</ele>
        <time>2022-07-21T10:14:44.000Z</time>
      </trkpt>
      <trkpt lat="44.06017" lon="6.97808">
        <ele>1473.8000488281</ele>
        <time>2022-07-21T10:14:54.000Z</time>
      </trkpt>
      <trkpt lat="44.06019" lon="6.97808">
        <ele>1473.8000488281</ele>
        <time>2022-07-21T10:15:04.000Z</time>
      </trkpt>
      <trkpt lat="44.06019" lon="6.97807">
        <ele>1473.8000488281</ele>
        <time>2022-07-21T10:15:16.000Z</time>
      </trkpt>
      <trkpt lat="44.06021" lon="6.97808">
        <ele>1473.5999755859</ele>
        <time>2022-07-21T10:15:30.000Z</time>
      </trkpt>
      <trkpt lat="44.06024" lon="6.97809">
        <ele>1473.8000488281</ele>
        <time>2022-07-21T10:15:47.000Z</time>
      </trkpt>
      <trkpt lat="44.06024" lon="6.97809">
        <ele>1473.8000488281</ele>
        <time>2022-07-21T10:15:55.000Z</time>
      </trkpt>
      <trkpt lat="44.06024" lon="6.97809">
        <ele>1473.8000488281</ele>
        <time>2022-07-21T10:16:03.000Z</time>
      </trkpt>
      <trkpt lat="44.06024" lon="6.97808">
        <ele>1473.5999755859</ele>
        <time>2022-07-21T10:16:13.000Z</time>
      </trkpt>
      <trkpt lat="44.06024" lon="6.97808">
        <ele>1473.5999755859</ele>
        <time>2022-07-21T10:16:22.000Z</time>
      </trkpt>
      <trkpt lat="44.06023" lon="6.97808">
        <ele>1473</ele>
        <time>2022-07-21T10:16:29.000Z</time>
      </trkpt>
      <trkpt lat="44.06022" lon="6.97807">
        <ele>1473</ele>
        <time>2022-07-21T10:16:37.000Z</time>
      </trkpt>
      <trkpt lat="44.0602" lon="6.97807">
        <ele>1473.5999755859</ele>
        <time>2022-07-21T10:16:53.000Z</time>
      </trkpt>
      <trkpt lat="44.06019" lon="6.97807">
        <ele>1473.8000488281</ele>
        <time>2022-07-21T10:17:01.000Z</time>
      </trkpt>
      <trkpt lat="44.06018" lon="6.97807">
        <ele>1473.5999755859</ele>
        <time>2022-07-21T10:17:12.000Z</time>
      </trkpt>
      <trkpt lat="44.06017" lon="6.97807">
        <ele>1473.4000244141</ele>
        <time>2022-07-21T10:17:32.000Z</time>
      </trkpt>
      <trkpt lat="44.06016" lon="6.97807">
        <ele>1473.4000244141</ele>
        <time>2022-07-21T10:17:48.000Z</time>
      </trkpt>
      <trkpt lat="44.06016" lon="6.97807">
        <ele>1473.1999511719</ele>
        <time>2022-07-21T10:17:55.000Z</time>
      </trkpt>
      <trkpt lat="44.06017" lon="6.97808">
        <ele>1473.4000244141</ele>
        <time>2022-07-21T10:18:04.000Z</time>
      </trkpt>
      <trkpt lat="44.06018" lon="6.97809">
        <ele>1473.4000244141</ele>
        <time>2022-07-21T10:18:18.000Z</time>
      </trkpt>
      <trkpt lat="44.06016" lon="6.97806">
        <ele>1473.4000244141</ele>
        <time>2022-07-21T10:18:41.000Z</time>
      </trkpt>
      <trkpt lat="44.06015" lon="6.97805">
        <ele>1473.4000244141</ele>
        <time>2022-07-21T10:19:02.000Z</time>
      </trkpt>
      <trkpt lat="44.06016" lon="6.97806">
        <ele>1473.4000244141</ele>
        <time>2022-07-21T10:19:15.000Z</time>
      </trkpt>
      <trkpt lat="44.06017" lon="6.97807">
        <ele>1473.1999511719</ele>
        <time>2022-07-21T10:19:29.000Z</time>
      </trkpt>
      <trkpt lat="44.06018" lon="6.97808">
        <ele>1473.1999511719</ele>
        <time>2022-07-21T10:19:40.000Z</time>
      </trkpt>
      <trkpt lat="44.06019" lon="6.97809">
        <ele>1472.8000488281</ele>
        <time>2022-07-21T10:19:55.000Z</time>
      </trkpt>
      <trkpt lat="44.06019" lon="6.97809">
        <ele>1472.8000488281</ele>
        <time>2022-07-21T10:20:16.000Z</time>
      </trkpt>
      <trkpt lat="44.0602" lon="6.97809">
        <ele>1472.8000488281</ele>
        <time>2022-07-21T10:20:28.000Z</time>
      </trkpt>
      <trkpt lat="44.0602" lon="6.97809">
        <ele>1472.8000488281</ele>
        <time>2022-07-21T10:20:39.000Z</time>
      </trkpt>
      <trkpt lat="44.0602" lon="6.97809">
        <ele>1473.1999511719</ele>
        <time>2022-07-21T10:20:50.000Z</time>
      </trkpt>
      <trkpt lat="44.06021" lon="6.97809">
        <ele>1472.5999755859</ele>
        <time>2022-07-21T10:20:57.000Z</time>
      </trkpt>
      <trkpt lat="44.0602" lon="6.97809">
        <ele>1471.5999755859</ele>
        <time>2022-07-21T10:21:01.000Z</time>
      </trkpt>
      <trkpt lat="44.0602" lon="6.97809">
        <ele>1471.1999511719</ele>
        <time>2022-07-21T10:21:03.000Z</time>
      </trkpt>
      <trkpt lat="44.0602" lon="6.97809">
        <ele>1470</ele>
        <time>2022-07-21T10:21:07.000Z</time>
      </trkpt>
      <trkpt lat="44.0602" lon="6.97809">
        <ele>1469</ele>
        <time>2022-07-21T10:21:09.000Z</time>
      </trkpt>
      <trkpt lat="44.0602" lon="6.97808">
        <ele>1467.8000488281</ele>
        <time>2022-07-21T10:21:19.000Z</time>
      </trkpt>
      <trkpt lat="44.0602" lon="6.97808">
        <ele>1466.5999755859</ele>
        <time>2022-07-21T10:21:24.000Z</time>
      </trkpt>
      <trkpt lat="44.06019" lon="6.97808">
        <ele>1465.4000244141</ele>
        <time>2022-07-21T10:21:26.000Z</time>
      </trkpt>
      <trkpt lat="44.06018" lon="6.97807">
        <ele>1466.5999755859</ele>
        <time>2022-07-21T10:21:36.000Z</time>
      </trkpt>
      <trkpt lat="44.06018" lon="6.97807">
        <ele>1468.5999755859</ele>
        <time>2022-07-21T10:21:37.000Z</time>
      </trkpt>
      <trkpt lat="44.06018" lon="6.97807">
        <ele>1469.8000488281</ele>
        <time>2022-07-21T10:21:38.000Z</time>
      </trkpt>
      <trkpt lat="44.06018" lon="6.97807">
        <ele>1471.1999511719</ele>
        <time>2022-07-21T10:21:39.000Z</time>
      </trkpt>
      <trkpt lat="44.06018" lon="6.97807">
        <ele>1472.4000244141</ele>
        <time>2022-07-21T10:21:40.000Z</time>
      </trkpt>
      <trkpt lat="44.06019" lon="6.97807">
        <ele>1472.5999755859</ele>
        <time>2022-07-21T10:21:44.000Z</time>
      </trkpt>
      <trkpt lat="44.06024" lon="6.97807">
        <ele>1472.8000488281</ele>
        <time>2022-07-21T10:21:54.000Z</time>
      </trkpt>
      <trkpt lat="44.06032" lon="6.97809">
        <ele>1473.4000244141</ele>
        <time>2022-07-21T10:21:58.000Z</time>
      </trkpt>
      <trkpt lat="44.06037" lon="6.97808">
        <ele>1473.5999755859</ele>
        <time>2022-07-21T10:22:00.000Z</time>
      </trkpt>
      <trkpt lat="44.06047" lon="6.97804">
        <ele>1474.5999755859</ele>
        <time>2022-07-21T10:22:04.000Z</time>
      </trkpt>
      <trkpt lat="44.0605" lon="6.97804">
        <ele>1475</ele>
        <time>2022-07-21T10:22:06.000Z</time>
      </trkpt>
      <trkpt lat="44.06051" lon="6.97807">
        <ele>1475.4000244141</ele>
        <time>2022-07-21T10:22:08.000Z</time>
      </trkpt>
      <trkpt lat="44.06052" lon="6.97809">
        <ele>1475.8000488281</ele>
        <time>2022-07-21T10:22:09.000Z</time>
      </trkpt>
      <trkpt lat="44.06056" lon="6.97818">
        <ele>1475</ele>
        <time>2022-07-21T10:22:13.000Z</time>
      </trkpt>
      <trkpt lat="44.06058" lon="6.97819">
        <ele>1474.4000244141</ele>
        <time>2022-07-21T10:22:14.000Z</time>
      </trkpt>
      <trkpt lat="44.0606" lon="6.97821">
        <ele>1473.5999755859</ele>
        <time>2022-07-21T10:22:15.000Z</time>
      </trkpt>
      <trkpt lat="44.06062" lon="6.97822">
        <ele>1472.8000488281</ele>
        <time>2022-07-21T10:22:16.000Z</time>
      </trkpt>
      <trkpt lat="44.06063" lon="6.97824">
        <ele>1472.1999511719</ele>
        <time>2022-07-21T10:22:17.000Z</time>
      </trkpt>
      <trkpt lat="44.06064" lon="6.97827">
        <ele>1471.4000244141</ele>
        <time>2022-07-21T10:22:18.000Z</time>
      </trkpt>
      <trkpt lat="44.06068" lon="6.97829">
        <ele>1469.8000488281</ele>
        <time>2022-07-21T10:22:20.000Z</time>
      </trkpt>
      <trkpt lat="44.06071" lon="6.9783">
        <ele>1469.1999511719</ele>
        <time>2022-07-21T10:22:21.000Z</time>
      </trkpt>
      <trkpt lat="44.06074" lon="6.97831">
        <ele>1468.5999755859</ele>
        <time>2022-07-21T10:22:22.000Z</time>
      </trkpt>
      <trkpt lat="44.06079" lon="6.97832">
        <ele>1467.4000244141</ele>
        <time>2022-07-21T10:22:24.000Z</time>
      </trkpt>
      <trkpt lat="44.06081" lon="6.97832">
        <ele>1467</ele>
        <time>2022-07-21T10:22:25.000Z</time>
      </trkpt>
      <trkpt lat="44.06083" lon="6.97835">
        <ele>1467</ele>
        <time>2022-07-21T10:22:26.000Z</time>
      </trkpt>
      <trkpt lat="44.06086" lon="6.97843">
        <ele>1467</ele>
        <time>2022-07-21T10:22:29.000Z</time>
      </trkpt>
      <trkpt lat="44.06089" lon="6.97848">
        <ele>1466</ele>
        <time>2022-07-21T10:22:31.000Z</time>
      </trkpt>
      <trkpt lat="44.06092" lon="6.97856">
        <ele>1464.5999755859</ele>
        <time>2022-07-21T10:22:33.000Z</time>
      </trkpt>
      <trkpt lat="44.06096" lon="6.97862">
        <ele>1463</ele>
        <time>2022-07-21T10:22:35.000Z</time>
      </trkpt>
      <trkpt lat="44.06101" lon="6.97867">
        <ele>1461.5999755859</ele>
        <time>2022-07-21T10:22:37.000Z</time>
      </trkpt>
      <trkpt lat="44.06106" lon="6.97871">
        <ele>1459.8000488281</ele>
        <time>2022-07-21T10:22:39.000Z</time>
      </trkpt>
      <trkpt lat="44.06109" lon="6.97874">
        <ele>1458.5999755859</ele>
        <time>2022-07-21T10:22:40.000Z</time>
      </trkpt>
      <trkpt lat="44.06116" lon="6.97876">
        <ele>1457.1999511719</ele>
        <time>2022-07-21T10:22:42.000Z</time>
      </trkpt>
      <trkpt lat="44.06121" lon="6.97876">
        <ele>1455.5999755859</ele>
        <time>2022-07-21T10:22:44.000Z</time>
      </trkpt>
      <trkpt lat="44.06123" lon="6.97878">
        <ele>1455</ele>
        <time>2022-07-21T10:22:45.000Z</time>
      </trkpt>
      <trkpt lat="44.06126" lon="6.97879">
        <ele>1454.1999511719</ele>
        <time>2022-07-21T10:22:46.000Z</time>
      </trkpt>
      <trkpt lat="44.06129" lon="6.97879">
        <ele>1452</ele>
        <time>2022-07-21T10:22:48.000Z</time>
      </trkpt>
      <trkpt lat="44.06131" lon="6.97879">
        <ele>1451.1999511719</ele>
        <time>2022-07-21T10:22:49.000Z</time>
      </trkpt>
      <trkpt lat="44.06134" lon="6.97879">
        <ele>1450.5999755859</ele>
        <time>2022-07-21T10:22:50.000Z</time>
      </trkpt>
      <trkpt lat="44.0614" lon="6.9788">
        <ele>1449.4000244141</ele>
        <time>2022-07-21T10:22:52.000Z</time>
      </trkpt>
      <trkpt lat="44.06143" lon="6.97878">
        <ele>1447.8000488281</ele>
        <time>2022-07-21T10:22:55.000Z</time>
      </trkpt>
      <trkpt lat="44.06152" lon="6.97876">
        <ele>1447.4000244141</ele>
        <time>2022-07-21T10:22:59.000Z</time>
      </trkpt>
      <trkpt lat="44.0616" lon="6.97876">
        <ele>1447.8000488281</ele>
        <time>2022-07-21T10:23:02.000Z</time>
      </trkpt>
      <trkpt lat="44.06159" lon="6.97876">
        <ele>1447.5999755859</ele>
        <time>2022-07-21T10:23:03.000Z</time>
      </trkpt>
      <trkpt lat="44.06164" lon="6.97872">
        <ele>1447.1999511719</ele>
        <time>2022-07-21T10:23:10.000Z</time>
      </trkpt>
      <trkpt lat="44.06166" lon="6.97871">
        <ele>1446.8000488281</ele>
        <time>2022-07-21T10:23:13.000Z</time>
      </trkpt>
      <trkpt lat="44.06168" lon="6.9787">
        <ele>1447</ele>
        <time>2022-07-21T10:23:16.000Z</time>
      </trkpt>
      <trkpt lat="44.06169" lon="6.97869">
        <ele>1447.8000488281</ele>
        <time>2022-07-21T10:23:20.000Z</time>
      </trkpt>
      <trkpt lat="44.0617" lon="6.97868">
        <ele>1448.1999511719</ele>
        <time>2022-07-21T10:23:26.000Z</time>
      </trkpt>
      <trkpt lat="44.06173" lon="6.9787">
        <ele>1448</ele>
        <time>2022-07-21T10:23:41.000Z</time>
      </trkpt>
      <trkpt lat="44.06173" lon="6.97871">
        <ele>1448.1999511719</ele>
        <time>2022-07-21T10:23:49.000Z</time>
      </trkpt>
      <trkpt lat="44.06172" lon="6.97872">
        <ele>1447.5999755859</ele>
        <time>2022-07-21T10:23:58.000Z</time>
      </trkpt>
      <trkpt lat="44.06173" lon="6.9787">
        <ele>1447.4000244141</ele>
        <time>2022-07-21T10:24:07.000Z</time>
      </trkpt>
      <trkpt lat="44.06174" lon="6.9787">
        <ele>1448</ele>
        <time>2022-07-21T10:24:14.000Z</time>
      </trkpt>
      <trkpt lat="44.06177" lon="6.97868">
        <ele>1448</ele>
        <time>2022-07-21T10:24:21.000Z</time>
      </trkpt>
      <trkpt lat="44.06181" lon="6.97866">
        <ele>1449</ele>
        <time>2022-07-21T10:24:27.000Z</time>
      </trkpt>
      <trkpt lat="44.06182" lon="6.97866">
        <ele>1449.1999511719</ele>
        <time>2022-07-21T10:24:29.000Z</time>
      </trkpt>
      <trkpt lat="44.06183" lon="6.97866">
        <ele>1450</ele>
        <time>2022-07-21T10:24:32.000Z</time>
      </trkpt>
      <trkpt lat="44.06186" lon="6.97865">
        <ele>1450.4000244141</ele>
        <time>2022-07-21T10:24:36.000Z</time>
      </trkpt>
      <trkpt lat="44.06188" lon="6.97864">
        <ele>1451.1999511719</ele>
        <time>2022-07-21T10:24:39.000Z</time>
      </trkpt>
      <trkpt lat="44.0619" lon="6.97863">
        <ele>1452</ele>
        <time>2022-07-21T10:24:43.000Z</time>
      </trkpt>
      <trkpt lat="44.06191" lon="6.97862">
        <ele>1452.4000244141</ele>
        <time>2022-07-21T10:24:45.000Z</time>
      </trkpt>
      <trkpt lat="44.06192" lon="6.97861">
        <ele>1453</ele>
        <time>2022-07-21T10:24:50.000Z</time>
      </trkpt>
      <trkpt lat="44.06193" lon="6.97859">
        <ele>1452.5999755859</ele>
        <time>2022-07-21T10:25:01.000Z</time>
      </trkpt>
      <trkpt lat="44.06199" lon="6.9786">
        <ele>1452.8000488281</ele>
        <time>2022-07-21T10:25:06.000Z</time>
      </trkpt>
      <trkpt lat="44.06202" lon="6.97862">
        <ele>1452.8000488281</ele>
        <time>2022-07-21T10:25:08.000Z</time>
      </trkpt>
      <trkpt lat="44.06204" lon="6.97866">
        <ele>1452.8000488281</ele>
        <time>2022-07-21T10:25:10.000Z</time>
      </trkpt>
      <trkpt lat="44.06206" lon="6.97867">
        <ele>1453</ele>
        <time>2022-07-21T10:25:12.000Z</time>
      </trkpt>
      <trkpt lat="44.0621" lon="6.9787">
        <ele>1452.5999755859</ele>
        <time>2022-07-21T10:25:15.000Z</time>
      </trkpt>
      <trkpt lat="44.0622" lon="6.97875">
        <ele>1452</ele>
        <time>2022-07-21T10:25:20.000Z</time>
      </trkpt>
      <trkpt lat="44.06229" lon="6.97885">
        <ele>1451.4000244141</ele>
        <time>2022-07-21T10:25:24.000Z</time>
      </trkpt>
      <trkpt lat="44.06238" lon="6.97891">
        <ele>1450.5999755859</ele>
        <time>2022-07-21T10:25:28.000Z</time>
      </trkpt>
      <trkpt lat="44.0624" lon="6.97893">
        <ele>1450.1999511719</ele>
        <time>2022-07-21T10:25:29.000Z</time>
      </trkpt>
      <trkpt lat="44.06244" lon="6.97898">
        <ele>1450.1999511719</ele>
        <time>2022-07-21T10:25:31.000Z</time>
      </trkpt>
      <trkpt lat="44.06256" lon="6.97904">
        <ele>1449.1999511719</ele>
        <time>2022-07-21T10:25:35.000Z</time>
      </trkpt>
      <trkpt lat="44.06257" lon="6.97905">
        <ele>1449</ele>
        <time>2022-07-21T10:25:36.000Z</time>
      </trkpt>
      <trkpt lat="44.06258" lon="6.97908">
        <ele>1448.8000488281</ele>
        <time>2022-07-21T10:25:37.000Z</time>
      </trkpt>
      <trkpt lat="44.0626" lon="6.9791">
        <ele>1448.8000488281</ele>
        <time>2022-07-21T10:25:38.000Z</time>
      </trkpt>
      <trkpt lat="44.06267" lon="6.97921">
        <ele>1447.4000244141</ele>
        <time>2022-07-21T10:25:42.000Z</time>
      </trkpt>
      <trkpt lat="44.06269" lon="6.97923">
        <ele>1446.4000244141</ele>
        <time>2022-07-21T10:25:43.000Z</time>
      </trkpt>
      <trkpt lat="44.0627" lon="6.97925">
        <ele>1445.1999511719</ele>
        <time>2022-07-21T10:25:44.000Z</time>
      </trkpt>
      <trkpt lat="44.06273" lon="6.97933">
        <ele>1443.8000488281</ele>
        <time>2022-07-21T10:25:47.000Z</time>
      </trkpt>
      <trkpt lat="44.06278" lon="6.97945">
        <ele>1443.8000488281</ele>
        <time>2022-07-21T10:25:52.000Z</time>
      </trkpt>
      <trkpt lat="44.06287" lon="6.97955">
        <ele>1443.8000488281</ele>
        <time>2022-07-21T10:25:57.000Z</time>
      </trkpt>
      <trkpt lat="44.06288" lon="6.97955">
        <ele>1443.5999755859</ele>
        <time>2022-07-21T10:25:58.000Z</time>
      </trkpt>
      <trkpt lat="44.06293" lon="6.97952">
        <ele>1443.1999511719</ele>
        <time>2022-07-21T10:26:01.000Z</time>
      </trkpt>
      <trkpt lat="44.06295" lon="6.97952">
        <ele>1445</ele>
        <time>2022-07-21T10:26:05.000Z</time>
      </trkpt>
      <trkpt lat="44.06296" lon="6.97953">
        <ele>1445.1999511719</ele>
        <time>2022-07-21T10:26:06.000Z</time>
      </trkpt>
      <trkpt lat="44.06299" lon="6.97957">
        <ele>1445.5999755859</ele>
        <time>2022-07-21T10:26:08.000Z</time>
      </trkpt>
      <trkpt lat="44.06302" lon="6.97958">
        <ele>1445.8000488281</ele>
        <time>2022-07-21T10:26:10.000Z</time>
      </trkpt>
      <trkpt lat="44.06307" lon="6.97961">
        <ele>1445.8000488281</ele>
        <time>2022-07-21T10:26:12.000Z</time>
      </trkpt>
      <trkpt lat="44.06316" lon="6.97963">
        <ele>1446.1999511719</ele>
        <time>2022-07-21T10:26:16.000Z</time>
      </trkpt>
      <trkpt lat="44.06326" lon="6.97971">
        <ele>1446.8000488281</ele>
        <time>2022-07-21T10:26:20.000Z</time>
      </trkpt>
      <trkpt lat="44.06338" lon="6.9798">
        <ele>1445.1999511719</ele>
        <time>2022-07-21T10:26:24.000Z</time>
      </trkpt>
      <trkpt lat="44.06341" lon="6.97982">
        <ele>1444.8000488281</ele>
        <time>2022-07-21T10:26:25.000Z</time>
      </trkpt>
      <trkpt lat="44.06345" lon="6.97988">
        <ele>1443.4000244141</ele>
        <time>2022-07-21T10:26:27.000Z</time>
      </trkpt>
      <trkpt lat="44.06346" lon="6.97989">
        <ele>1442.8000488281</ele>
        <time>2022-07-21T10:26:29.000Z</time>
      </trkpt>
      <trkpt lat="44.06348" lon="6.97993">
        <ele>1442.1999511719</ele>
        <time>2022-07-21T10:26:34.000Z</time>
      </trkpt>
      <trkpt lat="44.06348" lon="6.97993">
        <ele>1442.1999511719</ele>
        <time>2022-07-21T10:26:35.000Z</time>
      </trkpt>
      <trkpt lat="44.06353" lon="6.97997">
        <ele>1442.4000244141</ele>
        <time>2022-07-21T10:26:42.000Z</time>
      </trkpt>
      <trkpt lat="44.06356" lon="6.97999">
        <ele>1443.4000244141</ele>
        <time>2022-07-21T10:26:48.000Z</time>
      </trkpt>
      <trkpt lat="44.06359" lon="6.98001">
        <ele>1444.4000244141</ele>
        <time>2022-07-21T10:26:54.000Z</time>
      </trkpt>
      <trkpt lat="44.06361" lon="6.98002">
        <ele>1445</ele>
        <time>2022-07-21T10:27:00.000Z</time>
      </trkpt>
      <trkpt lat="44.06364" lon="6.98009">
        <ele>1444.8000488281</ele>
        <time>2022-07-21T10:27:06.000Z</time>
      </trkpt>
      <trkpt lat="44.06369" lon="6.98024">
        <ele>1444.5999755859</ele>
        <time>2022-07-21T10:27:11.000Z</time>
      </trkpt>
      <trkpt lat="44.06371" lon="6.98026">
        <ele>1444.4000244141</ele>
        <time>2022-07-21T10:27:12.000Z</time>
      </trkpt>
      <trkpt lat="44.06371" lon="6.98026">
        <ele>1443.8000488281</ele>
        <time>2022-07-21T10:27:14.000Z</time>
      </trkpt>
      <trkpt lat="44.06373" lon="6.98027">
        <ele>1444.4000244141</ele>
        <time>2022-07-21T10:27:21.000Z</time>
      </trkpt>
      <trkpt lat="44.06377" lon="6.98028">
        <ele>1445.1999511719</ele>
        <time>2022-07-21T10:27:30.000Z</time>
      </trkpt>
      <trkpt lat="44.0638" lon="6.98034">
        <ele>1445.1999511719</ele>
        <time>2022-07-21T10:27:39.000Z</time>
      </trkpt>
      <trkpt lat="44.0638" lon="6.98036">
        <ele>1445</ele>
        <time>2022-07-21T10:27:40.000Z</time>
      </trkpt>
      <trkpt lat="44.06381" lon="6.9804">
        <ele>1444</ele>
        <time>2022-07-21T10:27:43.000Z</time>
      </trkpt>
      <trkpt lat="44.06379" lon="6.98043">
        <ele>1443</ele>
        <time>2022-07-21T10:27:45.000Z</time>
      </trkpt>
      <trkpt lat="44.06378" lon="6.98047">
        <ele>1442.1999511719</ele>
        <time>2022-07-21T10:27:47.000Z</time>
      </trkpt>
      <trkpt lat="44.0638" lon="6.98049">
        <ele>1441.5999755859</ele>
        <time>2022-07-21T10:27:48.000Z</time>
      </trkpt>
      <trkpt lat="44.06382" lon="6.98051">
        <ele>1440.4000244141</ele>
        <time>2022-07-21T10:27:50.000Z</time>
      </trkpt>
      <trkpt lat="44.06383" lon="6.9805">
        <ele>1439.8000488281</ele>
        <time>2022-07-21T10:27:51.000Z</time>
      </trkpt>
      <trkpt lat="44.06383" lon="6.98051">
        <ele>1439</ele>
        <time>2022-07-21T10:27:52.000Z</time>
      </trkpt>
      <trkpt lat="44.06383" lon="6.98051">
        <ele>1437.8000488281</ele>
        <time>2022-07-21T10:27:54.000Z</time>
      </trkpt>
      <trkpt lat="44.06383" lon="6.98051">
        <ele>1437.1999511719</ele>
        <time>2022-07-21T10:27:56.000Z</time>
      </trkpt>
      <trkpt lat="44.06384" lon="6.98051">
        <ele>1437.1999511719</ele>
        <time>2022-07-21T10:28:05.000Z</time>
      </trkpt>
      <trkpt lat="44.0639" lon="6.98052">
        <ele>1437.4000244141</ele>
        <time>2022-07-21T10:28:10.000Z</time>
      </trkpt>
      <trkpt lat="44.06387" lon="6.98051">
        <ele>1437.1999511719</ele>
        <time>2022-07-21T10:28:13.000Z</time>
      </trkpt>
      <trkpt lat="44.06387" lon="6.98052">
        <ele>1437.1999511719</ele>
        <time>2022-07-21T10:28:18.000Z</time>
      </trkpt>
      <trkpt lat="44.06387" lon="6.98055">
        <ele>1437.5999755859</ele>
        <time>2022-07-21T10:28:26.000Z</time>
      </trkpt>
      <trkpt lat="44.06389" lon="6.98056">
        <ele>1437.8000488281</ele>
        <time>2022-07-21T10:28:38.000Z</time>
      </trkpt>
      <trkpt lat="44.06389" lon="6.98056">
        <ele>1437.8000488281</ele>
        <time>2022-07-21T10:28:48.000Z</time>
      </trkpt>
      <trkpt lat="44.06388" lon="6.98057">
        <ele>1437.8000488281</ele>
        <time>2022-07-21T10:29:00.000Z</time>
      </trkpt>
      <trkpt lat="44.0639" lon="6.98057">
        <ele>1437.8000488281</ele>
        <time>2022-07-21T10:29:06.000Z</time>
      </trkpt>
      <trkpt lat="44.06395" lon="6.98058">
        <ele>1437.8000488281</ele>
        <time>2022-07-21T10:29:08.000Z</time>
      </trkpt>
      <trkpt lat="44.06406" lon="6.98053">
        <ele>1437</ele>
        <time>2022-07-21T10:29:11.000Z</time>
      </trkpt>
      <trkpt lat="44.06409" lon="6.98051">
        <ele>1436.5999755859</ele>
        <time>2022-07-21T10:29:12.000Z</time>
      </trkpt>
      <trkpt lat="44.06417" lon="6.98045">
        <ele>1435.8000488281</ele>
        <time>2022-07-21T10:29:15.000Z</time>
      </trkpt>
      <trkpt lat="44.06435" lon="6.98041">
        <ele>1435.5999755859</ele>
        <time>2022-07-21T10:29:19.000Z</time>
      </trkpt>
      <trkpt lat="44.06443" lon="6.9804">
        <ele>1435.1999511719</ele>
        <time>2022-07-21T10:29:21.000Z</time>
      </trkpt>
      <trkpt lat="44.06453" lon="6.9804">
        <ele>1434.4000244141</ele>
        <time>2022-07-21T10:29:23.000Z</time>
      </trkpt>
      <trkpt lat="44.06458" lon="6.9804">
        <ele>1433.8000488281</ele>
        <time>2022-07-21T10:29:24.000Z</time>
      </trkpt>
      <trkpt lat="44.06467" lon="6.9804">
        <ele>1432.4000244141</ele>
        <time>2022-07-21T10:29:26.000Z</time>
      </trkpt>
      <trkpt lat="44.06476" lon="6.98041">
        <ele>1430.4000244141</ele>
        <time>2022-07-21T10:29:28.000Z</time>
      </trkpt>
      <trkpt lat="44.06481" lon="6.98042">
        <ele>1429.5999755859</ele>
        <time>2022-07-21T10:29:29.000Z</time>
      </trkpt>
      <trkpt lat="44.06484" lon="6.98047">
        <ele>1428.5999755859</ele>
        <time>2022-07-21T10:29:30.000Z</time>
      </trkpt>
      <trkpt lat="44.06488" lon="6.98051">
        <ele>1427.4000244141</ele>
        <time>2022-07-21T10:29:31.000Z</time>
      </trkpt>
      <trkpt lat="44.06491" lon="6.98054">
        <ele>1426</ele>
        <time>2022-07-21T10:29:32.000Z</time>
      </trkpt>
      <trkpt lat="44.06496" lon="6.98056">
        <ele>1424.5999755859</ele>
        <time>2022-07-21T10:29:33.000Z</time>
      </trkpt>
      <trkpt lat="44.065" lon="6.98057">
        <ele>1423.5999755859</ele>
        <time>2022-07-21T10:29:34.000Z</time>
      </trkpt>
      <trkpt lat="44.06502" lon="6.98059">
        <ele>1422.1999511719</ele>
        <time>2022-07-21T10:29:35.000Z</time>
      </trkpt>
      <trkpt lat="44.06505" lon="6.98063">
        <ele>1420.8000488281</ele>
        <time>2022-07-21T10:29:37.000Z</time>
      </trkpt>
      <trkpt lat="44.06506" lon="6.98064">
        <ele>1420.4000244141</ele>
        <time>2022-07-21T10:29:38.000Z</time>
      </trkpt>
      <trkpt lat="44.06508" lon="6.98065">
        <ele>1419.4000244141</ele>
        <time>2022-07-21T10:29:39.000Z</time>
      </trkpt>
      <trkpt lat="44.06512" lon="6.98066">
        <ele>1418.4000244141</ele>
        <time>2022-07-21T10:29:41.000Z</time>
      </trkpt>
      <trkpt lat="44.06519" lon="6.98069">
        <ele>1417.5999755859</ele>
        <time>2022-07-21T10:29:44.000Z</time>
      </trkpt>
      <trkpt lat="44.06521" lon="6.98073">
        <ele>1417.4000244141</ele>
        <time>2022-07-21T10:29:47.000Z</time>
      </trkpt>
      <trkpt lat="44.06528" lon="6.9808">
        <ele>1416</ele>
        <time>2022-07-21T10:29:50.000Z</time>
      </trkpt>
      <trkpt lat="44.0653" lon="6.98082">
        <ele>1415.1999511719</ele>
        <time>2022-07-21T10:29:51.000Z</time>
      </trkpt>
      <trkpt lat="44.06532" lon="6.98084">
        <ele>1414.4000244141</ele>
        <time>2022-07-21T10:29:52.000Z</time>
      </trkpt>
      <trkpt lat="44.06536" lon="6.98086">
        <ele>1412.8000488281</ele>
        <time>2022-07-21T10:29:54.000Z</time>
      </trkpt>
      <trkpt lat="44.06539" lon="6.9809">
        <ele>1411.8000488281</ele>
        <time>2022-07-21T10:29:56.000Z</time>
      </trkpt>
      <trkpt lat="44.06541" lon="6.98091">
        <ele>1411.4000244141</ele>
        <time>2022-07-21T10:29:57.000Z</time>
      </trkpt>
      <trkpt lat="44.06543" lon="6.98092">
        <ele>1410</ele>
        <time>2022-07-21T10:29:59.000Z</time>
      </trkpt>
      <trkpt lat="44.06544" lon="6.98092">
        <ele>1409.4000244141</ele>
        <time>2022-07-21T10:30:00.000Z</time>
      </trkpt>
      <trkpt lat="44.06545" lon="6.98092">
        <ele>1409</ele>
        <time>2022-07-21T10:30:01.000Z</time>
      </trkpt>
      <trkpt lat="44.06549" lon="6.98097">
        <ele>1408.4000244141</ele>
        <time>2022-07-21T10:30:05.000Z</time>
      </trkpt>
      <trkpt lat="44.0655" lon="6.98097">
        <ele>1407.8000488281</ele>
        <time>2022-07-21T10:30:07.000Z</time>
      </trkpt>
      <trkpt lat="44.0655" lon="6.98099">
        <ele>1406.8000488281</ele>
        <time>2022-07-21T10:30:09.000Z</time>
      </trkpt>
      <trkpt lat="44.0655" lon="6.98104">
        <ele>1406.4000244141</ele>
        <time>2022-07-21T10:30:11.000Z</time>
      </trkpt>
      <trkpt lat="44.06549" lon="6.98104">
        <ele>1406</ele>
        <time>2022-07-21T10:30:12.000Z</time>
      </trkpt>
      <trkpt lat="44.06548" lon="6.98104">
        <ele>1405.1999511719</ele>
        <time>2022-07-21T10:30:15.000Z</time>
      </trkpt>
      <trkpt lat="44.06547" lon="6.98103">
        <ele>1404.8000488281</ele>
        <time>2022-07-21T10:30:17.000Z</time>
      </trkpt>
      <trkpt lat="44.06547" lon="6.98107">
        <ele>1404.4000244141</ele>
        <time>2022-07-21T10:30:20.000Z</time>
      </trkpt>
      <trkpt lat="44.06549" lon="6.9811">
        <ele>1404</ele>
        <time>2022-07-21T10:30:21.000Z</time>
      </trkpt>
      <trkpt lat="44.06552" lon="6.98112">
        <ele>1403</ele>
        <time>2022-07-21T10:30:23.000Z</time>
      </trkpt>
      <trkpt lat="44.06554" lon="6.98114">
        <ele>1401.1999511719</ele>
        <time>2022-07-21T10:30:25.000Z</time>
      </trkpt>
      <trkpt lat="44.06557" lon="6.98114">
        <ele>1400.4000244141</ele>
        <time>2022-07-21T10:30:26.000Z</time>
      </trkpt>
      <trkpt lat="44.06561" lon="6.98115">
        <ele>1399.5999755859</ele>
        <time>2022-07-21T10:30:27.000Z</time>
      </trkpt>
      <trkpt lat="44.06566" lon="6.98114">
        <ele>1399</ele>
        <time>2022-07-21T10:30:28.000Z</time>
      </trkpt>
      <trkpt lat="44.06574" lon="6.98115">
        <ele>1398.4000244141</ele>
        <time>2022-07-21T10:30:30.000Z</time>
      </trkpt>
      <trkpt lat="44.06582" lon="6.98116">
        <ele>1397.4000244141</ele>
        <time>2022-07-21T10:30:32.000Z</time>
      </trkpt>
      <trkpt lat="44.06585" lon="6.98121">
        <ele>1396.1999511719</ele>
        <time>2022-07-21T10:30:33.000Z</time>
      </trkpt>
      <trkpt lat="44.0659" lon="6.98131">
        <ele>1394.5999755859</ele>
        <time>2022-07-21T10:30:35.000Z</time>
      </trkpt>
      <trkpt lat="44.06595" lon="6.98138">
        <ele>1392.5999755859</ele>
        <time>2022-07-21T10:30:37.000Z</time>
      </trkpt>
      <trkpt lat="44.066" lon="6.98149">
        <ele>1391.4000244141</ele>
        <time>2022-07-21T10:30:39.000Z</time>
      </trkpt>
      <trkpt lat="44.06605" lon="6.98161">
        <ele>1389.8000488281</ele>
        <time>2022-07-21T10:30:41.000Z</time>
      </trkpt>
      <trkpt lat="44.06607" lon="6.98169">
        <ele>1388.5999755859</ele>
        <time>2022-07-21T10:30:42.000Z</time>
      </trkpt>
      <trkpt lat="44.06607" lon="6.98176">
        <ele>1387.5999755859</ele>
        <time>2022-07-21T10:30:43.000Z</time>
      </trkpt>
      <trkpt lat="44.06608" lon="6.98181">
        <ele>1386.1999511719</ele>
        <time>2022-07-21T10:30:44.000Z</time>
      </trkpt>
      <trkpt lat="44.06607" lon="6.98185">
        <ele>1385</ele>
        <time>2022-07-21T10:30:45.000Z</time>
      </trkpt>
      <trkpt lat="44.06607" lon="6.98191">
        <ele>1384.1999511719</ele>
        <time>2022-07-21T10:30:46.000Z</time>
      </trkpt>
      <trkpt lat="44.06607" lon="6.98196">
        <ele>1383.4000244141</ele>
        <time>2022-07-21T10:30:47.000Z</time>
      </trkpt>
      <trkpt lat="44.06609" lon="6.98201">
        <ele>1382.1999511719</ele>
        <time>2022-07-21T10:30:48.000Z</time>
      </trkpt>
      <trkpt lat="44.06614" lon="6.98205">
        <ele>1381.1999511719</ele>
        <time>2022-07-21T10:30:50.000Z</time>
      </trkpt>
      <trkpt lat="44.06619" lon="6.98204">
        <ele>1380.5999755859</ele>
        <time>2022-07-21T10:30:51.000Z</time>
      </trkpt>
      <trkpt lat="44.06627" lon="6.98208">
        <ele>1379.4000244141</ele>
        <time>2022-07-21T10:30:53.000Z</time>
      </trkpt>
      <trkpt lat="44.06636" lon="6.98214">
        <ele>1377.1999511719</ele>
        <time>2022-07-21T10:30:55.000Z</time>
      </trkpt>
      <trkpt lat="44.0664" lon="6.98224">
        <ele>1375.5999755859</ele>
        <time>2022-07-21T10:30:57.000Z</time>
      </trkpt>
      <trkpt lat="44.06641" lon="6.9823">
        <ele>1374</ele>
        <time>2022-07-21T10:30:59.000Z</time>
      </trkpt>
      <trkpt lat="44.06641" lon="6.98231">
        <ele>1373.5999755859</ele>
        <time>2022-07-21T10:31:00.000Z</time>
      </trkpt>
      <trkpt lat="44.0664" lon="6.98232">
        <ele>1372.8000488281</ele>
        <time>2022-07-21T10:31:01.000Z</time>
      </trkpt>
      <trkpt lat="44.06638" lon="6.98236">
        <ele>1371.5999755859</ele>
        <time>2022-07-21T10:31:03.000Z</time>
      </trkpt>
      <trkpt lat="44.06639" lon="6.9824">
        <ele>1371</ele>
        <time>2022-07-21T10:31:04.000Z</time>
      </trkpt>
      <trkpt lat="44.06639" lon="6.98243">
        <ele>1370.5999755859</ele>
        <time>2022-07-21T10:31:05.000Z</time>
      </trkpt>
      <trkpt lat="44.06641" lon="6.98247">
        <ele>1369.8000488281</ele>
        <time>2022-07-21T10:31:06.000Z</time>
      </trkpt>
      <trkpt lat="44.06643" lon="6.98253">
        <ele>1368.5999755859</ele>
        <time>2022-07-21T10:31:07.000Z</time>
      </trkpt>
      <trkpt lat="44.06644" lon="6.98257">
        <ele>1367.5999755859</ele>
        <time>2022-07-21T10:31:08.000Z</time>
      </trkpt>
      <trkpt lat="44.06645" lon="6.98261">
        <ele>1366.4000244141</ele>
        <time>2022-07-21T10:31:09.000Z</time>
      </trkpt>
      <trkpt lat="44.06645" lon="6.98268">
        <ele>1364.8000488281</ele>
        <time>2022-07-21T10:31:11.000Z</time>
      </trkpt>
      <trkpt lat="44.06645" lon="6.98269">
        <ele>1364</ele>
        <time>2022-07-21T10:31:12.000Z</time>
      </trkpt>
      <trkpt lat="44.06644" lon="6.98268">
        <ele>1363.4000244141</ele>
        <time>2022-07-21T10:31:13.000Z</time>
      </trkpt>
      <trkpt lat="44.06641" lon="6.98264">
        <ele>1362.1999511719</ele>
        <time>2022-07-21T10:31:15.000Z</time>
      </trkpt>
      <trkpt lat="44.06637" lon="6.98259">
        <ele>1361.4000244141</ele>
        <time>2022-07-21T10:31:17.000Z</time>
      </trkpt>
      <trkpt lat="44.06635" lon="6.98258">
        <ele>1360.8000488281</ele>
        <time>2022-07-21T10:31:18.000Z</time>
      </trkpt>
      <trkpt lat="44.06634" lon="6.98259">
        <ele>1360.4000244141</ele>
        <time>2022-07-21T10:31:19.000Z</time>
      </trkpt>
      <trkpt lat="44.06632" lon="6.9826">
        <ele>1359.5999755859</ele>
        <time>2022-07-21T10:31:21.000Z</time>
      </trkpt>
      <trkpt lat="44.06634" lon="6.98263">
        <ele>1358</ele>
        <time>2022-07-21T10:31:23.000Z</time>
      </trkpt>
      <trkpt lat="44.06634" lon="6.98267">
        <ele>1356.8000488281</ele>
        <time>2022-07-21T10:31:25.000Z</time>
      </trkpt>
      <trkpt lat="44.06634" lon="6.98273">
        <ele>1355.5999755859</ele>
        <time>2022-07-21T10:31:27.000Z</time>
      </trkpt>
      <trkpt lat="44.06636" lon="6.98279">
        <ele>1354.5999755859</ele>
        <time>2022-07-21T10:31:29.000Z</time>
      </trkpt>
      <trkpt lat="44.06638" lon="6.98282">
        <ele>1353.4000244141</ele>
        <time>2022-07-21T10:31:30.000Z</time>
      </trkpt>
      <trkpt lat="44.0664" lon="6.9829">
        <ele>1351.5999755859</ele>
        <time>2022-07-21T10:31:32.000Z</time>
      </trkpt>
      <trkpt lat="44.06639" lon="6.98294">
        <ele>1350.4000244141</ele>
        <time>2022-07-21T10:31:33.000Z</time>
      </trkpt>
      <trkpt lat="44.0664" lon="6.98299">
        <ele>1349.8000488281</ele>
        <time>2022-07-21T10:31:34.000Z</time>
      </trkpt>
      <trkpt lat="44.06642" lon="6.98302">
        <ele>1349</ele>
        <time>2022-07-21T10:31:35.000Z</time>
      </trkpt>
      <trkpt lat="44.06644" lon="6.98305">
        <ele>1348</ele>
        <time>2022-07-21T10:31:36.000Z</time>
      </trkpt>
      <trkpt lat="44.06644" lon="6.98305">
        <ele>1346.4000244141</ele>
        <time>2022-07-21T10:31:38.000Z</time>
      </trkpt>
      <trkpt lat="44.06642" lon="6.98306">
        <ele>1346</ele>
        <time>2022-07-21T10:31:39.000Z</time>
      </trkpt>
      <trkpt lat="44.06639" lon="6.98306">
        <ele>1345.4000244141</ele>
        <time>2022-07-21T10:31:40.000Z</time>
      </trkpt>
      <trkpt lat="44.06637" lon="6.98304">
        <ele>1345.1999511719</ele>
        <time>2022-07-21T10:31:41.000Z</time>
      </trkpt>
      <trkpt lat="44.06635" lon="6.98304">
        <ele>1344</ele>
        <time>2022-07-21T10:31:42.000Z</time>
      </trkpt>
      <trkpt lat="44.06637" lon="6.98306">
        <ele>1342.8000488281</ele>
        <time>2022-07-21T10:31:44.000Z</time>
      </trkpt>
      <trkpt lat="44.06638" lon="6.98311">
        <ele>1341.8000488281</ele>
        <time>2022-07-21T10:31:46.000Z</time>
      </trkpt>
      <trkpt lat="44.06641" lon="6.98315">
        <ele>1341.4000244141</ele>
        <time>2022-07-21T10:31:48.000Z</time>
      </trkpt>
      <trkpt lat="44.06644" lon="6.98316">
        <ele>1341.1999511719</ele>
        <time>2022-07-21T10:31:49.000Z</time>
      </trkpt>
      <trkpt lat="44.06646" lon="6.98318">
        <ele>1340.4000244141</ele>
        <time>2022-07-21T10:31:50.000Z</time>
      </trkpt>
      <trkpt lat="44.06649" lon="6.9832">
        <ele>1339.4000244141</ele>
        <time>2022-07-21T10:31:52.000Z</time>
      </trkpt>
      <trkpt lat="44.06649" lon="6.98321">
        <ele>1338.8000488281</ele>
        <time>2022-07-21T10:31:53.000Z</time>
      </trkpt>
      <trkpt lat="44.06649" lon="6.98322">
        <ele>1338</ele>
        <time>2022-07-21T10:31:54.000Z</time>
      </trkpt>
      <trkpt lat="44.06648" lon="6.98322">
        <ele>1336.8000488281</ele>
        <time>2022-07-21T10:31:57.000Z</time>
      </trkpt>
      <trkpt lat="44.06647" lon="6.98323">
        <ele>1336.8000488281</ele>
        <time>2022-07-21T10:31:58.000Z</time>
      </trkpt>
      <trkpt lat="44.0664" lon="6.98328">
        <ele>1336.5999755859</ele>
        <time>2022-07-21T10:32:01.000Z</time>
      </trkpt>
      <trkpt lat="44.06631" lon="6.98329">
        <ele>1335.8000488281</ele>
        <time>2022-07-21T10:32:04.000Z</time>
      </trkpt>
      <trkpt lat="44.06629" lon="6.98328">
        <ele>1335</ele>
        <time>2022-07-21T10:32:05.000Z</time>
      </trkpt>
      <trkpt lat="44.06627" lon="6.98324">
        <ele>1334.1999511719</ele>
        <time>2022-07-21T10:32:06.000Z</time>
      </trkpt>
      <trkpt lat="44.06626" lon="6.98322">
        <ele>1333.4000244141</ele>
        <time>2022-07-21T10:32:07.000Z</time>
      </trkpt>
      <trkpt lat="44.06625" lon="6.98322">
        <ele>1332.8000488281</ele>
        <time>2022-07-21T10:32:08.000Z</time>
      </trkpt>
      <trkpt lat="44.06626" lon="6.98325">
        <ele>1331.5999755859</ele>
        <time>2022-07-21T10:32:10.000Z</time>
      </trkpt>
      <trkpt lat="44.06627" lon="6.98333">
        <ele>1330.8000488281</ele>
        <time>2022-07-21T10:32:12.000Z</time>
      </trkpt>
      <trkpt lat="44.06629" lon="6.98336">
        <ele>1330.4000244141</ele>
        <time>2022-07-21T10:32:13.000Z</time>
      </trkpt>
      <trkpt lat="44.06638" lon="6.98344">
        <ele>1329.1999511719</ele>
        <time>2022-07-21T10:32:16.000Z</time>
      </trkpt>
      <trkpt lat="44.06647" lon="6.98345">
        <ele>1327.8000488281</ele>
        <time>2022-07-21T10:32:18.000Z</time>
      </trkpt>
      <trkpt lat="44.06656" lon="6.98343">
        <ele>1326.5999755859</ele>
        <time>2022-07-21T10:32:20.000Z</time>
      </trkpt>
      <trkpt lat="44.06665" lon="6.98346">
        <ele>1325.5999755859</ele>
        <time>2022-07-21T10:32:22.000Z</time>
      </trkpt>
      <trkpt lat="44.06668" lon="6.98348">
        <ele>1324.8000488281</ele>
        <time>2022-07-21T10:32:23.000Z</time>
      </trkpt>
      <trkpt lat="44.0667" lon="6.98349">
        <ele>1323.1999511719</ele>
        <time>2022-07-21T10:32:24.000Z</time>
      </trkpt>
      <trkpt lat="44.06673" lon="6.98351">
        <ele>1322</ele>
        <time>2022-07-21T10:32:26.000Z</time>
      </trkpt>
      <trkpt lat="44.06677" lon="6.9835">
        <ele>1321.4000244141</ele>
        <time>2022-07-21T10:32:27.000Z</time>
      </trkpt>
      <trkpt lat="44.06679" lon="6.98349">
        <ele>1321</ele>
        <time>2022-07-21T10:32:28.000Z</time>
      </trkpt>
      <trkpt lat="44.06685" lon="6.98349">
        <ele>1319.5999755859</ele>
        <time>2022-07-21T10:32:30.000Z</time>
      </trkpt>
      <trkpt lat="44.06687" lon="6.98353">
        <ele>1319</ele>
        <time>2022-07-21T10:32:31.000Z</time>
      </trkpt>
      <trkpt lat="44.06688" lon="6.98356">
        <ele>1318.1999511719</ele>
        <time>2022-07-21T10:32:32.000Z</time>
      </trkpt>
      <trkpt lat="44.0669" lon="6.98365">
        <ele>1317.4000244141</ele>
        <time>2022-07-21T10:32:35.000Z</time>
      </trkpt>
      <trkpt lat="44.06689" lon="6.98385">
        <ele>1317.8000488281</ele>
        <time>2022-07-21T10:32:38.000Z</time>
      </trkpt>
      <trkpt lat="44.06686" lon="6.98392">
        <ele>1317.1999511719</ele>
        <time>2022-07-21T10:32:39.000Z</time>
      </trkpt>
      <trkpt lat="44.06686" lon="6.98398">
        <ele>1316.5999755859</ele>
        <time>2022-07-21T10:32:40.000Z</time>
      </trkpt>
      <trkpt lat="44.06685" lon="6.98406">
        <ele>1315.1999511719</ele>
        <time>2022-07-21T10:32:41.000Z</time>
      </trkpt>
      <trkpt lat="44.06685" lon="6.98412">
        <ele>1313.8000488281</ele>
        <time>2022-07-21T10:32:42.000Z</time>
      </trkpt>
      <trkpt lat="44.06685" lon="6.98418">
        <ele>1312.4000244141</ele>
        <time>2022-07-21T10:32:43.000Z</time>
      </trkpt>
      <trkpt lat="44.06685" lon="6.98425">
        <ele>1311.1999511719</ele>
        <time>2022-07-21T10:32:44.000Z</time>
      </trkpt>
      <trkpt lat="44.06687" lon="6.98435">
        <ele>1309.4000244141</ele>
        <time>2022-07-21T10:32:46.000Z</time>
      </trkpt>
      <trkpt lat="44.06691" lon="6.98446">
        <ele>1308.1999511719</ele>
        <time>2022-07-21T10:32:49.000Z</time>
      </trkpt>
      <trkpt lat="44.06696" lon="6.98453">
        <ele>1307.4000244141</ele>
        <time>2022-07-21T10:32:51.000Z</time>
      </trkpt>
      <trkpt lat="44.06699" lon="6.98456">
        <ele>1307.1999511719</ele>
        <time>2022-07-21T10:32:52.000Z</time>
      </trkpt>
      <trkpt lat="44.06714" lon="6.98465">
        <ele>1306.4000244141</ele>
        <time>2022-07-21T10:32:56.000Z</time>
      </trkpt>
      <trkpt lat="44.06717" lon="6.98467">
        <ele>1305.8000488281</ele>
        <time>2022-07-21T10:32:57.000Z</time>
      </trkpt>
      <trkpt lat="44.06722" lon="6.98469">
        <ele>1304.8000488281</ele>
        <time>2022-07-21T10:32:59.000Z</time>
      </trkpt>
      <trkpt lat="44.06723" lon="6.9847">
        <ele>1304.4000244141</ele>
        <time>2022-07-21T10:33:00.000Z</time>
      </trkpt>
      <trkpt lat="44.06723" lon="6.9847">
        <ele>1303.5999755859</ele>
        <time>2022-07-21T10:33:02.000Z</time>
      </trkpt>
      <trkpt lat="44.0673" lon="6.98474">
        <ele>1303</ele>
        <time>2022-07-21T10:33:05.000Z</time>
      </trkpt>
      <trkpt lat="44.06738" lon="6.98479">
        <ele>1302.8000488281</ele>
        <time>2022-07-21T10:33:07.000Z</time>
      </trkpt>
      <trkpt lat="44.06742" lon="6.98481">
        <ele>1302.4000244141</ele>
        <time>2022-07-21T10:33:08.000Z</time>
      </trkpt>
      <trkpt lat="44.06746" lon="6.9848">
        <ele>1302</ele>
        <time>2022-07-21T10:33:09.000Z</time>
      </trkpt>
      <trkpt lat="44.0675" lon="6.98479">
        <ele>1301.1999511719</ele>
        <time>2022-07-21T10:33:10.000Z</time>
      </trkpt>
      <trkpt lat="44.0676" lon="6.98481">
        <ele>1299.5999755859</ele>
        <time>2022-07-21T10:33:12.000Z</time>
      </trkpt>
      <trkpt lat="44.06764" lon="6.98486">
        <ele>1299</ele>
        <time>2022-07-21T10:33:13.000Z</time>
      </trkpt>
      <trkpt lat="44.06772" lon="6.98495">
        <ele>1298.1999511719</ele>
        <time>2022-07-21T10:33:15.000Z</time>
      </trkpt>
      <trkpt lat="44.06778" lon="6.985">
        <ele>1297.8000488281</ele>
        <time>2022-07-21T10:33:16.000Z</time>
      </trkpt>
      <trkpt lat="44.06783" lon="6.98503">
        <ele>1297.1999511719</ele>
        <time>2022-07-21T10:33:17.000Z</time>
      </trkpt>
      <trkpt lat="44.06794" lon="6.98511">
        <ele>1295.4000244141</ele>
        <time>2022-07-21T10:33:19.000Z</time>
      </trkpt>
      <trkpt lat="44.06799" lon="6.98514">
        <ele>1294</ele>
        <time>2022-07-21T10:33:20.000Z</time>
      </trkpt>
      <trkpt lat="44.06803" lon="6.9852">
        <ele>1292.5999755859</ele>
        <time>2022-07-21T10:33:21.000Z</time>
      </trkpt>
      <trkpt lat="44.06809" lon="6.98529">
        <ele>1290.8000488281</ele>
        <time>2022-07-21T10:33:23.000Z</time>
      </trkpt>
      <trkpt lat="44.06815" lon="6.98542">
        <ele>1289.1999511719</ele>
        <time>2022-07-21T10:33:25.000Z</time>
      </trkpt>
      <trkpt lat="44.06821" lon="6.98556">
        <ele>1287.1999511719</ele>
        <time>2022-07-21T10:33:27.000Z</time>
      </trkpt>
      <trkpt lat="44.06824" lon="6.98562">
        <ele>1286</ele>
        <time>2022-07-21T10:33:28.000Z</time>
      </trkpt>
      <trkpt lat="44.06827" lon="6.98567">
        <ele>1285</ele>
        <time>2022-07-21T10:33:29.000Z</time>
      </trkpt>
      <trkpt lat="44.06836" lon="6.98572">
        <ele>1283.4000244141</ele>
        <time>2022-07-21T10:33:31.000Z</time>
      </trkpt>
      <trkpt lat="44.06839" lon="6.98572">
        <ele>1282.5999755859</ele>
        <time>2022-07-21T10:33:32.000Z</time>
      </trkpt>
      <trkpt lat="44.06842" lon="6.98573">
        <ele>1282.1999511719</ele>
        <time>2022-07-21T10:33:33.000Z</time>
      </trkpt>
      <trkpt lat="44.06856" lon="6.98575">
        <ele>1281.4000244141</ele>
        <time>2022-07-21T10:33:36.000Z</time>
      </trkpt>
      <trkpt lat="44.0687" lon="6.9858">
        <ele>1281</ele>
        <time>2022-07-21T10:33:39.000Z</time>
      </trkpt>
      <trkpt lat="44.06874" lon="6.98583">
        <ele>1280.1999511719</ele>
        <time>2022-07-21T10:33:41.000Z</time>
      </trkpt>
      <trkpt lat="44.06876" lon="6.98587">
        <ele>1279.8000488281</ele>
        <time>2022-07-21T10:33:42.000Z</time>
      </trkpt>
      <trkpt lat="44.0688" lon="6.98592">
        <ele>1278.8000488281</ele>
        <time>2022-07-21T10:33:44.000Z</time>
      </trkpt>
      <trkpt lat="44.06884" lon="6.98593">
        <ele>1277.5999755859</ele>
        <time>2022-07-21T10:33:46.000Z</time>
      </trkpt>
      <trkpt lat="44.06885" lon="6.98593">
        <ele>1277.4000244141</ele>
        <time>2022-07-21T10:33:47.000Z</time>
      </trkpt>
      <trkpt lat="44.06885" lon="6.98593">
        <ele>1277.1999511719</ele>
        <time>2022-07-21T10:33:49.000Z</time>
      </trkpt>
      <trkpt lat="44.06883" lon="6.98596">
        <ele>1277.8000488281</ele>
        <time>2022-07-21T10:33:58.000Z</time>
      </trkpt>
      <trkpt lat="44.06887" lon="6.986">
        <ele>1277.8000488281</ele>
        <time>2022-07-21T10:34:02.000Z</time>
      </trkpt>
      <trkpt lat="44.06887" lon="6.98602">
        <ele>1277.8000488281</ele>
        <time>2022-07-21T10:34:03.000Z</time>
      </trkpt>
      <trkpt lat="44.06893" lon="6.98608">
        <ele>1278</ele>
        <time>2022-07-21T10:34:07.000Z</time>
      </trkpt>
      <trkpt lat="44.06895" lon="6.98609">
        <ele>1278</ele>
        <time>2022-07-21T10:34:08.000Z</time>
      </trkpt>
      <trkpt lat="44.069" lon="6.98611">
        <ele>1278.8000488281</ele>
        <time>2022-07-21T10:34:11.000Z</time>
      </trkpt>
      <trkpt lat="44.06907" lon="6.98612">
        <ele>1279</ele>
        <time>2022-07-21T10:34:14.000Z</time>
      </trkpt>
      <trkpt lat="44.06923" lon="6.98614">
        <ele>1279.8000488281</ele>
        <time>2022-07-21T10:34:21.000Z</time>
      </trkpt>
      <trkpt lat="44.06934" lon="6.98613">
        <ele>1280.1999511719</ele>
        <time>2022-07-21T10:34:28.000Z</time>
      </trkpt>
      <trkpt lat="44.06945" lon="6.98611">
        <ele>1280.8000488281</ele>
        <time>2022-07-21T10:34:35.000Z</time>
      </trkpt>
      <trkpt lat="44.06947" lon="6.9861">
        <ele>1280.8000488281</ele>
        <time>2022-07-21T10:34:36.000Z</time>
      </trkpt>
      <trkpt lat="44.06962" lon="6.98609">
        <ele>1281.5999755859</ele>
        <time>2022-07-21T10:34:43.000Z</time>
      </trkpt>
      <trkpt lat="44.06969" lon="6.98609">
        <ele>1281.8000488281</ele>
        <time>2022-07-21T10:34:46.000Z</time>
      </trkpt>
      <trkpt lat="44.06976" lon="6.98608">
        <ele>1282.1999511719</ele>
        <time>2022-07-21T10:34:49.000Z</time>
      </trkpt>
      <trkpt lat="44.06999" lon="6.98608">
        <ele>1282.8000488281</ele>
        <time>2022-07-21T10:34:57.000Z</time>
      </trkpt>
      <trkpt lat="44.07002" lon="6.98608">
        <ele>1283</ele>
        <time>2022-07-21T10:34:58.000Z</time>
      </trkpt>
      <trkpt lat="44.07019" lon="6.98613">
        <ele>1283.1999511719</ele>
        <time>2022-07-21T10:35:04.000Z</time>
      </trkpt>
      <trkpt lat="44.07032" lon="6.98619">
        <ele>1284</ele>
        <time>2022-07-21T10:35:09.000Z</time>
      </trkpt>
      <trkpt lat="44.07042" lon="6.98625">
        <ele>1284.4000244141</ele>
        <time>2022-07-21T10:35:13.000Z</time>
      </trkpt>
      <trkpt lat="44.07061" lon="6.9864">
        <ele>1285</ele>
        <time>2022-07-21T10:35:21.000Z</time>
      </trkpt>
      <trkpt lat="44.07063" lon="6.98642">
        <ele>1285.1999511719</ele>
        <time>2022-07-21T10:35:22.000Z</time>
      </trkpt>
      <trkpt lat="44.07082" lon="6.98656">
        <ele>1286</ele>
        <time>2022-07-21T10:35:30.000Z</time>
      </trkpt>
      <trkpt lat="44.07085" lon="6.98658">
        <ele>1286.1999511719</ele>
        <time>2022-07-21T10:35:31.000Z</time>
      </trkpt>
      <trkpt lat="44.07102" lon="6.9867">
        <ele>1287</ele>
        <time>2022-07-21T10:35:38.000Z</time>
      </trkpt>
      <trkpt lat="44.07107" lon="6.98672">
        <ele>1287.1999511719</ele>
        <time>2022-07-21T10:35:40.000Z</time>
      </trkpt>
      <trkpt lat="44.07125" lon="6.9868">
        <ele>1287.8000488281</ele>
        <time>2022-07-21T10:35:47.000Z</time>
      </trkpt>
      <trkpt lat="44.07143" lon="6.98688">
        <ele>1288.1999511719</ele>
        <time>2022-07-21T10:35:54.000Z</time>
      </trkpt>
      <trkpt lat="44.07146" lon="6.98689">
        <ele>1288.1999511719</ele>
        <time>2022-07-21T10:35:55.000Z</time>
      </trkpt>
      <trkpt lat="44.07171" lon="6.98699">
        <ele>1289</ele>
        <time>2022-07-21T10:36:04.000Z</time>
      </trkpt>
      <trkpt lat="44.07176" lon="6.98702">
        <ele>1289.1999511719</ele>
        <time>2022-07-21T10:36:06.000Z</time>
      </trkpt>
      <trkpt lat="44.07198" lon="6.98711">
        <ele>1290.1999511719</ele>
        <time>2022-07-21T10:36:14.000Z</time>
      </trkpt>
      <trkpt lat="44.072" lon="6.98712">
        <ele>1290.4000244141</ele>
        <time>2022-07-21T10:36:15.000Z</time>
      </trkpt>
      <trkpt lat="44.0722" lon="6.98721">
        <ele>1291.4000244141</ele>
        <time>2022-07-21T10:36:22.000Z</time>
      </trkpt>
      <trkpt lat="44.07226" lon="6.98723">
        <ele>1291.8000488281</ele>
        <time>2022-07-21T10:36:24.000Z</time>
      </trkpt>
      <trkpt lat="44.07242" lon="6.98727">
        <ele>1292.4000244141</ele>
        <time>2022-07-21T10:36:29.000Z</time>
      </trkpt>
      <trkpt lat="44.07249" lon="6.98729">
        <ele>1292.5999755859</ele>
        <time>2022-07-21T10:36:31.000Z</time>
      </trkpt>
      <trkpt lat="44.0727" lon="6.98736">
        <ele>1293.1999511719</ele>
        <time>2022-07-21T10:36:38.000Z</time>
      </trkpt>
      <trkpt lat="44.07279" lon="6.9874">
        <ele>1293.4000244141</ele>
        <time>2022-07-21T10:36:41.000Z</time>
      </trkpt>
      <trkpt lat="44.07296" lon="6.9875">
        <ele>1294.1999511719</ele>
        <time>2022-07-21T10:36:47.000Z</time>
      </trkpt>
      <trkpt lat="44.07303" lon="6.98755">
        <ele>1294.5999755859</ele>
        <time>2022-07-21T10:36:49.000Z</time>
      </trkpt>
      <trkpt lat="44.07319" lon="6.98768">
        <ele>1295.1999511719</ele>
        <time>2022-07-21T10:36:55.000Z</time>
      </trkpt>
      <trkpt lat="44.07331" lon="6.98777">
        <ele>1295.5999755859</ele>
        <time>2022-07-21T10:36:59.000Z</time>
      </trkpt>
      <trkpt lat="44.07341" lon="6.98788">
        <ele>1296.1999511719</ele>
        <time>2022-07-21T10:37:03.000Z</time>
      </trkpt>
      <trkpt lat="44.07349" lon="6.98796">
        <ele>1296.8000488281</ele>
        <time>2022-07-21T10:37:06.000Z</time>
      </trkpt>
      <trkpt lat="44.07363" lon="6.98811">
        <ele>1297.8000488281</ele>
        <time>2022-07-21T10:37:12.000Z</time>
      </trkpt>
      <trkpt lat="44.07374" lon="6.98824">
        <ele>1298.8000488281</ele>
        <time>2022-07-21T10:37:17.000Z</time>
      </trkpt>
      <trkpt lat="44.07389" lon="6.98841">
        <ele>1299.8000488281</ele>
        <time>2022-07-21T10:37:24.000Z</time>
      </trkpt>
      <trkpt lat="44.07407" lon="6.98863">
        <ele>1301</ele>
        <time>2022-07-21T10:37:32.000Z</time>
      </trkpt>
      <trkpt lat="44.07409" lon="6.98866">
        <ele>1301</ele>
        <time>2022-07-21T10:37:33.000Z</time>
      </trkpt>
      <trkpt lat="44.07422" lon="6.98883">
        <ele>1302</ele>
        <time>2022-07-21T10:37:39.000Z</time>
      </trkpt>
      <trkpt lat="44.07428" lon="6.98891">
        <ele>1302.4000244141</ele>
        <time>2022-07-21T10:37:42.000Z</time>
      </trkpt>
      <trkpt lat="44.07437" lon="6.98901">
        <ele>1303.1999511719</ele>
        <time>2022-07-21T10:37:46.000Z</time>
      </trkpt>
      <trkpt lat="44.07445" lon="6.98912">
        <ele>1303.5999755859</ele>
        <time>2022-07-21T10:37:50.000Z</time>
      </trkpt>
      <trkpt lat="44.07455" lon="6.98922">
        <ele>1304.1999511719</ele>
        <time>2022-07-21T10:37:54.000Z</time>
      </trkpt>
      <trkpt lat="44.07468" lon="6.9894">
        <ele>1305</ele>
        <time>2022-07-21T10:38:00.000Z</time>
      </trkpt>
      <trkpt lat="44.07471" lon="6.98946">
        <ele>1305.4000244141</ele>
        <time>2022-07-21T10:38:02.000Z</time>
      </trkpt>
      <trkpt lat="44.07484" lon="6.98969">
        <ele>1306.4000244141</ele>
        <time>2022-07-21T10:38:09.000Z</time>
      </trkpt>
      <trkpt lat="44.07496" lon="6.98986">
        <ele>1307.4000244141</ele>
        <time>2022-07-21T10:38:15.000Z</time>
      </trkpt>
      <trkpt lat="44.07499" lon="6.98988">
        <ele>1307.5999755859</ele>
        <time>2022-07-21T10:38:16.000Z</time>
      </trkpt>
      <trkpt lat="44.07515" lon="6.98997">
        <ele>1308.4000244141</ele>
        <time>2022-07-21T10:38:21.000Z</time>
      </trkpt>
      <trkpt lat="44.07527" lon="6.99003">
        <ele>1308.8000488281</ele>
        <time>2022-07-21T10:38:25.000Z</time>
      </trkpt>
      <trkpt lat="44.07542" lon="6.99011">
        <ele>1309.5999755859</ele>
        <time>2022-07-21T10:38:30.000Z</time>
      </trkpt>
      <trkpt lat="44.07552" lon="6.99017">
        <ele>1310.4000244141</ele>
        <time>2022-07-21T10:38:34.000Z</time>
      </trkpt>
      <trkpt lat="44.07553" lon="6.99018">
        <ele>1310.5999755859</ele>
        <time>2022-07-21T10:38:35.000Z</time>
      </trkpt>
      <trkpt lat="44.07569" lon="6.99028">
        <ele>1311.4000244141</ele>
        <time>2022-07-21T10:38:41.000Z</time>
      </trkpt>
      <trkpt lat="44.07577" lon="6.99035">
        <ele>1311.5999755859</ele>
        <time>2022-07-21T10:38:44.000Z</time>
      </trkpt>
      <trkpt lat="44.07589" lon="6.99048">
        <ele>1312.8000488281</ele>
        <time>2022-07-21T10:38:49.000Z</time>
      </trkpt>
      <trkpt lat="44.07611" lon="6.9907">
        <ele>1313.5999755859</ele>
        <time>2022-07-21T10:38:58.000Z</time>
      </trkpt>
      <trkpt lat="44.07613" lon="6.99072">
        <ele>1313.8000488281</ele>
        <time>2022-07-21T10:38:59.000Z</time>
      </trkpt>
      <trkpt lat="44.07634" lon="6.99088">
        <ele>1314.8000488281</ele>
        <time>2022-07-21T10:39:06.000Z</time>
      </trkpt>
      <trkpt lat="44.07637" lon="6.9909">
        <ele>1315</ele>
        <time>2022-07-21T10:39:07.000Z</time>
      </trkpt>
      <trkpt lat="44.07666" lon="6.99109">
        <ele>1315.8000488281</ele>
        <time>2022-07-21T10:39:17.000Z</time>
      </trkpt>
      <trkpt lat="44.07668" lon="6.99113">
        <ele>1316</ele>
        <time>2022-07-21T10:39:18.000Z</time>
      </trkpt>
      <trkpt lat="44.07677" lon="6.99126">
        <ele>1316.5999755859</ele>
        <time>2022-07-21T10:39:22.000Z</time>
      </trkpt>
      <trkpt lat="44.07693" lon="6.99151">
        <ele>1317</ele>
        <time>2022-07-21T10:39:29.000Z</time>
      </trkpt>
      <trkpt lat="44.07695" lon="6.99155">
        <ele>1317.1999511719</ele>
        <time>2022-07-21T10:39:30.000Z</time>
      </trkpt>
      <trkpt lat="44.07707" lon="6.99174">
        <ele>1318</ele>
        <time>2022-07-21T10:39:35.000Z</time>
      </trkpt>
      <trkpt lat="44.07716" lon="6.99191">
        <ele>1318.5999755859</ele>
        <time>2022-07-21T10:39:39.000Z</time>
      </trkpt>
      <trkpt lat="44.07729" lon="6.99208">
        <ele>1319.1999511719</ele>
        <time>2022-07-21T10:39:44.000Z</time>
      </trkpt>
      <trkpt lat="44.0774" lon="6.99222">
        <ele>1319.4000244141</ele>
        <time>2022-07-21T10:39:48.000Z</time>
      </trkpt>
      <trkpt lat="44.07756" lon="6.99245">
        <ele>1320.1999511719</ele>
        <time>2022-07-21T10:39:54.000Z</time>
      </trkpt>
      <trkpt lat="44.07763" lon="6.99257">
        <ele>1320.4000244141</ele>
        <time>2022-07-21T10:39:57.000Z</time>
      </trkpt>
      <trkpt lat="44.07788" lon="6.99288">
        <ele>1321</ele>
        <time>2022-07-21T10:40:06.000Z</time>
      </trkpt>
      <trkpt lat="44.07794" lon="6.99295">
        <ele>1321.4000244141</ele>
        <time>2022-07-21T10:40:08.000Z</time>
      </trkpt>
      <trkpt lat="44.07812" lon="6.99313">
        <ele>1322.1999511719</ele>
        <time>2022-07-21T10:40:14.000Z</time>
      </trkpt>
      <trkpt lat="44.07815" lon="6.99316">
        <ele>1322.4000244141</ele>
        <time>2022-07-21T10:40:15.000Z</time>
      </trkpt>
      <trkpt lat="44.0783" lon="6.99331">
        <ele>1323.5999755859</ele>
        <time>2022-07-21T10:40:20.000Z</time>
      </trkpt>
      <trkpt lat="44.0784" lon="6.9934">
        <ele>1324.5999755859</ele>
        <time>2022-07-21T10:40:23.000Z</time>
      </trkpt>
      <trkpt lat="44.07842" lon="6.99342">
        <ele>1324.8000488281</ele>
        <time>2022-07-21T10:40:24.000Z</time>
      </trkpt>
      <trkpt lat="44.07858" lon="6.99356">
        <ele>1326</ele>
        <time>2022-07-21T10:40:29.000Z</time>
      </trkpt>
      <trkpt lat="44.07865" lon="6.99362">
        <ele>1326.5999755859</ele>
        <time>2022-07-21T10:40:31.000Z</time>
      </trkpt>
      <trkpt lat="44.07871" lon="6.99367">
        <ele>1327</ele>
        <time>2022-07-21T10:40:33.000Z</time>
      </trkpt>
      <trkpt lat="44.07887" lon="6.9938">
        <ele>1328.1999511719</ele>
        <time>2022-07-21T10:40:38.000Z</time>
      </trkpt>
      <trkpt lat="44.0789" lon="6.99381">
        <ele>1328.4000244141</ele>
        <time>2022-07-21T10:40:39.000Z</time>
      </trkpt>
      <trkpt lat="44.07906" lon="6.99383">
        <ele>1329.1999511719</ele>
        <time>2022-07-21T10:40:43.000Z</time>
      </trkpt>
      <trkpt lat="44.07915" lon="6.99383">
        <ele>1329.5999755859</ele>
        <time>2022-07-21T10:40:45.000Z</time>
      </trkpt>
      <trkpt lat="44.07932" lon="6.99384">
        <ele>1330.4000244141</ele>
        <time>2022-07-21T10:40:49.000Z</time>
      </trkpt>
      <trkpt lat="44.07947" lon="6.99385">
        <ele>1331.4000244141</ele>
        <time>2022-07-21T10:40:53.000Z</time>
      </trkpt>
      <trkpt lat="44.07955" lon="6.99386">
        <ele>1332</ele>
        <time>2022-07-21T10:40:55.000Z</time>
      </trkpt>
      <trkpt lat="44.07963" lon="6.99387">
        <ele>1332.5999755859</ele>
        <time>2022-07-21T10:40:57.000Z</time>
      </trkpt>
      <trkpt lat="44.07982" lon="6.99392">
        <ele>1333.8000488281</ele>
        <time>2022-07-21T10:41:02.000Z</time>
      </trkpt>
      <trkpt lat="44.08" lon="6.99396">
        <ele>1334.8000488281</ele>
        <time>2022-07-21T10:41:07.000Z</time>
      </trkpt>
      <trkpt lat="44.0801" lon="6.99398">
        <ele>1335.5999755859</ele>
        <time>2022-07-21T10:41:10.000Z</time>
      </trkpt>
      <trkpt lat="44.08018" lon="6.99401">
        <ele>1336</ele>
        <time>2022-07-21T10:41:12.000Z</time>
      </trkpt>
      <trkpt lat="44.08035" lon="6.99405">
        <ele>1337</ele>
        <time>2022-07-21T10:41:17.000Z</time>
      </trkpt>
      <trkpt lat="44.08046" lon="6.99407">
        <ele>1337.5999755859</ele>
        <time>2022-07-21T10:41:20.000Z</time>
      </trkpt>
      <trkpt lat="44.08062" lon="6.99408">
        <ele>1338.1999511719</ele>
        <time>2022-07-21T10:41:24.000Z</time>
      </trkpt>
      <trkpt lat="44.08086" lon="6.9941">
        <ele>1338.8000488281</ele>
        <time>2022-07-21T10:41:30.000Z</time>
      </trkpt>
      <trkpt lat="44.08104" lon="6.99412">
        <ele>1339.1999511719</ele>
        <time>2022-07-21T10:41:34.000Z</time>
      </trkpt>
      <trkpt lat="44.08121" lon="6.99416">
        <ele>1339.8000488281</ele>
        <time>2022-07-21T10:41:38.000Z</time>
      </trkpt>
      <trkpt lat="44.08134" lon="6.99419">
        <ele>1340.4000244141</ele>
        <time>2022-07-21T10:41:41.000Z</time>
      </trkpt>
      <trkpt lat="44.08162" lon="6.99429">
        <ele>1341</ele>
        <time>2022-07-21T10:41:48.000Z</time>
      </trkpt>
      <trkpt lat="44.08173" lon="6.99432">
        <ele>1341.5999755859</ele>
        <time>2022-07-21T10:41:51.000Z</time>
      </trkpt>
      <trkpt lat="44.08192" lon="6.99438">
        <ele>1342.1999511719</ele>
        <time>2022-07-21T10:41:56.000Z</time>
      </trkpt>
      <trkpt lat="44.08203" lon="6.99441">
        <ele>1342.5999755859</ele>
        <time>2022-07-21T10:41:59.000Z</time>
      </trkpt>
      <trkpt lat="44.08227" lon="6.99447">
        <ele>1343.1999511719</ele>
        <time>2022-07-21T10:42:05.000Z</time>
      </trkpt>
      <trkpt lat="44.08236" lon="6.99449">
        <ele>1343.5999755859</ele>
        <time>2022-07-21T10:42:07.000Z</time>
      </trkpt>
      <trkpt lat="44.08259" lon="6.99455">
        <ele>1344.5999755859</ele>
        <time>2022-07-21T10:42:13.000Z</time>
      </trkpt>
      <trkpt lat="44.08263" lon="6.99456">
        <ele>1344.8000488281</ele>
        <time>2022-07-21T10:42:14.000Z</time>
      </trkpt>
      <trkpt lat="44.08298" lon="6.99465">
        <ele>1345.8000488281</ele>
        <time>2022-07-21T10:42:23.000Z</time>
      </trkpt>
      <trkpt lat="44.08321" lon="6.99472">
        <ele>1346.8000488281</ele>
        <time>2022-07-21T10:42:29.000Z</time>
      </trkpt>
      <trkpt lat="44.0833" lon="6.99474">
        <ele>1347.4000244141</ele>
        <time>2022-07-21T10:42:31.000Z</time>
      </trkpt>
      <trkpt lat="44.08346" lon="6.99475">
        <ele>1348</ele>
        <time>2022-07-21T10:42:35.000Z</time>
      </trkpt>
      <trkpt lat="44.0836" lon="6.99476">
        <ele>1348</ele>
        <time>2022-07-21T10:42:38.000Z</time>
      </trkpt>
      <trkpt lat="44.08391" lon="6.99471">
        <ele>1349</ele>
        <time>2022-07-21T10:42:46.000Z</time>
      </trkpt>
      <trkpt lat="44.08395" lon="6.9947">
        <ele>1349.1999511719</ele>
        <time>2022-07-21T10:42:47.000Z</time>
      </trkpt>
      <trkpt lat="44.08421" lon="6.99462">
        <ele>1350</ele>
        <time>2022-07-21T10:42:54.000Z</time>
      </trkpt>
      <trkpt lat="44.08441" lon="6.99456">
        <ele>1350.8000488281</ele>
        <time>2022-07-21T10:42:59.000Z</time>
      </trkpt>
      <trkpt lat="44.08449" lon="6.99454">
        <ele>1351</ele>
        <time>2022-07-21T10:43:01.000Z</time>
      </trkpt>
      <trkpt lat="44.08476" lon="6.99451">
        <ele>1351.8000488281</ele>
        <time>2022-07-21T10:43:08.000Z</time>
      </trkpt>
      <trkpt lat="44.08483" lon="6.99451">
        <ele>1352.1999511719</ele>
        <time>2022-07-21T10:43:10.000Z</time>
      </trkpt>
      <trkpt lat="44.08515" lon="6.9945">
        <ele>1353.1999511719</ele>
        <time>2022-07-21T10:43:19.000Z</time>
      </trkpt>
      <trkpt lat="44.08537" lon="6.99449">
        <ele>1354.4000244141</ele>
        <time>2022-07-21T10:43:25.000Z</time>
      </trkpt>
      <trkpt lat="44.08541" lon="6.99449">
        <ele>1354.4000244141</ele>
        <time>2022-07-21T10:43:26.000Z</time>
      </trkpt>
      <trkpt lat="44.08579" lon="6.9944">
        <ele>1355.1999511719</ele>
        <time>2022-07-21T10:43:36.000Z</time>
      </trkpt>
      <trkpt lat="44.08594" lon="6.99436">
        <ele>1355.4000244141</ele>
        <time>2022-07-21T10:43:40.000Z</time>
      </trkpt>
      <trkpt lat="44.08621" lon="6.9943">
        <ele>1356</ele>
        <time>2022-07-21T10:43:47.000Z</time>
      </trkpt>
      <trkpt lat="44.08633" lon="6.99428">
        <ele>1356.5999755859</ele>
        <time>2022-07-21T10:43:50.000Z</time>
      </trkpt>
      <trkpt lat="44.08659" lon="6.99421">
        <ele>1357.5999755859</ele>
        <time>2022-07-21T10:43:57.000Z</time>
      </trkpt>
      <trkpt lat="44.08666" lon="6.9942">
        <ele>1357.8000488281</ele>
        <time>2022-07-21T10:43:59.000Z</time>
      </trkpt>
      <trkpt lat="44.08695" lon="6.99418">
        <ele>1358.8000488281</ele>
        <time>2022-07-21T10:44:07.000Z</time>
      </trkpt>
      <trkpt lat="44.08725" lon="6.99423">
        <ele>1359.8000488281</ele>
        <time>2022-07-21T10:44:15.000Z</time>
      </trkpt>
      <trkpt lat="44.08729" lon="6.99423">
        <ele>1360</ele>
        <time>2022-07-21T10:44:16.000Z</time>
      </trkpt>
      <trkpt lat="44.0876" lon="6.99423">
        <ele>1360.8000488281</ele>
        <time>2022-07-21T10:44:24.000Z</time>
      </trkpt>
      <trkpt lat="44.08764" lon="6.99422">
        <ele>1360.8000488281</ele>
        <time>2022-07-21T10:44:25.000Z</time>
      </trkpt>
      <trkpt lat="44.08789" lon="6.99415">
        <ele>1361.8000488281</ele>
        <time>2022-07-21T10:44:32.000Z</time>
      </trkpt>
      <trkpt lat="44.08793" lon="6.99413">
        <ele>1362</ele>
        <time>2022-07-21T10:44:33.000Z</time>
      </trkpt>
      <trkpt lat="44.08817" lon="6.994">
        <ele>1362.8000488281</ele>
        <time>2022-07-21T10:44:41.000Z</time>
      </trkpt>
      <trkpt lat="44.08823" lon="6.99396">
        <ele>1363</ele>
        <time>2022-07-21T10:44:43.000Z</time>
      </trkpt>
      <trkpt lat="44.08837" lon="6.99385">
        <ele>1364</ele>
        <time>2022-07-21T10:44:48.000Z</time>
      </trkpt>
      <trkpt lat="44.08847" lon="6.99375">
        <ele>1365</ele>
        <time>2022-07-21T10:44:52.000Z</time>
      </trkpt>
      <trkpt lat="44.0885" lon="6.99373">
        <ele>1365.1999511719</ele>
        <time>2022-07-21T10:44:53.000Z</time>
      </trkpt>
      <trkpt lat="44.08863" lon="6.99358">
        <ele>1366.1999511719</ele>
        <time>2022-07-21T10:44:58.000Z</time>
      </trkpt>
      <trkpt lat="44.08868" lon="6.99353">
        <ele>1366.1999511719</ele>
        <time>2022-07-21T10:45:00.000Z</time>
      </trkpt>
      <trkpt lat="44.08887" lon="6.99333">
        <ele>1367</ele>
        <time>2022-07-21T10:45:07.000Z</time>
      </trkpt>
      <trkpt lat="44.08892" lon="6.99327">
        <ele>1367.1999511719</ele>
        <time>2022-07-21T10:45:09.000Z</time>
      </trkpt>
      <trkpt lat="44.08916" lon="6.9931">
        <ele>1368.1999511719</ele>
        <time>2022-07-21T10:45:17.000Z</time>
      </trkpt>
      <trkpt lat="44.08939" lon="6.993">
        <ele>1368.4000244141</ele>
        <time>2022-07-21T10:45:24.000Z</time>
      </trkpt>
      <trkpt lat="44.08942" lon="6.99299">
        <ele>1368.4000244141</ele>
        <time>2022-07-21T10:45:25.000Z</time>
      </trkpt>
      <trkpt lat="44.08976" lon="6.99287">
        <ele>1369.1999511719</ele>
        <time>2022-07-21T10:45:35.000Z</time>
      </trkpt>
      <trkpt lat="44.0899" lon="6.99282">
        <ele>1369.4000244141</ele>
        <time>2022-07-21T10:45:39.000Z</time>
      </trkpt>
      <trkpt lat="44.09008" lon="6.99279">
        <ele>1370</ele>
        <time>2022-07-21T10:45:44.000Z</time>
      </trkpt>
      <trkpt lat="44.09022" lon="6.99279">
        <ele>1370.5999755859</ele>
        <time>2022-07-21T10:45:48.000Z</time>
      </trkpt>
      <trkpt lat="44.09033" lon="6.99285">
        <ele>1370.8000488281</ele>
        <time>2022-07-21T10:45:51.000Z</time>
      </trkpt>
      <trkpt lat="44.09053" lon="6.9929">
        <ele>1371</ele>
        <time>2022-07-21T10:45:57.000Z</time>
      </trkpt>
      <trkpt lat="44.09063" lon="6.99292">
        <ele>1371.5999755859</ele>
        <time>2022-07-21T10:46:00.000Z</time>
      </trkpt>
      <trkpt lat="44.09076" lon="6.99295">
        <ele>1372.1999511719</ele>
        <time>2022-07-21T10:46:04.000Z</time>
      </trkpt>
      <trkpt lat="44.09084" lon="6.99296">
        <ele>1372.5999755859</ele>
        <time>2022-07-21T10:46:07.000Z</time>
      </trkpt>
      <trkpt lat="44.09096" lon="6.99296">
        <ele>1373.1999511719</ele>
        <time>2022-07-21T10:46:11.000Z</time>
      </trkpt>
      <trkpt lat="44.09113" lon="6.99293">
        <ele>1373.5999755859</ele>
        <time>2022-07-21T10:46:16.000Z</time>
      </trkpt>
      <trkpt lat="44.09117" lon="6.99293">
        <ele>1373.8000488281</ele>
        <time>2022-07-21T10:46:17.000Z</time>
      </trkpt>
      <trkpt lat="44.09146" lon="6.99289">
        <ele>1374.1999511719</ele>
        <time>2022-07-21T10:46:24.000Z</time>
      </trkpt>
      <trkpt lat="44.09176" lon="6.99282">
        <ele>1374.4000244141</ele>
        <time>2022-07-21T10:46:31.000Z</time>
      </trkpt>
      <trkpt lat="44.0919" lon="6.99282">
        <ele>1374.8000488281</ele>
        <time>2022-07-21T10:46:34.000Z</time>
      </trkpt>
      <trkpt lat="44.09197" lon="6.99285">
        <ele>1374.8000488281</ele>
        <time>2022-07-21T10:46:36.000Z</time>
      </trkpt>
      <trkpt lat="44.09203" lon="6.99289">
        <ele>1374.8000488281</ele>
        <time>2022-07-21T10:46:37.000Z</time>
      </trkpt>
      <trkpt lat="44.0921" lon="6.99304">
        <ele>1375</ele>
        <time>2022-07-21T10:46:40.000Z</time>
      </trkpt>
      <trkpt lat="44.09225" lon="6.99348">
        <ele>1374.8000488281</ele>
        <time>2022-07-21T10:46:48.000Z</time>
      </trkpt>
      <trkpt lat="44.09242" lon="6.99374">
        <ele>1375</ele>
        <time>2022-07-21T10:46:54.000Z</time>
      </trkpt>
      <trkpt lat="44.09255" lon="6.99381">
        <ele>1375.4000244141</ele>
        <time>2022-07-21T10:46:58.000Z</time>
      </trkpt>
      <trkpt lat="44.09266" lon="6.99386">
        <ele>1375.8000488281</ele>
        <time>2022-07-21T10:47:01.000Z</time>
      </trkpt>
      <trkpt lat="44.0928" lon="6.99391">
        <ele>1376.1999511719</ele>
        <time>2022-07-21T10:47:05.000Z</time>
      </trkpt>
      <trkpt lat="44.09295" lon="6.99399">
        <ele>1376.8000488281</ele>
        <time>2022-07-21T10:47:09.000Z</time>
      </trkpt>
      <trkpt lat="44.09312" lon="6.9941">
        <ele>1378</ele>
        <time>2022-07-21T10:47:14.000Z</time>
      </trkpt>
      <trkpt lat="44.09332" lon="6.99421">
        <ele>1379.1999511719</ele>
        <time>2022-07-21T10:47:20.000Z</time>
      </trkpt>
      <trkpt lat="44.09339" lon="6.99422">
        <ele>1379.4000244141</ele>
        <time>2022-07-21T10:47:22.000Z</time>
      </trkpt>
      <trkpt lat="44.0936" lon="6.99415">
        <ele>1380</ele>
        <time>2022-07-21T10:47:28.000Z</time>
      </trkpt>
      <trkpt lat="44.09363" lon="6.99415">
        <ele>1380.1999511719</ele>
        <time>2022-07-21T10:47:29.000Z</time>
      </trkpt>
      <trkpt lat="44.09374" lon="6.99412">
        <ele>1381.4000244141</ele>
        <time>2022-07-21T10:47:33.000Z</time>
      </trkpt>
      <trkpt lat="44.09377" lon="6.9941">
        <ele>1381.5999755859</ele>
        <time>2022-07-21T10:47:34.000Z</time>
      </trkpt>
      <trkpt lat="44.09393" lon="6.99408">
        <ele>1382.5999755859</ele>
        <time>2022-07-21T10:47:40.000Z</time>
      </trkpt>
      <trkpt lat="44.09406" lon="6.99395">
        <ele>1383.5999755859</ele>
        <time>2022-07-21T10:47:46.000Z</time>
      </trkpt>
      <trkpt lat="44.09415" lon="6.9939">
        <ele>1383.8000488281</ele>
        <time>2022-07-21T10:47:50.000Z</time>
      </trkpt>
      <trkpt lat="44.09426" lon="6.99388">
        <ele>1384.8000488281</ele>
        <time>2022-07-21T10:47:54.000Z</time>
      </trkpt>
      <trkpt lat="44.09428" lon="6.99387">
        <ele>1385</ele>
        <time>2022-07-21T10:47:55.000Z</time>
      </trkpt>
      <trkpt lat="44.09439" lon="6.99374">
        <ele>1385.5999755859</ele>
        <time>2022-07-21T10:48:00.000Z</time>
      </trkpt>
      <trkpt lat="44.09442" lon="6.99371">
        <ele>1385.8000488281</ele>
        <time>2022-07-21T10:48:01.000Z</time>
      </trkpt>
      <trkpt lat="44.09455" lon="6.99363">
        <ele>1386.8000488281</ele>
        <time>2022-07-21T10:48:06.000Z</time>
      </trkpt>
      <trkpt lat="44.09458" lon="6.99362">
        <ele>1387</ele>
        <time>2022-07-21T10:48:07.000Z</time>
      </trkpt>
      <trkpt lat="44.09471" lon="6.99359">
        <ele>1388</ele>
        <time>2022-07-21T10:48:12.000Z</time>
      </trkpt>
      <trkpt lat="44.0948" lon="6.99367">
        <ele>1388.4000244141</ele>
        <time>2022-07-21T10:48:16.000Z</time>
      </trkpt>
      <trkpt lat="44.09495" lon="6.99372">
        <ele>1388.4000244141</ele>
        <time>2022-07-21T10:48:22.000Z</time>
      </trkpt>
      <trkpt lat="44.09497" lon="6.9937">
        <ele>1388.4000244141</ele>
        <time>2022-07-21T10:48:23.000Z</time>
      </trkpt>
      <trkpt lat="44.09501" lon="6.99359">
        <ele>1388.5999755859</ele>
        <time>2022-07-21T10:48:26.000Z</time>
      </trkpt>
      <trkpt lat="44.09505" lon="6.99353">
        <ele>1389</ele>
        <time>2022-07-21T10:48:28.000Z</time>
      </trkpt>
      <trkpt lat="44.09511" lon="6.99345">
        <ele>1389.5999755859</ele>
        <time>2022-07-21T10:48:31.000Z</time>
      </trkpt>
      <trkpt lat="44.09522" lon="6.9934">
        <ele>1390.1999511719</ele>
        <time>2022-07-21T10:48:35.000Z</time>
      </trkpt>
      <trkpt lat="44.09526" lon="6.99338">
        <ele>1390.4000244141</ele>
        <time>2022-07-21T10:48:37.000Z</time>
      </trkpt>
      <trkpt lat="44.0954" lon="6.99328">
        <ele>1390.8000488281</ele>
        <time>2022-07-21T10:48:42.000Z</time>
      </trkpt>
      <trkpt lat="44.09551" lon="6.99319">
        <ele>1391.1999511719</ele>
        <time>2022-07-21T10:48:46.000Z</time>
      </trkpt>
      <trkpt lat="44.09557" lon="6.99316">
        <ele>1391.4000244141</ele>
        <time>2022-07-21T10:48:48.000Z</time>
      </trkpt>
      <trkpt lat="44.09571" lon="6.99319">
        <ele>1392.1999511719</ele>
        <time>2022-07-21T10:48:53.000Z</time>
      </trkpt>
      <trkpt lat="44.09583" lon="6.99325">
        <ele>1392.1999511719</ele>
        <time>2022-07-21T10:49:00.000Z</time>
      </trkpt>
      <trkpt lat="44.09583" lon="6.99325">
        <ele>1392.4000244141</ele>
        <time>2022-07-21T10:49:05.000Z</time>
      </trkpt>
      <trkpt lat="44.09585" lon="6.99325">
        <ele>1392</ele>
        <time>2022-07-21T10:49:21.000Z</time>
      </trkpt>
      <trkpt lat="44.09586" lon="6.99326">
        <ele>1391.8000488281</ele>
        <time>2022-07-21T10:49:38.000Z</time>
      </trkpt>
      <trkpt lat="44.0959" lon="6.99328">
        <ele>1392.1999511719</ele>
        <time>2022-07-21T10:49:44.000Z</time>
      </trkpt>
      <trkpt lat="44.09596" lon="6.99333">
        <ele>1392</ele>
        <time>2022-07-21T10:49:47.000Z</time>
      </trkpt>
      <trkpt lat="44.0961" lon="6.99333">
        <ele>1391.4000244141</ele>
        <time>2022-07-21T10:49:52.000Z</time>
      </trkpt>
      <trkpt lat="44.09623" lon="6.99332">
        <ele>1392.1999511719</ele>
        <time>2022-07-21T10:49:58.000Z</time>
      </trkpt>
      <trkpt lat="44.0963" lon="6.9933">
        <ele>1393.1999511719</ele>
        <time>2022-07-21T10:50:01.000Z</time>
      </trkpt>
      <trkpt lat="44.09631" lon="6.99327">
        <ele>1393.5999755859</ele>
        <time>2022-07-21T10:50:02.000Z</time>
      </trkpt>
      <trkpt lat="44.09633" lon="6.99323">
        <ele>1393.4000244141</ele>
        <time>2022-07-21T10:50:03.000Z</time>
      </trkpt>
      <trkpt lat="44.0964" lon="6.99311">
        <ele>1393.5999755859</ele>
        <time>2022-07-21T10:50:07.000Z</time>
      </trkpt>
      <trkpt lat="44.09646" lon="6.99308">
        <ele>1394.5999755859</ele>
        <time>2022-07-21T10:50:09.000Z</time>
      </trkpt>
      <trkpt lat="44.09653" lon="6.993">
        <ele>1394.8000488281</ele>
        <time>2022-07-21T10:50:12.000Z</time>
      </trkpt>
      <trkpt lat="44.09664" lon="6.99294">
        <ele>1395.1999511719</ele>
        <time>2022-07-21T10:50:16.000Z</time>
      </trkpt>
      <trkpt lat="44.09666" lon="6.99293">
        <ele>1395.1999511719</ele>
        <time>2022-07-21T10:50:17.000Z</time>
      </trkpt>
      <trkpt lat="44.09683" lon="6.99279">
        <ele>1395.1999511719</ele>
        <time>2022-07-21T10:50:24.000Z</time>
      </trkpt>
      <trkpt lat="44.09688" lon="6.99268">
        <ele>1395.5999755859</ele>
        <time>2022-07-21T10:50:27.000Z</time>
      </trkpt>
      <trkpt lat="44.09694" lon="6.99257">
        <ele>1396.1999511719</ele>
        <time>2022-07-21T10:50:30.000Z</time>
      </trkpt>
      <trkpt lat="44.09704" lon="6.9925">
        <ele>1396.5999755859</ele>
        <time>2022-07-21T10:50:34.000Z</time>
      </trkpt>
      <trkpt lat="44.09707" lon="6.99247">
        <ele>1396.8000488281</ele>
        <time>2022-07-21T10:50:35.000Z</time>
      </trkpt>
      <trkpt lat="44.09717" lon="6.99235">
        <ele>1397.4000244141</ele>
        <time>2022-07-21T10:50:39.000Z</time>
      </trkpt>
      <trkpt lat="44.09722" lon="6.99231">
        <ele>1397.8000488281</ele>
        <time>2022-07-21T10:50:41.000Z</time>
      </trkpt>
      <trkpt lat="44.09736" lon="6.99227">
        <ele>1398.5999755859</ele>
        <time>2022-07-21T10:50:45.000Z</time>
      </trkpt>
      <trkpt lat="44.09746" lon="6.99218">
        <ele>1399</ele>
        <time>2022-07-21T10:50:49.000Z</time>
      </trkpt>
      <trkpt lat="44.09747" lon="6.99215">
        <ele>1399.4000244141</ele>
        <time>2022-07-21T10:50:50.000Z</time>
      </trkpt>
      <trkpt lat="44.09751" lon="6.99208">
        <ele>1400.1999511719</ele>
        <time>2022-07-21T10:50:52.000Z</time>
      </trkpt>
      <trkpt lat="44.09758" lon="6.99195">
        <ele>1401.1999511719</ele>
        <time>2022-07-21T10:50:56.000Z</time>
      </trkpt>
      <trkpt lat="44.09768" lon="6.99186">
        <ele>1402.4000244141</ele>
        <time>2022-07-21T10:51:00.000Z</time>
      </trkpt>
      <trkpt lat="44.09771" lon="6.99185">
        <ele>1402.5999755859</ele>
        <time>2022-07-21T10:51:01.000Z</time>
      </trkpt>
      <trkpt lat="44.09778" lon="6.99179">
        <ele>1404</ele>
        <time>2022-07-21T10:51:04.000Z</time>
      </trkpt>
      <trkpt lat="44.09789" lon="6.99171">
        <ele>1405.1999511719</ele>
        <time>2022-07-21T10:51:08.000Z</time>
      </trkpt>
      <trkpt lat="44.09798" lon="6.99159">
        <ele>1406.1999511719</ele>
        <time>2022-07-21T10:51:12.000Z</time>
      </trkpt>
      <trkpt lat="44.09802" lon="6.99153">
        <ele>1406.5999755859</ele>
        <time>2022-07-21T10:51:14.000Z</time>
      </trkpt>
      <trkpt lat="44.09814" lon="6.99144">
        <ele>1407.5999755859</ele>
        <time>2022-07-21T10:51:19.000Z</time>
      </trkpt>
      <trkpt lat="44.09827" lon="6.99135">
        <ele>1408.1999511719</ele>
        <time>2022-07-21T10:51:24.000Z</time>
      </trkpt>
      <trkpt lat="44.09839" lon="6.99115">
        <ele>1407</ele>
        <time>2022-07-21T10:51:27.000Z</time>
      </trkpt>
      <trkpt lat="44.09841" lon="6.99107">
        <ele>1406.4000244141</ele>
        <time>2022-07-21T10:51:28.000Z</time>
      </trkpt>
      <trkpt lat="44.09847" lon="6.991">
        <ele>1404.5999755859</ele>
        <time>2022-07-21T10:51:30.000Z</time>
      </trkpt>
      <trkpt lat="44.09844" lon="6.99093">
        <ele>1404</ele>
        <time>2022-07-21T10:51:33.000Z</time>
      </trkpt>
      <trkpt lat="44.09843" lon="6.9909">
        <ele>1405</ele>
        <time>2022-07-21T10:51:36.000Z</time>
      </trkpt>
      <trkpt lat="44.09842" lon="6.99088">
        <ele>1405.1999511719</ele>
        <time>2022-07-21T10:51:42.000Z</time>
      </trkpt>
      <trkpt lat="44.0984" lon="6.99082">
        <ele>1405.1999511719</ele>
        <time>2022-07-21T10:51:50.000Z</time>
      </trkpt>
      <trkpt lat="44.09838" lon="6.9908">
        <ele>1405.1999511719</ele>
        <time>2022-07-21T10:51:52.000Z</time>
      </trkpt>
      <trkpt lat="44.09835" lon="6.9908">
        <ele>1405.1999511719</ele>
        <time>2022-07-21T10:51:53.000Z</time>
      </trkpt>
      <trkpt lat="44.09823" lon="6.9908">
        <ele>1405.1999511719</ele>
        <time>2022-07-21T10:51:57.000Z</time>
      </trkpt>
      <trkpt lat="44.09812" lon="6.99076">
        <ele>1404.1999511719</ele>
        <time>2022-07-21T10:52:01.000Z</time>
      </trkpt>
      <trkpt lat="44.0981" lon="6.99073">
        <ele>1404.1999511719</ele>
        <time>2022-07-21T10:52:02.000Z</time>
      </trkpt>
      <trkpt lat="44.09801" lon="6.9907">
        <ele>1405</ele>
        <time>2022-07-21T10:52:06.000Z</time>
      </trkpt>
      <trkpt lat="44.09787" lon="6.99069">
        <ele>1405.1999511719</ele>
        <time>2022-07-21T10:52:12.000Z</time>
      </trkpt>
      <trkpt lat="44.09782" lon="6.9907">
        <ele>1406.1999511719</ele>
        <time>2022-07-21T10:52:14.000Z</time>
      </trkpt>
      <trkpt lat="44.09775" lon="6.99068">
        <ele>1407.1999511719</ele>
        <time>2022-07-21T10:52:17.000Z</time>
      </trkpt>
      <trkpt lat="44.09769" lon="6.99068">
        <ele>1408.1999511719</ele>
        <time>2022-07-21T10:52:19.000Z</time>
      </trkpt>
      <trkpt lat="44.09767" lon="6.99067">
        <ele>1408.5999755859</ele>
        <time>2022-07-21T10:52:20.000Z</time>
      </trkpt>
      <trkpt lat="44.09762" lon="6.99067">
        <ele>1409.8000488281</ele>
        <time>2022-07-21T10:52:22.000Z</time>
      </trkpt>
      <trkpt lat="44.0976" lon="6.99068">
        <ele>1411.1999511719</ele>
        <time>2022-07-21T10:52:24.000Z</time>
      </trkpt>
      <trkpt lat="44.09759" lon="6.99068">
        <ele>1411.8000488281</ele>
        <time>2022-07-21T10:52:25.000Z</time>
      </trkpt>
      <trkpt lat="44.09757" lon="6.99068">
        <ele>1412.1999511719</ele>
        <time>2022-07-21T10:52:26.000Z</time>
      </trkpt>
      <trkpt lat="44.0975" lon="6.99067">
        <ele>1413.1999511719</ele>
        <time>2022-07-21T10:52:29.000Z</time>
      </trkpt>
      <trkpt lat="44.09748" lon="6.99066">
        <ele>1413.5999755859</ele>
        <time>2022-07-21T10:52:30.000Z</time>
      </trkpt>
      <trkpt lat="44.09745" lon="6.99066">
        <ele>1414.1999511719</ele>
        <time>2022-07-21T10:52:31.000Z</time>
      </trkpt>
      <trkpt lat="44.09742" lon="6.99065">
        <ele>1414.5999755859</ele>
        <time>2022-07-21T10:52:32.000Z</time>
      </trkpt>
      <trkpt lat="44.09738" lon="6.99065">
        <ele>1415.8000488281</ele>
        <time>2022-07-21T10:52:34.000Z</time>
      </trkpt>
      <trkpt lat="44.09733" lon="6.99065">
        <ele>1416.8000488281</ele>
        <time>2022-07-21T10:52:36.000Z</time>
      </trkpt>
      <trkpt lat="44.09728" lon="6.99065">
        <ele>1417.8000488281</ele>
        <time>2022-07-21T10:52:38.000Z</time>
      </trkpt>
      <trkpt lat="44.09724" lon="6.99065">
        <ele>1419.1999511719</ele>
        <time>2022-07-21T10:52:40.000Z</time>
      </trkpt>
      <trkpt lat="44.0972" lon="6.99066">
        <ele>1420.1999511719</ele>
        <time>2022-07-21T10:52:42.000Z</time>
      </trkpt>
      <trkpt lat="44.09714" lon="6.9907">
        <ele>1421.4000244141</ele>
        <time>2022-07-21T10:52:45.000Z</time>
      </trkpt>
      <trkpt lat="44.09708" lon="6.99074">
        <ele>1422.8000488281</ele>
        <time>2022-07-21T10:52:48.000Z</time>
      </trkpt>
      <trkpt lat="44.097" lon="6.99076">
        <ele>1424</ele>
        <time>2022-07-21T10:52:52.000Z</time>
      </trkpt>
      <trkpt lat="44.09699" lon="6.99078">
        <ele>1424.1999511719</ele>
        <time>2022-07-21T10:52:53.000Z</time>
      </trkpt>
      <trkpt lat="44.09694" lon="6.99082">
        <ele>1425.1999511719</ele>
        <time>2022-07-21T10:52:56.000Z</time>
      </trkpt>
      <trkpt lat="44.09685" lon="6.99089">
        <ele>1426.5999755859</ele>
        <time>2022-07-21T10:53:01.000Z</time>
      </trkpt>
      <trkpt lat="44.09681" lon="6.99092">
        <ele>1427.5999755859</ele>
        <time>2022-07-21T10:53:03.000Z</time>
      </trkpt>
      <trkpt lat="44.09673" lon="6.99096">
        <ele>1429</ele>
        <time>2022-07-21T10:53:07.000Z</time>
      </trkpt>
      <trkpt lat="44.09671" lon="6.99097">
        <ele>1429.4000244141</ele>
        <time>2022-07-21T10:53:08.000Z</time>
      </trkpt>
      <trkpt lat="44.09667" lon="6.99099">
        <ele>1430.1999511719</ele>
        <time>2022-07-21T10:53:10.000Z</time>
      </trkpt>
      <trkpt lat="44.09659" lon="6.99103">
        <ele>1431.4000244141</ele>
        <time>2022-07-21T10:53:14.000Z</time>
      </trkpt>
      <trkpt lat="44.09657" lon="6.99103">
        <ele>1431.8000488281</ele>
        <time>2022-07-21T10:53:15.000Z</time>
      </trkpt>
      <trkpt lat="44.09653" lon="6.99106">
        <ele>1432.5999755859</ele>
        <time>2022-07-21T10:53:17.000Z</time>
      </trkpt>
      <trkpt lat="44.09647" lon="6.9911">
        <ele>1433.5999755859</ele>
        <time>2022-07-21T10:53:20.000Z</time>
      </trkpt>
      <trkpt lat="44.09643" lon="6.99114">
        <ele>1434.4000244141</ele>
        <time>2022-07-21T10:53:22.000Z</time>
      </trkpt>
      <trkpt lat="44.09641" lon="6.99115">
        <ele>1434.8000488281</ele>
        <time>2022-07-21T10:53:23.000Z</time>
      </trkpt>
      <trkpt lat="44.09635" lon="6.99119">
        <ele>1436</ele>
        <time>2022-07-21T10:53:26.000Z</time>
      </trkpt>
      <trkpt lat="44.09632" lon="6.99122">
        <ele>1437.1999511719</ele>
        <time>2022-07-21T10:53:29.000Z</time>
      </trkpt>
      <trkpt lat="44.09631" lon="6.99122">
        <ele>1438.1999511719</ele>
        <time>2022-07-21T10:53:32.000Z</time>
      </trkpt>
      <trkpt lat="44.0963" lon="6.99123">
        <ele>1438.5999755859</ele>
        <time>2022-07-21T10:53:34.000Z</time>
      </trkpt>
      <trkpt lat="44.09627" lon="6.99125">
        <ele>1439</ele>
        <time>2022-07-21T10:53:37.000Z</time>
      </trkpt>
      <trkpt lat="44.09625" lon="6.99128">
        <ele>1439.1999511719</ele>
        <time>2022-07-21T10:53:39.000Z</time>
      </trkpt>
      <trkpt lat="44.09624" lon="6.99129">
        <ele>1439.4000244141</ele>
        <time>2022-07-21T10:53:40.000Z</time>
      </trkpt>
      <trkpt lat="44.09617" lon="6.99138">
        <ele>1440</ele>
        <time>2022-07-21T10:53:44.000Z</time>
      </trkpt>
      <trkpt lat="44.09613" lon="6.99141">
        <ele>1440.4000244141</ele>
        <time>2022-07-21T10:53:46.000Z</time>
      </trkpt>
      <trkpt lat="44.09608" lon="6.99144">
        <ele>1441.5999755859</ele>
        <time>2022-07-21T10:53:49.000Z</time>
      </trkpt>
      <trkpt lat="44.09606" lon="6.99145">
        <ele>1442</ele>
        <time>2022-07-21T10:53:50.000Z</time>
      </trkpt>
      <trkpt lat="44.09602" lon="6.99148">
        <ele>1442.5999755859</ele>
        <time>2022-07-21T10:53:52.000Z</time>
      </trkpt>
      <trkpt lat="44.09596" lon="6.99149">
        <ele>1444</ele>
        <time>2022-07-21T10:53:56.000Z</time>
      </trkpt>
      <trkpt lat="44.09591" lon="6.99153">
        <ele>1445.1999511719</ele>
        <time>2022-07-21T10:53:59.000Z</time>
      </trkpt>
      <trkpt lat="44.09587" lon="6.99154">
        <ele>1445.8000488281</ele>
        <time>2022-07-21T10:54:01.000Z</time>
      </trkpt>
      <trkpt lat="44.09582" lon="6.99157">
        <ele>1446.5999755859</ele>
        <time>2022-07-21T10:54:04.000Z</time>
      </trkpt>
      <trkpt lat="44.09577" lon="6.99161">
        <ele>1447.5999755859</ele>
        <time>2022-07-21T10:54:07.000Z</time>
      </trkpt>
      <trkpt lat="44.09574" lon="6.99163">
        <ele>1448.4000244141</ele>
        <time>2022-07-21T10:54:09.000Z</time>
      </trkpt>
      <trkpt lat="44.09571" lon="6.99165">
        <ele>1449</ele>
        <time>2022-07-21T10:54:11.000Z</time>
      </trkpt>
      <trkpt lat="44.09565" lon="6.99166">
        <ele>1449.8000488281</ele>
        <time>2022-07-21T10:54:14.000Z</time>
      </trkpt>
      <trkpt lat="44.09563" lon="6.99167">
        <ele>1450.1999511719</ele>
        <time>2022-07-21T10:54:15.000Z</time>
      </trkpt>
      <trkpt lat="44.09555" lon="6.99169">
        <ele>1451.5999755859</ele>
        <time>2022-07-21T10:54:19.000Z</time>
      </trkpt>
      <trkpt lat="44.09551" lon="6.9917">
        <ele>1452.1999511719</ele>
        <time>2022-07-21T10:54:21.000Z</time>
      </trkpt>
      <trkpt lat="44.0955" lon="6.9917">
        <ele>1452.5999755859</ele>
        <time>2022-07-21T10:54:22.000Z</time>
      </trkpt>
      <trkpt lat="44.09544" lon="6.9917">
        <ele>1453.5999755859</ele>
        <time>2022-07-21T10:54:25.000Z</time>
      </trkpt>
      <trkpt lat="44.09537" lon="6.99169">
        <ele>1455</ele>
        <time>2022-07-21T10:54:29.000Z</time>
      </trkpt>
      <trkpt lat="44.09532" lon="6.99168">
        <ele>1456</ele>
        <time>2022-07-21T10:54:32.000Z</time>
      </trkpt>
      <trkpt lat="44.09529" lon="6.9917">
        <ele>1456.5999755859</ele>
        <time>2022-07-21T10:54:34.000Z</time>
      </trkpt>
      <trkpt lat="44.09524" lon="6.99173">
        <ele>1457.1999511719</ele>
        <time>2022-07-21T10:54:36.000Z</time>
      </trkpt>
      <trkpt lat="44.09516" lon="6.99178">
        <ele>1457.1999511719</ele>
        <time>2022-07-21T10:54:38.000Z</time>
      </trkpt>
      <trkpt lat="44.09512" lon="6.99179">
        <ele>1457</ele>
        <time>2022-07-21T10:54:39.000Z</time>
      </trkpt>
      <trkpt lat="44.09503" lon="6.99181">
        <ele>1456</ele>
        <time>2022-07-21T10:54:42.000Z</time>
      </trkpt>
      <trkpt lat="44.09483" lon="6.99188">
        <ele>1456.8000488281</ele>
        <time>2022-07-21T10:54:49.000Z</time>
      </trkpt>
      <trkpt lat="44.09478" lon="6.9919">
        <ele>1457.1999511719</ele>
        <time>2022-07-21T10:54:51.000Z</time>
      </trkpt>
      <trkpt lat="44.0947" lon="6.99191">
        <ele>1457.5999755859</ele>
        <time>2022-07-21T10:54:54.000Z</time>
      </trkpt>
      <trkpt lat="44.09462" lon="6.99194">
        <ele>1458.5999755859</ele>
        <time>2022-07-21T10:54:58.000Z</time>
      </trkpt>
      <trkpt lat="44.09459" lon="6.99193">
        <ele>1459</ele>
        <time>2022-07-21T10:54:59.000Z</time>
      </trkpt>
      <trkpt lat="44.09452" lon="6.9919">
        <ele>1459.8000488281</ele>
        <time>2022-07-21T10:55:02.000Z</time>
      </trkpt>
      <trkpt lat="44.09451" lon="6.9919">
        <ele>1460.5999755859</ele>
        <time>2022-07-21T10:55:04.000Z</time>
      </trkpt>
      <trkpt lat="44.0945" lon="6.9919">
        <ele>1461.1999511719</ele>
        <time>2022-07-21T10:55:06.000Z</time>
      </trkpt>
      <trkpt lat="44.0945" lon="6.9919">
        <ele>1462.4000244141</ele>
        <time>2022-07-21T10:55:09.000Z</time>
      </trkpt>
      <trkpt lat="44.0945" lon="6.99186">
        <ele>1462.5999755859</ele>
        <time>2022-07-21T10:55:17.000Z</time>
      </trkpt>
      <trkpt lat="44.09457" lon="6.99186">
        <ele>1463.4000244141</ele>
        <time>2022-07-21T10:55:22.000Z</time>
      </trkpt>
      <trkpt lat="44.09459" lon="6.99186">
        <ele>1463.4000244141</ele>
        <time>2022-07-21T10:55:23.000Z</time>
      </trkpt>
      <trkpt lat="44.09466" lon="6.99182">
        <ele>1464.1999511719</ele>
        <time>2022-07-21T10:55:28.000Z</time>
      </trkpt>
      <trkpt lat="44.09466" lon="6.99183">
        <ele>1464.4000244141</ele>
        <time>2022-07-21T10:55:30.000Z</time>
      </trkpt>
      <trkpt lat="44.09466" lon="6.99183">
        <ele>1464.5999755859</ele>
        <time>2022-07-21T10:55:33.000Z</time>
      </trkpt>
      <trkpt lat="44.09467" lon="6.99182">
        <ele>1464.5999755859</ele>
        <time>2022-07-21T10:55:47.000Z</time>
      </trkpt>
      <trkpt lat="44.09469" lon="6.99184">
        <ele>1464.5999755859</ele>
        <time>2022-07-21T10:56:06.000Z</time>
      </trkpt>
      <trkpt lat="44.09477" lon="6.99179">
        <ele>1464.5999755859</ele>
        <time>2022-07-21T10:56:11.000Z</time>
      </trkpt>
      <trkpt lat="44.09489" lon="6.99171">
        <ele>1465.4000244141</ele>
        <time>2022-07-21T10:56:17.000Z</time>
      </trkpt>
      <trkpt lat="44.09492" lon="6.99169">
        <ele>1465.5999755859</ele>
        <time>2022-07-21T10:56:18.000Z</time>
      </trkpt>
      <trkpt lat="44.09507" lon="6.99161">
        <ele>1466.8000488281</ele>
        <time>2022-07-21T10:56:25.000Z</time>
      </trkpt>
      <trkpt lat="44.09514" lon="6.99157">
        <ele>1467.5999755859</ele>
        <time>2022-07-21T10:56:29.000Z</time>
      </trkpt>
      <trkpt lat="44.09516" lon="6.99155">
        <ele>1468</ele>
        <time>2022-07-21T10:56:30.000Z</time>
      </trkpt>
      <trkpt lat="44.09524" lon="6.99154">
        <ele>1468</ele>
        <time>2022-07-21T10:56:35.000Z</time>
      </trkpt>
      <trkpt lat="44.09525" lon="6.99154">
        <ele>1468</ele>
        <time>2022-07-21T10:56:36.000Z</time>
      </trkpt>
      <trkpt lat="44.09531" lon="6.9915">
        <ele>1468</ele>
        <time>2022-07-21T10:56:39.000Z</time>
      </trkpt>
      <trkpt lat="44.09538" lon="6.99148">
        <ele>1468.1999511719</ele>
        <time>2022-07-21T10:56:43.000Z</time>
      </trkpt>
      <trkpt lat="44.09545" lon="6.99144">
        <ele>1468.1999511719</ele>
        <time>2022-07-21T10:56:47.000Z</time>
      </trkpt>
      <trkpt lat="44.09548" lon="6.99142">
        <ele>1468</ele>
        <time>2022-07-21T10:56:48.000Z</time>
      </trkpt>
      <trkpt lat="44.09558" lon="6.99138">
        <ele>1467.1999511719</ele>
        <time>2022-07-21T10:56:51.000Z</time>
      </trkpt>
      <trkpt lat="44.09563" lon="6.99135">
        <ele>1466.8000488281</ele>
        <time>2022-07-21T10:56:53.000Z</time>
      </trkpt>
      <trkpt lat="44.09568" lon="6.99129">
        <ele>1466.4000244141</ele>
        <time>2022-07-21T10:56:55.000Z</time>
      </trkpt>
      <trkpt lat="44.09578" lon="6.99115">
        <ele>1465.4000244141</ele>
        <time>2022-07-21T10:56:58.000Z</time>
      </trkpt>
      <trkpt lat="44.09588" lon="6.99105">
        <ele>1464</ele>
        <time>2022-07-21T10:57:00.000Z</time>
      </trkpt>
      <trkpt lat="44.09597" lon="6.99096">
        <ele>1462.4000244141</ele>
        <time>2022-07-21T10:57:02.000Z</time>
      </trkpt>
      <trkpt lat="44.09606" lon="6.99087">
        <ele>1461.1999511719</ele>
        <time>2022-07-21T10:57:04.000Z</time>
      </trkpt>
      <trkpt lat="44.09619" lon="6.99077">
        <ele>1460.1999511719</ele>
        <time>2022-07-21T10:57:07.000Z</time>
      </trkpt>
      <trkpt lat="44.09623" lon="6.99075">
        <ele>1459.1999511719</ele>
        <time>2022-07-21T10:57:10.000Z</time>
      </trkpt>
      <trkpt lat="44.09624" lon="6.99074">
        <ele>1458.4000244141</ele>
        <time>2022-07-21T10:57:11.000Z</time>
      </trkpt>
      <trkpt lat="44.09628" lon="6.99072">
        <ele>1458</ele>
        <time>2022-07-21T10:57:18.000Z</time>
      </trkpt>
      <trkpt lat="44.09629" lon="6.99071">
        <ele>1457.4000244141</ele>
        <time>2022-07-21T10:57:22.000Z</time>
      </trkpt>
      <trkpt lat="44.0963" lon="6.9907">
        <ele>1457.8000488281</ele>
        <time>2022-07-21T10:57:26.000Z</time>
      </trkpt>
      <trkpt lat="44.09633" lon="6.99069">
        <ele>1458</ele>
        <time>2022-07-21T10:57:33.000Z</time>
      </trkpt>
      <trkpt lat="44.09635" lon="6.99069">
        <ele>1458.1999511719</ele>
        <time>2022-07-21T10:57:42.000Z</time>
      </trkpt>
      <trkpt lat="44.09636" lon="6.99068">
        <ele>1458</ele>
        <time>2022-07-21T10:57:49.000Z</time>
      </trkpt>
      <trkpt lat="44.09643" lon="6.99062">
        <ele>1457.5999755859</ele>
        <time>2022-07-21T10:57:54.000Z</time>
      </trkpt>
      <trkpt lat="44.09646" lon="6.99058">
        <ele>1456.8000488281</ele>
        <time>2022-07-21T10:57:56.000Z</time>
      </trkpt>
      <trkpt lat="44.09648" lon="6.99055">
        <ele>1456.4000244141</ele>
        <time>2022-07-21T10:57:57.000Z</time>
      </trkpt>
      <trkpt lat="44.09649" lon="6.99053">
        <ele>1455.8000488281</ele>
        <time>2022-07-21T10:57:58.000Z</time>
      </trkpt>
      <trkpt lat="44.0965" lon="6.99049">
        <ele>1455</ele>
        <time>2022-07-21T10:58:00.000Z</time>
      </trkpt>
      <trkpt lat="44.09652" lon="6.9904">
        <ele>1455.4000244141</ele>
        <time>2022-07-21T10:58:03.000Z</time>
      </trkpt>
      <trkpt lat="44.09653" lon="6.99032">
        <ele>1456.4000244141</ele>
        <time>2022-07-21T10:58:05.000Z</time>
      </trkpt>
      <trkpt lat="44.09652" lon="6.99024">
        <ele>1457.5999755859</ele>
        <time>2022-07-21T10:58:07.000Z</time>
      </trkpt>
      <trkpt lat="44.09653" lon="6.99017">
        <ele>1458.8000488281</ele>
        <time>2022-07-21T10:58:09.000Z</time>
      </trkpt>
      <trkpt lat="44.09654" lon="6.99009">
        <ele>1460</ele>
        <time>2022-07-21T10:58:11.000Z</time>
      </trkpt>
      <trkpt lat="44.09656" lon="6.99002">
        <ele>1461</ele>
        <time>2022-07-21T10:58:13.000Z</time>
      </trkpt>
      <trkpt lat="44.09657" lon="6.98999">
        <ele>1461.4000244141</ele>
        <time>2022-07-21T10:58:14.000Z</time>
      </trkpt>
      <trkpt lat="44.09658" lon="6.98987">
        <ele>1462.8000488281</ele>
        <time>2022-07-21T10:58:17.000Z</time>
      </trkpt>
      <trkpt lat="44.09658" lon="6.9898">
        <ele>1464</ele>
        <time>2022-07-21T10:58:19.000Z</time>
      </trkpt>
      <trkpt lat="44.09658" lon="6.98977">
        <ele>1465.1999511719</ele>
        <time>2022-07-21T10:58:20.000Z</time>
      </trkpt>
      <trkpt lat="44.09659" lon="6.98973">
        <ele>1465.8000488281</ele>
        <time>2022-07-21T10:58:21.000Z</time>
      </trkpt>
      <trkpt lat="44.0966" lon="6.9897">
        <ele>1466.4000244141</ele>
        <time>2022-07-21T10:58:22.000Z</time>
      </trkpt>
      <trkpt lat="44.09662" lon="6.9896">
        <ele>1467.8000488281</ele>
        <time>2022-07-21T10:58:25.000Z</time>
      </trkpt>
      <trkpt lat="44.0966" lon="6.98951">
        <ele>1468.8000488281</ele>
        <time>2022-07-21T10:58:28.000Z</time>
      </trkpt>
      <trkpt lat="44.0966" lon="6.98949">
        <ele>1469</ele>
        <time>2022-07-21T10:58:29.000Z</time>
      </trkpt>
      <trkpt lat="44.09656" lon="6.98938">
        <ele>1470.1999511719</ele>
        <time>2022-07-21T10:58:33.000Z</time>
      </trkpt>
      <trkpt lat="44.09654" lon="6.98936">
        <ele>1470.1999511719</ele>
        <time>2022-07-21T10:58:34.000Z</time>
      </trkpt>
      <trkpt lat="44.0965" lon="6.98929">
        <ele>1471.4000244141</ele>
        <time>2022-07-21T10:58:37.000Z</time>
      </trkpt>
      <trkpt lat="44.09647" lon="6.98917">
        <ele>1472.5999755859</ele>
        <time>2022-07-21T10:58:41.000Z</time>
      </trkpt>
      <trkpt lat="44.09647" lon="6.98914">
        <ele>1472.8000488281</ele>
        <time>2022-07-21T10:58:42.000Z</time>
      </trkpt>
      <trkpt lat="44.09646" lon="6.98896">
        <ele>1472.8000488281</ele>
        <time>2022-07-21T10:58:48.000Z</time>
      </trkpt>
      <trkpt lat="44.09645" lon="6.9887">
        <ele>1473</ele>
        <time>2022-07-21T10:58:56.000Z</time>
      </trkpt>
      <trkpt lat="44.09644" lon="6.98848">
        <ele>1471</ele>
        <time>2022-07-21T10:59:01.000Z</time>
      </trkpt>
      <trkpt lat="44.09644" lon="6.98845">
        <ele>1470.4000244141</ele>
        <time>2022-07-21T10:59:02.000Z</time>
      </trkpt>
      <trkpt lat="44.09644" lon="6.98846">
        <ele>1470</ele>
        <time>2022-07-21T10:59:03.000Z</time>
      </trkpt>
      <trkpt lat="44.09643" lon="6.98844">
        <ele>1468.8000488281</ele>
        <time>2022-07-21T10:59:06.000Z</time>
      </trkpt>
      <trkpt lat="44.09643" lon="6.98844">
        <ele>1468.5999755859</ele>
        <time>2022-07-21T10:59:07.000Z</time>
      </trkpt>
      <trkpt lat="44.09642" lon="6.98841">
        <ele>1469.4000244141</ele>
        <time>2022-07-21T10:59:18.000Z</time>
      </trkpt>
      <trkpt lat="44.09636" lon="6.98822">
        <ele>1469</ele>
        <time>2022-07-21T10:59:24.000Z</time>
      </trkpt>
      <trkpt lat="44.09632" lon="6.9881">
        <ele>1468.8000488281</ele>
        <time>2022-07-21T10:59:28.000Z</time>
      </trkpt>
      <trkpt lat="44.09631" lon="6.98809">
        <ele>1468.5999755859</ele>
        <time>2022-07-21T10:59:29.000Z</time>
      </trkpt>
      <trkpt lat="44.09633" lon="6.98805">
        <ele>1468.8000488281</ele>
        <time>2022-07-21T10:59:32.000Z</time>
      </trkpt>
      <trkpt lat="44.0964" lon="6.98806">
        <ele>1468.8000488281</ele>
        <time>2022-07-21T10:59:34.000Z</time>
      </trkpt>
      <trkpt lat="44.09644" lon="6.98805">
        <ele>1468.8000488281</ele>
        <time>2022-07-21T10:59:35.000Z</time>
      </trkpt>
      <trkpt lat="44.09655" lon="6.98793">
        <ele>1466.8000488281</ele>
        <time>2022-07-21T10:59:38.000Z</time>
      </trkpt>
      <trkpt lat="44.09658" lon="6.98789">
        <ele>1466</ele>
        <time>2022-07-21T10:59:39.000Z</time>
      </trkpt>
      <trkpt lat="44.09661" lon="6.98783">
        <ele>1464</ele>
        <time>2022-07-21T10:59:40.000Z</time>
      </trkpt>
      <trkpt lat="44.09664" lon="6.98776">
        <ele>1462.8000488281</ele>
        <time>2022-07-21T10:59:41.000Z</time>
      </trkpt>
      <trkpt lat="44.09666" lon="6.98767">
        <ele>1461.4000244141</ele>
        <time>2022-07-21T10:59:42.000Z</time>
      </trkpt>
      <trkpt lat="44.09669" lon="6.98757">
        <ele>1460</ele>
        <time>2022-07-21T10:59:43.000Z</time>
      </trkpt>
      <trkpt lat="44.09674" lon="6.98737">
        <ele>1456.5999755859</ele>
        <time>2022-07-21T10:59:45.000Z</time>
      </trkpt>
      <trkpt lat="44.09677" lon="6.98727">
        <ele>1454.8000488281</ele>
        <time>2022-07-21T10:59:46.000Z</time>
      </trkpt>
      <trkpt lat="44.09682" lon="6.98718">
        <ele>1452.8000488281</ele>
        <time>2022-07-21T10:59:47.000Z</time>
      </trkpt>
      <trkpt lat="44.09687" lon="6.98709">
        <ele>1451.1999511719</ele>
        <time>2022-07-21T10:59:48.000Z</time>
      </trkpt>
      <trkpt lat="44.09691" lon="6.98702">
        <ele>1449.5999755859</ele>
        <time>2022-07-21T10:59:49.000Z</time>
      </trkpt>
      <trkpt lat="44.09695" lon="6.98697">
        <ele>1448.5999755859</ele>
        <time>2022-07-21T10:59:50.000Z</time>
      </trkpt>
      <trkpt lat="44.09698" lon="6.98693">
        <ele>1447.4000244141</ele>
        <time>2022-07-21T10:59:51.000Z</time>
      </trkpt>
      <trkpt lat="44.09699" lon="6.9869">
        <ele>1447.1999511719</ele>
        <time>2022-07-21T10:59:52.000Z</time>
      </trkpt>
      <trkpt lat="44.09699" lon="6.98686">
        <ele>1446.5999755859</ele>
        <time>2022-07-21T10:59:53.000Z</time>
      </trkpt>
      <trkpt lat="44.09699" lon="6.98683">
        <ele>1446</ele>
        <time>2022-07-21T10:59:54.000Z</time>
      </trkpt>
      <trkpt lat="44.09696" lon="6.98681">
        <ele>1445.8000488281</ele>
        <time>2022-07-21T10:59:55.000Z</time>
      </trkpt>
      <trkpt lat="44.09691" lon="6.98678">
        <ele>1445.8000488281</ele>
        <time>2022-07-21T10:59:57.000Z</time>
      </trkpt>
      <trkpt lat="44.09675" lon="6.9867">
        <ele>1447.4000244141</ele>
        <time>2022-07-21T11:00:03.000Z</time>
      </trkpt>
      <trkpt lat="44.09668" lon="6.98665">
        <ele>1448</ele>
        <time>2022-07-21T11:00:06.000Z</time>
      </trkpt>
      <trkpt lat="44.09661" lon="6.9866">
        <ele>1448.4000244141</ele>
        <time>2022-07-21T11:00:09.000Z</time>
      </trkpt>
      <trkpt lat="44.09651" lon="6.98654">
        <ele>1449.4000244141</ele>
        <time>2022-07-21T11:00:13.000Z</time>
      </trkpt>
      <trkpt lat="44.09642" lon="6.98648">
        <ele>1450</ele>
        <time>2022-07-21T11:00:17.000Z</time>
      </trkpt>
      <trkpt lat="44.09633" lon="6.98642">
        <ele>1450.4000244141</ele>
        <time>2022-07-21T11:00:21.000Z</time>
      </trkpt>
      <trkpt lat="44.09622" lon="6.98634">
        <ele>1451.1999511719</ele>
        <time>2022-07-21T11:00:26.000Z</time>
      </trkpt>
      <trkpt lat="44.0962" lon="6.9863">
        <ele>1451.5999755859</ele>
        <time>2022-07-21T11:00:29.000Z</time>
      </trkpt>
      <trkpt lat="44.09616" lon="6.98628">
        <ele>1451.8000488281</ele>
        <time>2022-07-21T11:00:31.000Z</time>
      </trkpt>
      <trkpt lat="44.09608" lon="6.98627">
        <ele>1451.5999755859</ele>
        <time>2022-07-21T11:00:34.000Z</time>
      </trkpt>
      <trkpt lat="44.09598" lon="6.98628">
        <ele>1451.4000244141</ele>
        <time>2022-07-21T11:00:37.000Z</time>
      </trkpt>
      <trkpt lat="44.09576" lon="6.98626">
        <ele>1450.8000488281</ele>
        <time>2022-07-21T11:00:44.000Z</time>
      </trkpt>
      <trkpt lat="44.09565" lon="6.98633">
        <ele>1450.8000488281</ele>
        <time>2022-07-21T11:00:47.000Z</time>
      </trkpt>
      <trkpt lat="44.09561" lon="6.98636">
        <ele>1450.5999755859</ele>
        <time>2022-07-21T11:00:48.000Z</time>
      </trkpt>
      <trkpt lat="44.09554" lon="6.98641">
        <ele>1450.4000244141</ele>
        <time>2022-07-21T11:00:50.000Z</time>
      </trkpt>
      <trkpt lat="44.09538" lon="6.98651">
        <ele>1450.1999511719</ele>
        <time>2022-07-21T11:00:55.000Z</time>
      </trkpt>
      <trkpt lat="44.09514" lon="6.98672">
        <ele>1450.4000244141</ele>
        <time>2022-07-21T11:01:03.000Z</time>
      </trkpt>
      <trkpt lat="44.09499" lon="6.98696">
        <ele>1450.5999755859</ele>
        <time>2022-07-21T11:01:09.000Z</time>
      </trkpt>
      <trkpt lat="44.09497" lon="6.98701">
        <ele>1450.5999755859</ele>
        <time>2022-07-21T11:01:10.000Z</time>
      </trkpt>
      <trkpt lat="44.09493" lon="6.98728">
        <ele>1450.5999755859</ele>
        <time>2022-07-21T11:01:14.000Z</time>
      </trkpt>
      <trkpt lat="44.09493" lon="6.98736">
        <ele>1450.1999511719</ele>
        <time>2022-07-21T11:01:15.000Z</time>
      </trkpt>
      <trkpt lat="44.0949" lon="6.98758">
        <ele>1449.4000244141</ele>
        <time>2022-07-21T11:01:18.000Z</time>
      </trkpt>
      <trkpt lat="44.09484" lon="6.98785">
        <ele>1449</ele>
        <time>2022-07-21T11:01:22.000Z</time>
      </trkpt>
      <trkpt lat="44.09477" lon="6.98803">
        <ele>1449</ele>
        <time>2022-07-21T11:01:25.000Z</time>
      </trkpt>
      <trkpt lat="44.09462" lon="6.9883">
        <ele>1449.1999511719</ele>
        <time>2022-07-21T11:01:31.000Z</time>
      </trkpt>
      <trkpt lat="44.0944" lon="6.98858">
        <ele>1450.1999511719</ele>
        <time>2022-07-21T11:01:39.000Z</time>
      </trkpt>
      <trkpt lat="44.09436" lon="6.98867">
        <ele>1450.4000244141</ele>
        <time>2022-07-21T11:01:41.000Z</time>
      </trkpt>
      <trkpt lat="44.09426" lon="6.98892">
        <ele>1451</ele>
        <time>2022-07-21T11:01:47.000Z</time>
      </trkpt>
      <trkpt lat="44.09422" lon="6.98919">
        <ele>1451.4000244141</ele>
        <time>2022-07-21T11:01:53.000Z</time>
      </trkpt>
      <trkpt lat="44.09419" lon="6.98932">
        <ele>1451.5999755859</ele>
        <time>2022-07-21T11:01:56.000Z</time>
      </trkpt>
      <trkpt lat="44.09415" lon="6.9894">
        <ele>1451.5999755859</ele>
        <time>2022-07-21T11:01:59.000Z</time>
      </trkpt>
      <trkpt lat="44.09409" lon="6.98955">
        <ele>1451.8000488281</ele>
        <time>2022-07-21T11:02:04.000Z</time>
      </trkpt>
      <trkpt lat="44.09408" lon="6.98954">
        <ele>1451.8000488281</ele>
        <time>2022-07-21T11:02:07.000Z</time>
      </trkpt>
      <trkpt lat="44.09405" lon="6.98953">
        <ele>1451.8000488281</ele>
        <time>2022-07-21T11:02:12.000Z</time>
      </trkpt>
      <trkpt lat="44.09406" lon="6.98953">
        <ele>1451.1999511719</ele>
        <time>2022-07-21T11:02:19.000Z</time>
      </trkpt>
      <trkpt lat="44.09409" lon="6.98956">
        <ele>1451.8000488281</ele>
        <time>2022-07-21T11:02:26.000Z</time>
      </trkpt>
      <trkpt lat="44.09408" lon="6.98956">
        <ele>1452</ele>
        <time>2022-07-21T11:02:31.000Z</time>
      </trkpt>
      <trkpt lat="44.09408" lon="6.98954">
        <ele>1451.8000488281</ele>
        <time>2022-07-21T11:02:36.000Z</time>
      </trkpt>
      <trkpt lat="44.09406" lon="6.98952">
        <ele>1452</ele>
        <time>2022-07-21T11:02:44.000Z</time>
      </trkpt>
      <trkpt lat="44.09406" lon="6.98953">
        <ele>1452</ele>
        <time>2022-07-21T11:02:50.000Z</time>
      </trkpt>
      <trkpt lat="44.09401" lon="6.98951">
        <ele>1452</ele>
        <time>2022-07-21T11:02:58.000Z</time>
      </trkpt>
      <trkpt lat="44.09399" lon="6.9895">
        <ele>1451.8000488281</ele>
        <time>2022-07-21T11:03:04.000Z</time>
      </trkpt>
      <trkpt lat="44.09401" lon="6.98951">
        <ele>1452.1999511719</ele>
        <time>2022-07-21T11:03:09.000Z</time>
      </trkpt>
      <trkpt lat="44.09402" lon="6.98952">
        <ele>1452.5999755859</ele>
        <time>2022-07-21T11:03:13.000Z</time>
      </trkpt>
      <trkpt lat="44.09403" lon="6.98952">
        <ele>1452.5999755859</ele>
        <time>2022-07-21T11:03:14.000Z</time>
      </trkpt>
      <trkpt lat="44.09402" lon="6.98955">
        <ele>1452.1999511719</ele>
        <time>2022-07-21T11:03:20.000Z</time>
      </trkpt>
      <trkpt lat="44.09402" lon="6.98956">
        <ele>1452.1999511719</ele>
        <time>2022-07-21T11:03:26.000Z</time>
      </trkpt>
      <trkpt lat="44.09402" lon="6.98958">
        <ele>1452</ele>
        <time>2022-07-21T11:03:33.000Z</time>
      </trkpt>
      <trkpt lat="44.09404" lon="6.98958">
        <ele>1451.8000488281</ele>
        <time>2022-07-21T11:03:40.000Z</time>
      </trkpt>
      <trkpt lat="44.09405" lon="6.98956">
        <ele>1452</ele>
        <time>2022-07-21T11:03:45.000Z</time>
      </trkpt>
      <trkpt lat="44.09408" lon="6.98954">
        <ele>1452</ele>
        <time>2022-07-21T11:03:51.000Z</time>
      </trkpt>
      <trkpt lat="44.09409" lon="6.98954">
        <ele>1452.1999511719</ele>
        <time>2022-07-21T11:04:01.000Z</time>
      </trkpt>
      <trkpt lat="44.09407" lon="6.98952">
        <ele>1452.1999511719</ele>
        <time>2022-07-21T11:04:08.000Z</time>
      </trkpt>
      <trkpt lat="44.09406" lon="6.98952">
        <ele>1451.8000488281</ele>
        <time>2022-07-21T11:04:15.000Z</time>
      </trkpt>
      <trkpt lat="44.09407" lon="6.98953">
        <ele>1451.8000488281</ele>
        <time>2022-07-21T11:04:22.000Z</time>
      </trkpt>
      <trkpt lat="44.09407" lon="6.98954">
        <ele>1451.8000488281</ele>
        <time>2022-07-21T11:04:27.000Z</time>
      </trkpt>
      <trkpt lat="44.09411" lon="6.98959">
        <ele>1451.8000488281</ele>
        <time>2022-07-21T11:04:32.000Z</time>
      </trkpt>
      <trkpt lat="44.09413" lon="6.98961">
        <ele>1451.8000488281</ele>
        <time>2022-07-21T11:04:38.000Z</time>
      </trkpt>
      <trkpt lat="44.09414" lon="6.98962">
        <ele>1452.1999511719</ele>
        <time>2022-07-21T11:04:44.000Z</time>
      </trkpt>
      <trkpt lat="44.09413" lon="6.98961">
        <ele>1452.4000244141</ele>
        <time>2022-07-21T11:04:46.000Z</time>
      </trkpt>
      <trkpt lat="44.09409" lon="6.98957">
        <ele>1452.4000244141</ele>
        <time>2022-07-21T11:04:49.000Z</time>
      </trkpt>
      <trkpt lat="44.09405" lon="6.98954">
        <ele>1452</ele>
        <time>2022-07-21T11:04:52.000Z</time>
      </trkpt>
      <trkpt lat="44.09401" lon="6.98951">
        <ele>1451.8000488281</ele>
        <time>2022-07-21T11:04:57.000Z</time>
      </trkpt>
      <trkpt lat="44.09401" lon="6.98953">
        <ele>1451.8000488281</ele>
        <time>2022-07-21T11:05:03.000Z</time>
      </trkpt>
      <trkpt lat="44.09404" lon="6.98954">
        <ele>1451.8000488281</ele>
        <time>2022-07-21T11:05:06.000Z</time>
      </trkpt>
      <trkpt lat="44.09406" lon="6.98954">
        <ele>1451.8000488281</ele>
        <time>2022-07-21T11:05:09.000Z</time>
      </trkpt>
      <trkpt lat="44.09408" lon="6.98955">
        <ele>1451.5999755859</ele>
        <time>2022-07-21T11:05:10.000Z</time>
      </trkpt>
      <trkpt lat="44.09409" lon="6.98958">
        <ele>1451.5999755859</ele>
        <time>2022-07-21T11:05:13.000Z</time>
      </trkpt>
      <trkpt lat="44.0941" lon="6.9896">
        <ele>1451.5999755859</ele>
        <time>2022-07-21T11:05:16.000Z</time>
      </trkpt>
      <trkpt lat="44.09409" lon="6.98961">
        <ele>1451.5999755859</ele>
        <time>2022-07-21T11:05:22.000Z</time>
      </trkpt>
      <trkpt lat="44.09405" lon="6.98958">
        <ele>1451.5999755859</ele>
        <time>2022-07-21T11:05:28.000Z</time>
      </trkpt>
      <trkpt lat="44.09404" lon="6.98957">
        <ele>1452</ele>
        <time>2022-07-21T11:05:33.000Z</time>
      </trkpt>
      <trkpt lat="44.09403" lon="6.98956">
        <ele>1452</ele>
        <time>2022-07-21T11:05:41.000Z</time>
      </trkpt>
      <trkpt lat="44.09403" lon="6.98957">
        <ele>1452</ele>
        <time>2022-07-21T11:05:47.000Z</time>
      </trkpt>
      <trkpt lat="44.09401" lon="6.98955">
        <ele>1452</ele>
        <time>2022-07-21T11:05:54.000Z</time>
      </trkpt>
      <trkpt lat="44.09401" lon="6.98955">
        <ele>1451.8000488281</ele>
        <time>2022-07-21T11:06:01.000Z</time>
      </trkpt>
      <trkpt lat="44.09402" lon="6.98954">
        <ele>1451.4000244141</ele>
        <time>2022-07-21T11:06:09.000Z</time>
      </trkpt>
      <trkpt lat="44.09399" lon="6.98952">
        <ele>1451.8000488281</ele>
        <time>2022-07-21T11:06:15.000Z</time>
      </trkpt>
      <trkpt lat="44.09402" lon="6.98951">
        <ele>1451.8000488281</ele>
        <time>2022-07-21T11:06:20.000Z</time>
      </trkpt>
      <trkpt lat="44.09403" lon="6.98952">
        <ele>1451.8000488281</ele>
        <time>2022-07-21T11:06:28.000Z</time>
      </trkpt>
      <trkpt lat="44.09403" lon="6.98951">
        <ele>1451.8000488281</ele>
        <time>2022-07-21T11:06:30.000Z</time>
      </trkpt>
      <trkpt lat="44.09404" lon="6.9895">
        <ele>1451.5999755859</ele>
        <time>2022-07-21T11:06:32.000Z</time>
      </trkpt>
      <trkpt lat="44.09402" lon="6.9895">
        <ele>1452.1999511719</ele>
        <time>2022-07-21T11:06:40.000Z</time>
      </trkpt>
      <trkpt lat="44.09401" lon="6.98949">
        <ele>1452</ele>
        <time>2022-07-21T11:06:47.000Z</time>
      </trkpt>
      <trkpt lat="44.09398" lon="6.98945">
        <ele>1451.4000244141</ele>
        <time>2022-07-21T11:06:55.000Z</time>
      </trkpt>
      <trkpt lat="44.09398" lon="6.98945">
        <ele>1451.1999511719</ele>
        <time>2022-07-21T11:07:02.000Z</time>
      </trkpt>
      <trkpt lat="44.09399" lon="6.98948">
        <ele>1451.4000244141</ele>
        <time>2022-07-21T11:07:08.000Z</time>
      </trkpt>
      <trkpt lat="44.094" lon="6.98946">
        <ele>1451.5999755859</ele>
        <time>2022-07-21T11:07:14.000Z</time>
      </trkpt>
      <trkpt lat="44.094" lon="6.98948">
        <ele>1451.5999755859</ele>
        <time>2022-07-21T11:07:22.000Z</time>
      </trkpt>
      <trkpt lat="44.09402" lon="6.98952">
        <ele>1451.1999511719</ele>
        <time>2022-07-21T11:07:29.000Z</time>
      </trkpt>
      <trkpt lat="44.09405" lon="6.98953">
        <ele>1451.1999511719</ele>
        <time>2022-07-21T11:07:36.000Z</time>
      </trkpt>
      <trkpt lat="44.09406" lon="6.98954">
        <ele>1451.1999511719</ele>
        <time>2022-07-21T11:07:44.000Z</time>
      </trkpt>
      <trkpt lat="44.09407" lon="6.98955">
        <ele>1451</ele>
        <time>2022-07-21T11:07:51.000Z</time>
      </trkpt>
      <trkpt lat="44.09406" lon="6.98954">
        <ele>1451</ele>
        <time>2022-07-21T11:07:57.000Z</time>
      </trkpt>
      <trkpt lat="44.09405" lon="6.98954">
        <ele>1450.5999755859</ele>
        <time>2022-07-21T11:08:02.000Z</time>
      </trkpt>
      <trkpt lat="44.09406" lon="6.98954">
        <ele>1450.8000488281</ele>
        <time>2022-07-21T11:08:04.000Z</time>
      </trkpt>
      <trkpt lat="44.09407" lon="6.98956">
        <ele>1451</ele>
        <time>2022-07-21T11:08:07.000Z</time>
      </trkpt>
      <trkpt lat="44.09409" lon="6.98955">
        <ele>1450.8000488281</ele>
        <time>2022-07-21T11:08:09.000Z</time>
      </trkpt>
      <trkpt lat="44.09409" lon="6.98954">
        <ele>1450.5999755859</ele>
        <time>2022-07-21T11:08:14.000Z</time>
      </trkpt>
      <trkpt lat="44.09409" lon="6.98953">
        <ele>1450.4000244141</ele>
        <time>2022-07-21T11:08:21.000Z</time>
      </trkpt>
      <trkpt lat="44.09408" lon="6.98954">
        <ele>1450.4000244141</ele>
        <time>2022-07-21T11:08:29.000Z</time>
      </trkpt>
      <trkpt lat="44.09403" lon="6.98951">
        <ele>1450.1999511719</ele>
        <time>2022-07-21T11:08:35.000Z</time>
      </trkpt>
      <trkpt lat="44.09403" lon="6.98951">
        <ele>1450.4000244141</ele>
        <time>2022-07-21T11:08:41.000Z</time>
      </trkpt>
      <trkpt lat="44.09407" lon="6.98951">
        <ele>1450.8000488281</ele>
        <time>2022-07-21T11:08:51.000Z</time>
      </trkpt>
      <trkpt lat="44.09408" lon="6.9895">
        <ele>1450.8000488281</ele>
        <time>2022-07-21T11:08:59.000Z</time>
      </trkpt>
      <trkpt lat="44.0941" lon="6.98952">
        <ele>1450.5999755859</ele>
        <time>2022-07-21T11:09:06.000Z</time>
      </trkpt>
      <trkpt lat="44.09408" lon="6.98949">
        <ele>1450.5999755859</ele>
        <time>2022-07-21T11:09:13.000Z</time>
      </trkpt>
      <trkpt lat="44.09407" lon="6.98948">
        <ele>1450.5999755859</ele>
        <time>2022-07-21T11:09:18.000Z</time>
      </trkpt>
      <trkpt lat="44.09407" lon="6.98948">
        <ele>1450.4000244141</ele>
        <time>2022-07-21T11:09:25.000Z</time>
      </trkpt>
      <trkpt lat="44.09407" lon="6.98947">
        <ele>1450.5999755859</ele>
        <time>2022-07-21T11:09:31.000Z</time>
      </trkpt>
      <trkpt lat="44.09403" lon="6.98944">
        <ele>1450.4000244141</ele>
        <time>2022-07-21T11:09:39.000Z</time>
      </trkpt>
      <trkpt lat="44.09405" lon="6.98945">
        <ele>1450.5999755859</ele>
        <time>2022-07-21T11:09:44.000Z</time>
      </trkpt>
      <trkpt lat="44.09405" lon="6.98946">
        <ele>1450.5999755859</ele>
        <time>2022-07-21T11:09:51.000Z</time>
      </trkpt>
      <trkpt lat="44.09405" lon="6.98947">
        <ele>1450.4000244141</ele>
        <time>2022-07-21T11:09:57.000Z</time>
      </trkpt>
      <trkpt lat="44.09405" lon="6.98947">
        <ele>1450.5999755859</ele>
        <time>2022-07-21T11:10:03.000Z</time>
      </trkpt>
      <trkpt lat="44.09404" lon="6.98947">
        <ele>1450.4000244141</ele>
        <time>2022-07-21T11:10:09.000Z</time>
      </trkpt>
      <trkpt lat="44.09405" lon="6.98946">
        <ele>1450.4000244141</ele>
        <time>2022-07-21T11:10:16.000Z</time>
      </trkpt>
      <trkpt lat="44.09403" lon="6.98946">
        <ele>1450.4000244141</ele>
        <time>2022-07-21T11:10:23.000Z</time>
      </trkpt>
      <trkpt lat="44.09404" lon="6.98948">
        <ele>1450.4000244141</ele>
        <time>2022-07-21T11:10:30.000Z</time>
      </trkpt>
      <trkpt lat="44.09403" lon="6.98949">
        <ele>1450.4000244141</ele>
        <time>2022-07-21T11:10:36.000Z</time>
      </trkpt>
      <trkpt lat="44.09402" lon="6.98948">
        <ele>1450.4000244141</ele>
        <time>2022-07-21T11:10:43.000Z</time>
      </trkpt>
      <trkpt lat="44.09402" lon="6.98949">
        <ele>1450.5999755859</ele>
        <time>2022-07-21T11:10:49.000Z</time>
      </trkpt>
      <trkpt lat="44.09403" lon="6.98948">
        <ele>1450.4000244141</ele>
        <time>2022-07-21T11:10:57.000Z</time>
      </trkpt>
      <trkpt lat="44.09402" lon="6.98949">
        <ele>1450.4000244141</ele>
        <time>2022-07-21T11:11:05.000Z</time>
      </trkpt>
      <trkpt lat="44.09401" lon="6.98948">
        <ele>1450.4000244141</ele>
        <time>2022-07-21T11:11:11.000Z</time>
      </trkpt>
      <trkpt lat="44.09399" lon="6.98946">
        <ele>1450.4000244141</ele>
        <time>2022-07-21T11:11:18.000Z</time>
      </trkpt>
      <trkpt lat="44.09399" lon="6.98945">
        <ele>1450.5999755859</ele>
        <time>2022-07-21T11:11:22.000Z</time>
      </trkpt>
      <trkpt lat="44.09399" lon="6.98945">
        <ele>1450.5999755859</ele>
        <time>2022-07-21T11:11:24.000Z</time>
      </trkpt>
      <trkpt lat="44.09398" lon="6.98941">
        <ele>1450.5999755859</ele>
        <time>2022-07-21T11:11:30.000Z</time>
      </trkpt>
      <trkpt lat="44.09397" lon="6.98938">
        <ele>1450.4000244141</ele>
        <time>2022-07-21T11:11:37.000Z</time>
      </trkpt>
      <trkpt lat="44.09398" lon="6.98937">
        <ele>1450.4000244141</ele>
        <time>2022-07-21T11:11:43.000Z</time>
      </trkpt>
      <trkpt lat="44.09398" lon="6.98938">
        <ele>1450.1999511719</ele>
        <time>2022-07-21T11:11:49.000Z</time>
      </trkpt>
      <trkpt lat="44.09396" lon="6.9894">
        <ele>1450.1999511719</ele>
        <time>2022-07-21T11:11:51.000Z</time>
      </trkpt>
      <trkpt lat="44.09397" lon="6.98941">
        <ele>1450.4000244141</ele>
        <time>2022-07-21T11:11:54.000Z</time>
      </trkpt>
      <trkpt lat="44.09397" lon="6.98941">
        <ele>1450.1999511719</ele>
        <time>2022-07-21T11:11:59.000Z</time>
      </trkpt>
      <trkpt lat="44.09394" lon="6.98942">
        <ele>1450.4000244141</ele>
        <time>2022-07-21T11:12:06.000Z</time>
      </trkpt>
      <trkpt lat="44.09392" lon="6.98942">
        <ele>1450.1999511719</ele>
        <time>2022-07-21T11:12:15.000Z</time>
      </trkpt>
      <trkpt lat="44.09391" lon="6.98942">
        <ele>1450.4000244141</ele>
        <time>2022-07-21T11:12:22.000Z</time>
      </trkpt>
      <trkpt lat="44.09389" lon="6.98939">
        <ele>1450.4000244141</ele>
        <time>2022-07-21T11:12:28.000Z</time>
      </trkpt>
      <trkpt lat="44.09389" lon="6.98939">
        <ele>1450.4000244141</ele>
        <time>2022-07-21T11:12:29.000Z</time>
      </trkpt>
      <trkpt lat="44.09392" lon="6.98942">
        <ele>1450</ele>
        <time>2022-07-21T11:12:37.000Z</time>
      </trkpt>
      <trkpt lat="44.09397" lon="6.98944">
        <ele>1450.1999511719</ele>
        <time>2022-07-21T11:12:44.000Z</time>
      </trkpt>
      <trkpt lat="44.09402" lon="6.98947">
        <ele>1450.1999511719</ele>
        <time>2022-07-21T11:12:51.000Z</time>
      </trkpt>
      <trkpt lat="44.09405" lon="6.98948">
        <ele>1450.1999511719</ele>
        <time>2022-07-21T11:12:56.000Z</time>
      </trkpt>
      <trkpt lat="44.09407" lon="6.9895">
        <ele>1450.1999511719</ele>
        <time>2022-07-21T11:12:57.000Z</time>
      </trkpt>
      <trkpt lat="44.0941" lon="6.98953">
        <ele>1450</ele>
        <time>2022-07-21T11:13:01.000Z</time>
      </trkpt>
      <trkpt lat="44.09407" lon="6.98951">
        <ele>1450.1999511719</ele>
        <time>2022-07-21T11:13:05.000Z</time>
      </trkpt>
      <trkpt lat="44.09403" lon="6.98948">
        <ele>1450</ele>
        <time>2022-07-21T11:13:10.000Z</time>
      </trkpt>
      <trkpt lat="44.09401" lon="6.98945">
        <ele>1450.1999511719</ele>
        <time>2022-07-21T11:13:14.000Z</time>
      </trkpt>
      <trkpt lat="44.09402" lon="6.98946">
        <ele>1450.4000244141</ele>
        <time>2022-07-21T11:13:19.000Z</time>
      </trkpt>
      <trkpt lat="44.09401" lon="6.98947">
        <ele>1450.5999755859</ele>
        <time>2022-07-21T11:13:26.000Z</time>
      </trkpt>
      <trkpt lat="44.09397" lon="6.98944">
        <ele>1450.8000488281</ele>
        <time>2022-07-21T11:13:33.000Z</time>
      </trkpt>
      <trkpt lat="44.09393" lon="6.98941">
        <ele>1450.8000488281</ele>
        <time>2022-07-21T11:13:39.000Z</time>
      </trkpt>
      <trkpt lat="44.0939" lon="6.98939">
        <ele>1450.8000488281</ele>
        <time>2022-07-21T11:13:47.000Z</time>
      </trkpt>
      <trkpt lat="44.09388" lon="6.98937">
        <ele>1450.5999755859</ele>
        <time>2022-07-21T11:13:52.000Z</time>
      </trkpt>
      <trkpt lat="44.0939" lon="6.98937">
        <ele>1450.4000244141</ele>
        <time>2022-07-21T11:13:57.000Z</time>
      </trkpt>
      <trkpt lat="44.09391" lon="6.98937">
        <ele>1450.4000244141</ele>
        <time>2022-07-21T11:13:58.000Z</time>
      </trkpt>
      <trkpt lat="44.09393" lon="6.98938">
        <ele>1450.4000244141</ele>
        <time>2022-07-21T11:14:00.000Z</time>
      </trkpt>
      <trkpt lat="44.09394" lon="6.98937">
        <ele>1450.4000244141</ele>
        <time>2022-07-21T11:14:01.000Z</time>
      </trkpt>
      <trkpt lat="44.09392" lon="6.98935">
        <ele>1450.5999755859</ele>
        <time>2022-07-21T11:14:06.000Z</time>
      </trkpt>
      <trkpt lat="44.09392" lon="6.98936">
        <ele>1450.5999755859</ele>
        <time>2022-07-21T11:14:07.000Z</time>
      </trkpt>
      <trkpt lat="44.09396" lon="6.98941">
        <ele>1450.5999755859</ele>
        <time>2022-07-21T11:14:13.000Z</time>
      </trkpt>
      <trkpt lat="44.09401" lon="6.98946">
        <ele>1450.5999755859</ele>
        <time>2022-07-21T11:14:18.000Z</time>
      </trkpt>
      <trkpt lat="44.09404" lon="6.98947">
        <ele>1450.5999755859</ele>
        <time>2022-07-21T11:14:20.000Z</time>
      </trkpt>
      <trkpt lat="44.09408" lon="6.98953">
        <ele>1450.5999755859</ele>
        <time>2022-07-21T11:14:26.000Z</time>
      </trkpt>
      <trkpt lat="44.09409" lon="6.98955">
        <ele>1450.5999755859</ele>
        <time>2022-07-21T11:14:31.000Z</time>
      </trkpt>
      <trkpt lat="44.09408" lon="6.98952">
        <ele>1450.5999755859</ele>
        <time>2022-07-21T11:14:34.000Z</time>
      </trkpt>
      <trkpt lat="44.09407" lon="6.98952">
        <ele>1450.5999755859</ele>
        <time>2022-07-21T11:14:37.000Z</time>
      </trkpt>
      <trkpt lat="44.09405" lon="6.9895">
        <ele>1450.5999755859</ele>
        <time>2022-07-21T11:14:41.000Z</time>
      </trkpt>
      <trkpt lat="44.09404" lon="6.98948">
        <ele>1450.5999755859</ele>
        <time>2022-07-21T11:14:42.000Z</time>
      </trkpt>
      <trkpt lat="44.09404" lon="6.98944">
        <ele>1450.5999755859</ele>
        <time>2022-07-21T11:14:47.000Z</time>
      </trkpt>
      <trkpt lat="44.09407" lon="6.98948">
        <ele>1450.1999511719</ele>
        <time>2022-07-21T11:14:50.000Z</time>
      </trkpt>
      <trkpt lat="44.09408" lon="6.98948">
        <ele>1450.1999511719</ele>
        <time>2022-07-21T11:14:52.000Z</time>
      </trkpt>
      <trkpt lat="44.09411" lon="6.98952">
        <ele>1450.4000244141</ele>
        <time>2022-07-21T11:14:57.000Z</time>
      </trkpt>
      <trkpt lat="44.09416" lon="6.98955">
        <ele>1450.1999511719</ele>
        <time>2022-07-21T11:15:03.000Z</time>
      </trkpt>
      <trkpt lat="44.09416" lon="6.98957">
        <ele>1450.4000244141</ele>
        <time>2022-07-21T11:15:06.000Z</time>
      </trkpt>
      <trkpt lat="44.0941" lon="6.98957">
        <ele>1450.5999755859</ele>
        <time>2022-07-21T11:15:08.000Z</time>
      </trkpt>
      <trkpt lat="44.09406" lon="6.98955">
        <ele>1450</ele>
        <time>2022-07-21T11:15:13.000Z</time>
      </trkpt>
      <trkpt lat="44.0941" lon="6.98957">
        <ele>1450</ele>
        <time>2022-07-21T11:15:19.000Z</time>
      </trkpt>
      <trkpt lat="44.09413" lon="6.98959">
        <ele>1450.1999511719</ele>
        <time>2022-07-21T11:15:25.000Z</time>
      </trkpt>
      <trkpt lat="44.09411" lon="6.98959">
        <ele>1450.1999511719</ele>
        <time>2022-07-21T11:15:31.000Z</time>
      </trkpt>
      <trkpt lat="44.09409" lon="6.98956">
        <ele>1450.5999755859</ele>
        <time>2022-07-21T11:15:37.000Z</time>
      </trkpt>
      <trkpt lat="44.09407" lon="6.98955">
        <ele>1450.5999755859</ele>
        <time>2022-07-21T11:15:38.000Z</time>
      </trkpt>
      <trkpt lat="44.09404" lon="6.98952">
        <ele>1450.5999755859</ele>
        <time>2022-07-21T11:15:41.000Z</time>
      </trkpt>
      <trkpt lat="44.09403" lon="6.9895">
        <ele>1450.4000244141</ele>
        <time>2022-07-21T11:15:47.000Z</time>
      </trkpt>
      <trkpt lat="44.09401" lon="6.9895">
        <ele>1450.1999511719</ele>
        <time>2022-07-21T11:15:54.000Z</time>
      </trkpt>
      <trkpt lat="44.09397" lon="6.98949">
        <ele>1450.1999511719</ele>
        <time>2022-07-21T11:15:59.000Z</time>
      </trkpt>
      <trkpt lat="44.09401" lon="6.98951">
        <ele>1450.1999511719</ele>
        <time>2022-07-21T11:16:07.000Z</time>
      </trkpt>
      <trkpt lat="44.09402" lon="6.98952">
        <ele>1450</ele>
        <time>2022-07-21T11:16:09.000Z</time>
      </trkpt>
      <trkpt lat="44.09405" lon="6.98954">
        <ele>1450</ele>
        <time>2022-07-21T11:16:13.000Z</time>
      </trkpt>
      <trkpt lat="44.09408" lon="6.98959">
        <ele>1450</ele>
        <time>2022-07-21T11:16:20.000Z</time>
      </trkpt>
      <trkpt lat="44.09412" lon="6.98961">
        <ele>1450</ele>
        <time>2022-07-21T11:16:27.000Z</time>
      </trkpt>
      <trkpt lat="44.09414" lon="6.98961">
        <ele>1450</ele>
        <time>2022-07-21T11:16:30.000Z</time>
      </trkpt>
      <trkpt lat="44.09414" lon="6.98962">
        <ele>1450.1999511719</ele>
        <time>2022-07-21T11:16:32.000Z</time>
      </trkpt>
      <trkpt lat="44.09418" lon="6.98961">
        <ele>1450.4000244141</ele>
        <time>2022-07-21T11:16:39.000Z</time>
      </trkpt>
      <trkpt lat="44.09422" lon="6.98966">
        <ele>1450.1999511719</ele>
        <time>2022-07-21T11:16:46.000Z</time>
      </trkpt>
      <trkpt lat="44.09424" lon="6.98968">
        <ele>1450</ele>
        <time>2022-07-21T11:16:47.000Z</time>
      </trkpt>
      <trkpt lat="44.09436" lon="6.98985">
        <ele>1450</ele>
        <time>2022-07-21T11:16:51.000Z</time>
      </trkpt>
      <trkpt lat="44.09444" lon="6.98996">
        <ele>1449.8000488281</ele>
        <time>2022-07-21T11:16:56.000Z</time>
      </trkpt>
      <trkpt lat="44.09444" lon="6.98995">
        <ele>1449.8000488281</ele>
        <time>2022-07-21T11:17:01.000Z</time>
      </trkpt>
      <trkpt lat="44.09444" lon="6.98993">
        <ele>1449.8000488281</ele>
        <time>2022-07-21T11:17:06.000Z</time>
      </trkpt>
      <trkpt lat="44.09436" lon="6.98982">
        <ele>1450.1999511719</ele>
        <time>2022-07-21T11:17:11.000Z</time>
      </trkpt>
      <trkpt lat="44.09431" lon="6.98981">
        <ele>1450.1999511719</ele>
        <time>2022-07-21T11:17:13.000Z</time>
      </trkpt>
      <trkpt lat="44.09427" lon="6.98978">
        <ele>1450.1999511719</ele>
        <time>2022-07-21T11:17:16.000Z</time>
      </trkpt>
      <trkpt lat="44.0943" lon="6.98979">
        <ele>1450.1999511719</ele>
        <time>2022-07-21T11:17:19.000Z</time>
      </trkpt>
      <trkpt lat="44.09434" lon="6.98983">
        <ele>1450.1999511719</ele>
        <time>2022-07-21T11:17:21.000Z</time>
      </trkpt>
      <trkpt lat="44.09439" lon="6.98987">
        <ele>1449.8000488281</ele>
        <time>2022-07-21T11:17:26.000Z</time>
      </trkpt>
      <trkpt lat="44.09431" lon="6.98977">
        <ele>1449.8000488281</ele>
        <time>2022-07-21T11:17:28.000Z</time>
      </trkpt>
      <trkpt lat="44.09427" lon="6.98971">
        <ele>1449.8000488281</ele>
        <time>2022-07-21T11:17:29.000Z</time>
      </trkpt>
      <trkpt lat="44.09431" lon="6.98973">
        <ele>1449.8000488281</ele>
        <time>2022-07-21T11:17:33.000Z</time>
      </trkpt>
      <trkpt lat="44.09428" lon="6.98968">
        <ele>1450.1999511719</ele>
        <time>2022-07-21T11:17:38.000Z</time>
      </trkpt>
      <trkpt lat="44.09418" lon="6.98957">
        <ele>1450.1999511719</ele>
        <time>2022-07-21T11:17:41.000Z</time>
      </trkpt>
      <trkpt lat="44.09412" lon="6.9895">
        <ele>1450</ele>
        <time>2022-07-21T11:17:43.000Z</time>
      </trkpt>
      <trkpt lat="44.09405" lon="6.9894">
        <ele>1450</ele>
        <time>2022-07-21T11:17:48.000Z</time>
      </trkpt>
      <trkpt lat="44.094" lon="6.98942">
        <ele>1449.8000488281</ele>
        <time>2022-07-21T11:17:55.000Z</time>
      </trkpt>
      <trkpt lat="44.09405" lon="6.98947">
        <ele>1449.8000488281</ele>
        <time>2022-07-21T11:17:58.000Z</time>
      </trkpt>
      <trkpt lat="44.09405" lon="6.98946">
        <ele>1449.8000488281</ele>
        <time>2022-07-21T11:17:59.000Z</time>
      </trkpt>
      <trkpt lat="44.09405" lon="6.98948">
        <ele>1449.8000488281</ele>
        <time>2022-07-21T11:18:02.000Z</time>
      </trkpt>
      <trkpt lat="44.09403" lon="6.98947">
        <ele>1449.8000488281</ele>
        <time>2022-07-21T11:18:03.000Z</time>
      </trkpt>
      <trkpt lat="44.09399" lon="6.98943">
        <ele>1449.8000488281</ele>
        <time>2022-07-21T11:18:08.000Z</time>
      </trkpt>
      <trkpt lat="44.09409" lon="6.98954">
        <ele>1450.1999511719</ele>
        <time>2022-07-21T11:18:14.000Z</time>
      </trkpt>
      <trkpt lat="44.09412" lon="6.98956">
        <ele>1450.1999511719</ele>
        <time>2022-07-21T11:18:19.000Z</time>
      </trkpt>
      <trkpt lat="44.09415" lon="6.9896">
        <ele>1450</ele>
        <time>2022-07-21T11:18:20.000Z</time>
      </trkpt>
      <trkpt lat="44.09417" lon="6.98963">
        <ele>1449.8000488281</ele>
        <time>2022-07-21T11:18:22.000Z</time>
      </trkpt>
      <trkpt lat="44.09416" lon="6.98963">
        <ele>1450</ele>
        <time>2022-07-21T11:18:26.000Z</time>
      </trkpt>
      <trkpt lat="44.09413" lon="6.98958">
        <ele>1450</ele>
        <time>2022-07-21T11:18:27.000Z</time>
      </trkpt>
      <trkpt lat="44.09406" lon="6.98948">
        <ele>1450</ele>
        <time>2022-07-21T11:18:29.000Z</time>
      </trkpt>
      <trkpt lat="44.09387" lon="6.98923">
        <ele>1450</ele>
        <time>2022-07-21T11:18:35.000Z</time>
      </trkpt>
      <trkpt lat="44.09389" lon="6.98924">
        <ele>1450</ele>
        <time>2022-07-21T11:18:38.000Z</time>
      </trkpt>
      <trkpt lat="44.09389" lon="6.98924">
        <ele>1450</ele>
        <time>2022-07-21T11:18:39.000Z</time>
      </trkpt>
      <trkpt lat="44.09394" lon="6.98933">
        <ele>1450</ele>
        <time>2022-07-21T11:18:45.000Z</time>
      </trkpt>
      <trkpt lat="44.09386" lon="6.98922">
        <ele>1450.1999511719</ele>
        <time>2022-07-21T11:18:50.000Z</time>
      </trkpt>
      <trkpt lat="44.09381" lon="6.98915">
        <ele>1450</ele>
        <time>2022-07-21T11:18:56.000Z</time>
      </trkpt>
      <trkpt lat="44.09377" lon="6.98907">
        <ele>1450</ele>
        <time>2022-07-21T11:19:01.000Z</time>
      </trkpt>
      <trkpt lat="44.09378" lon="6.98909">
        <ele>1450</ele>
        <time>2022-07-21T11:19:04.000Z</time>
      </trkpt>
      <trkpt lat="44.09384" lon="6.98916">
        <ele>1450</ele>
        <time>2022-07-21T11:19:08.000Z</time>
      </trkpt>
      <trkpt lat="44.09384" lon="6.98916">
        <ele>1450.1999511719</ele>
        <time>2022-07-21T11:19:09.000Z</time>
      </trkpt>
      <trkpt lat="44.09393" lon="6.98931">
        <ele>1450.1999511719</ele>
        <time>2022-07-21T11:19:14.000Z</time>
      </trkpt>
      <trkpt lat="44.09395" lon="6.98933">
        <ele>1450.1999511719</ele>
        <time>2022-07-21T11:19:15.000Z</time>
      </trkpt>
      <trkpt lat="44.09397" lon="6.98937">
        <ele>1450.1999511719</ele>
        <time>2022-07-21T11:19:19.000Z</time>
      </trkpt>
      <trkpt lat="44.09399" lon="6.98941">
        <ele>1450.4000244141</ele>
        <time>2022-07-21T11:19:25.000Z</time>
      </trkpt>
      <trkpt lat="44.09402" lon="6.98946">
        <ele>1450.4000244141</ele>
        <time>2022-07-21T11:19:32.000Z</time>
      </trkpt>
      <trkpt lat="44.09402" lon="6.98947">
        <ele>1450.1999511719</ele>
        <time>2022-07-21T11:19:37.000Z</time>
      </trkpt>
      <trkpt lat="44.09401" lon="6.98947">
        <ele>1450.1999511719</ele>
        <time>2022-07-21T11:19:44.000Z</time>
      </trkpt>
      <trkpt lat="44.094" lon="6.98947">
        <ele>1450.4000244141</ele>
        <time>2022-07-21T11:19:51.000Z</time>
      </trkpt>
      <trkpt lat="44.09399" lon="6.98946">
        <ele>1450.4000244141</ele>
        <time>2022-07-21T11:19:58.000Z</time>
      </trkpt>
      <trkpt lat="44.09398" lon="6.98945">
        <ele>1450.5999755859</ele>
        <time>2022-07-21T11:20:06.000Z</time>
      </trkpt>
      <trkpt lat="44.09398" lon="6.98944">
        <ele>1450.5999755859</ele>
        <time>2022-07-21T11:20:12.000Z</time>
      </trkpt>
      <trkpt lat="44.09396" lon="6.98943">
        <ele>1450.4000244141</ele>
        <time>2022-07-21T11:20:21.000Z</time>
      </trkpt>
      <trkpt lat="44.09394" lon="6.9894">
        <ele>1450.5999755859</ele>
        <time>2022-07-21T11:20:28.000Z</time>
      </trkpt>
      <trkpt lat="44.09392" lon="6.98938">
        <ele>1450.5999755859</ele>
        <time>2022-07-21T11:20:33.000Z</time>
      </trkpt>
      <trkpt lat="44.09393" lon="6.98938">
        <ele>1450.5999755859</ele>
        <time>2022-07-21T11:20:39.000Z</time>
      </trkpt>
      <trkpt lat="44.09392" lon="6.98937">
        <ele>1450.4000244141</ele>
        <time>2022-07-21T11:20:45.000Z</time>
      </trkpt>
      <trkpt lat="44.09394" lon="6.98938">
        <ele>1450.4000244141</ele>
        <time>2022-07-21T11:20:51.000Z</time>
      </trkpt>
      <trkpt lat="44.09395" lon="6.98941">
        <ele>1450.5999755859</ele>
        <time>2022-07-21T11:20:57.000Z</time>
      </trkpt>
      <trkpt lat="44.09399" lon="6.98946">
        <ele>1450.4000244141</ele>
        <time>2022-07-21T11:21:03.000Z</time>
      </trkpt>
      <trkpt lat="44.09398" lon="6.98946">
        <ele>1450.4000244141</ele>
        <time>2022-07-21T11:21:05.000Z</time>
      </trkpt>
      <trkpt lat="44.09397" lon="6.98944">
        <ele>1450.4000244141</ele>
        <time>2022-07-21T11:21:07.000Z</time>
      </trkpt>
      <trkpt lat="44.094" lon="6.98947">
        <ele>1450.4000244141</ele>
        <time>2022-07-21T11:21:12.000Z</time>
      </trkpt>
      <trkpt lat="44.09398" lon="6.98945">
        <ele>1450.4000244141</ele>
        <time>2022-07-21T11:21:15.000Z</time>
      </trkpt>
      <trkpt lat="44.09397" lon="6.98944">
        <ele>1450.1999511719</ele>
        <time>2022-07-21T11:21:16.000Z</time>
      </trkpt>
      <trkpt lat="44.094" lon="6.98945">
        <ele>1450.1999511719</ele>
        <time>2022-07-21T11:21:21.000Z</time>
      </trkpt>
      <trkpt lat="44.09401" lon="6.98946">
        <ele>1450.1999511719</ele>
        <time>2022-07-21T11:21:22.000Z</time>
      </trkpt>
      <trkpt lat="44.09402" lon="6.98946">
        <ele>1450.4000244141</ele>
        <time>2022-07-21T11:21:27.000Z</time>
      </trkpt>
      <trkpt lat="44.09404" lon="6.98948">
        <ele>1450.5999755859</ele>
        <time>2022-07-21T11:21:34.000Z</time>
      </trkpt>
      <trkpt lat="44.09409" lon="6.98954">
        <ele>1450.1999511719</ele>
        <time>2022-07-21T11:21:40.000Z</time>
      </trkpt>
      <trkpt lat="44.09407" lon="6.98953">
        <ele>1450.5999755859</ele>
        <time>2022-07-21T11:21:46.000Z</time>
      </trkpt>
      <trkpt lat="44.09403" lon="6.98949">
        <ele>1450.5999755859</ele>
        <time>2022-07-21T11:21:53.000Z</time>
      </trkpt>
      <trkpt lat="44.09406" lon="6.98952">
        <ele>1450.5999755859</ele>
        <time>2022-07-21T11:21:59.000Z</time>
      </trkpt>
      <trkpt lat="44.09407" lon="6.98954">
        <ele>1450.8000488281</ele>
        <time>2022-07-21T11:22:00.000Z</time>
      </trkpt>
      <trkpt lat="44.09408" lon="6.98955">
        <ele>1450.8000488281</ele>
        <time>2022-07-21T11:22:05.000Z</time>
      </trkpt>
      <trkpt lat="44.09406" lon="6.98952">
        <ele>1450.5999755859</ele>
        <time>2022-07-21T11:22:11.000Z</time>
      </trkpt>
      <trkpt lat="44.09405" lon="6.98954">
        <ele>1450.5999755859</ele>
        <time>2022-07-21T11:22:18.000Z</time>
      </trkpt>
      <trkpt lat="44.09408" lon="6.98956">
        <ele>1450.8000488281</ele>
        <time>2022-07-21T11:22:24.000Z</time>
      </trkpt>
      <trkpt lat="44.0941" lon="6.98959">
        <ele>1450.8000488281</ele>
        <time>2022-07-21T11:22:30.000Z</time>
      </trkpt>
      <trkpt lat="44.09413" lon="6.98961">
        <ele>1450.4000244141</ele>
        <time>2022-07-21T11:22:34.000Z</time>
      </trkpt>
      <trkpt lat="44.09413" lon="6.9896">
        <ele>1450.4000244141</ele>
        <time>2022-07-21T11:22:35.000Z</time>
      </trkpt>
      <trkpt lat="44.09417" lon="6.98966">
        <ele>1450.5999755859</ele>
        <time>2022-07-21T11:22:40.000Z</time>
      </trkpt>
      <trkpt lat="44.0942" lon="6.98968">
        <ele>1450.5999755859</ele>
        <time>2022-07-21T11:22:44.000Z</time>
      </trkpt>
      <trkpt lat="44.09425" lon="6.98972">
        <ele>1450.5999755859</ele>
        <time>2022-07-21T11:22:46.000Z</time>
      </trkpt>
      <trkpt lat="44.09428" lon="6.98975">
        <ele>1450.5999755859</ele>
        <time>2022-07-21T11:22:51.000Z</time>
      </trkpt>
      <trkpt lat="44.09426" lon="6.98973">
        <ele>1450.8000488281</ele>
        <time>2022-07-21T11:22:53.000Z</time>
      </trkpt>
      <trkpt lat="44.09427" lon="6.98973">
        <ele>1450.8000488281</ele>
        <time>2022-07-21T11:22:56.000Z</time>
      </trkpt>
      <trkpt lat="44.0943" lon="6.98975">
        <ele>1450.8000488281</ele>
        <time>2022-07-21T11:22:57.000Z</time>
      </trkpt>
      <trkpt lat="44.09431" lon="6.98973">
        <ele>1450.8000488281</ele>
        <time>2022-07-21T11:23:04.000Z</time>
      </trkpt>
      <trkpt lat="44.09428" lon="6.98974">
        <ele>1451.1999511719</ele>
        <time>2022-07-21T11:23:10.000Z</time>
      </trkpt>
      <trkpt lat="44.09428" lon="6.98975">
        <ele>1451.1999511719</ele>
        <time>2022-07-21T11:23:14.000Z</time>
      </trkpt>
      <trkpt lat="44.09427" lon="6.98975">
        <ele>1450.8000488281</ele>
        <time>2022-07-21T11:23:18.000Z</time>
      </trkpt>
      <trkpt lat="44.09416" lon="6.98962">
        <ele>1451.1999511719</ele>
        <time>2022-07-21T11:23:23.000Z</time>
      </trkpt>
      <trkpt lat="44.09414" lon="6.98958">
        <ele>1451.1999511719</ele>
        <time>2022-07-21T11:23:28.000Z</time>
      </trkpt>
      <trkpt lat="44.09414" lon="6.98959">
        <ele>1451.1999511719</ele>
        <time>2022-07-21T11:23:29.000Z</time>
      </trkpt>
      <trkpt lat="44.0941" lon="6.98956">
        <ele>1451.1999511719</ele>
        <time>2022-07-21T11:23:34.000Z</time>
      </trkpt>
      <trkpt lat="44.09409" lon="6.98955">
        <ele>1451.1999511719</ele>
        <time>2022-07-21T11:23:40.000Z</time>
      </trkpt>
      <trkpt lat="44.09411" lon="6.98958">
        <ele>1451</ele>
        <time>2022-07-21T11:23:45.000Z</time>
      </trkpt>
      <trkpt lat="44.09409" lon="6.98954">
        <ele>1451.1999511719</ele>
        <time>2022-07-21T11:23:51.000Z</time>
      </trkpt>
      <trkpt lat="44.09409" lon="6.98953">
        <ele>1451.1999511719</ele>
        <time>2022-07-21T11:23:57.000Z</time>
      </trkpt>
      <trkpt lat="44.09413" lon="6.98957">
        <ele>1451.1999511719</ele>
        <time>2022-07-21T11:24:03.000Z</time>
      </trkpt>
      <trkpt lat="44.09411" lon="6.98956">
        <ele>1451.4000244141</ele>
        <time>2022-07-21T11:24:08.000Z</time>
      </trkpt>
      <trkpt lat="44.09409" lon="6.98953">
        <ele>1451.4000244141</ele>
        <time>2022-07-21T11:24:13.000Z</time>
      </trkpt>
      <trkpt lat="44.0941" lon="6.98954">
        <ele>1451.1999511719</ele>
        <time>2022-07-21T11:24:15.000Z</time>
      </trkpt>
      <trkpt lat="44.09409" lon="6.98952">
        <ele>1451.1999511719</ele>
        <time>2022-07-21T11:24:17.000Z</time>
      </trkpt>
      <trkpt lat="44.09408" lon="6.9895">
        <ele>1451.1999511719</ele>
        <time>2022-07-21T11:24:18.000Z</time>
      </trkpt>
      <trkpt lat="44.09409" lon="6.9895">
        <ele>1451.1999511719</ele>
        <time>2022-07-21T11:24:21.000Z</time>
      </trkpt>
      <trkpt lat="44.09411" lon="6.98952">
        <ele>1451</ele>
        <time>2022-07-21T11:24:23.000Z</time>
      </trkpt>
      <trkpt lat="44.09412" lon="6.98951">
        <ele>1451</ele>
        <time>2022-07-21T11:24:26.000Z</time>
      </trkpt>
      <trkpt lat="44.0941" lon="6.98948">
        <ele>1451.4000244141</ele>
        <time>2022-07-21T11:24:29.000Z</time>
      </trkpt>
      <trkpt lat="44.09409" lon="6.98947">
        <ele>1451.4000244141</ele>
        <time>2022-07-21T11:24:30.000Z</time>
      </trkpt>
      <trkpt lat="44.09407" lon="6.98949">
        <ele>1451.4000244141</ele>
        <time>2022-07-21T11:24:36.000Z</time>
      </trkpt>
      <trkpt lat="44.09406" lon="6.98948">
        <ele>1451.4000244141</ele>
        <time>2022-07-21T11:24:43.000Z</time>
      </trkpt>
      <trkpt lat="44.09406" lon="6.98948">
        <ele>1451.4000244141</ele>
        <time>2022-07-21T11:24:49.000Z</time>
      </trkpt>
      <trkpt lat="44.09408" lon="6.98953">
        <ele>1451.4000244141</ele>
        <time>2022-07-21T11:24:50.000Z</time>
      </trkpt>
      <trkpt lat="44.09409" lon="6.98957">
        <ele>1451.1999511719</ele>
        <time>2022-07-21T11:24:53.000Z</time>
      </trkpt>
      <trkpt lat="44.0941" lon="6.98959">
        <ele>1451.1999511719</ele>
        <time>2022-07-21T11:24:57.000Z</time>
      </trkpt>
      <trkpt lat="44.09409" lon="6.98958">
        <ele>1451.4000244141</ele>
        <time>2022-07-21T11:25:05.000Z</time>
      </trkpt>
      <trkpt lat="44.09404" lon="6.98954">
        <ele>1451.4000244141</ele>
        <time>2022-07-21T11:25:12.000Z</time>
      </trkpt>
      <trkpt lat="44.09407" lon="6.98959">
        <ele>1451.1999511719</ele>
        <time>2022-07-21T11:25:19.000Z</time>
      </trkpt>
      <trkpt lat="44.09407" lon="6.98959">
        <ele>1451.4000244141</ele>
        <time>2022-07-21T11:25:26.000Z</time>
      </trkpt>
      <trkpt lat="44.09404" lon="6.98956">
        <ele>1451.4000244141</ele>
        <time>2022-07-21T11:25:32.000Z</time>
      </trkpt>
      <trkpt lat="44.09403" lon="6.98957">
        <ele>1451.4000244141</ele>
        <time>2022-07-21T11:25:39.000Z</time>
      </trkpt>
      <trkpt lat="44.09404" lon="6.98958">
        <ele>1451.4000244141</ele>
        <time>2022-07-21T11:25:43.000Z</time>
      </trkpt>
      <trkpt lat="44.09406" lon="6.98961">
        <ele>1451.5999755859</ele>
        <time>2022-07-21T11:25:48.000Z</time>
      </trkpt>
      <trkpt lat="44.09406" lon="6.98961">
        <ele>1451.4000244141</ele>
        <time>2022-07-21T11:25:54.000Z</time>
      </trkpt>
      <trkpt lat="44.09403" lon="6.98957">
        <ele>1451.4000244141</ele>
        <time>2022-07-21T11:26:00.000Z</time>
      </trkpt>
      <trkpt lat="44.09402" lon="6.98955">
        <ele>1451.5999755859</ele>
        <time>2022-07-21T11:26:04.000Z</time>
      </trkpt>
      <trkpt lat="44.09403" lon="6.98956">
        <ele>1451.5999755859</ele>
        <time>2022-07-21T11:26:05.000Z</time>
      </trkpt>
      <trkpt lat="44.09403" lon="6.98956">
        <ele>1451.5999755859</ele>
        <time>2022-07-21T11:26:11.000Z</time>
      </trkpt>
      <trkpt lat="44.09405" lon="6.98959">
        <ele>1451.5999755859</ele>
        <time>2022-07-21T11:26:15.000Z</time>
      </trkpt>
      <trkpt lat="44.09406" lon="6.98961">
        <ele>1451.5999755859</ele>
        <time>2022-07-21T11:26:17.000Z</time>
      </trkpt>
      <trkpt lat="44.09407" lon="6.98962">
        <ele>1451.8000488281</ele>
        <time>2022-07-21T11:26:23.000Z</time>
      </trkpt>
      <trkpt lat="44.09408" lon="6.98964">
        <ele>1451.8000488281</ele>
        <time>2022-07-21T11:26:29.000Z</time>
      </trkpt>
      <trkpt lat="44.09409" lon="6.98966">
        <ele>1451.8000488281</ele>
        <time>2022-07-21T11:26:36.000Z</time>
      </trkpt>
      <trkpt lat="44.09409" lon="6.98968">
        <ele>1452</ele>
        <time>2022-07-21T11:26:43.000Z</time>
      </trkpt>
      <trkpt lat="44.09409" lon="6.98966">
        <ele>1452</ele>
        <time>2022-07-21T11:26:44.000Z</time>
      </trkpt>
      <trkpt lat="44.09407" lon="6.98964">
        <ele>1452</ele>
        <time>2022-07-21T11:26:48.000Z</time>
      </trkpt>
      <trkpt lat="44.09407" lon="6.98964">
        <ele>1452.4000244141</ele>
        <time>2022-07-21T11:26:54.000Z</time>
      </trkpt>
      <trkpt lat="44.09407" lon="6.98964">
        <ele>1452.1999511719</ele>
        <time>2022-07-21T11:27:00.000Z</time>
      </trkpt>
      <trkpt lat="44.09408" lon="6.98966">
        <ele>1452.4000244141</ele>
        <time>2022-07-21T11:27:07.000Z</time>
      </trkpt>
      <trkpt lat="44.09411" lon="6.98969">
        <ele>1452.1999511719</ele>
        <time>2022-07-21T11:27:10.000Z</time>
      </trkpt>
      <trkpt lat="44.09411" lon="6.9897">
        <ele>1452.1999511719</ele>
        <time>2022-07-21T11:27:12.000Z</time>
      </trkpt>
      <trkpt lat="44.09415" lon="6.98976">
        <ele>1452.4000244141</ele>
        <time>2022-07-21T11:27:18.000Z</time>
      </trkpt>
      <trkpt lat="44.09414" lon="6.98972">
        <ele>1452.1999511719</ele>
        <time>2022-07-21T11:27:22.000Z</time>
      </trkpt>
      <trkpt lat="44.09413" lon="6.98971">
        <ele>1452.1999511719</ele>
        <time>2022-07-21T11:27:28.000Z</time>
      </trkpt>
      <trkpt lat="44.09411" lon="6.98968">
        <ele>1452.1999511719</ele>
        <time>2022-07-21T11:27:33.000Z</time>
      </trkpt>
      <trkpt lat="44.09407" lon="6.98963">
        <ele>1452</ele>
        <time>2022-07-21T11:27:39.000Z</time>
      </trkpt>
      <trkpt lat="44.09407" lon="6.98961">
        <ele>1452</ele>
        <time>2022-07-21T11:27:44.000Z</time>
      </trkpt>
      <trkpt lat="44.09408" lon="6.98962">
        <ele>1452.1999511719</ele>
        <time>2022-07-21T11:27:52.000Z</time>
      </trkpt>
      <trkpt lat="44.09406" lon="6.9896">
        <ele>1452.4000244141</ele>
        <time>2022-07-21T11:27:54.000Z</time>
      </trkpt>
      <trkpt lat="44.09407" lon="6.9896">
        <ele>1452.5999755859</ele>
        <time>2022-07-21T11:27:56.000Z</time>
      </trkpt>
      <trkpt lat="44.09407" lon="6.98961">
        <ele>1452.5999755859</ele>
        <time>2022-07-21T11:27:57.000Z</time>
      </trkpt>
      <trkpt lat="44.09408" lon="6.98962">
        <ele>1452.1999511719</ele>
        <time>2022-07-21T11:28:00.000Z</time>
      </trkpt>
      <trkpt lat="44.09408" lon="6.98962">
        <ele>1452.4000244141</ele>
        <time>2022-07-21T11:28:06.000Z</time>
      </trkpt>
      <trkpt lat="44.09408" lon="6.98961">
        <ele>1452.1999511719</ele>
        <time>2022-07-21T11:28:10.000Z</time>
      </trkpt>
      <trkpt lat="44.09405" lon="6.98955">
        <ele>1452.4000244141</ele>
        <time>2022-07-21T11:28:15.000Z</time>
      </trkpt>
      <trkpt lat="44.09403" lon="6.98952">
        <ele>1452.1999511719</ele>
        <time>2022-07-21T11:28:22.000Z</time>
      </trkpt>
      <trkpt lat="44.09403" lon="6.98951">
        <ele>1452.5999755859</ele>
        <time>2022-07-21T11:28:24.000Z</time>
      </trkpt>
      <trkpt lat="44.09402" lon="6.98951">
        <ele>1453</ele>
        <time>2022-07-21T11:28:28.000Z</time>
      </trkpt>
      <trkpt lat="44.09413" lon="6.98975">
        <ele>1453.4000244141</ele>
        <time>2022-07-21T11:29:07.000Z</time>
      </trkpt>
      <trkpt lat="44.09414" lon="6.98973">
        <ele>1453.4000244141</ele>
        <time>2022-07-21T11:29:12.000Z</time>
      </trkpt>
      <trkpt lat="44.09413" lon="6.98971">
        <ele>1453.4000244141</ele>
        <time>2022-07-21T11:29:13.000Z</time>
      </trkpt>
      <trkpt lat="44.09413" lon="6.98969">
        <ele>1453.4000244141</ele>
        <time>2022-07-21T11:29:19.000Z</time>
      </trkpt>
      <trkpt lat="44.09412" lon="6.98966">
        <ele>1453.5999755859</ele>
        <time>2022-07-21T11:29:27.000Z</time>
      </trkpt>
      <trkpt lat="44.09413" lon="6.98969">
        <ele>1453.5999755859</ele>
        <time>2022-07-21T11:29:34.000Z</time>
      </trkpt>
      <trkpt lat="44.09412" lon="6.98967">
        <ele>1453.5999755859</ele>
        <time>2022-07-21T11:29:35.000Z</time>
      </trkpt>
      <trkpt lat="44.0941" lon="6.98962">
        <ele>1453.5999755859</ele>
        <time>2022-07-21T11:29:39.000Z</time>
      </trkpt>
      <trkpt lat="44.09412" lon="6.98965">
        <ele>1453.5999755859</ele>
        <time>2022-07-21T11:29:45.000Z</time>
      </trkpt>
      <trkpt lat="44.09409" lon="6.98959">
        <ele>1453.5999755859</ele>
        <time>2022-07-21T11:29:50.000Z</time>
      </trkpt>
      <trkpt lat="44.09409" lon="6.98958">
        <ele>1453.5999755859</ele>
        <time>2022-07-21T11:29:51.000Z</time>
      </trkpt>
      <trkpt lat="44.09409" lon="6.98958">
        <ele>1453.5999755859</ele>
        <time>2022-07-21T11:29:52.000Z</time>
      </trkpt>
      <trkpt lat="44.09411" lon="6.9896">
        <ele>1453.5999755859</ele>
        <time>2022-07-21T11:29:54.000Z</time>
      </trkpt>
      <trkpt lat="44.09412" lon="6.9896">
        <ele>1453.5999755859</ele>
        <time>2022-07-21T11:29:59.000Z</time>
      </trkpt>
      <trkpt lat="44.0941" lon="6.9896">
        <ele>1453.5999755859</ele>
        <time>2022-07-21T11:30:04.000Z</time>
      </trkpt>
      <trkpt lat="44.09409" lon="6.98958">
        <ele>1453.5999755859</ele>
        <time>2022-07-21T11:30:06.000Z</time>
      </trkpt>
      <trkpt lat="44.09408" lon="6.98956">
        <ele>1453.4000244141</ele>
        <time>2022-07-21T11:30:09.000Z</time>
      </trkpt>
      <trkpt lat="44.09407" lon="6.98954">
        <ele>1453.5999755859</ele>
        <time>2022-07-21T11:30:14.000Z</time>
      </trkpt>
      <trkpt lat="44.09408" lon="6.98953">
        <ele>1453.4000244141</ele>
        <time>2022-07-21T11:30:19.000Z</time>
      </trkpt>
      <trkpt lat="44.09409" lon="6.98954">
        <ele>1453.5999755859</ele>
        <time>2022-07-21T11:30:24.000Z</time>
      </trkpt>
      <trkpt lat="44.09409" lon="6.98953">
        <ele>1453.4000244141</ele>
        <time>2022-07-21T11:30:29.000Z</time>
      </trkpt>
      <trkpt lat="44.09414" lon="6.9896">
        <ele>1453.5999755859</ele>
        <time>2022-07-21T11:30:35.000Z</time>
      </trkpt>
      <trkpt lat="44.09414" lon="6.9896">
        <ele>1453.5999755859</ele>
        <time>2022-07-21T11:30:41.000Z</time>
      </trkpt>
      <trkpt lat="44.09411" lon="6.98955">
        <ele>1453.4000244141</ele>
        <time>2022-07-21T11:30:55.000Z</time>
      </trkpt>
      <trkpt lat="44.09412" lon="6.98953">
        <ele>1453.4000244141</ele>
        <time>2022-07-21T11:31:01.000Z</time>
      </trkpt>
      <trkpt lat="44.09412" lon="6.98954">
        <ele>1453.4000244141</ele>
        <time>2022-07-21T11:31:06.000Z</time>
      </trkpt>
      <trkpt lat="44.09409" lon="6.98955">
        <ele>1453.1999511719</ele>
        <time>2022-07-21T11:31:08.000Z</time>
      </trkpt>
      <trkpt lat="44.09409" lon="6.98955">
        <ele>1453</ele>
        <time>2022-07-21T11:31:10.000Z</time>
      </trkpt>
      <trkpt lat="44.09407" lon="6.98954">
        <ele>1453.4000244141</ele>
        <time>2022-07-21T11:31:19.000Z</time>
      </trkpt>
      <trkpt lat="44.09408" lon="6.98957">
        <ele>1453.4000244141</ele>
        <time>2022-07-21T11:31:30.000Z</time>
      </trkpt>
      <trkpt lat="44.09409" lon="6.98959">
        <ele>1453.4000244141</ele>
        <time>2022-07-21T11:31:41.000Z</time>
      </trkpt>
      <trkpt lat="44.09411" lon="6.98961">
        <ele>1453.4000244141</ele>
        <time>2022-07-21T11:31:46.000Z</time>
      </trkpt>
      <trkpt lat="44.09408" lon="6.9896">
        <ele>1453.5999755859</ele>
        <time>2022-07-21T11:31:52.000Z</time>
      </trkpt>
      <trkpt lat="44.09408" lon="6.9896">
        <ele>1453.5999755859</ele>
        <time>2022-07-21T11:31:58.000Z</time>
      </trkpt>
      <trkpt lat="44.09407" lon="6.98958">
        <ele>1453.5999755859</ele>
        <time>2022-07-21T11:32:04.000Z</time>
      </trkpt>
      <trkpt lat="44.09407" lon="6.98959">
        <ele>1453.8000488281</ele>
        <time>2022-07-21T11:32:11.000Z</time>
      </trkpt>
      <trkpt lat="44.09407" lon="6.98958">
        <ele>1453.8000488281</ele>
        <time>2022-07-21T11:32:13.000Z</time>
      </trkpt>
      <trkpt lat="44.09407" lon="6.98959">
        <ele>1454</ele>
        <time>2022-07-21T11:32:16.000Z</time>
      </trkpt>
      <trkpt lat="44.09406" lon="6.98956">
        <ele>1454</ele>
        <time>2022-07-21T11:32:22.000Z</time>
      </trkpt>
      <trkpt lat="44.09403" lon="6.98954">
        <ele>1454.4000244141</ele>
        <time>2022-07-21T11:32:29.000Z</time>
      </trkpt>
      <trkpt lat="44.09402" lon="6.98954">
        <ele>1454.4000244141</ele>
        <time>2022-07-21T11:32:41.000Z</time>
      </trkpt>
      <trkpt lat="44.09402" lon="6.98955">
        <ele>1454.5999755859</ele>
        <time>2022-07-21T11:32:52.000Z</time>
      </trkpt>
      <trkpt lat="44.09402" lon="6.98955">
        <ele>1454.5999755859</ele>
        <time>2022-07-21T11:33:02.000Z</time>
      </trkpt>
      <trkpt lat="44.09403" lon="6.98955">
        <ele>1454.4000244141</ele>
        <time>2022-07-21T11:33:15.000Z</time>
      </trkpt>
      <trkpt lat="44.09404" lon="6.98956">
        <ele>1454.4000244141</ele>
        <time>2022-07-21T11:33:37.000Z</time>
      </trkpt>
      <trkpt lat="44.09407" lon="6.98959">
        <ele>1454.4000244141</ele>
        <time>2022-07-21T11:33:51.000Z</time>
      </trkpt>
      <trkpt lat="44.09406" lon="6.98958">
        <ele>1454.4000244141</ele>
        <time>2022-07-21T11:34:00.000Z</time>
      </trkpt>
      <trkpt lat="44.09405" lon="6.98956">
        <ele>1454.4000244141</ele>
        <time>2022-07-21T11:34:09.000Z</time>
      </trkpt>
      <trkpt lat="44.09404" lon="6.98955">
        <ele>1454.4000244141</ele>
        <time>2022-07-21T11:34:18.000Z</time>
      </trkpt>
      <trkpt lat="44.09404" lon="6.98956">
        <ele>1454.5999755859</ele>
        <time>2022-07-21T11:34:23.000Z</time>
      </trkpt>
      <trkpt lat="44.09404" lon="6.98955">
        <ele>1454.5999755859</ele>
        <time>2022-07-21T11:34:24.000Z</time>
      </trkpt>
      <trkpt lat="44.09404" lon="6.98956">
        <ele>1454.4000244141</ele>
        <time>2022-07-21T11:34:29.000Z</time>
      </trkpt>
      <trkpt lat="44.09404" lon="6.98958">
        <ele>1454.4000244141</ele>
        <time>2022-07-21T11:34:31.000Z</time>
      </trkpt>
      <trkpt lat="44.09403" lon="6.98955">
        <ele>1454.4000244141</ele>
        <time>2022-07-21T11:34:33.000Z</time>
      </trkpt>
      <trkpt lat="44.09402" lon="6.98952">
        <ele>1454.1999511719</ele>
        <time>2022-07-21T11:34:41.000Z</time>
      </trkpt>
      <trkpt lat="44.09402" lon="6.98953">
        <ele>1454.4000244141</ele>
        <time>2022-07-21T11:34:50.000Z</time>
      </trkpt>
      <trkpt lat="44.09399" lon="6.98947">
        <ele>1454.4000244141</ele>
        <time>2022-07-21T11:34:57.000Z</time>
      </trkpt>
      <trkpt lat="44.09399" lon="6.98946">
        <ele>1454.1999511719</ele>
        <time>2022-07-21T11:35:02.000Z</time>
      </trkpt>
      <trkpt lat="44.09398" lon="6.98945">
        <ele>1454.1999511719</ele>
        <time>2022-07-21T11:35:03.000Z</time>
      </trkpt>
      <trkpt lat="44.09397" lon="6.98942">
        <ele>1454.1999511719</ele>
        <time>2022-07-21T11:35:07.000Z</time>
      </trkpt>
      <trkpt lat="44.09399" lon="6.98945">
        <ele>1454.1999511719</ele>
        <time>2022-07-21T11:35:15.000Z</time>
      </trkpt>
      <trkpt lat="44.09399" lon="6.98942">
        <ele>1453.8000488281</ele>
        <time>2022-07-21T11:35:19.000Z</time>
      </trkpt>
      <trkpt lat="44.094" lon="6.98943">
        <ele>1453.4000244141</ele>
        <time>2022-07-21T11:35:26.000Z</time>
      </trkpt>
      <trkpt lat="44.09398" lon="6.98943">
        <ele>1453.5999755859</ele>
        <time>2022-07-21T11:35:32.000Z</time>
      </trkpt>
      <trkpt lat="44.09399" lon="6.98943">
        <ele>1454</ele>
        <time>2022-07-21T11:35:34.000Z</time>
      </trkpt>
      <trkpt lat="44.09402" lon="6.98946">
        <ele>1454.1999511719</ele>
        <time>2022-07-21T11:35:37.000Z</time>
      </trkpt>
      <trkpt lat="44.09404" lon="6.9895">
        <ele>1454</ele>
        <time>2022-07-21T11:35:43.000Z</time>
      </trkpt>
      <trkpt lat="44.09405" lon="6.98954">
        <ele>1454</ele>
        <time>2022-07-21T11:35:46.000Z</time>
      </trkpt>
      <trkpt lat="44.09405" lon="6.98956">
        <ele>1454.1999511719</ele>
        <time>2022-07-21T11:35:49.000Z</time>
      </trkpt>
      <trkpt lat="44.09404" lon="6.98953">
        <ele>1454.1999511719</ele>
        <time>2022-07-21T11:35:54.000Z</time>
      </trkpt>
      <trkpt lat="44.09403" lon="6.98951">
        <ele>1454.1999511719</ele>
        <time>2022-07-21T11:35:55.000Z</time>
      </trkpt>
      <trkpt lat="44.09402" lon="6.98953">
        <ele>1454.1999511719</ele>
        <time>2022-07-21T11:36:00.000Z</time>
      </trkpt>
      <trkpt lat="44.09401" lon="6.98944">
        <ele>1454.1999511719</ele>
        <time>2022-07-21T11:36:06.000Z</time>
      </trkpt>
      <trkpt lat="44.09408" lon="6.98949">
        <ele>1454.1999511719</ele>
        <time>2022-07-21T11:36:14.000Z</time>
      </trkpt>
      <trkpt lat="44.09409" lon="6.98951">
        <ele>1454.1999511719</ele>
        <time>2022-07-21T11:36:22.000Z</time>
      </trkpt>
      <trkpt lat="44.09407" lon="6.98948">
        <ele>1454.1999511719</ele>
        <time>2022-07-21T11:36:29.000Z</time>
      </trkpt>
      <trkpt lat="44.09408" lon="6.9895">
        <ele>1454.1999511719</ele>
        <time>2022-07-21T11:36:34.000Z</time>
      </trkpt>
      <trkpt lat="44.09409" lon="6.98951">
        <ele>1454</ele>
        <time>2022-07-21T11:36:43.000Z</time>
      </trkpt>
      <trkpt lat="44.09411" lon="6.98956">
        <ele>1453.8000488281</ele>
        <time>2022-07-21T11:36:54.000Z</time>
      </trkpt>
      <trkpt lat="44.09412" lon="6.98957">
        <ele>1453.5999755859</ele>
        <time>2022-07-21T11:37:05.000Z</time>
      </trkpt>
      <trkpt lat="44.09412" lon="6.98957">
        <ele>1453.8000488281</ele>
        <time>2022-07-21T11:37:17.000Z</time>
      </trkpt>
      <trkpt lat="44.09412" lon="6.98958">
        <ele>1454</ele>
        <time>2022-07-21T11:37:31.000Z</time>
      </trkpt>
      <trkpt lat="44.09413" lon="6.9896">
        <ele>1454</ele>
        <time>2022-07-21T11:37:43.000Z</time>
      </trkpt>
      <trkpt lat="44.09412" lon="6.9896">
        <ele>1454</ele>
        <time>2022-07-21T11:37:53.000Z</time>
      </trkpt>
      <trkpt lat="44.09412" lon="6.98959">
        <ele>1454</ele>
        <time>2022-07-21T11:38:05.000Z</time>
      </trkpt>
      <trkpt lat="44.09411" lon="6.98959">
        <ele>1454.1999511719</ele>
        <time>2022-07-21T11:38:13.000Z</time>
      </trkpt>
      <trkpt lat="44.09409" lon="6.98958">
        <ele>1454.1999511719</ele>
        <time>2022-07-21T11:38:22.000Z</time>
      </trkpt>
      <trkpt lat="44.09409" lon="6.98958">
        <ele>1454.4000244141</ele>
        <time>2022-07-21T11:38:29.000Z</time>
      </trkpt>
      <trkpt lat="44.09408" lon="6.98955">
        <ele>1454.4000244141</ele>
        <time>2022-07-21T11:38:34.000Z</time>
      </trkpt>
      <trkpt lat="44.09406" lon="6.98953">
        <ele>1454.4000244141</ele>
        <time>2022-07-21T11:38:36.000Z</time>
      </trkpt>
      <trkpt lat="44.09406" lon="6.98953">
        <ele>1454.5999755859</ele>
        <time>2022-07-21T11:38:43.000Z</time>
      </trkpt>
      <trkpt lat="44.09406" lon="6.98954">
        <ele>1454.5999755859</ele>
        <time>2022-07-21T11:38:50.000Z</time>
      </trkpt>
      <trkpt lat="44.09406" lon="6.98954">
        <ele>1454.8000488281</ele>
        <time>2022-07-21T11:39:01.000Z</time>
      </trkpt>
      <trkpt lat="44.09407" lon="6.98955">
        <ele>1454.5999755859</ele>
        <time>2022-07-21T11:39:13.000Z</time>
      </trkpt>
      <trkpt lat="44.09408" lon="6.98954">
        <ele>1454.5999755859</ele>
        <time>2022-07-21T11:39:25.000Z</time>
      </trkpt>
      <trkpt lat="44.09408" lon="6.98953">
        <ele>1454.5999755859</ele>
        <time>2022-07-21T11:39:34.000Z</time>
      </trkpt>
      <trkpt lat="44.09407" lon="6.98952">
        <ele>1454.5999755859</ele>
        <time>2022-07-21T11:39:42.000Z</time>
      </trkpt>
      <trkpt lat="44.09407" lon="6.98952">
        <ele>1454.4000244141</ele>
        <time>2022-07-21T11:39:52.000Z</time>
      </trkpt>
      <trkpt lat="44.09407" lon="6.98952">
        <ele>1454.5999755859</ele>
        <time>2022-07-21T11:40:02.000Z</time>
      </trkpt>
      <trkpt lat="44.09407" lon="6.98952">
        <ele>1454.5999755859</ele>
        <time>2022-07-21T11:40:13.000Z</time>
      </trkpt>
      <trkpt lat="44.09406" lon="6.98953">
        <ele>1454.8000488281</ele>
        <time>2022-07-21T11:40:23.000Z</time>
      </trkpt>
      <trkpt lat="44.09405" lon="6.98951">
        <ele>1454.4000244141</ele>
        <time>2022-07-21T11:40:31.000Z</time>
      </trkpt>
      <trkpt lat="44.09406" lon="6.98952">
        <ele>1454.8000488281</ele>
        <time>2022-07-21T11:40:40.000Z</time>
      </trkpt>
      <trkpt lat="44.09406" lon="6.98954">
        <ele>1454.8000488281</ele>
        <time>2022-07-21T11:40:46.000Z</time>
      </trkpt>
      <trkpt lat="44.09405" lon="6.98952">
        <ele>1454.8000488281</ele>
        <time>2022-07-21T11:40:52.000Z</time>
      </trkpt>
      <trkpt lat="44.09406" lon="6.98954">
        <ele>1454.8000488281</ele>
        <time>2022-07-21T11:40:59.000Z</time>
      </trkpt>
      <trkpt lat="44.0941" lon="6.98958">
        <ele>1454.5999755859</ele>
        <time>2022-07-21T11:41:05.000Z</time>
      </trkpt>
      <trkpt lat="44.09411" lon="6.9896">
        <ele>1454.5999755859</ele>
        <time>2022-07-21T11:41:09.000Z</time>
      </trkpt>
      <trkpt lat="44.09412" lon="6.9896">
        <ele>1454.5999755859</ele>
        <time>2022-07-21T11:41:16.000Z</time>
      </trkpt>
      <trkpt lat="44.09414" lon="6.9896">
        <ele>1454.4000244141</ele>
        <time>2022-07-21T11:41:23.000Z</time>
      </trkpt>
      <trkpt lat="44.09413" lon="6.98958">
        <ele>1454.4000244141</ele>
        <time>2022-07-21T11:41:28.000Z</time>
      </trkpt>
      <trkpt lat="44.09412" lon="6.98956">
        <ele>1454.5999755859</ele>
        <time>2022-07-21T11:41:38.000Z</time>
      </trkpt>
      <trkpt lat="44.09411" lon="6.98955">
        <ele>1454.8000488281</ele>
        <time>2022-07-21T11:41:45.000Z</time>
      </trkpt>
      <trkpt lat="44.09414" lon="6.98958">
        <ele>1454.4000244141</ele>
        <time>2022-07-21T11:41:51.000Z</time>
      </trkpt>
      <trkpt lat="44.09414" lon="6.98957">
        <ele>1454.8000488281</ele>
        <time>2022-07-21T11:41:56.000Z</time>
      </trkpt>
      <trkpt lat="44.09412" lon="6.98957">
        <ele>1454.5999755859</ele>
        <time>2022-07-21T11:42:01.000Z</time>
      </trkpt>
      <trkpt lat="44.0941" lon="6.98956">
        <ele>1454.8000488281</ele>
        <time>2022-07-21T11:42:11.000Z</time>
      </trkpt>
      <trkpt lat="44.09411" lon="6.98957">
        <ele>1455</ele>
        <time>2022-07-21T11:42:19.000Z</time>
      </trkpt>
      <trkpt lat="44.09406" lon="6.98954">
        <ele>1454.8000488281</ele>
        <time>2022-07-21T11:42:29.000Z</time>
      </trkpt>
      <trkpt lat="44.09403" lon="6.98952">
        <ele>1455</ele>
        <time>2022-07-21T11:42:35.000Z</time>
      </trkpt>
      <trkpt lat="44.09401" lon="6.98951">
        <ele>1454.8000488281</ele>
        <time>2022-07-21T11:42:44.000Z</time>
      </trkpt>
      <trkpt lat="44.09401" lon="6.98953">
        <ele>1454.5999755859</ele>
        <time>2022-07-21T11:42:50.000Z</time>
      </trkpt>
      <trkpt lat="44.09404" lon="6.98957">
        <ele>1455</ele>
        <time>2022-07-21T11:42:56.000Z</time>
      </trkpt>
      <trkpt lat="44.09406" lon="6.98959">
        <ele>1455</ele>
        <time>2022-07-21T11:43:03.000Z</time>
      </trkpt>
      <trkpt lat="44.09406" lon="6.98959">
        <ele>1455.4000244141</ele>
        <time>2022-07-21T11:43:12.000Z</time>
      </trkpt>
      <trkpt lat="44.09404" lon="6.98957">
        <ele>1455.1999511719</ele>
        <time>2022-07-21T11:43:19.000Z</time>
      </trkpt>
      <trkpt lat="44.09402" lon="6.98954">
        <ele>1455</ele>
        <time>2022-07-21T11:43:24.000Z</time>
      </trkpt>
      <trkpt lat="44.094" lon="6.98953">
        <ele>1455.1999511719</ele>
        <time>2022-07-21T11:43:26.000Z</time>
      </trkpt>
      <trkpt lat="44.09393" lon="6.98946">
        <ele>1455.4000244141</ele>
        <time>2022-07-21T11:43:29.000Z</time>
      </trkpt>
      <trkpt lat="44.09404" lon="6.98959">
        <ele>1455.1999511719</ele>
        <time>2022-07-21T11:44:09.000Z</time>
      </trkpt>
      <trkpt lat="44.09405" lon="6.9896">
        <ele>1455.1999511719</ele>
        <time>2022-07-21T11:44:10.000Z</time>
      </trkpt>
      <trkpt lat="44.09403" lon="6.98954">
        <ele>1455.4000244141</ele>
        <time>2022-07-21T11:44:13.000Z</time>
      </trkpt>
      <trkpt lat="44.09402" lon="6.98953">
        <ele>1455.4000244141</ele>
        <time>2022-07-21T11:44:17.000Z</time>
      </trkpt>
      <trkpt lat="44.09403" lon="6.98955">
        <ele>1455.4000244141</ele>
        <time>2022-07-21T11:44:20.000Z</time>
      </trkpt>
      <trkpt lat="44.09403" lon="6.98953">
        <ele>1455.4000244141</ele>
        <time>2022-07-21T11:44:21.000Z</time>
      </trkpt>
      <trkpt lat="44.09403" lon="6.98953">
        <ele>1455.4000244141</ele>
        <time>2022-07-21T11:44:24.000Z</time>
      </trkpt>
      <trkpt lat="44.09403" lon="6.98952">
        <ele>1455.4000244141</ele>
        <time>2022-07-21T11:44:25.000Z</time>
      </trkpt>
      <trkpt lat="44.09406" lon="6.98957">
        <ele>1455.4000244141</ele>
        <time>2022-07-21T11:44:29.000Z</time>
      </trkpt>
      <trkpt lat="44.09407" lon="6.98959">
        <ele>1455.4000244141</ele>
        <time>2022-07-21T11:44:30.000Z</time>
      </trkpt>
      <trkpt lat="44.09408" lon="6.98964">
        <ele>1455.4000244141</ele>
        <time>2022-07-21T11:44:33.000Z</time>
      </trkpt>
      <trkpt lat="44.09408" lon="6.98964">
        <ele>1455.4000244141</ele>
        <time>2022-07-21T11:44:34.000Z</time>
      </trkpt>
      <trkpt lat="44.09409" lon="6.9896">
        <ele>1455.4000244141</ele>
        <time>2022-07-21T11:44:40.000Z</time>
      </trkpt>
      <trkpt lat="44.09407" lon="6.98952">
        <ele>1455.4000244141</ele>
        <time>2022-07-21T11:44:46.000Z</time>
      </trkpt>
      <trkpt lat="44.09405" lon="6.98951">
        <ele>1455.1999511719</ele>
        <time>2022-07-21T11:44:53.000Z</time>
      </trkpt>
      <trkpt lat="44.09406" lon="6.98949">
        <ele>1455</ele>
        <time>2022-07-21T11:44:59.000Z</time>
      </trkpt>
      <trkpt lat="44.09412" lon="6.9896">
        <ele>1455.1999511719</ele>
        <time>2022-07-21T11:45:33.000Z</time>
      </trkpt>
      <trkpt lat="44.09414" lon="6.9896">
        <ele>1455.1999511719</ele>
        <time>2022-07-21T11:45:43.000Z</time>
      </trkpt>
      <trkpt lat="44.09413" lon="6.9896">
        <ele>1455.5999755859</ele>
        <time>2022-07-21T11:45:52.000Z</time>
      </trkpt>
      <trkpt lat="44.09415" lon="6.98964">
        <ele>1455.4000244141</ele>
        <time>2022-07-21T11:46:02.000Z</time>
      </trkpt>
      <trkpt lat="44.09414" lon="6.98963">
        <ele>1455.5999755859</ele>
        <time>2022-07-21T11:46:12.000Z</time>
      </trkpt>
      <trkpt lat="44.09414" lon="6.98962">
        <ele>1455.5999755859</ele>
        <time>2022-07-21T11:46:26.000Z</time>
      </trkpt>
      <trkpt lat="44.09409" lon="6.98955">
        <ele>1455.5999755859</ele>
        <time>2022-07-21T11:46:34.000Z</time>
      </trkpt>
      <trkpt lat="44.09406" lon="6.9895">
        <ele>1455.5999755859</ele>
        <time>2022-07-21T11:46:41.000Z</time>
      </trkpt>
      <trkpt lat="44.09407" lon="6.98951">
        <ele>1455.5999755859</ele>
        <time>2022-07-21T11:46:51.000Z</time>
      </trkpt>
      <trkpt lat="44.09409" lon="6.98952">
        <ele>1455.5999755859</ele>
        <time>2022-07-21T11:46:56.000Z</time>
      </trkpt>
      <trkpt lat="44.09406" lon="6.9895">
        <ele>1455.5999755859</ele>
        <time>2022-07-21T11:47:01.000Z</time>
      </trkpt>
      <trkpt lat="44.09404" lon="6.98948">
        <ele>1455.5999755859</ele>
        <time>2022-07-21T11:47:05.000Z</time>
      </trkpt>
      <trkpt lat="44.09402" lon="6.98948">
        <ele>1455.5999755859</ele>
        <time>2022-07-21T11:47:08.000Z</time>
      </trkpt>
      <trkpt lat="44.09402" lon="6.98948">
        <ele>1455.8000488281</ele>
        <time>2022-07-21T11:47:14.000Z</time>
      </trkpt>
      <trkpt lat="44.09401" lon="6.98947">
        <ele>1455.8000488281</ele>
        <time>2022-07-21T11:47:18.000Z</time>
      </trkpt>
      <trkpt lat="44.09401" lon="6.98947">
        <ele>1455.8000488281</ele>
        <time>2022-07-21T11:47:19.000Z</time>
      </trkpt>
      <trkpt lat="44.09402" lon="6.9895">
        <ele>1455.8000488281</ele>
        <time>2022-07-21T11:47:24.000Z</time>
      </trkpt>
      <trkpt lat="44.09404" lon="6.98953">
        <ele>1455.4000244141</ele>
        <time>2022-07-21T11:47:30.000Z</time>
      </trkpt>
      <trkpt lat="44.09404" lon="6.98953">
        <ele>1455.8000488281</ele>
        <time>2022-07-21T11:47:42.000Z</time>
      </trkpt>
      <trkpt lat="44.09404" lon="6.98954">
        <ele>1455.5999755859</ele>
        <time>2022-07-21T11:47:53.000Z</time>
      </trkpt>
      <trkpt lat="44.09404" lon="6.98953">
        <ele>1455.5999755859</ele>
        <time>2022-07-21T11:48:04.000Z</time>
      </trkpt>
      <trkpt lat="44.09404" lon="6.98952">
        <ele>1455.4000244141</ele>
        <time>2022-07-21T11:48:12.000Z</time>
      </trkpt>
      <trkpt lat="44.09404" lon="6.98953">
        <ele>1455.5999755859</ele>
        <time>2022-07-21T11:48:18.000Z</time>
      </trkpt>
      <trkpt lat="44.09408" lon="6.98953">
        <ele>1455.5999755859</ele>
        <time>2022-07-21T11:48:23.000Z</time>
      </trkpt>
      <trkpt lat="44.09407" lon="6.98953">
        <ele>1455.5999755859</ele>
        <time>2022-07-21T11:48:33.000Z</time>
      </trkpt>
      <trkpt lat="44.09406" lon="6.98953">
        <ele>1455.5999755859</ele>
        <time>2022-07-21T11:48:45.000Z</time>
      </trkpt>
      <trkpt lat="44.09406" lon="6.98953">
        <ele>1455.5999755859</ele>
        <time>2022-07-21T11:48:53.000Z</time>
      </trkpt>
      <trkpt lat="44.09405" lon="6.98953">
        <ele>1455.5999755859</ele>
        <time>2022-07-21T11:49:02.000Z</time>
      </trkpt>
      <trkpt lat="44.09405" lon="6.98953">
        <ele>1455.5999755859</ele>
        <time>2022-07-21T11:49:09.000Z</time>
      </trkpt>
      <trkpt lat="44.09404" lon="6.98952">
        <ele>1455.5999755859</ele>
        <time>2022-07-21T11:49:21.000Z</time>
      </trkpt>
      <trkpt lat="44.09405" lon="6.98953">
        <ele>1455.4000244141</ele>
        <time>2022-07-21T11:49:33.000Z</time>
      </trkpt>
      <trkpt lat="44.09405" lon="6.98954">
        <ele>1455.4000244141</ele>
        <time>2022-07-21T11:49:45.000Z</time>
      </trkpt>
      <trkpt lat="44.09406" lon="6.98955">
        <ele>1455.4000244141</ele>
        <time>2022-07-21T11:49:54.000Z</time>
      </trkpt>
      <trkpt lat="44.09408" lon="6.98958">
        <ele>1455.5999755859</ele>
        <time>2022-07-21T11:50:03.000Z</time>
      </trkpt>
      <trkpt lat="44.09408" lon="6.98958">
        <ele>1455.5999755859</ele>
        <time>2022-07-21T11:50:15.000Z</time>
      </trkpt>
      <trkpt lat="44.09408" lon="6.98958">
        <ele>1455.8000488281</ele>
        <time>2022-07-21T11:50:31.000Z</time>
      </trkpt>
      <trkpt lat="44.09408" lon="6.98958">
        <ele>1455.8000488281</ele>
        <time>2022-07-21T11:50:40.000Z</time>
      </trkpt>
      <trkpt lat="44.09409" lon="6.98958">
        <ele>1456</ele>
        <time>2022-07-21T11:50:54.000Z</time>
      </trkpt>
      <trkpt lat="44.09409" lon="6.98959">
        <ele>1455.8000488281</ele>
        <time>2022-07-21T11:51:08.000Z</time>
      </trkpt>
      <trkpt lat="44.09409" lon="6.98959">
        <ele>1455.8000488281</ele>
        <time>2022-07-21T11:51:21.000Z</time>
      </trkpt>
      <trkpt lat="44.09407" lon="6.98956">
        <ele>1456</ele>
        <time>2022-07-21T11:51:34.000Z</time>
      </trkpt>
      <trkpt lat="44.09407" lon="6.98955">
        <ele>1455.8000488281</ele>
        <time>2022-07-21T11:51:43.000Z</time>
      </trkpt>
      <trkpt lat="44.09407" lon="6.98957">
        <ele>1455.4000244141</ele>
        <time>2022-07-21T11:51:50.000Z</time>
      </trkpt>
      <trkpt lat="44.09408" lon="6.98957">
        <ele>1455.4000244141</ele>
        <time>2022-07-21T11:51:59.000Z</time>
      </trkpt>
      <trkpt lat="44.09407" lon="6.98956">
        <ele>1455.5999755859</ele>
        <time>2022-07-21T11:52:09.000Z</time>
      </trkpt>
      <trkpt lat="44.09407" lon="6.98957">
        <ele>1455.5999755859</ele>
        <time>2022-07-21T11:52:15.000Z</time>
      </trkpt>
      <trkpt lat="44.09407" lon="6.98956">
        <ele>1455.5999755859</ele>
        <time>2022-07-21T11:52:23.000Z</time>
      </trkpt>
      <trkpt lat="44.09406" lon="6.98956">
        <ele>1455.5999755859</ele>
        <time>2022-07-21T11:52:30.000Z</time>
      </trkpt>
      <trkpt lat="44.09405" lon="6.98954">
        <ele>1455.5999755859</ele>
        <time>2022-07-21T11:52:39.000Z</time>
      </trkpt>
      <trkpt lat="44.09405" lon="6.98954">
        <ele>1455.5999755859</ele>
        <time>2022-07-21T11:52:49.000Z</time>
      </trkpt>
      <trkpt lat="44.09406" lon="6.98956">
        <ele>1455.5999755859</ele>
        <time>2022-07-21T11:53:02.000Z</time>
      </trkpt>
      <trkpt lat="44.09408" lon="6.98958">
        <ele>1455.5999755859</ele>
        <time>2022-07-21T11:53:18.000Z</time>
      </trkpt>
      <trkpt lat="44.09407" lon="6.98955">
        <ele>1456.1999511719</ele>
        <time>2022-07-21T11:53:29.000Z</time>
      </trkpt>
      <trkpt lat="44.09407" lon="6.98954">
        <ele>1456.1999511719</ele>
        <time>2022-07-21T11:53:38.000Z</time>
      </trkpt>
      <trkpt lat="44.09409" lon="6.98956">
        <ele>1456.1999511719</ele>
        <time>2022-07-21T11:53:49.000Z</time>
      </trkpt>
      <trkpt lat="44.0941" lon="6.98956">
        <ele>1456.1999511719</ele>
        <time>2022-07-21T11:54:00.000Z</time>
      </trkpt>
      <trkpt lat="44.09409" lon="6.98956">
        <ele>1455.5999755859</ele>
        <time>2022-07-21T11:54:11.000Z</time>
      </trkpt>
      <trkpt lat="44.09407" lon="6.98956">
        <ele>1455.5999755859</ele>
        <time>2022-07-21T11:54:18.000Z</time>
      </trkpt>
      <trkpt lat="44.09407" lon="6.98956">
        <ele>1455.4000244141</ele>
        <time>2022-07-21T11:54:24.000Z</time>
      </trkpt>
      <trkpt lat="44.09407" lon="6.98957">
        <ele>1455.4000244141</ele>
        <time>2022-07-21T11:54:30.000Z</time>
      </trkpt>
      <trkpt lat="44.09408" lon="6.98958">
        <ele>1455.5999755859</ele>
        <time>2022-07-21T11:54:37.000Z</time>
      </trkpt>
      <trkpt lat="44.0941" lon="6.98959">
        <ele>1455.5999755859</ele>
        <time>2022-07-21T11:54:45.000Z</time>
      </trkpt>
      <trkpt lat="44.09411" lon="6.98957">
        <ele>1456</ele>
        <time>2022-07-21T11:55:01.000Z</time>
      </trkpt>
      <trkpt lat="44.09412" lon="6.98957">
        <ele>1455.8000488281</ele>
        <time>2022-07-21T11:55:18.000Z</time>
      </trkpt>
      <trkpt lat="44.09412" lon="6.98958">
        <ele>1455.5999755859</ele>
        <time>2022-07-21T11:55:33.000Z</time>
      </trkpt>
      <trkpt lat="44.09412" lon="6.98959">
        <ele>1455.5999755859</ele>
        <time>2022-07-21T11:55:48.000Z</time>
      </trkpt>
      <trkpt lat="44.09413" lon="6.98959">
        <ele>1455.5999755859</ele>
        <time>2022-07-21T11:56:03.000Z</time>
      </trkpt>
      <trkpt lat="44.09413" lon="6.9896">
        <ele>1455.8000488281</ele>
        <time>2022-07-21T11:56:16.000Z</time>
      </trkpt>
      <trkpt lat="44.09412" lon="6.98959">
        <ele>1455.8000488281</ele>
        <time>2022-07-21T11:56:27.000Z</time>
      </trkpt>
      <trkpt lat="44.09411" lon="6.98958">
        <ele>1455.8000488281</ele>
        <time>2022-07-21T11:56:34.000Z</time>
      </trkpt>
      <trkpt lat="44.0941" lon="6.98957">
        <ele>1455.5999755859</ele>
        <time>2022-07-21T11:56:44.000Z</time>
      </trkpt>
      <trkpt lat="44.09409" lon="6.98955">
        <ele>1455.8000488281</ele>
        <time>2022-07-21T11:57:00.000Z</time>
      </trkpt>
      <trkpt lat="44.09409" lon="6.98956">
        <ele>1455.8000488281</ele>
        <time>2022-07-21T11:57:19.000Z</time>
      </trkpt>
      <trkpt lat="44.0941" lon="6.98955">
        <ele>1455.8000488281</ele>
        <time>2022-07-21T11:57:31.000Z</time>
      </trkpt>
      <trkpt lat="44.09409" lon="6.98954">
        <ele>1455.5999755859</ele>
        <time>2022-07-21T11:57:39.000Z</time>
      </trkpt>
      <trkpt lat="44.0941" lon="6.98953">
        <ele>1456.1999511719</ele>
        <time>2022-07-21T11:57:48.000Z</time>
      </trkpt>
      <trkpt lat="44.09411" lon="6.98954">
        <ele>1456</ele>
        <time>2022-07-21T11:57:56.000Z</time>
      </trkpt>
      <trkpt lat="44.09411" lon="6.98955">
        <ele>1455.8000488281</ele>
        <time>2022-07-21T11:58:04.000Z</time>
      </trkpt>
      <trkpt lat="44.09412" lon="6.98954">
        <ele>1455.8000488281</ele>
        <time>2022-07-21T11:58:11.000Z</time>
      </trkpt>
      <trkpt lat="44.0941" lon="6.98954">
        <ele>1456</ele>
        <time>2022-07-21T11:58:22.000Z</time>
      </trkpt>
      <trkpt lat="44.0941" lon="6.98955">
        <ele>1455.4000244141</ele>
        <time>2022-07-21T11:58:30.000Z</time>
      </trkpt>
      <trkpt lat="44.09412" lon="6.98957">
        <ele>1454.8000488281</ele>
        <time>2022-07-21T11:58:35.000Z</time>
      </trkpt>
      <trkpt lat="44.09412" lon="6.98957">
        <ele>1454.5999755859</ele>
        <time>2022-07-21T11:58:38.000Z</time>
      </trkpt>
      <trkpt lat="44.09413" lon="6.98957">
        <ele>1454.5999755859</ele>
        <time>2022-07-21T11:58:40.000Z</time>
      </trkpt>
      <trkpt lat="44.09415" lon="6.98957">
        <ele>1454.8000488281</ele>
        <time>2022-07-21T11:58:46.000Z</time>
      </trkpt>
      <trkpt lat="44.09416" lon="6.98959">
        <ele>1455</ele>
        <time>2022-07-21T11:58:52.000Z</time>
      </trkpt>
      <trkpt lat="44.09413" lon="6.98954">
        <ele>1455.4000244141</ele>
        <time>2022-07-21T11:58:59.000Z</time>
      </trkpt>
      <trkpt lat="44.09412" lon="6.9895">
        <ele>1455.4000244141</ele>
        <time>2022-07-21T11:59:05.000Z</time>
      </trkpt>
      <trkpt lat="44.09412" lon="6.9895">
        <ele>1455.8000488281</ele>
        <time>2022-07-21T11:59:07.000Z</time>
      </trkpt>
      <trkpt lat="44.09411" lon="6.9895">
        <ele>1456.1999511719</ele>
        <time>2022-07-21T11:59:11.000Z</time>
      </trkpt>
      <trkpt lat="44.09409" lon="6.98948">
        <ele>1456</ele>
        <time>2022-07-21T11:59:13.000Z</time>
      </trkpt>
      <trkpt lat="44.09409" lon="6.98949">
        <ele>1455.5999755859</ele>
        <time>2022-07-21T11:59:17.000Z</time>
      </trkpt>
      <trkpt lat="44.09408" lon="6.98947">
        <ele>1456</ele>
        <time>2022-07-21T11:59:27.000Z</time>
      </trkpt>
      <trkpt lat="44.09408" lon="6.98948">
        <ele>1456.1999511719</ele>
        <time>2022-07-21T11:59:36.000Z</time>
      </trkpt>
      <trkpt lat="44.09407" lon="6.98949">
        <ele>1455.5999755859</ele>
        <time>2022-07-21T11:59:43.000Z</time>
      </trkpt>
      <trkpt lat="44.09407" lon="6.98951">
        <ele>1456</ele>
        <time>2022-07-21T11:59:49.000Z</time>
      </trkpt>
      <trkpt lat="44.09407" lon="6.98953">
        <ele>1455.4000244141</ele>
        <time>2022-07-21T11:59:56.000Z</time>
      </trkpt>
      <trkpt lat="44.09407" lon="6.98955">
        <ele>1455.5999755859</ele>
        <time>2022-07-21T12:00:03.000Z</time>
      </trkpt>
      <trkpt lat="44.09408" lon="6.98954">
        <ele>1455.4000244141</ele>
        <time>2022-07-21T12:00:10.000Z</time>
      </trkpt>
      <trkpt lat="44.09408" lon="6.98954">
        <ele>1455.8000488281</ele>
        <time>2022-07-21T12:00:18.000Z</time>
      </trkpt>
      <trkpt lat="44.09405" lon="6.98951">
        <ele>1455.8000488281</ele>
        <time>2022-07-21T12:00:25.000Z</time>
      </trkpt>
      <trkpt lat="44.09405" lon="6.9895">
        <ele>1455.8000488281</ele>
        <time>2022-07-21T12:00:34.000Z</time>
      </trkpt>
      <trkpt lat="44.09407" lon="6.98951">
        <ele>1456</ele>
        <time>2022-07-21T12:00:40.000Z</time>
      </trkpt>
      <trkpt lat="44.09408" lon="6.98952">
        <ele>1455.8000488281</ele>
        <time>2022-07-21T12:00:47.000Z</time>
      </trkpt>
      <trkpt lat="44.09409" lon="6.98953">
        <ele>1456</ele>
        <time>2022-07-21T12:00:54.000Z</time>
      </trkpt>
      <trkpt lat="44.09409" lon="6.98953">
        <ele>1455.8000488281</ele>
        <time>2022-07-21T12:01:01.000Z</time>
      </trkpt>
      <trkpt lat="44.09408" lon="6.98955">
        <ele>1455.8000488281</ele>
        <time>2022-07-21T12:01:09.000Z</time>
      </trkpt>
      <trkpt lat="44.0941" lon="6.98956">
        <ele>1455.5999755859</ele>
        <time>2022-07-21T12:01:15.000Z</time>
      </trkpt>
      <trkpt lat="44.09411" lon="6.98956">
        <ele>1455.8000488281</ele>
        <time>2022-07-21T12:01:21.000Z</time>
      </trkpt>
      <trkpt lat="44.09409" lon="6.98955">
        <ele>1456.1999511719</ele>
        <time>2022-07-21T12:01:27.000Z</time>
      </trkpt>
      <trkpt lat="44.09408" lon="6.98953">
        <ele>1455.8000488281</ele>
        <time>2022-07-21T12:01:29.000Z</time>
      </trkpt>
      <trkpt lat="44.09408" lon="6.98952">
        <ele>1455.5999755859</ele>
        <time>2022-07-21T12:01:31.000Z</time>
      </trkpt>
      <trkpt lat="44.09405" lon="6.98952">
        <ele>1456</ele>
        <time>2022-07-21T12:01:38.000Z</time>
      </trkpt>
      <trkpt lat="44.09404" lon="6.98952">
        <ele>1455.5999755859</ele>
        <time>2022-07-21T12:01:44.000Z</time>
      </trkpt>
      <trkpt lat="44.09405" lon="6.98951">
        <ele>1455.5999755859</ele>
        <time>2022-07-21T12:01:51.000Z</time>
      </trkpt>
      <trkpt lat="44.09406" lon="6.9895">
        <ele>1455.5999755859</ele>
        <time>2022-07-21T12:01:58.000Z</time>
      </trkpt>
      <trkpt lat="44.09406" lon="6.98948">
        <ele>1455.8000488281</ele>
        <time>2022-07-21T12:02:10.000Z</time>
      </trkpt>
      <trkpt lat="44.09405" lon="6.98945">
        <ele>1455.5999755859</ele>
        <time>2022-07-21T12:02:21.000Z</time>
      </trkpt>
      <trkpt lat="44.09406" lon="6.98947">
        <ele>1455.8000488281</ele>
        <time>2022-07-21T12:02:31.000Z</time>
      </trkpt>
      <trkpt lat="44.09405" lon="6.98944">
        <ele>1455.8000488281</ele>
        <time>2022-07-21T12:02:42.000Z</time>
      </trkpt>
      <trkpt lat="44.09404" lon="6.98943">
        <ele>1455.8000488281</ele>
        <time>2022-07-21T12:02:50.000Z</time>
      </trkpt>
      <trkpt lat="44.09406" lon="6.98945">
        <ele>1455.8000488281</ele>
        <time>2022-07-21T12:02:58.000Z</time>
      </trkpt>
      <trkpt lat="44.09406" lon="6.98945">
        <ele>1455.8000488281</ele>
        <time>2022-07-21T12:03:07.000Z</time>
      </trkpt>
      <trkpt lat="44.09407" lon="6.98945">
        <ele>1455.8000488281</ele>
        <time>2022-07-21T12:03:13.000Z</time>
      </trkpt>
      <trkpt lat="44.09405" lon="6.98943">
        <ele>1456</ele>
        <time>2022-07-21T12:03:21.000Z</time>
      </trkpt>
      <trkpt lat="44.09403" lon="6.98939">
        <ele>1456</ele>
        <time>2022-07-21T12:03:31.000Z</time>
      </trkpt>
      <trkpt lat="44.09404" lon="6.98939">
        <ele>1456</ele>
        <time>2022-07-21T12:03:32.000Z</time>
      </trkpt>
      <trkpt lat="44.09404" lon="6.98938">
        <ele>1456</ele>
        <time>2022-07-21T12:03:35.000Z</time>
      </trkpt>
      <trkpt lat="44.09402" lon="6.98935">
        <ele>1456</ele>
        <time>2022-07-21T12:03:41.000Z</time>
      </trkpt>
      <trkpt lat="44.09399" lon="6.98934">
        <ele>1456</ele>
        <time>2022-07-21T12:03:49.000Z</time>
      </trkpt>
      <trkpt lat="44.09397" lon="6.98937">
        <ele>1456</ele>
        <time>2022-07-21T12:03:54.000Z</time>
      </trkpt>
      <trkpt lat="44.09394" lon="6.98938">
        <ele>1456</ele>
        <time>2022-07-21T12:04:00.000Z</time>
      </trkpt>
      <trkpt lat="44.09394" lon="6.98938">
        <ele>1456</ele>
        <time>2022-07-21T12:04:01.000Z</time>
      </trkpt>
      <trkpt lat="44.09392" lon="6.98936">
        <ele>1456</ele>
        <time>2022-07-21T12:04:02.000Z</time>
      </trkpt>
      <trkpt lat="44.09391" lon="6.98934">
        <ele>1456</ele>
        <time>2022-07-21T12:04:06.000Z</time>
      </trkpt>
      <trkpt lat="44.09393" lon="6.98937">
        <ele>1456</ele>
        <time>2022-07-21T12:04:12.000Z</time>
      </trkpt>
      <trkpt lat="44.09397" lon="6.98939">
        <ele>1456</ele>
        <time>2022-07-21T12:04:18.000Z</time>
      </trkpt>
      <trkpt lat="44.09399" lon="6.98941">
        <ele>1456</ele>
        <time>2022-07-21T12:04:23.000Z</time>
      </trkpt>
      <trkpt lat="44.094" lon="6.98943">
        <ele>1456</ele>
        <time>2022-07-21T12:04:27.000Z</time>
      </trkpt>
      <trkpt lat="44.09402" lon="6.98943">
        <ele>1456</ele>
        <time>2022-07-21T12:04:32.000Z</time>
      </trkpt>
      <trkpt lat="44.09403" lon="6.98945">
        <ele>1456</ele>
        <time>2022-07-21T12:04:34.000Z</time>
      </trkpt>
      <trkpt lat="44.09405" lon="6.98945">
        <ele>1456</ele>
        <time>2022-07-21T12:04:36.000Z</time>
      </trkpt>
      <trkpt lat="44.09405" lon="6.98943">
        <ele>1456</ele>
        <time>2022-07-21T12:04:41.000Z</time>
      </trkpt>
      <trkpt lat="44.09406" lon="6.98943">
        <ele>1456</ele>
        <time>2022-07-21T12:04:42.000Z</time>
      </trkpt>
      <trkpt lat="44.09407" lon="6.98945">
        <ele>1456</ele>
        <time>2022-07-21T12:04:46.000Z</time>
      </trkpt>
      <trkpt lat="44.09407" lon="6.98945">
        <ele>1456</ele>
        <time>2022-07-21T12:04:51.000Z</time>
      </trkpt>
      <trkpt lat="44.09409" lon="6.98946">
        <ele>1456</ele>
        <time>2022-07-21T12:04:58.000Z</time>
      </trkpt>
      <trkpt lat="44.09408" lon="6.98948">
        <ele>1456.1999511719</ele>
        <time>2022-07-21T12:05:06.000Z</time>
      </trkpt>
      <trkpt lat="44.09406" lon="6.98947">
        <ele>1456.1999511719</ele>
        <time>2022-07-21T12:05:09.000Z</time>
      </trkpt>
      <trkpt lat="44.09405" lon="6.98946">
        <ele>1456.1999511719</ele>
        <time>2022-07-21T12:05:11.000Z</time>
      </trkpt>
      <trkpt lat="44.09403" lon="6.98944">
        <ele>1456.1999511719</ele>
        <time>2022-07-21T12:05:17.000Z</time>
      </trkpt>
      <trkpt lat="44.09405" lon="6.98945">
        <ele>1456.1999511719</ele>
        <time>2022-07-21T12:05:23.000Z</time>
      </trkpt>
      <trkpt lat="44.09406" lon="6.98947">
        <ele>1456.1999511719</ele>
        <time>2022-07-21T12:05:28.000Z</time>
      </trkpt>
      <trkpt lat="44.09406" lon="6.98947">
        <ele>1456.1999511719</ele>
        <time>2022-07-21T12:05:34.000Z</time>
      </trkpt>
      <trkpt lat="44.09404" lon="6.98945">
        <ele>1456.1999511719</ele>
        <time>2022-07-21T12:05:40.000Z</time>
      </trkpt>
      <trkpt lat="44.094" lon="6.98938">
        <ele>1456</ele>
        <time>2022-07-21T12:05:48.000Z</time>
      </trkpt>
      <trkpt lat="44.09398" lon="6.98935">
        <ele>1456.1999511719</ele>
        <time>2022-07-21T12:05:58.000Z</time>
      </trkpt>
      <trkpt lat="44.09399" lon="6.98935">
        <ele>1456.1999511719</ele>
        <time>2022-07-21T12:06:06.000Z</time>
      </trkpt>
      <trkpt lat="44.09399" lon="6.98935">
        <ele>1456.1999511719</ele>
        <time>2022-07-21T12:06:13.000Z</time>
      </trkpt>
      <trkpt lat="44.094" lon="6.98936">
        <ele>1456.1999511719</ele>
        <time>2022-07-21T12:06:20.000Z</time>
      </trkpt>
      <trkpt lat="44.09401" lon="6.98937">
        <ele>1456.1999511719</ele>
        <time>2022-07-21T12:06:28.000Z</time>
      </trkpt>
      <trkpt lat="44.09401" lon="6.98937">
        <ele>1456.1999511719</ele>
        <time>2022-07-21T12:06:35.000Z</time>
      </trkpt>
      <trkpt lat="44.09401" lon="6.98937">
        <ele>1456.4000244141</ele>
        <time>2022-07-21T12:06:42.000Z</time>
      </trkpt>
      <trkpt lat="44.09401" lon="6.98937">
        <ele>1456.4000244141</ele>
        <time>2022-07-21T12:06:48.000Z</time>
      </trkpt>
      <trkpt lat="44.09401" lon="6.98937">
        <ele>1456.1999511719</ele>
        <time>2022-07-21T12:06:55.000Z</time>
      </trkpt>
      <trkpt lat="44.09401" lon="6.98937">
        <ele>1456.4000244141</ele>
        <time>2022-07-21T12:07:06.000Z</time>
      </trkpt>
      <trkpt lat="44.09404" lon="6.98941">
        <ele>1456.8000488281</ele>
        <time>2022-07-21T12:07:12.000Z</time>
      </trkpt>
      <trkpt lat="44.09404" lon="6.98941">
        <ele>1456.8000488281</ele>
        <time>2022-07-21T12:07:13.000Z</time>
      </trkpt>
      <trkpt lat="44.09405" lon="6.98943">
        <ele>1457</ele>
        <time>2022-07-21T12:07:21.000Z</time>
      </trkpt>
      <trkpt lat="44.09403" lon="6.98941">
        <ele>1456.5999755859</ele>
        <time>2022-07-21T12:07:27.000Z</time>
      </trkpt>
      <trkpt lat="44.09402" lon="6.9894">
        <ele>1456.5999755859</ele>
        <time>2022-07-21T12:07:33.000Z</time>
      </trkpt>
      <trkpt lat="44.09402" lon="6.9894">
        <ele>1456.5999755859</ele>
        <time>2022-07-21T12:07:39.000Z</time>
      </trkpt>
      <trkpt lat="44.09403" lon="6.98941">
        <ele>1456.8000488281</ele>
        <time>2022-07-21T12:07:47.000Z</time>
      </trkpt>
      <trkpt lat="44.09403" lon="6.98941">
        <ele>1456.5999755859</ele>
        <time>2022-07-21T12:08:00.000Z</time>
      </trkpt>
      <trkpt lat="44.09401" lon="6.98939">
        <ele>1456.4000244141</ele>
        <time>2022-07-21T12:08:13.000Z</time>
      </trkpt>
      <trkpt lat="44.09401" lon="6.98938">
        <ele>1456.5999755859</ele>
        <time>2022-07-21T12:08:25.000Z</time>
      </trkpt>
      <trkpt lat="44.094" lon="6.98936">
        <ele>1456.4000244141</ele>
        <time>2022-07-21T12:08:36.000Z</time>
      </trkpt>
      <trkpt lat="44.094" lon="6.98936">
        <ele>1456.5999755859</ele>
        <time>2022-07-21T12:08:46.000Z</time>
      </trkpt>
      <trkpt lat="44.09398" lon="6.98937">
        <ele>1456.4000244141</ele>
        <time>2022-07-21T12:08:53.000Z</time>
      </trkpt>
      <trkpt lat="44.094" lon="6.98939">
        <ele>1456.5999755859</ele>
        <time>2022-07-21T12:08:58.000Z</time>
      </trkpt>
      <trkpt lat="44.09402" lon="6.98942">
        <ele>1456.4000244141</ele>
        <time>2022-07-21T12:09:04.000Z</time>
      </trkpt>
      <trkpt lat="44.09402" lon="6.98943">
        <ele>1456.8000488281</ele>
        <time>2022-07-21T12:09:07.000Z</time>
      </trkpt>
      <trkpt lat="44.09402" lon="6.98944">
        <ele>1456.8000488281</ele>
        <time>2022-07-21T12:09:08.000Z</time>
      </trkpt>
      <trkpt lat="44.09404" lon="6.98946">
        <ele>1456.8000488281</ele>
        <time>2022-07-21T12:09:14.000Z</time>
      </trkpt>
      <trkpt lat="44.09403" lon="6.98947">
        <ele>1456.8000488281</ele>
        <time>2022-07-21T12:09:19.000Z</time>
      </trkpt>
      <trkpt lat="44.09404" lon="6.9895">
        <ele>1457.1999511719</ele>
        <time>2022-07-21T12:09:24.000Z</time>
      </trkpt>
      <trkpt lat="44.09405" lon="6.98952">
        <ele>1457.1999511719</ele>
        <time>2022-07-21T12:09:30.000Z</time>
      </trkpt>
      <trkpt lat="44.09407" lon="6.98953">
        <ele>1458</ele>
        <time>2022-07-21T12:09:35.000Z</time>
      </trkpt>
      <trkpt lat="44.09406" lon="6.98953">
        <ele>1458.1999511719</ele>
        <time>2022-07-21T12:09:36.000Z</time>
      </trkpt>
      <trkpt lat="44.09401" lon="6.98956">
        <ele>1460.5999755859</ele>
        <time>2022-07-21T12:11:26.000Z</time>
      </trkpt>
      <trkpt lat="44.0941" lon="6.98958">
        <ele>1459.8000488281</ele>
        <time>2022-07-21T12:11:30.000Z</time>
      </trkpt>
      <trkpt lat="44.0941" lon="6.98958">
        <ele>1459.5999755859</ele>
        <time>2022-07-21T12:11:31.000Z</time>
      </trkpt>
      <trkpt lat="44.09406" lon="6.98953">
        <ele>1459</ele>
        <time>2022-07-21T12:11:34.000Z</time>
      </trkpt>
      <trkpt lat="44.09407" lon="6.9895">
        <ele>1458.4000244141</ele>
        <time>2022-07-21T12:11:37.000Z</time>
      </trkpt>
      <trkpt lat="44.09407" lon="6.9895">
        <ele>1458</ele>
        <time>2022-07-21T12:11:40.000Z</time>
      </trkpt>
      <trkpt lat="44.09405" lon="6.98947">
        <ele>1457.5999755859</ele>
        <time>2022-07-21T12:11:43.000Z</time>
      </trkpt>
      <trkpt lat="44.09406" lon="6.98947">
        <ele>1458</ele>
        <time>2022-07-21T12:11:48.000Z</time>
      </trkpt>
      <trkpt lat="44.09403" lon="6.98944">
        <ele>1458</ele>
        <time>2022-07-21T12:11:53.000Z</time>
      </trkpt>
      <trkpt lat="44.09405" lon="6.98947">
        <ele>1458</ele>
        <time>2022-07-21T12:11:58.000Z</time>
      </trkpt>
      <trkpt lat="44.09403" lon="6.98944">
        <ele>1458</ele>
        <time>2022-07-21T12:12:05.000Z</time>
      </trkpt>
      <trkpt lat="44.09401" lon="6.98943">
        <ele>1458</ele>
        <time>2022-07-21T12:12:15.000Z</time>
      </trkpt>
      <trkpt lat="44.09402" lon="6.98944">
        <ele>1457.5999755859</ele>
        <time>2022-07-21T12:12:18.000Z</time>
      </trkpt>
      <trkpt lat="44.09403" lon="6.98943">
        <ele>1457.1999511719</ele>
        <time>2022-07-21T12:12:20.000Z</time>
      </trkpt>
      <trkpt lat="44.09403" lon="6.98941">
        <ele>1457.8000488281</ele>
        <time>2022-07-21T12:12:26.000Z</time>
      </trkpt>
      <trkpt lat="44.09403" lon="6.9894">
        <ele>1457.8000488281</ele>
        <time>2022-07-21T12:12:31.000Z</time>
      </trkpt>
      <trkpt lat="44.09403" lon="6.9894">
        <ele>1457.5999755859</ele>
        <time>2022-07-21T12:12:38.000Z</time>
      </trkpt>
      <trkpt lat="44.09402" lon="6.98941">
        <ele>1457.5999755859</ele>
        <time>2022-07-21T12:12:41.000Z</time>
      </trkpt>
      <trkpt lat="44.09403" lon="6.98943">
        <ele>1457.5999755859</ele>
        <time>2022-07-21T12:12:44.000Z</time>
      </trkpt>
      <trkpt lat="44.09402" lon="6.98941">
        <ele>1458</ele>
        <time>2022-07-21T12:12:50.000Z</time>
      </trkpt>
      <trkpt lat="44.09403" lon="6.98943">
        <ele>1458</ele>
        <time>2022-07-21T12:12:56.000Z</time>
      </trkpt>
      <trkpt lat="44.09403" lon="6.98942">
        <ele>1457.8000488281</ele>
        <time>2022-07-21T12:13:01.000Z</time>
      </trkpt>
      <trkpt lat="44.09403" lon="6.9894">
        <ele>1458.1999511719</ele>
        <time>2022-07-21T12:13:08.000Z</time>
      </trkpt>
      <trkpt lat="44.09406" lon="6.98944">
        <ele>1458</ele>
        <time>2022-07-21T12:13:15.000Z</time>
      </trkpt>
      <trkpt lat="44.09406" lon="6.98946">
        <ele>1458.5999755859</ele>
        <time>2022-07-21T12:13:21.000Z</time>
      </trkpt>
      <trkpt lat="44.09405" lon="6.98946">
        <ele>1458.1999511719</ele>
        <time>2022-07-21T12:13:29.000Z</time>
      </trkpt>
      <trkpt lat="44.09405" lon="6.98945">
        <ele>1458.1999511719</ele>
        <time>2022-07-21T12:13:34.000Z</time>
      </trkpt>
      <trkpt lat="44.09407" lon="6.98947">
        <ele>1458</ele>
        <time>2022-07-21T12:13:39.000Z</time>
      </trkpt>
      <trkpt lat="44.0941" lon="6.9895">
        <ele>1457.8000488281</ele>
        <time>2022-07-21T12:13:45.000Z</time>
      </trkpt>
      <trkpt lat="44.0941" lon="6.98949">
        <ele>1457.8000488281</ele>
        <time>2022-07-21T12:13:54.000Z</time>
      </trkpt>
      <trkpt lat="44.0941" lon="6.98948">
        <ele>1458.4000244141</ele>
        <time>2022-07-21T12:14:03.000Z</time>
      </trkpt>
      <trkpt lat="44.09411" lon="6.98948">
        <ele>1458.1999511719</ele>
        <time>2022-07-21T12:14:14.000Z</time>
      </trkpt>
      <trkpt lat="44.09411" lon="6.98948">
        <ele>1458</ele>
        <time>2022-07-21T12:14:23.000Z</time>
      </trkpt>
      <trkpt lat="44.09412" lon="6.98948">
        <ele>1458</ele>
        <time>2022-07-21T12:14:34.000Z</time>
      </trkpt>
      <trkpt lat="44.09411" lon="6.98947">
        <ele>1458.1999511719</ele>
        <time>2022-07-21T12:14:44.000Z</time>
      </trkpt>
      <trkpt lat="44.09411" lon="6.98948">
        <ele>1458.1999511719</ele>
        <time>2022-07-21T12:14:50.000Z</time>
      </trkpt>
      <trkpt lat="44.09413" lon="6.98949">
        <ele>1458.4000244141</ele>
        <time>2022-07-21T12:14:57.000Z</time>
      </trkpt>
      <trkpt lat="44.09411" lon="6.9895">
        <ele>1458.4000244141</ele>
        <time>2022-07-21T12:15:05.000Z</time>
      </trkpt>
      <trkpt lat="44.09409" lon="6.98949">
        <ele>1458</ele>
        <time>2022-07-21T12:15:11.000Z</time>
      </trkpt>
      <trkpt lat="44.09409" lon="6.9895">
        <ele>1458.1999511719</ele>
        <time>2022-07-21T12:15:18.000Z</time>
      </trkpt>
      <trkpt lat="44.09409" lon="6.98949">
        <ele>1458.4000244141</ele>
        <time>2022-07-21T12:15:25.000Z</time>
      </trkpt>
      <trkpt lat="44.09411" lon="6.9895">
        <ele>1458.1999511719</ele>
        <time>2022-07-21T12:15:30.000Z</time>
      </trkpt>
      <trkpt lat="44.0941" lon="6.9895">
        <ele>1458.1999511719</ele>
        <time>2022-07-21T12:15:37.000Z</time>
      </trkpt>
      <trkpt lat="44.0941" lon="6.98951">
        <ele>1458.1999511719</ele>
        <time>2022-07-21T12:15:44.000Z</time>
      </trkpt>
      <trkpt lat="44.0941" lon="6.98951">
        <ele>1458.8000488281</ele>
        <time>2022-07-21T12:15:52.000Z</time>
      </trkpt>
      <trkpt lat="44.09409" lon="6.98953">
        <ele>1458.4000244141</ele>
        <time>2022-07-21T12:15:59.000Z</time>
      </trkpt>
      <trkpt lat="44.0941" lon="6.98952">
        <ele>1458.1999511719</ele>
        <time>2022-07-21T12:16:08.000Z</time>
      </trkpt>
      <trkpt lat="44.09408" lon="6.98951">
        <ele>1458.8000488281</ele>
        <time>2022-07-21T12:16:18.000Z</time>
      </trkpt>
      <trkpt lat="44.09408" lon="6.98951">
        <ele>1459</ele>
        <time>2022-07-21T12:16:24.000Z</time>
      </trkpt>
      <trkpt lat="44.09408" lon="6.98951">
        <ele>1459.1999511719</ele>
        <time>2022-07-21T12:16:29.000Z</time>
      </trkpt>
      <trkpt lat="44.09409" lon="6.98951">
        <ele>1459.1999511719</ele>
        <time>2022-07-21T12:16:37.000Z</time>
      </trkpt>
      <trkpt lat="44.09408" lon="6.98951">
        <ele>1459.1999511719</ele>
        <time>2022-07-21T12:16:45.000Z</time>
      </trkpt>
      <trkpt lat="44.09408" lon="6.9895">
        <ele>1459</ele>
        <time>2022-07-21T12:16:52.000Z</time>
      </trkpt>
      <trkpt lat="44.09408" lon="6.98949">
        <ele>1459</ele>
        <time>2022-07-21T12:16:59.000Z</time>
      </trkpt>
      <trkpt lat="44.09408" lon="6.9895">
        <ele>1459</ele>
        <time>2022-07-21T12:17:04.000Z</time>
      </trkpt>
      <trkpt lat="44.09408" lon="6.9895">
        <ele>1459</ele>
        <time>2022-07-21T12:17:09.000Z</time>
      </trkpt>
      <trkpt lat="44.09408" lon="6.98951">
        <ele>1459.1999511719</ele>
        <time>2022-07-21T12:17:15.000Z</time>
      </trkpt>
      <trkpt lat="44.09408" lon="6.98952">
        <ele>1459</ele>
        <time>2022-07-21T12:17:22.000Z</time>
      </trkpt>
      <trkpt lat="44.09408" lon="6.98952">
        <ele>1459</ele>
        <time>2022-07-21T12:17:32.000Z</time>
      </trkpt>
      <trkpt lat="44.09408" lon="6.98953">
        <ele>1459.1999511719</ele>
        <time>2022-07-21T12:17:44.000Z</time>
      </trkpt>
      <trkpt lat="44.09408" lon="6.98953">
        <ele>1459</ele>
        <time>2022-07-21T12:17:55.000Z</time>
      </trkpt>
      <trkpt lat="44.09409" lon="6.98953">
        <ele>1459.4000244141</ele>
        <time>2022-07-21T12:18:02.000Z</time>
      </trkpt>
      <trkpt lat="44.09409" lon="6.98954">
        <ele>1459.5999755859</ele>
        <time>2022-07-21T12:18:14.000Z</time>
      </trkpt>
      <trkpt lat="44.09407" lon="6.98951">
        <ele>1459.5999755859</ele>
        <time>2022-07-21T12:18:19.000Z</time>
      </trkpt>
      <trkpt lat="44.09407" lon="6.9895">
        <ele>1459.5999755859</ele>
        <time>2022-07-21T12:18:25.000Z</time>
      </trkpt>
      <trkpt lat="44.09406" lon="6.98947">
        <ele>1459.4000244141</ele>
        <time>2022-07-21T12:18:31.000Z</time>
      </trkpt>
      <trkpt lat="44.09407" lon="6.98946">
        <ele>1459.5999755859</ele>
        <time>2022-07-21T12:18:36.000Z</time>
      </trkpt>
      <trkpt lat="44.09408" lon="6.98947">
        <ele>1459.4000244141</ele>
        <time>2022-07-21T12:18:43.000Z</time>
      </trkpt>
      <trkpt lat="44.09407" lon="6.98953">
        <ele>1459.8000488281</ele>
        <time>2022-07-21T12:18:48.000Z</time>
      </trkpt>
      <trkpt lat="44.09408" lon="6.98954">
        <ele>1459.5999755859</ele>
        <time>2022-07-21T12:18:50.000Z</time>
      </trkpt>
      <trkpt lat="44.09409" lon="6.98953">
        <ele>1459.8000488281</ele>
        <time>2022-07-21T12:18:55.000Z</time>
      </trkpt>
      <trkpt lat="44.09409" lon="6.98951">
        <ele>1460</ele>
        <time>2022-07-21T12:18:56.000Z</time>
      </trkpt>
      <trkpt lat="44.09409" lon="6.98951">
        <ele>1460.4000244141</ele>
        <time>2022-07-21T12:18:57.000Z</time>
      </trkpt>
      <trkpt lat="44.09411" lon="6.98948">
        <ele>1461.4000244141</ele>
        <time>2022-07-21T12:19:00.000Z</time>
      </trkpt>
      <trkpt lat="44.0941" lon="6.98942">
        <ele>1461.8000488281</ele>
        <time>2022-07-21T12:19:02.000Z</time>
      </trkpt>
      <trkpt lat="44.09411" lon="6.98964">
        <ele>1461.8000488281</ele>
        <time>2022-07-21T12:23:58.000Z</time>
      </trkpt>
      <trkpt lat="44.09393" lon="6.98955">
        <ele>1460.1999511719</ele>
        <time>2022-07-21T12:24:03.000Z</time>
      </trkpt>
      <trkpt lat="44.09395" lon="6.98953">
        <ele>1459.8000488281</ele>
        <time>2022-07-21T12:24:05.000Z</time>
      </trkpt>
      <trkpt lat="44.09403" lon="6.98951">
        <ele>1459.1999511719</ele>
        <time>2022-07-21T12:24:10.000Z</time>
      </trkpt>
      <trkpt lat="44.09405" lon="6.98952">
        <ele>1459.1999511719</ele>
        <time>2022-07-21T12:24:11.000Z</time>
      </trkpt>
      <trkpt lat="44.09408" lon="6.98958">
        <ele>1459.5999755859</ele>
        <time>2022-07-21T12:24:17.000Z</time>
      </trkpt>
      <trkpt lat="44.09411" lon="6.98961">
        <ele>1460.4000244141</ele>
        <time>2022-07-21T12:24:22.000Z</time>
      </trkpt>
      <trkpt lat="44.09411" lon="6.9896">
        <ele>1461.5999755859</ele>
        <time>2022-07-21T12:24:25.000Z</time>
      </trkpt>
      <trkpt lat="44.09411" lon="6.98961">
        <ele>1461.8000488281</ele>
        <time>2022-07-21T12:24:29.000Z</time>
      </trkpt>
      <trkpt lat="44.0941" lon="6.9896">
        <ele>1461.5999755859</ele>
        <time>2022-07-21T12:24:32.000Z</time>
      </trkpt>
      <trkpt lat="44.0941" lon="6.9896">
        <ele>1461.4000244141</ele>
        <time>2022-07-21T12:24:33.000Z</time>
      </trkpt>
      <trkpt lat="44.09408" lon="6.98958">
        <ele>1461.1999511719</ele>
        <time>2022-07-21T12:24:34.000Z</time>
      </trkpt>
      <trkpt lat="44.09407" lon="6.98956">
        <ele>1460.5999755859</ele>
        <time>2022-07-21T12:24:37.000Z</time>
      </trkpt>
      <trkpt lat="44.09407" lon="6.98954">
        <ele>1460.1999511719</ele>
        <time>2022-07-21T12:24:38.000Z</time>
      </trkpt>
      <trkpt lat="44.09407" lon="6.98952">
        <ele>1459.8000488281</ele>
        <time>2022-07-21T12:24:43.000Z</time>
      </trkpt>
      <trkpt lat="44.09408" lon="6.9895">
        <ele>1459.5999755859</ele>
        <time>2022-07-21T12:24:47.000Z</time>
      </trkpt>
      <trkpt lat="44.09408" lon="6.9895">
        <ele>1459.4000244141</ele>
        <time>2022-07-21T12:24:50.000Z</time>
      </trkpt>
      <trkpt lat="44.09409" lon="6.9895">
        <ele>1460.1999511719</ele>
        <time>2022-07-21T12:24:57.000Z</time>
      </trkpt>
      <trkpt lat="44.0941" lon="6.9895">
        <ele>1460.1999511719</ele>
        <time>2022-07-21T12:25:03.000Z</time>
      </trkpt>
      <trkpt lat="44.09409" lon="6.98948">
        <ele>1460.1999511719</ele>
        <time>2022-07-21T12:25:09.000Z</time>
      </trkpt>
      <trkpt lat="44.09409" lon="6.98949">
        <ele>1460.1999511719</ele>
        <time>2022-07-21T12:25:18.000Z</time>
      </trkpt>
      <trkpt lat="44.09409" lon="6.98948">
        <ele>1460.4000244141</ele>
        <time>2022-07-21T12:25:26.000Z</time>
      </trkpt>
      <trkpt lat="44.09408" lon="6.98949">
        <ele>1460.1999511719</ele>
        <time>2022-07-21T12:25:33.000Z</time>
      </trkpt>
      <trkpt lat="44.09407" lon="6.98948">
        <ele>1459.8000488281</ele>
        <time>2022-07-21T12:25:39.000Z</time>
      </trkpt>
      <trkpt lat="44.09407" lon="6.98949">
        <ele>1459.8000488281</ele>
        <time>2022-07-21T12:25:47.000Z</time>
      </trkpt>
      <trkpt lat="44.09407" lon="6.9895">
        <ele>1460</ele>
        <time>2022-07-21T12:25:54.000Z</time>
      </trkpt>
      <trkpt lat="44.09407" lon="6.98949">
        <ele>1459.8000488281</ele>
        <time>2022-07-21T12:25:57.000Z</time>
      </trkpt>
      <trkpt lat="44.09407" lon="6.98949">
        <ele>1459.8000488281</ele>
        <time>2022-07-21T12:25:59.000Z</time>
      </trkpt>
      <trkpt lat="44.09407" lon="6.9895">
        <ele>1460</ele>
        <time>2022-07-21T12:26:04.000Z</time>
      </trkpt>
      <trkpt lat="44.09408" lon="6.98951">
        <ele>1459.5999755859</ele>
        <time>2022-07-21T12:26:09.000Z</time>
      </trkpt>
      <trkpt lat="44.09408" lon="6.98953">
        <ele>1459.5999755859</ele>
        <time>2022-07-21T12:26:17.000Z</time>
      </trkpt>
      <trkpt lat="44.09409" lon="6.98953">
        <ele>1459.8000488281</ele>
        <time>2022-07-21T12:26:23.000Z</time>
      </trkpt>
      <trkpt lat="44.09409" lon="6.98951">
        <ele>1459.8000488281</ele>
        <time>2022-07-21T12:26:31.000Z</time>
      </trkpt>
      <trkpt lat="44.09409" lon="6.98952">
        <ele>1460.1999511719</ele>
        <time>2022-07-21T12:26:38.000Z</time>
      </trkpt>
      <trkpt lat="44.09409" lon="6.98951">
        <ele>1459.8000488281</ele>
        <time>2022-07-21T12:26:43.000Z</time>
      </trkpt>
      <trkpt lat="44.09409" lon="6.9895">
        <ele>1459.8000488281</ele>
        <time>2022-07-21T12:26:49.000Z</time>
      </trkpt>
      <trkpt lat="44.09409" lon="6.98948">
        <ele>1460</ele>
        <time>2022-07-21T12:26:56.000Z</time>
      </trkpt>
      <trkpt lat="44.0941" lon="6.98949">
        <ele>1460.1999511719</ele>
        <time>2022-07-21T12:27:05.000Z</time>
      </trkpt>
      <trkpt lat="44.09409" lon="6.98948">
        <ele>1460.4000244141</ele>
        <time>2022-07-21T12:27:13.000Z</time>
      </trkpt>
      <trkpt lat="44.09409" lon="6.98948">
        <ele>1460.1999511719</ele>
        <time>2022-07-21T12:27:22.000Z</time>
      </trkpt>
      <trkpt lat="44.0941" lon="6.98952">
        <ele>1459.8000488281</ele>
        <time>2022-07-21T12:27:30.000Z</time>
      </trkpt>
      <trkpt lat="44.0941" lon="6.98954">
        <ele>1460</ele>
        <time>2022-07-21T12:27:39.000Z</time>
      </trkpt>
      <trkpt lat="44.09411" lon="6.98956">
        <ele>1459.8000488281</ele>
        <time>2022-07-21T12:27:50.000Z</time>
      </trkpt>
      <trkpt lat="44.09411" lon="6.98957">
        <ele>1460</ele>
        <time>2022-07-21T12:28:02.000Z</time>
      </trkpt>
      <trkpt lat="44.0941" lon="6.98956">
        <ele>1460</ele>
        <time>2022-07-21T12:28:13.000Z</time>
      </trkpt>
      <trkpt lat="44.09409" lon="6.98955">
        <ele>1460</ele>
        <time>2022-07-21T12:28:18.000Z</time>
      </trkpt>
      <trkpt lat="44.09409" lon="6.98954">
        <ele>1460</ele>
        <time>2022-07-21T12:28:25.000Z</time>
      </trkpt>
      <trkpt lat="44.09408" lon="6.98953">
        <ele>1460.1999511719</ele>
        <time>2022-07-21T12:28:33.000Z</time>
      </trkpt>
      <trkpt lat="44.09407" lon="6.98952">
        <ele>1460.5999755859</ele>
        <time>2022-07-21T12:28:37.000Z</time>
      </trkpt>
      <trkpt lat="44.09407" lon="6.98951">
        <ele>1460.8000488281</ele>
        <time>2022-07-21T12:28:40.000Z</time>
      </trkpt>
      <trkpt lat="44.09408" lon="6.98953">
        <ele>1460.5999755859</ele>
        <time>2022-07-21T12:28:46.000Z</time>
      </trkpt>
      <trkpt lat="44.0941" lon="6.98953">
        <ele>1460.5999755859</ele>
        <time>2022-07-21T12:29:04.000Z</time>
      </trkpt>
      <trkpt lat="44.0941" lon="6.98952">
        <ele>1460.5999755859</ele>
        <time>2022-07-21T12:29:19.000Z</time>
      </trkpt>
      <trkpt lat="44.0941" lon="6.98952">
        <ele>1460.8000488281</ele>
        <time>2022-07-21T12:29:29.000Z</time>
      </trkpt>
      <trkpt lat="44.09409" lon="6.98953">
        <ele>1460.5999755859</ele>
        <time>2022-07-21T12:29:32.000Z</time>
      </trkpt>
      <trkpt lat="44.09403" lon="6.9896">
        <ele>1460.5999755859</ele>
        <time>2022-07-21T12:29:35.000Z</time>
      </trkpt>
      <trkpt lat="44.09392" lon="6.98978">
        <ele>1459.1999511719</ele>
        <time>2022-07-21T12:29:39.000Z</time>
      </trkpt>
      <trkpt lat="44.09389" lon="6.98986">
        <ele>1459.1999511719</ele>
        <time>2022-07-21T12:29:43.000Z</time>
      </trkpt>
      <trkpt lat="44.09389" lon="6.98992">
        <ele>1461</ele>
        <time>2022-07-21T12:29:48.000Z</time>
      </trkpt>
      <trkpt lat="44.09389" lon="6.98996">
        <ele>1461.4000244141</ele>
        <time>2022-07-21T12:29:49.000Z</time>
      </trkpt>
      <trkpt lat="44.09389" lon="6.99003">
        <ele>1461.5999755859</ele>
        <time>2022-07-21T12:29:50.000Z</time>
      </trkpt>
      <trkpt lat="44.09388" lon="6.99019">
        <ele>1462.5999755859</ele>
        <time>2022-07-21T12:29:53.000Z</time>
      </trkpt>
      <trkpt lat="44.09387" lon="6.99025">
        <ele>1462.8000488281</ele>
        <time>2022-07-21T12:29:54.000Z</time>
      </trkpt>
      <trkpt lat="44.09383" lon="6.99033">
        <ele>1463.1999511719</ele>
        <time>2022-07-21T12:29:56.000Z</time>
      </trkpt>
      <trkpt lat="44.0938" lon="6.99037">
        <ele>1463.4000244141</ele>
        <time>2022-07-21T12:29:57.000Z</time>
      </trkpt>
      <trkpt lat="44.09371" lon="6.99062">
        <ele>1462.1999511719</ele>
        <time>2022-07-21T12:30:01.000Z</time>
      </trkpt>
      <trkpt lat="44.0937" lon="6.99069">
        <ele>1461.8000488281</ele>
        <time>2022-07-21T12:30:02.000Z</time>
      </trkpt>
      <trkpt lat="44.0937" lon="6.99076">
        <ele>1461.4000244141</ele>
        <time>2022-07-21T12:30:03.000Z</time>
      </trkpt>
      <trkpt lat="44.0937" lon="6.99086">
        <ele>1461.1999511719</ele>
        <time>2022-07-21T12:30:05.000Z</time>
      </trkpt>
      <trkpt lat="44.09373" lon="6.9911">
        <ele>1462.4000244141</ele>
        <time>2022-07-21T12:30:10.000Z</time>
      </trkpt>
      <trkpt lat="44.09381" lon="6.9914">
        <ele>1462.5999755859</ele>
        <time>2022-07-21T12:30:16.000Z</time>
      </trkpt>
      <trkpt lat="44.09382" lon="6.99149">
        <ele>1462.8000488281</ele>
        <time>2022-07-21T12:30:18.000Z</time>
      </trkpt>
      <trkpt lat="44.09384" lon="6.99166">
        <ele>1463.8000488281</ele>
        <time>2022-07-21T12:30:22.000Z</time>
      </trkpt>
      <trkpt lat="44.09386" lon="6.99171">
        <ele>1464.4000244141</ele>
        <time>2022-07-21T12:30:24.000Z</time>
      </trkpt>
      <trkpt lat="44.09386" lon="6.99175">
        <ele>1465</ele>
        <time>2022-07-21T12:30:26.000Z</time>
      </trkpt>
      <trkpt lat="44.09385" lon="6.9918">
        <ele>1465.5999755859</ele>
        <time>2022-07-21T12:30:29.000Z</time>
      </trkpt>
      <trkpt lat="44.09383" lon="6.99182">
        <ele>1465.8000488281</ele>
        <time>2022-07-21T12:30:30.000Z</time>
      </trkpt>
      <trkpt lat="44.09376" lon="6.99184">
        <ele>1465.8000488281</ele>
        <time>2022-07-21T12:30:32.000Z</time>
      </trkpt>
      <trkpt lat="44.09373" lon="6.99186">
        <ele>1465.8000488281</ele>
        <time>2022-07-21T12:30:33.000Z</time>
      </trkpt>
      <trkpt lat="44.09371" lon="6.99194">
        <ele>1464.5999755859</ele>
        <time>2022-07-21T12:30:35.000Z</time>
      </trkpt>
      <trkpt lat="44.09371" lon="6.99198">
        <ele>1463.8000488281</ele>
        <time>2022-07-21T12:30:36.000Z</time>
      </trkpt>
      <trkpt lat="44.09369" lon="6.99206">
        <ele>1462.1999511719</ele>
        <time>2022-07-21T12:30:38.000Z</time>
      </trkpt>
      <trkpt lat="44.09367" lon="6.99208">
        <ele>1461.5999755859</ele>
        <time>2022-07-21T12:30:39.000Z</time>
      </trkpt>
      <trkpt lat="44.09364" lon="6.99209">
        <ele>1461</ele>
        <time>2022-07-21T12:30:40.000Z</time>
      </trkpt>
      <trkpt lat="44.09361" lon="6.99212">
        <ele>1459.8000488281</ele>
        <time>2022-07-21T12:30:42.000Z</time>
      </trkpt>
      <trkpt lat="44.09359" lon="6.99213">
        <ele>1458.8000488281</ele>
        <time>2022-07-21T12:30:44.000Z</time>
      </trkpt>
      <trkpt lat="44.09356" lon="6.99216">
        <ele>1457.5999755859</ele>
        <time>2022-07-21T12:30:47.000Z</time>
      </trkpt>
      <trkpt lat="44.09352" lon="6.99219">
        <ele>1456.4000244141</ele>
        <time>2022-07-21T12:30:51.000Z</time>
      </trkpt>
      <trkpt lat="44.09356" lon="6.99224">
        <ele>1455</ele>
        <time>2022-07-21T12:30:54.000Z</time>
      </trkpt>
      <trkpt lat="44.09358" lon="6.99227">
        <ele>1454.5999755859</ele>
        <time>2022-07-21T12:30:55.000Z</time>
      </trkpt>
      <trkpt lat="44.09355" lon="6.99232">
        <ele>1453.8000488281</ele>
        <time>2022-07-21T12:30:57.000Z</time>
      </trkpt>
      <trkpt lat="44.09347" lon="6.99233">
        <ele>1452.5999755859</ele>
        <time>2022-07-21T12:30:59.000Z</time>
      </trkpt>
      <trkpt lat="44.09344" lon="6.99232">
        <ele>1452</ele>
        <time>2022-07-21T12:31:00.000Z</time>
      </trkpt>
      <trkpt lat="44.09343" lon="6.99233">
        <ele>1451.4000244141</ele>
        <time>2022-07-21T12:31:01.000Z</time>
      </trkpt>
      <trkpt lat="44.09345" lon="6.99237">
        <ele>1449.5999755859</ele>
        <time>2022-07-21T12:31:03.000Z</time>
      </trkpt>
      <trkpt lat="44.09343" lon="6.99244">
        <ele>1447.8000488281</ele>
        <time>2022-07-21T12:31:05.000Z</time>
      </trkpt>
      <trkpt lat="44.09337" lon="6.99243">
        <ele>1446.4000244141</ele>
        <time>2022-07-21T12:31:07.000Z</time>
      </trkpt>
      <trkpt lat="44.09334" lon="6.99238">
        <ele>1445.8000488281</ele>
        <time>2022-07-21T12:31:08.000Z</time>
      </trkpt>
      <trkpt lat="44.09332" lon="6.99233">
        <ele>1445.4000244141</ele>
        <time>2022-07-21T12:31:09.000Z</time>
      </trkpt>
      <trkpt lat="44.0933" lon="6.99227">
        <ele>1444.5999755859</ele>
        <time>2022-07-21T12:31:10.000Z</time>
      </trkpt>
      <trkpt lat="44.09328" lon="6.99222">
        <ele>1443.5999755859</ele>
        <time>2022-07-21T12:31:11.000Z</time>
      </trkpt>
      <trkpt lat="44.09325" lon="6.99216">
        <ele>1442.8000488281</ele>
        <time>2022-07-21T12:31:12.000Z</time>
      </trkpt>
      <trkpt lat="44.09321" lon="6.9921">
        <ele>1442</ele>
        <time>2022-07-21T12:31:13.000Z</time>
      </trkpt>
      <trkpt lat="44.09319" lon="6.99205">
        <ele>1440.8000488281</ele>
        <time>2022-07-21T12:31:14.000Z</time>
      </trkpt>
      <trkpt lat="44.09317" lon="6.99201">
        <ele>1439.8000488281</ele>
        <time>2022-07-21T12:31:15.000Z</time>
      </trkpt>
      <trkpt lat="44.09316" lon="6.99196">
        <ele>1439</ele>
        <time>2022-07-21T12:31:16.000Z</time>
      </trkpt>
      <trkpt lat="44.09315" lon="6.99189">
        <ele>1438</ele>
        <time>2022-07-21T12:31:17.000Z</time>
      </trkpt>
      <trkpt lat="44.09314" lon="6.99182">
        <ele>1436.5999755859</ele>
        <time>2022-07-21T12:31:18.000Z</time>
      </trkpt>
      <trkpt lat="44.09314" lon="6.99176">
        <ele>1435.5999755859</ele>
        <time>2022-07-21T12:31:19.000Z</time>
      </trkpt>
      <trkpt lat="44.09315" lon="6.99169">
        <ele>1434.1999511719</ele>
        <time>2022-07-21T12:31:20.000Z</time>
      </trkpt>
      <trkpt lat="44.09317" lon="6.99155">
        <ele>1432.1999511719</ele>
        <time>2022-07-21T12:31:22.000Z</time>
      </trkpt>
      <trkpt lat="44.09317" lon="6.99148">
        <ele>1431.4000244141</ele>
        <time>2022-07-21T12:31:23.000Z</time>
      </trkpt>
      <trkpt lat="44.09316" lon="6.99143">
        <ele>1430.4000244141</ele>
        <time>2022-07-21T12:31:24.000Z</time>
      </trkpt>
      <trkpt lat="44.09314" lon="6.9914">
        <ele>1429.4000244141</ele>
        <time>2022-07-21T12:31:25.000Z</time>
      </trkpt>
      <trkpt lat="44.09312" lon="6.99138">
        <ele>1428</ele>
        <time>2022-07-21T12:31:26.000Z</time>
      </trkpt>
      <trkpt lat="44.0931" lon="6.99136">
        <ele>1426.5999755859</ele>
        <time>2022-07-21T12:31:27.000Z</time>
      </trkpt>
      <trkpt lat="44.09308" lon="6.99135">
        <ele>1425.4000244141</ele>
        <time>2022-07-21T12:31:28.000Z</time>
      </trkpt>
      <trkpt lat="44.09306" lon="6.99134">
        <ele>1424.1999511719</ele>
        <time>2022-07-21T12:31:30.000Z</time>
      </trkpt>
      <trkpt lat="44.09306" lon="6.99134">
        <ele>1423.8000488281</ele>
        <time>2022-07-21T12:31:32.000Z</time>
      </trkpt>
      <trkpt lat="44.09306" lon="6.99134">
        <ele>1423.5999755859</ele>
        <time>2022-07-21T12:31:42.000Z</time>
      </trkpt>
      <trkpt lat="44.09306" lon="6.99137">
        <ele>1423.1999511719</ele>
        <time>2022-07-21T12:31:47.000Z</time>
      </trkpt>
      <trkpt lat="44.09305" lon="6.9914">
        <ele>1422</ele>
        <time>2022-07-21T12:31:51.000Z</time>
      </trkpt>
      <trkpt lat="44.09305" lon="6.99143">
        <ele>1421.4000244141</ele>
        <time>2022-07-21T12:31:53.000Z</time>
      </trkpt>
      <trkpt lat="44.09299" lon="6.99161">
        <ele>1421</ele>
        <time>2022-07-21T12:31:57.000Z</time>
      </trkpt>
      <trkpt lat="44.09296" lon="6.99165">
        <ele>1420.5999755859</ele>
        <time>2022-07-21T12:31:58.000Z</time>
      </trkpt>
      <trkpt lat="44.09289" lon="6.99173">
        <ele>1419.4000244141</ele>
        <time>2022-07-21T12:32:00.000Z</time>
      </trkpt>
      <trkpt lat="44.09288" lon="6.99177">
        <ele>1418.5999755859</ele>
        <time>2022-07-21T12:32:01.000Z</time>
      </trkpt>
      <trkpt lat="44.09286" lon="6.99182">
        <ele>1417.8000488281</ele>
        <time>2022-07-21T12:32:02.000Z</time>
      </trkpt>
      <trkpt lat="44.09285" lon="6.99188">
        <ele>1416.5999755859</ele>
        <time>2022-07-21T12:32:03.000Z</time>
      </trkpt>
      <trkpt lat="44.09284" lon="6.992">
        <ele>1414.1999511719</ele>
        <time>2022-07-21T12:32:05.000Z</time>
      </trkpt>
      <trkpt lat="44.09284" lon="6.99205">
        <ele>1413.1999511719</ele>
        <time>2022-07-21T12:32:06.000Z</time>
      </trkpt>
      <trkpt lat="44.09282" lon="6.99213">
        <ele>1411.4000244141</ele>
        <time>2022-07-21T12:32:08.000Z</time>
      </trkpt>
      <trkpt lat="44.09281" lon="6.99215">
        <ele>1411</ele>
        <time>2022-07-21T12:32:09.000Z</time>
      </trkpt>
      <trkpt lat="44.09281" lon="6.99216">
        <ele>1411.8000488281</ele>
        <time>2022-07-21T12:32:13.000Z</time>
      </trkpt>
      <trkpt lat="44.09283" lon="6.99217">
        <ele>1412</ele>
        <time>2022-07-21T12:32:18.000Z</time>
      </trkpt>
      <trkpt lat="44.09284" lon="6.99213">
        <ele>1412</ele>
        <time>2022-07-21T12:32:20.000Z</time>
      </trkpt>
      <trkpt lat="44.09283" lon="6.99205">
        <ele>1412</ele>
        <time>2022-07-21T12:32:22.000Z</time>
      </trkpt>
      <trkpt lat="44.09282" lon="6.99196">
        <ele>1412</ele>
        <time>2022-07-21T12:32:24.000Z</time>
      </trkpt>
      <trkpt lat="44.09283" lon="6.99176">
        <ele>1411.4000244141</ele>
        <time>2022-07-21T12:32:28.000Z</time>
      </trkpt>
      <trkpt lat="44.09285" lon="6.99164">
        <ele>1411</ele>
        <time>2022-07-21T12:32:30.000Z</time>
      </trkpt>
      <trkpt lat="44.09286" lon="6.99159">
        <ele>1411</ele>
        <time>2022-07-21T12:32:31.000Z</time>
      </trkpt>
      <trkpt lat="44.09283" lon="6.99148">
        <ele>1410.5999755859</ele>
        <time>2022-07-21T12:32:33.000Z</time>
      </trkpt>
      <trkpt lat="44.09278" lon="6.99146">
        <ele>1410.4000244141</ele>
        <time>2022-07-21T12:32:34.000Z</time>
      </trkpt>
      <trkpt lat="44.09274" lon="6.99148">
        <ele>1410</ele>
        <time>2022-07-21T12:32:35.000Z</time>
      </trkpt>
      <trkpt lat="44.0927" lon="6.99161">
        <ele>1409.5999755859</ele>
        <time>2022-07-21T12:32:37.000Z</time>
      </trkpt>
      <trkpt lat="44.0927" lon="6.99177">
        <ele>1409.1999511719</ele>
        <time>2022-07-21T12:32:39.000Z</time>
      </trkpt>
      <trkpt lat="44.0927" lon="6.99185">
        <ele>1409</ele>
        <time>2022-07-21T12:32:40.000Z</time>
      </trkpt>
      <trkpt lat="44.09271" lon="6.99194">
        <ele>1408.8000488281</ele>
        <time>2022-07-21T12:32:41.000Z</time>
      </trkpt>
      <trkpt lat="44.09272" lon="6.99214">
        <ele>1408.1999511719</ele>
        <time>2022-07-21T12:32:43.000Z</time>
      </trkpt>
      <trkpt lat="44.09273" lon="6.99236">
        <ele>1407.4000244141</ele>
        <time>2022-07-21T12:32:45.000Z</time>
      </trkpt>
      <trkpt lat="44.09275" lon="6.99244">
        <ele>1407</ele>
        <time>2022-07-21T12:32:46.000Z</time>
      </trkpt>
      <trkpt lat="44.09276" lon="6.99251">
        <ele>1406.4000244141</ele>
        <time>2022-07-21T12:32:47.000Z</time>
      </trkpt>
      <trkpt lat="44.09275" lon="6.99255">
        <ele>1405.8000488281</ele>
        <time>2022-07-21T12:32:48.000Z</time>
      </trkpt>
      <trkpt lat="44.09272" lon="6.99256">
        <ele>1404.5999755859</ele>
        <time>2022-07-21T12:32:50.000Z</time>
      </trkpt>
      <trkpt lat="44.09271" lon="6.99255">
        <ele>1404.1999511719</ele>
        <time>2022-07-21T12:32:51.000Z</time>
      </trkpt>
      <trkpt lat="44.09269" lon="6.99247">
        <ele>1403.8000488281</ele>
        <time>2022-07-21T12:32:56.000Z</time>
      </trkpt>
      <trkpt lat="44.09268" lon="6.99242">
        <ele>1403.4000244141</ele>
        <time>2022-07-21T12:32:58.000Z</time>
      </trkpt>
      <trkpt lat="44.09266" lon="6.99241">
        <ele>1402.1999511719</ele>
        <time>2022-07-21T12:33:01.000Z</time>
      </trkpt>
      <trkpt lat="44.09266" lon="6.99243">
        <ele>1402</ele>
        <time>2022-07-21T12:33:02.000Z</time>
      </trkpt>
      <trkpt lat="44.09264" lon="6.99251">
        <ele>1401</ele>
        <time>2022-07-21T12:33:05.000Z</time>
      </trkpt>
      <trkpt lat="44.09263" lon="6.99255">
        <ele>1399.5999755859</ele>
        <time>2022-07-21T12:33:08.000Z</time>
      </trkpt>
      <trkpt lat="44.09263" lon="6.99255">
        <ele>1398.1999511719</ele>
        <time>2022-07-21T12:33:10.000Z</time>
      </trkpt>
      <trkpt lat="44.09257" lon="6.99265">
        <ele>1397.8000488281</ele>
        <time>2022-07-21T12:33:15.000Z</time>
      </trkpt>
      <trkpt lat="44.09256" lon="6.9927">
        <ele>1397.8000488281</ele>
        <time>2022-07-21T12:33:16.000Z</time>
      </trkpt>
      <trkpt lat="44.0925" lon="6.99288">
        <ele>1397</ele>
        <time>2022-07-21T12:33:19.000Z</time>
      </trkpt>
      <trkpt lat="44.09242" lon="6.99297">
        <ele>1395.1999511719</ele>
        <time>2022-07-21T12:33:21.000Z</time>
      </trkpt>
      <trkpt lat="44.09237" lon="6.993">
        <ele>1393.8000488281</ele>
        <time>2022-07-21T12:33:22.000Z</time>
      </trkpt>
      <trkpt lat="44.0923" lon="6.993">
        <ele>1392.4000244141</ele>
        <time>2022-07-21T12:33:23.000Z</time>
      </trkpt>
      <trkpt lat="44.09224" lon="6.993">
        <ele>1391.4000244141</ele>
        <time>2022-07-21T12:33:24.000Z</time>
      </trkpt>
      <trkpt lat="44.09218" lon="6.99299">
        <ele>1390</ele>
        <time>2022-07-21T12:33:25.000Z</time>
      </trkpt>
      <trkpt lat="44.09213" lon="6.993">
        <ele>1388.8000488281</ele>
        <time>2022-07-21T12:33:26.000Z</time>
      </trkpt>
      <trkpt lat="44.09211" lon="6.99303">
        <ele>1387.4000244141</ele>
        <time>2022-07-21T12:33:27.000Z</time>
      </trkpt>
      <trkpt lat="44.09209" lon="6.99308">
        <ele>1386.4000244141</ele>
        <time>2022-07-21T12:33:28.000Z</time>
      </trkpt>
      <trkpt lat="44.09208" lon="6.99314">
        <ele>1385.1999511719</ele>
        <time>2022-07-21T12:33:29.000Z</time>
      </trkpt>
      <trkpt lat="44.09208" lon="6.9932">
        <ele>1384.5999755859</ele>
        <time>2022-07-21T12:33:30.000Z</time>
      </trkpt>
      <trkpt lat="44.09207" lon="6.99326">
        <ele>1384</ele>
        <time>2022-07-21T12:33:31.000Z</time>
      </trkpt>
      <trkpt lat="44.09201" lon="6.99374">
        <ele>1384.4000244141</ele>
        <time>2022-07-21T12:33:39.000Z</time>
      </trkpt>
      <trkpt lat="44.09201" lon="6.9938">
        <ele>1384.4000244141</ele>
        <time>2022-07-21T12:33:40.000Z</time>
      </trkpt>
      <trkpt lat="44.09206" lon="6.99397">
        <ele>1384.1999511719</ele>
        <time>2022-07-21T12:33:43.000Z</time>
      </trkpt>
      <trkpt lat="44.09208" lon="6.99402">
        <ele>1384.1999511719</ele>
        <time>2022-07-21T12:33:44.000Z</time>
      </trkpt>
      <trkpt lat="44.0921" lon="6.99407">
        <ele>1384.1999511719</ele>
        <time>2022-07-21T12:33:45.000Z</time>
      </trkpt>
      <trkpt lat="44.09217" lon="6.99425">
        <ele>1384.4000244141</ele>
        <time>2022-07-21T12:33:49.000Z</time>
      </trkpt>
      <trkpt lat="44.09223" lon="6.99444">
        <ele>1385.1999511719</ele>
        <time>2022-07-21T12:33:54.000Z</time>
      </trkpt>
      <trkpt lat="44.09225" lon="6.99454">
        <ele>1386.1999511719</ele>
        <time>2022-07-21T12:33:57.000Z</time>
      </trkpt>
      <trkpt lat="44.09227" lon="6.99468">
        <ele>1387.4000244141</ele>
        <time>2022-07-21T12:34:01.000Z</time>
      </trkpt>
      <trkpt lat="44.09228" lon="6.99488">
        <ele>1388.1999511719</ele>
        <time>2022-07-21T12:34:06.000Z</time>
      </trkpt>
      <trkpt lat="44.09228" lon="6.99497">
        <ele>1388.4000244141</ele>
        <time>2022-07-21T12:34:08.000Z</time>
      </trkpt>
      <trkpt lat="44.09229" lon="6.9951">
        <ele>1388.8000488281</ele>
        <time>2022-07-21T12:34:11.000Z</time>
      </trkpt>
      <trkpt lat="44.09231" lon="6.99524">
        <ele>1389.4000244141</ele>
        <time>2022-07-21T12:34:14.000Z</time>
      </trkpt>
      <trkpt lat="44.09232" lon="6.99536">
        <ele>1390</ele>
        <time>2022-07-21T12:34:17.000Z</time>
      </trkpt>
      <trkpt lat="44.09234" lon="6.99545">
        <ele>1390.4000244141</ele>
        <time>2022-07-21T12:34:19.000Z</time>
      </trkpt>
      <trkpt lat="44.09238" lon="6.99562">
        <ele>1391.5999755859</ele>
        <time>2022-07-21T12:34:23.000Z</time>
      </trkpt>
      <trkpt lat="44.09239" lon="6.99566">
        <ele>1392</ele>
        <time>2022-07-21T12:34:24.000Z</time>
      </trkpt>
      <trkpt lat="44.09242" lon="6.99576">
        <ele>1393</ele>
        <time>2022-07-21T12:34:27.000Z</time>
      </trkpt>
      <trkpt lat="44.09246" lon="6.99584">
        <ele>1393.8000488281</ele>
        <time>2022-07-21T12:34:30.000Z</time>
      </trkpt>
      <trkpt lat="44.0925" lon="6.9959">
        <ele>1394.1999511719</ele>
        <time>2022-07-21T12:34:32.000Z</time>
      </trkpt>
      <trkpt lat="44.09258" lon="6.99599">
        <ele>1395.1999511719</ele>
        <time>2022-07-21T12:34:36.000Z</time>
      </trkpt>
      <trkpt lat="44.09261" lon="6.99601">
        <ele>1395.1999511719</ele>
        <time>2022-07-21T12:34:37.000Z</time>
      </trkpt>
      <trkpt lat="44.09265" lon="6.99605">
        <ele>1396.4000244141</ele>
        <time>2022-07-21T12:34:40.000Z</time>
      </trkpt>
      <trkpt lat="44.09268" lon="6.99607">
        <ele>1397.5999755859</ele>
        <time>2022-07-21T12:34:42.000Z</time>
      </trkpt>
      <trkpt lat="44.09274" lon="6.99617">
        <ele>1398.1999511719</ele>
        <time>2022-07-21T12:34:45.000Z</time>
      </trkpt>
      <trkpt lat="44.09275" lon="6.99622">
        <ele>1397.8000488281</ele>
        <time>2022-07-21T12:34:47.000Z</time>
      </trkpt>
      <trkpt lat="44.09273" lon="6.99623">
        <ele>1398</ele>
        <time>2022-07-21T12:34:48.000Z</time>
      </trkpt>
      <trkpt lat="44.0927" lon="6.99625">
        <ele>1399</ele>
        <time>2022-07-21T12:34:51.000Z</time>
      </trkpt>
      <trkpt lat="44.09269" lon="6.99626">
        <ele>1399.4000244141</ele>
        <time>2022-07-21T12:34:52.000Z</time>
      </trkpt>
      <trkpt lat="44.09267" lon="6.99627">
        <ele>1399.5999755859</ele>
        <time>2022-07-21T12:34:53.000Z</time>
      </trkpt>
      <trkpt lat="44.09261" lon="6.99629">
        <ele>1400.1999511719</ele>
        <time>2022-07-21T12:34:55.000Z</time>
      </trkpt>
      <trkpt lat="44.09258" lon="6.99632">
        <ele>1400.4000244141</ele>
        <time>2022-07-21T12:34:57.000Z</time>
      </trkpt>
      <trkpt lat="44.09259" lon="6.99633">
        <ele>1400.8000488281</ele>
        <time>2022-07-21T12:34:59.000Z</time>
      </trkpt>
      <trkpt lat="44.09261" lon="6.99634">
        <ele>1401</ele>
        <time>2022-07-21T12:35:00.000Z</time>
      </trkpt>
      <trkpt lat="44.09264" lon="6.99634">
        <ele>1401.4000244141</ele>
        <time>2022-07-21T12:35:01.000Z</time>
      </trkpt>
      <trkpt lat="44.09266" lon="6.99636">
        <ele>1401.8000488281</ele>
        <time>2022-07-21T12:35:02.000Z</time>
      </trkpt>
      <trkpt lat="44.09269" lon="6.99643">
        <ele>1402.8000488281</ele>
        <time>2022-07-21T12:35:04.000Z</time>
      </trkpt>
      <trkpt lat="44.09271" lon="6.99655">
        <ele>1404</ele>
        <time>2022-07-21T12:35:07.000Z</time>
      </trkpt>
      <trkpt lat="44.0927" lon="6.99666">
        <ele>1404.8000488281</ele>
        <time>2022-07-21T12:35:10.000Z</time>
      </trkpt>
      <trkpt lat="44.09269" lon="6.99669">
        <ele>1405.1999511719</ele>
        <time>2022-07-21T12:35:11.000Z</time>
      </trkpt>
      <trkpt lat="44.09267" lon="6.99671">
        <ele>1405.5999755859</ele>
        <time>2022-07-21T12:35:12.000Z</time>
      </trkpt>
      <trkpt lat="44.09265" lon="6.9967">
        <ele>1406.1999511719</ele>
        <time>2022-07-21T12:35:13.000Z</time>
      </trkpt>
      <trkpt lat="44.09263" lon="6.99668">
        <ele>1406.4000244141</ele>
        <time>2022-07-21T12:35:14.000Z</time>
      </trkpt>
      <trkpt lat="44.09257" lon="6.99664">
        <ele>1407.4000244141</ele>
        <time>2022-07-21T12:35:17.000Z</time>
      </trkpt>
      <trkpt lat="44.09254" lon="6.99664">
        <ele>1408.1999511719</ele>
        <time>2022-07-21T12:35:19.000Z</time>
      </trkpt>
      <trkpt lat="44.09253" lon="6.99666">
        <ele>1408.5999755859</ele>
        <time>2022-07-21T12:35:20.000Z</time>
      </trkpt>
      <trkpt lat="44.09253" lon="6.99668">
        <ele>1409</ele>
        <time>2022-07-21T12:35:21.000Z</time>
      </trkpt>
      <trkpt lat="44.09253" lon="6.99674">
        <ele>1409.4000244141</ele>
        <time>2022-07-21T12:35:23.000Z</time>
      </trkpt>
      <trkpt lat="44.09254" lon="6.99677">
        <ele>1409.8000488281</ele>
        <time>2022-07-21T12:35:24.000Z</time>
      </trkpt>
      <trkpt lat="44.09255" lon="6.9968">
        <ele>1410.1999511719</ele>
        <time>2022-07-21T12:35:26.000Z</time>
      </trkpt>
      <trkpt lat="44.09258" lon="6.99684">
        <ele>1410.5999755859</ele>
        <time>2022-07-21T12:35:27.000Z</time>
      </trkpt>
      <trkpt lat="44.09259" lon="6.99686">
        <ele>1411</ele>
        <time>2022-07-21T12:35:28.000Z</time>
      </trkpt>
      <trkpt lat="44.09261" lon="6.99692">
        <ele>1412.1999511719</ele>
        <time>2022-07-21T12:35:31.000Z</time>
      </trkpt>
      <trkpt lat="44.09257" lon="6.99692">
        <ele>1413.1999511719</ele>
        <time>2022-07-21T12:35:34.000Z</time>
      </trkpt>
      <trkpt lat="44.09252" lon="6.99689">
        <ele>1414.4000244141</ele>
        <time>2022-07-21T12:35:37.000Z</time>
      </trkpt>
      <trkpt lat="44.09248" lon="6.99689">
        <ele>1415</ele>
        <time>2022-07-21T12:35:39.000Z</time>
      </trkpt>
      <trkpt lat="44.09243" lon="6.99691">
        <ele>1416</ele>
        <time>2022-07-21T12:35:42.000Z</time>
      </trkpt>
      <trkpt lat="44.09239" lon="6.99693">
        <ele>1416.5999755859</ele>
        <time>2022-07-21T12:35:44.000Z</time>
      </trkpt>
      <trkpt lat="44.09237" lon="6.99694">
        <ele>1417</ele>
        <time>2022-07-21T12:35:45.000Z</time>
      </trkpt>
      <trkpt lat="44.0923" lon="6.99699">
        <ele>1418</ele>
        <time>2022-07-21T12:35:49.000Z</time>
      </trkpt>
      <trkpt lat="44.09229" lon="6.99698">
        <ele>1418.4000244141</ele>
        <time>2022-07-21T12:35:50.000Z</time>
      </trkpt>
      <trkpt lat="44.09227" lon="6.99699">
        <ele>1418.8000488281</ele>
        <time>2022-07-21T12:35:51.000Z</time>
      </trkpt>
      <trkpt lat="44.09226" lon="6.99701">
        <ele>1419.4000244141</ele>
        <time>2022-07-21T12:35:52.000Z</time>
      </trkpt>
      <trkpt lat="44.09224" lon="6.99705">
        <ele>1420</ele>
        <time>2022-07-21T12:35:54.000Z</time>
      </trkpt>
      <trkpt lat="44.09224" lon="6.99708">
        <ele>1420.8000488281</ele>
        <time>2022-07-21T12:35:55.000Z</time>
      </trkpt>
      <trkpt lat="44.09222" lon="6.99714">
        <ele>1422</ele>
        <time>2022-07-21T12:35:58.000Z</time>
      </trkpt>
      <trkpt lat="44.09222" lon="6.99713">
        <ele>1422.5999755859</ele>
        <time>2022-07-21T12:35:59.000Z</time>
      </trkpt>
      <trkpt lat="44.09223" lon="6.99714">
        <ele>1423.1999511719</ele>
        <time>2022-07-21T12:36:01.000Z</time>
      </trkpt>
      <trkpt lat="44.09223" lon="6.99714">
        <ele>1423.1999511719</ele>
        <time>2022-07-21T12:36:05.000Z</time>
      </trkpt>
      <trkpt lat="44.09222" lon="6.99718">
        <ele>1424.1999511719</ele>
        <time>2022-07-21T12:36:12.000Z</time>
      </trkpt>
      <trkpt lat="44.09221" lon="6.99718">
        <ele>1425</ele>
        <time>2022-07-21T12:36:17.000Z</time>
      </trkpt>
      <trkpt lat="44.0922" lon="6.99716">
        <ele>1425.1999511719</ele>
        <time>2022-07-21T12:36:20.000Z</time>
      </trkpt>
      <trkpt lat="44.09218" lon="6.99713">
        <ele>1425.1999511719</ele>
        <time>2022-07-21T12:36:22.000Z</time>
      </trkpt>
      <trkpt lat="44.09218" lon="6.9971">
        <ele>1425.1999511719</ele>
        <time>2022-07-21T12:36:23.000Z</time>
      </trkpt>
      <trkpt lat="44.09219" lon="6.997">
        <ele>1426.1999511719</ele>
        <time>2022-07-21T12:36:26.000Z</time>
      </trkpt>
      <trkpt lat="44.09219" lon="6.99697">
        <ele>1426.8000488281</ele>
        <time>2022-07-21T12:36:27.000Z</time>
      </trkpt>
      <trkpt lat="44.09217" lon="6.99688">
        <ele>1428.4000244141</ele>
        <time>2022-07-21T12:36:30.000Z</time>
      </trkpt>
      <trkpt lat="44.09217" lon="6.99686">
        <ele>1429</ele>
        <time>2022-07-21T12:36:31.000Z</time>
      </trkpt>
      <trkpt lat="44.09216" lon="6.99684">
        <ele>1429.5999755859</ele>
        <time>2022-07-21T12:36:32.000Z</time>
      </trkpt>
      <trkpt lat="44.09214" lon="6.99682">
        <ele>1430.1999511719</ele>
        <time>2022-07-21T12:36:33.000Z</time>
      </trkpt>
      <trkpt lat="44.09213" lon="6.99682">
        <ele>1430.5999755859</ele>
        <time>2022-07-21T12:36:34.000Z</time>
      </trkpt>
      <trkpt lat="44.09211" lon="6.99682">
        <ele>1431</ele>
        <time>2022-07-21T12:36:35.000Z</time>
      </trkpt>
      <trkpt lat="44.09207" lon="6.99682">
        <ele>1431.8000488281</ele>
        <time>2022-07-21T12:36:37.000Z</time>
      </trkpt>
      <trkpt lat="44.09203" lon="6.99683">
        <ele>1432.8000488281</ele>
        <time>2022-07-21T12:36:39.000Z</time>
      </trkpt>
      <trkpt lat="44.09201" lon="6.99683">
        <ele>1433.1999511719</ele>
        <time>2022-07-21T12:36:40.000Z</time>
      </trkpt>
      <trkpt lat="44.092" lon="6.99682">
        <ele>1433.8000488281</ele>
        <time>2022-07-21T12:36:41.000Z</time>
      </trkpt>
      <trkpt lat="44.09198" lon="6.99683">
        <ele>1434.4000244141</ele>
        <time>2022-07-21T12:36:42.000Z</time>
      </trkpt>
      <trkpt lat="44.09193" lon="6.99684">
        <ele>1436</ele>
        <time>2022-07-21T12:36:45.000Z</time>
      </trkpt>
      <trkpt lat="44.09189" lon="6.99685">
        <ele>1437.4000244141</ele>
        <time>2022-07-21T12:36:48.000Z</time>
      </trkpt>
      <trkpt lat="44.09185" lon="6.99687">
        <ele>1438.5999755859</ele>
        <time>2022-07-21T12:36:50.000Z</time>
      </trkpt>
      <trkpt lat="44.09183" lon="6.9969">
        <ele>1439.4000244141</ele>
        <time>2022-07-21T12:36:52.000Z</time>
      </trkpt>
      <trkpt lat="44.09181" lon="6.99691">
        <ele>1440</ele>
        <time>2022-07-21T12:36:53.000Z</time>
      </trkpt>
      <trkpt lat="44.09178" lon="6.99692">
        <ele>1441</ele>
        <time>2022-07-21T12:36:55.000Z</time>
      </trkpt>
      <trkpt lat="44.09174" lon="6.99694">
        <ele>1442.1999511719</ele>
        <time>2022-07-21T12:36:57.000Z</time>
      </trkpt>
      <trkpt lat="44.09169" lon="6.99694">
        <ele>1443.5999755859</ele>
        <time>2022-07-21T12:37:00.000Z</time>
      </trkpt>
      <trkpt lat="44.09164" lon="6.99696">
        <ele>1444.4000244141</ele>
        <time>2022-07-21T12:37:03.000Z</time>
      </trkpt>
      <trkpt lat="44.09163" lon="6.99697">
        <ele>1444.8000488281</ele>
        <time>2022-07-21T12:37:04.000Z</time>
      </trkpt>
      <trkpt lat="44.09163" lon="6.99698">
        <ele>1445.1999511719</ele>
        <time>2022-07-21T12:37:05.000Z</time>
      </trkpt>
      <trkpt lat="44.09165" lon="6.99699">
        <ele>1445.8000488281</ele>
        <time>2022-07-21T12:37:07.000Z</time>
      </trkpt>
      <trkpt lat="44.09166" lon="6.99699">
        <ele>1446.1999511719</ele>
        <time>2022-07-21T12:37:08.000Z</time>
      </trkpt>
      <trkpt lat="44.09171" lon="6.99704">
        <ele>1447.5999755859</ele>
        <time>2022-07-21T12:37:13.000Z</time>
      </trkpt>
      <trkpt lat="44.09176" lon="6.9971">
        <ele>1448.5999755859</ele>
        <time>2022-07-21T12:37:17.000Z</time>
      </trkpt>
      <trkpt lat="44.0918" lon="6.99715">
        <ele>1449.8000488281</ele>
        <time>2022-07-21T12:37:20.000Z</time>
      </trkpt>
      <trkpt lat="44.09184" lon="6.9972">
        <ele>1451</ele>
        <time>2022-07-21T12:37:23.000Z</time>
      </trkpt>
      <trkpt lat="44.09188" lon="6.99725">
        <ele>1452</ele>
        <time>2022-07-21T12:37:26.000Z</time>
      </trkpt>
      <trkpt lat="44.09188" lon="6.99727">
        <ele>1452.4000244141</ele>
        <time>2022-07-21T12:37:27.000Z</time>
      </trkpt>
      <trkpt lat="44.09186" lon="6.99729">
        <ele>1453.1999511719</ele>
        <time>2022-07-21T12:37:29.000Z</time>
      </trkpt>
      <trkpt lat="44.09185" lon="6.99729">
        <ele>1453.5999755859</ele>
        <time>2022-07-21T12:37:30.000Z</time>
      </trkpt>
      <trkpt lat="44.0918" lon="6.99727">
        <ele>1454.1999511719</ele>
        <time>2022-07-21T12:37:33.000Z</time>
      </trkpt>
      <trkpt lat="44.09178" lon="6.99727">
        <ele>1454.4000244141</ele>
        <time>2022-07-21T12:37:34.000Z</time>
      </trkpt>
      <trkpt lat="44.09173" lon="6.99727">
        <ele>1455</ele>
        <time>2022-07-21T12:37:37.000Z</time>
      </trkpt>
      <trkpt lat="44.09171" lon="6.99727">
        <ele>1455.1999511719</ele>
        <time>2022-07-21T12:37:38.000Z</time>
      </trkpt>
      <trkpt lat="44.09166" lon="6.99729">
        <ele>1456.1999511719</ele>
        <time>2022-07-21T12:37:41.000Z</time>
      </trkpt>
      <trkpt lat="44.09163" lon="6.9973">
        <ele>1457</ele>
        <time>2022-07-21T12:37:43.000Z</time>
      </trkpt>
      <trkpt lat="44.09161" lon="6.99731">
        <ele>1457.4000244141</ele>
        <time>2022-07-21T12:37:44.000Z</time>
      </trkpt>
      <trkpt lat="44.09155" lon="6.99735">
        <ele>1458.5999755859</ele>
        <time>2022-07-21T12:37:48.000Z</time>
      </trkpt>
      <trkpt lat="44.09153" lon="6.99738">
        <ele>1459.4000244141</ele>
        <time>2022-07-21T12:37:50.000Z</time>
      </trkpt>
      <trkpt lat="44.09151" lon="6.99739">
        <ele>1459.8000488281</ele>
        <time>2022-07-21T12:37:51.000Z</time>
      </trkpt>
      <trkpt lat="44.09147" lon="6.99742">
        <ele>1461</ele>
        <time>2022-07-21T12:37:54.000Z</time>
      </trkpt>
      <trkpt lat="44.09144" lon="6.99743">
        <ele>1462</ele>
        <time>2022-07-21T12:37:56.000Z</time>
      </trkpt>
      <trkpt lat="44.09138" lon="6.99748">
        <ele>1463.1999511719</ele>
        <time>2022-07-21T12:38:00.000Z</time>
      </trkpt>
      <trkpt lat="44.09136" lon="6.99749">
        <ele>1463.5999755859</ele>
        <time>2022-07-21T12:38:01.000Z</time>
      </trkpt>
      <trkpt lat="44.09124" lon="6.99753">
        <ele>1464.4000244141</ele>
        <time>2022-07-21T12:38:07.000Z</time>
      </trkpt>
      <trkpt lat="44.09121" lon="6.99755">
        <ele>1464.5999755859</ele>
        <time>2022-07-21T12:38:09.000Z</time>
      </trkpt>
      <trkpt lat="44.09107" lon="6.99764">
        <ele>1465.4000244141</ele>
        <time>2022-07-21T12:38:16.000Z</time>
      </trkpt>
      <trkpt lat="44.09105" lon="6.99765">
        <ele>1465.5999755859</ele>
        <time>2022-07-21T12:38:17.000Z</time>
      </trkpt>
      <trkpt lat="44.09083" lon="6.99773">
        <ele>1466.4000244141</ele>
        <time>2022-07-21T12:38:27.000Z</time>
      </trkpt>
      <trkpt lat="44.09081" lon="6.99774">
        <ele>1466.5999755859</ele>
        <time>2022-07-21T12:38:28.000Z</time>
      </trkpt>
      <trkpt lat="44.09066" lon="6.99775">
        <ele>1467.4000244141</ele>
        <time>2022-07-21T12:38:35.000Z</time>
      </trkpt>
      <trkpt lat="44.09059" lon="6.99776">
        <ele>1467.5999755859</ele>
        <time>2022-07-21T12:38:38.000Z</time>
      </trkpt>
      <trkpt lat="44.09047" lon="6.99781">
        <ele>1468</ele>
        <time>2022-07-21T12:38:43.000Z</time>
      </trkpt>
      <trkpt lat="44.09037" lon="6.99791">
        <ele>1468.8000488281</ele>
        <time>2022-07-21T12:38:48.000Z</time>
      </trkpt>
      <trkpt lat="44.09033" lon="6.99794">
        <ele>1469</ele>
        <time>2022-07-21T12:38:50.000Z</time>
      </trkpt>
      <trkpt lat="44.09029" lon="6.9981">
        <ele>1469.8000488281</ele>
        <time>2022-07-21T12:38:55.000Z</time>
      </trkpt>
      <trkpt lat="44.09029" lon="6.99828">
        <ele>1471</ele>
        <time>2022-07-21T12:39:00.000Z</time>
      </trkpt>
      <trkpt lat="44.09026" lon="6.99844">
        <ele>1472</ele>
        <time>2022-07-21T12:39:05.000Z</time>
      </trkpt>
      <trkpt lat="44.09022" lon="6.99868">
        <ele>1473.4000244141</ele>
        <time>2022-07-21T12:39:12.000Z</time>
      </trkpt>
      <trkpt lat="44.09019" lon="6.99877">
        <ele>1474.4000244141</ele>
        <time>2022-07-21T12:39:15.000Z</time>
      </trkpt>
      <trkpt lat="44.09015" lon="6.99886">
        <ele>1474.8000488281</ele>
        <time>2022-07-21T12:39:18.000Z</time>
      </trkpt>
      <trkpt lat="44.0901" lon="6.99897">
        <ele>1475.4000244141</ele>
        <time>2022-07-21T12:39:22.000Z</time>
      </trkpt>
      <trkpt lat="44.09008" lon="6.99904">
        <ele>1475.8000488281</ele>
        <time>2022-07-21T12:39:24.000Z</time>
      </trkpt>
      <trkpt lat="44.09005" lon="6.99915">
        <ele>1476.4000244141</ele>
        <time>2022-07-21T12:39:28.000Z</time>
      </trkpt>
      <trkpt lat="44.09005" lon="6.99924">
        <ele>1477</ele>
        <time>2022-07-21T12:39:31.000Z</time>
      </trkpt>
      <trkpt lat="44.09007" lon="6.99934">
        <ele>1477.5999755859</ele>
        <time>2022-07-21T12:39:34.000Z</time>
      </trkpt>
      <trkpt lat="44.09011" lon="6.99942">
        <ele>1478.1999511719</ele>
        <time>2022-07-21T12:39:37.000Z</time>
      </trkpt>
      <trkpt lat="44.09013" lon="6.99948">
        <ele>1478.8000488281</ele>
        <time>2022-07-21T12:39:39.000Z</time>
      </trkpt>
      <trkpt lat="44.0902" lon="6.99961">
        <ele>1479.8000488281</ele>
        <time>2022-07-21T12:39:44.000Z</time>
      </trkpt>
      <trkpt lat="44.09027" lon="6.99977">
        <ele>1481</ele>
        <time>2022-07-21T12:39:50.000Z</time>
      </trkpt>
      <trkpt lat="44.09036" lon="6.99987">
        <ele>1482.1999511719</ele>
        <time>2022-07-21T12:39:55.000Z</time>
      </trkpt>
      <trkpt lat="44.0904" lon="6.99989">
        <ele>1482.5999755859</ele>
        <time>2022-07-21T12:39:57.000Z</time>
      </trkpt>
      <trkpt lat="44.09046" lon="6.99994">
        <ele>1483.4000244141</ele>
        <time>2022-07-21T12:40:00.000Z</time>
      </trkpt>
      <trkpt lat="44.09051" lon="6.99998">
        <ele>1484.1999511719</ele>
        <time>2022-07-21T12:40:03.000Z</time>
      </trkpt>
      <trkpt lat="44.09053" lon="6.99999">
        <ele>1484.5999755859</ele>
        <time>2022-07-21T12:40:04.000Z</time>
      </trkpt>
      <trkpt lat="44.09062" lon="7.00007">
        <ele>1485.8000488281</ele>
        <time>2022-07-21T12:40:09.000Z</time>
      </trkpt>
      <trkpt lat="44.09069" lon="7.00008">
        <ele>1486.8000488281</ele>
        <time>2022-07-21T12:40:12.000Z</time>
      </trkpt>
      <trkpt lat="44.09074" lon="7.00009">
        <ele>1487.1999511719</ele>
        <time>2022-07-21T12:40:14.000Z</time>
      </trkpt>
      <trkpt lat="44.09083" lon="7.00018">
        <ele>1488</ele>
        <time>2022-07-21T12:40:19.000Z</time>
      </trkpt>
      <trkpt lat="44.09084" lon="7.00021">
        <ele>1488.1999511719</ele>
        <time>2022-07-21T12:40:20.000Z</time>
      </trkpt>
      <trkpt lat="44.09085" lon="7.00031">
        <ele>1489</ele>
        <time>2022-07-21T12:40:23.000Z</time>
      </trkpt>
      <trkpt lat="44.09084" lon="7.00035">
        <ele>1489.1999511719</ele>
        <time>2022-07-21T12:40:24.000Z</time>
      </trkpt>
      <trkpt lat="44.09081" lon="7.0006">
        <ele>1489.4000244141</ele>
        <time>2022-07-21T12:40:30.000Z</time>
      </trkpt>
      <trkpt lat="44.09081" lon="7.00082">
        <ele>1490.4000244141</ele>
        <time>2022-07-21T12:40:35.000Z</time>
      </trkpt>
      <trkpt lat="44.09081" lon="7.00086">
        <ele>1490.5999755859</ele>
        <time>2022-07-21T12:40:36.000Z</time>
      </trkpt>
      <trkpt lat="44.09079" lon="7.00093">
        <ele>1491.4000244141</ele>
        <time>2022-07-21T12:40:38.000Z</time>
      </trkpt>
      <trkpt lat="44.09078" lon="7.00105">
        <ele>1492.5999755859</ele>
        <time>2022-07-21T12:40:41.000Z</time>
      </trkpt>
      <trkpt lat="44.09075" lon="7.00129">
        <ele>1493.5999755859</ele>
        <time>2022-07-21T12:40:47.000Z</time>
      </trkpt>
      <trkpt lat="44.09073" lon="7.00139">
        <ele>1494.5999755859</ele>
        <time>2022-07-21T12:40:50.000Z</time>
      </trkpt>
      <trkpt lat="44.09073" lon="7.00147">
        <ele>1495</ele>
        <time>2022-07-21T12:40:52.000Z</time>
      </trkpt>
      <trkpt lat="44.09074" lon="7.00155">
        <ele>1495.5999755859</ele>
        <time>2022-07-21T12:40:54.000Z</time>
      </trkpt>
      <trkpt lat="44.09074" lon="7.00173">
        <ele>1496.5999755859</ele>
        <time>2022-07-21T12:40:58.000Z</time>
      </trkpt>
      <trkpt lat="44.0907" lon="7.0019">
        <ele>1497.5999755859</ele>
        <time>2022-07-21T12:41:02.000Z</time>
      </trkpt>
      <trkpt lat="44.09067" lon="7.00207">
        <ele>1498.8000488281</ele>
        <time>2022-07-21T12:41:07.000Z</time>
      </trkpt>
      <trkpt lat="44.09071" lon="7.00216">
        <ele>1499.8000488281</ele>
        <time>2022-07-21T12:41:10.000Z</time>
      </trkpt>
      <trkpt lat="44.09071" lon="7.0022">
        <ele>1500.1999511719</ele>
        <time>2022-07-21T12:41:11.000Z</time>
      </trkpt>
      <trkpt lat="44.09071" lon="7.00227">
        <ele>1501</ele>
        <time>2022-07-21T12:41:13.000Z</time>
      </trkpt>
      <trkpt lat="44.09069" lon="7.00241">
        <ele>1502</ele>
        <time>2022-07-21T12:41:17.000Z</time>
      </trkpt>
      <trkpt lat="44.09065" lon="7.00259">
        <ele>1503.1999511719</ele>
        <time>2022-07-21T12:41:22.000Z</time>
      </trkpt>
      <trkpt lat="44.09064" lon="7.00262">
        <ele>1503.5999755859</ele>
        <time>2022-07-21T12:41:23.000Z</time>
      </trkpt>
      <trkpt lat="44.09062" lon="7.00281">
        <ele>1504.4000244141</ele>
        <time>2022-07-21T12:41:28.000Z</time>
      </trkpt>
      <trkpt lat="44.09061" lon="7.00285">
        <ele>1504.5999755859</ele>
        <time>2022-07-21T12:41:29.000Z</time>
      </trkpt>
      <trkpt lat="44.09062" lon="7.0031">
        <ele>1505.5999755859</ele>
        <time>2022-07-21T12:41:35.000Z</time>
      </trkpt>
      <trkpt lat="44.09067" lon="7.00326">
        <ele>1506.8000488281</ele>
        <time>2022-07-21T12:41:39.000Z</time>
      </trkpt>
      <trkpt lat="44.09073" lon="7.00336">
        <ele>1507.4000244141</ele>
        <time>2022-07-21T12:41:42.000Z</time>
      </trkpt>
      <trkpt lat="44.0908" lon="7.00345">
        <ele>1508</ele>
        <time>2022-07-21T12:41:45.000Z</time>
      </trkpt>
      <trkpt lat="44.09085" lon="7.00351">
        <ele>1509</ele>
        <time>2022-07-21T12:41:48.000Z</time>
      </trkpt>
      <trkpt lat="44.09092" lon="7.00358">
        <ele>1510.1999511719</ele>
        <time>2022-07-21T12:41:51.000Z</time>
      </trkpt>
      <trkpt lat="44.09099" lon="7.00367">
        <ele>1511.1999511719</ele>
        <time>2022-07-21T12:41:54.000Z</time>
      </trkpt>
      <trkpt lat="44.09106" lon="7.00375">
        <ele>1512.4000244141</ele>
        <time>2022-07-21T12:41:58.000Z</time>
      </trkpt>
      <trkpt lat="44.09114" lon="7.00389">
        <ele>1513.5999755859</ele>
        <time>2022-07-21T12:42:04.000Z</time>
      </trkpt>
      <trkpt lat="44.09125" lon="7.00405">
        <ele>1514.1999511719</ele>
        <time>2022-07-21T12:42:09.000Z</time>
      </trkpt>
      <trkpt lat="44.09131" lon="7.00412">
        <ele>1514.8000488281</ele>
        <time>2022-07-21T12:42:12.000Z</time>
      </trkpt>
      <trkpt lat="44.09137" lon="7.00414">
        <ele>1515.4000244141</ele>
        <time>2022-07-21T12:42:14.000Z</time>
      </trkpt>
      <trkpt lat="44.09142" lon="7.00418">
        <ele>1515.8000488281</ele>
        <time>2022-07-21T12:42:16.000Z</time>
      </trkpt>
      <trkpt lat="44.09147" lon="7.00425">
        <ele>1516</ele>
        <time>2022-07-21T12:42:18.000Z</time>
      </trkpt>
      <trkpt lat="44.09156" lon="7.00443">
        <ele>1516.8000488281</ele>
        <time>2022-07-21T12:42:23.000Z</time>
      </trkpt>
      <trkpt lat="44.09159" lon="7.00446">
        <ele>1517.1999511719</ele>
        <time>2022-07-21T12:42:24.000Z</time>
      </trkpt>
      <trkpt lat="44.09165" lon="7.00455">
        <ele>1518</ele>
        <time>2022-07-21T12:42:27.000Z</time>
      </trkpt>
      <trkpt lat="44.09166" lon="7.00458">
        <ele>1518.4000244141</ele>
        <time>2022-07-21T12:42:28.000Z</time>
      </trkpt>
      <trkpt lat="44.09171" lon="7.00466">
        <ele>1519</ele>
        <time>2022-07-21T12:42:31.000Z</time>
      </trkpt>
      <trkpt lat="44.09173" lon="7.00469">
        <ele>1519.4000244141</ele>
        <time>2022-07-21T12:42:32.000Z</time>
      </trkpt>
      <trkpt lat="44.09185" lon="7.00487">
        <ele>1520.1999511719</ele>
        <time>2022-07-21T12:42:38.000Z</time>
      </trkpt>
      <trkpt lat="44.09193" lon="7.00496">
        <ele>1521.5999755859</ele>
        <time>2022-07-21T12:42:42.000Z</time>
      </trkpt>
      <trkpt lat="44.09201" lon="7.00501">
        <ele>1522.1999511719</ele>
        <time>2022-07-21T12:42:45.000Z</time>
      </trkpt>
      <trkpt lat="44.09206" lon="7.00505">
        <ele>1522.5999755859</ele>
        <time>2022-07-21T12:42:47.000Z</time>
      </trkpt>
      <trkpt lat="44.09211" lon="7.00515">
        <ele>1523.4000244141</ele>
        <time>2022-07-21T12:42:50.000Z</time>
      </trkpt>
      <trkpt lat="44.09213" lon="7.00518">
        <ele>1523.8000488281</ele>
        <time>2022-07-21T12:42:51.000Z</time>
      </trkpt>
      <trkpt lat="44.09218" lon="7.00531">
        <ele>1524.5999755859</ele>
        <time>2022-07-21T12:42:55.000Z</time>
      </trkpt>
      <trkpt lat="44.0922" lon="7.00534">
        <ele>1524.8000488281</ele>
        <time>2022-07-21T12:42:56.000Z</time>
      </trkpt>
      <trkpt lat="44.09227" lon="7.00545">
        <ele>1526.1999511719</ele>
        <time>2022-07-21T12:43:00.000Z</time>
      </trkpt>
      <trkpt lat="44.09236" lon="7.0056">
        <ele>1527.4000244141</ele>
        <time>2022-07-21T12:43:05.000Z</time>
      </trkpt>
      <trkpt lat="44.09238" lon="7.00563">
        <ele>1527.5999755859</ele>
        <time>2022-07-21T12:43:06.000Z</time>
      </trkpt>
      <trkpt lat="44.09245" lon="7.0057">
        <ele>1528.5999755859</ele>
        <time>2022-07-21T12:43:09.000Z</time>
      </trkpt>
      <trkpt lat="44.09252" lon="7.00575">
        <ele>1529.4000244141</ele>
        <time>2022-07-21T12:43:12.000Z</time>
      </trkpt>
      <trkpt lat="44.09257" lon="7.00581">
        <ele>1529.8000488281</ele>
        <time>2022-07-21T12:43:14.000Z</time>
      </trkpt>
      <trkpt lat="44.09262" lon="7.00591">
        <ele>1530.8000488281</ele>
        <time>2022-07-21T12:43:17.000Z</time>
      </trkpt>
      <trkpt lat="44.09263" lon="7.00594">
        <ele>1531.1999511719</ele>
        <time>2022-07-21T12:43:18.000Z</time>
      </trkpt>
      <trkpt lat="44.09268" lon="7.00603">
        <ele>1532.1999511719</ele>
        <time>2022-07-21T12:43:21.000Z</time>
      </trkpt>
      <trkpt lat="44.09271" lon="7.00608">
        <ele>1532.5999755859</ele>
        <time>2022-07-21T12:43:23.000Z</time>
      </trkpt>
      <trkpt lat="44.09277" lon="7.00615">
        <ele>1533.4000244141</ele>
        <time>2022-07-21T12:43:26.000Z</time>
      </trkpt>
      <trkpt lat="44.09282" lon="7.00618">
        <ele>1533.8000488281</ele>
        <time>2022-07-21T12:43:28.000Z</time>
      </trkpt>
      <trkpt lat="44.09289" lon="7.00623">
        <ele>1534.4000244141</ele>
        <time>2022-07-21T12:43:31.000Z</time>
      </trkpt>
      <trkpt lat="44.0929" lon="7.00626">
        <ele>1534.5999755859</ele>
        <time>2022-07-21T12:43:32.000Z</time>
      </trkpt>
      <trkpt lat="44.09291" lon="7.0063">
        <ele>1535</ele>
        <time>2022-07-21T12:43:33.000Z</time>
      </trkpt>
      <trkpt lat="44.0929" lon="7.00647">
        <ele>1534.5999755859</ele>
        <time>2022-07-21T12:43:38.000Z</time>
      </trkpt>
      <trkpt lat="44.09288" lon="7.00656">
        <ele>1534.8000488281</ele>
        <time>2022-07-21T12:43:41.000Z</time>
      </trkpt>
      <trkpt lat="44.09288" lon="7.00664">
        <ele>1535</ele>
        <time>2022-07-21T12:43:43.000Z</time>
      </trkpt>
      <trkpt lat="44.09292" lon="7.00679">
        <ele>1535.5999755859</ele>
        <time>2022-07-21T12:43:47.000Z</time>
      </trkpt>
      <trkpt lat="44.09295" lon="7.00686">
        <ele>1535.8000488281</ele>
        <time>2022-07-21T12:43:49.000Z</time>
      </trkpt>
      <trkpt lat="44.09301" lon="7.007">
        <ele>1536.8000488281</ele>
        <time>2022-07-21T12:43:53.000Z</time>
      </trkpt>
      <trkpt lat="44.0931" lon="7.0071">
        <ele>1537.8000488281</ele>
        <time>2022-07-21T12:43:57.000Z</time>
      </trkpt>
      <trkpt lat="44.09319" lon="7.0072">
        <ele>1538.8000488281</ele>
        <time>2022-07-21T12:44:01.000Z</time>
      </trkpt>
      <trkpt lat="44.09322" lon="7.00721">
        <ele>1539</ele>
        <time>2022-07-21T12:44:02.000Z</time>
      </trkpt>
      <trkpt lat="44.09329" lon="7.00728">
        <ele>1540</ele>
        <time>2022-07-21T12:44:05.000Z</time>
      </trkpt>
      <trkpt lat="44.0933" lon="7.0073">
        <ele>1540.1999511719</ele>
        <time>2022-07-21T12:44:06.000Z</time>
      </trkpt>
      <trkpt lat="44.09334" lon="7.00733">
        <ele>1541.1999511719</ele>
        <time>2022-07-21T12:44:08.000Z</time>
      </trkpt>
      <trkpt lat="44.09341" lon="7.00739">
        <ele>1542.1999511719</ele>
        <time>2022-07-21T12:44:11.000Z</time>
      </trkpt>
      <trkpt lat="44.09343" lon="7.00743">
        <ele>1542.4000244141</ele>
        <time>2022-07-21T12:44:12.000Z</time>
      </trkpt>
      <trkpt lat="44.09357" lon="7.00761">
        <ele>1543.1999511719</ele>
        <time>2022-07-21T12:44:19.000Z</time>
      </trkpt>
      <trkpt lat="44.0936" lon="7.00767">
        <ele>1543.4000244141</ele>
        <time>2022-07-21T12:44:21.000Z</time>
      </trkpt>
      <trkpt lat="44.09363" lon="7.00771">
        <ele>1544</ele>
        <time>2022-07-21T12:44:23.000Z</time>
      </trkpt>
      <trkpt lat="44.09363" lon="7.00772">
        <ele>1544.1999511719</ele>
        <time>2022-07-21T12:44:27.000Z</time>
      </trkpt>
      <trkpt lat="44.09365" lon="7.00773">
        <ele>1544.4000244141</ele>
        <time>2022-07-21T12:44:41.000Z</time>
      </trkpt>
      <trkpt lat="44.09365" lon="7.00773">
        <ele>1544.4000244141</ele>
        <time>2022-07-21T12:44:51.000Z</time>
      </trkpt>
      <trkpt lat="44.09369" lon="7.00771">
        <ele>1544.4000244141</ele>
        <time>2022-07-21T12:45:03.000Z</time>
      </trkpt>
      <trkpt lat="44.0937" lon="7.0077">
        <ele>1544.4000244141</ele>
        <time>2022-07-21T12:45:13.000Z</time>
      </trkpt>
      <trkpt lat="44.09371" lon="7.00772">
        <ele>1544.5999755859</ele>
        <time>2022-07-21T12:45:24.000Z</time>
      </trkpt>
      <trkpt lat="44.0937" lon="7.00772">
        <ele>1544.5999755859</ele>
        <time>2022-07-21T12:45:25.000Z</time>
      </trkpt>
      <trkpt lat="44.0937" lon="7.00772">
        <ele>1545.8000488281</ele>
        <time>2022-07-21T12:45:28.000Z</time>
      </trkpt>
      <trkpt lat="44.0937" lon="7.00773">
        <ele>1543.5999755859</ele>
        <time>2022-07-21T12:45:31.000Z</time>
      </trkpt>
      <trkpt lat="44.09369" lon="7.00773">
        <ele>1542.1999511719</ele>
        <time>2022-07-21T12:45:32.000Z</time>
      </trkpt>
      <trkpt lat="44.09369" lon="7.00773">
        <ele>1541</ele>
        <time>2022-07-21T12:45:33.000Z</time>
      </trkpt>
      <trkpt lat="44.09368" lon="7.00774">
        <ele>1539</ele>
        <time>2022-07-21T12:45:37.000Z</time>
      </trkpt>
      <trkpt lat="44.09368" lon="7.00775">
        <ele>1536.8000488281</ele>
        <time>2022-07-21T12:45:38.000Z</time>
      </trkpt>
      <trkpt lat="44.09368" lon="7.00775">
        <ele>1534.5999755859</ele>
        <time>2022-07-21T12:45:39.000Z</time>
      </trkpt>
      <trkpt lat="44.09368" lon="7.00775">
        <ele>1532.1999511719</ele>
        <time>2022-07-21T12:45:40.000Z</time>
      </trkpt>
      <trkpt lat="44.09368" lon="7.00775">
        <ele>1530.1999511719</ele>
        <time>2022-07-21T12:45:41.000Z</time>
      </trkpt>
      <trkpt lat="44.09368" lon="7.00775">
        <ele>1529</ele>
        <time>2022-07-21T12:45:42.000Z</time>
      </trkpt>
      <trkpt lat="44.09368" lon="7.00775">
        <ele>1527.5999755859</ele>
        <time>2022-07-21T12:45:43.000Z</time>
      </trkpt>
      <trkpt lat="44.09368" lon="7.00775">
        <ele>1526</ele>
        <time>2022-07-21T12:45:45.000Z</time>
      </trkpt>
      <trkpt lat="44.09368" lon="7.00776">
        <ele>1524.8000488281</ele>
        <time>2022-07-21T12:45:48.000Z</time>
      </trkpt>
      <trkpt lat="44.09368" lon="7.00776">
        <ele>1523.4000244141</ele>
        <time>2022-07-21T12:45:51.000Z</time>
      </trkpt>
      <trkpt lat="44.09367" lon="7.00776">
        <ele>1522.8000488281</ele>
        <time>2022-07-21T12:45:55.000Z</time>
      </trkpt>
      <trkpt lat="44.09367" lon="7.00776">
        <ele>1522.1999511719</ele>
        <time>2022-07-21T12:45:57.000Z</time>
      </trkpt>
      <trkpt lat="44.09367" lon="7.00775">
        <ele>1521.1999511719</ele>
        <time>2022-07-21T12:46:03.000Z</time>
      </trkpt>
      <trkpt lat="44.09368" lon="7.00774">
        <ele>1521</ele>
        <time>2022-07-21T12:46:05.000Z</time>
      </trkpt>
      <trkpt lat="44.09368" lon="7.00772">
        <ele>1520</ele>
        <time>2022-07-21T12:46:14.000Z</time>
      </trkpt>
      <trkpt lat="44.09368" lon="7.00772">
        <ele>1519.5999755859</ele>
        <time>2022-07-21T12:46:17.000Z</time>
      </trkpt>
      <trkpt lat="44.09367" lon="7.00772">
        <ele>1518.8000488281</ele>
        <time>2022-07-21T12:46:20.000Z</time>
      </trkpt>
      <trkpt lat="44.09367" lon="7.00773">
        <ele>1517.8000488281</ele>
        <time>2022-07-21T12:46:25.000Z</time>
      </trkpt>
      <trkpt lat="44.09366" lon="7.00773">
        <ele>1517.4000244141</ele>
        <time>2022-07-21T12:46:31.000Z</time>
      </trkpt>
      <trkpt lat="44.09366" lon="7.00774">
        <ele>1515</ele>
        <time>2022-07-21T12:46:37.000Z</time>
      </trkpt>
      <trkpt lat="44.09366" lon="7.00774">
        <ele>1513</ele>
        <time>2022-07-21T12:46:38.000Z</time>
      </trkpt>
      <trkpt lat="44.09366" lon="7.00774">
        <ele>1511.1999511719</ele>
        <time>2022-07-21T12:46:39.000Z</time>
      </trkpt>
      <trkpt lat="44.09366" lon="7.00774">
        <ele>1509.4000244141</ele>
        <time>2022-07-21T12:46:41.000Z</time>
      </trkpt>
      <trkpt lat="44.09365" lon="7.00775">
        <ele>1510.8000488281</ele>
        <time>2022-07-21T12:46:43.000Z</time>
      </trkpt>
      <trkpt lat="44.09365" lon="7.00775">
        <ele>1509.4000244141</ele>
        <time>2022-07-21T12:46:47.000Z</time>
      </trkpt>
      <trkpt lat="44.09365" lon="7.00775">
        <ele>1508.1999511719</ele>
        <time>2022-07-21T12:46:48.000Z</time>
      </trkpt>
      <trkpt lat="44.09365" lon="7.00775">
        <ele>1507.4000244141</ele>
        <time>2022-07-21T12:46:49.000Z</time>
      </trkpt>
      <trkpt lat="44.09365" lon="7.00775">
        <ele>1506.5999755859</ele>
        <time>2022-07-21T12:46:50.000Z</time>
      </trkpt>
      <trkpt lat="44.09365" lon="7.00775">
        <ele>1507.5999755859</ele>
        <time>2022-07-21T12:46:53.000Z</time>
      </trkpt>
      <trkpt lat="44.09365" lon="7.00776">
        <ele>1508.8000488281</ele>
        <time>2022-07-21T12:46:55.000Z</time>
      </trkpt>
      <trkpt lat="44.09365" lon="7.00776">
        <ele>1509.8000488281</ele>
        <time>2022-07-21T12:46:57.000Z</time>
      </trkpt>
      <trkpt lat="44.09365" lon="7.00776">
        <ele>1508.5999755859</ele>
        <time>2022-07-21T12:47:01.000Z</time>
      </trkpt>
      <trkpt lat="44.09365" lon="7.00776">
        <ele>1507.1999511719</ele>
        <time>2022-07-21T12:47:03.000Z</time>
      </trkpt>
      <trkpt lat="44.09365" lon="7.00777">
        <ele>1506</ele>
        <time>2022-07-21T12:47:09.000Z</time>
      </trkpt>
      <trkpt lat="44.09365" lon="7.00777">
        <ele>1504.8000488281</ele>
        <time>2022-07-21T12:47:12.000Z</time>
      </trkpt>
      <trkpt lat="44.09365" lon="7.00777">
        <ele>1503.5999755859</ele>
        <time>2022-07-21T12:47:14.000Z</time>
      </trkpt>
      <trkpt lat="44.09366" lon="7.00777">
        <ele>1502.1999511719</ele>
        <time>2022-07-21T12:47:16.000Z</time>
      </trkpt>
      <trkpt lat="44.09366" lon="7.00777">
        <ele>1501.1999511719</ele>
        <time>2022-07-21T12:47:17.000Z</time>
      </trkpt>
      <trkpt lat="44.09366" lon="7.00777">
        <ele>1500.5999755859</ele>
        <time>2022-07-21T12:47:18.000Z</time>
      </trkpt>
      <trkpt lat="44.09366" lon="7.00777">
        <ele>1499.5999755859</ele>
        <time>2022-07-21T12:47:23.000Z</time>
      </trkpt>
      <trkpt lat="44.09366" lon="7.00776">
        <ele>1498.4000244141</ele>
        <time>2022-07-21T12:47:25.000Z</time>
      </trkpt>
      <trkpt lat="44.09366" lon="7.00776">
        <ele>1497</ele>
        <time>2022-07-21T12:47:27.000Z</time>
      </trkpt>
      <trkpt lat="44.09366" lon="7.00776">
        <ele>1495.8000488281</ele>
        <time>2022-07-21T12:47:30.000Z</time>
      </trkpt>
      <trkpt lat="44.09366" lon="7.00776">
        <ele>1494.1999511719</ele>
        <time>2022-07-21T12:47:32.000Z</time>
      </trkpt>
      <trkpt lat="44.09366" lon="7.00776">
        <ele>1493</ele>
        <time>2022-07-21T12:47:33.000Z</time>
      </trkpt>
      <trkpt lat="44.09367" lon="7.00776">
        <ele>1491.5999755859</ele>
        <time>2022-07-21T12:47:34.000Z</time>
      </trkpt>
      <trkpt lat="44.09366" lon="7.00777">
        <ele>1494.4000244141</ele>
        <time>2022-07-21T12:47:35.000Z</time>
      </trkpt>
      <trkpt lat="44.09366" lon="7.00777">
        <ele>1493</ele>
        <time>2022-07-21T12:47:36.000Z</time>
      </trkpt>
      <trkpt lat="44.09366" lon="7.00777">
        <ele>1492.8000488281</ele>
        <time>2022-07-21T12:47:42.000Z</time>
      </trkpt>
      <trkpt lat="44.09366" lon="7.00777">
        <ele>1492.8000488281</ele>
        <time>2022-07-21T12:47:57.000Z</time>
      </trkpt>
      <trkpt lat="44.09366" lon="7.00777">
        <ele>1492</ele>
        <time>2022-07-21T12:48:02.000Z</time>
      </trkpt>
      <trkpt lat="44.09367" lon="7.00775">
        <ele>1491.4000244141</ele>
        <time>2022-07-21T12:48:11.000Z</time>
      </trkpt>
      <trkpt lat="44.0937" lon="7.00778">
        <ele>1491.1999511719</ele>
        <time>2022-07-21T12:48:17.000Z</time>
      </trkpt>
      <trkpt lat="44.09372" lon="7.00782">
        <ele>1490.8000488281</ele>
        <time>2022-07-21T12:48:19.000Z</time>
      </trkpt>
      <trkpt lat="44.09377" lon="7.00791">
        <ele>1490.5999755859</ele>
        <time>2022-07-21T12:48:22.000Z</time>
      </trkpt>
      <trkpt lat="44.09386" lon="7.00802">
        <ele>1490.4000244141</ele>
        <time>2022-07-21T12:48:27.000Z</time>
      </trkpt>
      <trkpt lat="44.09395" lon="7.00805">
        <ele>1490.4000244141</ele>
        <time>2022-07-21T12:48:30.000Z</time>
      </trkpt>
      <trkpt lat="44.09397" lon="7.00807">
        <ele>1490.4000244141</ele>
        <time>2022-07-21T12:48:31.000Z</time>
      </trkpt>
      <trkpt lat="44.09403" lon="7.00825">
        <ele>1490.8000488281</ele>
        <time>2022-07-21T12:48:35.000Z</time>
      </trkpt>
      <trkpt lat="44.09406" lon="7.00838">
        <ele>1491.1999511719</ele>
        <time>2022-07-21T12:48:38.000Z</time>
      </trkpt>
      <trkpt lat="44.09408" lon="7.00842">
        <ele>1491.4000244141</ele>
        <time>2022-07-21T12:48:39.000Z</time>
      </trkpt>
      <trkpt lat="44.09413" lon="7.00852">
        <ele>1491.8000488281</ele>
        <time>2022-07-21T12:48:42.000Z</time>
      </trkpt>
      <trkpt lat="44.09419" lon="7.00857">
        <ele>1491.8000488281</ele>
        <time>2022-07-21T12:48:44.000Z</time>
      </trkpt>
      <trkpt lat="44.09431" lon="7.0087">
        <ele>1492.8000488281</ele>
        <time>2022-07-21T12:48:49.000Z</time>
      </trkpt>
      <trkpt lat="44.09433" lon="7.00874">
        <ele>1492.8000488281</ele>
        <time>2022-07-21T12:48:50.000Z</time>
      </trkpt>
      <trkpt lat="44.09441" lon="7.0089">
        <ele>1494</ele>
        <time>2022-07-21T12:48:55.000Z</time>
      </trkpt>
      <trkpt lat="44.09445" lon="7.00896">
        <ele>1495.1999511719</ele>
        <time>2022-07-21T12:48:57.000Z</time>
      </trkpt>
      <trkpt lat="44.09449" lon="7.00903">
        <ele>1496.4000244141</ele>
        <time>2022-07-21T12:48:59.000Z</time>
      </trkpt>
      <trkpt lat="44.09452" lon="7.00908">
        <ele>1498.1999511719</ele>
        <time>2022-07-21T12:49:01.000Z</time>
      </trkpt>
      <trkpt lat="44.09457" lon="7.00913">
        <ele>1499.4000244141</ele>
        <time>2022-07-21T12:49:03.000Z</time>
      </trkpt>
      <trkpt lat="44.09461" lon="7.00919">
        <ele>1500.8000488281</ele>
        <time>2022-07-21T12:49:05.000Z</time>
      </trkpt>
      <trkpt lat="44.09463" lon="7.00926">
        <ele>1502</ele>
        <time>2022-07-21T12:49:07.000Z</time>
      </trkpt>
      <trkpt lat="44.09465" lon="7.00933">
        <ele>1503.5999755859</ele>
        <time>2022-07-21T12:49:09.000Z</time>
      </trkpt>
      <trkpt lat="44.09467" lon="7.00936">
        <ele>1504.1999511719</ele>
        <time>2022-07-21T12:49:10.000Z</time>
      </trkpt>
      <trkpt lat="44.09468" lon="7.00939">
        <ele>1505</ele>
        <time>2022-07-21T12:49:11.000Z</time>
      </trkpt>
      <trkpt lat="44.09471" lon="7.00945">
        <ele>1506.4000244141</ele>
        <time>2022-07-21T12:49:13.000Z</time>
      </trkpt>
      <trkpt lat="44.09475" lon="7.0095">
        <ele>1507.8000488281</ele>
        <time>2022-07-21T12:49:15.000Z</time>
      </trkpt>
      <trkpt lat="44.09477" lon="7.00952">
        <ele>1508.5999755859</ele>
        <time>2022-07-21T12:49:16.000Z</time>
      </trkpt>
      <trkpt lat="44.09479" lon="7.00955">
        <ele>1509.5999755859</ele>
        <time>2022-07-21T12:49:17.000Z</time>
      </trkpt>
      <trkpt lat="44.09483" lon="7.00957">
        <ele>1511</ele>
        <time>2022-07-21T12:49:19.000Z</time>
      </trkpt>
      <trkpt lat="44.09488" lon="7.00957">
        <ele>1512.1999511719</ele>
        <time>2022-07-21T12:49:21.000Z</time>
      </trkpt>
      <trkpt lat="44.09493" lon="7.0096">
        <ele>1513.5999755859</ele>
        <time>2022-07-21T12:49:23.000Z</time>
      </trkpt>
      <trkpt lat="44.09496" lon="7.00965">
        <ele>1514.8000488281</ele>
        <time>2022-07-21T12:49:25.000Z</time>
      </trkpt>
      <trkpt lat="44.09496" lon="7.00968">
        <ele>1515.1999511719</ele>
        <time>2022-07-21T12:49:26.000Z</time>
      </trkpt>
      <trkpt lat="44.09495" lon="7.00974">
        <ele>1516.1999511719</ele>
        <time>2022-07-21T12:49:28.000Z</time>
      </trkpt>
      <trkpt lat="44.09494" lon="7.00981">
        <ele>1517.4000244141</ele>
        <time>2022-07-21T12:49:30.000Z</time>
      </trkpt>
      <trkpt lat="44.09493" lon="7.00989">
        <ele>1518.8000488281</ele>
        <time>2022-07-21T12:49:32.000Z</time>
      </trkpt>
      <trkpt lat="44.09493" lon="7.00997">
        <ele>1520.1999511719</ele>
        <time>2022-07-21T12:49:34.000Z</time>
      </trkpt>
      <trkpt lat="44.09494" lon="7.01001">
        <ele>1521.1999511719</ele>
        <time>2022-07-21T12:49:35.000Z</time>
      </trkpt>
      <trkpt lat="44.09495" lon="7.01005">
        <ele>1521.8000488281</ele>
        <time>2022-07-21T12:49:36.000Z</time>
      </trkpt>
      <trkpt lat="44.09498" lon="7.01013">
        <ele>1522.8000488281</ele>
        <time>2022-07-21T12:49:38.000Z</time>
      </trkpt>
      <trkpt lat="44.095" lon="7.01021">
        <ele>1524.1999511719</ele>
        <time>2022-07-21T12:49:40.000Z</time>
      </trkpt>
      <trkpt lat="44.09503" lon="7.01028">
        <ele>1525.8000488281</ele>
        <time>2022-07-21T12:49:42.000Z</time>
      </trkpt>
      <trkpt lat="44.09506" lon="7.01035">
        <ele>1527</ele>
        <time>2022-07-21T12:49:44.000Z</time>
      </trkpt>
      <trkpt lat="44.09508" lon="7.01039">
        <ele>1527.8000488281</ele>
        <time>2022-07-21T12:49:45.000Z</time>
      </trkpt>
      <trkpt lat="44.09509" lon="7.01043">
        <ele>1528.4000244141</ele>
        <time>2022-07-21T12:49:46.000Z</time>
      </trkpt>
      <trkpt lat="44.09512" lon="7.0105">
        <ele>1530.1999511719</ele>
        <time>2022-07-21T12:49:48.000Z</time>
      </trkpt>
      <trkpt lat="44.09515" lon="7.01056">
        <ele>1531.5999755859</ele>
        <time>2022-07-21T12:49:50.000Z</time>
      </trkpt>
      <trkpt lat="44.09517" lon="7.01059">
        <ele>1532.4000244141</ele>
        <time>2022-07-21T12:49:51.000Z</time>
      </trkpt>
      <trkpt lat="44.09519" lon="7.01062">
        <ele>1533</ele>
        <time>2022-07-21T12:49:52.000Z</time>
      </trkpt>
      <trkpt lat="44.09523" lon="7.01067">
        <ele>1534.5999755859</ele>
        <time>2022-07-21T12:49:54.000Z</time>
      </trkpt>
      <trkpt lat="44.09526" lon="7.01074">
        <ele>1536.1999511719</ele>
        <time>2022-07-21T12:49:56.000Z</time>
      </trkpt>
      <trkpt lat="44.09528" lon="7.01077">
        <ele>1537.1999511719</ele>
        <time>2022-07-21T12:49:57.000Z</time>
      </trkpt>
      <trkpt lat="44.09531" lon="7.01082">
        <ele>1538.8000488281</ele>
        <time>2022-07-21T12:49:59.000Z</time>
      </trkpt>
      <trkpt lat="44.09535" lon="7.01085">
        <ele>1540.4000244141</ele>
        <time>2022-07-21T12:50:01.000Z</time>
      </trkpt>
      <trkpt lat="44.09537" lon="7.01087">
        <ele>1541</ele>
        <time>2022-07-21T12:50:02.000Z</time>
      </trkpt>
      <trkpt lat="44.09539" lon="7.01089">
        <ele>1541.8000488281</ele>
        <time>2022-07-21T12:50:03.000Z</time>
      </trkpt>
      <trkpt lat="44.09542" lon="7.01095">
        <ele>1543.1999511719</ele>
        <time>2022-07-21T12:50:05.000Z</time>
      </trkpt>
      <trkpt lat="44.09543" lon="7.01101">
        <ele>1544.5999755859</ele>
        <time>2022-07-21T12:50:07.000Z</time>
      </trkpt>
      <trkpt lat="44.09545" lon="7.01107">
        <ele>1546</ele>
        <time>2022-07-21T12:50:09.000Z</time>
      </trkpt>
      <trkpt lat="44.09548" lon="7.01113">
        <ele>1547.5999755859</ele>
        <time>2022-07-21T12:50:11.000Z</time>
      </trkpt>
      <trkpt lat="44.09548" lon="7.01116">
        <ele>1548.5999755859</ele>
        <time>2022-07-21T12:50:12.000Z</time>
      </trkpt>
      <trkpt lat="44.09549" lon="7.01119">
        <ele>1549</ele>
        <time>2022-07-21T12:50:13.000Z</time>
      </trkpt>
      <trkpt lat="44.09552" lon="7.01128">
        <ele>1550.5999755859</ele>
        <time>2022-07-21T12:50:16.000Z</time>
      </trkpt>
      <trkpt lat="44.09554" lon="7.01135">
        <ele>1551.5999755859</ele>
        <time>2022-07-21T12:50:18.000Z</time>
      </trkpt>
      <trkpt lat="44.09555" lon="7.01142">
        <ele>1552.8000488281</ele>
        <time>2022-07-21T12:50:20.000Z</time>
      </trkpt>
      <trkpt lat="44.09557" lon="7.01149">
        <ele>1554</ele>
        <time>2022-07-21T12:50:22.000Z</time>
      </trkpt>
      <trkpt lat="44.09559" lon="7.01152">
        <ele>1554.4000244141</ele>
        <time>2022-07-21T12:50:23.000Z</time>
      </trkpt>
      <trkpt lat="44.0956" lon="7.01155">
        <ele>1555.1999511719</ele>
        <time>2022-07-21T12:50:24.000Z</time>
      </trkpt>
      <trkpt lat="44.09561" lon="7.01162">
        <ele>1556.5999755859</ele>
        <time>2022-07-21T12:50:26.000Z</time>
      </trkpt>
      <trkpt lat="44.09564" lon="7.0117">
        <ele>1558</ele>
        <time>2022-07-21T12:50:28.000Z</time>
      </trkpt>
      <trkpt lat="44.09566" lon="7.01177">
        <ele>1559.1999511719</ele>
        <time>2022-07-21T12:50:30.000Z</time>
      </trkpt>
      <trkpt lat="44.09569" lon="7.01184">
        <ele>1560.4000244141</ele>
        <time>2022-07-21T12:50:32.000Z</time>
      </trkpt>
      <trkpt lat="44.09572" lon="7.01192">
        <ele>1561.5999755859</ele>
        <time>2022-07-21T12:50:34.000Z</time>
      </trkpt>
      <trkpt lat="44.09574" lon="7.01198">
        <ele>1562.5999755859</ele>
        <time>2022-07-21T12:50:36.000Z</time>
      </trkpt>
      <trkpt lat="44.09578" lon="7.01204">
        <ele>1564</ele>
        <time>2022-07-21T12:50:38.000Z</time>
      </trkpt>
      <trkpt lat="44.09582" lon="7.0121">
        <ele>1565.1999511719</ele>
        <time>2022-07-21T12:50:40.000Z</time>
      </trkpt>
      <trkpt lat="44.09585" lon="7.01216">
        <ele>1566.5999755859</ele>
        <time>2022-07-21T12:50:42.000Z</time>
      </trkpt>
      <trkpt lat="44.09589" lon="7.01221">
        <ele>1568</ele>
        <time>2022-07-21T12:50:44.000Z</time>
      </trkpt>
      <trkpt lat="44.0959" lon="7.01224">
        <ele>1568.8000488281</ele>
        <time>2022-07-21T12:50:45.000Z</time>
      </trkpt>
      <trkpt lat="44.09591" lon="7.01226">
        <ele>1569.5999755859</ele>
        <time>2022-07-21T12:50:46.000Z</time>
      </trkpt>
      <trkpt lat="44.09592" lon="7.01229">
        <ele>1570.4000244141</ele>
        <time>2022-07-21T12:50:47.000Z</time>
      </trkpt>
      <trkpt lat="44.09594" lon="7.01232">
        <ele>1571</ele>
        <time>2022-07-21T12:50:48.000Z</time>
      </trkpt>
      <trkpt lat="44.09597" lon="7.01238">
        <ele>1572.4000244141</ele>
        <time>2022-07-21T12:50:50.000Z</time>
      </trkpt>
      <trkpt lat="44.096" lon="7.01244">
        <ele>1573.8000488281</ele>
        <time>2022-07-21T12:50:52.000Z</time>
      </trkpt>
      <trkpt lat="44.09601" lon="7.01247">
        <ele>1574.4000244141</ele>
        <time>2022-07-21T12:50:53.000Z</time>
      </trkpt>
      <trkpt lat="44.09602" lon="7.0125">
        <ele>1575.1999511719</ele>
        <time>2022-07-21T12:50:54.000Z</time>
      </trkpt>
      <trkpt lat="44.09607" lon="7.01263">
        <ele>1576.4000244141</ele>
        <time>2022-07-21T12:50:58.000Z</time>
      </trkpt>
      <trkpt lat="44.09613" lon="7.01275">
        <ele>1577.4000244141</ele>
        <time>2022-07-21T12:51:02.000Z</time>
      </trkpt>
      <trkpt lat="44.09617" lon="7.01281">
        <ele>1578.1999511719</ele>
        <time>2022-07-21T12:51:04.000Z</time>
      </trkpt>
      <trkpt lat="44.0962" lon="7.01286">
        <ele>1578.5999755859</ele>
        <time>2022-07-21T12:51:06.000Z</time>
      </trkpt>
      <trkpt lat="44.09629" lon="7.01301">
        <ele>1579.5999755859</ele>
        <time>2022-07-21T12:51:11.000Z</time>
      </trkpt>
      <trkpt lat="44.09631" lon="7.01304">
        <ele>1580</ele>
        <time>2022-07-21T12:51:12.000Z</time>
      </trkpt>
      <trkpt lat="44.09639" lon="7.01315">
        <ele>1580.5999755859</ele>
        <time>2022-07-21T12:51:16.000Z</time>
      </trkpt>
      <trkpt lat="44.09643" lon="7.01321">
        <ele>1581</ele>
        <time>2022-07-21T12:51:18.000Z</time>
      </trkpt>
      <trkpt lat="44.09647" lon="7.01327">
        <ele>1581.8000488281</ele>
        <time>2022-07-21T12:51:21.000Z</time>
      </trkpt>
      <trkpt lat="44.09647" lon="7.0133">
        <ele>1582</ele>
        <time>2022-07-21T12:51:22.000Z</time>
      </trkpt>
      <trkpt lat="44.09652" lon="7.01337">
        <ele>1582.4000244141</ele>
        <time>2022-07-21T12:51:25.000Z</time>
      </trkpt>
      <trkpt lat="44.09653" lon="7.0134">
        <ele>1582.5999755859</ele>
        <time>2022-07-21T12:51:26.000Z</time>
      </trkpt>
      <trkpt lat="44.09656" lon="7.01349">
        <ele>1583</ele>
        <time>2022-07-21T12:51:29.000Z</time>
      </trkpt>
      <trkpt lat="44.09659" lon="7.01359">
        <ele>1583.4000244141</ele>
        <time>2022-07-21T12:51:32.000Z</time>
      </trkpt>
      <trkpt lat="44.09662" lon="7.01369">
        <ele>1584.1999511719</ele>
        <time>2022-07-21T12:51:35.000Z</time>
      </trkpt>
      <trkpt lat="44.09667" lon="7.01383">
        <ele>1585</ele>
        <time>2022-07-21T12:51:39.000Z</time>
      </trkpt>
      <trkpt lat="44.09668" lon="7.01386">
        <ele>1585.4000244141</ele>
        <time>2022-07-21T12:51:40.000Z</time>
      </trkpt>
      <trkpt lat="44.09669" lon="7.01388">
        <ele>1585.5999755859</ele>
        <time>2022-07-21T12:51:41.000Z</time>
      </trkpt>
      <trkpt lat="44.09671" lon="7.01397">
        <ele>1586.1999511719</ele>
        <time>2022-07-21T12:51:44.000Z</time>
      </trkpt>
      <trkpt lat="44.09672" lon="7.014">
        <ele>1586.4000244141</ele>
        <time>2022-07-21T12:51:45.000Z</time>
      </trkpt>
      <trkpt lat="44.0968" lon="7.01416">
        <ele>1587</ele>
        <time>2022-07-21T12:51:50.000Z</time>
      </trkpt>
      <trkpt lat="44.09684" lon="7.01426">
        <ele>1587</ele>
        <time>2022-07-21T12:51:54.000Z</time>
      </trkpt>
      <trkpt lat="44.09685" lon="7.0143">
        <ele>1587.4000244141</ele>
        <time>2022-07-21T12:51:56.000Z</time>
      </trkpt>
      <trkpt lat="44.09684" lon="7.01437">
        <ele>1588.1999511719</ele>
        <time>2022-07-21T12:51:58.000Z</time>
      </trkpt>
      <trkpt lat="44.09683" lon="7.01441">
        <ele>1588.4000244141</ele>
        <time>2022-07-21T12:51:59.000Z</time>
      </trkpt>
      <trkpt lat="44.09684" lon="7.01459">
        <ele>1588.8000488281</ele>
        <time>2022-07-21T12:52:03.000Z</time>
      </trkpt>
      <trkpt lat="44.09687" lon="7.01482">
        <ele>1589.1999511719</ele>
        <time>2022-07-21T12:52:08.000Z</time>
      </trkpt>
      <trkpt lat="44.09687" lon="7.01486">
        <ele>1589.5999755859</ele>
        <time>2022-07-21T12:52:09.000Z</time>
      </trkpt>
      <trkpt lat="44.0969" lon="7.01497">
        <ele>1590.4000244141</ele>
        <time>2022-07-21T12:52:12.000Z</time>
      </trkpt>
      <trkpt lat="44.09691" lon="7.01501">
        <ele>1590.8000488281</ele>
        <time>2022-07-21T12:52:13.000Z</time>
      </trkpt>
      <trkpt lat="44.09694" lon="7.01517">
        <ele>1592</ele>
        <time>2022-07-21T12:52:17.000Z</time>
      </trkpt>
      <trkpt lat="44.09695" lon="7.01521">
        <ele>1592.1999511719</ele>
        <time>2022-07-21T12:52:18.000Z</time>
      </trkpt>
      <trkpt lat="44.09698" lon="7.01532">
        <ele>1593</ele>
        <time>2022-07-21T12:52:21.000Z</time>
      </trkpt>
      <trkpt lat="44.09702" lon="7.01543">
        <ele>1593.5999755859</ele>
        <time>2022-07-21T12:52:24.000Z</time>
      </trkpt>
      <trkpt lat="44.09705" lon="7.01549">
        <ele>1594.1999511719</ele>
        <time>2022-07-21T12:52:26.000Z</time>
      </trkpt>
      <trkpt lat="44.0971" lon="7.0156">
        <ele>1595</ele>
        <time>2022-07-21T12:52:29.000Z</time>
      </trkpt>
      <trkpt lat="44.09711" lon="7.01564">
        <ele>1595.4000244141</ele>
        <time>2022-07-21T12:52:30.000Z</time>
      </trkpt>
      <trkpt lat="44.09714" lon="7.01578">
        <ele>1596</ele>
        <time>2022-07-21T12:52:34.000Z</time>
      </trkpt>
      <trkpt lat="44.09716" lon="7.01585">
        <ele>1596.8000488281</ele>
        <time>2022-07-21T12:52:36.000Z</time>
      </trkpt>
      <trkpt lat="44.0972" lon="7.01599">
        <ele>1597.8000488281</ele>
        <time>2022-07-21T12:52:40.000Z</time>
      </trkpt>
      <trkpt lat="44.09721" lon="7.01602">
        <ele>1598</ele>
        <time>2022-07-21T12:52:41.000Z</time>
      </trkpt>
      <trkpt lat="44.09725" lon="7.01617">
        <ele>1598.8000488281</ele>
        <time>2022-07-21T12:52:45.000Z</time>
      </trkpt>
      <trkpt lat="44.09729" lon="7.01627">
        <ele>1599.5999755859</ele>
        <time>2022-07-21T12:52:48.000Z</time>
      </trkpt>
      <trkpt lat="44.0973" lon="7.0163">
        <ele>1600.1999511719</ele>
        <time>2022-07-21T12:52:49.000Z</time>
      </trkpt>
      <trkpt lat="44.09734" lon="7.01641">
        <ele>1601</ele>
        <time>2022-07-21T12:52:53.000Z</time>
      </trkpt>
      <trkpt lat="44.09735" lon="7.01644">
        <ele>1601.1999511719</ele>
        <time>2022-07-21T12:52:54.000Z</time>
      </trkpt>
      <trkpt lat="44.09739" lon="7.01658">
        <ele>1602.1999511719</ele>
        <time>2022-07-21T12:52:58.000Z</time>
      </trkpt>
      <trkpt lat="44.0974" lon="7.01661">
        <ele>1602.4000244141</ele>
        <time>2022-07-21T12:52:59.000Z</time>
      </trkpt>
      <trkpt lat="44.09743" lon="7.01673">
        <ele>1602.8000488281</ele>
        <time>2022-07-21T12:53:02.000Z</time>
      </trkpt>
      <trkpt lat="44.09746" lon="7.01685">
        <ele>1603.4000244141</ele>
        <time>2022-07-21T12:53:05.000Z</time>
      </trkpt>
      <trkpt lat="44.09751" lon="7.01694">
        <ele>1604.5999755859</ele>
        <time>2022-07-21T12:53:08.000Z</time>
      </trkpt>
      <trkpt lat="44.09759" lon="7.01703">
        <ele>1605.8000488281</ele>
        <time>2022-07-21T12:53:12.000Z</time>
      </trkpt>
      <trkpt lat="44.09762" lon="7.01704">
        <ele>1606</ele>
        <time>2022-07-21T12:53:13.000Z</time>
      </trkpt>
      <trkpt lat="44.09777" lon="7.01711">
        <ele>1606.8000488281</ele>
        <time>2022-07-21T12:53:19.000Z</time>
      </trkpt>
      <trkpt lat="44.09786" lon="7.01714">
        <ele>1608</ele>
        <time>2022-07-21T12:53:22.000Z</time>
      </trkpt>
      <trkpt lat="44.0979" lon="7.01716">
        <ele>1608.4000244141</ele>
        <time>2022-07-21T12:53:24.000Z</time>
      </trkpt>
      <trkpt lat="44.09794" lon="7.0172">
        <ele>1609</ele>
        <time>2022-07-21T12:53:27.000Z</time>
      </trkpt>
      <trkpt lat="44.09798" lon="7.01724">
        <ele>1609.5999755859</ele>
        <time>2022-07-21T12:53:30.000Z</time>
      </trkpt>
      <trkpt lat="44.09806" lon="7.01729">
        <ele>1610.1999511719</ele>
        <time>2022-07-21T12:53:35.000Z</time>
      </trkpt>
      <trkpt lat="44.09807" lon="7.01729">
        <ele>1610.1999511719</ele>
        <time>2022-07-21T12:53:36.000Z</time>
      </trkpt>
      <trkpt lat="44.09809" lon="7.01734">
        <ele>1610.1999511719</ele>
        <time>2022-07-21T12:53:39.000Z</time>
      </trkpt>
      <trkpt lat="44.0981" lon="7.0174">
        <ele>1610</ele>
        <time>2022-07-21T12:53:41.000Z</time>
      </trkpt>
      <trkpt lat="44.09811" lon="7.01743">
        <ele>1609.5999755859</ele>
        <time>2022-07-21T12:53:42.000Z</time>
      </trkpt>
      <trkpt lat="44.09812" lon="7.01745">
        <ele>1609.1999511719</ele>
        <time>2022-07-21T12:53:43.000Z</time>
      </trkpt>
      <trkpt lat="44.09813" lon="7.01747">
        <ele>1608.8000488281</ele>
        <time>2022-07-21T12:53:44.000Z</time>
      </trkpt>
      <trkpt lat="44.09814" lon="7.01752">
        <ele>1608</ele>
        <time>2022-07-21T12:53:46.000Z</time>
      </trkpt>
      <trkpt lat="44.09815" lon="7.01757">
        <ele>1607.1999511719</ele>
        <time>2022-07-21T12:53:48.000Z</time>
      </trkpt>
      <trkpt lat="44.09816" lon="7.01761">
        <ele>1606.5999755859</ele>
        <time>2022-07-21T12:53:50.000Z</time>
      </trkpt>
      <trkpt lat="44.09821" lon="7.01769">
        <ele>1606.4000244141</ele>
        <time>2022-07-21T12:53:53.000Z</time>
      </trkpt>
      <trkpt lat="44.09825" lon="7.0178">
        <ele>1607</ele>
        <time>2022-07-21T12:53:57.000Z</time>
      </trkpt>
      <trkpt lat="44.0983" lon="7.01784">
        <ele>1606.5999755859</ele>
        <time>2022-07-21T12:54:01.000Z</time>
      </trkpt>
      <trkpt lat="44.09831" lon="7.01786">
        <ele>1606.8000488281</ele>
        <time>2022-07-21T12:54:02.000Z</time>
      </trkpt>
      <trkpt lat="44.09833" lon="7.01788">
        <ele>1606.8000488281</ele>
        <time>2022-07-21T12:54:03.000Z</time>
      </trkpt>
      <trkpt lat="44.09839" lon="7.01791">
        <ele>1607.1999511719</ele>
        <time>2022-07-21T12:54:06.000Z</time>
      </trkpt>
      <trkpt lat="44.09848" lon="7.01798">
        <ele>1608</ele>
        <time>2022-07-21T12:54:10.000Z</time>
      </trkpt>
      <trkpt lat="44.0985" lon="7.018">
        <ele>1608</ele>
        <time>2022-07-21T12:54:11.000Z</time>
      </trkpt>
      <trkpt lat="44.09859" lon="7.01805">
        <ele>1609</ele>
        <time>2022-07-21T12:54:15.000Z</time>
      </trkpt>
      <trkpt lat="44.09862" lon="7.01806">
        <ele>1609.1999511719</ele>
        <time>2022-07-21T12:54:16.000Z</time>
      </trkpt>
      <trkpt lat="44.09869" lon="7.0181">
        <ele>1610</ele>
        <time>2022-07-21T12:54:19.000Z</time>
      </trkpt>
      <trkpt lat="44.09875" lon="7.01814">
        <ele>1610.5999755859</ele>
        <time>2022-07-21T12:54:22.000Z</time>
      </trkpt>
      <trkpt lat="44.09877" lon="7.01815">
        <ele>1610.5999755859</ele>
        <time>2022-07-21T12:54:23.000Z</time>
      </trkpt>
      <trkpt lat="44.09883" lon="7.01815">
        <ele>1611</ele>
        <time>2022-07-21T12:54:26.000Z</time>
      </trkpt>
      <trkpt lat="44.09885" lon="7.01816">
        <ele>1611.1999511719</ele>
        <time>2022-07-21T12:54:27.000Z</time>
      </trkpt>
      <trkpt lat="44.09894" lon="7.01822">
        <ele>1612</ele>
        <time>2022-07-21T12:54:31.000Z</time>
      </trkpt>
      <trkpt lat="44.09897" lon="7.01823">
        <ele>1612.1999511719</ele>
        <time>2022-07-21T12:54:32.000Z</time>
      </trkpt>
      <trkpt lat="44.09902" lon="7.01826">
        <ele>1612.4000244141</ele>
        <time>2022-07-21T12:54:34.000Z</time>
      </trkpt>
      <trkpt lat="44.09916" lon="7.01832">
        <ele>1613.1999511719</ele>
        <time>2022-07-21T12:54:39.000Z</time>
      </trkpt>
      <trkpt lat="44.09921" lon="7.01834">
        <ele>1613.5999755859</ele>
        <time>2022-07-21T12:54:41.000Z</time>
      </trkpt>
      <trkpt lat="44.09932" lon="7.01835">
        <ele>1614.4000244141</ele>
        <time>2022-07-21T12:54:44.000Z</time>
      </trkpt>
      <trkpt lat="44.09935" lon="7.01836">
        <ele>1614.5999755859</ele>
        <time>2022-07-21T12:54:45.000Z</time>
      </trkpt>
      <trkpt lat="44.09946" lon="7.01844">
        <ele>1615.1999511719</ele>
        <time>2022-07-21T12:54:49.000Z</time>
      </trkpt>
      <trkpt lat="44.0995" lon="7.0185">
        <ele>1615.8000488281</ele>
        <time>2022-07-21T12:54:51.000Z</time>
      </trkpt>
      <trkpt lat="44.09952" lon="7.01853">
        <ele>1616.4000244141</ele>
        <time>2022-07-21T12:54:52.000Z</time>
      </trkpt>
      <trkpt lat="44.09957" lon="7.0186">
        <ele>1617</ele>
        <time>2022-07-21T12:54:55.000Z</time>
      </trkpt>
      <trkpt lat="44.09963" lon="7.01867">
        <ele>1618</ele>
        <time>2022-07-21T12:54:58.000Z</time>
      </trkpt>
      <trkpt lat="44.09968" lon="7.01874">
        <ele>1619.1999511719</ele>
        <time>2022-07-21T12:55:01.000Z</time>
      </trkpt>
      <trkpt lat="44.0997" lon="7.01877">
        <ele>1619.5999755859</ele>
        <time>2022-07-21T12:55:02.000Z</time>
      </trkpt>
      <trkpt lat="44.09981" lon="7.01887">
        <ele>1620.1999511719</ele>
        <time>2022-07-21T12:55:06.000Z</time>
      </trkpt>
      <trkpt lat="44.09985" lon="7.01891">
        <ele>1620.5999755859</ele>
        <time>2022-07-21T12:55:08.000Z</time>
      </trkpt>
      <trkpt lat="44.10002" lon="7.01901">
        <ele>1621.4000244141</ele>
        <time>2022-07-21T12:55:14.000Z</time>
      </trkpt>
      <trkpt lat="44.10018" lon="7.01908">
        <ele>1622</ele>
        <time>2022-07-21T12:55:20.000Z</time>
      </trkpt>
      <trkpt lat="44.10023" lon="7.01911">
        <ele>1622.4000244141</ele>
        <time>2022-07-21T12:55:22.000Z</time>
      </trkpt>
      <trkpt lat="44.10032" lon="7.0192">
        <ele>1623.4000244141</ele>
        <time>2022-07-21T12:55:26.000Z</time>
      </trkpt>
      <trkpt lat="44.10035" lon="7.01928">
        <ele>1623.5999755859</ele>
        <time>2022-07-21T12:55:28.000Z</time>
      </trkpt>
      <trkpt lat="44.10039" lon="7.01938">
        <ele>1624.1999511719</ele>
        <time>2022-07-21T12:55:31.000Z</time>
      </trkpt>
      <trkpt lat="44.1004" lon="7.01942">
        <ele>1624.5999755859</ele>
        <time>2022-07-21T12:55:32.000Z</time>
      </trkpt>
      <trkpt lat="44.10044" lon="7.01951">
        <ele>1625.8000488281</ele>
        <time>2022-07-21T12:55:35.000Z</time>
      </trkpt>
      <trkpt lat="44.1005" lon="7.0196">
        <ele>1626.4000244141</ele>
        <time>2022-07-21T12:55:38.000Z</time>
      </trkpt>
      <trkpt lat="44.10054" lon="7.01964">
        <ele>1626.8000488281</ele>
        <time>2022-07-21T12:55:40.000Z</time>
      </trkpt>
      <trkpt lat="44.10062" lon="7.01974">
        <ele>1628.1999511719</ele>
        <time>2022-07-21T12:55:44.000Z</time>
      </trkpt>
      <trkpt lat="44.10067" lon="7.01982">
        <ele>1629.4000244141</ele>
        <time>2022-07-21T12:55:47.000Z</time>
      </trkpt>
      <trkpt lat="44.10073" lon="7.01991">
        <ele>1630.4000244141</ele>
        <time>2022-07-21T12:55:50.000Z</time>
      </trkpt>
      <trkpt lat="44.10074" lon="7.01994">
        <ele>1630.5999755859</ele>
        <time>2022-07-21T12:55:51.000Z</time>
      </trkpt>
      <trkpt lat="44.10081" lon="7.02004">
        <ele>1631.4000244141</ele>
        <time>2022-07-21T12:55:54.000Z</time>
      </trkpt>
      <trkpt lat="44.10092" lon="7.02021">
        <ele>1632.5999755859</ele>
        <time>2022-07-21T12:55:59.000Z</time>
      </trkpt>
      <trkpt lat="44.10102" lon="7.02038">
        <ele>1633.5999755859</ele>
        <time>2022-07-21T12:56:04.000Z</time>
      </trkpt>
      <trkpt lat="44.10104" lon="7.02042">
        <ele>1633.8000488281</ele>
        <time>2022-07-21T12:56:05.000Z</time>
      </trkpt>
      <trkpt lat="44.10111" lon="7.02057">
        <ele>1635</ele>
        <time>2022-07-21T12:56:09.000Z</time>
      </trkpt>
      <trkpt lat="44.10118" lon="7.02069">
        <ele>1636.1999511719</ele>
        <time>2022-07-21T12:56:13.000Z</time>
      </trkpt>
      <trkpt lat="44.10126" lon="7.0208">
        <ele>1637.1999511719</ele>
        <time>2022-07-21T12:56:17.000Z</time>
      </trkpt>
      <trkpt lat="44.10133" lon="7.02088">
        <ele>1638</ele>
        <time>2022-07-21T12:56:20.000Z</time>
      </trkpt>
      <trkpt lat="44.10135" lon="7.0209">
        <ele>1638.1999511719</ele>
        <time>2022-07-21T12:56:21.000Z</time>
      </trkpt>
      <trkpt lat="44.10145" lon="7.02098">
        <ele>1639.1999511719</ele>
        <time>2022-07-21T12:56:25.000Z</time>
      </trkpt>
      <trkpt lat="44.10153" lon="7.02102">
        <ele>1640.1999511719</ele>
        <time>2022-07-21T12:56:28.000Z</time>
      </trkpt>
      <trkpt lat="44.10156" lon="7.02104">
        <ele>1640.5999755859</ele>
        <time>2022-07-21T12:56:29.000Z</time>
      </trkpt>
      <trkpt lat="44.10169" lon="7.02106">
        <ele>1641.8000488281</ele>
        <time>2022-07-21T12:56:34.000Z</time>
      </trkpt>
      <trkpt lat="44.10176" lon="7.02108">
        <ele>1643</ele>
        <time>2022-07-21T12:56:37.000Z</time>
      </trkpt>
      <trkpt lat="44.10183" lon="7.02109">
        <ele>1644</ele>
        <time>2022-07-21T12:56:40.000Z</time>
      </trkpt>
      <trkpt lat="44.10198" lon="7.02111">
        <ele>1645</ele>
        <time>2022-07-21T12:56:46.000Z</time>
      </trkpt>
      <trkpt lat="44.102" lon="7.02111">
        <ele>1645.4000244141</ele>
        <time>2022-07-21T12:56:47.000Z</time>
      </trkpt>
      <trkpt lat="44.10208" lon="7.0211">
        <ele>1646.1999511719</ele>
        <time>2022-07-21T12:56:51.000Z</time>
      </trkpt>
      <trkpt lat="44.10214" lon="7.02111">
        <ele>1647.1999511719</ele>
        <time>2022-07-21T12:56:54.000Z</time>
      </trkpt>
      <trkpt lat="44.10216" lon="7.02113">
        <ele>1647.4000244141</ele>
        <time>2022-07-21T12:56:55.000Z</time>
      </trkpt>
      <trkpt lat="44.10216" lon="7.02123">
        <ele>1647.4000244141</ele>
        <time>2022-07-21T12:56:57.000Z</time>
      </trkpt>
      <trkpt lat="44.10212" lon="7.02138">
        <ele>1646.1999511719</ele>
        <time>2022-07-21T12:57:01.000Z</time>
      </trkpt>
      <trkpt lat="44.10204" lon="7.02145">
        <ele>1646.1999511719</ele>
        <time>2022-07-21T12:57:06.000Z</time>
      </trkpt>
      <trkpt lat="44.10194" lon="7.02153">
        <ele>1646.4000244141</ele>
        <time>2022-07-21T12:57:12.000Z</time>
      </trkpt>
      <trkpt lat="44.10183" lon="7.02159">
        <ele>1647</ele>
        <time>2022-07-21T12:57:19.000Z</time>
      </trkpt>
      <trkpt lat="44.10181" lon="7.02159">
        <ele>1647.1999511719</ele>
        <time>2022-07-21T12:57:20.000Z</time>
      </trkpt>
      <trkpt lat="44.10178" lon="7.02159">
        <ele>1647.5999755859</ele>
        <time>2022-07-21T12:57:25.000Z</time>
      </trkpt>
      <trkpt lat="44.10178" lon="7.02158">
        <ele>1648.1999511719</ele>
        <time>2022-07-21T12:57:30.000Z</time>
      </trkpt>
      <trkpt lat="44.10178" lon="7.02157">
        <ele>1648.1999511719</ele>
        <time>2022-07-21T12:57:47.000Z</time>
      </trkpt>
      <trkpt lat="44.10177" lon="7.02156">
        <ele>1648.4000244141</ele>
        <time>2022-07-21T12:58:05.000Z</time>
      </trkpt>
      <trkpt lat="44.10177" lon="7.02155">
        <ele>1648.1999511719</ele>
        <time>2022-07-21T12:58:16.000Z</time>
      </trkpt>
      <trkpt lat="44.10176" lon="7.02155">
        <ele>1648</ele>
        <time>2022-07-21T12:58:30.000Z</time>
      </trkpt>
      <trkpt lat="44.10176" lon="7.02156">
        <ele>1647.8000488281</ele>
        <time>2022-07-21T12:58:41.000Z</time>
      </trkpt>
      <trkpt lat="44.10172" lon="7.02156">
        <ele>1647.8000488281</ele>
        <time>2022-07-21T12:58:46.000Z</time>
      </trkpt>
      <trkpt lat="44.1016" lon="7.0216">
        <ele>1648.4000244141</ele>
        <time>2022-07-21T12:58:51.000Z</time>
      </trkpt>
      <trkpt lat="44.10156" lon="7.02163">
        <ele>1649.1999511719</ele>
        <time>2022-07-21T12:58:53.000Z</time>
      </trkpt>
      <trkpt lat="44.1015" lon="7.02165">
        <ele>1650.4000244141</ele>
        <time>2022-07-21T12:58:56.000Z</time>
      </trkpt>
      <trkpt lat="44.10147" lon="7.02166">
        <ele>1651.1999511719</ele>
        <time>2022-07-21T12:58:57.000Z</time>
      </trkpt>
      <trkpt lat="44.10145" lon="7.02167">
        <ele>1651.4000244141</ele>
        <time>2022-07-21T12:58:58.000Z</time>
      </trkpt>
      <trkpt lat="44.10139" lon="7.02169">
        <ele>1653</ele>
        <time>2022-07-21T12:59:01.000Z</time>
      </trkpt>
      <trkpt lat="44.10134" lon="7.02171">
        <ele>1653.8000488281</ele>
        <time>2022-07-21T12:59:03.000Z</time>
      </trkpt>
      <trkpt lat="44.10132" lon="7.02172">
        <ele>1654.1999511719</ele>
        <time>2022-07-21T12:59:04.000Z</time>
      </trkpt>
      <trkpt lat="44.10127" lon="7.02179">
        <ele>1655.1999511719</ele>
        <time>2022-07-21T12:59:07.000Z</time>
      </trkpt>
      <trkpt lat="44.10125" lon="7.02185">
        <ele>1656.4000244141</ele>
        <time>2022-07-21T12:59:09.000Z</time>
      </trkpt>
      <trkpt lat="44.1012" lon="7.02196">
        <ele>1657.4000244141</ele>
        <time>2022-07-21T12:59:13.000Z</time>
      </trkpt>
      <trkpt lat="44.10113" lon="7.02211">
        <ele>1658.4000244141</ele>
        <time>2022-07-21T12:59:18.000Z</time>
      </trkpt>
      <trkpt lat="44.10111" lon="7.02213">
        <ele>1658.5999755859</ele>
        <time>2022-07-21T12:59:19.000Z</time>
      </trkpt>
      <trkpt lat="44.10099" lon="7.02224">
        <ele>1659.5999755859</ele>
        <time>2022-07-21T12:59:24.000Z</time>
      </trkpt>
      <trkpt lat="44.10093" lon="7.02229">
        <ele>1661</ele>
        <time>2022-07-21T12:59:27.000Z</time>
      </trkpt>
      <trkpt lat="44.1009" lon="7.02233">
        <ele>1662.1999511719</ele>
        <time>2022-07-21T12:59:29.000Z</time>
      </trkpt>
      <trkpt lat="44.10088" lon="7.02235">
        <ele>1662.8000488281</ele>
        <time>2022-07-21T12:59:30.000Z</time>
      </trkpt>
      <trkpt lat="44.10085" lon="7.02239">
        <ele>1663.5999755859</ele>
        <time>2022-07-21T12:59:32.000Z</time>
      </trkpt>
      <trkpt lat="44.10078" lon="7.02244">
        <ele>1664.5999755859</ele>
        <time>2022-07-21T12:59:36.000Z</time>
      </trkpt>
      <trkpt lat="44.10074" lon="7.02247">
        <ele>1665.4000244141</ele>
        <time>2022-07-21T12:59:38.000Z</time>
      </trkpt>
      <trkpt lat="44.10072" lon="7.02248">
        <ele>1665.8000488281</ele>
        <time>2022-07-21T12:59:39.000Z</time>
      </trkpt>
      <trkpt lat="44.10066" lon="7.02251">
        <ele>1666.8000488281</ele>
        <time>2022-07-21T12:59:42.000Z</time>
      </trkpt>
      <trkpt lat="44.10063" lon="7.02253">
        <ele>1667.4000244141</ele>
        <time>2022-07-21T12:59:44.000Z</time>
      </trkpt>
      <trkpt lat="44.10061" lon="7.02255">
        <ele>1667.8000488281</ele>
        <time>2022-07-21T12:59:45.000Z</time>
      </trkpt>
      <trkpt lat="44.10052" lon="7.0226">
        <ele>1669</ele>
        <time>2022-07-21T12:59:50.000Z</time>
      </trkpt>
      <trkpt lat="44.10048" lon="7.02262">
        <ele>1669.1999511719</ele>
        <time>2022-07-21T12:59:52.000Z</time>
      </trkpt>
      <trkpt lat="44.10039" lon="7.02263">
        <ele>1670</ele>
        <time>2022-07-21T12:59:56.000Z</time>
      </trkpt>
      <trkpt lat="44.10037" lon="7.02264">
        <ele>1670.1999511719</ele>
        <time>2022-07-21T12:59:57.000Z</time>
      </trkpt>
      <trkpt lat="44.10028" lon="7.02266">
        <ele>1671.1999511719</ele>
        <time>2022-07-21T13:00:01.000Z</time>
      </trkpt>
      <trkpt lat="44.10025" lon="7.02265">
        <ele>1671.5999755859</ele>
        <time>2022-07-21T13:00:02.000Z</time>
      </trkpt>
      <trkpt lat="44.1002" lon="7.02264">
        <ele>1672.4000244141</ele>
        <time>2022-07-21T13:00:04.000Z</time>
      </trkpt>
      <trkpt lat="44.10012" lon="7.0226">
        <ele>1673.1999511719</ele>
        <time>2022-07-21T13:00:08.000Z</time>
      </trkpt>
      <trkpt lat="44.1001" lon="7.02259">
        <ele>1673.4000244141</ele>
        <time>2022-07-21T13:00:09.000Z</time>
      </trkpt>
      <trkpt lat="44.10005" lon="7.02257">
        <ele>1674.8000488281</ele>
        <time>2022-07-21T13:00:12.000Z</time>
      </trkpt>
      <trkpt lat="44.10003" lon="7.02258">
        <ele>1676</ele>
        <time>2022-07-21T13:00:14.000Z</time>
      </trkpt>
      <trkpt lat="44.10002" lon="7.02259">
        <ele>1676.4000244141</ele>
        <time>2022-07-21T13:00:15.000Z</time>
      </trkpt>
      <trkpt lat="44.10004" lon="7.02262">
        <ele>1677.4000244141</ele>
        <time>2022-07-21T13:00:17.000Z</time>
      </trkpt>
      <trkpt lat="44.10006" lon="7.02264">
        <ele>1677.8000488281</ele>
        <time>2022-07-21T13:00:18.000Z</time>
      </trkpt>
      <trkpt lat="44.10007" lon="7.02265">
        <ele>1678</ele>
        <time>2022-07-21T13:00:19.000Z</time>
      </trkpt>
      <trkpt lat="44.10013" lon="7.02273">
        <ele>1678</ele>
        <time>2022-07-21T13:00:25.000Z</time>
      </trkpt>
      <trkpt lat="44.10014" lon="7.02278">
        <ele>1677.8000488281</ele>
        <time>2022-07-21T13:00:30.000Z</time>
      </trkpt>
      <trkpt lat="44.10021" lon="7.02283">
        <ele>1678.1999511719</ele>
        <time>2022-07-21T13:00:34.000Z</time>
      </trkpt>
      <trkpt lat="44.10026" lon="7.02284">
        <ele>1678</ele>
        <time>2022-07-21T13:00:38.000Z</time>
      </trkpt>
      <trkpt lat="44.10028" lon="7.02284">
        <ele>1678</ele>
        <time>2022-07-21T13:00:39.000Z</time>
      </trkpt>
      <trkpt lat="44.10031" lon="7.02286">
        <ele>1678</ele>
        <time>2022-07-21T13:00:45.000Z</time>
      </trkpt>
      <trkpt lat="44.10031" lon="7.02285">
        <ele>1678.1999511719</ele>
        <time>2022-07-21T13:00:51.000Z</time>
      </trkpt>
      <trkpt lat="44.10029" lon="7.02284">
        <ele>1677.5999755859</ele>
        <time>2022-07-21T13:00:56.000Z</time>
      </trkpt>
      <trkpt lat="44.10029" lon="7.02284">
        <ele>1678</ele>
        <time>2022-07-21T13:01:09.000Z</time>
      </trkpt>
      <trkpt lat="44.10029" lon="7.02284">
        <ele>1678.1999511719</ele>
        <time>2022-07-21T13:01:23.000Z</time>
      </trkpt>
      <trkpt lat="44.1003" lon="7.02285">
        <ele>1677.1999511719</ele>
        <time>2022-07-21T13:01:34.000Z</time>
      </trkpt>
      <trkpt lat="44.1003" lon="7.02285">
        <ele>1674</ele>
        <time>2022-07-21T13:01:35.000Z</time>
      </trkpt>
      <trkpt lat="44.1003" lon="7.02285">
        <ele>1676.5999755859</ele>
        <time>2022-07-21T13:01:36.000Z</time>
      </trkpt>
      <trkpt lat="44.10031" lon="7.02286">
        <ele>1677.1999511719</ele>
        <time>2022-07-21T13:01:45.000Z</time>
      </trkpt>
      <trkpt lat="44.10031" lon="7.02286">
        <ele>1677</ele>
        <time>2022-07-21T13:01:55.000Z</time>
      </trkpt>
      <trkpt lat="44.1003" lon="7.02287">
        <ele>1677.1999511719</ele>
        <time>2022-07-21T13:02:04.000Z</time>
      </trkpt>
      <trkpt lat="44.1003" lon="7.02287">
        <ele>1677</ele>
        <time>2022-07-21T13:02:20.000Z</time>
      </trkpt>
      <trkpt lat="44.1003" lon="7.02286">
        <ele>1677</ele>
        <time>2022-07-21T13:02:28.000Z</time>
      </trkpt>
      <trkpt lat="44.1003" lon="7.02287">
        <ele>1677.4000244141</ele>
        <time>2022-07-21T13:02:36.000Z</time>
      </trkpt>
      <trkpt lat="44.10029" lon="7.02287">
        <ele>1677</ele>
        <time>2022-07-21T13:02:50.000Z</time>
      </trkpt>
      <trkpt lat="44.10029" lon="7.02287">
        <ele>1678.8000488281</ele>
        <time>2022-07-21T13:03:01.000Z</time>
      </trkpt>
      <trkpt lat="44.10028" lon="7.02287">
        <ele>1684.1999511719</ele>
        <time>2022-07-21T13:03:02.000Z</time>
      </trkpt>
      <trkpt lat="44.10028" lon="7.02287">
        <ele>1680</ele>
        <time>2022-07-21T13:03:03.000Z</time>
      </trkpt>
      <trkpt lat="44.10027" lon="7.02286">
        <ele>1679.8000488281</ele>
        <time>2022-07-21T13:03:04.000Z</time>
      </trkpt>
      <trkpt lat="44.10024" lon="7.02283">
        <ele>1679.8000488281</ele>
        <time>2022-07-21T13:03:08.000Z</time>
      </trkpt>
      <trkpt lat="44.10023" lon="7.0228">
        <ele>1679</ele>
        <time>2022-07-21T13:03:15.000Z</time>
      </trkpt>
      <trkpt lat="44.10023" lon="7.0228">
        <ele>1678.8000488281</ele>
        <time>2022-07-21T13:03:20.000Z</time>
      </trkpt>
      <trkpt lat="44.10023" lon="7.0228">
        <ele>1678.4000244141</ele>
        <time>2022-07-21T13:03:27.000Z</time>
      </trkpt>
      <trkpt lat="44.10022" lon="7.0228">
        <ele>1678</ele>
        <time>2022-07-21T13:03:33.000Z</time>
      </trkpt>
      <trkpt lat="44.10022" lon="7.02281">
        <ele>1677.5999755859</ele>
        <time>2022-07-21T13:03:40.000Z</time>
      </trkpt>
      <trkpt lat="44.10023" lon="7.02281">
        <ele>1677.4000244141</ele>
        <time>2022-07-21T13:03:46.000Z</time>
      </trkpt>
      <trkpt lat="44.10022" lon="7.02279">
        <ele>1677.5999755859</ele>
        <time>2022-07-21T13:03:57.000Z</time>
      </trkpt>
      <trkpt lat="44.10023" lon="7.0228">
        <ele>1677.5999755859</ele>
        <time>2022-07-21T13:04:06.000Z</time>
      </trkpt>
      <trkpt lat="44.10023" lon="7.02279">
        <ele>1678.5999755859</ele>
        <time>2022-07-21T13:04:14.000Z</time>
      </trkpt>
      <trkpt lat="44.10023" lon="7.02279">
        <ele>1678.1999511719</ele>
        <time>2022-07-21T13:04:20.000Z</time>
      </trkpt>
      <trkpt lat="44.10023" lon="7.0228">
        <ele>1677.8000488281</ele>
        <time>2022-07-21T13:04:26.000Z</time>
      </trkpt>
      <trkpt lat="44.10023" lon="7.02279">
        <ele>1677.8000488281</ele>
        <time>2022-07-21T13:04:33.000Z</time>
      </trkpt>
      <trkpt lat="44.10022" lon="7.0228">
        <ele>1677.5999755859</ele>
        <time>2022-07-21T13:04:35.000Z</time>
      </trkpt>
      <trkpt lat="44.10023" lon="7.0228">
        <ele>1677.5999755859</ele>
        <time>2022-07-21T13:04:37.000Z</time>
      </trkpt>
      <trkpt lat="44.10023" lon="7.0228">
        <ele>1677.1999511719</ele>
        <time>2022-07-21T13:04:49.000Z</time>
      </trkpt>
      <trkpt lat="44.10024" lon="7.0228">
        <ele>1677.8000488281</ele>
        <time>2022-07-21T13:04:56.000Z</time>
      </trkpt>
      <trkpt lat="44.10024" lon="7.02281">
        <ele>1677.8000488281</ele>
        <time>2022-07-21T13:05:08.000Z</time>
      </trkpt>
      <trkpt lat="44.10024" lon="7.02281">
        <ele>1677.5999755859</ele>
        <time>2022-07-21T13:05:16.000Z</time>
      </trkpt>
      <trkpt lat="44.10023" lon="7.02281">
        <ele>1677</ele>
        <time>2022-07-21T13:05:33.000Z</time>
      </trkpt>
      <trkpt lat="44.10023" lon="7.02281">
        <ele>1677.8000488281</ele>
        <time>2022-07-21T13:05:43.000Z</time>
      </trkpt>
      <trkpt lat="44.10022" lon="7.02282">
        <ele>1677.5999755859</ele>
        <time>2022-07-21T13:05:49.000Z</time>
      </trkpt>
      <trkpt lat="44.10022" lon="7.02284">
        <ele>1677.4000244141</ele>
        <time>2022-07-21T13:05:57.000Z</time>
      </trkpt>
      <trkpt lat="44.10022" lon="7.02284">
        <ele>1677.4000244141</ele>
        <time>2022-07-21T13:06:03.000Z</time>
      </trkpt>
      <trkpt lat="44.10022" lon="7.02284">
        <ele>1677.5999755859</ele>
        <time>2022-07-21T13:06:15.000Z</time>
      </trkpt>
      <trkpt lat="44.10022" lon="7.02285">
        <ele>1677.5999755859</ele>
        <time>2022-07-21T13:06:31.000Z</time>
      </trkpt>
      <trkpt lat="44.10022" lon="7.02285">
        <ele>1677.8000488281</ele>
        <time>2022-07-21T13:06:45.000Z</time>
      </trkpt>
      <trkpt lat="44.10022" lon="7.02285">
        <ele>1678.1999511719</ele>
        <time>2022-07-21T13:07:00.000Z</time>
      </trkpt>
      <trkpt lat="44.10023" lon="7.02286">
        <ele>1678.4000244141</ele>
        <time>2022-07-21T13:07:08.000Z</time>
      </trkpt>
      <trkpt lat="44.10023" lon="7.02284">
        <ele>1678.4000244141</ele>
        <time>2022-07-21T13:07:14.000Z</time>
      </trkpt>
      <trkpt lat="44.10023" lon="7.02282">
        <ele>1678.4000244141</ele>
        <time>2022-07-21T13:07:15.000Z</time>
      </trkpt>
      <trkpt lat="44.10024" lon="7.02282">
        <ele>1678.1999511719</ele>
        <time>2022-07-21T13:07:17.000Z</time>
      </trkpt>
      <trkpt lat="44.10024" lon="7.02283">
        <ele>1678.1999511719</ele>
        <time>2022-07-21T13:07:18.000Z</time>
      </trkpt>
      <trkpt lat="44.10025" lon="7.02285">
        <ele>1678.1999511719</ele>
        <time>2022-07-21T13:07:20.000Z</time>
      </trkpt>
      <trkpt lat="44.10026" lon="7.02288">
        <ele>1678.1999511719</ele>
        <time>2022-07-21T13:07:24.000Z</time>
      </trkpt>
      <trkpt lat="44.10028" lon="7.02288">
        <ele>1678.1999511719</ele>
        <time>2022-07-21T13:07:32.000Z</time>
      </trkpt>
      <trkpt lat="44.10029" lon="7.02287">
        <ele>1678.5999755859</ele>
        <time>2022-07-21T13:07:43.000Z</time>
      </trkpt>
      <trkpt lat="44.10031" lon="7.02287">
        <ele>1678.5999755859</ele>
        <time>2022-07-21T13:07:50.000Z</time>
      </trkpt>
      <trkpt lat="44.10032" lon="7.02287">
        <ele>1678.5999755859</ele>
        <time>2022-07-21T13:07:55.000Z</time>
      </trkpt>
      <trkpt lat="44.10032" lon="7.02293">
        <ele>1678.1999511719</ele>
        <time>2022-07-21T13:07:58.000Z</time>
      </trkpt>
      <trkpt lat="44.10032" lon="7.02296">
        <ele>1678.1999511719</ele>
        <time>2022-07-21T13:07:59.000Z</time>
      </trkpt>
      <trkpt lat="44.10024" lon="7.02319">
        <ele>1677.8000488281</ele>
        <time>2022-07-21T13:08:06.000Z</time>
      </trkpt>
      <trkpt lat="44.10025" lon="7.02327">
        <ele>1677.5999755859</ele>
        <time>2022-07-21T13:08:08.000Z</time>
      </trkpt>
      <trkpt lat="44.10028" lon="7.02333">
        <ele>1677.1999511719</ele>
        <time>2022-07-21T13:08:10.000Z</time>
      </trkpt>
      <trkpt lat="44.10032" lon="7.02337">
        <ele>1676.8000488281</ele>
        <time>2022-07-21T13:08:12.000Z</time>
      </trkpt>
      <trkpt lat="44.10037" lon="7.02338">
        <ele>1677.1999511719</ele>
        <time>2022-07-21T13:08:15.000Z</time>
      </trkpt>
      <trkpt lat="44.10037" lon="7.02335">
        <ele>1677.8000488281</ele>
        <time>2022-07-21T13:08:17.000Z</time>
      </trkpt>
      <trkpt lat="44.10036" lon="7.02333">
        <ele>1678.1999511719</ele>
        <time>2022-07-21T13:08:18.000Z</time>
      </trkpt>
      <trkpt lat="44.10036" lon="7.0232">
        <ele>1678.8000488281</ele>
        <time>2022-07-21T13:08:23.000Z</time>
      </trkpt>
      <trkpt lat="44.10037" lon="7.02317">
        <ele>1679</ele>
        <time>2022-07-21T13:08:24.000Z</time>
      </trkpt>
      <trkpt lat="44.10042" lon="7.02311">
        <ele>1679.8000488281</ele>
        <time>2022-07-21T13:08:27.000Z</time>
      </trkpt>
      <trkpt lat="44.10044" lon="7.02309">
        <ele>1680.1999511719</ele>
        <time>2022-07-21T13:08:28.000Z</time>
      </trkpt>
      <trkpt lat="44.10051" lon="7.02306">
        <ele>1681.4000244141</ele>
        <time>2022-07-21T13:08:31.000Z</time>
      </trkpt>
      <trkpt lat="44.10054" lon="7.02305">
        <ele>1681.8000488281</ele>
        <time>2022-07-21T13:08:32.000Z</time>
      </trkpt>
      <trkpt lat="44.10058" lon="7.02306">
        <ele>1682.5999755859</ele>
        <time>2022-07-21T13:08:34.000Z</time>
      </trkpt>
      <trkpt lat="44.10064" lon="7.02309">
        <ele>1683.4000244141</ele>
        <time>2022-07-21T13:08:37.000Z</time>
      </trkpt>
      <trkpt lat="44.10066" lon="7.02309">
        <ele>1683.8000488281</ele>
        <time>2022-07-21T13:08:38.000Z</time>
      </trkpt>
      <trkpt lat="44.10078" lon="7.02315">
        <ele>1684.5999755859</ele>
        <time>2022-07-21T13:08:44.000Z</time>
      </trkpt>
      <trkpt lat="44.1008" lon="7.02316">
        <ele>1684.8000488281</ele>
        <time>2022-07-21T13:08:45.000Z</time>
      </trkpt>
      <trkpt lat="44.10088" lon="7.02318">
        <ele>1686</ele>
        <time>2022-07-21T13:08:49.000Z</time>
      </trkpt>
      <trkpt lat="44.10095" lon="7.02316">
        <ele>1687</ele>
        <time>2022-07-21T13:08:52.000Z</time>
      </trkpt>
      <trkpt lat="44.10097" lon="7.02315">
        <ele>1687.1999511719</ele>
        <time>2022-07-21T13:08:53.000Z</time>
      </trkpt>
      <trkpt lat="44.10119" lon="7.02314">
        <ele>1688.4000244141</ele>
        <time>2022-07-21T13:09:02.000Z</time>
      </trkpt>
      <trkpt lat="44.10133" lon="7.02312">
        <ele>1689.4000244141</ele>
        <time>2022-07-21T13:09:08.000Z</time>
      </trkpt>
      <trkpt lat="44.10141" lon="7.02308">
        <ele>1690.5999755859</ele>
        <time>2022-07-21T13:09:12.000Z</time>
      </trkpt>
      <trkpt lat="44.10144" lon="7.02305">
        <ele>1691.4000244141</ele>
        <time>2022-07-21T13:09:14.000Z</time>
      </trkpt>
      <trkpt lat="44.1015" lon="7.02303">
        <ele>1691.8000488281</ele>
        <time>2022-07-21T13:09:17.000Z</time>
      </trkpt>
      <trkpt lat="44.10155" lon="7.02302">
        <ele>1692.1999511719</ele>
        <time>2022-07-21T13:09:19.000Z</time>
      </trkpt>
      <trkpt lat="44.10159" lon="7.02302">
        <ele>1693</ele>
        <time>2022-07-21T13:09:21.000Z</time>
      </trkpt>
      <trkpt lat="44.10166" lon="7.02297">
        <ele>1694</ele>
        <time>2022-07-21T13:09:24.000Z</time>
      </trkpt>
      <trkpt lat="44.10169" lon="7.02296">
        <ele>1694.4000244141</ele>
        <time>2022-07-21T13:09:25.000Z</time>
      </trkpt>
      <trkpt lat="44.10173" lon="7.02295">
        <ele>1695.4000244141</ele>
        <time>2022-07-21T13:09:27.000Z</time>
      </trkpt>
      <trkpt lat="44.10181" lon="7.02295">
        <ele>1696.8000488281</ele>
        <time>2022-07-21T13:09:30.000Z</time>
      </trkpt>
      <trkpt lat="44.10185" lon="7.02297">
        <ele>1697.5999755859</ele>
        <time>2022-07-21T13:09:32.000Z</time>
      </trkpt>
      <trkpt lat="44.10187" lon="7.02298">
        <ele>1697.8000488281</ele>
        <time>2022-07-21T13:09:33.000Z</time>
      </trkpt>
      <trkpt lat="44.10195" lon="7.023">
        <ele>1699.1999511719</ele>
        <time>2022-07-21T13:09:37.000Z</time>
      </trkpt>
      <trkpt lat="44.10197" lon="7.02301">
        <ele>1699.4000244141</ele>
        <time>2022-07-21T13:09:38.000Z</time>
      </trkpt>
      <trkpt lat="44.10203" lon="7.02303">
        <ele>1700.1999511719</ele>
        <time>2022-07-21T13:09:41.000Z</time>
      </trkpt>
      <trkpt lat="44.10206" lon="7.02304">
        <ele>1701</ele>
        <time>2022-07-21T13:09:43.000Z</time>
      </trkpt>
      <trkpt lat="44.10208" lon="7.02304">
        <ele>1701.4000244141</ele>
        <time>2022-07-21T13:09:44.000Z</time>
      </trkpt>
      <trkpt lat="44.10217" lon="7.02308">
        <ele>1702.4000244141</ele>
        <time>2022-07-21T13:09:49.000Z</time>
      </trkpt>
      <trkpt lat="44.1023" lon="7.02317">
        <ele>1703.5999755859</ele>
        <time>2022-07-21T13:09:56.000Z</time>
      </trkpt>
      <trkpt lat="44.10232" lon="7.02319">
        <ele>1703.5999755859</ele>
        <time>2022-07-21T13:09:57.000Z</time>
      </trkpt>
      <trkpt lat="44.10239" lon="7.02325">
        <ele>1704.8000488281</ele>
        <time>2022-07-21T13:10:01.000Z</time>
      </trkpt>
      <trkpt lat="44.10245" lon="7.02331">
        <ele>1706</ele>
        <time>2022-07-21T13:10:04.000Z</time>
      </trkpt>
      <trkpt lat="44.10253" lon="7.02338">
        <ele>1707.1999511719</ele>
        <time>2022-07-21T13:10:08.000Z</time>
      </trkpt>
      <trkpt lat="44.10263" lon="7.02347">
        <ele>1708.4000244141</ele>
        <time>2022-07-21T13:10:13.000Z</time>
      </trkpt>
      <trkpt lat="44.10265" lon="7.02348">
        <ele>1708.5999755859</ele>
        <time>2022-07-21T13:10:14.000Z</time>
      </trkpt>
      <trkpt lat="44.10275" lon="7.02356">
        <ele>1709.5999755859</ele>
        <time>2022-07-21T13:10:19.000Z</time>
      </trkpt>
      <trkpt lat="44.10277" lon="7.02357">
        <ele>1709.8000488281</ele>
        <time>2022-07-21T13:10:20.000Z</time>
      </trkpt>
      <trkpt lat="44.10291" lon="7.02368">
        <ele>1710.4000244141</ele>
        <time>2022-07-21T13:10:26.000Z</time>
      </trkpt>
      <trkpt lat="44.10296" lon="7.02373">
        <ele>1710.8000488281</ele>
        <time>2022-07-21T13:10:28.000Z</time>
      </trkpt>
      <trkpt lat="44.10306" lon="7.0238">
        <ele>1711.8000488281</ele>
        <time>2022-07-21T13:10:32.000Z</time>
      </trkpt>
      <trkpt lat="44.10319" lon="7.02396">
        <ele>1712.8000488281</ele>
        <time>2022-07-21T13:10:38.000Z</time>
      </trkpt>
      <trkpt lat="44.10325" lon="7.02406">
        <ele>1714</ele>
        <time>2022-07-21T13:10:42.000Z</time>
      </trkpt>
      <trkpt lat="44.10328" lon="7.02409">
        <ele>1714.4000244141</ele>
        <time>2022-07-21T13:10:44.000Z</time>
      </trkpt>
      <trkpt lat="44.10333" lon="7.02416">
        <ele>1715.4000244141</ele>
        <time>2022-07-21T13:10:47.000Z</time>
      </trkpt>
      <trkpt lat="44.10336" lon="7.02422">
        <ele>1716</ele>
        <time>2022-07-21T13:10:49.000Z</time>
      </trkpt>
      <trkpt lat="44.10338" lon="7.02427">
        <ele>1716.4000244141</ele>
        <time>2022-07-21T13:10:51.000Z</time>
      </trkpt>
      <trkpt lat="44.10344" lon="7.02435">
        <ele>1717.8000488281</ele>
        <time>2022-07-21T13:10:55.000Z</time>
      </trkpt>
      <trkpt lat="44.10345" lon="7.02436">
        <ele>1718</ele>
        <time>2022-07-21T13:10:56.000Z</time>
      </trkpt>
      <trkpt lat="44.10354" lon="7.02446">
        <ele>1718.8000488281</ele>
        <time>2022-07-21T13:11:01.000Z</time>
      </trkpt>
      <trkpt lat="44.10355" lon="7.02449">
        <ele>1718.8000488281</ele>
        <time>2022-07-21T13:11:02.000Z</time>
      </trkpt>
      <trkpt lat="44.10366" lon="7.02468">
        <ele>1718.8000488281</ele>
        <time>2022-07-21T13:11:10.000Z</time>
      </trkpt>
      <trkpt lat="44.10372" lon="7.02484">
        <ele>1719.1999511719</ele>
        <time>2022-07-21T13:11:17.000Z</time>
      </trkpt>
      <trkpt lat="44.1038" lon="7.02503">
        <ele>1719.5999755859</ele>
        <time>2022-07-21T13:11:23.000Z</time>
      </trkpt>
      <trkpt lat="44.10384" lon="7.02528">
        <ele>1719</ele>
        <time>2022-07-21T13:11:29.000Z</time>
      </trkpt>
      <trkpt lat="44.1039" lon="7.02561">
        <ele>1718.8000488281</ele>
        <time>2022-07-21T13:11:37.000Z</time>
      </trkpt>
      <trkpt lat="44.10404" lon="7.02594">
        <ele>1719.8000488281</ele>
        <time>2022-07-21T13:11:46.000Z</time>
      </trkpt>
      <trkpt lat="44.10415" lon="7.02606">
        <ele>1721</ele>
        <time>2022-07-21T13:11:50.000Z</time>
      </trkpt>
      <trkpt lat="44.10424" lon="7.02611">
        <ele>1722.1999511719</ele>
        <time>2022-07-21T13:11:53.000Z</time>
      </trkpt>
      <trkpt lat="44.10427" lon="7.02612">
        <ele>1722.5999755859</ele>
        <time>2022-07-21T13:11:54.000Z</time>
      </trkpt>
      <trkpt lat="44.10433" lon="7.02615">
        <ele>1723.4000244141</ele>
        <time>2022-07-21T13:11:56.000Z</time>
      </trkpt>
      <trkpt lat="44.10445" lon="7.02619">
        <ele>1724.4000244141</ele>
        <time>2022-07-21T13:12:00.000Z</time>
      </trkpt>
      <trkpt lat="44.10454" lon="7.0262">
        <ele>1725.1999511719</ele>
        <time>2022-07-21T13:12:03.000Z</time>
      </trkpt>
      <trkpt lat="44.10457" lon="7.0262">
        <ele>1725.5999755859</ele>
        <time>2022-07-21T13:12:04.000Z</time>
      </trkpt>
      <trkpt lat="44.10466" lon="7.02619">
        <ele>1726.8000488281</ele>
        <time>2022-07-21T13:12:07.000Z</time>
      </trkpt>
      <trkpt lat="44.10474" lon="7.02617">
        <ele>1728</ele>
        <time>2022-07-21T13:12:10.000Z</time>
      </trkpt>
      <trkpt lat="44.10489" lon="7.02614">
        <ele>1729.1999511719</ele>
        <time>2022-07-21T13:12:15.000Z</time>
      </trkpt>
      <trkpt lat="44.105" lon="7.02612">
        <ele>1729.8000488281</ele>
        <time>2022-07-21T13:12:19.000Z</time>
      </trkpt>
      <trkpt lat="44.10505" lon="7.02609">
        <ele>1730.4000244141</ele>
        <time>2022-07-21T13:12:21.000Z</time>
      </trkpt>
      <trkpt lat="44.10514" lon="7.02605">
        <ele>1731.4000244141</ele>
        <time>2022-07-21T13:12:24.000Z</time>
      </trkpt>
      <trkpt lat="44.10516" lon="7.02605">
        <ele>1731.8000488281</ele>
        <time>2022-07-21T13:12:25.000Z</time>
      </trkpt>
      <trkpt lat="44.10525" lon="7.02604">
        <ele>1732.8000488281</ele>
        <time>2022-07-21T13:12:28.000Z</time>
      </trkpt>
      <trkpt lat="44.10532" lon="7.02605">
        <ele>1734</ele>
        <time>2022-07-21T13:12:31.000Z</time>
      </trkpt>
      <trkpt lat="44.10537" lon="7.02605">
        <ele>1735.1999511719</ele>
        <time>2022-07-21T13:12:33.000Z</time>
      </trkpt>
      <trkpt lat="44.10545" lon="7.02606">
        <ele>1736.4000244141</ele>
        <time>2022-07-21T13:12:37.000Z</time>
      </trkpt>
      <trkpt lat="44.1055" lon="7.02608">
        <ele>1737.5999755859</ele>
        <time>2022-07-21T13:12:40.000Z</time>
      </trkpt>
      <trkpt lat="44.10552" lon="7.02609">
        <ele>1738.1999511719</ele>
        <time>2022-07-21T13:12:41.000Z</time>
      </trkpt>
      <trkpt lat="44.10553" lon="7.0261">
        <ele>1738.8000488281</ele>
        <time>2022-07-21T13:12:42.000Z</time>
      </trkpt>
      <trkpt lat="44.10557" lon="7.02612">
        <ele>1740.1999511719</ele>
        <time>2022-07-21T13:12:45.000Z</time>
      </trkpt>
      <trkpt lat="44.1056" lon="7.02613">
        <ele>1741</ele>
        <time>2022-07-21T13:12:47.000Z</time>
      </trkpt>
      <trkpt lat="44.10562" lon="7.02613">
        <ele>1741.1999511719</ele>
        <time>2022-07-21T13:12:48.000Z</time>
      </trkpt>
      <trkpt lat="44.10568" lon="7.02615">
        <ele>1742.1999511719</ele>
        <time>2022-07-21T13:12:52.000Z</time>
      </trkpt>
      <trkpt lat="44.10572" lon="7.02617">
        <ele>1742.8000488281</ele>
        <time>2022-07-21T13:12:54.000Z</time>
      </trkpt>
      <trkpt lat="44.10576" lon="7.02619">
        <ele>1743.4000244141</ele>
        <time>2022-07-21T13:12:57.000Z</time>
      </trkpt>
      <trkpt lat="44.10583" lon="7.02621">
        <ele>1744.5999755859</ele>
        <time>2022-07-21T13:13:01.000Z</time>
      </trkpt>
      <trkpt lat="44.1059" lon="7.02624">
        <ele>1745.5999755859</ele>
        <time>2022-07-21T13:13:05.000Z</time>
      </trkpt>
      <trkpt lat="44.10596" lon="7.02626">
        <ele>1746.1999511719</ele>
        <time>2022-07-21T13:13:08.000Z</time>
      </trkpt>
      <trkpt lat="44.10601" lon="7.0263">
        <ele>1746.5999755859</ele>
        <time>2022-07-21T13:13:11.000Z</time>
      </trkpt>
      <trkpt lat="44.10606" lon="7.02633">
        <ele>1747.1999511719</ele>
        <time>2022-07-21T13:13:14.000Z</time>
      </trkpt>
      <trkpt lat="44.10611" lon="7.02634">
        <ele>1747.8000488281</ele>
        <time>2022-07-21T13:13:16.000Z</time>
      </trkpt>
      <trkpt lat="44.10617" lon="7.02637">
        <ele>1748.8000488281</ele>
        <time>2022-07-21T13:13:19.000Z</time>
      </trkpt>
      <trkpt lat="44.10619" lon="7.02638">
        <ele>1749</ele>
        <time>2022-07-21T13:13:20.000Z</time>
      </trkpt>
      <trkpt lat="44.10624" lon="7.0264">
        <ele>1749.8000488281</ele>
        <time>2022-07-21T13:13:23.000Z</time>
      </trkpt>
      <trkpt lat="44.1063" lon="7.02643">
        <ele>1750.5999755859</ele>
        <time>2022-07-21T13:13:26.000Z</time>
      </trkpt>
      <trkpt lat="44.10632" lon="7.02644">
        <ele>1751</ele>
        <time>2022-07-21T13:13:27.000Z</time>
      </trkpt>
      <trkpt lat="44.10636" lon="7.02647">
        <ele>1751.1999511719</ele>
        <time>2022-07-21T13:13:29.000Z</time>
      </trkpt>
      <trkpt lat="44.10641" lon="7.0265">
        <ele>1751.8000488281</ele>
        <time>2022-07-21T13:13:32.000Z</time>
      </trkpt>
      <trkpt lat="44.10643" lon="7.02651">
        <ele>1752.1999511719</ele>
        <time>2022-07-21T13:13:33.000Z</time>
      </trkpt>
      <trkpt lat="44.10646" lon="7.02654">
        <ele>1753.1999511719</ele>
        <time>2022-07-21T13:13:35.000Z</time>
      </trkpt>
      <trkpt lat="44.10652" lon="7.0266">
        <ele>1754.5999755859</ele>
        <time>2022-07-21T13:13:39.000Z</time>
      </trkpt>
      <trkpt lat="44.10653" lon="7.02661">
        <ele>1754.8000488281</ele>
        <time>2022-07-21T13:13:40.000Z</time>
      </trkpt>
      <trkpt lat="44.10658" lon="7.02664">
        <ele>1755.8000488281</ele>
        <time>2022-07-21T13:13:43.000Z</time>
      </trkpt>
      <trkpt lat="44.10665" lon="7.02668">
        <ele>1757</ele>
        <time>2022-07-21T13:13:47.000Z</time>
      </trkpt>
      <trkpt lat="44.10676" lon="7.02671">
        <ele>1758.4000244141</ele>
        <time>2022-07-21T13:13:52.000Z</time>
      </trkpt>
      <trkpt lat="44.1068" lon="7.02671">
        <ele>1759</ele>
        <time>2022-07-21T13:13:54.000Z</time>
      </trkpt>
      <trkpt lat="44.10683" lon="7.02671">
        <ele>1759.5999755859</ele>
        <time>2022-07-21T13:13:56.000Z</time>
      </trkpt>
      <trkpt lat="44.10693" lon="7.02672">
        <ele>1760.5999755859</ele>
        <time>2022-07-21T13:14:01.000Z</time>
      </trkpt>
      <trkpt lat="44.10695" lon="7.02672">
        <ele>1760.8000488281</ele>
        <time>2022-07-21T13:14:02.000Z</time>
      </trkpt>
      <trkpt lat="44.10707" lon="7.02671">
        <ele>1761.8000488281</ele>
        <time>2022-07-21T13:14:08.000Z</time>
      </trkpt>
      <trkpt lat="44.10717" lon="7.0267">
        <ele>1763</ele>
        <time>2022-07-21T13:14:13.000Z</time>
      </trkpt>
      <trkpt lat="44.10721" lon="7.0267">
        <ele>1763.4000244141</ele>
        <time>2022-07-21T13:14:15.000Z</time>
      </trkpt>
      <trkpt lat="44.10727" lon="7.02672">
        <ele>1764</ele>
        <time>2022-07-21T13:14:18.000Z</time>
      </trkpt>
      <trkpt lat="44.10736" lon="7.02677">
        <ele>1765</ele>
        <time>2022-07-21T13:14:23.000Z</time>
      </trkpt>
      <trkpt lat="44.10749" lon="7.02683">
        <ele>1766</ele>
        <time>2022-07-21T13:14:29.000Z</time>
      </trkpt>
      <trkpt lat="44.10751" lon="7.02683">
        <ele>1766</ele>
        <time>2022-07-21T13:14:30.000Z</time>
      </trkpt>
      <trkpt lat="44.10766" lon="7.02684">
        <ele>1767.1999511719</ele>
        <time>2022-07-21T13:14:37.000Z</time>
      </trkpt>
      <trkpt lat="44.10772" lon="7.02685">
        <ele>1767.8000488281</ele>
        <time>2022-07-21T13:14:40.000Z</time>
      </trkpt>
      <trkpt lat="44.10778" lon="7.02684">
        <ele>1768.1999511719</ele>
        <time>2022-07-21T13:14:43.000Z</time>
      </trkpt>
      <trkpt lat="44.10786" lon="7.02682">
        <ele>1769.4000244141</ele>
        <time>2022-07-21T13:14:47.000Z</time>
      </trkpt>
      <trkpt lat="44.10788" lon="7.02682">
        <ele>1769.8000488281</ele>
        <time>2022-07-21T13:14:48.000Z</time>
      </trkpt>
      <trkpt lat="44.10792" lon="7.02681">
        <ele>1770.5999755859</ele>
        <time>2022-07-21T13:14:50.000Z</time>
      </trkpt>
      <trkpt lat="44.10798" lon="7.0268">
        <ele>1771.5999755859</ele>
        <time>2022-07-21T13:14:53.000Z</time>
      </trkpt>
      <trkpt lat="44.10804" lon="7.02679">
        <ele>1772.4000244141</ele>
        <time>2022-07-21T13:14:56.000Z</time>
      </trkpt>
      <trkpt lat="44.10806" lon="7.02679">
        <ele>1772.5999755859</ele>
        <time>2022-07-21T13:14:57.000Z</time>
      </trkpt>
      <trkpt lat="44.10816" lon="7.02675">
        <ele>1773.8000488281</ele>
        <time>2022-07-21T13:15:02.000Z</time>
      </trkpt>
      <trkpt lat="44.10822" lon="7.02672">
        <ele>1775.1999511719</ele>
        <time>2022-07-21T13:15:05.000Z</time>
      </trkpt>
      <trkpt lat="44.10826" lon="7.02671">
        <ele>1776.4000244141</ele>
        <time>2022-07-21T13:15:07.000Z</time>
      </trkpt>
      <trkpt lat="44.1083" lon="7.02669">
        <ele>1777.4000244141</ele>
        <time>2022-07-21T13:15:09.000Z</time>
      </trkpt>
      <trkpt lat="44.10837" lon="7.02667">
        <ele>1778.4000244141</ele>
        <time>2022-07-21T13:15:13.000Z</time>
      </trkpt>
      <trkpt lat="44.10841" lon="7.02664">
        <ele>1779</ele>
        <time>2022-07-21T13:15:15.000Z</time>
      </trkpt>
      <trkpt lat="44.10846" lon="7.0266">
        <ele>1779.4000244141</ele>
        <time>2022-07-21T13:15:18.000Z</time>
      </trkpt>
      <trkpt lat="44.10852" lon="7.02652">
        <ele>1780.5999755859</ele>
        <time>2022-07-21T13:15:22.000Z</time>
      </trkpt>
      <trkpt lat="44.10854" lon="7.02648">
        <ele>1781.4000244141</ele>
        <time>2022-07-21T13:15:24.000Z</time>
      </trkpt>
      <trkpt lat="44.10855" lon="7.02646">
        <ele>1781.8000488281</ele>
        <time>2022-07-21T13:15:25.000Z</time>
      </trkpt>
      <trkpt lat="44.10858" lon="7.02639">
        <ele>1783</ele>
        <time>2022-07-21T13:15:28.000Z</time>
      </trkpt>
      <trkpt lat="44.1086" lon="7.02632">
        <ele>1783.8000488281</ele>
        <time>2022-07-21T13:15:31.000Z</time>
      </trkpt>
      <trkpt lat="44.10861" lon="7.02628">
        <ele>1784</ele>
        <time>2022-07-21T13:15:32.000Z</time>
      </trkpt>
      <trkpt lat="44.10863" lon="7.02612">
        <ele>1785</ele>
        <time>2022-07-21T13:15:38.000Z</time>
      </trkpt>
      <trkpt lat="44.10863" lon="7.02601">
        <ele>1786.4000244141</ele>
        <time>2022-07-21T13:15:42.000Z</time>
      </trkpt>
      <trkpt lat="44.10863" lon="7.02592">
        <ele>1787.4000244141</ele>
        <time>2022-07-21T13:15:45.000Z</time>
      </trkpt>
      <trkpt lat="44.10863" lon="7.0259">
        <ele>1787.8000488281</ele>
        <time>2022-07-21T13:15:46.000Z</time>
      </trkpt>
      <trkpt lat="44.10862" lon="7.02579">
        <ele>1789</ele>
        <time>2022-07-21T13:15:50.000Z</time>
      </trkpt>
      <trkpt lat="44.10863" lon="7.02572">
        <ele>1789.5999755859</ele>
        <time>2022-07-21T13:15:53.000Z</time>
      </trkpt>
      <trkpt lat="44.10863" lon="7.02567">
        <ele>1790.1999511719</ele>
        <time>2022-07-21T13:15:55.000Z</time>
      </trkpt>
      <trkpt lat="44.10868" lon="7.02559">
        <ele>1791.4000244141</ele>
        <time>2022-07-21T13:15:59.000Z</time>
      </trkpt>
      <trkpt lat="44.10874" lon="7.02552">
        <ele>1792.4000244141</ele>
        <time>2022-07-21T13:16:03.000Z</time>
      </trkpt>
      <trkpt lat="44.1088" lon="7.02544">
        <ele>1793.4000244141</ele>
        <time>2022-07-21T13:16:07.000Z</time>
      </trkpt>
      <trkpt lat="44.10881" lon="7.02543">
        <ele>1793.5999755859</ele>
        <time>2022-07-21T13:16:08.000Z</time>
      </trkpt>
      <trkpt lat="44.10887" lon="7.02532">
        <ele>1794.8000488281</ele>
        <time>2022-07-21T13:16:13.000Z</time>
      </trkpt>
      <trkpt lat="44.10894" lon="7.02525">
        <ele>1795.4000244141</ele>
        <time>2022-07-21T13:16:17.000Z</time>
      </trkpt>
      <trkpt lat="44.10896" lon="7.02521">
        <ele>1796</ele>
        <time>2022-07-21T13:16:19.000Z</time>
      </trkpt>
      <trkpt lat="44.10904" lon="7.0251">
        <ele>1796.8000488281</ele>
        <time>2022-07-21T13:16:25.000Z</time>
      </trkpt>
      <trkpt lat="44.10905" lon="7.02508">
        <ele>1797</ele>
        <time>2022-07-21T13:16:26.000Z</time>
      </trkpt>
      <trkpt lat="44.10914" lon="7.0249">
        <ele>1798.1999511719</ele>
        <time>2022-07-21T13:16:34.000Z</time>
      </trkpt>
      <trkpt lat="44.10915" lon="7.02487">
        <ele>1798.4000244141</ele>
        <time>2022-07-21T13:16:35.000Z</time>
      </trkpt>
      <trkpt lat="44.10918" lon="7.02477">
        <ele>1799.1999511719</ele>
        <time>2022-07-21T13:16:39.000Z</time>
      </trkpt>
      <trkpt lat="44.10921" lon="7.02469">
        <ele>1799.5999755859</ele>
        <time>2022-07-21T13:16:42.000Z</time>
      </trkpt>
      <trkpt lat="44.10926" lon="7.02456">
        <ele>1800.1999511719</ele>
        <time>2022-07-21T13:16:47.000Z</time>
      </trkpt>
      <trkpt lat="44.1093" lon="7.02448">
        <ele>1800.8000488281</ele>
        <time>2022-07-21T13:16:50.000Z</time>
      </trkpt>
      <trkpt lat="44.10935" lon="7.02435">
        <ele>1801.4000244141</ele>
        <time>2022-07-21T13:16:54.000Z</time>
      </trkpt>
      <trkpt lat="44.10941" lon="7.02424">
        <ele>1801.5999755859</ele>
        <time>2022-07-21T13:16:57.000Z</time>
      </trkpt>
      <trkpt lat="44.10955" lon="7.02384">
        <ele>1801.8000488281</ele>
        <time>2022-07-21T13:17:07.000Z</time>
      </trkpt>
      <trkpt lat="44.1096" lon="7.02368">
        <ele>1802.4000244141</ele>
        <time>2022-07-21T13:17:11.000Z</time>
      </trkpt>
      <trkpt lat="44.10966" lon="7.02348">
        <ele>1802.5999755859</ele>
        <time>2022-07-21T13:17:16.000Z</time>
      </trkpt>
      <trkpt lat="44.10973" lon="7.02313">
        <ele>1803</ele>
        <time>2022-07-21T13:17:24.000Z</time>
      </trkpt>
      <trkpt lat="44.10979" lon="7.02299">
        <ele>1803.5999755859</ele>
        <time>2022-07-21T13:17:28.000Z</time>
      </trkpt>
      <trkpt lat="44.10982" lon="7.02293">
        <ele>1803.8000488281</ele>
        <time>2022-07-21T13:17:30.000Z</time>
      </trkpt>
      <trkpt lat="44.10984" lon="7.02286">
        <ele>1804.1999511719</ele>
        <time>2022-07-21T13:17:35.000Z</time>
      </trkpt>
      <trkpt lat="44.10986" lon="7.02285">
        <ele>1804.1999511719</ele>
        <time>2022-07-21T13:17:46.000Z</time>
      </trkpt>
      <trkpt lat="44.10986" lon="7.02285">
        <ele>1804.1999511719</ele>
        <time>2022-07-21T13:17:59.000Z</time>
      </trkpt>
      <trkpt lat="44.10988" lon="7.02282">
        <ele>1804.1999511719</ele>
        <time>2022-07-21T13:18:09.000Z</time>
      </trkpt>
      <trkpt lat="44.10989" lon="7.02281">
        <ele>1804.4000244141</ele>
        <time>2022-07-21T13:18:10.000Z</time>
      </trkpt>
      <trkpt lat="44.10997" lon="7.02266">
        <ele>1804.4000244141</ele>
        <time>2022-07-21T13:18:15.000Z</time>
      </trkpt>
      <trkpt lat="44.11" lon="7.0226">
        <ele>1804.5999755859</ele>
        <time>2022-07-21T13:18:17.000Z</time>
      </trkpt>
      <trkpt lat="44.11009" lon="7.02249">
        <ele>1805.4000244141</ele>
        <time>2022-07-21T13:18:21.000Z</time>
      </trkpt>
      <trkpt lat="44.11013" lon="7.02246">
        <ele>1805.5999755859</ele>
        <time>2022-07-21T13:18:22.000Z</time>
      </trkpt>
      <trkpt lat="44.11022" lon="7.02243">
        <ele>1805.8000488281</ele>
        <time>2022-07-21T13:18:25.000Z</time>
      </trkpt>
      <trkpt lat="44.11035" lon="7.02236">
        <ele>1806.8000488281</ele>
        <time>2022-07-21T13:18:30.000Z</time>
      </trkpt>
      <trkpt lat="44.11037" lon="7.02234">
        <ele>1806.8000488281</ele>
        <time>2022-07-21T13:18:31.000Z</time>
      </trkpt>
      <trkpt lat="44.1105" lon="7.02226">
        <ele>1807.5999755859</ele>
        <time>2022-07-21T13:18:36.000Z</time>
      </trkpt>
      <trkpt lat="44.11052" lon="7.02224">
        <ele>1807.8000488281</ele>
        <time>2022-07-21T13:18:37.000Z</time>
      </trkpt>
      <trkpt lat="44.1106" lon="7.02221">
        <ele>1809</ele>
        <time>2022-07-21T13:18:40.000Z</time>
      </trkpt>
      <trkpt lat="44.11067" lon="7.02218">
        <ele>1810.5999755859</ele>
        <time>2022-07-21T13:18:43.000Z</time>
      </trkpt>
      <trkpt lat="44.11075" lon="7.02215">
        <ele>1812.1999511719</ele>
        <time>2022-07-21T13:18:47.000Z</time>
      </trkpt>
      <trkpt lat="44.11077" lon="7.02214">
        <ele>1812.5999755859</ele>
        <time>2022-07-21T13:18:48.000Z</time>
      </trkpt>
      <trkpt lat="44.11081" lon="7.02213">
        <ele>1813.5999755859</ele>
        <time>2022-07-21T13:18:50.000Z</time>
      </trkpt>
      <trkpt lat="44.11087" lon="7.0221">
        <ele>1814.8000488281</ele>
        <time>2022-07-21T13:18:53.000Z</time>
      </trkpt>
      <trkpt lat="44.11089" lon="7.02207">
        <ele>1816.1999511719</ele>
        <time>2022-07-21T13:18:55.000Z</time>
      </trkpt>
      <trkpt lat="44.11093" lon="7.02202">
        <ele>1817.1999511719</ele>
        <time>2022-07-21T13:18:57.000Z</time>
      </trkpt>
      <trkpt lat="44.11096" lon="7.02197">
        <ele>1818</ele>
        <time>2022-07-21T13:18:59.000Z</time>
      </trkpt>
      <trkpt lat="44.11098" lon="7.02194">
        <ele>1818.4000244141</ele>
        <time>2022-07-21T13:19:00.000Z</time>
      </trkpt>
      <trkpt lat="44.11109" lon="7.02183">
        <ele>1819.1999511719</ele>
        <time>2022-07-21T13:19:05.000Z</time>
      </trkpt>
      <trkpt lat="44.11117" lon="7.02173">
        <ele>1819.4000244141</ele>
        <time>2022-07-21T13:19:09.000Z</time>
      </trkpt>
      <trkpt lat="44.11121" lon="7.02169">
        <ele>1819.5999755859</ele>
        <time>2022-07-21T13:19:11.000Z</time>
      </trkpt>
      <trkpt lat="44.11133" lon="7.02159">
        <ele>1820.5999755859</ele>
        <time>2022-07-21T13:19:16.000Z</time>
      </trkpt>
      <trkpt lat="44.11137" lon="7.02153">
        <ele>1821</ele>
        <time>2022-07-21T13:19:18.000Z</time>
      </trkpt>
      <trkpt lat="44.11139" lon="7.02147">
        <ele>1821.5999755859</ele>
        <time>2022-07-21T13:19:20.000Z</time>
      </trkpt>
      <trkpt lat="44.11144" lon="7.02138">
        <ele>1822.8000488281</ele>
        <time>2022-07-21T13:19:23.000Z</time>
      </trkpt>
      <trkpt lat="44.11149" lon="7.02134">
        <ele>1823.5999755859</ele>
        <time>2022-07-21T13:19:25.000Z</time>
      </trkpt>
      <trkpt lat="44.11151" lon="7.02131">
        <ele>1823.8000488281</ele>
        <time>2022-07-21T13:19:26.000Z</time>
      </trkpt>
      <trkpt lat="44.11159" lon="7.02117">
        <ele>1824.8000488281</ele>
        <time>2022-07-21T13:19:31.000Z</time>
      </trkpt>
      <trkpt lat="44.11161" lon="7.02114">
        <ele>1824.8000488281</ele>
        <time>2022-07-21T13:19:32.000Z</time>
      </trkpt>
      <trkpt lat="44.11172" lon="7.02101">
        <ele>1826</ele>
        <time>2022-07-21T13:19:37.000Z</time>
      </trkpt>
      <trkpt lat="44.11174" lon="7.02098">
        <ele>1826.1999511719</ele>
        <time>2022-07-21T13:19:38.000Z</time>
      </trkpt>
      <trkpt lat="44.11183" lon="7.02088">
        <ele>1827.1999511719</ele>
        <time>2022-07-21T13:19:43.000Z</time>
      </trkpt>
      <trkpt lat="44.11185" lon="7.02085">
        <ele>1827.4000244141</ele>
        <time>2022-07-21T13:19:44.000Z</time>
      </trkpt>
      <trkpt lat="44.11191" lon="7.02077">
        <ele>1828.1999511719</ele>
        <time>2022-07-21T13:19:47.000Z</time>
      </trkpt>
      <trkpt lat="44.11197" lon="7.02071">
        <ele>1829.4000244141</ele>
        <time>2022-07-21T13:19:50.000Z</time>
      </trkpt>
      <trkpt lat="44.112" lon="7.02066">
        <ele>1830.4000244141</ele>
        <time>2022-07-21T13:19:52.000Z</time>
      </trkpt>
      <trkpt lat="44.11203" lon="7.02064">
        <ele>1830.8000488281</ele>
        <time>2022-07-21T13:19:53.000Z</time>
      </trkpt>
      <trkpt lat="44.11209" lon="7.02056">
        <ele>1832.1999511719</ele>
        <time>2022-07-21T13:19:57.000Z</time>
      </trkpt>
      <trkpt lat="44.11211" lon="7.02054">
        <ele>1832.4000244141</ele>
        <time>2022-07-21T13:19:58.000Z</time>
      </trkpt>
      <trkpt lat="44.11218" lon="7.02047">
        <ele>1833.1999511719</ele>
        <time>2022-07-21T13:20:01.000Z</time>
      </trkpt>
      <trkpt lat="44.1122" lon="7.02046">
        <ele>1833.5999755859</ele>
        <time>2022-07-21T13:20:02.000Z</time>
      </trkpt>
      <trkpt lat="44.11226" lon="7.02039">
        <ele>1834.5999755859</ele>
        <time>2022-07-21T13:20:05.000Z</time>
      </trkpt>
      <trkpt lat="44.11227" lon="7.02038">
        <ele>1835</ele>
        <time>2022-07-21T13:20:06.000Z</time>
      </trkpt>
      <trkpt lat="44.11229" lon="7.02036">
        <ele>1835.5999755859</ele>
        <time>2022-07-21T13:20:07.000Z</time>
      </trkpt>
      <trkpt lat="44.11234" lon="7.02031">
        <ele>1837</ele>
        <time>2022-07-21T13:20:10.000Z</time>
      </trkpt>
      <trkpt lat="44.11236" lon="7.02029">
        <ele>1837.1999511719</ele>
        <time>2022-07-21T13:20:11.000Z</time>
      </trkpt>
      <trkpt lat="44.11242" lon="7.02023">
        <ele>1837.8000488281</ele>
        <time>2022-07-21T13:20:15.000Z</time>
      </trkpt>
      <trkpt lat="44.11243" lon="7.02022">
        <ele>1838</ele>
        <time>2022-07-21T13:20:16.000Z</time>
      </trkpt>
      <trkpt lat="44.1125" lon="7.02015">
        <ele>1838.4000244141</ele>
        <time>2022-07-21T13:20:20.000Z</time>
      </trkpt>
      <trkpt lat="44.11255" lon="7.0201">
        <ele>1839</ele>
        <time>2022-07-21T13:20:23.000Z</time>
      </trkpt>
      <trkpt lat="44.11256" lon="7.02008">
        <ele>1839.1999511719</ele>
        <time>2022-07-21T13:20:24.000Z</time>
      </trkpt>
      <trkpt lat="44.11259" lon="7.02003">
        <ele>1840</ele>
        <time>2022-07-21T13:20:26.000Z</time>
      </trkpt>
      <trkpt lat="44.11261" lon="7.02001">
        <ele>1840.4000244141</ele>
        <time>2022-07-21T13:20:27.000Z</time>
      </trkpt>
      <trkpt lat="44.11265" lon="7.01997">
        <ele>1841.5999755859</ele>
        <time>2022-07-21T13:20:30.000Z</time>
      </trkpt>
      <trkpt lat="44.11269" lon="7.01993">
        <ele>1842.1999511719</ele>
        <time>2022-07-21T13:20:32.000Z</time>
      </trkpt>
      <trkpt lat="44.11272" lon="7.01988">
        <ele>1842.8000488281</ele>
        <time>2022-07-21T13:20:34.000Z</time>
      </trkpt>
      <trkpt lat="44.11278" lon="7.0198">
        <ele>1844</ele>
        <time>2022-07-21T13:20:37.000Z</time>
      </trkpt>
      <trkpt lat="44.11285" lon="7.01969">
        <ele>1845.1999511719</ele>
        <time>2022-07-21T13:20:41.000Z</time>
      </trkpt>
      <trkpt lat="44.11292" lon="7.01962">
        <ele>1846.1999511719</ele>
        <time>2022-07-21T13:20:44.000Z</time>
      </trkpt>
      <trkpt lat="44.11294" lon="7.01958">
        <ele>1846.5999755859</ele>
        <time>2022-07-21T13:20:45.000Z</time>
      </trkpt>
      <trkpt lat="44.11299" lon="7.01949">
        <ele>1847.4000244141</ele>
        <time>2022-07-21T13:20:48.000Z</time>
      </trkpt>
      <trkpt lat="44.11305" lon="7.01937">
        <ele>1848.8000488281</ele>
        <time>2022-07-21T13:20:52.000Z</time>
      </trkpt>
      <trkpt lat="44.11306" lon="7.01934">
        <ele>1849</ele>
        <time>2022-07-21T13:20:53.000Z</time>
      </trkpt>
      <trkpt lat="44.11309" lon="7.01921">
        <ele>1850</ele>
        <time>2022-07-21T13:20:57.000Z</time>
      </trkpt>
      <trkpt lat="44.11311" lon="7.01915">
        <ele>1851.1999511719</ele>
        <time>2022-07-21T13:20:59.000Z</time>
      </trkpt>
      <trkpt lat="44.11315" lon="7.01906">
        <ele>1852.4000244141</ele>
        <time>2022-07-21T13:21:02.000Z</time>
      </trkpt>
      <trkpt lat="44.11318" lon="7.01901">
        <ele>1853</ele>
        <time>2022-07-21T13:21:04.000Z</time>
      </trkpt>
      <trkpt lat="44.11323" lon="7.01888">
        <ele>1853.4000244141</ele>
        <time>2022-07-21T13:21:08.000Z</time>
      </trkpt>
      <trkpt lat="44.11323" lon="7.01884">
        <ele>1853.5999755859</ele>
        <time>2022-07-21T13:21:09.000Z</time>
      </trkpt>
      <trkpt lat="44.11327" lon="7.01869">
        <ele>1854.4000244141</ele>
        <time>2022-07-21T13:21:14.000Z</time>
      </trkpt>
      <trkpt lat="44.11328" lon="7.01851">
        <ele>1855.4000244141</ele>
        <time>2022-07-21T13:21:19.000Z</time>
      </trkpt>
      <trkpt lat="44.1133" lon="7.01842">
        <ele>1856.4000244141</ele>
        <time>2022-07-21T13:21:22.000Z</time>
      </trkpt>
      <trkpt lat="44.11331" lon="7.01839">
        <ele>1856.5999755859</ele>
        <time>2022-07-21T13:21:23.000Z</time>
      </trkpt>
      <trkpt lat="44.11331" lon="7.01836">
        <ele>1857</ele>
        <time>2022-07-21T13:21:24.000Z</time>
      </trkpt>
      <trkpt lat="44.11332" lon="7.01827">
        <ele>1857.5999755859</ele>
        <time>2022-07-21T13:21:27.000Z</time>
      </trkpt>
      <trkpt lat="44.11333" lon="7.01824">
        <ele>1857.5999755859</ele>
        <time>2022-07-21T13:21:28.000Z</time>
      </trkpt>
      <trkpt lat="44.11334" lon="7.01815">
        <ele>1858.1999511719</ele>
        <time>2022-07-21T13:21:31.000Z</time>
      </trkpt>
      <trkpt lat="44.11336" lon="7.01806">
        <ele>1858.8000488281</ele>
        <time>2022-07-21T13:21:34.000Z</time>
      </trkpt>
      <trkpt lat="44.11337" lon="7.01797">
        <ele>1860.1999511719</ele>
        <time>2022-07-21T13:21:37.000Z</time>
      </trkpt>
      <trkpt lat="44.11338" lon="7.01784">
        <ele>1861.1999511719</ele>
        <time>2022-07-21T13:21:41.000Z</time>
      </trkpt>
      <trkpt lat="44.11339" lon="7.01775">
        <ele>1862.5999755859</ele>
        <time>2022-07-21T13:21:44.000Z</time>
      </trkpt>
      <trkpt lat="44.1134" lon="7.01766">
        <ele>1863.8000488281</ele>
        <time>2022-07-21T13:21:47.000Z</time>
      </trkpt>
      <trkpt lat="44.1134" lon="7.01764">
        <ele>1864.1999511719</ele>
        <time>2022-07-21T13:21:48.000Z</time>
      </trkpt>
      <trkpt lat="44.11341" lon="7.01757">
        <ele>1865.1999511719</ele>
        <time>2022-07-21T13:21:51.000Z</time>
      </trkpt>
      <trkpt lat="44.11341" lon="7.01752">
        <ele>1866.4000244141</ele>
        <time>2022-07-21T13:21:53.000Z</time>
      </trkpt>
      <trkpt lat="44.11343" lon="7.01745">
        <ele>1867.4000244141</ele>
        <time>2022-07-21T13:21:55.000Z</time>
      </trkpt>
      <trkpt lat="44.11343" lon="7.01743">
        <ele>1867.8000488281</ele>
        <time>2022-07-21T13:21:56.000Z</time>
      </trkpt>
      <trkpt lat="44.11345" lon="7.01736">
        <ele>1869</ele>
        <time>2022-07-21T13:21:59.000Z</time>
      </trkpt>
      <trkpt lat="44.11347" lon="7.01731">
        <ele>1869.8000488281</ele>
        <time>2022-07-21T13:22:01.000Z</time>
      </trkpt>
      <trkpt lat="44.11348" lon="7.01729">
        <ele>1870.4000244141</ele>
        <time>2022-07-21T13:22:02.000Z</time>
      </trkpt>
      <trkpt lat="44.1135" lon="7.0172">
        <ele>1871.5999755859</ele>
        <time>2022-07-21T13:22:06.000Z</time>
      </trkpt>
      <trkpt lat="44.11351" lon="7.01712">
        <ele>1872.8000488281</ele>
        <time>2022-07-21T13:22:09.000Z</time>
      </trkpt>
      <trkpt lat="44.11352" lon="7.01706">
        <ele>1874.4000244141</ele>
        <time>2022-07-21T13:22:11.000Z</time>
      </trkpt>
      <trkpt lat="44.11351" lon="7.01701">
        <ele>1875.8000488281</ele>
        <time>2022-07-21T13:22:13.000Z</time>
      </trkpt>
      <trkpt lat="44.11351" lon="7.01696">
        <ele>1877</ele>
        <time>2022-07-21T13:22:15.000Z</time>
      </trkpt>
      <trkpt lat="44.11351" lon="7.0169">
        <ele>1878.1999511719</ele>
        <time>2022-07-21T13:22:18.000Z</time>
      </trkpt>
      <trkpt lat="44.11351" lon="7.01684">
        <ele>1879</ele>
        <time>2022-07-21T13:22:21.000Z</time>
      </trkpt>
      <trkpt lat="44.11351" lon="7.01682">
        <ele>1879.4000244141</ele>
        <time>2022-07-21T13:22:22.000Z</time>
      </trkpt>
      <trkpt lat="44.11352" lon="7.0168">
        <ele>1880</ele>
        <time>2022-07-21T13:22:25.000Z</time>
      </trkpt>
      <trkpt lat="44.11352" lon="7.01679">
        <ele>1880.4000244141</ele>
        <time>2022-07-21T13:22:27.000Z</time>
      </trkpt>
      <trkpt lat="44.11352" lon="7.01678">
        <ele>1881</ele>
        <time>2022-07-21T13:22:35.000Z</time>
      </trkpt>
      <trkpt lat="44.11351" lon="7.01677">
        <ele>1880.8000488281</ele>
        <time>2022-07-21T13:23:00.000Z</time>
      </trkpt>
      <trkpt lat="44.11351" lon="7.01676">
        <ele>1881</ele>
        <time>2022-07-21T13:23:27.000Z</time>
      </trkpt>
      <trkpt lat="44.1135" lon="7.01674">
        <ele>1880.8000488281</ele>
        <time>2022-07-21T13:23:50.000Z</time>
      </trkpt>
      <trkpt lat="44.1135" lon="7.01674">
        <ele>1881</ele>
        <time>2022-07-21T13:23:57.000Z</time>
      </trkpt>
      <trkpt lat="44.11351" lon="7.01673">
        <ele>1881.1999511719</ele>
        <time>2022-07-21T13:24:11.000Z</time>
      </trkpt>
      <trkpt lat="44.11354" lon="7.0167">
        <ele>1881.1999511719</ele>
        <time>2022-07-21T13:24:15.000Z</time>
      </trkpt>
      <trkpt lat="44.1136" lon="7.01666">
        <ele>1881.5999755859</ele>
        <time>2022-07-21T13:24:19.000Z</time>
      </trkpt>
      <trkpt lat="44.11364" lon="7.01665">
        <ele>1882</ele>
        <time>2022-07-21T13:24:21.000Z</time>
      </trkpt>
      <trkpt lat="44.11372" lon="7.01661">
        <ele>1882.5999755859</ele>
        <time>2022-07-21T13:24:25.000Z</time>
      </trkpt>
      <trkpt lat="44.11378" lon="7.01658">
        <ele>1883.1999511719</ele>
        <time>2022-07-21T13:24:28.000Z</time>
      </trkpt>
      <trkpt lat="44.11384" lon="7.01657">
        <ele>1884</ele>
        <time>2022-07-21T13:24:31.000Z</time>
      </trkpt>
      <trkpt lat="44.11387" lon="7.01656">
        <ele>1884.4000244141</ele>
        <time>2022-07-21T13:24:34.000Z</time>
      </trkpt>
      <trkpt lat="44.11388" lon="7.01656">
        <ele>1885</ele>
        <time>2022-07-21T13:24:38.000Z</time>
      </trkpt>
      <trkpt lat="44.11388" lon="7.01656">
        <ele>1885.1999511719</ele>
        <time>2022-07-21T13:24:39.000Z</time>
      </trkpt>
      <trkpt lat="44.11393" lon="7.01656">
        <ele>1885.4000244141</ele>
        <time>2022-07-21T13:24:45.000Z</time>
      </trkpt>
      <trkpt lat="44.114" lon="7.01653">
        <ele>1886</ele>
        <time>2022-07-21T13:24:52.000Z</time>
      </trkpt>
      <trkpt lat="44.11401" lon="7.01653">
        <ele>1886</ele>
        <time>2022-07-21T13:24:53.000Z</time>
      </trkpt>
      <trkpt lat="44.11407" lon="7.01653">
        <ele>1886</ele>
        <time>2022-07-21T13:24:58.000Z</time>
      </trkpt>
      <trkpt lat="44.1141" lon="7.01653">
        <ele>1886</ele>
        <time>2022-07-21T13:25:00.000Z</time>
      </trkpt>
      <trkpt lat="44.11421" lon="7.01648">
        <ele>1887</ele>
        <time>2022-07-21T13:25:10.000Z</time>
      </trkpt>
      <trkpt lat="44.11426" lon="7.01646">
        <ele>1888.1999511719</ele>
        <time>2022-07-21T13:25:16.000Z</time>
      </trkpt>
      <trkpt lat="44.11428" lon="7.01644">
        <ele>1888.5999755859</ele>
        <time>2022-07-21T13:25:19.000Z</time>
      </trkpt>
      <trkpt lat="44.11431" lon="7.01641">
        <ele>1889.1999511719</ele>
        <time>2022-07-21T13:25:23.000Z</time>
      </trkpt>
      <trkpt lat="44.11433" lon="7.01637">
        <ele>1890.1999511719</ele>
        <time>2022-07-21T13:25:27.000Z</time>
      </trkpt>
      <trkpt lat="44.11435" lon="7.01634">
        <ele>1891.1999511719</ele>
        <time>2022-07-21T13:25:31.000Z</time>
      </trkpt>
      <trkpt lat="44.11436" lon="7.01634">
        <ele>1891.4000244141</ele>
        <time>2022-07-21T13:25:32.000Z</time>
      </trkpt>
      <trkpt lat="44.11438" lon="7.0163">
        <ele>1892.1999511719</ele>
        <time>2022-07-21T13:25:37.000Z</time>
      </trkpt>
      <trkpt lat="44.11441" lon="7.01626">
        <ele>1893.4000244141</ele>
        <time>2022-07-21T13:25:42.000Z</time>
      </trkpt>
      <trkpt lat="44.11442" lon="7.01624">
        <ele>1894.4000244141</ele>
        <time>2022-07-21T13:25:45.000Z</time>
      </trkpt>
      <trkpt lat="44.11442" lon="7.01623">
        <ele>1894.5999755859</ele>
        <time>2022-07-21T13:25:46.000Z</time>
      </trkpt>
      <trkpt lat="44.11446" lon="7.01619">
        <ele>1895.4000244141</ele>
        <time>2022-07-21T13:25:54.000Z</time>
      </trkpt>
      <trkpt lat="44.11448" lon="7.01619">
        <ele>1895.5999755859</ele>
        <time>2022-07-21T13:25:56.000Z</time>
      </trkpt>
      <trkpt lat="44.11452" lon="7.01621">
        <ele>1896.5999755859</ele>
        <time>2022-07-21T13:26:02.000Z</time>
      </trkpt>
      <trkpt lat="44.11452" lon="7.01622">
        <ele>1896.8000488281</ele>
        <time>2022-07-21T13:26:03.000Z</time>
      </trkpt>
      <trkpt lat="44.11455" lon="7.01623">
        <ele>1897.8000488281</ele>
        <time>2022-07-21T13:26:09.000Z</time>
      </trkpt>
      <trkpt lat="44.11456" lon="7.01623">
        <ele>1898.1999511719</ele>
        <time>2022-07-21T13:26:11.000Z</time>
      </trkpt>
      <trkpt lat="44.11459" lon="7.01621">
        <ele>1899</ele>
        <time>2022-07-21T13:26:18.000Z</time>
      </trkpt>
      <trkpt lat="44.11461" lon="7.0162">
        <ele>1899.5999755859</ele>
        <time>2022-07-21T13:26:21.000Z</time>
      </trkpt>
      <trkpt lat="44.11462" lon="7.01618">
        <ele>1900</ele>
        <time>2022-07-21T13:26:24.000Z</time>
      </trkpt>
      <trkpt lat="44.11464" lon="7.01614">
        <ele>1901.1999511719</ele>
        <time>2022-07-21T13:26:31.000Z</time>
      </trkpt>
      <trkpt lat="44.11466" lon="7.0161">
        <ele>1902.1999511719</ele>
        <time>2022-07-21T13:26:39.000Z</time>
      </trkpt>
      <trkpt lat="44.11467" lon="7.01609">
        <ele>1902.4000244141</ele>
        <time>2022-07-21T13:26:41.000Z</time>
      </trkpt>
      <trkpt lat="44.11469" lon="7.01604">
        <ele>1903.1999511719</ele>
        <time>2022-07-21T13:26:49.000Z</time>
      </trkpt>
      <trkpt lat="44.1147" lon="7.01603">
        <ele>1903.4000244141</ele>
        <time>2022-07-21T13:26:50.000Z</time>
      </trkpt>
      <trkpt lat="44.11471" lon="7.01596">
        <ele>1903.1999511719</ele>
        <time>2022-07-21T13:26:56.000Z</time>
      </trkpt>
      <trkpt lat="44.1147" lon="7.01576">
        <ele>1902.8000488281</ele>
        <time>2022-07-21T13:27:01.000Z</time>
      </trkpt>
      <trkpt lat="44.11469" lon="7.0155">
        <ele>1902.1999511719</ele>
        <time>2022-07-21T13:27:07.000Z</time>
      </trkpt>
      <trkpt lat="44.11469" lon="7.01522">
        <ele>1901.4000244141</ele>
        <time>2022-07-21T13:27:14.000Z</time>
      </trkpt>
      <trkpt lat="44.11471" lon="7.01501">
        <ele>1901.8000488281</ele>
        <time>2022-07-21T13:27:20.000Z</time>
      </trkpt>
      <trkpt lat="44.11473" lon="7.01492">
        <ele>1902</ele>
        <time>2022-07-21T13:27:25.000Z</time>
      </trkpt>
      <trkpt lat="44.11473" lon="7.01487">
        <ele>1902.5999755859</ele>
        <time>2022-07-21T13:27:31.000Z</time>
      </trkpt>
      <trkpt lat="44.11474" lon="7.01485">
        <ele>1903.1999511719</ele>
        <time>2022-07-21T13:27:35.000Z</time>
      </trkpt>
      <trkpt lat="44.11474" lon="7.01481">
        <ele>1903.1999511719</ele>
        <time>2022-07-21T13:27:37.000Z</time>
      </trkpt>
      <trkpt lat="44.11476" lon="7.01466">
        <ele>1903.1999511719</ele>
        <time>2022-07-21T13:27:42.000Z</time>
      </trkpt>
      <trkpt lat="44.11476" lon="7.01455">
        <ele>1903.1999511719</ele>
        <time>2022-07-21T13:27:48.000Z</time>
      </trkpt>
      <trkpt lat="44.11474" lon="7.0145">
        <ele>1902.5999755859</ele>
        <time>2022-07-21T13:27:54.000Z</time>
      </trkpt>
      <trkpt lat="44.11473" lon="7.01446">
        <ele>1902.8000488281</ele>
        <time>2022-07-21T13:28:00.000Z</time>
      </trkpt>
      <trkpt lat="44.1147" lon="7.01441">
        <ele>1902.8000488281</ele>
        <time>2022-07-21T13:28:07.000Z</time>
      </trkpt>
      <trkpt lat="44.11469" lon="7.01437">
        <ele>1902.1999511719</ele>
        <time>2022-07-21T13:28:13.000Z</time>
      </trkpt>
      <trkpt lat="44.11468" lon="7.01434">
        <ele>1902.1999511719</ele>
        <time>2022-07-21T13:28:17.000Z</time>
      </trkpt>
      <trkpt lat="44.11468" lon="7.01433">
        <ele>1902.1999511719</ele>
        <time>2022-07-21T13:28:18.000Z</time>
      </trkpt>
      <trkpt lat="44.11467" lon="7.0143">
        <ele>1901.8000488281</ele>
        <time>2022-07-21T13:28:33.000Z</time>
      </trkpt>
      <trkpt lat="44.11467" lon="7.01416">
        <ele>1901.8000488281</ele>
        <time>2022-07-21T13:28:37.000Z</time>
      </trkpt>
      <trkpt lat="44.1147" lon="7.01401">
        <ele>1901.1999511719</ele>
        <time>2022-07-21T13:28:41.000Z</time>
      </trkpt>
      <trkpt lat="44.1147" lon="7.01397">
        <ele>1900.8000488281</ele>
        <time>2022-07-21T13:28:42.000Z</time>
      </trkpt>
      <trkpt lat="44.11475" lon="7.01369">
        <ele>1900.5999755859</ele>
        <time>2022-07-21T13:28:48.000Z</time>
      </trkpt>
      <trkpt lat="44.11478" lon="7.01353">
        <ele>1900</ele>
        <time>2022-07-21T13:28:51.000Z</time>
      </trkpt>
      <trkpt lat="44.11483" lon="7.01341">
        <ele>1900</ele>
        <time>2022-07-21T13:28:53.000Z</time>
      </trkpt>
      <trkpt lat="44.11494" lon="7.01315">
        <ele>1899.1999511719</ele>
        <time>2022-07-21T13:28:59.000Z</time>
      </trkpt>
      <trkpt lat="44.11509" lon="7.0129">
        <ele>1900.8000488281</ele>
        <time>2022-07-21T13:29:06.000Z</time>
      </trkpt>
      <trkpt lat="44.11511" lon="7.01286">
        <ele>1901.1999511719</ele>
        <time>2022-07-21T13:29:07.000Z</time>
      </trkpt>
      <trkpt lat="44.1152" lon="7.0127">
        <ele>1901.4000244141</ele>
        <time>2022-07-21T13:29:11.000Z</time>
      </trkpt>
      <trkpt lat="44.11529" lon="7.01254">
        <ele>1901.1999511719</ele>
        <time>2022-07-21T13:29:16.000Z</time>
      </trkpt>
      <trkpt lat="44.11538" lon="7.01233">
        <ele>1900.5999755859</ele>
        <time>2022-07-21T13:29:20.000Z</time>
      </trkpt>
      <trkpt lat="44.11543" lon="7.01223">
        <ele>1899.8000488281</ele>
        <time>2022-07-21T13:29:22.000Z</time>
      </trkpt>
      <trkpt lat="44.11548" lon="7.01215">
        <ele>1899.1999511719</ele>
        <time>2022-07-21T13:29:24.000Z</time>
      </trkpt>
      <trkpt lat="44.1156" lon="7.01195">
        <ele>1898.8000488281</ele>
        <time>2022-07-21T13:29:30.000Z</time>
      </trkpt>
      <trkpt lat="44.11562" lon="7.01192">
        <ele>1898.8000488281</ele>
        <time>2022-07-21T13:29:31.000Z</time>
      </trkpt>
      <trkpt lat="44.11567" lon="7.01174">
        <ele>1898</ele>
        <time>2022-07-21T13:29:36.000Z</time>
      </trkpt>
      <trkpt lat="44.11569" lon="7.0117">
        <ele>1897.5999755859</ele>
        <time>2022-07-21T13:29:37.000Z</time>
      </trkpt>
      <trkpt lat="44.11576" lon="7.0116">
        <ele>1896.4000244141</ele>
        <time>2022-07-21T13:29:40.000Z</time>
      </trkpt>
      <trkpt lat="44.11578" lon="7.01157">
        <ele>1896.1999511719</ele>
        <time>2022-07-21T13:29:41.000Z</time>
      </trkpt>
      <trkpt lat="44.11587" lon="7.01146">
        <ele>1895.5999755859</ele>
        <time>2022-07-21T13:29:46.000Z</time>
      </trkpt>
      <trkpt lat="44.11592" lon="7.01139">
        <ele>1896.5999755859</ele>
        <time>2022-07-21T13:29:51.000Z</time>
      </trkpt>
      <trkpt lat="44.11599" lon="7.01127">
        <ele>1896.1999511719</ele>
        <time>2022-07-21T13:29:57.000Z</time>
      </trkpt>
      <trkpt lat="44.11608" lon="7.01113">
        <ele>1895.4000244141</ele>
        <time>2022-07-21T13:30:03.000Z</time>
      </trkpt>
      <trkpt lat="44.11614" lon="7.01105">
        <ele>1895.4000244141</ele>
        <time>2022-07-21T13:30:08.000Z</time>
      </trkpt>
      <trkpt lat="44.11624" lon="7.0109">
        <ele>1895.1999511719</ele>
        <time>2022-07-21T13:30:12.000Z</time>
      </trkpt>
      <trkpt lat="44.11632" lon="7.01083">
        <ele>1894.1999511719</ele>
        <time>2022-07-21T13:30:15.000Z</time>
      </trkpt>
      <trkpt lat="44.11636" lon="7.01079">
        <ele>1894</ele>
        <time>2022-07-21T13:30:17.000Z</time>
      </trkpt>
      <trkpt lat="44.11649" lon="7.01073">
        <ele>1895.1999511719</ele>
        <time>2022-07-21T13:30:24.000Z</time>
      </trkpt>
      <trkpt lat="44.11664" lon="7.01065">
        <ele>1896.1999511719</ele>
        <time>2022-07-21T13:30:30.000Z</time>
      </trkpt>
      <trkpt lat="44.11677" lon="7.01055">
        <ele>1895.4000244141</ele>
        <time>2022-07-21T13:30:36.000Z</time>
      </trkpt>
      <trkpt lat="44.11687" lon="7.01042">
        <ele>1895.8000488281</ele>
        <time>2022-07-21T13:30:43.000Z</time>
      </trkpt>
      <trkpt lat="44.11688" lon="7.01036">
        <ele>1896.8000488281</ele>
        <time>2022-07-21T13:30:46.000Z</time>
      </trkpt>
      <trkpt lat="44.11688" lon="7.01033">
        <ele>1898.1999511719</ele>
        <time>2022-07-21T13:30:48.000Z</time>
      </trkpt>
      <trkpt lat="44.11687" lon="7.01031">
        <ele>1898.5999755859</ele>
        <time>2022-07-21T13:30:49.000Z</time>
      </trkpt>
      <trkpt lat="44.11687" lon="7.01019">
        <ele>1899.1999511719</ele>
        <time>2022-07-21T13:30:54.000Z</time>
      </trkpt>
      <trkpt lat="44.11687" lon="7.01017">
        <ele>1899.4000244141</ele>
        <time>2022-07-21T13:30:55.000Z</time>
      </trkpt>
      <trkpt lat="44.11688" lon="7.01003">
        <ele>1900.1999511719</ele>
        <time>2022-07-21T13:31:01.000Z</time>
      </trkpt>
      <trkpt lat="44.11688" lon="7.01001">
        <ele>1900.4000244141</ele>
        <time>2022-07-21T13:31:02.000Z</time>
      </trkpt>
      <trkpt lat="44.11689" lon="7.00993">
        <ele>1901.4000244141</ele>
        <time>2022-07-21T13:31:05.000Z</time>
      </trkpt>
      <trkpt lat="44.11689" lon="7.00983">
        <ele>1902.4000244141</ele>
        <time>2022-07-21T13:31:09.000Z</time>
      </trkpt>
      <trkpt lat="44.11687" lon="7.00967">
        <ele>1902.1999511719</ele>
        <time>2022-07-21T13:31:14.000Z</time>
      </trkpt>
      <trkpt lat="44.11686" lon="7.00951">
        <ele>1902.1999511719</ele>
        <time>2022-07-21T13:31:19.000Z</time>
      </trkpt>
      <trkpt lat="44.11685" lon="7.00936">
        <ele>1902.4000244141</ele>
        <time>2022-07-21T13:31:23.000Z</time>
      </trkpt>
      <trkpt lat="44.11682" lon="7.00908">
        <ele>1902.4000244141</ele>
        <time>2022-07-21T13:31:30.000Z</time>
      </trkpt>
      <trkpt lat="44.11682" lon="7.00891">
        <ele>1903.4000244141</ele>
        <time>2022-07-21T13:31:35.000Z</time>
      </trkpt>
      <trkpt lat="44.11682" lon="7.00888">
        <ele>1903.5999755859</ele>
        <time>2022-07-21T13:31:36.000Z</time>
      </trkpt>
      <trkpt lat="44.11678" lon="7.00869">
        <ele>1904.5999755859</ele>
        <time>2022-07-21T13:31:41.000Z</time>
      </trkpt>
      <trkpt lat="44.11679" lon="7.00858">
        <ele>1905.1999511719</ele>
        <time>2022-07-21T13:31:45.000Z</time>
      </trkpt>
      <trkpt lat="44.11679" lon="7.00859">
        <ele>1906</ele>
        <time>2022-07-21T13:31:47.000Z</time>
      </trkpt>
      <trkpt lat="44.11679" lon="7.00858">
        <ele>1906.4000244141</ele>
        <time>2022-07-21T13:31:49.000Z</time>
      </trkpt>
      <trkpt lat="44.11679" lon="7.00857">
        <ele>1906.5999755859</ele>
        <time>2022-07-21T13:31:54.000Z</time>
      </trkpt>
      <trkpt lat="44.11679" lon="7.00854">
        <ele>1907</ele>
        <time>2022-07-21T13:32:01.000Z</time>
      </trkpt>
      <trkpt lat="44.1168" lon="7.0085">
        <ele>1907</ele>
        <time>2022-07-21T13:32:06.000Z</time>
      </trkpt>
      <trkpt lat="44.1168" lon="7.00846">
        <ele>1907.5999755859</ele>
        <time>2022-07-21T13:32:10.000Z</time>
      </trkpt>
      <trkpt lat="44.11678" lon="7.0084">
        <ele>1908.1999511719</ele>
        <time>2022-07-21T13:32:14.000Z</time>
      </trkpt>
      <trkpt lat="44.11677" lon="7.00836">
        <ele>1908.4000244141</ele>
        <time>2022-07-21T13:32:17.000Z</time>
      </trkpt>
      <trkpt lat="44.11676" lon="7.00826">
        <ele>1908.5999755859</ele>
        <time>2022-07-21T13:32:24.000Z</time>
      </trkpt>
      <trkpt lat="44.11676" lon="7.00818">
        <ele>1909.1999511719</ele>
        <time>2022-07-21T13:32:31.000Z</time>
      </trkpt>
      <trkpt lat="44.11675" lon="7.00815">
        <ele>1909.5999755859</ele>
        <time>2022-07-21T13:32:33.000Z</time>
      </trkpt>
      <trkpt lat="44.11675" lon="7.00809">
        <ele>1910.4000244141</ele>
        <time>2022-07-21T13:32:38.000Z</time>
      </trkpt>
      <trkpt lat="44.11675" lon="7.00805">
        <ele>1910.5999755859</ele>
        <time>2022-07-21T13:32:41.000Z</time>
      </trkpt>
      <trkpt lat="44.11673" lon="7.00795">
        <ele>1911.5999755859</ele>
        <time>2022-07-21T13:32:49.000Z</time>
      </trkpt>
      <trkpt lat="44.11674" lon="7.00783">
        <ele>1911.4000244141</ele>
        <time>2022-07-21T13:32:57.000Z</time>
      </trkpt>
      <trkpt lat="44.11677" lon="7.00774">
        <ele>1912.1999511719</ele>
        <time>2022-07-21T13:33:06.000Z</time>
      </trkpt>
      <trkpt lat="44.11678" lon="7.0077">
        <ele>1912.8000488281</ele>
        <time>2022-07-21T13:33:09.000Z</time>
      </trkpt>
      <trkpt lat="44.11679" lon="7.00766">
        <ele>1913.4000244141</ele>
        <time>2022-07-21T13:33:13.000Z</time>
      </trkpt>
      <trkpt lat="44.11678" lon="7.00766">
        <ele>1913.5999755859</ele>
        <time>2022-07-21T13:33:14.000Z</time>
      </trkpt>
      <trkpt lat="44.11678" lon="7.00765">
        <ele>1913.4000244141</ele>
        <time>2022-07-21T13:33:20.000Z</time>
      </trkpt>
      <trkpt lat="44.11678" lon="7.00757">
        <ele>1913.4000244141</ele>
        <time>2022-07-21T13:33:26.000Z</time>
      </trkpt>
      <trkpt lat="44.11676" lon="7.00732">
        <ele>1913.8000488281</ele>
        <time>2022-07-21T13:33:34.000Z</time>
      </trkpt>
      <trkpt lat="44.11676" lon="7.00728">
        <ele>1913.8000488281</ele>
        <time>2022-07-21T13:33:35.000Z</time>
      </trkpt>
      <trkpt lat="44.11673" lon="7.00712">
        <ele>1913.8000488281</ele>
        <time>2022-07-21T13:33:39.000Z</time>
      </trkpt>
      <trkpt lat="44.11676" lon="7.00696">
        <ele>1914</ele>
        <time>2022-07-21T13:33:44.000Z</time>
      </trkpt>
      <trkpt lat="44.11678" lon="7.00689">
        <ele>1914.8000488281</ele>
        <time>2022-07-21T13:33:47.000Z</time>
      </trkpt>
      <trkpt lat="44.1168" lon="7.00678">
        <ele>1916</ele>
        <time>2022-07-21T13:33:51.000Z</time>
      </trkpt>
      <trkpt lat="44.11685" lon="7.00651">
        <ele>1916.4000244141</ele>
        <time>2022-07-21T13:33:59.000Z</time>
      </trkpt>
      <trkpt lat="44.11688" lon="7.00641">
        <ele>1917</ele>
        <time>2022-07-21T13:34:03.000Z</time>
      </trkpt>
      <trkpt lat="44.11689" lon="7.00637">
        <ele>1917.4000244141</ele>
        <time>2022-07-21T13:34:05.000Z</time>
      </trkpt>
      <trkpt lat="44.11688" lon="7.0063">
        <ele>1918</ele>
        <time>2022-07-21T13:34:10.000Z</time>
      </trkpt>
      <trkpt lat="44.11688" lon="7.0063">
        <ele>1918.1999511719</ele>
        <time>2022-07-21T13:34:36.000Z</time>
      </trkpt>
      <trkpt lat="44.11687" lon="7.0063">
        <ele>1917.8000488281</ele>
        <time>2022-07-21T13:35:03.000Z</time>
      </trkpt>
      <trkpt lat="44.11687" lon="7.00631">
        <ele>1918.1999511719</ele>
        <time>2022-07-21T13:35:37.000Z</time>
      </trkpt>
      <trkpt lat="44.11687" lon="7.0063">
        <ele>1917.8000488281</ele>
        <time>2022-07-21T13:36:07.000Z</time>
      </trkpt>
      <trkpt lat="44.11687" lon="7.00631">
        <ele>1918</ele>
        <time>2022-07-21T13:36:36.000Z</time>
      </trkpt>
      <trkpt lat="44.11687" lon="7.00631">
        <ele>1918.1999511719</ele>
        <time>2022-07-21T13:37:04.000Z</time>
      </trkpt>
      <trkpt lat="44.11687" lon="7.00631">
        <ele>1918.1999511719</ele>
        <time>2022-07-21T13:37:27.000Z</time>
      </trkpt>
      <trkpt lat="44.11687" lon="7.00631">
        <ele>1918.1999511719</ele>
        <time>2022-07-21T13:37:58.000Z</time>
      </trkpt>
      <trkpt lat="44.11687" lon="7.00631">
        <ele>1918.4000244141</ele>
        <time>2022-07-21T13:38:28.000Z</time>
      </trkpt>
      <trkpt lat="44.11687" lon="7.00631">
        <ele>1918.1999511719</ele>
        <time>2022-07-21T13:38:56.000Z</time>
      </trkpt>
      <trkpt lat="44.11686" lon="7.0063">
        <ele>1918.1999511719</ele>
        <time>2022-07-21T13:39:09.000Z</time>
      </trkpt>
      <trkpt lat="44.11686" lon="7.00628">
        <ele>1918.1999511719</ele>
        <time>2022-07-21T13:39:12.000Z</time>
      </trkpt>
      <trkpt lat="44.11683" lon="7.00622">
        <ele>1918.5999755859</ele>
        <time>2022-07-21T13:39:15.000Z</time>
      </trkpt>
      <trkpt lat="44.11677" lon="7.00616">
        <ele>1918.5999755859</ele>
        <time>2022-07-21T13:39:17.000Z</time>
      </trkpt>
      <trkpt lat="44.11672" lon="7.00613">
        <ele>1918.1999511719</ele>
        <time>2022-07-21T13:39:18.000Z</time>
      </trkpt>
      <trkpt lat="44.11661" lon="7.00607">
        <ele>1916.1999511719</ele>
        <time>2022-07-21T13:39:20.000Z</time>
      </trkpt>
      <trkpt lat="44.11656" lon="7.00605">
        <ele>1914.8000488281</ele>
        <time>2022-07-21T13:39:21.000Z</time>
      </trkpt>
      <trkpt lat="44.11652" lon="7.00603">
        <ele>1913.1999511719</ele>
        <time>2022-07-21T13:39:22.000Z</time>
      </trkpt>
      <trkpt lat="44.11649" lon="7.00601">
        <ele>1911.8000488281</ele>
        <time>2022-07-21T13:39:23.000Z</time>
      </trkpt>
      <trkpt lat="44.11641" lon="7.00596">
        <ele>1910.1999511719</ele>
        <time>2022-07-21T13:39:25.000Z</time>
      </trkpt>
      <trkpt lat="44.11633" lon="7.00592">
        <ele>1909</ele>
        <time>2022-07-21T13:39:27.000Z</time>
      </trkpt>
      <trkpt lat="44.11623" lon="7.00589">
        <ele>1907.8000488281</ele>
        <time>2022-07-21T13:39:29.000Z</time>
      </trkpt>
      <trkpt lat="44.11605" lon="7.00585">
        <ele>1907</ele>
        <time>2022-07-21T13:39:32.000Z</time>
      </trkpt>
      <trkpt lat="44.11599" lon="7.00584">
        <ele>1906.5999755859</ele>
        <time>2022-07-21T13:39:33.000Z</time>
      </trkpt>
      <trkpt lat="44.11579" lon="7.00582">
        <ele>1905.1999511719</ele>
        <time>2022-07-21T13:39:36.000Z</time>
      </trkpt>
      <trkpt lat="44.11571" lon="7.00581">
        <ele>1904.5999755859</ele>
        <time>2022-07-21T13:39:37.000Z</time>
      </trkpt>
      <trkpt lat="44.11564" lon="7.00579">
        <ele>1904</ele>
        <time>2022-07-21T13:39:38.000Z</time>
      </trkpt>
      <trkpt lat="44.11552" lon="7.00574">
        <ele>1902</ele>
        <time>2022-07-21T13:39:40.000Z</time>
      </trkpt>
      <trkpt lat="44.11547" lon="7.00572">
        <ele>1900.4000244141</ele>
        <time>2022-07-21T13:39:41.000Z</time>
      </trkpt>
      <trkpt lat="44.11541" lon="7.00571">
        <ele>1899.1999511719</ele>
        <time>2022-07-21T13:39:42.000Z</time>
      </trkpt>
      <trkpt lat="44.11536" lon="7.00569">
        <ele>1898</ele>
        <time>2022-07-21T13:39:43.000Z</time>
      </trkpt>
      <trkpt lat="44.11527" lon="7.00562">
        <ele>1896.1999511719</ele>
        <time>2022-07-21T13:39:45.000Z</time>
      </trkpt>
      <trkpt lat="44.11516" lon="7.00555">
        <ele>1894.8000488281</ele>
        <time>2022-07-21T13:39:48.000Z</time>
      </trkpt>
      <trkpt lat="44.11512" lon="7.00553">
        <ele>1894</ele>
        <time>2022-07-21T13:39:49.000Z</time>
      </trkpt>
      <trkpt lat="44.11505" lon="7.00547">
        <ele>1893.5999755859</ele>
        <time>2022-07-21T13:39:51.000Z</time>
      </trkpt>
      <trkpt lat="44.11501" lon="7.00545">
        <ele>1893.5999755859</ele>
        <time>2022-07-21T13:39:52.000Z</time>
      </trkpt>
      <trkpt lat="44.1149" lon="7.00538">
        <ele>1892.5999755859</ele>
        <time>2022-07-21T13:39:54.000Z</time>
      </trkpt>
      <trkpt lat="44.11479" lon="7.0053">
        <ele>1891</ele>
        <time>2022-07-21T13:39:56.000Z</time>
      </trkpt>
      <trkpt lat="44.11473" lon="7.00525">
        <ele>1890</ele>
        <time>2022-07-21T13:39:57.000Z</time>
      </trkpt>
      <trkpt lat="44.11462" lon="7.00516">
        <ele>1887.8000488281</ele>
        <time>2022-07-21T13:39:59.000Z</time>
      </trkpt>
      <trkpt lat="44.11458" lon="7.00511">
        <ele>1886.4000244141</ele>
        <time>2022-07-21T13:40:00.000Z</time>
      </trkpt>
      <trkpt lat="44.11451" lon="7.00501">
        <ele>1884.5999755859</ele>
        <time>2022-07-21T13:40:02.000Z</time>
      </trkpt>
      <trkpt lat="44.11447" lon="7.00497">
        <ele>1883.4000244141</ele>
        <time>2022-07-21T13:40:03.000Z</time>
      </trkpt>
      <trkpt lat="44.11437" lon="7.00486">
        <ele>1882.4000244141</ele>
        <time>2022-07-21T13:40:05.000Z</time>
      </trkpt>
      <trkpt lat="44.11433" lon="7.0048">
        <ele>1881.8000488281</ele>
        <time>2022-07-21T13:40:06.000Z</time>
      </trkpt>
      <trkpt lat="44.11427" lon="7.00473">
        <ele>1881.5999755859</ele>
        <time>2022-07-21T13:40:07.000Z</time>
      </trkpt>
      <trkpt lat="44.11416" lon="7.00462">
        <ele>1880.5999755859</ele>
        <time>2022-07-21T13:40:09.000Z</time>
      </trkpt>
      <trkpt lat="44.11407" lon="7.00452">
        <ele>1879.5999755859</ele>
        <time>2022-07-21T13:40:11.000Z</time>
      </trkpt>
      <trkpt lat="44.11401" lon="7.00446">
        <ele>1878.4000244141</ele>
        <time>2022-07-21T13:40:12.000Z</time>
      </trkpt>
      <trkpt lat="44.11395" lon="7.0044">
        <ele>1877.1999511719</ele>
        <time>2022-07-21T13:40:13.000Z</time>
      </trkpt>
      <trkpt lat="44.11389" lon="7.00435">
        <ele>1875.4000244141</ele>
        <time>2022-07-21T13:40:14.000Z</time>
      </trkpt>
      <trkpt lat="44.11382" lon="7.00428">
        <ele>1874.4000244141</ele>
        <time>2022-07-21T13:40:15.000Z</time>
      </trkpt>
      <trkpt lat="44.11375" lon="7.00422">
        <ele>1873.4000244141</ele>
        <time>2022-07-21T13:40:16.000Z</time>
      </trkpt>
      <trkpt lat="44.11366" lon="7.00414">
        <ele>1872.1999511719</ele>
        <time>2022-07-21T13:40:17.000Z</time>
      </trkpt>
      <trkpt lat="44.11357" lon="7.00407">
        <ele>1869.8000488281</ele>
        <time>2022-07-21T13:40:18.000Z</time>
      </trkpt>
      <trkpt lat="44.11348" lon="7.004">
        <ele>1867.4000244141</ele>
        <time>2022-07-21T13:40:19.000Z</time>
      </trkpt>
      <trkpt lat="44.11339" lon="7.00392">
        <ele>1865.5999755859</ele>
        <time>2022-07-21T13:40:20.000Z</time>
      </trkpt>
      <trkpt lat="44.1133" lon="7.00385">
        <ele>1863</ele>
        <time>2022-07-21T13:40:21.000Z</time>
      </trkpt>
      <trkpt lat="44.11321" lon="7.00377">
        <ele>1861</ele>
        <time>2022-07-21T13:40:22.000Z</time>
      </trkpt>
      <trkpt lat="44.11304" lon="7.00364">
        <ele>1861.8000488281</ele>
        <time>2022-07-21T13:40:24.000Z</time>
      </trkpt>
      <trkpt lat="44.11297" lon="7.00361">
        <ele>1859.1999511719</ele>
        <time>2022-07-21T13:40:25.000Z</time>
      </trkpt>
      <trkpt lat="44.11284" lon="7.00357">
        <ele>1856.8000488281</ele>
        <time>2022-07-21T13:40:27.000Z</time>
      </trkpt>
      <trkpt lat="44.11278" lon="7.00355">
        <ele>1855.1999511719</ele>
        <time>2022-07-21T13:40:28.000Z</time>
      </trkpt>
      <trkpt lat="44.11265" lon="7.00349">
        <ele>1852.5999755859</ele>
        <time>2022-07-21T13:40:30.000Z</time>
      </trkpt>
      <trkpt lat="44.1126" lon="7.00346">
        <ele>1851.4000244141</ele>
        <time>2022-07-21T13:40:31.000Z</time>
      </trkpt>
      <trkpt lat="44.11255" lon="7.00341">
        <ele>1849.8000488281</ele>
        <time>2022-07-21T13:40:32.000Z</time>
      </trkpt>
      <trkpt lat="44.1125" lon="7.00338">
        <ele>1848.1999511719</ele>
        <time>2022-07-21T13:40:33.000Z</time>
      </trkpt>
      <trkpt lat="44.11243" lon="7.00333">
        <ele>1846.8000488281</ele>
        <time>2022-07-21T13:40:35.000Z</time>
      </trkpt>
      <trkpt lat="44.11236" lon="7.00327">
        <ele>1845</ele>
        <time>2022-07-21T13:40:37.000Z</time>
      </trkpt>
      <trkpt lat="44.11231" lon="7.0032">
        <ele>1843.4000244141</ele>
        <time>2022-07-21T13:40:39.000Z</time>
      </trkpt>
      <trkpt lat="44.11229" lon="7.00315">
        <ele>1842.8000488281</ele>
        <time>2022-07-21T13:40:40.000Z</time>
      </trkpt>
      <trkpt lat="44.11226" lon="7.00309">
        <ele>1842</ele>
        <time>2022-07-21T13:40:41.000Z</time>
      </trkpt>
      <trkpt lat="44.1122" lon="7.00294">
        <ele>1840</ele>
        <time>2022-07-21T13:40:43.000Z</time>
      </trkpt>
      <trkpt lat="44.11219" lon="7.00287">
        <ele>1838.4000244141</ele>
        <time>2022-07-21T13:40:44.000Z</time>
      </trkpt>
      <trkpt lat="44.11219" lon="7.00279">
        <ele>1837</ele>
        <time>2022-07-21T13:40:45.000Z</time>
      </trkpt>
      <trkpt lat="44.11218" lon="7.00272">
        <ele>1835.8000488281</ele>
        <time>2022-07-21T13:40:46.000Z</time>
      </trkpt>
      <trkpt lat="44.11218" lon="7.00255">
        <ele>1833.4000244141</ele>
        <time>2022-07-21T13:40:48.000Z</time>
      </trkpt>
      <trkpt lat="44.11219" lon="7.0025">
        <ele>1831.5999755859</ele>
        <time>2022-07-21T13:40:49.000Z</time>
      </trkpt>
      <trkpt lat="44.1122" lon="7.00246">
        <ele>1831</ele>
        <time>2022-07-21T13:40:50.000Z</time>
      </trkpt>
      <trkpt lat="44.11221" lon="7.00244">
        <ele>1830.1999511719</ele>
        <time>2022-07-21T13:40:51.000Z</time>
      </trkpt>
      <trkpt lat="44.11222" lon="7.0024">
        <ele>1829</ele>
        <time>2022-07-21T13:40:53.000Z</time>
      </trkpt>
      <trkpt lat="44.11222" lon="7.00238">
        <ele>1829</ele>
        <time>2022-07-21T13:40:54.000Z</time>
      </trkpt>
      <trkpt lat="44.11219" lon="7.00233">
        <ele>1828</ele>
        <time>2022-07-21T13:40:56.000Z</time>
      </trkpt>
      <trkpt lat="44.11217" lon="7.00221">
        <ele>1826.8000488281</ele>
        <time>2022-07-21T13:40:58.000Z</time>
      </trkpt>
      <trkpt lat="44.11216" lon="7.00206">
        <ele>1824.5999755859</ele>
        <time>2022-07-21T13:41:00.000Z</time>
      </trkpt>
      <trkpt lat="44.11213" lon="7.0019">
        <ele>1822.4000244141</ele>
        <time>2022-07-21T13:41:02.000Z</time>
      </trkpt>
      <trkpt lat="44.11211" lon="7.00182">
        <ele>1821.8000488281</ele>
        <time>2022-07-21T13:41:03.000Z</time>
      </trkpt>
      <trkpt lat="44.11209" lon="7.00176">
        <ele>1820.4000244141</ele>
        <time>2022-07-21T13:41:04.000Z</time>
      </trkpt>
      <trkpt lat="44.11207" lon="7.00168">
        <ele>1817.4000244141</ele>
        <time>2022-07-21T13:41:05.000Z</time>
      </trkpt>
      <trkpt lat="44.11206" lon="7.00164">
        <ele>1814.8000488281</ele>
        <time>2022-07-21T13:41:06.000Z</time>
      </trkpt>
      <trkpt lat="44.11204" lon="7.0016">
        <ele>1813.1999511719</ele>
        <time>2022-07-21T13:41:07.000Z</time>
      </trkpt>
      <trkpt lat="44.11204" lon="7.00157">
        <ele>1811</ele>
        <time>2022-07-21T13:41:08.000Z</time>
      </trkpt>
      <trkpt lat="44.11203" lon="7.00154">
        <ele>1810</ele>
        <time>2022-07-21T13:41:09.000Z</time>
      </trkpt>
      <trkpt lat="44.11201" lon="7.00148">
        <ele>1808.5999755859</ele>
        <time>2022-07-21T13:41:11.000Z</time>
      </trkpt>
      <trkpt lat="44.112" lon="7.00145">
        <ele>1808.1999511719</ele>
        <time>2022-07-21T13:41:12.000Z</time>
      </trkpt>
      <trkpt lat="44.11196" lon="7.00136">
        <ele>1807.1999511719</ele>
        <time>2022-07-21T13:41:14.000Z</time>
      </trkpt>
      <trkpt lat="44.11193" lon="7.00128">
        <ele>1805.5999755859</ele>
        <time>2022-07-21T13:41:16.000Z</time>
      </trkpt>
      <trkpt lat="44.11192" lon="7.00121">
        <ele>1804.1999511719</ele>
        <time>2022-07-21T13:41:17.000Z</time>
      </trkpt>
      <trkpt lat="44.1119" lon="7.00116">
        <ele>1803</ele>
        <time>2022-07-21T13:41:18.000Z</time>
      </trkpt>
      <trkpt lat="44.11189" lon="7.00111">
        <ele>1801.4000244141</ele>
        <time>2022-07-21T13:41:19.000Z</time>
      </trkpt>
      <trkpt lat="44.11188" lon="7.00107">
        <ele>1799.5999755859</ele>
        <time>2022-07-21T13:41:20.000Z</time>
      </trkpt>
      <trkpt lat="44.11186" lon="7.001">
        <ele>1797.8000488281</ele>
        <time>2022-07-21T13:41:22.000Z</time>
      </trkpt>
      <trkpt lat="44.11184" lon="7.00093">
        <ele>1795.5999755859</ele>
        <time>2022-07-21T13:41:24.000Z</time>
      </trkpt>
      <trkpt lat="44.11182" lon="7.00087">
        <ele>1793.4000244141</ele>
        <time>2022-07-21T13:41:26.000Z</time>
      </trkpt>
      <trkpt lat="44.11179" lon="7.00082">
        <ele>1791.4000244141</ele>
        <time>2022-07-21T13:41:28.000Z</time>
      </trkpt>
      <trkpt lat="44.11177" lon="7.0008">
        <ele>1790.1999511719</ele>
        <time>2022-07-21T13:41:29.000Z</time>
      </trkpt>
      <trkpt lat="44.11176" lon="7.00079">
        <ele>1788.8000488281</ele>
        <time>2022-07-21T13:41:30.000Z</time>
      </trkpt>
      <trkpt lat="44.11173" lon="7.00077">
        <ele>1787.4000244141</ele>
        <time>2022-07-21T13:41:32.000Z</time>
      </trkpt>
      <trkpt lat="44.11172" lon="7.00077">
        <ele>1786.4000244141</ele>
        <time>2022-07-21T13:41:34.000Z</time>
      </trkpt>
      <trkpt lat="44.11172" lon="7.00077">
        <ele>1785.8000488281</ele>
        <time>2022-07-21T13:41:35.000Z</time>
      </trkpt>
      <trkpt lat="44.1117" lon="7.00076">
        <ele>1785</ele>
        <time>2022-07-21T13:41:37.000Z</time>
      </trkpt>
      <trkpt lat="44.11166" lon="7.00071">
        <ele>1784.5999755859</ele>
        <time>2022-07-21T13:41:40.000Z</time>
      </trkpt>
      <trkpt lat="44.11165" lon="7.00069">
        <ele>1784.4000244141</ele>
        <time>2022-07-21T13:41:41.000Z</time>
      </trkpt>
      <trkpt lat="44.11162" lon="7.00065">
        <ele>1783.5999755859</ele>
        <time>2022-07-21T13:41:43.000Z</time>
      </trkpt>
      <trkpt lat="44.11161" lon="7.00061">
        <ele>1782.1999511719</ele>
        <time>2022-07-21T13:41:45.000Z</time>
      </trkpt>
      <trkpt lat="44.1116" lon="7.00059">
        <ele>1781.4000244141</ele>
        <time>2022-07-21T13:41:46.000Z</time>
      </trkpt>
      <trkpt lat="44.11157" lon="7.00057">
        <ele>1780.8000488281</ele>
        <time>2022-07-21T13:41:47.000Z</time>
      </trkpt>
      <trkpt lat="44.11152" lon="7.00054">
        <ele>1779.4000244141</ele>
        <time>2022-07-21T13:41:49.000Z</time>
      </trkpt>
      <trkpt lat="44.11149" lon="7.00052">
        <ele>1778.5999755859</ele>
        <time>2022-07-21T13:41:50.000Z</time>
      </trkpt>
      <trkpt lat="44.11147" lon="7.00051">
        <ele>1777.8000488281</ele>
        <time>2022-07-21T13:41:51.000Z</time>
      </trkpt>
      <trkpt lat="44.11142" lon="7.00048">
        <ele>1776</ele>
        <time>2022-07-21T13:41:53.000Z</time>
      </trkpt>
      <trkpt lat="44.11139" lon="7.00045">
        <ele>1775</ele>
        <time>2022-07-21T13:41:54.000Z</time>
      </trkpt>
      <trkpt lat="44.11137" lon="7.00041">
        <ele>1774</ele>
        <time>2022-07-21T13:41:55.000Z</time>
      </trkpt>
      <trkpt lat="44.11136" lon="7.00037">
        <ele>1773.4000244141</ele>
        <time>2022-07-21T13:41:56.000Z</time>
      </trkpt>
      <trkpt lat="44.11132" lon="7.00032">
        <ele>1772.8000488281</ele>
        <time>2022-07-21T13:41:57.000Z</time>
      </trkpt>
      <trkpt lat="44.11122" lon="7.00018">
        <ele>1770</ele>
        <time>2022-07-21T13:42:00.000Z</time>
      </trkpt>
      <trkpt lat="44.11118" lon="7.00012">
        <ele>1768.4000244141</ele>
        <time>2022-07-21T13:42:01.000Z</time>
      </trkpt>
      <trkpt lat="44.11114" lon="7.00007">
        <ele>1766</ele>
        <time>2022-07-21T13:42:02.000Z</time>
      </trkpt>
      <trkpt lat="44.1111" lon="7.00001">
        <ele>1765</ele>
        <time>2022-07-21T13:42:03.000Z</time>
      </trkpt>
      <trkpt lat="44.11106" lon="6.99995">
        <ele>1763.5999755859</ele>
        <time>2022-07-21T13:42:04.000Z</time>
      </trkpt>
      <trkpt lat="44.11103" lon="6.99987">
        <ele>1762.4000244141</ele>
        <time>2022-07-21T13:42:05.000Z</time>
      </trkpt>
      <trkpt lat="44.11099" lon="6.99971">
        <ele>1761.1999511719</ele>
        <time>2022-07-21T13:42:07.000Z</time>
      </trkpt>
      <trkpt lat="44.11097" lon="6.99963">
        <ele>1760.8000488281</ele>
        <time>2022-07-21T13:42:08.000Z</time>
      </trkpt>
      <trkpt lat="44.11097" lon="6.99954">
        <ele>1760</ele>
        <time>2022-07-21T13:42:09.000Z</time>
      </trkpt>
      <trkpt lat="44.11099" lon="6.99938">
        <ele>1758.8000488281</ele>
        <time>2022-07-21T13:42:11.000Z</time>
      </trkpt>
      <trkpt lat="44.11104" lon="6.99923">
        <ele>1757.5999755859</ele>
        <time>2022-07-21T13:42:13.000Z</time>
      </trkpt>
      <trkpt lat="44.11108" lon="6.99905">
        <ele>1756.8000488281</ele>
        <time>2022-07-21T13:42:16.000Z</time>
      </trkpt>
      <trkpt lat="44.1111" lon="6.99898">
        <ele>1755.8000488281</ele>
        <time>2022-07-21T13:42:17.000Z</time>
      </trkpt>
      <trkpt lat="44.11113" lon="6.99885">
        <ele>1754.5999755859</ele>
        <time>2022-07-21T13:42:19.000Z</time>
      </trkpt>
      <trkpt lat="44.11117" lon="6.99872">
        <ele>1753.5999755859</ele>
        <time>2022-07-21T13:42:21.000Z</time>
      </trkpt>
      <trkpt lat="44.11118" lon="6.99865">
        <ele>1752.8000488281</ele>
        <time>2022-07-21T13:42:22.000Z</time>
      </trkpt>
      <trkpt lat="44.11119" lon="6.99857">
        <ele>1752.1999511719</ele>
        <time>2022-07-21T13:42:23.000Z</time>
      </trkpt>
      <trkpt lat="44.1112" lon="6.99841">
        <ele>1750.8000488281</ele>
        <time>2022-07-21T13:42:25.000Z</time>
      </trkpt>
      <trkpt lat="44.1112" lon="6.99833">
        <ele>1750</ele>
        <time>2022-07-21T13:42:26.000Z</time>
      </trkpt>
      <trkpt lat="44.11122" lon="6.99824">
        <ele>1749.4000244141</ele>
        <time>2022-07-21T13:42:27.000Z</time>
      </trkpt>
      <trkpt lat="44.11124" lon="6.99817">
        <ele>1748.5999755859</ele>
        <time>2022-07-21T13:42:28.000Z</time>
      </trkpt>
      <trkpt lat="44.11126" lon="6.99811">
        <ele>1748</ele>
        <time>2022-07-21T13:42:29.000Z</time>
      </trkpt>
      <trkpt lat="44.11129" lon="6.998">
        <ele>1747</ele>
        <time>2022-07-21T13:42:31.000Z</time>
      </trkpt>
      <trkpt lat="44.11131" lon="6.99796">
        <ele>1746.8000488281</ele>
        <time>2022-07-21T13:42:32.000Z</time>
      </trkpt>
      <trkpt lat="44.11133" lon="6.9979">
        <ele>1745.4000244141</ele>
        <time>2022-07-21T13:42:34.000Z</time>
      </trkpt>
      <trkpt lat="44.11134" lon="6.99787">
        <ele>1745.1999511719</ele>
        <time>2022-07-21T13:42:35.000Z</time>
      </trkpt>
      <trkpt lat="44.11135" lon="6.99785">
        <ele>1745</ele>
        <time>2022-07-21T13:42:39.000Z</time>
      </trkpt>
      <trkpt lat="44.11136" lon="6.99782">
        <ele>1744.4000244141</ele>
        <time>2022-07-21T13:42:43.000Z</time>
      </trkpt>
      <trkpt lat="44.11136" lon="6.99779">
        <ele>1744.4000244141</ele>
        <time>2022-07-21T13:42:44.000Z</time>
      </trkpt>
      <trkpt lat="44.11132" lon="6.99763">
        <ele>1744</ele>
        <time>2022-07-21T13:42:48.000Z</time>
      </trkpt>
      <trkpt lat="44.11127" lon="6.99755">
        <ele>1743.4000244141</ele>
        <time>2022-07-21T13:42:50.000Z</time>
      </trkpt>
      <trkpt lat="44.11119" lon="6.99745">
        <ele>1742.4000244141</ele>
        <time>2022-07-21T13:42:53.000Z</time>
      </trkpt>
      <trkpt lat="44.1111" lon="6.99733">
        <ele>1741.4000244141</ele>
        <time>2022-07-21T13:42:57.000Z</time>
      </trkpt>
      <trkpt lat="44.11107" lon="6.99727">
        <ele>1741.1999511719</ele>
        <time>2022-07-21T13:42:59.000Z</time>
      </trkpt>
      <trkpt lat="44.11103" lon="6.99714">
        <ele>1741.5999755859</ele>
        <time>2022-07-21T13:43:04.000Z</time>
      </trkpt>
      <trkpt lat="44.11095" lon="6.99699">
        <ele>1742.5999755859</ele>
        <time>2022-07-21T13:43:10.000Z</time>
      </trkpt>
      <trkpt lat="44.11087" lon="6.99696">
        <ele>1743</ele>
        <time>2022-07-21T13:43:12.000Z</time>
      </trkpt>
      <trkpt lat="44.11078" lon="6.9969">
        <ele>1742.4000244141</ele>
        <time>2022-07-21T13:43:14.000Z</time>
      </trkpt>
      <trkpt lat="44.11072" lon="6.9968">
        <ele>1741.1999511719</ele>
        <time>2022-07-21T13:43:16.000Z</time>
      </trkpt>
      <trkpt lat="44.11068" lon="6.99673">
        <ele>1740.1999511719</ele>
        <time>2022-07-21T13:43:17.000Z</time>
      </trkpt>
      <trkpt lat="44.11064" lon="6.99667">
        <ele>1739.4000244141</ele>
        <time>2022-07-21T13:43:18.000Z</time>
      </trkpt>
      <trkpt lat="44.1106" lon="6.9966">
        <ele>1738.5999755859</ele>
        <time>2022-07-21T13:43:19.000Z</time>
      </trkpt>
      <trkpt lat="44.11056" lon="6.99652">
        <ele>1737.1999511719</ele>
        <time>2022-07-21T13:43:20.000Z</time>
      </trkpt>
      <trkpt lat="44.11052" lon="6.99645">
        <ele>1736.8000488281</ele>
        <time>2022-07-21T13:43:21.000Z</time>
      </trkpt>
      <trkpt lat="44.11047" lon="6.99636">
        <ele>1736.1999511719</ele>
        <time>2022-07-21T13:43:22.000Z</time>
      </trkpt>
      <trkpt lat="44.11041" lon="6.99614">
        <ele>1735</ele>
        <time>2022-07-21T13:43:24.000Z</time>
      </trkpt>
      <trkpt lat="44.1104" lon="6.99592">
        <ele>1733.5999755859</ele>
        <time>2022-07-21T13:43:26.000Z</time>
      </trkpt>
      <trkpt lat="44.1104" lon="6.99579">
        <ele>1732.4000244141</ele>
        <time>2022-07-21T13:43:27.000Z</time>
      </trkpt>
      <trkpt lat="44.1104" lon="6.99568">
        <ele>1731.1999511719</ele>
        <time>2022-07-21T13:43:28.000Z</time>
      </trkpt>
      <trkpt lat="44.11039" lon="6.99555">
        <ele>1729.4000244141</ele>
        <time>2022-07-21T13:43:29.000Z</time>
      </trkpt>
      <trkpt lat="44.11038" lon="6.99543">
        <ele>1728.1999511719</ele>
        <time>2022-07-21T13:43:30.000Z</time>
      </trkpt>
      <trkpt lat="44.11034" lon="6.99519">
        <ele>1726.5999755859</ele>
        <time>2022-07-21T13:43:32.000Z</time>
      </trkpt>
      <trkpt lat="44.11032" lon="6.99507">
        <ele>1725.5999755859</ele>
        <time>2022-07-21T13:43:33.000Z</time>
      </trkpt>
      <trkpt lat="44.11029" lon="6.99496">
        <ele>1725.4000244141</ele>
        <time>2022-07-21T13:43:34.000Z</time>
      </trkpt>
      <trkpt lat="44.11019" lon="6.99475">
        <ele>1724</ele>
        <time>2022-07-21T13:43:36.000Z</time>
      </trkpt>
      <trkpt lat="44.11013" lon="6.99465">
        <ele>1723.1999511719</ele>
        <time>2022-07-21T13:43:37.000Z</time>
      </trkpt>
      <trkpt lat="44.10998" lon="6.99447">
        <ele>1722.5999755859</ele>
        <time>2022-07-21T13:43:39.000Z</time>
      </trkpt>
      <trkpt lat="44.10989" lon="6.99439">
        <ele>1723.1999511719</ele>
        <time>2022-07-21T13:43:40.000Z</time>
      </trkpt>
      <trkpt lat="44.10979" lon="6.99432">
        <ele>1723.1999511719</ele>
        <time>2022-07-21T13:43:41.000Z</time>
      </trkpt>
      <trkpt lat="44.10968" lon="6.99426">
        <ele>1721.4000244141</ele>
        <time>2022-07-21T13:43:42.000Z</time>
      </trkpt>
      <trkpt lat="44.10957" lon="6.99421">
        <ele>1718.8000488281</ele>
        <time>2022-07-21T13:43:43.000Z</time>
      </trkpt>
      <trkpt lat="44.10946" lon="6.99416">
        <ele>1715.4000244141</ele>
        <time>2022-07-21T13:43:44.000Z</time>
      </trkpt>
      <trkpt lat="44.10935" lon="6.99411">
        <ele>1713.8000488281</ele>
        <time>2022-07-21T13:43:45.000Z</time>
      </trkpt>
      <trkpt lat="44.10925" lon="6.99407">
        <ele>1712.1999511719</ele>
        <time>2022-07-21T13:43:46.000Z</time>
      </trkpt>
      <trkpt lat="44.10913" lon="6.99403">
        <ele>1711.1999511719</ele>
        <time>2022-07-21T13:43:47.000Z</time>
      </trkpt>
      <trkpt lat="44.10893" lon="6.99398">
        <ele>1709.1999511719</ele>
        <time>2022-07-21T13:43:49.000Z</time>
      </trkpt>
      <trkpt lat="44.10884" lon="6.99397">
        <ele>1708</ele>
        <time>2022-07-21T13:43:50.000Z</time>
      </trkpt>
      <trkpt lat="44.10876" lon="6.99395">
        <ele>1706.8000488281</ele>
        <time>2022-07-21T13:43:51.000Z</time>
      </trkpt>
      <trkpt lat="44.10867" lon="6.99392">
        <ele>1705.5999755859</ele>
        <time>2022-07-21T13:43:52.000Z</time>
      </trkpt>
      <trkpt lat="44.10859" lon="6.99387">
        <ele>1704.4000244141</ele>
        <time>2022-07-21T13:43:53.000Z</time>
      </trkpt>
      <trkpt lat="44.10851" lon="6.99383">
        <ele>1703.1999511719</ele>
        <time>2022-07-21T13:43:54.000Z</time>
      </trkpt>
      <trkpt lat="44.10844" lon="6.9938">
        <ele>1701.8000488281</ele>
        <time>2022-07-21T13:43:55.000Z</time>
      </trkpt>
      <trkpt lat="44.10828" lon="6.99375">
        <ele>1699.8000488281</ele>
        <time>2022-07-21T13:43:57.000Z</time>
      </trkpt>
      <trkpt lat="44.10814" lon="6.99368">
        <ele>1698.1999511719</ele>
        <time>2022-07-21T13:43:59.000Z</time>
      </trkpt>
      <trkpt lat="44.10807" lon="6.99365">
        <ele>1696.8000488281</ele>
        <time>2022-07-21T13:44:00.000Z</time>
      </trkpt>
      <trkpt lat="44.10801" lon="6.99363">
        <ele>1694.8000488281</ele>
        <time>2022-07-21T13:44:01.000Z</time>
      </trkpt>
      <trkpt lat="44.10795" lon="6.99361">
        <ele>1692.1999511719</ele>
        <time>2022-07-21T13:44:02.000Z</time>
      </trkpt>
      <trkpt lat="44.10788" lon="6.9936">
        <ele>1690</ele>
        <time>2022-07-21T13:44:03.000Z</time>
      </trkpt>
      <trkpt lat="44.10782" lon="6.9936">
        <ele>1688.8000488281</ele>
        <time>2022-07-21T13:44:04.000Z</time>
      </trkpt>
      <trkpt lat="44.10775" lon="6.99358">
        <ele>1687.4000244141</ele>
        <time>2022-07-21T13:44:05.000Z</time>
      </trkpt>
      <trkpt lat="44.10769" lon="6.99356">
        <ele>1686.4000244141</ele>
        <time>2022-07-21T13:44:06.000Z</time>
      </trkpt>
      <trkpt lat="44.10764" lon="6.99354">
        <ele>1685.1999511719</ele>
        <time>2022-07-21T13:44:07.000Z</time>
      </trkpt>
      <trkpt lat="44.10759" lon="6.99351">
        <ele>1683.8000488281</ele>
        <time>2022-07-21T13:44:08.000Z</time>
      </trkpt>
      <trkpt lat="44.10753" lon="6.99349">
        <ele>1682.5999755859</ele>
        <time>2022-07-21T13:44:09.000Z</time>
      </trkpt>
      <trkpt lat="44.10746" lon="6.99349">
        <ele>1681</ele>
        <time>2022-07-21T13:44:10.000Z</time>
      </trkpt>
      <trkpt lat="44.10738" lon="6.99349">
        <ele>1679.8000488281</ele>
        <time>2022-07-21T13:44:11.000Z</time>
      </trkpt>
      <trkpt lat="44.10727" lon="6.99349">
        <ele>1678.4000244141</ele>
        <time>2022-07-21T13:44:12.000Z</time>
      </trkpt>
      <trkpt lat="44.10718" lon="6.99349">
        <ele>1676.8000488281</ele>
        <time>2022-07-21T13:44:13.000Z</time>
      </trkpt>
      <trkpt lat="44.10707" lon="6.99348">
        <ele>1675.1999511719</ele>
        <time>2022-07-21T13:44:14.000Z</time>
      </trkpt>
      <trkpt lat="44.10696" lon="6.99346">
        <ele>1673.1999511719</ele>
        <time>2022-07-21T13:44:15.000Z</time>
      </trkpt>
      <trkpt lat="44.10677" lon="6.99343">
        <ele>1670.8000488281</ele>
        <time>2022-07-21T13:44:17.000Z</time>
      </trkpt>
      <trkpt lat="44.10668" lon="6.99342">
        <ele>1668.8000488281</ele>
        <time>2022-07-21T13:44:18.000Z</time>
      </trkpt>
      <trkpt lat="44.1066" lon="6.99342">
        <ele>1666.1999511719</ele>
        <time>2022-07-21T13:44:19.000Z</time>
      </trkpt>
      <trkpt lat="44.10651" lon="6.99343">
        <ele>1663.5999755859</ele>
        <time>2022-07-21T13:44:20.000Z</time>
      </trkpt>
      <trkpt lat="44.10643" lon="6.99344">
        <ele>1661.4000244141</ele>
        <time>2022-07-21T13:44:21.000Z</time>
      </trkpt>
      <trkpt lat="44.10635" lon="6.99347">
        <ele>1659.5999755859</ele>
        <time>2022-07-21T13:44:22.000Z</time>
      </trkpt>
      <trkpt lat="44.10627" lon="6.99352">
        <ele>1658</ele>
        <time>2022-07-21T13:44:23.000Z</time>
      </trkpt>
      <trkpt lat="44.10619" lon="6.99358">
        <ele>1657</ele>
        <time>2022-07-21T13:44:24.000Z</time>
      </trkpt>
      <trkpt lat="44.10612" lon="6.99365">
        <ele>1656.1999511719</ele>
        <time>2022-07-21T13:44:25.000Z</time>
      </trkpt>
      <trkpt lat="44.10605" lon="6.99371">
        <ele>1655.1999511719</ele>
        <time>2022-07-21T13:44:26.000Z</time>
      </trkpt>
      <trkpt lat="44.10597" lon="6.99379">
        <ele>1654.4000244141</ele>
        <time>2022-07-21T13:44:27.000Z</time>
      </trkpt>
      <trkpt lat="44.1059" lon="6.99386">
        <ele>1653.5999755859</ele>
        <time>2022-07-21T13:44:28.000Z</time>
      </trkpt>
      <trkpt lat="44.10581" lon="6.99393">
        <ele>1652.5999755859</ele>
        <time>2022-07-21T13:44:29.000Z</time>
      </trkpt>
      <trkpt lat="44.10574" lon="6.99399">
        <ele>1651.4000244141</ele>
        <time>2022-07-21T13:44:30.000Z</time>
      </trkpt>
      <trkpt lat="44.10559" lon="6.99409">
        <ele>1649.1999511719</ele>
        <time>2022-07-21T13:44:32.000Z</time>
      </trkpt>
      <trkpt lat="44.10546" lon="6.99413">
        <ele>1647.8000488281</ele>
        <time>2022-07-21T13:44:34.000Z</time>
      </trkpt>
      <trkpt lat="44.10539" lon="6.99413">
        <ele>1646.5999755859</ele>
        <time>2022-07-21T13:44:35.000Z</time>
      </trkpt>
      <trkpt lat="44.10532" lon="6.99412">
        <ele>1644.5999755859</ele>
        <time>2022-07-21T13:44:36.000Z</time>
      </trkpt>
      <trkpt lat="44.10525" lon="6.99413">
        <ele>1641.1999511719</ele>
        <time>2022-07-21T13:44:37.000Z</time>
      </trkpt>
      <trkpt lat="44.10519" lon="6.99414">
        <ele>1638.8000488281</ele>
        <time>2022-07-21T13:44:38.000Z</time>
      </trkpt>
      <trkpt lat="44.10513" lon="6.99417">
        <ele>1635.8000488281</ele>
        <time>2022-07-21T13:44:39.000Z</time>
      </trkpt>
      <trkpt lat="44.10508" lon="6.99418">
        <ele>1633.8000488281</ele>
        <time>2022-07-21T13:44:40.000Z</time>
      </trkpt>
      <trkpt lat="44.10501" lon="6.99417">
        <ele>1632</ele>
        <time>2022-07-21T13:44:41.000Z</time>
      </trkpt>
      <trkpt lat="44.10494" lon="6.99412">
        <ele>1630.5999755859</ele>
        <time>2022-07-21T13:44:42.000Z</time>
      </trkpt>
      <trkpt lat="44.10488" lon="6.99405">
        <ele>1629.1999511719</ele>
        <time>2022-07-21T13:44:43.000Z</time>
      </trkpt>
      <trkpt lat="44.10483" lon="6.99398">
        <ele>1627.4000244141</ele>
        <time>2022-07-21T13:44:44.000Z</time>
      </trkpt>
      <trkpt lat="44.10476" lon="6.99391">
        <ele>1625.4000244141</ele>
        <time>2022-07-21T13:44:45.000Z</time>
      </trkpt>
      <trkpt lat="44.10471" lon="6.99386">
        <ele>1624.4000244141</ele>
        <time>2022-07-21T13:44:46.000Z</time>
      </trkpt>
      <trkpt lat="44.10465" lon="6.9938">
        <ele>1622.4000244141</ele>
        <time>2022-07-21T13:44:47.000Z</time>
      </trkpt>
      <trkpt lat="44.10461" lon="6.99376">
        <ele>1620.5999755859</ele>
        <time>2022-07-21T13:44:48.000Z</time>
      </trkpt>
      <trkpt lat="44.10458" lon="6.99373">
        <ele>1619</ele>
        <time>2022-07-21T13:44:49.000Z</time>
      </trkpt>
      <trkpt lat="44.10456" lon="6.9937">
        <ele>1617.4000244141</ele>
        <time>2022-07-21T13:44:50.000Z</time>
      </trkpt>
      <trkpt lat="44.10455" lon="6.99368">
        <ele>1616.8000488281</ele>
        <time>2022-07-21T13:44:51.000Z</time>
      </trkpt>
      <trkpt lat="44.10455" lon="6.99366">
        <ele>1616</ele>
        <time>2022-07-21T13:44:52.000Z</time>
      </trkpt>
      <trkpt lat="44.10455" lon="6.99366">
        <ele>1614.8000488281</ele>
        <time>2022-07-21T13:44:53.000Z</time>
      </trkpt>
      <trkpt lat="44.10455" lon="6.99365">
        <ele>1613.8000488281</ele>
        <time>2022-07-21T13:44:54.000Z</time>
      </trkpt>
      <trkpt lat="44.10455" lon="6.99365">
        <ele>1612.8000488281</ele>
        <time>2022-07-21T13:44:56.000Z</time>
      </trkpt>
      <trkpt lat="44.10455" lon="6.99365">
        <ele>1612.5999755859</ele>
        <time>2022-07-21T13:44:57.000Z</time>
      </trkpt>
      <trkpt lat="44.10456" lon="6.99365">
        <ele>1613.4000244141</ele>
        <time>2022-07-21T13:45:11.000Z</time>
      </trkpt>
      <trkpt lat="44.10456" lon="6.99365">
        <ele>1613.8000488281</ele>
        <time>2022-07-21T13:45:13.000Z</time>
      </trkpt>
      <trkpt lat="44.10456" lon="6.99365">
        <ele>1614.8000488281</ele>
        <time>2022-07-21T13:45:19.000Z</time>
      </trkpt>
      <trkpt lat="44.10457" lon="6.99364">
        <ele>1615.8000488281</ele>
        <time>2022-07-21T13:45:28.000Z</time>
      </trkpt>
      <trkpt lat="44.10457" lon="6.99361">
        <ele>1616</ele>
        <time>2022-07-21T13:45:30.000Z</time>
      </trkpt>
      <trkpt lat="44.10454" lon="6.99348">
        <ele>1616.1999511719</ele>
        <time>2022-07-21T13:45:33.000Z</time>
      </trkpt>
      <trkpt lat="44.10454" lon="6.99344">
        <ele>1615.8000488281</ele>
        <time>2022-07-21T13:45:34.000Z</time>
      </trkpt>
      <trkpt lat="44.10457" lon="6.99337">
        <ele>1614.8000488281</ele>
        <time>2022-07-21T13:45:36.000Z</time>
      </trkpt>
      <trkpt lat="44.10458" lon="6.99334">
        <ele>1614</ele>
        <time>2022-07-21T13:45:37.000Z</time>
      </trkpt>
      <trkpt lat="44.10459" lon="6.99328">
        <ele>1612.5999755859</ele>
        <time>2022-07-21T13:45:39.000Z</time>
      </trkpt>
      <trkpt lat="44.10456" lon="6.99319">
        <ele>1611.4000244141</ele>
        <time>2022-07-21T13:45:42.000Z</time>
      </trkpt>
      <trkpt lat="44.10455" lon="6.99313">
        <ele>1611.1999511719</ele>
        <time>2022-07-21T13:45:44.000Z</time>
      </trkpt>
      <trkpt lat="44.10449" lon="6.99308">
        <ele>1610</ele>
        <time>2022-07-21T13:45:47.000Z</time>
      </trkpt>
      <trkpt lat="44.10447" lon="6.99308">
        <ele>1609.4000244141</ele>
        <time>2022-07-21T13:45:48.000Z</time>
      </trkpt>
      <trkpt lat="44.10444" lon="6.99308">
        <ele>1608.4000244141</ele>
        <time>2022-07-21T13:45:49.000Z</time>
      </trkpt>
      <trkpt lat="44.10441" lon="6.99307">
        <ele>1606.5999755859</ele>
        <time>2022-07-21T13:45:50.000Z</time>
      </trkpt>
      <trkpt lat="44.1044" lon="6.99305">
        <ele>1605.5999755859</ele>
        <time>2022-07-21T13:45:51.000Z</time>
      </trkpt>
      <trkpt lat="44.10438" lon="6.99304">
        <ele>1604.4000244141</ele>
        <time>2022-07-21T13:45:52.000Z</time>
      </trkpt>
      <trkpt lat="44.10434" lon="6.99305">
        <ele>1602.8000488281</ele>
        <time>2022-07-21T13:45:54.000Z</time>
      </trkpt>
      <trkpt lat="44.10431" lon="6.99308">
        <ele>1602</ele>
        <time>2022-07-21T13:45:55.000Z</time>
      </trkpt>
      <trkpt lat="44.10427" lon="6.99309">
        <ele>1601.4000244141</ele>
        <time>2022-07-21T13:45:56.000Z</time>
      </trkpt>
      <trkpt lat="44.1042" lon="6.99312">
        <ele>1600.4000244141</ele>
        <time>2022-07-21T13:45:58.000Z</time>
      </trkpt>
      <trkpt lat="44.10416" lon="6.99313">
        <ele>1600</ele>
        <time>2022-07-21T13:45:59.000Z</time>
      </trkpt>
      <trkpt lat="44.10411" lon="6.99315">
        <ele>1598.8000488281</ele>
        <time>2022-07-21T13:46:01.000Z</time>
      </trkpt>
      <trkpt lat="44.10408" lon="6.99314">
        <ele>1597.4000244141</ele>
        <time>2022-07-21T13:46:03.000Z</time>
      </trkpt>
      <trkpt lat="44.10408" lon="6.99309">
        <ele>1596</ele>
        <time>2022-07-21T13:46:05.000Z</time>
      </trkpt>
      <trkpt lat="44.10407" lon="6.99307">
        <ele>1595</ele>
        <time>2022-07-21T13:46:06.000Z</time>
      </trkpt>
      <trkpt lat="44.10406" lon="6.99307">
        <ele>1594.4000244141</ele>
        <time>2022-07-21T13:46:07.000Z</time>
      </trkpt>
      <trkpt lat="44.10403" lon="6.99309">
        <ele>1593.5999755859</ele>
        <time>2022-07-21T13:46:08.000Z</time>
      </trkpt>
      <trkpt lat="44.10397" lon="6.99314">
        <ele>1592.1999511719</ele>
        <time>2022-07-21T13:46:10.000Z</time>
      </trkpt>
      <trkpt lat="44.10394" lon="6.99316">
        <ele>1591.1999511719</ele>
        <time>2022-07-21T13:46:11.000Z</time>
      </trkpt>
      <trkpt lat="44.10391" lon="6.99318">
        <ele>1590.1999511719</ele>
        <time>2022-07-21T13:46:12.000Z</time>
      </trkpt>
      <trkpt lat="44.10385" lon="6.99326">
        <ele>1588.1999511719</ele>
        <time>2022-07-21T13:46:14.000Z</time>
      </trkpt>
      <trkpt lat="44.10379" lon="6.99337">
        <ele>1587</ele>
        <time>2022-07-21T13:46:16.000Z</time>
      </trkpt>
      <trkpt lat="44.10374" lon="6.99348">
        <ele>1585.4000244141</ele>
        <time>2022-07-21T13:46:18.000Z</time>
      </trkpt>
      <trkpt lat="44.1037" lon="6.99357">
        <ele>1584.1999511719</ele>
        <time>2022-07-21T13:46:20.000Z</time>
      </trkpt>
      <trkpt lat="44.10364" lon="6.99364">
        <ele>1583</ele>
        <time>2022-07-21T13:46:22.000Z</time>
      </trkpt>
      <trkpt lat="44.10361" lon="6.99368">
        <ele>1582.1999511719</ele>
        <time>2022-07-21T13:46:23.000Z</time>
      </trkpt>
      <trkpt lat="44.10358" lon="6.99373">
        <ele>1581.1999511719</ele>
        <time>2022-07-21T13:46:24.000Z</time>
      </trkpt>
      <trkpt lat="44.10354" lon="6.99377">
        <ele>1580</ele>
        <time>2022-07-21T13:46:25.000Z</time>
      </trkpt>
      <trkpt lat="44.10351" lon="6.99379">
        <ele>1578.1999511719</ele>
        <time>2022-07-21T13:46:26.000Z</time>
      </trkpt>
      <trkpt lat="44.10348" lon="6.99383">
        <ele>1577.1999511719</ele>
        <time>2022-07-21T13:46:27.000Z</time>
      </trkpt>
      <trkpt lat="44.10345" lon="6.99388">
        <ele>1575.8000488281</ele>
        <time>2022-07-21T13:46:28.000Z</time>
      </trkpt>
      <trkpt lat="44.10343" lon="6.99395">
        <ele>1574.8000488281</ele>
        <time>2022-07-21T13:46:29.000Z</time>
      </trkpt>
      <trkpt lat="44.10341" lon="6.99402">
        <ele>1573.5999755859</ele>
        <time>2022-07-21T13:46:30.000Z</time>
      </trkpt>
      <trkpt lat="44.10336" lon="6.99413">
        <ele>1571.5999755859</ele>
        <time>2022-07-21T13:46:32.000Z</time>
      </trkpt>
      <trkpt lat="44.10334" lon="6.9942">
        <ele>1570.4000244141</ele>
        <time>2022-07-21T13:46:33.000Z</time>
      </trkpt>
      <trkpt lat="44.10332" lon="6.99427">
        <ele>1570.5999755859</ele>
        <time>2022-07-21T13:46:34.000Z</time>
      </trkpt>
      <trkpt lat="44.1033" lon="6.99436">
        <ele>1569.4000244141</ele>
        <time>2022-07-21T13:46:35.000Z</time>
      </trkpt>
      <trkpt lat="44.10329" lon="6.99451">
        <ele>1568</ele>
        <time>2022-07-21T13:46:37.000Z</time>
      </trkpt>
      <trkpt lat="44.10328" lon="6.99469">
        <ele>1566.1999511719</ele>
        <time>2022-07-21T13:46:40.000Z</time>
      </trkpt>
      <trkpt lat="44.10327" lon="6.99475">
        <ele>1565.8000488281</ele>
        <time>2022-07-21T13:46:41.000Z</time>
      </trkpt>
      <trkpt lat="44.10326" lon="6.99481">
        <ele>1565.5999755859</ele>
        <time>2022-07-21T13:46:42.000Z</time>
      </trkpt>
      <trkpt lat="44.10324" lon="6.99492">
        <ele>1564.8000488281</ele>
        <time>2022-07-21T13:46:44.000Z</time>
      </trkpt>
      <trkpt lat="44.10322" lon="6.99495">
        <ele>1564.4000244141</ele>
        <time>2022-07-21T13:46:45.000Z</time>
      </trkpt>
      <trkpt lat="44.10317" lon="6.99502">
        <ele>1563.5999755859</ele>
        <time>2022-07-21T13:46:47.000Z</time>
      </trkpt>
      <trkpt lat="44.10309" lon="6.99501">
        <ele>1562.8000488281</ele>
        <time>2022-07-21T13:46:49.000Z</time>
      </trkpt>
      <trkpt lat="44.10305" lon="6.99498">
        <ele>1561.5999755859</ele>
        <time>2022-07-21T13:46:50.000Z</time>
      </trkpt>
      <trkpt lat="44.10302" lon="6.99493">
        <ele>1560.1999511719</ele>
        <time>2022-07-21T13:46:51.000Z</time>
      </trkpt>
      <trkpt lat="44.10298" lon="6.99489">
        <ele>1559.5999755859</ele>
        <time>2022-07-21T13:46:52.000Z</time>
      </trkpt>
      <trkpt lat="44.10296" lon="6.99487">
        <ele>1559.8000488281</ele>
        <time>2022-07-21T13:46:53.000Z</time>
      </trkpt>
      <trkpt lat="44.10293" lon="6.99492">
        <ele>1558</ele>
        <time>2022-07-21T13:46:55.000Z</time>
      </trkpt>
      <trkpt lat="44.10289" lon="6.99491">
        <ele>1557.1999511719</ele>
        <time>2022-07-21T13:46:57.000Z</time>
      </trkpt>
      <trkpt lat="44.10286" lon="6.99488">
        <ele>1557</ele>
        <time>2022-07-21T13:46:58.000Z</time>
      </trkpt>
      <trkpt lat="44.10282" lon="6.99477">
        <ele>1555.1999511719</ele>
        <time>2022-07-21T13:47:00.000Z</time>
      </trkpt>
      <trkpt lat="44.10281" lon="6.99472">
        <ele>1553.8000488281</ele>
        <time>2022-07-21T13:47:01.000Z</time>
      </trkpt>
      <trkpt lat="44.10281" lon="6.99466">
        <ele>1552.4000244141</ele>
        <time>2022-07-21T13:47:02.000Z</time>
      </trkpt>
      <trkpt lat="44.10281" lon="6.99458">
        <ele>1551.1999511719</ele>
        <time>2022-07-21T13:47:03.000Z</time>
      </trkpt>
      <trkpt lat="44.1028" lon="6.99451">
        <ele>1550.4000244141</ele>
        <time>2022-07-21T13:47:04.000Z</time>
      </trkpt>
      <trkpt lat="44.1028" lon="6.99444">
        <ele>1549.4000244141</ele>
        <time>2022-07-21T13:47:05.000Z</time>
      </trkpt>
      <trkpt lat="44.10281" lon="6.99437">
        <ele>1548.4000244141</ele>
        <time>2022-07-21T13:47:06.000Z</time>
      </trkpt>
      <trkpt lat="44.10282" lon="6.99431">
        <ele>1547.4000244141</ele>
        <time>2022-07-21T13:47:07.000Z</time>
      </trkpt>
      <trkpt lat="44.10281" lon="6.99425">
        <ele>1546.5999755859</ele>
        <time>2022-07-21T13:47:08.000Z</time>
      </trkpt>
      <trkpt lat="44.10281" lon="6.99418">
        <ele>1546.5999755859</ele>
        <time>2022-07-21T13:47:09.000Z</time>
      </trkpt>
      <trkpt lat="44.1028" lon="6.99412">
        <ele>1546.4000244141</ele>
        <time>2022-07-21T13:47:10.000Z</time>
      </trkpt>
      <trkpt lat="44.1028" lon="6.99405">
        <ele>1546</ele>
        <time>2022-07-21T13:47:11.000Z</time>
      </trkpt>
      <trkpt lat="44.10279" lon="6.99398">
        <ele>1545.8000488281</ele>
        <time>2022-07-21T13:47:12.000Z</time>
      </trkpt>
      <trkpt lat="44.10278" lon="6.99392">
        <ele>1545.4000244141</ele>
        <time>2022-07-21T13:47:13.000Z</time>
      </trkpt>
      <trkpt lat="44.10277" lon="6.99385">
        <ele>1545</ele>
        <time>2022-07-21T13:47:14.000Z</time>
      </trkpt>
      <trkpt lat="44.10274" lon="6.99364">
        <ele>1543.8000488281</ele>
        <time>2022-07-21T13:47:17.000Z</time>
      </trkpt>
      <trkpt lat="44.10273" lon="6.99359">
        <ele>1542.8000488281</ele>
        <time>2022-07-21T13:47:18.000Z</time>
      </trkpt>
      <trkpt lat="44.10272" lon="6.99354">
        <ele>1542</ele>
        <time>2022-07-21T13:47:19.000Z</time>
      </trkpt>
      <trkpt lat="44.10269" lon="6.99348">
        <ele>1540.8000488281</ele>
        <time>2022-07-21T13:47:21.000Z</time>
      </trkpt>
      <trkpt lat="44.10267" lon="6.99345">
        <ele>1540.1999511719</ele>
        <time>2022-07-21T13:47:22.000Z</time>
      </trkpt>
      <trkpt lat="44.10264" lon="6.99343">
        <ele>1539.4000244141</ele>
        <time>2022-07-21T13:47:23.000Z</time>
      </trkpt>
      <trkpt lat="44.10261" lon="6.9934">
        <ele>1538.4000244141</ele>
        <time>2022-07-21T13:47:24.000Z</time>
      </trkpt>
      <trkpt lat="44.10254" lon="6.99334">
        <ele>1536.4000244141</ele>
        <time>2022-07-21T13:47:26.000Z</time>
      </trkpt>
      <trkpt lat="44.10249" lon="6.99328">
        <ele>1535.4000244141</ele>
        <time>2022-07-21T13:47:27.000Z</time>
      </trkpt>
      <trkpt lat="44.10245" lon="6.99322">
        <ele>1534.1999511719</ele>
        <time>2022-07-21T13:47:28.000Z</time>
      </trkpt>
      <trkpt lat="44.10241" lon="6.99316">
        <ele>1532.8000488281</ele>
        <time>2022-07-21T13:47:29.000Z</time>
      </trkpt>
      <trkpt lat="44.10238" lon="6.9931">
        <ele>1531.4000244141</ele>
        <time>2022-07-21T13:47:30.000Z</time>
      </trkpt>
      <trkpt lat="44.10234" lon="6.99306">
        <ele>1530</ele>
        <time>2022-07-21T13:47:31.000Z</time>
      </trkpt>
      <trkpt lat="44.10229" lon="6.99301">
        <ele>1528.5999755859</ele>
        <time>2022-07-21T13:47:32.000Z</time>
      </trkpt>
      <trkpt lat="44.10223" lon="6.99295">
        <ele>1527</ele>
        <time>2022-07-21T13:47:33.000Z</time>
      </trkpt>
      <trkpt lat="44.10217" lon="6.99289">
        <ele>1525</ele>
        <time>2022-07-21T13:47:34.000Z</time>
      </trkpt>
      <trkpt lat="44.1021" lon="6.99283">
        <ele>1523.4000244141</ele>
        <time>2022-07-21T13:47:35.000Z</time>
      </trkpt>
      <trkpt lat="44.10195" lon="6.9927">
        <ele>1520.1999511719</ele>
        <time>2022-07-21T13:47:37.000Z</time>
      </trkpt>
      <trkpt lat="44.10187" lon="6.99265">
        <ele>1519</ele>
        <time>2022-07-21T13:47:38.000Z</time>
      </trkpt>
      <trkpt lat="44.10181" lon="6.99262">
        <ele>1516.1999511719</ele>
        <time>2022-07-21T13:47:39.000Z</time>
      </trkpt>
      <trkpt lat="44.10174" lon="6.99259">
        <ele>1513.4000244141</ele>
        <time>2022-07-21T13:47:40.000Z</time>
      </trkpt>
      <trkpt lat="44.10168" lon="6.99256">
        <ele>1511</ele>
        <time>2022-07-21T13:47:41.000Z</time>
      </trkpt>
      <trkpt lat="44.1016" lon="6.9925">
        <ele>1509.4000244141</ele>
        <time>2022-07-21T13:47:42.000Z</time>
      </trkpt>
      <trkpt lat="44.10154" lon="6.99244">
        <ele>1508</ele>
        <time>2022-07-21T13:47:43.000Z</time>
      </trkpt>
      <trkpt lat="44.10149" lon="6.99238">
        <ele>1506.8000488281</ele>
        <time>2022-07-21T13:47:44.000Z</time>
      </trkpt>
      <trkpt lat="44.10144" lon="6.99233">
        <ele>1505.1999511719</ele>
        <time>2022-07-21T13:47:45.000Z</time>
      </trkpt>
      <trkpt lat="44.10142" lon="6.99227">
        <ele>1503.5999755859</ele>
        <time>2022-07-21T13:47:46.000Z</time>
      </trkpt>
      <trkpt lat="44.10142" lon="6.99221">
        <ele>1502</ele>
        <time>2022-07-21T13:47:47.000Z</time>
      </trkpt>
      <trkpt lat="44.10145" lon="6.99217">
        <ele>1500.4000244141</ele>
        <time>2022-07-21T13:47:48.000Z</time>
      </trkpt>
      <trkpt lat="44.10148" lon="6.99213">
        <ele>1499</ele>
        <time>2022-07-21T13:47:49.000Z</time>
      </trkpt>
      <trkpt lat="44.10149" lon="6.9921">
        <ele>1498</ele>
        <time>2022-07-21T13:47:50.000Z</time>
      </trkpt>
      <trkpt lat="44.10148" lon="6.99207">
        <ele>1497</ele>
        <time>2022-07-21T13:47:51.000Z</time>
      </trkpt>
      <trkpt lat="44.10146" lon="6.99206">
        <ele>1495.5999755859</ele>
        <time>2022-07-21T13:47:53.000Z</time>
      </trkpt>
      <trkpt lat="44.10143" lon="6.99209">
        <ele>1495.1999511719</ele>
        <time>2022-07-21T13:47:56.000Z</time>
      </trkpt>
      <trkpt lat="44.10139" lon="6.99213">
        <ele>1495.4000244141</ele>
        <time>2022-07-21T13:47:59.000Z</time>
      </trkpt>
      <trkpt lat="44.10132" lon="6.99219">
        <ele>1495.5999755859</ele>
        <time>2022-07-21T13:48:05.000Z</time>
      </trkpt>
      <trkpt lat="44.10129" lon="6.99221">
        <ele>1495.4000244141</ele>
        <time>2022-07-21T13:48:10.000Z</time>
      </trkpt>
      <trkpt lat="44.10129" lon="6.99221">
        <ele>1495.8000488281</ele>
        <time>2022-07-21T13:48:23.000Z</time>
      </trkpt>
      <trkpt lat="44.10129" lon="6.99222">
        <ele>1496.8000488281</ele>
        <time>2022-07-21T13:48:30.000Z</time>
      </trkpt>
      <trkpt lat="44.10129" lon="6.99222">
        <ele>1497.5999755859</ele>
        <time>2022-07-21T13:48:41.000Z</time>
      </trkpt>
      <trkpt lat="44.10129" lon="6.99222">
        <ele>1497.8000488281</ele>
        <time>2022-07-21T13:48:45.000Z</time>
      </trkpt>
      <trkpt lat="44.10131" lon="6.99222">
        <ele>1497.5999755859</ele>
        <time>2022-07-21T13:48:55.000Z</time>
      </trkpt>
      <trkpt lat="44.10131" lon="6.99222">
        <ele>1497.5999755859</ele>
        <time>2022-07-21T13:49:02.000Z</time>
      </trkpt>
      <trkpt lat="44.10131" lon="6.99221">
        <ele>1497.8000488281</ele>
        <time>2022-07-21T13:49:16.000Z</time>
      </trkpt>
      <trkpt lat="44.10131" lon="6.9922">
        <ele>1497.8000488281</ele>
        <time>2022-07-21T13:49:17.000Z</time>
      </trkpt>
      <trkpt lat="44.10137" lon="6.99216">
        <ele>1497.5999755859</ele>
        <time>2022-07-21T13:49:20.000Z</time>
      </trkpt>
      <trkpt lat="44.1014" lon="6.99215">
        <ele>1497.5999755859</ele>
        <time>2022-07-21T13:49:21.000Z</time>
      </trkpt>
      <trkpt lat="44.10148" lon="6.9921">
        <ele>1497.1999511719</ele>
        <time>2022-07-21T13:49:23.000Z</time>
      </trkpt>
      <trkpt lat="44.10152" lon="6.99206">
        <ele>1496.8000488281</ele>
        <time>2022-07-21T13:49:24.000Z</time>
      </trkpt>
      <trkpt lat="44.10157" lon="6.99201">
        <ele>1496.4000244141</ele>
        <time>2022-07-21T13:49:25.000Z</time>
      </trkpt>
      <trkpt lat="44.10172" lon="6.99185">
        <ele>1494.5999755859</ele>
        <time>2022-07-21T13:49:28.000Z</time>
      </trkpt>
      <trkpt lat="44.10177" lon="6.99178">
        <ele>1494</ele>
        <time>2022-07-21T13:49:29.000Z</time>
      </trkpt>
      <trkpt lat="44.10183" lon="6.9917">
        <ele>1493.4000244141</ele>
        <time>2022-07-21T13:49:30.000Z</time>
      </trkpt>
      <trkpt lat="44.10194" lon="6.99154">
        <ele>1491.8000488281</ele>
        <time>2022-07-21T13:49:32.000Z</time>
      </trkpt>
      <trkpt lat="44.10205" lon="6.99137">
        <ele>1490.5999755859</ele>
        <time>2022-07-21T13:49:34.000Z</time>
      </trkpt>
      <trkpt lat="44.10217" lon="6.99116">
        <ele>1489.4000244141</ele>
        <time>2022-07-21T13:49:36.000Z</time>
      </trkpt>
      <trkpt lat="44.10229" lon="6.99094">
        <ele>1488</ele>
        <time>2022-07-21T13:49:38.000Z</time>
      </trkpt>
      <trkpt lat="44.10235" lon="6.99083">
        <ele>1487.4000244141</ele>
        <time>2022-07-21T13:49:39.000Z</time>
      </trkpt>
      <trkpt lat="44.10241" lon="6.99071">
        <ele>1486.8000488281</ele>
        <time>2022-07-21T13:49:40.000Z</time>
      </trkpt>
      <trkpt lat="44.10255" lon="6.99046">
        <ele>1485.5999755859</ele>
        <time>2022-07-21T13:49:42.000Z</time>
      </trkpt>
      <trkpt lat="44.1027" lon="6.9902">
        <ele>1484.1999511719</ele>
        <time>2022-07-21T13:49:44.000Z</time>
      </trkpt>
      <trkpt lat="44.10285" lon="6.98995">
        <ele>1482</ele>
        <time>2022-07-21T13:49:46.000Z</time>
      </trkpt>
      <trkpt lat="44.10293" lon="6.9898">
        <ele>1481</ele>
        <time>2022-07-21T13:49:47.000Z</time>
      </trkpt>
      <trkpt lat="44.10301" lon="6.98966">
        <ele>1479.5999755859</ele>
        <time>2022-07-21T13:49:48.000Z</time>
      </trkpt>
      <trkpt lat="44.10308" lon="6.98951">
        <ele>1478</ele>
        <time>2022-07-21T13:49:49.000Z</time>
      </trkpt>
      <trkpt lat="44.10314" lon="6.98936">
        <ele>1476.4000244141</ele>
        <time>2022-07-21T13:49:50.000Z</time>
      </trkpt>
      <trkpt lat="44.10321" lon="6.98922">
        <ele>1475.1999511719</ele>
        <time>2022-07-21T13:49:51.000Z</time>
      </trkpt>
      <trkpt lat="44.10327" lon="6.98906">
        <ele>1474</ele>
        <time>2022-07-21T13:49:52.000Z</time>
      </trkpt>
      <trkpt lat="44.10341" lon="6.98875">
        <ele>1472.4000244141</ele>
        <time>2022-07-21T13:49:54.000Z</time>
      </trkpt>
      <trkpt lat="44.10355" lon="6.98845">
        <ele>1471</ele>
        <time>2022-07-21T13:49:56.000Z</time>
      </trkpt>
      <trkpt lat="44.10363" lon="6.98828">
        <ele>1470.1999511719</ele>
        <time>2022-07-21T13:49:57.000Z</time>
      </trkpt>
      <trkpt lat="44.10371" lon="6.98814">
        <ele>1469.1999511719</ele>
        <time>2022-07-21T13:49:58.000Z</time>
      </trkpt>
      <trkpt lat="44.10382" lon="6.98801">
        <ele>1468.5999755859</ele>
        <time>2022-07-21T13:49:59.000Z</time>
      </trkpt>
      <trkpt lat="44.10394" lon="6.98791">
        <ele>1467.4000244141</ele>
        <time>2022-07-21T13:50:00.000Z</time>
      </trkpt>
      <trkpt lat="44.1042" lon="6.9878">
        <ele>1466.1999511719</ele>
        <time>2022-07-21T13:50:02.000Z</time>
      </trkpt>
      <trkpt lat="44.10433" lon="6.98778">
        <ele>1465</ele>
        <time>2022-07-21T13:50:03.000Z</time>
      </trkpt>
      <trkpt lat="44.10446" lon="6.98778">
        <ele>1464</ele>
        <time>2022-07-21T13:50:04.000Z</time>
      </trkpt>
      <trkpt lat="44.10471" lon="6.98773">
        <ele>1462.1999511719</ele>
        <time>2022-07-21T13:50:06.000Z</time>
      </trkpt>
      <trkpt lat="44.10483" lon="6.98767">
        <ele>1461</ele>
        <time>2022-07-21T13:50:07.000Z</time>
      </trkpt>
      <trkpt lat="44.10498" lon="6.98746">
        <ele>1459.8000488281</ele>
        <time>2022-07-21T13:50:09.000Z</time>
      </trkpt>
      <trkpt lat="44.10503" lon="6.9872">
        <ele>1459.1999511719</ele>
        <time>2022-07-21T13:50:11.000Z</time>
      </trkpt>
      <trkpt lat="44.10497" lon="6.98684">
        <ele>1459</ele>
        <time>2022-07-21T13:50:14.000Z</time>
      </trkpt>
      <trkpt lat="44.10483" lon="6.98671">
        <ele>1458.8000488281</ele>
        <time>2022-07-21T13:50:16.000Z</time>
      </trkpt>
      <trkpt lat="44.10473" lon="6.98665">
        <ele>1458.5999755859</ele>
        <time>2022-07-21T13:50:17.000Z</time>
      </trkpt>
      <trkpt lat="44.10464" lon="6.98661">
        <ele>1458.1999511719</ele>
        <time>2022-07-21T13:50:18.000Z</time>
      </trkpt>
      <trkpt lat="44.10455" lon="6.98658">
        <ele>1457.5999755859</ele>
        <time>2022-07-21T13:50:19.000Z</time>
      </trkpt>
      <trkpt lat="44.10426" lon="6.98649">
        <ele>1456</ele>
        <time>2022-07-21T13:50:22.000Z</time>
      </trkpt>
      <trkpt lat="44.10405" lon="6.98644">
        <ele>1454.8000488281</ele>
        <time>2022-07-21T13:50:24.000Z</time>
      </trkpt>
      <trkpt lat="44.10385" lon="6.98642">
        <ele>1452.8000488281</ele>
        <time>2022-07-21T13:50:26.000Z</time>
      </trkpt>
      <trkpt lat="44.10374" lon="6.9864">
        <ele>1451.8000488281</ele>
        <time>2022-07-21T13:50:27.000Z</time>
      </trkpt>
      <trkpt lat="44.10364" lon="6.98639">
        <ele>1451</ele>
        <time>2022-07-21T13:50:28.000Z</time>
      </trkpt>
      <trkpt lat="44.10343" lon="6.98639">
        <ele>1449.1999511719</ele>
        <time>2022-07-21T13:50:30.000Z</time>
      </trkpt>
      <trkpt lat="44.10322" lon="6.9864">
        <ele>1447.8000488281</ele>
        <time>2022-07-21T13:50:32.000Z</time>
      </trkpt>
      <trkpt lat="44.10303" lon="6.98641">
        <ele>1446.5999755859</ele>
        <time>2022-07-21T13:50:34.000Z</time>
      </trkpt>
      <trkpt lat="44.10283" lon="6.98642">
        <ele>1445.4000244141</ele>
        <time>2022-07-21T13:50:36.000Z</time>
      </trkpt>
      <trkpt lat="44.10252" lon="6.98647">
        <ele>1444.1999511719</ele>
        <time>2022-07-21T13:50:39.000Z</time>
      </trkpt>
      <trkpt lat="44.10233" lon="6.98652">
        <ele>1443</ele>
        <time>2022-07-21T13:50:41.000Z</time>
      </trkpt>
      <trkpt lat="44.10214" lon="6.98658">
        <ele>1441.5999755859</ele>
        <time>2022-07-21T13:50:43.000Z</time>
      </trkpt>
      <trkpt lat="44.10194" lon="6.98663">
        <ele>1440.5999755859</ele>
        <time>2022-07-21T13:50:45.000Z</time>
      </trkpt>
      <trkpt lat="44.10156" lon="6.98674">
        <ele>1439.4000244141</ele>
        <time>2022-07-21T13:50:49.000Z</time>
      </trkpt>
      <trkpt lat="44.10129" lon="6.98686">
        <ele>1438</ele>
        <time>2022-07-21T13:50:52.000Z</time>
      </trkpt>
      <trkpt lat="44.10103" lon="6.98701">
        <ele>1436.8000488281</ele>
        <time>2022-07-21T13:50:55.000Z</time>
      </trkpt>
      <trkpt lat="44.10078" lon="6.98715">
        <ele>1435.5999755859</ele>
        <time>2022-07-21T13:50:58.000Z</time>
      </trkpt>
      <trkpt lat="44.1007" lon="6.9872">
        <ele>1435.1999511719</ele>
        <time>2022-07-21T13:50:59.000Z</time>
      </trkpt>
      <trkpt lat="44.10062" lon="6.98723">
        <ele>1435</ele>
        <time>2022-07-21T13:51:00.000Z</time>
      </trkpt>
      <trkpt lat="44.1004" lon="6.98729">
        <ele>1434.8000488281</ele>
        <time>2022-07-21T13:51:03.000Z</time>
      </trkpt>
      <trkpt lat="44.10024" lon="6.9873">
        <ele>1435.5999755859</ele>
        <time>2022-07-21T13:51:06.000Z</time>
      </trkpt>
      <trkpt lat="44.10019" lon="6.9873">
        <ele>1436</ele>
        <time>2022-07-21T13:51:07.000Z</time>
      </trkpt>
      <trkpt lat="44.10006" lon="6.98728">
        <ele>1436.8000488281</ele>
        <time>2022-07-21T13:51:11.000Z</time>
      </trkpt>
      <trkpt lat="44.10003" lon="6.98727">
        <ele>1437.1999511719</ele>
        <time>2022-07-21T13:51:12.000Z</time>
      </trkpt>
      <trkpt lat="44.09994" lon="6.98725">
        <ele>1438</ele>
        <time>2022-07-21T13:51:15.000Z</time>
      </trkpt>
      <trkpt lat="44.09985" lon="6.98723">
        <ele>1438.5999755859</ele>
        <time>2022-07-21T13:51:18.000Z</time>
      </trkpt>
      <trkpt lat="44.09972" lon="6.9872">
        <ele>1439.1999511719</ele>
        <time>2022-07-21T13:51:22.000Z</time>
      </trkpt>
      <trkpt lat="44.09953" lon="6.98717">
        <ele>1440</ele>
        <time>2022-07-21T13:51:28.000Z</time>
      </trkpt>
      <trkpt lat="44.0995" lon="6.98716">
        <ele>1440.1999511719</ele>
        <time>2022-07-21T13:51:29.000Z</time>
      </trkpt>
      <trkpt lat="44.09931" lon="6.98714">
        <ele>1441.4000244141</ele>
        <time>2022-07-21T13:51:35.000Z</time>
      </trkpt>
      <trkpt lat="44.09912" lon="6.98713">
        <ele>1442.4000244141</ele>
        <time>2022-07-21T13:51:41.000Z</time>
      </trkpt>
      <trkpt lat="44.09908" lon="6.98713">
        <ele>1442.4000244141</ele>
        <time>2022-07-21T13:51:42.000Z</time>
      </trkpt>
      <trkpt lat="44.09889" lon="6.98713">
        <ele>1443.4000244141</ele>
        <time>2022-07-21T13:51:48.000Z</time>
      </trkpt>
      <trkpt lat="44.09863" lon="6.98713">
        <ele>1444.5999755859</ele>
        <time>2022-07-21T13:51:56.000Z</time>
      </trkpt>
      <trkpt lat="44.09857" lon="6.98714">
        <ele>1445</ele>
        <time>2022-07-21T13:51:58.000Z</time>
      </trkpt>
      <trkpt lat="44.09841" lon="6.98714">
        <ele>1445.5999755859</ele>
        <time>2022-07-21T13:52:03.000Z</time>
      </trkpt>
      <trkpt lat="44.09829" lon="6.98715">
        <ele>1446.1999511719</ele>
        <time>2022-07-21T13:52:07.000Z</time>
      </trkpt>
      <trkpt lat="44.09823" lon="6.98714">
        <ele>1446.8000488281</ele>
        <time>2022-07-21T13:52:09.000Z</time>
      </trkpt>
      <trkpt lat="44.09802" lon="6.9871">
        <ele>1447.8000488281</ele>
        <time>2022-07-21T13:52:16.000Z</time>
      </trkpt>
      <trkpt lat="44.09793" lon="6.98707">
        <ele>1448.1999511719</ele>
        <time>2022-07-21T13:52:19.000Z</time>
      </trkpt>
      <trkpt lat="44.09782" lon="6.98704">
        <ele>1448.8000488281</ele>
        <time>2022-07-21T13:52:23.000Z</time>
      </trkpt>
      <trkpt lat="44.09768" lon="6.98699">
        <ele>1450.1999511719</ele>
        <time>2022-07-21T13:52:28.000Z</time>
      </trkpt>
      <trkpt lat="44.09754" lon="6.98694">
        <ele>1451.1999511719</ele>
        <time>2022-07-21T13:52:33.000Z</time>
      </trkpt>
      <trkpt lat="44.09748" lon="6.98693">
        <ele>1451.4000244141</ele>
        <time>2022-07-21T13:52:35.000Z</time>
      </trkpt>
      <trkpt lat="44.09732" lon="6.9869">
        <ele>1452.4000244141</ele>
        <time>2022-07-21T13:52:41.000Z</time>
      </trkpt>
      <trkpt lat="44.09726" lon="6.98689">
        <ele>1452.8000488281</ele>
        <time>2022-07-21T13:52:43.000Z</time>
      </trkpt>
      <trkpt lat="44.09718" lon="6.98687">
        <ele>1453.4000244141</ele>
        <time>2022-07-21T13:52:46.000Z</time>
      </trkpt>
      <trkpt lat="44.09706" lon="6.98684">
        <ele>1454.1999511719</ele>
        <time>2022-07-21T13:52:51.000Z</time>
      </trkpt>
      <trkpt lat="44.09701" lon="6.98682">
        <ele>1454.5999755859</ele>
        <time>2022-07-21T13:52:53.000Z</time>
      </trkpt>
      <trkpt lat="44.0969" lon="6.98675">
        <ele>1455.8000488281</ele>
        <time>2022-07-21T13:52:58.000Z</time>
      </trkpt>
      <trkpt lat="44.09681" lon="6.9867">
        <ele>1456.8000488281</ele>
        <time>2022-07-21T13:53:02.000Z</time>
      </trkpt>
      <trkpt lat="44.0967" lon="6.98663">
        <ele>1457.8000488281</ele>
        <time>2022-07-21T13:53:07.000Z</time>
      </trkpt>
      <trkpt lat="44.09668" lon="6.98662">
        <ele>1458.1999511719</ele>
        <time>2022-07-21T13:53:08.000Z</time>
      </trkpt>
      <trkpt lat="44.09654" lon="6.98653">
        <ele>1458.8000488281</ele>
        <time>2022-07-21T13:53:14.000Z</time>
      </trkpt>
      <trkpt lat="44.09646" lon="6.98648">
        <ele>1459.5999755859</ele>
        <time>2022-07-21T13:53:18.000Z</time>
      </trkpt>
      <trkpt lat="44.09642" lon="6.98645">
        <ele>1460</ele>
        <time>2022-07-21T13:53:20.000Z</time>
      </trkpt>
      <trkpt lat="44.09633" lon="6.98639">
        <ele>1460.8000488281</ele>
        <time>2022-07-21T13:53:25.000Z</time>
      </trkpt>
      <trkpt lat="44.09629" lon="6.98636">
        <ele>1461.1999511719</ele>
        <time>2022-07-21T13:53:27.000Z</time>
      </trkpt>
      <trkpt lat="44.09617" lon="6.98624">
        <ele>1461.8000488281</ele>
        <time>2022-07-21T13:53:34.000Z</time>
      </trkpt>
      <trkpt lat="44.0961" lon="6.98617">
        <ele>1462.1999511719</ele>
        <time>2022-07-21T13:53:38.000Z</time>
      </trkpt>
      <trkpt lat="44.09608" lon="6.98613">
        <ele>1462.1999511719</ele>
        <time>2022-07-21T13:53:40.000Z</time>
      </trkpt>
      <trkpt lat="44.09608" lon="6.98611">
        <ele>1461.8000488281</ele>
        <time>2022-07-21T13:53:44.000Z</time>
      </trkpt>
      <trkpt lat="44.09608" lon="6.98611">
        <ele>1461.5999755859</ele>
        <time>2022-07-21T13:53:50.000Z</time>
      </trkpt>
      <trkpt lat="44.09609" lon="6.98612">
        <ele>1461.5999755859</ele>
        <time>2022-07-21T13:53:59.000Z</time>
      </trkpt>
      <trkpt lat="44.09608" lon="6.98613">
        <ele>1462</ele>
        <time>2022-07-21T13:54:05.000Z</time>
      </trkpt>
      <trkpt lat="44.09608" lon="6.98613">
        <ele>1462.1999511719</ele>
        <time>2022-07-21T13:54:12.000Z</time>
      </trkpt>
      <trkpt lat="44.09608" lon="6.98614">
        <ele>1462.1999511719</ele>
        <time>2022-07-21T13:54:20.000Z</time>
      </trkpt>
      <trkpt lat="44.09609" lon="6.98611">
        <ele>1462</ele>
        <time>2022-07-21T13:54:25.000Z</time>
      </trkpt>
      <trkpt lat="44.09612" lon="6.98607">
        <ele>1461.4000244141</ele>
        <time>2022-07-21T13:54:29.000Z</time>
      </trkpt>
      <trkpt lat="44.09613" lon="6.98605">
        <ele>1461</ele>
        <time>2022-07-21T13:54:30.000Z</time>
      </trkpt>
      <trkpt lat="44.09616" lon="6.98603">
        <ele>1460.5999755859</ele>
        <time>2022-07-21T13:54:33.000Z</time>
      </trkpt>
      <trkpt lat="44.09619" lon="6.986">
        <ele>1460.5999755859</ele>
        <time>2022-07-21T13:54:36.000Z</time>
      </trkpt>
      <trkpt lat="44.09625" lon="6.98595">
        <ele>1461</ele>
        <time>2022-07-21T13:54:43.000Z</time>
      </trkpt>
      <trkpt lat="44.09626" lon="6.98596">
        <ele>1460.8000488281</ele>
        <time>2022-07-21T13:54:47.000Z</time>
      </trkpt>
      <trkpt lat="44.09626" lon="6.98595">
        <ele>1461.5999755859</ele>
        <time>2022-07-21T13:54:56.000Z</time>
      </trkpt>
      <trkpt lat="44.09627" lon="6.98594">
        <ele>1461.5999755859</ele>
        <time>2022-07-21T13:55:03.000Z</time>
      </trkpt>
      <trkpt lat="44.09627" lon="6.98593">
        <ele>1461.1999511719</ele>
        <time>2022-07-21T13:55:07.000Z</time>
      </trkpt>
      <trkpt lat="44.09628" lon="6.98594">
        <ele>1461.1999511719</ele>
        <time>2022-07-21T13:55:13.000Z</time>
      </trkpt>
      <trkpt lat="44.09627" lon="6.98592">
        <ele>1461.1999511719</ele>
        <time>2022-07-21T13:55:18.000Z</time>
      </trkpt>
      <trkpt lat="44.09626" lon="6.98592">
        <ele>1461.4000244141</ele>
        <time>2022-07-21T13:55:25.000Z</time>
      </trkpt>
      <trkpt lat="44.09627" lon="6.98594">
        <ele>1461.4000244141</ele>
        <time>2022-07-21T13:55:33.000Z</time>
      </trkpt>
      <trkpt lat="44.0962" lon="6.98598">
        <ele>1461.1999511719</ele>
        <time>2022-07-21T13:55:40.000Z</time>
      </trkpt>
      <trkpt lat="44.09613" lon="6.98601">
        <ele>1460.5999755859</ele>
        <time>2022-07-21T13:55:47.000Z</time>
      </trkpt>
      <trkpt lat="44.09613" lon="6.986">
        <ele>1460.5999755859</ele>
        <time>2022-07-21T13:55:48.000Z</time>
      </trkpt>
      <trkpt lat="44.09615" lon="6.98598">
        <ele>1460.4000244141</ele>
        <time>2022-07-21T13:55:50.000Z</time>
      </trkpt>
      <trkpt lat="44.09623" lon="6.98594">
        <ele>1460.1999511719</ele>
        <time>2022-07-21T13:55:57.000Z</time>
      </trkpt>
      <trkpt lat="44.09624" lon="6.98594">
        <ele>1460.1999511719</ele>
        <time>2022-07-21T13:55:58.000Z</time>
      </trkpt>
      <trkpt lat="44.09625" lon="6.98593">
        <ele>1460.8000488281</ele>
        <time>2022-07-21T13:56:02.000Z</time>
      </trkpt>
      <trkpt lat="44.09626" lon="6.98592">
        <ele>1461</ele>
        <time>2022-07-21T13:56:03.000Z</time>
      </trkpt>
      <trkpt lat="44.09627" lon="6.98592">
        <ele>1460.4000244141</ele>
        <time>2022-07-21T13:56:08.000Z</time>
      </trkpt>
      <trkpt lat="44.09628" lon="6.98593">
        <ele>1460</ele>
        <time>2022-07-21T13:56:15.000Z</time>
      </trkpt>
      <trkpt lat="44.09628" lon="6.98592">
        <ele>1460.4000244141</ele>
        <time>2022-07-21T13:56:19.000Z</time>
      </trkpt>
      <trkpt lat="44.09628" lon="6.98592">
        <ele>1460.5999755859</ele>
        <time>2022-07-21T13:56:26.000Z</time>
      </trkpt>
      <trkpt lat="44.09627" lon="6.98594">
        <ele>1460.8000488281</ele>
        <time>2022-07-21T13:56:28.000Z</time>
      </trkpt>
      <trkpt lat="44.09626" lon="6.98595">
        <ele>1460.8000488281</ele>
        <time>2022-07-21T13:56:31.000Z</time>
      </trkpt>
      <trkpt lat="44.09626" lon="6.98595">
        <ele>1461</ele>
        <time>2022-07-21T13:56:37.000Z</time>
      </trkpt>
      <trkpt lat="44.09625" lon="6.98596">
        <ele>1461</ele>
        <time>2022-07-21T13:56:44.000Z</time>
      </trkpt>
      <trkpt lat="44.09625" lon="6.98596">
        <ele>1460.5999755859</ele>
        <time>2022-07-21T13:56:51.000Z</time>
      </trkpt>
      <trkpt lat="44.09622" lon="6.98596">
        <ele>1460.5999755859</ele>
        <time>2022-07-21T13:56:57.000Z</time>
      </trkpt>
      <trkpt lat="44.09616" lon="6.98602">
        <ele>1461</ele>
        <time>2022-07-21T13:57:03.000Z</time>
      </trkpt>
      <trkpt lat="44.09616" lon="6.98604">
        <ele>1460.8000488281</ele>
        <time>2022-07-21T13:57:04.000Z</time>
      </trkpt>
      <trkpt lat="44.0961" lon="6.98608">
        <ele>1460.5999755859</ele>
        <time>2022-07-21T13:57:09.000Z</time>
      </trkpt>
      <trkpt lat="44.09606" lon="6.98612">
        <ele>1460.4000244141</ele>
        <time>2022-07-21T13:57:13.000Z</time>
      </trkpt>
      <trkpt lat="44.09604" lon="6.98616">
        <ele>1460.1999511719</ele>
        <time>2022-07-21T13:57:16.000Z</time>
      </trkpt>
      <trkpt lat="44.09605" lon="6.98619">
        <ele>1460.1999511719</ele>
        <time>2022-07-21T13:57:20.000Z</time>
      </trkpt>
      <trkpt lat="44.09607" lon="6.98619">
        <ele>1460.4000244141</ele>
        <time>2022-07-21T13:57:22.000Z</time>
      </trkpt>
      <trkpt lat="44.09608" lon="6.98617">
        <ele>1461.1999511719</ele>
        <time>2022-07-21T13:57:28.000Z</time>
      </trkpt>
      <trkpt lat="44.09608" lon="6.98618">
        <ele>1461.1999511719</ele>
        <time>2022-07-21T13:57:36.000Z</time>
      </trkpt>
      <trkpt lat="44.09607" lon="6.98617">
        <ele>1461.1999511719</ele>
        <time>2022-07-21T13:57:46.000Z</time>
      </trkpt>
      <trkpt lat="44.09607" lon="6.98618">
        <ele>1461</ele>
        <time>2022-07-21T13:57:56.000Z</time>
      </trkpt>
      <trkpt lat="44.09607" lon="6.98618">
        <ele>1461.4000244141</ele>
        <time>2022-07-21T13:58:06.000Z</time>
      </trkpt>
      <trkpt lat="44.09607" lon="6.98618">
        <ele>1460.8000488281</ele>
        <time>2022-07-21T13:58:15.000Z</time>
      </trkpt>
      <trkpt lat="44.09607" lon="6.98617">
        <ele>1460</ele>
        <time>2022-07-21T13:58:19.000Z</time>
      </trkpt>
      <trkpt lat="44.09607" lon="6.98617">
        <ele>1459.5999755859</ele>
        <time>2022-07-21T13:58:26.000Z</time>
      </trkpt>
      <trkpt lat="44.09607" lon="6.98617">
        <ele>1461</ele>
        <time>2022-07-21T13:58:32.000Z</time>
      </trkpt>
      <trkpt lat="44.09607" lon="6.98617">
        <ele>1461.1999511719</ele>
        <time>2022-07-21T13:58:40.000Z</time>
      </trkpt>
      <trkpt lat="44.09608" lon="6.98617">
        <ele>1460.8000488281</ele>
        <time>2022-07-21T13:58:47.000Z</time>
      </trkpt>
      <trkpt lat="44.09608" lon="6.98617">
        <ele>1461.1999511719</ele>
        <time>2022-07-21T13:58:54.000Z</time>
      </trkpt>
      <trkpt lat="44.09608" lon="6.98618">
        <ele>1461.1999511719</ele>
        <time>2022-07-21T13:58:59.000Z</time>
      </trkpt>
      <trkpt lat="44.09608" lon="6.98618">
        <ele>1461.1999511719</ele>
        <time>2022-07-21T13:59:00.000Z</time>
      </trkpt>
      <trkpt lat="44.09608" lon="6.98618">
        <ele>1461</ele>
        <time>2022-07-21T13:59:04.000Z</time>
      </trkpt>
      <trkpt lat="44.09608" lon="6.98618">
        <ele>1460.5999755859</ele>
        <time>2022-07-21T13:59:12.000Z</time>
      </trkpt>
      <trkpt lat="44.09608" lon="6.98618">
        <ele>1460</ele>
        <time>2022-07-21T13:59:15.000Z</time>
      </trkpt>
      <trkpt lat="44.09608" lon="6.98618">
        <ele>1460.1999511719</ele>
        <time>2022-07-21T13:59:19.000Z</time>
      </trkpt>
      <trkpt lat="44.09608" lon="6.98617">
        <ele>1460.4000244141</ele>
        <time>2022-07-21T13:59:28.000Z</time>
      </trkpt>
      <trkpt lat="44.09608" lon="6.98616">
        <ele>1460</ele>
        <time>2022-07-21T13:59:37.000Z</time>
      </trkpt>
      <trkpt lat="44.09608" lon="6.98616">
        <ele>1460.5999755859</ele>
        <time>2022-07-21T13:59:46.000Z</time>
      </trkpt>
      <trkpt lat="44.09608" lon="6.98616">
        <ele>1459.8000488281</ele>
        <time>2022-07-21T13:59:53.000Z</time>
      </trkpt>
      <trkpt lat="44.09608" lon="6.98617">
        <ele>1459.5999755859</ele>
        <time>2022-07-21T14:00:02.000Z</time>
      </trkpt>
      <trkpt lat="44.09608" lon="6.98617">
        <ele>1460.5999755859</ele>
        <time>2022-07-21T14:00:11.000Z</time>
      </trkpt>
      <trkpt lat="44.09608" lon="6.98616">
        <ele>1460</ele>
        <time>2022-07-21T14:00:22.000Z</time>
      </trkpt>
      <trkpt lat="44.09608" lon="6.98616">
        <ele>1460.8000488281</ele>
        <time>2022-07-21T14:00:30.000Z</time>
      </trkpt>
      <trkpt lat="44.09608" lon="6.98616">
        <ele>1461</ele>
        <time>2022-07-21T14:00:31.000Z</time>
      </trkpt>
    </trkseg>
  </trk>
</gpx>